<?xml version='1.0' encoding='UTF-8'?><gpx version="1.1" creator="JPX - https://github.com/jenetics/jpx" xmlns="http://www.topografix.com/GPX/1/1"><trk><trkseg><trkpt lat="41.68053910269042" lon="13.373753739121677"><ele>246.0</ele><time>2026-04-18T07:35:08.221Z</time></trkpt><trkpt lat="41.680468146679836" lon="13.373619622027388"><ele>246.0</ele><time>2026-04-18T07:35:10.221Z</time></trkpt><trkpt lat="41.68055432195585" lon="13.373574815947489"><ele>246.0</ele><time>2026-04-18T07:35:13.971Z</time></trkpt><trkpt lat="41.68055830573132" lon="13.373715405695181"><ele>246.0</ele><time>2026-04-18T07:36:21Z</time></trkpt><trkpt lat="41.68044108598212" lon="13.373582801159213"><ele>246.0</ele><time>2026-04-18T07:36:40.001Z</time></trkpt><trkpt lat="41.680427348316684" lon="13.373497357003748"><ele>246.0</ele><time>2026-04-18T07:36:44.001Z</time></trkpt><trkpt lat="41.68040391887819" lon="13.373408285757318"><ele>246.0</ele><time>2026-04-18T07:36:49.001Z</time></trkpt><trkpt lat="41.680389286133995" lon="13.37332100868423"><ele>246.0</ele><time>2026-04-18T07:36:53.001Z</time></trkpt><trkpt lat="41.68036437100747" lon="13.373224018508866"><ele>246.0</ele><time>2026-04-18T07:37:12.001Z</time></trkpt><trkpt lat="41.680289406267214" lon="13.37316096020724"><ele>246.0</ele><time>2026-04-18T07:37:15.001Z</time></trkpt><trkpt lat="41.680205932219685" lon="13.37315611669949"><ele>245.66666666666666</ele><time>2026-04-18T07:37:17.001Z</time></trkpt><trkpt lat="41.68011787601977" lon="13.373161761812543"><ele>245.33333333333331</ele><time>2026-04-18T07:37:19.001Z</time></trkpt><trkpt lat="41.68003412209198" lon="13.373171317498779"><ele>245.0</ele><time>2026-04-18T07:37:21.001Z</time></trkpt><trkpt lat="41.67996597565633" lon="13.373187390444603"><ele>244.66666666666666</ele><time>2026-04-18T07:37:23.001Z</time></trkpt><trkpt lat="41.6798858547949" lon="13.373218068496593"><ele>244.33333333333331</ele><time>2026-04-18T07:37:25.001Z</time></trkpt><trkpt lat="41.67979529977818" lon="13.373247083598908"><ele>244.0</ele><time>2026-04-18T07:37:27.001Z</time></trkpt><trkpt lat="41.679684860825056" lon="13.373266848723894"><ele>243.99999999999997</ele><time>2026-04-18T07:37:29.001Z</time></trkpt><trkpt lat="41.67955906637348" lon="13.373289675488138"><ele>244.0</ele><time>2026-04-18T07:37:31.001Z</time></trkpt><trkpt lat="41.67948915867383" lon="13.373300391570684"><ele>244.0</ele><time>2026-04-18T07:37:32.001Z</time></trkpt><trkpt lat="41.67942567334859" lon="13.373319556014948"><ele>244.0</ele><time>2026-04-18T07:37:33Z</time></trkpt><trkpt lat="41.67936338456201" lon="13.373339513978465"><ele>243.99999999999997</ele><time>2026-04-18T07:37:34Z</time></trkpt><trkpt lat="41.679276650167836" lon="13.373360073383282"><ele>244.0</ele><time>2026-04-18T07:37:36Z</time></trkpt><trkpt lat="41.67921040940664" lon="13.373284242113854"><ele>243.49999999999997</ele><time>2026-04-18T07:37:46Z</time></trkpt><trkpt lat="41.67916663183079" lon="13.373134936662355"><ele>243.0</ele><time>2026-04-18T07:37:48Z</time></trkpt><trkpt lat="41.67913191680643" lon="13.373051665527424"><ele>242.5</ele><time>2026-04-18T07:37:49Z</time></trkpt><trkpt lat="41.67907601215183" lon="13.37297074129695"><ele>242.0</ele><time>2026-04-18T07:37:50Z</time></trkpt><trkpt lat="41.679011640092206" lon="13.372919225078729"><ele>241.49999999999997</ele><time>2026-04-18T07:37:51Z</time></trkpt><trkpt lat="41.67893178433624" lon="13.372898981484683"><ele>241.0</ele><time>2026-04-18T07:37:52Z</time></trkpt><trkpt lat="41.678849959135704" lon="13.372886905848128"><ele>240.49999999999997</ele><time>2026-04-18T07:37:53Z</time></trkpt><trkpt lat="41.67877109753403" lon="13.372874924305385"><ele>240.0</ele><time>2026-04-18T07:37:54Z</time></trkpt><trkpt lat="41.67869102656467" lon="13.372853720104157"><ele>239.5</ele><time>2026-04-18T07:37:55Z</time></trkpt><trkpt lat="41.67861194200297" lon="13.37283302169344"><ele>239.0</ele><time>2026-04-18T07:37:56Z</time></trkpt><trkpt lat="41.67852801828397" lon="13.372823081938412"><ele>238.49999999999997</ele><time>2026-04-18T07:37:57Z</time></trkpt><trkpt lat="41.67845430473995" lon="13.37278491652571"><ele>238.0</ele><time>2026-04-18T07:37:58Z</time></trkpt><trkpt lat="41.67838702417974" lon="13.372735504261763"><ele>237.66666666666666</ele><time>2026-04-18T07:37:59Z</time></trkpt><trkpt lat="41.678331943376236" lon="13.372670558497948"><ele>237.33333333333331</ele><time>2026-04-18T07:38:00Z</time></trkpt><trkpt lat="41.678286550076905" lon="13.372592726653735"><ele>237.0</ele><time>2026-04-18T07:38:01Z</time></trkpt><trkpt lat="41.67825069657506" lon="13.372505061188322"><ele>236.66666666666669</ele><time>2026-04-18T07:38:02Z</time></trkpt><trkpt lat="41.67821809436115" lon="13.372403157729254"><ele>236.33333333333334</ele><time>2026-04-18T07:38:03Z</time></trkpt><trkpt lat="41.678185816619994" lon="13.372290036401624"><ele>236.0</ele><time>2026-04-18T07:38:04Z</time></trkpt><trkpt lat="41.67815038761328" lon="13.3721713072501"><ele>235.8</ele><time>2026-04-18T07:38:05Z</time></trkpt><trkpt lat="41.67810698466862" lon="13.37205407459523"><ele>235.60000000000002</ele><time>2026-04-18T07:38:06Z</time></trkpt><trkpt lat="41.67805655686704" lon="13.37194809167756"><ele>235.4</ele><time>2026-04-18T07:38:07Z</time></trkpt><trkpt lat="41.678005341738675" lon="13.371853099370002"><ele>235.2</ele><time>2026-04-18T07:38:08Z</time></trkpt><trkpt lat="41.677945191287634" lon="13.37176924405267"><ele>235.0</ele><time>2026-04-18T07:38:09Z</time></trkpt><trkpt lat="41.67787275654701" lon="13.371703246170954"><ele>234.99999999999997</ele><time>2026-04-18T07:38:10Z</time></trkpt><trkpt lat="41.677798924805685" lon="13.371645287190534"><ele>235.0</ele><time>2026-04-18T07:38:11Z</time></trkpt><trkpt lat="41.67771422727659" lon="13.371599048841745"><ele>235.0</ele><time>2026-04-18T07:38:12Z</time></trkpt><trkpt lat="41.67763134221291" lon="13.371549909895123"><ele>235.0</ele><time>2026-04-18T07:38:13Z</time></trkpt><trkpt lat="41.67755512243907" lon="13.371496192336023"><ele>234.99999999999997</ele><time>2026-04-18T07:38:14Z</time></trkpt><trkpt lat="41.67748917362768" lon="13.371442329103788"><ele>235.0</ele><time>2026-04-18T07:38:15Z</time></trkpt><trkpt lat="41.67741807833281" lon="13.371391424222555"><ele>235.16666666666666</ele><time>2026-04-18T07:38:16Z</time></trkpt><trkpt lat="41.67734147246268" lon="13.371343409322721"><ele>235.33333333333331</ele><time>2026-04-18T07:38:17Z</time></trkpt><trkpt lat="41.67725752564276" lon="13.371303099091424"><ele>235.5</ele><time>2026-04-18T07:38:18Z</time></trkpt><trkpt lat="41.67716782157796" lon="13.371261625167463"><ele>235.66666666666669</ele><time>2026-04-18T07:38:19Z</time></trkpt><trkpt lat="41.677089647593576" lon="13.371193484644404"><ele>235.83333333333334</ele><time>2026-04-18T07:38:20Z</time></trkpt><trkpt lat="41.677011217173145" lon="13.371143814579519"><ele>236.0</ele><time>2026-04-18T07:38:21Z</time></trkpt><trkpt lat="41.67692422229923" lon="13.371095567155015"><ele>235.60000000000002</ele><time>2026-04-18T07:38:22Z</time></trkpt><trkpt lat="41.67683916662497" lon="13.37105923849777"><ele>235.20000000000002</ele><time>2026-04-18T07:38:23Z</time></trkpt><trkpt lat="41.67675517299883" lon="13.371011768394366"><ele>234.79999999999998</ele><time>2026-04-18T07:38:24Z</time></trkpt><trkpt lat="41.676668855333176" lon="13.370972949449852"><ele>234.39999999999998</ele><time>2026-04-18T07:38:25Z</time></trkpt><trkpt lat="41.67658629060172" lon="13.370928542587514"><ele>234.0</ele><time>2026-04-18T07:38:26Z</time></trkpt><trkpt lat="41.67650534967139" lon="13.370877148561963"><ele>234.0</ele><time>2026-04-18T07:38:27Z</time></trkpt><trkpt lat="41.67644008008825" lon="13.370806827144577"><ele>234.0</ele><time>2026-04-18T07:38:28Z</time></trkpt><trkpt lat="41.676376712823924" lon="13.370727571866981"><ele>234.0</ele><time>2026-04-18T07:38:29Z</time></trkpt><trkpt lat="41.676310674500535" lon="13.370650196979993"><ele>234.0</ele><time>2026-04-18T07:38:30Z</time></trkpt><trkpt lat="41.676259182286834" lon="13.37056694535162"><ele>234.0</ele><time>2026-04-18T07:38:31Z</time></trkpt><trkpt lat="41.676206856481606" lon="13.370487101619062"><ele>234.0</ele><time>2026-04-18T07:38:32Z</time></trkpt><trkpt lat="41.67615437352131" lon="13.370411072341348"><ele>234.16666666666666</ele><time>2026-04-18T07:38:33Z</time></trkpt><trkpt lat="41.67609223222182" lon="13.370310682448478"><ele>234.33333333333331</ele><time>2026-04-18T07:38:35Z</time></trkpt><trkpt lat="41.676066576019814" lon="13.370230361356926"><ele>234.5</ele><time>2026-04-18T07:38:38Z</time></trkpt><trkpt lat="41.67602606050287" lon="13.370159160175643"><ele>234.66666666666666</ele><time>2026-04-18T07:38:52Z</time></trkpt><trkpt lat="41.675955849010876" lon="13.370032037857792"><ele>234.83333333333331</ele><time>2026-04-18T07:38:54Z</time></trkpt><trkpt lat="41.67593909110917" lon="13.369921434256078"><ele>235.0</ele><time>2026-04-18T07:38:55Z</time></trkpt><trkpt lat="41.67593747971124" lon="13.369825506764577"><ele>234.99999999999997</ele><time>2026-04-18T07:38:56Z</time></trkpt><trkpt lat="41.67593746922802" lon="13.36973146048519"><ele>235.0</ele><time>2026-04-18T07:38:57Z</time></trkpt><trkpt lat="41.67593235946912" lon="13.369614258486447"><ele>235.0</ele><time>2026-04-18T07:38:58Z</time></trkpt><trkpt lat="41.675931883675226" lon="13.369491149672099"><ele>235.0</ele><time>2026-04-18T07:38:59Z</time></trkpt><trkpt lat="41.675929786434054" lon="13.369366085829473"><ele>234.99999999999997</ele><time>2026-04-18T07:39:00Z</time></trkpt><trkpt lat="41.67592510239679" lon="13.369237068462335"><ele>235.0</ele><time>2026-04-18T07:39:01Z</time></trkpt><trkpt lat="41.675905345257554" lon="13.369102317309034"><ele>234.75</ele><time>2026-04-18T07:39:02Z</time></trkpt><trkpt lat="41.675876625174965" lon="13.368963591473417"><ele>234.5</ele><time>2026-04-18T07:39:03Z</time></trkpt><trkpt lat="41.675828361897686" lon="13.368829390867697"><ele>234.25</ele><time>2026-04-18T07:39:04Z</time></trkpt><trkpt lat="41.675767073406156" lon="13.3687018573056"><ele>234.0</ele><time>2026-04-18T07:39:05Z</time></trkpt><trkpt lat="41.675698233630264" lon="13.368569444117277"><ele>233.75</ele><time>2026-04-18T07:39:06Z</time></trkpt><trkpt lat="41.675626533510496" lon="13.368422958204315"><ele>233.5</ele><time>2026-04-18T07:39:07Z</time></trkpt><trkpt lat="41.675560465401205" lon="13.368272759336305"><ele>233.25</ele><time>2026-04-18T07:39:08Z</time></trkpt><trkpt lat="41.67550825145488" lon="13.36814142020279"><ele>233.0</ele><time>2026-04-18T07:39:09Z</time></trkpt><trkpt lat="41.67545446023062" lon="13.368025889666923"><ele>232.60000000000002</ele><time>2026-04-18T07:39:10Z</time></trkpt><trkpt lat="41.675405813809874" lon="13.367926678149358"><ele>232.20000000000002</ele><time>2026-04-18T07:39:11Z</time></trkpt><trkpt lat="41.67534895795756" lon="13.367847103171929"><ele>231.8</ele><time>2026-04-18T07:39:12Z</time></trkpt><trkpt lat="41.67526578594423" lon="13.367819685781798"><ele>231.4</ele><time>2026-04-18T07:39:13Z</time></trkpt><trkpt lat="41.67516927109517" lon="13.367818482085786"><ele>231.0</ele><time>2026-04-18T07:39:14Z</time></trkpt><trkpt lat="41.6750628479697" lon="13.36783263072061"><ele>230.5</ele><time>2026-04-18T07:39:15Z</time></trkpt><trkpt lat="41.674953126088354" lon="13.367852185423587"><ele>230.0</ele><time>2026-04-18T07:39:16Z</time></trkpt><trkpt lat="41.674841906317404" lon="13.367866610708509"><ele>229.5</ele><time>2026-04-18T07:39:17Z</time></trkpt><trkpt lat="41.67472720462788" lon="13.36788196967968"><ele>229.0</ele><time>2026-04-18T07:39:18Z</time></trkpt><trkpt lat="41.67461430917239" lon="13.367887288538677"><ele>228.99999999999997</ele><time>2026-04-18T07:39:19Z</time></trkpt><trkpt lat="41.674529396633446" lon="13.367877309836805"><ele>229.0</ele><time>2026-04-18T07:39:20Z</time></trkpt><trkpt lat="41.67446901718869" lon="13.367843501446938"><ele>229.0</ele><time>2026-04-18T07:39:21Z</time></trkpt><trkpt lat="41.674416450304236" lon="13.367766767950544"><ele>229.0</ele><time>2026-04-18T07:39:22Z</time></trkpt><trkpt lat="41.674387939118276" lon="13.36766573329064"><ele>228.99999999999997</ele><time>2026-04-18T07:39:23Z</time></trkpt><trkpt lat="41.67438935340181" lon="13.367539937401391"><ele>229.0</ele><time>2026-04-18T07:39:24Z</time></trkpt><trkpt lat="41.67439744796088" lon="13.367399820429759"><ele>228.75</ele><time>2026-04-18T07:39:25Z</time></trkpt><trkpt lat="41.67439297612112" lon="13.367251808900459"><ele>228.5</ele><time>2026-04-18T07:39:26Z</time></trkpt><trkpt lat="41.67438804031319" lon="13.36709840189982"><ele>228.25</ele><time>2026-04-18T07:39:27Z</time></trkpt><trkpt lat="41.674382980161006" lon="13.366935493177087"><ele>228.0</ele><time>2026-04-18T07:39:28Z</time></trkpt><trkpt lat="41.67437006340429" lon="13.366766788675935"><ele>228.5</ele><time>2026-04-18T07:39:29Z</time></trkpt><trkpt lat="41.67435581303855" lon="13.36657665994019"><ele>229.0</ele><time>2026-04-18T07:39:30Z</time></trkpt><trkpt lat="41.67434676380501" lon="13.366375937677928"><ele>229.5</ele><time>2026-04-18T07:39:31Z</time></trkpt><trkpt lat="41.67433955682406" lon="13.366191275677526"><ele>230.0</ele><time>2026-04-18T07:39:32Z</time></trkpt><trkpt lat="41.674310826624655" lon="13.366043808101637"><ele>230.5</ele><time>2026-04-18T07:39:33Z</time></trkpt><trkpt lat="41.67425172067456" lon="13.365905715552937"><ele>231.0</ele><time>2026-04-18T07:39:34Z</time></trkpt><trkpt lat="41.674165325997485" lon="13.365767313389116"><ele>231.5</ele><time>2026-04-18T07:39:35Z</time></trkpt><trkpt lat="41.67408504101765" lon="13.365625336317096"><ele>232.0</ele><time>2026-04-18T07:39:36Z</time></trkpt><trkpt lat="41.6740039222143" lon="13.3654791974262"><ele>232.0</ele><time>2026-04-18T07:39:37Z</time></trkpt><trkpt lat="41.67393432976527" lon="13.365335443283719"><ele>232.0</ele><time>2026-04-18T07:39:38Z</time></trkpt><trkpt lat="41.67388002610937" lon="13.365207940885465"><ele>232.0</ele><time>2026-04-18T07:39:39Z</time></trkpt><trkpt lat="41.67383457428249" lon="13.365101977215447"><ele>232.0</ele><time>2026-04-18T07:39:40Z</time></trkpt><trkpt lat="41.67380512802491" lon="13.36500272653447"><ele>232.0</ele><time>2026-04-18T07:39:42Z</time></trkpt><trkpt lat="41.67366306505201" lon="13.364941920940572"><ele>232.2</ele><time>2026-04-18T07:39:48Z</time></trkpt><trkpt lat="41.67354418962037" lon="13.364952057257197"><ele>232.39999999999998</ele><time>2026-04-18T07:39:49Z</time></trkpt><trkpt lat="41.67344903583686" lon="13.36496039826987"><ele>232.60000000000002</ele><time>2026-04-18T07:39:50Z</time></trkpt><trkpt lat="41.673341707879935" lon="13.364959880355308"><ele>232.8</ele><time>2026-04-18T07:39:51Z</time></trkpt><trkpt lat="41.67323218573049" lon="13.364968571294312"><ele>233.0</ele><time>2026-04-18T07:39:52Z</time></trkpt><trkpt lat="41.6731268480985" lon="13.364978791604292"><ele>233.0</ele><time>2026-04-18T07:39:53Z</time></trkpt><trkpt lat="41.6730204080908" lon="13.364984649513593"><ele>233.0</ele><time>2026-04-18T07:39:54Z</time></trkpt><trkpt lat="41.67291667691009" lon="13.364989547692433"><ele>233.0</ele><time>2026-04-18T07:39:55Z</time></trkpt><trkpt lat="41.67281020101879" lon="13.36499631759403"><ele>233.0</ele><time>2026-04-18T07:39:56Z</time></trkpt><trkpt lat="41.67269677084557" lon="13.364993617436285"><ele>233.0</ele><time>2026-04-18T07:39:57Z</time></trkpt><trkpt lat="41.67257210627546" lon="13.364977963120383"><ele>232.60000000000002</ele><time>2026-04-18T07:39:58Z</time></trkpt><trkpt lat="41.67243720418311" lon="13.364954184426859"><ele>232.20000000000002</ele><time>2026-04-18T07:39:59Z</time></trkpt><trkpt lat="41.67231214031057" lon="13.364927418910511"><ele>231.8</ele><time>2026-04-18T07:40:00Z</time></trkpt><trkpt lat="41.67221352485549" lon="13.364904085664996"><ele>231.4</ele><time>2026-04-18T07:40:01Z</time></trkpt><trkpt lat="41.672130323567444" lon="13.364878704845603"><ele>231.0</ele><time>2026-04-18T07:40:02Z</time></trkpt><trkpt lat="41.67205778824805" lon="13.364840707148488"><ele>231.0</ele><time>2026-04-18T07:40:03Z</time></trkpt><trkpt lat="41.67198150808886" lon="13.364846024554119"><ele>231.0</ele><time>2026-04-18T07:40:04Z</time></trkpt><trkpt lat="41.67192727416893" lon="13.36466270758074"><ele>231.0</ele><time>2026-04-18T07:40:05Z</time></trkpt><trkpt lat="41.6718762869838" lon="13.364498097305074"><ele>231.0</ele><time>2026-04-18T07:40:06Z</time></trkpt><trkpt lat="41.671800244552095" lon="13.36428775291824"><ele>231.0</ele><time>2026-04-18T07:40:07Z</time></trkpt><trkpt lat="41.67172057940575" lon="13.364088136262978"><ele>231.0</ele><time>2026-04-18T07:40:08Z</time></trkpt><trkpt lat="41.671644255284946" lon="13.363909985868185"><ele>231.0</ele><time>2026-04-18T07:40:09Z</time></trkpt><trkpt lat="41.671576586697405" lon="13.363736955574254"><ele>230.5</ele><time>2026-04-18T07:40:10Z</time></trkpt><trkpt lat="41.671502121219696" lon="13.363555563658352"><ele>230.0</ele><time>2026-04-18T07:40:11Z</time></trkpt><trkpt lat="41.671439418106274" lon="13.363402466293989"><ele>229.5</ele><time>2026-04-18T07:40:12Z</time></trkpt><trkpt lat="41.67141552205147" lon="13.363253389157906"><ele>229.0</ele><time>2026-04-18T07:40:13Z</time></trkpt><trkpt lat="41.671404958233595" lon="13.36304787093807"><ele>228.33333333333331</ele><time>2026-04-18T07:40:14Z</time></trkpt><trkpt lat="41.671404012430756" lon="13.362839723202226"><ele>227.66666666666669</ele><time>2026-04-18T07:40:15Z</time></trkpt><trkpt lat="41.67138454194664" lon="13.362636495526358"><ele>227.0</ele><time>2026-04-18T07:40:16Z</time></trkpt><trkpt lat="41.67136431170589" lon="13.362431154702687"><ele>227.0</ele><time>2026-04-18T07:40:17Z</time></trkpt><trkpt lat="41.671351697673316" lon="13.362204069908213"><ele>227.0</ele><time>2026-04-18T07:40:18Z</time></trkpt><trkpt lat="41.67134311594112" lon="13.3619829917503"><ele>227.0</ele><time>2026-04-18T07:40:19Z</time></trkpt><trkpt lat="41.67132959732794" lon="13.361768953464445"><ele>226.66666666666669</ele><time>2026-04-18T07:40:20Z</time></trkpt><trkpt lat="41.671325852583976" lon="13.361557171190277"><ele>226.33333333333331</ele><time>2026-04-18T07:40:21Z</time></trkpt><trkpt lat="41.671326240344094" lon="13.361337530016659"><ele>226.0</ele><time>2026-04-18T07:40:22Z</time></trkpt><trkpt lat="41.671331496496755" lon="13.361114520002626"><ele>226.66666666666666</ele><time>2026-04-18T07:40:23Z</time></trkpt><trkpt lat="41.671339716659496" lon="13.3608949583017"><ele>227.33333333333331</ele><time>2026-04-18T07:40:24Z</time></trkpt><trkpt lat="41.67137126948691" lon="13.360678155033742"><ele>228.0</ele><time>2026-04-18T07:40:25Z</time></trkpt><trkpt lat="41.671412063840904" lon="13.360466694621778"><ele>228.0</ele><time>2026-04-18T07:40:26Z</time></trkpt><trkpt lat="41.67144822503168" lon="13.360251642439767"><ele>228.0</ele><time>2026-04-18T07:40:27Z</time></trkpt><trkpt lat="41.671481725994376" lon="13.36003827660303"><ele>228.0</ele><time>2026-04-18T07:40:28Z</time></trkpt><trkpt lat="41.671519016465176" lon="13.359816640879753"><ele>228.0</ele><time>2026-04-18T07:40:29Z</time></trkpt><trkpt lat="41.67157134995248" lon="13.359597514215587"><ele>228.0</ele><time>2026-04-18T07:40:30Z</time></trkpt><trkpt lat="41.67161256004776" lon="13.359372392522966"><ele>228.0</ele><time>2026-04-18T07:40:31Z</time></trkpt><trkpt lat="41.67166758056292" lon="13.359148216883819"><ele>228.0</ele><time>2026-04-18T07:40:32Z</time></trkpt><trkpt lat="41.671721248928876" lon="13.35892384392337"><ele>228.0</ele><time>2026-04-18T07:40:33Z</time></trkpt><trkpt lat="41.67177801008405" lon="13.358703467576508"><ele>228.0</ele><time>2026-04-18T07:40:34Z</time></trkpt><trkpt lat="41.67183827652261" lon="13.358473422685272"><ele>228.0</ele><time>2026-04-18T07:40:35Z</time></trkpt><trkpt lat="41.67189256492125" lon="13.358233844097294"><ele>228.0</ele><time>2026-04-18T07:40:36Z</time></trkpt><trkpt lat="41.67193774534029" lon="13.357984888412371"><ele>228.0</ele><time>2026-04-18T07:40:37Z</time></trkpt><trkpt lat="41.67197668667704" lon="13.357732254001029"><ele>227.66666666666669</ele><time>2026-04-18T07:40:38Z</time></trkpt><trkpt lat="41.672017433192195" lon="13.357480353499941"><ele>227.33333333333334</ele><time>2026-04-18T07:40:39Z</time></trkpt><trkpt lat="41.672061483468084" lon="13.357229700998195"><ele>227.0</ele><time>2026-04-18T07:40:40Z</time></trkpt><trkpt lat="41.6721209653842" lon="13.356975701803297"><ele>226.66666666666669</ele><time>2026-04-18T07:40:41Z</time></trkpt><trkpt lat="41.67219970622062" lon="13.35673351796727"><ele>226.33333333333331</ele><time>2026-04-18T07:40:42Z</time></trkpt><trkpt lat="41.67229497985655" lon="13.35648062236756"><ele>226.0</ele><time>2026-04-18T07:40:43Z</time></trkpt><trkpt lat="41.67239490354034" lon="13.356211176748717"><ele>227.0</ele><time>2026-04-18T07:40:44Z</time></trkpt><trkpt lat="41.67248690654443" lon="13.355925753516873"><ele>228.0</ele><time>2026-04-18T07:40:45Z</time></trkpt><trkpt lat="41.67256175785084" lon="13.355616293008083"><ele>228.5</ele><time>2026-04-18T07:40:46Z</time></trkpt><trkpt lat="41.67262637392774" lon="13.355290441316438"><ele>229.0</ele><time>2026-04-18T07:40:47Z</time></trkpt><trkpt lat="41.6726875808692" lon="13.354979256026164"><ele>229.5</ele><time>2026-04-18T07:40:48Z</time></trkpt><trkpt lat="41.67274990364001" lon="13.35467078109326"><ele>230.0</ele><time>2026-04-18T07:40:49Z</time></trkpt><trkpt lat="41.67281814444889" lon="13.354368128619075"><ele>230.0</ele><time>2026-04-18T07:40:50Z</time></trkpt><trkpt lat="41.67288926839638" lon="13.354068564717148"><ele>230.0</ele><time>2026-04-18T07:40:51Z</time></trkpt><trkpt lat="41.672946664336" lon="13.353767235761696"><ele>229.0</ele><time>2026-04-18T07:40:52Z</time></trkpt><trkpt lat="41.672993457432625" lon="13.353466637057327"><ele>228.0</ele><time>2026-04-18T07:40:53Z</time></trkpt><trkpt lat="41.673031911920454" lon="13.35316870452983"><ele>228.0</ele><time>2026-04-18T07:40:54Z</time></trkpt><trkpt lat="41.673062814232274" lon="13.35286949001295"><ele>228.0</ele><time>2026-04-18T07:40:55Z</time></trkpt><trkpt lat="41.673079783730735" lon="13.352563104624274"><ele>228.0</ele><time>2026-04-18T07:40:56Z</time></trkpt><trkpt lat="41.673080560749014" lon="13.352257324636172"><ele>228.0</ele><time>2026-04-18T07:40:57Z</time></trkpt><trkpt lat="41.67306982642463" lon="13.351948971222665"><ele>228.5</ele><time>2026-04-18T07:40:58Z</time></trkpt><trkpt lat="41.67306411798957" lon="13.351641560569007"><ele>229.0</ele><time>2026-04-18T07:40:59Z</time></trkpt><trkpt lat="41.67307100421264" lon="13.351338164950151"><ele>229.0</ele><time>2026-04-18T07:41:00Z</time></trkpt><trkpt lat="41.67310190994961" lon="13.351038344234071"><ele>229.0</ele><time>2026-04-18T07:41:01Z</time></trkpt><trkpt lat="41.67314518936018" lon="13.350760050334017"><ele>229.0</ele><time>2026-04-18T07:41:02Z</time></trkpt><trkpt lat="41.67319164666901" lon="13.350512369113627"><ele>229.0</ele><time>2026-04-18T07:41:03Z</time></trkpt><trkpt lat="41.6732384485371" lon="13.35027676985859"><ele>229.0</ele><time>2026-04-18T07:41:04Z</time></trkpt><trkpt lat="41.67329050004077" lon="13.350048128551956"><ele>229.0</ele><time>2026-04-18T07:41:05Z</time></trkpt><trkpt lat="41.67333824044717" lon="13.349832300362147"><ele>228.79999999999998</ele><time>2026-04-18T07:41:06Z</time></trkpt><trkpt lat="41.67337396495387" lon="13.349673581038047"><ele>228.59999999999997</ele><time>2026-04-18T07:41:06.999Z</time></trkpt><trkpt lat="41.67340280067478" lon="13.349541538401903"><ele>228.4</ele><time>2026-04-18T07:41:07.999Z</time></trkpt><trkpt lat="41.67342779946089" lon="13.349422823713692"><ele>228.2</ele><time>2026-04-18T07:41:08.999Z</time></trkpt><trkpt lat="41.67344903137692" lon="13.349306602758022"><ele>228.0</ele><time>2026-04-18T07:41:09.999Z</time></trkpt><trkpt lat="41.67347020937839" lon="13.34919997420842"><ele>228.0</ele><time>2026-04-18T07:41:10.999Z</time></trkpt><trkpt lat="41.67348807889704" lon="13.349106522501916"><ele>228.0</ele><time>2026-04-18T07:41:11.999Z</time></trkpt><trkpt lat="41.673507006268494" lon="13.349010709643833"><ele>228.0</ele><time>2026-04-18T07:41:12.999Z</time></trkpt><trkpt lat="41.6735260231275" lon="13.348908110020751"><ele>228.0</ele><time>2026-04-18T07:41:13.999Z</time></trkpt><trkpt lat="41.67354492188256" lon="13.348802360267356"><ele>228.0</ele><time>2026-04-18T07:41:14.999Z</time></trkpt><trkpt lat="41.67356700989182" lon="13.348700387516"><ele>228.0</ele><time>2026-04-18T07:41:15.999Z</time></trkpt><trkpt lat="41.67358653967515" lon="13.34859911261951"><ele>228.66666666666666</ele><time>2026-04-18T07:41:16.999Z</time></trkpt><trkpt lat="41.67360920369506" lon="13.348498170591375"><ele>229.33333333333331</ele><time>2026-04-18T07:41:17.999Z</time></trkpt><trkpt lat="41.67362761703986" lon="13.348393191264934"><ele>230.0</ele><time>2026-04-18T07:41:18.999Z</time></trkpt><trkpt lat="41.673646705070105" lon="13.34828417462403"><ele>230.66666666666666</ele><time>2026-04-18T07:41:19.999Z</time></trkpt><trkpt lat="41.673665136338236" lon="13.348203316913287"><ele>231.33333333333331</ele><time>2026-04-18T07:41:20.999Z</time></trkpt><trkpt lat="41.67368550096297" lon="13.348065892905312"><ele>232.0</ele><time>2026-04-18T07:41:22.999Z</time></trkpt><trkpt lat="41.673710368754506" lon="13.347973443601177"><ele>232.0</ele><time>2026-04-18T07:41:24.999Z</time></trkpt><trkpt lat="41.67371752069625" lon="13.347878367184553"><ele>232.0</ele><time>2026-04-18T07:41:48Z</time></trkpt><trkpt lat="41.67358313202167" lon="13.347799642619144"><ele>232.0</ele><time>2026-04-18T07:41:49Z</time></trkpt><trkpt lat="41.673470002951824" lon="13.347754840025392"><ele>232.0</ele><time>2026-04-18T07:41:50Z</time></trkpt><trkpt lat="41.6733428534657" lon="13.347736441413714"><ele>231.33333333333331</ele><time>2026-04-18T07:41:51Z</time></trkpt><trkpt lat="41.67319566556267" lon="13.347702721423687"><ele>230.66666666666669</ele><time>2026-04-18T07:41:52Z</time></trkpt><trkpt lat="41.67302772107879" lon="13.347649818442838"><ele>230.0</ele><time>2026-04-18T07:41:53Z</time></trkpt><trkpt lat="41.672840982288484" lon="13.347622973229923"><ele>229.66666666666669</ele><time>2026-04-18T07:41:54Z</time></trkpt><trkpt lat="41.67264911162458" lon="13.347625502923895"><ele>229.33333333333331</ele><time>2026-04-18T07:41:55Z</time></trkpt><trkpt lat="41.67245061447859" lon="13.347648155947248"><ele>229.0</ele><time>2026-04-18T07:41:56Z</time></trkpt><trkpt lat="41.67224529886969" lon="13.34770203118841"><ele>229.0</ele><time>2026-04-18T07:41:57Z</time></trkpt><trkpt lat="41.672039421408535" lon="13.347730087723399"><ele>229.0</ele><time>2026-04-18T07:41:58Z</time></trkpt><trkpt lat="41.67186211756846" lon="13.347703896685694"><ele>229.0</ele><time>2026-04-18T07:41:59Z</time></trkpt><trkpt lat="41.67170620610006" lon="13.347715410118898"><ele>228.75</ele><time>2026-04-18T07:42:00Z</time></trkpt><trkpt lat="41.671556957487006" lon="13.347730758017898"><ele>228.5</ele><time>2026-04-18T07:42:01Z</time></trkpt><trkpt lat="41.67143099234464" lon="13.347742894318273"><ele>228.25</ele><time>2026-04-18T07:42:02Z</time></trkpt><trkpt lat="41.67132780693538" lon="13.347759317470103"><ele>228.0</ele><time>2026-04-18T07:42:03Z</time></trkpt><trkpt lat="41.67123048229871" lon="13.347771940255985"><ele>228.0</ele><time>2026-04-18T07:42:04Z</time></trkpt><trkpt lat="41.67115775167121" lon="13.347770539873174"><ele>228.0</ele><time>2026-04-18T07:42:05Z</time></trkpt><trkpt lat="41.67108334938233" lon="13.347736916774268"><ele>228.0</ele><time>2026-04-18T07:42:07Z</time></trkpt><trkpt lat="41.67107059863731" lon="13.34757726565179"><ele>228.0</ele><time>2026-04-18T07:42:08Z</time></trkpt><trkpt lat="41.67107115801656" lon="13.347437328587999"><ele>228.0</ele><time>2026-04-18T07:42:09Z</time></trkpt><trkpt lat="41.67107097577706" lon="13.347290789335608"><ele>227.25</ele><time>2026-04-18T07:42:10Z</time></trkpt><trkpt lat="41.67105155256808" lon="13.347137689384713"><ele>226.5</ele><time>2026-04-18T07:42:11Z</time></trkpt><trkpt lat="41.67104632006187" lon="13.346959867846603"><ele>225.75</ele><time>2026-04-18T07:42:12Z</time></trkpt><trkpt lat="41.671042520895234" lon="13.346783863461617"><ele>225.0</ele><time>2026-04-18T07:42:13Z</time></trkpt><trkpt lat="41.67105671386615" lon="13.346625202347786"><ele>225.0</ele><time>2026-04-18T07:42:14Z</time></trkpt><trkpt lat="41.67110346898677" lon="13.34646842004622"><ele>225.0</ele><time>2026-04-18T07:42:15Z</time></trkpt><trkpt lat="41.67120542451567" lon="13.34635598460987"><ele>225.0</ele><time>2026-04-18T07:42:16Z</time></trkpt><trkpt lat="41.67131468005985" lon="13.346241451341708"><ele>225.0</ele><time>2026-04-18T07:42:17Z</time></trkpt><trkpt lat="41.671438371842996" lon="13.346113306854566"><ele>224.66666666666669</ele><time>2026-04-18T07:42:18Z</time></trkpt><trkpt lat="41.67156960933172" lon="13.345982649387812"><ele>224.33333333333334</ele><time>2026-04-18T07:42:19Z</time></trkpt><trkpt lat="41.67169904690534" lon="13.345855155443719"><ele>224.0</ele><time>2026-04-18T07:42:20Z</time></trkpt><trkpt lat="41.67181659622686" lon="13.34573465340534"><ele>224.0</ele><time>2026-04-18T07:42:21Z</time></trkpt><trkpt lat="41.67192550736031" lon="13.345660560278755"><ele>224.0</ele><time>2026-04-18T07:42:22Z</time></trkpt><trkpt lat="41.67202698062974" lon="13.345613086547175"><ele>224.0</ele><time>2026-04-18T07:42:23Z</time></trkpt><trkpt lat="41.67213850823291" lon="13.345609931224988"><ele>224.0</ele><time>2026-04-18T07:42:24Z</time></trkpt><trkpt lat="41.67225603355436" lon="13.34564318459379"><ele>225.0</ele><time>2026-04-18T07:42:25Z</time></trkpt><trkpt lat="41.672354118815434" lon="13.345717633252418"><ele>226.0</ele><time>2026-04-18T07:42:26Z</time></trkpt><trkpt lat="41.6724244504938" lon="13.34583017287077"><ele>227.0</ele><time>2026-04-18T07:42:27Z</time></trkpt><trkpt lat="41.672487260068394" lon="13.345962644757085"><ele>228.0</ele><time>2026-04-18T07:42:28Z</time></trkpt><trkpt lat="41.67251327203769" lon="13.34611779313687"><ele>228.0</ele><time>2026-04-18T07:42:29Z</time></trkpt><trkpt lat="41.672512073582766" lon="13.34627202291235"><ele>228.0</ele><time>2026-04-18T07:42:30Z</time></trkpt><trkpt lat="41.67247605930615" lon="13.346440385304378"><ele>228.0</ele><time>2026-04-18T07:42:31Z</time></trkpt><trkpt lat="41.672437940223446" lon="13.346624773488747"><ele>228.0</ele><time>2026-04-18T07:42:32Z</time></trkpt><trkpt lat="41.672400711317515" lon="13.346839994759394"><ele>228.33333333333331</ele><time>2026-04-18T07:42:33Z</time></trkpt><trkpt lat="41.67236576039629" lon="13.34705427760173"><ele>228.66666666666666</ele><time>2026-04-18T07:42:34Z</time></trkpt><trkpt lat="41.6723265062223" lon="13.347275637986568"><ele>229.0</ele><time>2026-04-18T07:42:35Z</time></trkpt><trkpt lat="41.67227716052176" lon="13.347517772567338"><ele>229.0</ele><time>2026-04-18T07:42:36Z</time></trkpt><trkpt lat="41.672252149824544" lon="13.347772868393227"><ele>229.0</ele><time>2026-04-18T07:42:37Z</time></trkpt><trkpt lat="41.67216584235765" lon="13.34802841329193"><ele>229.0</ele><time>2026-04-18T07:42:38Z</time></trkpt><trkpt lat="41.67210059502507" lon="13.348286144723904"><ele>228.33333333333331</ele><time>2026-04-18T07:42:38.999Z</time></trkpt><trkpt lat="41.67204212843984" lon="13.348546713438838"><ele>227.66666666666669</ele><time>2026-04-18T07:42:39.999Z</time></trkpt><trkpt lat="41.67197984078469" lon="13.348823516992704"><ele>227.0</ele><time>2026-04-18T07:42:40.999Z</time></trkpt><trkpt lat="41.671914138675305" lon="13.349113547830287"><ele>226.0</ele><time>2026-04-18T07:42:41.999Z</time></trkpt><trkpt lat="41.67184654720108" lon="13.34941404210571"><ele>225.0</ele><time>2026-04-18T07:42:42.999Z</time></trkpt><trkpt lat="41.671779636333696" lon="13.349716658104981"><ele>225.0</ele><time>2026-04-18T07:42:43.999Z</time></trkpt><trkpt lat="41.6717135819619" lon="13.350012216862936"><ele>225.0</ele><time>2026-04-18T07:42:44.999Z</time></trkpt><trkpt lat="41.6716458248337" lon="13.350307019607358"><ele>225.5</ele><time>2026-04-18T07:42:45.999Z</time></trkpt><trkpt lat="41.67157779876545" lon="13.350606490395391"><ele>226.0</ele><time>2026-04-18T07:42:46.999Z</time></trkpt><trkpt lat="41.6715108037786" lon="13.35091382253003"><ele>226.0</ele><time>2026-04-18T07:42:47.999Z</time></trkpt><trkpt lat="41.67144189194724" lon="13.35122451824287"><ele>226.0</ele><time>2026-04-18T07:42:48.999Z</time></trkpt><trkpt lat="41.671369068442424" lon="13.351533273798244"><ele>225.5</ele><time>2026-04-18T07:42:49.999Z</time></trkpt><trkpt lat="41.671294083951636" lon="13.351841261948813"><ele>225.0</ele><time>2026-04-18T07:42:50.999Z</time></trkpt><trkpt lat="41.67121796656623" lon="13.352153506289387"><ele>224.5</ele><time>2026-04-18T07:42:51.999Z</time></trkpt><trkpt lat="41.67114330002084" lon="13.352475625202736"><ele>224.0</ele><time>2026-04-18T07:42:52.999Z</time></trkpt><trkpt lat="41.67106634045799" lon="13.35279670699736"><ele>223.5</ele><time>2026-04-18T07:42:53.999Z</time></trkpt><trkpt lat="41.67098968033704" lon="13.35312148554707"><ele>223.0</ele><time>2026-04-18T07:42:54.999Z</time></trkpt><trkpt lat="41.67091443093728" lon="13.353449278741587"><ele>223.0</ele><time>2026-04-18T07:42:55.999Z</time></trkpt><trkpt lat="41.67083928372921" lon="13.353781396935618"><ele>223.0</ele><time>2026-04-18T07:42:56.999Z</time></trkpt><trkpt lat="41.67076250027246" lon="13.354108364960013"><ele>223.0</ele><time>2026-04-18T07:42:57.999Z</time></trkpt><trkpt lat="41.670684289737885" lon="13.354427534724419"><ele>223.0</ele><time>2026-04-18T07:42:58.999Z</time></trkpt><trkpt lat="41.670606159605384" lon="13.354743567266695"><ele>223.0</ele><time>2026-04-18T07:42:59.999Z</time></trkpt><trkpt lat="41.670531165001535" lon="13.355054771441953"><ele>223.0</ele><time>2026-04-18T07:43:00.999Z</time></trkpt><trkpt lat="41.67045766819066" lon="13.355374941805524"><ele>223.5</ele><time>2026-04-18T07:43:01.999Z</time></trkpt><trkpt lat="41.67038327398173" lon="13.355690796984419"><ele>224.0</ele><time>2026-04-18T07:43:02.999Z</time></trkpt><trkpt lat="41.67031268165016" lon="13.35601302994412"><ele>224.0</ele><time>2026-04-18T07:43:03.999Z</time></trkpt><trkpt lat="41.67023024770377" lon="13.356335301238733"><ele>224.0</ele><time>2026-04-18T07:43:04.999Z</time></trkpt><trkpt lat="41.67013625944417" lon="13.356655205098486"><ele>223.5</ele><time>2026-04-18T07:43:05.999Z</time></trkpt><trkpt lat="41.67003607018911" lon="13.356975768862252"><ele>223.0</ele><time>2026-04-18T07:43:06.999Z</time></trkpt><trkpt lat="41.66992207809355" lon="13.357292887293388"><ele>223.0</ele><time>2026-04-18T07:43:07.999Z</time></trkpt><trkpt lat="41.66979401936735" lon="13.357608197426448"><ele>223.0</ele><time>2026-04-18T07:43:08.999Z</time></trkpt><trkpt lat="41.66965164648116" lon="13.357919360765434"><ele>223.0</ele><time>2026-04-18T07:43:09.999Z</time></trkpt><trkpt lat="41.669498043175324" lon="13.358227248564289"><ele>223.0</ele><time>2026-04-18T07:43:10.999Z</time></trkpt><trkpt lat="41.66932915247527" lon="13.35852401859668"><ele>223.0</ele><time>2026-04-18T07:43:11.999Z</time></trkpt><trkpt lat="41.66915792497376" lon="13.358814461718413"><ele>223.0</ele><time>2026-04-18T07:43:12.999Z</time></trkpt><trkpt lat="41.66896710225686" lon="13.35909442542067"><ele>223.0</ele><time>2026-04-18T07:43:13.999Z</time></trkpt><trkpt lat="41.66876566181803" lon="13.35936639678976"><ele>223.0</ele><time>2026-04-18T07:43:14.999Z</time></trkpt><trkpt lat="41.66854600768915" lon="13.359617765388679"><ele>222.5</ele><time>2026-04-18T07:43:15.999Z</time></trkpt><trkpt lat="41.66832481282307" lon="13.359868654925256"><ele>222.0</ele><time>2026-04-18T07:43:16.999Z</time></trkpt><trkpt lat="41.66809136219736" lon="13.360101719794766"><ele>222.0</ele><time>2026-04-18T07:43:17.999Z</time></trkpt><trkpt lat="41.66784750386384" lon="13.360323877501234"><ele>222.0</ele><time>2026-04-18T07:43:18.999Z</time></trkpt><trkpt lat="41.667592610411134" lon="13.360526340381819"><ele>221.5</ele><time>2026-04-18T07:43:19.999Z</time></trkpt><trkpt lat="41.66732839359832" lon="13.360711535903661"><ele>221.0</ele><time>2026-04-18T07:43:20.999Z</time></trkpt><trkpt lat="41.667053158166084" lon="13.360874625657345"><ele>220.0</ele><time>2026-04-18T07:43:21.999Z</time></trkpt><trkpt lat="41.66677389339866" lon="13.361021830234813"><ele>219.0</ele><time>2026-04-18T07:43:22.999Z</time></trkpt><trkpt lat="41.6664926698359" lon="13.361153172173267"><ele>219.0</ele><time>2026-04-18T07:43:23.999Z</time></trkpt><trkpt lat="41.66620689200819" lon="13.361266562779925"><ele>219.0</ele><time>2026-04-18T07:43:24.999Z</time></trkpt><trkpt lat="41.665923067170866" lon="13.361374557129892"><ele>220.5</ele><time>2026-04-18T07:43:25.999Z</time></trkpt><trkpt lat="41.66563961276945" lon="13.361467908001872"><ele>222.0</ele><time>2026-04-18T07:43:26.999Z</time></trkpt><trkpt lat="41.665361706909366" lon="13.361561482490808"><ele>220.0</ele><time>2026-04-18T07:43:27.999Z</time></trkpt><trkpt lat="41.665083283917" lon="13.361655199822113"><ele>218.0</ele><time>2026-04-18T07:43:28.999Z</time></trkpt><trkpt lat="41.66479904422872" lon="13.361771248784754"><ele>218.0</ele><time>2026-04-18T07:43:29.999Z</time></trkpt><trkpt lat="41.66451676483827" lon="13.36189707502782"><ele>218.0</ele><time>2026-04-18T07:43:30.999Z</time></trkpt><trkpt lat="41.66424043949961" lon="13.362016344621033"><ele>217.5</ele><time>2026-04-18T07:43:31.999Z</time></trkpt><trkpt lat="41.66395906202904" lon="13.3621390560895"><ele>217.0</ele><time>2026-04-18T07:43:32.999Z</time></trkpt><trkpt lat="41.66366536194192" lon="13.362263961226649"><ele>214.0</ele><time>2026-04-18T07:43:34.053Z</time></trkpt><trkpt lat="41.66340272360765" lon="13.362381802546142"><ele>211.0</ele><time>2026-04-18T07:43:34.999Z</time></trkpt><trkpt lat="41.6632413635815" lon="13.3628236847565"><ele>208.0</ele><time>2026-04-18T07:43:36Z</time></trkpt><trkpt lat="41.66309062072566" lon="13.363167624276521"><ele>205.0</ele><time>2026-04-18T07:43:37Z</time></trkpt><trkpt lat="41.662917303835485" lon="13.363510247881619"><ele>203.5</ele><time>2026-04-18T07:43:38Z</time></trkpt><trkpt lat="41.66276245465401" lon="13.363864438636636"><ele>202.0</ele><time>2026-04-18T07:43:39Z</time></trkpt><trkpt lat="41.662631434006585" lon="13.364191128794786"><ele>202.0</ele><time>2026-04-18T07:43:40Z</time></trkpt><trkpt lat="41.66252474263724" lon="13.364532091622172"><ele>202.0</ele><time>2026-04-18T07:43:41Z</time></trkpt><trkpt lat="41.662424609204926" lon="13.364876490584745"><ele>202.0</ele><time>2026-04-18T07:43:42Z</time></trkpt><trkpt lat="41.66234764066914" lon="13.36524681250402"><ele>202.0</ele><time>2026-04-18T07:43:43Z</time></trkpt><trkpt lat="41.66229331204254" lon="13.365628915675954"><ele>202.5</ele><time>2026-04-18T07:43:44Z</time></trkpt><trkpt lat="41.66224972988991" lon="13.366019658181605"><ele>203.0</ele><time>2026-04-18T07:43:45Z</time></trkpt><trkpt lat="41.662233122694744" lon="13.36642095951908"><ele>205.0</ele><time>2026-04-18T07:43:46Z</time></trkpt><trkpt lat="41.66224973492631" lon="13.366830266807442"><ele>207.0</ele><time>2026-04-18T07:43:47Z</time></trkpt><trkpt lat="41.66227499005447" lon="13.367237727465913"><ele>208.5</ele><time>2026-04-18T07:43:48Z</time></trkpt><trkpt lat="41.662306354128035" lon="13.367649515068454"><ele>210.0</ele><time>2026-04-18T07:43:49Z</time></trkpt><trkpt lat="41.6623391926529" lon="13.36807145528433"><ele>211.5</ele><time>2026-04-18T07:43:50Z</time></trkpt><trkpt lat="41.662363779264155" lon="13.368487330464085"><ele>213.0</ele><time>2026-04-18T07:43:51Z</time></trkpt><trkpt lat="41.66239143322392" lon="13.368909560296682"><ele>213.5</ele><time>2026-04-18T07:43:52Z</time></trkpt><trkpt lat="41.6624322995134" lon="13.369325409658012"><ele>214.0</ele><time>2026-04-18T07:43:53Z</time></trkpt><trkpt lat="41.66248363859269" lon="13.369739046325416"><ele>213.5</ele><time>2026-04-18T07:43:54Z</time></trkpt><trkpt lat="41.662546343677796" lon="13.370146778569191"><ele>213.0</ele><time>2026-04-18T07:43:55Z</time></trkpt><trkpt lat="41.66261788988034" lon="13.37054985511492"><ele>213.0</ele><time>2026-04-18T07:43:56Z</time></trkpt><trkpt lat="41.662695990289315" lon="13.370941037125805"><ele>213.0</ele><time>2026-04-18T07:43:57Z</time></trkpt><trkpt lat="41.66278085708603" lon="13.371325700758847"><ele>215.0</ele><time>2026-04-18T07:43:58Z</time></trkpt><trkpt lat="41.662863988612465" lon="13.371701296395893"><ele>217.0</ele><time>2026-04-18T07:43:59Z</time></trkpt><trkpt lat="41.66294054428072" lon="13.372069153066393"><ele>218.0</ele><time>2026-04-18T07:44:00Z</time></trkpt><trkpt lat="41.66301373857557" lon="13.37243534153492"><ele>219.0</ele><time>2026-04-18T07:44:01Z</time></trkpt><trkpt lat="41.6630826146504" lon="13.372796803600545"><ele>219.0</ele><time>2026-04-18T07:44:02Z</time></trkpt><trkpt lat="41.66315397346673" lon="13.373154936806685"><ele>219.0</ele><time>2026-04-18T07:44:03Z</time></trkpt><trkpt lat="41.66322519104589" lon="13.373508592698322"><ele>217.5</ele><time>2026-04-18T07:44:04Z</time></trkpt><trkpt lat="41.663295328441464" lon="13.373860427634629"><ele>216.0</ele><time>2026-04-18T07:44:05Z</time></trkpt><trkpt lat="41.66336623703093" lon="13.374211430641672"><ele>216.0</ele><time>2026-04-18T07:44:06Z</time></trkpt><trkpt lat="41.66343484332672" lon="13.37455813355889"><ele>216.0</ele><time>2026-04-18T07:44:07Z</time></trkpt><trkpt lat="41.66349990518903" lon="13.374896599749901"><ele>216.5</ele><time>2026-04-18T07:44:08Z</time></trkpt><trkpt lat="41.66356742169139" lon="13.375230551373788"><ele>217.0</ele><time>2026-04-18T07:44:09Z</time></trkpt><trkpt lat="41.66363483255531" lon="13.375566581681245"><ele>224.0</ele><time>2026-04-18T07:44:10Z</time></trkpt><trkpt lat="41.66370231099325" lon="13.375906084427703"><ele>231.0</ele><time>2026-04-18T07:44:11Z</time></trkpt><trkpt lat="41.6637691726569" lon="13.376244943806817"><ele>230.5</ele><time>2026-04-18T07:44:12Z</time></trkpt><trkpt lat="41.66383393596981" lon="13.376584390836124"><ele>230.0</ele><time>2026-04-18T07:44:13Z</time></trkpt><trkpt lat="41.66389815567574" lon="13.376926970147737"><ele>229.5</ele><time>2026-04-18T07:44:14Z</time></trkpt><trkpt lat="41.66396048247766" lon="13.377272196432743"><ele>229.0</ele><time>2026-04-18T07:44:15Z</time></trkpt><trkpt lat="41.66401852053715" lon="13.377626809707774"><ele>229.0</ele><time>2026-04-18T07:44:16Z</time></trkpt><trkpt lat="41.66406928466848" lon="13.37798542174783"><ele>229.0</ele><time>2026-04-18T07:44:17Z</time></trkpt><trkpt lat="41.66411823208686" lon="13.378353935087839"><ele>229.0</ele><time>2026-04-18T07:44:18Z</time></trkpt><trkpt lat="41.66416540600434" lon="13.378724084057652"><ele>229.0</ele><time>2026-04-18T07:44:19Z</time></trkpt><trkpt lat="41.66420946242545" lon="13.379103740836024"><ele>229.5</ele><time>2026-04-18T07:44:20Z</time></trkpt><trkpt lat="41.66425255505829" lon="13.379488990698519"><ele>230.0</ele><time>2026-04-18T07:44:21Z</time></trkpt><trkpt lat="41.6642896630491" lon="13.379876581194036"><ele>231.0</ele><time>2026-04-18T07:44:22Z</time></trkpt><trkpt lat="41.664318524388" lon="13.380265026446722"><ele>232.0</ele><time>2026-04-18T07:44:23Z</time></trkpt><trkpt lat="41.6643467969235" lon="13.380649498959901"><ele>233.0</ele><time>2026-04-18T07:44:24Z</time></trkpt><trkpt lat="41.66437485898512" lon="13.381030969169691"><ele>234.0</ele><time>2026-04-18T07:44:25Z</time></trkpt><trkpt lat="41.66440379575072" lon="13.38141202873332"><ele>235.0</ele><time>2026-04-18T07:44:26Z</time></trkpt><trkpt lat="41.66442709448361" lon="13.381796320423806"><ele>236.0</ele><time>2026-04-18T07:44:27Z</time></trkpt><trkpt lat="41.66443757978197" lon="13.38217816929575"><ele>237.5</ele><time>2026-04-18T07:44:28Z</time></trkpt><trkpt lat="41.66443494317613" lon="13.38255753753102"><ele>239.0</ele><time>2026-04-18T07:44:28.999Z</time></trkpt><trkpt lat="41.66442617554452" lon="13.382920213867447"><ele>240.5</ele><time>2026-04-18T07:44:29.999Z</time></trkpt><trkpt lat="41.66441264824504" lon="13.383256901266389"><ele>242.0</ele><time>2026-04-18T07:44:30.999Z</time></trkpt><trkpt lat="41.664393881669824" lon="13.383595167110514"><ele>244.0</ele><time>2026-04-18T07:44:31.999Z</time></trkpt><trkpt lat="41.664382698307215" lon="13.383957293663485"><ele>246.0</ele><time>2026-04-18T07:44:32.999Z</time></trkpt><trkpt lat="41.66436561185567" lon="13.384326568031483"><ele>245.5</ele><time>2026-04-18T07:44:33.999Z</time></trkpt><trkpt lat="41.66434829466415" lon="13.384696386222478"><ele>245.0</ele><time>2026-04-18T07:44:34.999Z</time></trkpt><trkpt lat="41.664329760168854" lon="13.385065743949102"><ele>245.0</ele><time>2026-04-18T07:44:35.999Z</time></trkpt><trkpt lat="41.6643079715699" lon="13.385435882171624"><ele>245.0</ele><time>2026-04-18T07:44:36.999Z</time></trkpt><trkpt lat="41.664281750278576" lon="13.38580367748431"><ele>245.0</ele><time>2026-04-18T07:44:37.999Z</time></trkpt><trkpt lat="41.66426117320971" lon="13.386170640688006"><ele>245.0</ele><time>2026-04-18T07:44:38.999Z</time></trkpt><trkpt lat="41.66424816611086" lon="13.386535015351491"><ele>246.5</ele><time>2026-04-18T07:44:39.999Z</time></trkpt><trkpt lat="41.66423638923239" lon="13.386898300563674"><ele>248.0</ele><time>2026-04-18T07:44:40.999Z</time></trkpt><trkpt lat="41.66422411310992" lon="13.387257787293489"><ele>249.0</ele><time>2026-04-18T07:44:41.999Z</time></trkpt><trkpt lat="41.664210034940496" lon="13.387612085642946"><ele>250.0</ele><time>2026-04-18T07:44:42.999Z</time></trkpt><trkpt lat="41.66419555027395" lon="13.387961535160205"><ele>252.0</ele><time>2026-04-18T07:44:43.999Z</time></trkpt><trkpt lat="41.66418138888231" lon="13.388311291636064"><ele>254.0</ele><time>2026-04-18T07:44:44.999Z</time></trkpt><trkpt lat="41.664165025884785" lon="13.388654527711784"><ele>255.5</ele><time>2026-04-18T07:44:45.999Z</time></trkpt><trkpt lat="41.664154255952944" lon="13.38899390212204"><ele>257.0</ele><time>2026-04-18T07:44:46.999Z</time></trkpt><trkpt lat="41.664142788662964" lon="13.38932805250352"><ele>257.0</ele><time>2026-04-18T07:44:47.999Z</time></trkpt><trkpt lat="41.66413033980758" lon="13.389659347270673"><ele>257.0</ele><time>2026-04-18T07:44:48.999Z</time></trkpt><trkpt lat="41.66411809587924" lon="13.389986086808825"><ele>255.0</ele><time>2026-04-18T07:44:49.999Z</time></trkpt><trkpt lat="41.664101554582636" lon="13.390309650699932"><ele>253.0</ele><time>2026-04-18T07:44:50.999Z</time></trkpt><trkpt lat="41.66408454158099" lon="13.39063073988614"><ele>249.5</ele><time>2026-04-18T07:44:51.999Z</time></trkpt><trkpt lat="41.66406876335632" lon="13.390944198534784"><ele>246.0</ele><time>2026-04-18T07:44:52.999Z</time></trkpt><trkpt lat="41.66405057486406" lon="13.391257635624108"><ele>247.5</ele><time>2026-04-18T07:44:53.999Z</time></trkpt><trkpt lat="41.66402675702507" lon="13.39156932498643"><ele>249.0</ele><time>2026-04-18T07:44:54.999Z</time></trkpt><trkpt lat="41.663996584402035" lon="13.391874314474371"><ele>252.5</ele><time>2026-04-18T07:44:55.999Z</time></trkpt><trkpt lat="41.66395975799955" lon="13.392182268151341"><ele>256.0</ele><time>2026-04-18T07:44:56.999Z</time></trkpt><trkpt lat="41.663918558569904" lon="13.392491383043899"><ele>256.0</ele><time>2026-04-18T07:44:57.999Z</time></trkpt><trkpt lat="41.663869940007174" lon="13.39279954073955"><ele>256.0</ele><time>2026-04-18T07:44:58.999Z</time></trkpt><trkpt lat="41.66381476363178" lon="13.39310923793312"><ele>257.0</ele><time>2026-04-18T07:44:59.999Z</time></trkpt><trkpt lat="41.66375379974499" lon="13.39341191762433"><ele>258.0</ele><time>2026-04-18T07:45:00.999Z</time></trkpt><trkpt lat="41.663688831594605" lon="13.39371082746701"><ele>259.0</ele><time>2026-04-18T07:45:01.999Z</time></trkpt><trkpt lat="41.66362052478746" lon="13.394008809599763"><ele>260.0</ele><time>2026-04-18T07:45:02.999Z</time></trkpt><trkpt lat="41.66355004843224" lon="13.394307669631033"><ele>259.5</ele><time>2026-04-18T07:45:03.999Z</time></trkpt><trkpt lat="41.66347485275141" lon="13.394603757987399"><ele>259.0</ele><time>2026-04-18T07:45:04.999Z</time></trkpt><trkpt lat="41.66339659706864" lon="13.394898943235491"><ele>259.0</ele><time>2026-04-18T07:45:05.999Z</time></trkpt><trkpt lat="41.66331850535153" lon="13.395192769901238"><ele>259.0</ele><time>2026-04-18T07:45:06.999Z</time></trkpt><trkpt lat="41.66324279563276" lon="13.395486855707714"><ele>261.0</ele><time>2026-04-18T07:45:07.999Z</time></trkpt><trkpt lat="41.66316532884174" lon="13.39578109702301"><ele>263.0</ele><time>2026-04-18T07:45:08.999Z</time></trkpt><trkpt lat="41.66308749470881" lon="13.396076408389721"><ele>267.5</ele><time>2026-04-18T07:45:09.999Z</time></trkpt><trkpt lat="41.66301717275842" lon="13.396375308470965"><ele>272.0</ele><time>2026-04-18T07:45:10.999Z</time></trkpt><trkpt lat="41.66295275403205" lon="13.39667837109015"><ele>272.0</ele><time>2026-04-18T07:45:11.999Z</time></trkpt><trkpt lat="41.66288885501797" lon="13.396984640375193"><ele>272.0</ele><time>2026-04-18T07:45:12.999Z</time></trkpt><trkpt lat="41.662825808167774" lon="13.39729155410633"><ele>267.5</ele><time>2026-04-18T07:45:13.999Z</time></trkpt><trkpt lat="41.66276530779917" lon="13.397598019915238"><ele>263.0</ele><time>2026-04-18T07:45:14.999Z</time></trkpt><trkpt lat="41.66271231169808" lon="13.397907069933261"><ele>265.0</ele><time>2026-04-18T07:45:15.999Z</time></trkpt><trkpt lat="41.66265687862016" lon="13.398213748891177"><ele>267.0</ele><time>2026-04-18T07:45:16.999Z</time></trkpt><trkpt lat="41.662606130684935" lon="13.398523776555871"><ele>267.0</ele><time>2026-04-18T07:45:17.999Z</time></trkpt><trkpt lat="41.662549716079845" lon="13.398833840877565"><ele>267.0</ele><time>2026-04-18T07:45:18.999Z</time></trkpt><trkpt lat="41.66249868998745" lon="13.399152160390207"><ele>267.0</ele><time>2026-04-18T07:45:19.999Z</time></trkpt><trkpt lat="41.66245032163108" lon="13.399467196364556"><ele>267.0</ele><time>2026-04-18T07:45:20.999Z</time></trkpt><trkpt lat="41.662400594190416" lon="13.399786676189748"><ele>269.0</ele><time>2026-04-18T07:45:21.999Z</time></trkpt><trkpt lat="41.66235095082713" lon="13.400117362402904"><ele>271.0</ele><time>2026-04-18T07:45:22.999Z</time></trkpt><trkpt lat="41.662294276424824" lon="13.400460458388558"><ele>275.5</ele><time>2026-04-18T07:45:23.999Z</time></trkpt><trkpt lat="41.66222252874277" lon="13.400808917991508"><ele>280.0</ele><time>2026-04-18T07:45:24.999Z</time></trkpt><trkpt lat="41.66215091083464" lon="13.40116484650446"><ele>282.5</ele><time>2026-04-18T07:45:25.999Z</time></trkpt><trkpt lat="41.66208717112282" lon="13.401523280420948"><ele>285.0</ele><time>2026-04-18T07:45:26.999Z</time></trkpt><trkpt lat="41.66203097797071" lon="13.401881265139062"><ele>289.0</ele><time>2026-04-18T07:45:27.999Z</time></trkpt><trkpt lat="41.66197166834501" lon="13.40223733275605"><ele>293.0</ele><time>2026-04-18T07:45:28.999Z</time></trkpt><trkpt lat="41.66191045271029" lon="13.40259619523653"><ele>286.5</ele><time>2026-04-18T07:45:29.999Z</time></trkpt><trkpt lat="41.661847552026266" lon="13.4029562098604"><ele>280.0</ele><time>2026-04-18T07:45:30.999Z</time></trkpt><trkpt lat="41.66178542588253" lon="13.403314596828533"><ele>280.0</ele><time>2026-04-18T07:45:31.999Z</time></trkpt><trkpt lat="41.66173174058527" lon="13.403677791544471"><ele>280.0</ele><time>2026-04-18T07:45:32.999Z</time></trkpt><trkpt lat="41.66168468388837" lon="13.404044075334834"><ele>281.0</ele><time>2026-04-18T07:45:33.999Z</time></trkpt><trkpt lat="41.66164172963666" lon="13.404413657584845"><ele>282.0</ele><time>2026-04-18T07:45:34.999Z</time></trkpt><trkpt lat="41.6615987855176" lon="13.404782208648086"><ele>283.5</ele><time>2026-04-18T07:45:35.999Z</time></trkpt><trkpt lat="41.66155864675149" lon="13.405148380458247"><ele>285.0</ele><time>2026-04-18T07:45:36.999Z</time></trkpt><trkpt lat="41.66152572668256" lon="13.405514863230627"><ele>285.5</ele><time>2026-04-18T07:45:37.999Z</time></trkpt><trkpt lat="41.66149915458163" lon="13.405875537317048"><ele>286.0</ele><time>2026-04-18T07:45:38.999Z</time></trkpt><trkpt lat="41.66147494465166" lon="13.406234109253278"><ele>286.0</ele><time>2026-04-18T07:45:39.999Z</time></trkpt><trkpt lat="41.66145334635275" lon="13.406590892821322"><ele>286.0</ele><time>2026-04-18T07:45:40.999Z</time></trkpt><trkpt lat="41.66143421215002" lon="13.406944974060668"><ele>286.0</ele><time>2026-04-18T07:45:42Z</time></trkpt><trkpt lat="41.661418928968864" lon="13.407301908552194"><ele>286.0</ele><time>2026-04-18T07:45:43Z</time></trkpt><trkpt lat="41.661399921464245" lon="13.407656492257493"><ele>287.0</ele><time>2026-04-18T07:45:44Z</time></trkpt><trkpt lat="41.66137845025358" lon="13.408014187440541"><ele>288.0</ele><time>2026-04-18T07:45:45Z</time></trkpt><trkpt lat="41.66135742553721" lon="13.408371204399836"><ele>288.0</ele><time>2026-04-18T07:45:46Z</time></trkpt><trkpt lat="41.6613429931988" lon="13.408726160073048"><ele>288.0</ele><time>2026-04-18T07:45:47Z</time></trkpt><trkpt lat="41.6613279740875" lon="13.409081954934459"><ele>289.0</ele><time>2026-04-18T07:45:48Z</time></trkpt><trkpt lat="41.661313903818346" lon="13.409439772523767"><ele>290.0</ele><time>2026-04-18T07:45:49Z</time></trkpt><trkpt lat="41.661303928153295" lon="13.409799403998372"><ele>294.5</ele><time>2026-04-18T07:45:50Z</time></trkpt><trkpt lat="41.66130029134643" lon="13.410162021718593"><ele>299.0</ele><time>2026-04-18T07:45:51Z</time></trkpt><trkpt lat="41.66129978316218" lon="13.410524078220561"><ele>304.0</ele><time>2026-04-18T07:45:52Z</time></trkpt><trkpt lat="41.66130030957792" lon="13.410885079637614"><ele>309.0</ele><time>2026-04-18T07:45:53Z</time></trkpt><trkpt lat="41.661306071071046" lon="13.41124929659439"><ele>313.0</ele><time>2026-04-18T07:45:54Z</time></trkpt><trkpt lat="41.661316133907924" lon="13.411617353447605"><ele>317.0</ele><time>2026-04-18T07:45:55Z</time></trkpt><trkpt lat="41.661329137221664" lon="13.41198877459061"><ele>315.0</ele><time>2026-04-18T07:45:56Z</time></trkpt><trkpt lat="41.66133999896781" lon="13.412365547577462"><ele>313.0</ele><time>2026-04-18T07:45:57Z</time></trkpt><trkpt lat="41.661347077167605" lon="13.412744051593869"><ele>314.0</ele><time>2026-04-18T07:45:58Z</time></trkpt><trkpt lat="41.661347138008914" lon="13.413124988467123"><ele>315.0</ele><time>2026-04-18T07:45:59Z</time></trkpt><trkpt lat="41.66133894928958" lon="13.413514220947622"><ele>317.0</ele><time>2026-04-18T07:46:00Z</time></trkpt><trkpt lat="41.66132468861083" lon="13.413913509168973"><ele>319.0</ele><time>2026-04-18T07:46:01Z</time></trkpt><trkpt lat="41.66131000860566" lon="13.414322654865838"><ele>321.5</ele><time>2026-04-18T07:46:02Z</time></trkpt><trkpt lat="41.66129071754327" lon="13.414735209480911"><ele>324.0</ele><time>2026-04-18T07:46:03Z</time></trkpt><trkpt lat="41.66126978934247" lon="13.415151075426545"><ele>325.5</ele><time>2026-04-18T07:46:04Z</time></trkpt><trkpt lat="41.661238694723934" lon="13.415564574220173"><ele>327.0</ele><time>2026-04-18T07:46:05Z</time></trkpt><trkpt lat="41.66120587259592" lon="13.415982145948746"><ele>330.0</ele><time>2026-04-18T07:46:06Z</time></trkpt><trkpt lat="41.66116826682904" lon="13.41639626294779"><ele>333.0</ele><time>2026-04-18T07:46:07Z</time></trkpt><trkpt lat="41.66112095534451" lon="13.41680374146941"><ele>316.5</ele><time>2026-04-18T07:46:08Z</time></trkpt><trkpt lat="41.661066165136546" lon="13.417205010297195"><ele>300.0</ele><time>2026-04-18T07:46:09Z</time></trkpt><trkpt lat="41.66100699317295" lon="13.417601156128342"><ele>306.5</ele><time>2026-04-18T07:46:10Z</time></trkpt><trkpt lat="41.660947752806926" lon="13.417996035093074"><ele>313.0</ele><time>2026-04-18T07:46:11Z</time></trkpt><trkpt lat="41.66089376643954" lon="13.418389385116772"><ele>313.0</ele><time>2026-04-18T07:46:12Z</time></trkpt><trkpt lat="41.66084316597018" lon="13.418779899714806"><ele>313.0</ele><time>2026-04-18T07:46:13Z</time></trkpt><trkpt lat="41.66079676839622" lon="13.419171369112565"><ele>318.0</ele><time>2026-04-18T07:46:14Z</time></trkpt><trkpt lat="41.660754879492984" lon="13.419564198521707"><ele>323.0</ele><time>2026-04-18T07:46:15Z</time></trkpt><trkpt lat="41.66073593872213" lon="13.419962667770035"><ele>323.5</ele><time>2026-04-18T07:46:16Z</time></trkpt><trkpt lat="41.66072846635881" lon="13.420361317457775"><ele>324.0</ele><time>2026-04-18T07:46:17Z</time></trkpt><trkpt lat="41.66073899568827" lon="13.420760556497523"><ele>324.0</ele><time>2026-04-18T07:46:18Z</time></trkpt><trkpt lat="41.66077807198963" lon="13.421153127430065"><ele>324.0</ele><time>2026-04-18T07:46:19Z</time></trkpt><trkpt lat="41.6608473066113" lon="13.421526178523418"><ele>321.0</ele><time>2026-04-18T07:46:20Z</time></trkpt><trkpt lat="41.66094193313994" lon="13.421888158030585"><ele>318.0</ele><time>2026-04-18T07:46:21Z</time></trkpt><trkpt lat="41.66105626260042" lon="13.42224266522017"><ele>329.0</ele><time>2026-04-18T07:46:22Z</time></trkpt><trkpt lat="41.661186135298685" lon="13.422591070893425"><ele>340.0</ele><time>2026-04-18T07:46:23Z</time></trkpt><trkpt lat="41.6613317313736" lon="13.422927521324686"><ele>333.0</ele><time>2026-04-18T07:46:23.999Z</time></trkpt><trkpt lat="41.661503009602264" lon="13.423248147321221"><ele>326.0</ele><time>2026-04-18T07:46:24.999Z</time></trkpt><trkpt lat="41.6616992326765" lon="13.423542567991651"><ele>326.0</ele><time>2026-04-18T07:46:25.999Z</time></trkpt><trkpt lat="41.661914168572615" lon="13.423812489940854"><ele>326.0</ele><time>2026-04-18T07:46:26.999Z</time></trkpt><trkpt lat="41.662146436207465" lon="13.424059445897909"><ele>328.0</ele><time>2026-04-18T07:46:27.999Z</time></trkpt><trkpt lat="41.66238917729755" lon="13.42429226672534"><ele>330.0</ele><time>2026-04-18T07:46:28.999Z</time></trkpt><trkpt lat="41.66263978436636" lon="13.42451358863219"><ele>326.5</ele><time>2026-04-18T07:46:29.999Z</time></trkpt><trkpt lat="41.662895724138366" lon="13.424725250915678"><ele>323.0</ele><time>2026-04-18T07:46:30.999Z</time></trkpt><trkpt lat="41.66315334908585" lon="13.424927386227072"><ele>323.0</ele><time>2026-04-18T07:46:31.999Z</time></trkpt><trkpt lat="41.66341729575713" lon="13.42511848205391"><ele>323.0</ele><time>2026-04-18T07:46:32.999Z</time></trkpt><trkpt lat="41.6636825989432" lon="13.425308290174216"><ele>316.0</ele><time>2026-04-18T07:46:33.999Z</time></trkpt><trkpt lat="41.6639475397181" lon="13.425502537363371"><ele>309.0</ele><time>2026-04-18T07:46:34.999Z</time></trkpt><trkpt lat="41.664212662908604" lon="13.425703197105134"><ele>307.0</ele><time>2026-04-18T07:46:35.999Z</time></trkpt><trkpt lat="41.66447949448204" lon="13.425908994539702"><ele>305.0</ele><time>2026-04-18T07:46:36.999Z</time></trkpt><trkpt lat="41.66474155205009" lon="13.426125474451322"><ele>305.5</ele><time>2026-04-18T07:46:37.999Z</time></trkpt><trkpt lat="41.66499679597506" lon="13.4263552243893"><ele>306.0</ele><time>2026-04-18T07:46:38.999Z</time></trkpt><trkpt lat="41.66524553768282" lon="13.426602315618192"><ele>308.0</ele><time>2026-04-18T07:46:39.999Z</time></trkpt><trkpt lat="41.66548413829597" lon="13.42686595798115"><ele>310.0</ele><time>2026-04-18T07:46:40.999Z</time></trkpt><trkpt lat="41.66570623628379" lon="13.42714968361456"><ele>312.0</ele><time>2026-04-18T07:46:41.999Z</time></trkpt><trkpt lat="41.66591795940565" lon="13.427444727124012"><ele>314.0</ele><time>2026-04-18T07:46:42.999Z</time></trkpt><trkpt lat="41.666119543785754" lon="13.427755481214001"><ele>316.0</ele><time>2026-04-18T07:46:43.999Z</time></trkpt><trkpt lat="41.66630691036332" lon="13.428079555999657"><ele>318.0</ele><time>2026-04-18T07:46:44.999Z</time></trkpt><trkpt lat="41.66647532377208" lon="13.428418441976147"><ele>318.0</ele><time>2026-04-18T07:46:45.999Z</time></trkpt><trkpt lat="41.66663526018201" lon="13.428763149783926"><ele>318.0</ele><time>2026-04-18T07:46:46.999Z</time></trkpt><trkpt lat="41.66677645607114" lon="13.429123177068671"><ele>317.5</ele><time>2026-04-18T07:46:47.999Z</time></trkpt><trkpt lat="41.666897437728935" lon="13.42949442483603"><ele>317.0</ele><time>2026-04-18T07:46:48.999Z</time></trkpt><trkpt lat="41.667013087776304" lon="13.42986683015971"><ele>320.0</ele><time>2026-04-18T07:46:49.999Z</time></trkpt><trkpt lat="41.66712279118238" lon="13.430240188251739"><ele>323.0</ele><time>2026-04-18T07:46:50.999Z</time></trkpt><trkpt lat="41.66722099884926" lon="13.430616853890704"><ele>323.0</ele><time>2026-04-18T07:46:51.999Z</time></trkpt><trkpt lat="41.66732084170216" lon="13.430992758538643"><ele>323.0</ele><time>2026-04-18T07:46:52.999Z</time></trkpt><trkpt lat="41.66742335041279" lon="13.431363996764587"><ele>321.5</ele><time>2026-04-18T07:46:53.999Z</time></trkpt><trkpt lat="41.66752726602162" lon="13.431733860451288"><ele>320.0</ele><time>2026-04-18T07:46:54.999Z</time></trkpt><trkpt lat="41.667631001437044" lon="13.432103598581136"><ele>318.5</ele><time>2026-04-18T07:46:55.999Z</time></trkpt><trkpt lat="41.667732074447784" lon="13.432472774391421"><ele>317.0</ele><time>2026-04-18T07:46:56.999Z</time></trkpt><trkpt lat="41.667834365561134" lon="13.432840538794549"><ele>323.5</ele><time>2026-04-18T07:46:57.999Z</time></trkpt><trkpt lat="41.667939054493125" lon="13.433205397185963"><ele>330.0</ele><time>2026-04-18T07:46:58.999Z</time></trkpt><trkpt lat="41.66804416153911" lon="13.433568951339314"><ele>326.5</ele><time>2026-04-18T07:46:59.999Z</time></trkpt><trkpt lat="41.668147110862236" lon="13.43393275774383"><ele>323.0</ele><time>2026-04-18T07:47:00.999Z</time></trkpt><trkpt lat="41.668247194253894" lon="13.434294030114144"><ele>319.0</ele><time>2026-04-18T07:47:01.999Z</time></trkpt><trkpt lat="41.668343259197734" lon="13.434654395065285"><ele>315.0</ele><time>2026-04-18T07:47:02.999Z</time></trkpt><trkpt lat="41.66843902981354" lon="13.435014170141532"><ele>315.0</ele><time>2026-04-18T07:47:03.999Z</time></trkpt><trkpt lat="41.66853323629889" lon="13.435371839670925"><ele>315.0</ele><time>2026-04-18T07:47:04.999Z</time></trkpt><trkpt lat="41.66861999594265" lon="13.435729773698823"><ele>319.0</ele><time>2026-04-18T07:47:05.999Z</time></trkpt><trkpt lat="41.66870193962889" lon="13.436088834089613"><ele>323.0</ele><time>2026-04-18T07:47:06.999Z</time></trkpt><trkpt lat="41.668778467240884" lon="13.436445230519185"><ele>335.0</ele><time>2026-04-18T07:47:07.999Z</time></trkpt><trkpt lat="41.66885234201167" lon="13.43680885089454"><ele>347.0</ele><time>2026-04-18T07:47:08.999Z</time></trkpt><trkpt lat="41.66892063019337" lon="13.437177030616406"><ele>350.0</ele><time>2026-04-18T07:47:09.999Z</time></trkpt><trkpt lat="41.668989249518404" lon="13.437545646520949"><ele>353.0</ele><time>2026-04-18T07:47:10.999Z</time></trkpt><trkpt lat="41.669059365998855" lon="13.43791528573054"><ele>349.0</ele><time>2026-04-18T07:47:11.999Z</time></trkpt><trkpt lat="41.66912907527755" lon="13.438288124025016"><ele>345.0</ele><time>2026-04-18T07:47:12.999Z</time></trkpt><trkpt lat="41.66919681012534" lon="13.438663074588272"><ele>343.0</ele><time>2026-04-18T07:47:13.999Z</time></trkpt><trkpt lat="41.66926576375433" lon="13.439036972216739"><ele>341.0</ele><time>2026-04-18T07:47:14.999Z</time></trkpt><trkpt lat="41.66933562309458" lon="13.439411868817254"><ele>342.5</ele><time>2026-04-18T07:47:15.999Z</time></trkpt><trkpt lat="41.66940421415182" lon="13.439785397863329"><ele>344.0</ele><time>2026-04-18T07:47:16.999Z</time></trkpt><trkpt lat="41.66947662891346" lon="13.440155179625691"><ele>352.5</ele><time>2026-04-18T07:47:17.999Z</time></trkpt><trkpt lat="41.66954491911946" lon="13.440525188098512"><ele>361.0</ele><time>2026-04-18T07:47:18.999Z</time></trkpt><trkpt lat="41.66960893966125" lon="13.440895260277372"><ele>361.0</ele><time>2026-04-18T07:47:19.999Z</time></trkpt><trkpt lat="41.66967359137234" lon="13.441268497036564"><ele>361.0</ele><time>2026-04-18T07:47:20.999Z</time></trkpt><trkpt lat="41.66972566729871" lon="13.441639791276485"><ele>355.0</ele><time>2026-04-18T07:47:21.999Z</time></trkpt><trkpt lat="41.66976809544438" lon="13.442006935548779"><ele>349.0</ele><time>2026-04-18T07:47:22.999Z</time></trkpt><trkpt lat="41.66980516561694" lon="13.442377050264499"><ele>344.0</ele><time>2026-04-18T07:47:23.999Z</time></trkpt><trkpt lat="41.66983134588574" lon="13.442746015520315"><ele>339.0</ele><time>2026-04-18T07:47:24.999Z</time></trkpt><trkpt lat="41.66984450724044" lon="13.443114531182841"><ele>336.0</ele><time>2026-04-18T07:47:25.999Z</time></trkpt><trkpt lat="41.66984872754011" lon="13.443485199811047"><ele>333.0</ele><time>2026-04-18T07:47:26.999Z</time></trkpt><trkpt lat="41.66984257389981" lon="13.44386107311879"><ele>333.0</ele><time>2026-04-18T07:47:27.999Z</time></trkpt><trkpt lat="41.66981903892578" lon="13.44423635002133"><ele>333.0</ele><time>2026-04-18T07:47:28.999Z</time></trkpt><trkpt lat="41.66978077465353" lon="13.444614591700832"><ele>334.5</ele><time>2026-04-18T07:47:29.999Z</time></trkpt><trkpt lat="41.6697229283995" lon="13.444994117578569"><ele>336.0</ele><time>2026-04-18T07:47:30.999Z</time></trkpt><trkpt lat="41.669639041033214" lon="13.445372096744679"><ele>339.5</ele><time>2026-04-18T07:47:31.999Z</time></trkpt><trkpt lat="41.66954775616635" lon="13.44574795891362"><ele>343.0</ele><time>2026-04-18T07:47:32.999Z</time></trkpt><trkpt lat="41.66945096908589" lon="13.446123383373786"><ele>349.0</ele><time>2026-04-18T07:47:33.999Z</time></trkpt><trkpt lat="41.669345636854025" lon="13.446502326145351"><ele>355.0</ele><time>2026-04-18T07:47:34.999Z</time></trkpt><trkpt lat="41.6692307077268" lon="13.446886114978767"><ele>361.0</ele><time>2026-04-18T07:47:35.999Z</time></trkpt><trkpt lat="41.669105387293314" lon="13.447272335495857"><ele>367.0</ele><time>2026-04-18T07:47:36.999Z</time></trkpt><trkpt lat="41.66897678411265" lon="13.447668758477525"><ele>371.5</ele><time>2026-04-18T07:47:37.999Z</time></trkpt><trkpt lat="41.66884513607496" lon="13.448075453139847"><ele>376.0</ele><time>2026-04-18T07:47:38.999Z</time></trkpt><trkpt lat="41.66870843053635" lon="13.44849521693934"><ele>376.0</ele><time>2026-04-18T07:47:39.999Z</time></trkpt><trkpt lat="41.66856635809236" lon="13.44892869471039"><ele>376.0</ele><time>2026-04-18T07:47:40.999Z</time></trkpt><trkpt lat="41.66841606509524" lon="13.449377370347243"><ele>378.0</ele><time>2026-04-18T07:47:41.999Z</time></trkpt><trkpt lat="41.66826277477975" lon="13.449842463585309"><ele>380.0</ele><time>2026-04-18T07:47:42.999Z</time></trkpt><trkpt lat="41.66810557119149" lon="13.450320758930427"><ele>379.0</ele><time>2026-04-18T07:47:43.999Z</time></trkpt><trkpt lat="41.667944421753724" lon="13.450809495292933"><ele>378.0</ele><time>2026-04-18T07:47:44.999Z</time></trkpt><trkpt lat="41.667776734622194" lon="13.451311769176968"><ele>375.5</ele><time>2026-04-18T07:47:45.999Z</time></trkpt><trkpt lat="41.66761138819604" lon="13.451801666529345"><ele>373.0</ele><time>2026-04-18T07:47:46.999Z</time></trkpt><trkpt lat="41.66746229752817" lon="13.452247033676281"><ele>369.5</ele><time>2026-04-18T07:47:48Z</time></trkpt><trkpt lat="41.66732282474016" lon="13.452665874947703"><ele>366.0</ele><time>2026-04-18T07:47:49Z</time></trkpt><trkpt lat="41.66719522673898" lon="13.453054496579746"><ele>357.5</ele><time>2026-04-18T07:47:50Z</time></trkpt><trkpt lat="41.66707130443653" lon="13.453437823948214"><ele>349.0</ele><time>2026-04-18T07:47:51Z</time></trkpt><trkpt lat="41.6669504172111" lon="13.453819029346546"><ele>344.5</ele><time>2026-04-18T07:47:52Z</time></trkpt><trkpt lat="41.66683141523431" lon="13.454197499265526"><ele>340.0</ele><time>2026-04-18T07:47:53Z</time></trkpt><trkpt lat="41.66672149049617" lon="13.454583473333399"><ele>345.0</ele><time>2026-04-18T07:47:54Z</time></trkpt><trkpt lat="41.666634507557944" lon="13.45496327455706"><ele>350.0</ele><time>2026-04-18T07:47:55Z</time></trkpt><trkpt lat="41.666563189619445" lon="13.455351786960529"><ele>354.5</ele><time>2026-04-18T07:47:56Z</time></trkpt><trkpt lat="41.66651260586492" lon="13.45573917327277"><ele>359.0</ele><time>2026-04-18T07:47:57Z</time></trkpt><trkpt lat="41.666485281077506" lon="13.456117651551496"><ele>362.0</ele><time>2026-04-18T07:47:58Z</time></trkpt><trkpt lat="41.66647506888524" lon="13.456499664234068"><ele>365.0</ele><time>2026-04-18T07:47:59Z</time></trkpt><trkpt lat="41.666477647332435" lon="13.456885747528077"><ele>364.0</ele><time>2026-04-18T07:48:00Z</time></trkpt><trkpt lat="41.66650018948411" lon="13.457266116088421"><ele>363.0</ele><time>2026-04-18T07:48:01Z</time></trkpt><trkpt lat="41.66653482702461" lon="13.457653467972397"><ele>365.5</ele><time>2026-04-18T07:48:02Z</time></trkpt><trkpt lat="41.66658198094816" lon="13.458035799353357"><ele>368.0</ele><time>2026-04-18T07:48:03Z</time></trkpt><trkpt lat="41.66664360718618" lon="13.458418076524422"><ele>371.5</ele><time>2026-04-18T07:48:04Z</time></trkpt><trkpt lat="41.666722199375236" lon="13.45879155141903"><ele>375.0</ele><time>2026-04-18T07:48:05Z</time></trkpt><trkpt lat="41.66682711890032" lon="13.459141369335716"><ele>378.5</ele><time>2026-04-18T07:48:06Z</time></trkpt><trkpt lat="41.666946290741976" lon="13.459482877832928"><ele>382.0</ele><time>2026-04-18T07:48:07Z</time></trkpt><trkpt lat="41.66707037744995" lon="13.459827894033184"><ele>382.0</ele><time>2026-04-18T07:48:08Z</time></trkpt><trkpt lat="41.66718636324503" lon="13.460181172285875"><ele>382.0</ele><time>2026-04-18T07:48:09Z</time></trkpt><trkpt lat="41.66730875069995" lon="13.460515068607252"><ele>378.0</ele><time>2026-04-18T07:48:10Z</time></trkpt><trkpt lat="41.66743742820851" lon="13.460834273696182"><ele>374.0</ele><time>2026-04-18T07:48:11Z</time></trkpt><trkpt lat="41.66756806383355" lon="13.461158834061967"><ele>371.5</ele><time>2026-04-18T07:48:12Z</time></trkpt><trkpt lat="41.66769066683444" lon="13.461481548482247"><ele>369.0</ele><time>2026-04-18T07:48:13Z</time></trkpt><trkpt lat="41.6678167581538" lon="13.461794544741956"><ele>373.5</ele><time>2026-04-18T07:48:14Z</time></trkpt><trkpt lat="41.66794986898059" lon="13.462098934190779"><ele>378.0</ele><time>2026-04-18T07:48:15Z</time></trkpt><trkpt lat="41.668089020593314" lon="13.462399190518932"><ele>378.0</ele><time>2026-04-18T07:48:16Z</time></trkpt><trkpt lat="41.668224957408086" lon="13.46270472620642"><ele>378.0</ele><time>2026-04-18T07:48:17Z</time></trkpt><trkpt lat="41.66836543587035" lon="13.463004399878395"><ele>375.5</ele><time>2026-04-18T07:48:18Z</time></trkpt><trkpt lat="41.66851680076975" lon="13.463294722270627"><ele>373.0</ele><time>2026-04-18T07:48:19Z</time></trkpt><trkpt lat="41.66867170893042" lon="13.46358238430336"><ele>376.0</ele><time>2026-04-18T07:48:20Z</time></trkpt><trkpt lat="41.668830106505844" lon="13.463854883642519"><ele>379.0</ele><time>2026-04-18T07:48:21Z</time></trkpt><trkpt lat="41.668996866254055" lon="13.46412792025498"><ele>379.0</ele><time>2026-04-18T07:48:22Z</time></trkpt><trkpt lat="41.66916708183936" lon="13.464388497883748"><ele>379.0</ele><time>2026-04-18T07:48:23Z</time></trkpt><trkpt lat="41.66935670088507" lon="13.46463566113427"><ele>373.0</ele><time>2026-04-18T07:48:23.999Z</time></trkpt><trkpt lat="41.66955140188762" lon="13.464875978922828"><ele>367.0</ele><time>2026-04-18T07:48:24.999Z</time></trkpt><trkpt lat="41.66975638877096" lon="13.465096374420227"><ele>367.0</ele><time>2026-04-18T07:48:25.999Z</time></trkpt><trkpt lat="41.66997313668627" lon="13.465300439766374"><ele>367.0</ele><time>2026-04-18T07:48:26.999Z</time></trkpt><trkpt lat="41.67018465819604" lon="13.465517678396887"><ele>359.5</ele><time>2026-04-18T07:48:27.999Z</time></trkpt><trkpt lat="41.67040661305523" lon="13.465725144895083"><ele>352.0</ele><time>2026-04-18T07:48:28.999Z</time></trkpt><trkpt lat="41.670637519463234" lon="13.465925294665734"><ele>352.0</ele><time>2026-04-18T07:48:29.999Z</time></trkpt><trkpt lat="41.67087587361872" lon="13.466122067787273"><ele>352.0</ele><time>2026-04-18T07:48:30.999Z</time></trkpt><trkpt lat="41.671130343956335" lon="13.466299805872069"><ele>343.5</ele><time>2026-04-18T07:48:31.999Z</time></trkpt><trkpt lat="41.6713777471186" lon="13.466502557627349"><ele>335.0</ele><time>2026-04-18T07:48:32.999Z</time></trkpt><trkpt lat="41.67163137224566" lon="13.466704166837758"><ele>335.0</ele><time>2026-04-18T07:48:33.999Z</time></trkpt><trkpt lat="41.671886435203" lon="13.466907416069866"><ele>335.0</ele><time>2026-04-18T07:48:34.999Z</time></trkpt><trkpt lat="41.67214393979045" lon="13.467114999261849"><ele>335.0</ele><time>2026-04-18T07:48:35.999Z</time></trkpt><trkpt lat="41.67240597934636" lon="13.467323084444873"><ele>335.0</ele><time>2026-04-18T07:48:36.999Z</time></trkpt><trkpt lat="41.67266972886846" lon="13.467536467134778"><ele>336.0</ele><time>2026-04-18T07:48:37.999Z</time></trkpt><trkpt lat="41.67293350164413" lon="13.467743249189658"><ele>337.0</ele><time>2026-04-18T07:48:38.999Z</time></trkpt><trkpt lat="41.67320427945912" lon="13.467951668987475"><ele>337.0</ele><time>2026-04-18T07:48:39.999Z</time></trkpt><trkpt lat="41.67347487205986" lon="13.468165487990984"><ele>337.0</ele><time>2026-04-18T07:48:40.999Z</time></trkpt><trkpt lat="41.67374922944577" lon="13.468387015276745"><ele>336.5</ele><time>2026-04-18T07:48:41.999Z</time></trkpt><trkpt lat="41.67404111372715" lon="13.468622574504723"><ele>336.0</ele><time>2026-04-18T07:48:42.999Z</time></trkpt><trkpt lat="41.67434263888477" lon="13.468872798818273"><ele>335.0</ele><time>2026-04-18T07:48:43.999Z</time></trkpt><trkpt lat="41.67465552523846" lon="13.469130452649889"><ele>334.0</ele><time>2026-04-18T07:48:44.999Z</time></trkpt><trkpt lat="41.67497626365613" lon="13.469399906246242"><ele>334.0</ele><time>2026-04-18T07:48:45.999Z</time></trkpt><trkpt lat="41.675291064379" lon="13.469684699729324"><ele>334.0</ele><time>2026-04-18T07:48:46.999Z</time></trkpt><trkpt lat="41.67558344456295" lon="13.469977533364434"><ele>334.0</ele><time>2026-04-18T07:48:47.999Z</time></trkpt><trkpt lat="41.67584246622474" lon="13.470267795642336"><ele>334.0</ele><time>2026-04-18T07:48:48.999Z</time></trkpt><trkpt lat="41.676078059379925" lon="13.47056510520326"><ele>332.5</ele><time>2026-04-18T07:48:49.999Z</time></trkpt><trkpt lat="41.67629034712493" lon="13.470884432441844"><ele>331.0</ele><time>2026-04-18T07:48:50.999Z</time></trkpt><trkpt lat="41.67648443064006" lon="13.471224138373202"><ele>331.0</ele><time>2026-04-18T07:48:51.999Z</time></trkpt><trkpt lat="41.676655638973756" lon="13.47157198462289"><ele>331.0</ele><time>2026-04-18T07:48:52.999Z</time></trkpt><trkpt lat="41.676808842842156" lon="13.471927243506459"><ele>325.5</ele><time>2026-04-18T07:48:53.999Z</time></trkpt><trkpt lat="41.67694315368873" lon="13.472300616954396"><ele>320.0</ele><time>2026-04-18T07:48:54.999Z</time></trkpt><trkpt lat="41.677062013235506" lon="13.472664334898944"><ele>315.5</ele><time>2026-04-18T07:48:55.999Z</time></trkpt><trkpt lat="41.677162480052786" lon="13.473046786318859"><ele>311.0</ele><time>2026-04-18T07:48:56.999Z</time></trkpt><trkpt lat="41.67723797549768" lon="13.473422074696291"><ele>308.5</ele><time>2026-04-18T07:48:57.999Z</time></trkpt><trkpt lat="41.677289163575196" lon="13.47378035291377"><ele>306.0</ele><time>2026-04-18T07:48:58.999Z</time></trkpt><trkpt lat="41.67733031152061" lon="13.474148827620686"><ele>306.0</ele><time>2026-04-18T07:48:59.999Z</time></trkpt><trkpt lat="41.67736566863326" lon="13.474526215869963"><ele>306.0</ele><time>2026-04-18T07:49:00.999Z</time></trkpt><trkpt lat="41.67738918489318" lon="13.474916459330922"><ele>304.5</ele><time>2026-04-18T07:49:01.999Z</time></trkpt><trkpt lat="41.6773972022443" lon="13.475317268383005"><ele>303.0</ele><time>2026-04-18T07:49:02.999Z</time></trkpt><trkpt lat="41.67739912647831" lon="13.475724061875358"><ele>302.5</ele><time>2026-04-18T07:49:03.999Z</time></trkpt><trkpt lat="41.67739332674529" lon="13.47613406570834"><ele>302.0</ele><time>2026-04-18T07:49:04.999Z</time></trkpt><trkpt lat="41.67738926830373" lon="13.476553961779201"><ele>302.5</ele><time>2026-04-18T07:49:05.999Z</time></trkpt><trkpt lat="41.677384670145535" lon="13.476973226200464"><ele>303.0</ele><time>2026-04-18T07:49:06.999Z</time></trkpt><trkpt lat="41.677378440766475" lon="13.47739141462614"><ele>303.0</ele><time>2026-04-18T07:49:07.999Z</time></trkpt><trkpt lat="41.67736702316071" lon="13.477810815159183"><ele>303.0</ele><time>2026-04-18T07:49:08.999Z</time></trkpt><trkpt lat="41.67735537848956" lon="13.478226480456234"><ele>301.5</ele><time>2026-04-18T07:49:09.999Z</time></trkpt><trkpt lat="41.67734869211133" lon="13.478644761524281"><ele>300.0</ele><time>2026-04-18T07:49:10.999Z</time></trkpt><trkpt lat="41.677345774172785" lon="13.479060048468313"><ele>299.0</ele><time>2026-04-18T07:49:11.999Z</time></trkpt><trkpt lat="41.6773447905217" lon="13.47948419444031"><ele>298.0</ele><time>2026-04-18T07:49:12.999Z</time></trkpt><trkpt lat="41.677342519288544" lon="13.479911507885094"><ele>296.5</ele><time>2026-04-18T07:49:13.999Z</time></trkpt><trkpt lat="41.677349412015765" lon="13.480341422282219"><ele>295.0</ele><time>2026-04-18T07:49:14.999Z</time></trkpt><trkpt lat="41.67738149848715" lon="13.48076710339801"><ele>293.0</ele><time>2026-04-18T07:49:15.999Z</time></trkpt><trkpt lat="41.677424720074164" lon="13.481188073493179"><ele>291.0</ele><time>2026-04-18T07:49:16.999Z</time></trkpt><trkpt lat="41.67748227449957" lon="13.481615049281855"><ele>290.5</ele><time>2026-04-18T07:49:17.999Z</time></trkpt><trkpt lat="41.677546273730066" lon="13.482044904410326"><ele>290.0</ele><time>2026-04-18T07:49:18.999Z</time></trkpt><trkpt lat="41.67762943711059" lon="13.482467412249143"><ele>290.0</ele><time>2026-04-18T07:49:19.999Z</time></trkpt><trkpt lat="41.67771772794483" lon="13.482888820470048"><ele>290.0</ele><time>2026-04-18T07:49:20.999Z</time></trkpt><trkpt lat="41.67783201870754" lon="13.483310054872733"><ele>290.5</ele><time>2026-04-18T07:49:21.999Z</time></trkpt><trkpt lat="41.67794748494379" lon="13.48372133575026"><ele>291.0</ele><time>2026-04-18T07:49:22.999Z</time></trkpt><trkpt lat="41.67808028049077" lon="13.484135309135203"><ele>292.5</ele><time>2026-04-18T07:49:23.999Z</time></trkpt><trkpt lat="41.67822998642175" lon="13.484553036924254"><ele>294.0</ele><time>2026-04-18T07:49:24.999Z</time></trkpt><trkpt lat="41.67837740788326" lon="13.484980331460681"><ele>294.5</ele><time>2026-04-18T07:49:25.999Z</time></trkpt><trkpt lat="41.67852734956494" lon="13.48541712437142"><ele>295.0</ele><time>2026-04-18T07:49:26.999Z</time></trkpt><trkpt lat="41.678677054955415" lon="13.48586144416364"><ele>299.0</ele><time>2026-04-18T07:49:27.999Z</time></trkpt><trkpt lat="41.67883381275035" lon="13.486317453151235"><ele>303.0</ele><time>2026-04-18T07:49:28.999Z</time></trkpt><trkpt lat="41.67898877780376" lon="13.486783919755007"><ele>304.5</ele><time>2026-04-18T07:49:29.999Z</time></trkpt><trkpt lat="41.679135472974984" lon="13.487274889943532"><ele>306.0</ele><time>2026-04-18T07:49:30.999Z</time></trkpt><trkpt lat="41.67925361085488" lon="13.487746903536921"><ele>305.5</ele><time>2026-04-18T07:49:31.999Z</time></trkpt><trkpt lat="41.67934549160956" lon="13.488185340830608"><ele>305.0</ele><time>2026-04-18T07:49:32.999Z</time></trkpt><trkpt lat="41.67942072685957" lon="13.488606799157042"><ele>307.0</ele><time>2026-04-18T07:49:33.999Z</time></trkpt><trkpt lat="41.679482182984984" lon="13.48902401527985"><ele>309.0</ele><time>2026-04-18T07:49:34.999Z</time></trkpt><trkpt lat="41.6795327278462" lon="13.489437077153655"><ele>308.5</ele><time>2026-04-18T07:49:35.999Z</time></trkpt><trkpt lat="41.679568676134316" lon="13.489847427322607"><ele>308.0</ele><time>2026-04-18T07:49:36.999Z</time></trkpt><trkpt lat="41.67959226433959" lon="13.490253639716771"><ele>309.0</ele><time>2026-04-18T07:49:37.999Z</time></trkpt><trkpt lat="41.679604436565015" lon="13.490656503425692"><ele>310.0</ele><time>2026-04-18T07:49:38.999Z</time></trkpt><trkpt lat="41.67960981962491" lon="13.491061317443164"><ele>312.0</ele><time>2026-04-18T07:49:39.999Z</time></trkpt><trkpt lat="41.679599263220254" lon="13.491467910600209"><ele>314.0</ele><time>2026-04-18T07:49:40.999Z</time></trkpt><trkpt lat="41.67957512204617" lon="13.49187274756941"><ele>315.0</ele><time>2026-04-18T07:49:41.999Z</time></trkpt><trkpt lat="41.67954525508018" lon="13.49227726865363"><ele>316.0</ele><time>2026-04-18T07:49:42.999Z</time></trkpt><trkpt lat="41.67950477605356" lon="13.492676291961164"><ele>316.5</ele><time>2026-04-18T07:49:43.999Z</time></trkpt><trkpt lat="41.679453130288195" lon="13.493067438625534"><ele>317.0</ele><time>2026-04-18T07:49:44.999Z</time></trkpt><trkpt lat="41.679399328200965" lon="13.493454066884064"><ele>314.5</ele><time>2026-04-18T07:49:45.999Z</time></trkpt><trkpt lat="41.67934345085777" lon="13.493833720528299"><ele>312.0</ele><time>2026-04-18T07:49:46.999Z</time></trkpt><trkpt lat="41.67929558024095" lon="13.494213090929337"><ele>315.0</ele><time>2026-04-18T07:49:47.999Z</time></trkpt><trkpt lat="41.67924943153338" lon="13.494588288066907"><ele>318.0</ele><time>2026-04-18T07:49:48.999Z</time></trkpt><trkpt lat="41.67919962767745" lon="13.494955103453854"><ele>318.0</ele><time>2026-04-18T07:49:49.999Z</time></trkpt><trkpt lat="41.679149960730456" lon="13.495323492380997"><ele>318.0</ele><time>2026-04-18T07:49:50.999Z</time></trkpt><trkpt lat="41.6790993364715" lon="13.495689123030905"><ele>319.5</ele><time>2026-04-18T07:49:51.999Z</time></trkpt><trkpt lat="41.67904770848194" lon="13.496051544705269"><ele>321.0</ele><time>2026-04-18T07:49:52.999Z</time></trkpt><trkpt lat="41.67899572279041" lon="13.496412926194397"><ele>322.0</ele><time>2026-04-18T07:49:54Z</time></trkpt><trkpt lat="41.67893554542879" lon="13.496772595725275"><ele>323.0</ele><time>2026-04-18T07:49:55Z</time></trkpt><trkpt lat="41.67886993947001" lon="13.497130491859016"><ele>323.5</ele><time>2026-04-18T07:49:56Z</time></trkpt><trkpt lat="41.67879856687936" lon="13.497484336422566"><ele>324.0</ele><time>2026-04-18T07:49:57Z</time></trkpt><trkpt lat="41.67872405157461" lon="13.497839387108952"><ele>324.5</ele><time>2026-04-18T07:49:58Z</time></trkpt><trkpt lat="41.678649648180425" lon="13.498193521012851"><ele>325.0</ele><time>2026-04-18T07:49:59Z</time></trkpt><trkpt lat="41.67857374204772" lon="13.498546973757605"><ele>322.0</ele><time>2026-04-18T07:50:00Z</time></trkpt><trkpt lat="41.67849455524528" lon="13.498901783895475"><ele>319.0</ele><time>2026-04-18T07:50:01Z</time></trkpt><trkpt lat="41.67840797062386" lon="13.499253877571086"><ele>318.0</ele><time>2026-04-18T07:50:02Z</time></trkpt><trkpt lat="41.678310100100525" lon="13.499603933515129"><ele>317.0</ele><time>2026-04-18T07:50:03Z</time></trkpt><trkpt lat="41.67820488754354" lon="13.499948598936607"><ele>317.0</ele><time>2026-04-18T07:50:04Z</time></trkpt><trkpt lat="41.678113348360405" lon="13.500305176834"><ele>317.0</ele><time>2026-04-18T07:50:05Z</time></trkpt><trkpt lat="41.67800562553845" lon="13.500654364620546"><ele>317.5</ele><time>2026-04-18T07:50:06Z</time></trkpt><trkpt lat="41.677891710757464" lon="13.501000615794355"><ele>318.0</ele><time>2026-04-18T07:50:07Z</time></trkpt><trkpt lat="41.67777829390857" lon="13.501350870900943"><ele>313.0</ele><time>2026-04-18T07:50:08Z</time></trkpt><trkpt lat="41.67766000577989" lon="13.50170077021229"><ele>308.0</ele><time>2026-04-18T07:50:09Z</time></trkpt><trkpt lat="41.67753547175385" lon="13.502043014198234"><ele>306.5</ele><time>2026-04-18T07:50:10Z</time></trkpt><trkpt lat="41.67740462127077" lon="13.502378680858886"><ele>305.0</ele><time>2026-04-18T07:50:11Z</time></trkpt><trkpt lat="41.67727073937389" lon="13.502710155789426"><ele>305.0</ele><time>2026-04-18T07:50:12Z</time></trkpt><trkpt lat="41.677137037402595" lon="13.503038693255688"><ele>305.0</ele><time>2026-04-18T07:50:13Z</time></trkpt><trkpt lat="41.677003071405544" lon="13.503363578066487"><ele>302.0</ele><time>2026-04-18T07:50:14Z</time></trkpt><trkpt lat="41.676871016658446" lon="13.503677975193018"><ele>299.0</ele><time>2026-04-18T07:50:15Z</time></trkpt><trkpt lat="41.67675525811172" lon="13.503978909018622"><ele>299.0</ele><time>2026-04-18T07:50:16Z</time></trkpt><trkpt lat="41.676633107783125" lon="13.504254524326539"><ele>299.0</ele><time>2026-04-18T07:50:17Z</time></trkpt><trkpt lat="41.67652253110707" lon="13.504522416702379"><ele>300.6666666666667</ele><time>2026-04-18T07:50:18Z</time></trkpt><trkpt lat="41.67641855834459" lon="13.504778824894684"><ele>302.3333333333333</ele><time>2026-04-18T07:50:19Z</time></trkpt><trkpt lat="41.676320897644636" lon="13.505022429629506"><ele>304.0</ele><time>2026-04-18T07:50:20Z</time></trkpt><trkpt lat="41.67623184018257" lon="13.505263183701784"><ele>302.0</ele><time>2026-04-18T07:50:21Z</time></trkpt><trkpt lat="41.676155876102946" lon="13.50549758749987"><ele>300.0</ele><time>2026-04-18T07:50:22Z</time></trkpt><trkpt lat="41.67608566102029" lon="13.505725674936556"><ele>298.0</ele><time>2026-04-18T07:50:23Z</time></trkpt><trkpt lat="41.676023072276905" lon="13.505946722042696"><ele>298.0</ele><time>2026-04-18T07:50:24Z</time></trkpt><trkpt lat="41.67596636588026" lon="13.506165377179528"><ele>298.0</ele><time>2026-04-18T07:50:24.999Z</time></trkpt><trkpt lat="41.67591169998391" lon="13.506389369484584"><ele>298.0</ele><time>2026-04-18T07:50:25.999Z</time></trkpt><trkpt lat="41.675861943102554" lon="13.506618662572006"><ele>298.0</ele><time>2026-04-18T07:50:26.999Z</time></trkpt><trkpt lat="41.675817309821596" lon="13.506856992830492"><ele>298.0</ele><time>2026-04-18T07:50:27.999Z</time></trkpt><trkpt lat="41.675775726146114" lon="13.50709592783862"><ele>298.0</ele><time>2026-04-18T07:50:28.999Z</time></trkpt><trkpt lat="41.67574023781191" lon="13.507346627288788"><ele>297.66666666666663</ele><time>2026-04-18T07:50:29.999Z</time></trkpt><trkpt lat="41.675718146660024" lon="13.507619308605767"><ele>297.3333333333333</ele><time>2026-04-18T07:50:30.999Z</time></trkpt><trkpt lat="41.675681468081926" lon="13.507875362514472"><ele>297.0</ele><time>2026-04-18T07:50:31.999Z</time></trkpt><trkpt lat="41.675660810154454" lon="13.508145986129875"><ele>297.0</ele><time>2026-04-18T07:50:32.999Z</time></trkpt><trkpt lat="41.67564530148426" lon="13.508420872206246"><ele>297.0</ele><time>2026-04-18T07:50:33.999Z</time></trkpt><trkpt lat="41.67563448193084" lon="13.508698910553079"><ele>297.0</ele><time>2026-04-18T07:50:34.999Z</time></trkpt><trkpt lat="41.67563255062844" lon="13.508992753419964"><ele>294.5</ele><time>2026-04-18T07:50:35.999Z</time></trkpt><trkpt lat="41.67563799888694" lon="13.50929866267227"><ele>292.0</ele><time>2026-04-18T07:50:36.999Z</time></trkpt><trkpt lat="41.6756495540435" lon="13.509613797498394"><ele>289.5</ele><time>2026-04-18T07:50:37.999Z</time></trkpt><trkpt lat="41.675677352134926" lon="13.50993577163918"><ele>287.0</ele><time>2026-04-18T07:50:38.999Z</time></trkpt><trkpt lat="41.67571279684928" lon="13.510271825529506"><ele>284.0</ele><time>2026-04-18T07:50:39.999Z</time></trkpt><trkpt lat="41.67575499426677" lon="13.510610203293053"><ele>281.0</ele><time>2026-04-18T07:50:40.999Z</time></trkpt><trkpt lat="41.675821534069236" lon="13.510963614538973"><ele>277.0</ele><time>2026-04-18T07:50:41.999Z</time></trkpt><trkpt lat="41.675899500531976" lon="13.511322307091355"><ele>273.0</ele><time>2026-04-18T07:50:42.999Z</time></trkpt><trkpt lat="41.675983232286896" lon="13.511677221152704"><ele>273.0</ele><time>2026-04-18T07:50:43.999Z</time></trkpt><trkpt lat="41.67607222933059" lon="13.51204126584531"><ele>273.0</ele><time>2026-04-18T07:50:44.999Z</time></trkpt><trkpt lat="41.676168353514264" lon="13.512408795481237"><ele>274.0</ele><time>2026-04-18T07:50:45.999Z</time></trkpt><trkpt lat="41.67626398352258" lon="13.512779019054303"><ele>275.0</ele><time>2026-04-18T07:50:46.999Z</time></trkpt><trkpt lat="41.676357554947046" lon="13.513156669706742"><ele>272.0</ele><time>2026-04-18T07:50:47.999Z</time></trkpt><trkpt lat="41.67644975194712" lon="13.513540846042421"><ele>269.0</ele><time>2026-04-18T07:50:48.999Z</time></trkpt><trkpt lat="41.6765437329094" lon="13.513925113958164"><ele>266.5</ele><time>2026-04-18T07:50:49.999Z</time></trkpt><trkpt lat="41.676638368309554" lon="13.51430731291626"><ele>264.0</ele><time>2026-04-18T07:50:50.999Z</time></trkpt><trkpt lat="41.67673639217973" lon="13.514690103224671"><ele>261.5</ele><time>2026-04-18T07:50:51.999Z</time></trkpt><trkpt lat="41.67683239971278" lon="13.515075238685618"><ele>259.0</ele><time>2026-04-18T07:50:52.999Z</time></trkpt><trkpt lat="41.676926382093896" lon="13.515461028811753"><ele>262.5</ele><time>2026-04-18T07:50:53.999Z</time></trkpt><trkpt lat="41.677023127226434" lon="13.515846296379953"><ele>266.0</ele><time>2026-04-18T07:50:54.999Z</time></trkpt><trkpt lat="41.6771206816924" lon="13.516229216697967"><ele>262.0</ele><time>2026-04-18T07:50:55.999Z</time></trkpt><trkpt lat="41.67721849040274" lon="13.516613146988002"><ele>258.0</ele><time>2026-04-18T07:50:56.999Z</time></trkpt><trkpt lat="41.67731529895134" lon="13.516998644393421"><ele>256.5</ele><time>2026-04-18T07:50:57.999Z</time></trkpt><trkpt lat="41.67741817025693" lon="13.517380862728423"><ele>255.0</ele><time>2026-04-18T07:50:58.999Z</time></trkpt><trkpt lat="41.67753322915059" lon="13.517758843579724"><ele>253.5</ele><time>2026-04-18T07:50:59.999Z</time></trkpt><trkpt lat="41.67765182160567" lon="13.518136658501145"><ele>252.0</ele><time>2026-04-18T07:51:00.999Z</time></trkpt><trkpt lat="41.67777208722009" lon="13.518514893267682"><ele>257.0</ele><time>2026-04-18T07:51:01.999Z</time></trkpt><trkpt lat="41.677898085691254" lon="13.518890175117837"><ele>262.0</ele><time>2026-04-18T07:51:02.999Z</time></trkpt><trkpt lat="41.67802559238045" lon="13.519264901197955"><ele>258.0</ele><time>2026-04-18T07:51:03.999Z</time></trkpt><trkpt lat="41.67815739652471" lon="13.519641439381438"><ele>254.0</ele><time>2026-04-18T07:51:04.999Z</time></trkpt><trkpt lat="41.67829352281228" lon="13.520015090579495"><ele>254.0</ele><time>2026-04-18T07:51:05.999Z</time></trkpt><trkpt lat="41.67843567914449" lon="13.5203892627316"><ele>254.0</ele><time>2026-04-18T07:51:06.999Z</time></trkpt><trkpt lat="41.678585261841135" lon="13.52076334951605"><ele>254.5</ele><time>2026-04-18T07:51:07.999Z</time></trkpt><trkpt lat="41.678732168928896" lon="13.521138084676991"><ele>255.0</ele><time>2026-04-18T07:51:08.999Z</time></trkpt><trkpt lat="41.6788776165111" lon="13.521513569379543"><ele>251.0</ele><time>2026-04-18T07:51:09.999Z</time></trkpt><trkpt lat="41.679022122347334" lon="13.521890725878194"><ele>247.0</ele><time>2026-04-18T07:51:10.999Z</time></trkpt><trkpt lat="41.67916903827679" lon="13.522267357927316"><ele>248.0</ele><time>2026-04-18T07:51:11.999Z</time></trkpt><trkpt lat="41.679315203813296" lon="13.522638667895267"><ele>249.0</ele><time>2026-04-18T07:51:12.999Z</time></trkpt><trkpt lat="41.6794613509181" lon="13.523004035924176"><ele>249.0</ele><time>2026-04-18T07:51:13.999Z</time></trkpt><trkpt lat="41.679609003394376" lon="13.523375315755429"><ele>249.0</ele><time>2026-04-18T07:51:14.999Z</time></trkpt><trkpt lat="41.67975524159837" lon="13.523749436624133"><ele>246.5</ele><time>2026-04-18T07:51:15.999Z</time></trkpt><trkpt lat="41.679902236770815" lon="13.524122862962106"><ele>244.0</ele><time>2026-04-18T07:51:16.999Z</time></trkpt><trkpt lat="41.68005025791011" lon="13.52449602387271"><ele>241.5</ele><time>2026-04-18T07:51:17.999Z</time></trkpt><trkpt lat="41.680194882354044" lon="13.524862038718215"><ele>239.0</ele><time>2026-04-18T07:51:18.999Z</time></trkpt><trkpt lat="41.6803366060159" lon="13.525229313956988"><ele>237.0</ele><time>2026-04-18T07:51:19.999Z</time></trkpt><trkpt lat="41.6804812005747" lon="13.525591688069264"><ele>235.0</ele><time>2026-04-18T07:51:20.999Z</time></trkpt><trkpt lat="41.68062429335432" lon="13.525946726015341"><ele>233.0</ele><time>2026-04-18T07:51:21.999Z</time></trkpt><trkpt lat="41.6807631626284" lon="13.526303269593685"><ele>231.0</ele><time>2026-04-18T07:51:22.999Z</time></trkpt><trkpt lat="41.68090184881895" lon="13.52666362862521"><ele>231.0</ele><time>2026-04-18T07:51:23.999Z</time></trkpt><trkpt lat="41.68104238814575" lon="13.527025364456307"><ele>231.0</ele><time>2026-04-18T07:51:24.999Z</time></trkpt><trkpt lat="41.68118767173639" lon="13.527385920203585"><ele>232.0</ele><time>2026-04-18T07:51:25.999Z</time></trkpt><trkpt lat="41.68133627355139" lon="13.52774735163479"><ele>233.0</ele><time>2026-04-18T07:51:26.999Z</time></trkpt><trkpt lat="41.681494383922704" lon="13.528108983224445"><ele>233.0</ele><time>2026-04-18T07:51:27.999Z</time></trkpt><trkpt lat="41.68166379200466" lon="13.528468637768338"><ele>233.0</ele><time>2026-04-18T07:51:28.999Z</time></trkpt><trkpt lat="41.68184341432818" lon="13.528825345918827"><ele>235.5</ele><time>2026-04-18T07:51:29.999Z</time></trkpt><trkpt lat="41.68203010352684" lon="13.529179660919315"><ele>238.0</ele><time>2026-04-18T07:51:30.999Z</time></trkpt><trkpt lat="41.682223788434136" lon="13.529531163400565"><ele>237.5</ele><time>2026-04-18T07:51:31.999Z</time></trkpt><trkpt lat="41.68242265766956" lon="13.529878983474688"><ele>237.0</ele><time>2026-04-18T07:51:32.999Z</time></trkpt><trkpt lat="41.682630439698045" lon="13.530216177180957"><ele>235.5</ele><time>2026-04-18T07:51:33.999Z</time></trkpt><trkpt lat="41.682845164860474" lon="13.530544830271616"><ele>234.0</ele><time>2026-04-18T07:51:34.999Z</time></trkpt><trkpt lat="41.683061176359416" lon="13.530867559958281"><ele>234.0</ele><time>2026-04-18T07:51:35.999Z</time></trkpt><trkpt lat="41.683288731665705" lon="13.531184412997659"><ele>234.0</ele><time>2026-04-18T07:51:36.999Z</time></trkpt><trkpt lat="41.68352240347191" lon="13.531501875446379"><ele>234.5</ele><time>2026-04-18T07:51:37.999Z</time></trkpt><trkpt lat="41.68374935906607" lon="13.531831978882016"><ele>235.0</ele><time>2026-04-18T07:51:38.999Z</time></trkpt><trkpt lat="41.68397917255375" lon="13.53215214087942"><ele>235.0</ele><time>2026-04-18T07:51:39.999Z</time></trkpt><trkpt lat="41.684213114361384" lon="13.532466601588526"><ele>235.0</ele><time>2026-04-18T07:51:40.999Z</time></trkpt><trkpt lat="41.684439431594775" lon="13.532782476744758"><ele>236.0</ele><time>2026-04-18T07:51:41.999Z</time></trkpt><trkpt lat="41.68466656366587" lon="13.53309492797108"><ele>237.0</ele><time>2026-04-18T07:51:42.999Z</time></trkpt><trkpt lat="41.68489001119379" lon="13.533412720379498"><ele>238.0</ele><time>2026-04-18T07:51:43.999Z</time></trkpt><trkpt lat="41.68511191209016" lon="13.533727822887801"><ele>239.0</ele><time>2026-04-18T07:51:44.999Z</time></trkpt><trkpt lat="41.68533736225442" lon="13.53404110545672"><ele>239.0</ele><time>2026-04-18T07:51:45.999Z</time></trkpt><trkpt lat="41.68556411222495" lon="13.534349469265445"><ele>239.0</ele><time>2026-04-18T07:51:46.999Z</time></trkpt><trkpt lat="41.68579025112181" lon="13.53465123781174"><ele>239.5</ele><time>2026-04-18T07:51:47.999Z</time></trkpt><trkpt lat="41.68601060478476" lon="13.534954001144776"><ele>240.0</ele><time>2026-04-18T07:51:48.999Z</time></trkpt><trkpt lat="41.68622784546239" lon="13.535254517496737"><ele>243.5</ele><time>2026-04-18T07:51:49.999Z</time></trkpt><trkpt lat="41.68644580741062" lon="13.53555441208345"><ele>247.0</ele><time>2026-04-18T07:51:50.999Z</time></trkpt><trkpt lat="41.6866610003854" lon="13.535856604351045"><ele>247.0</ele><time>2026-04-18T07:51:51.999Z</time></trkpt><trkpt lat="41.68687007099349" lon="13.53616205462136"><ele>247.0</ele><time>2026-04-18T07:51:52.999Z</time></trkpt><trkpt lat="41.6870676630301" lon="13.536478830618153"><ele>252.0</ele><time>2026-04-18T07:51:53.999Z</time></trkpt><trkpt lat="41.687256454266304" lon="13.53680462740189"><ele>257.0</ele><time>2026-04-18T07:51:54.999Z</time></trkpt><trkpt lat="41.68744052605624" lon="13.537136174686289"><ele>257.0</ele><time>2026-04-18T07:51:55.999Z</time></trkpt><trkpt lat="41.68762218287123" lon="13.537464788900373"><ele>257.0</ele><time>2026-04-18T07:51:56.999Z</time></trkpt><trkpt lat="41.687798823619346" lon="13.537795667314294"><ele>255.0</ele><time>2026-04-18T07:51:57.999Z</time></trkpt><trkpt lat="41.68796234534019" lon="13.538131726005474"><ele>253.0</ele><time>2026-04-18T07:51:58.999Z</time></trkpt><trkpt lat="41.68812321744069" lon="13.5384683301304"><ele>254.0</ele><time>2026-04-18T07:52:00Z</time></trkpt><trkpt lat="41.68827750471195" lon="13.53880503408144"><ele>255.0</ele><time>2026-04-18T07:52:01Z</time></trkpt><trkpt lat="41.688429712782074" lon="13.539151010046446"><ele>255.0</ele><time>2026-04-18T07:52:02Z</time></trkpt><trkpt lat="41.6885713227839" lon="13.539495915192637"><ele>255.0</ele><time>2026-04-18T07:52:03Z</time></trkpt><trkpt lat="41.68870824918383" lon="13.539843425941962"><ele>258.0</ele><time>2026-04-18T07:52:04Z</time></trkpt><trkpt lat="41.688844051459206" lon="13.540191620605393"><ele>261.0</ele><time>2026-04-18T07:52:05Z</time></trkpt><trkpt lat="41.68897563798314" lon="13.540545283366656"><ele>262.0</ele><time>2026-04-18T07:52:06Z</time></trkpt><trkpt lat="41.6891073567863" lon="13.540902448044209"><ele>263.0</ele><time>2026-04-18T07:52:07Z</time></trkpt><trkpt lat="41.68923597202827" lon="13.541260896313542"><ele>264.0</ele><time>2026-04-18T07:52:08Z</time></trkpt><trkpt lat="41.68936599591389" lon="13.54162089702287"><ele>265.0</ele><time>2026-04-18T07:52:09Z</time></trkpt><trkpt lat="41.68949777763539" lon="13.54198237726998"><ele>267.5</ele><time>2026-04-18T07:52:10Z</time></trkpt><trkpt lat="41.68963299980356" lon="13.542344985643854"><ele>270.0</ele><time>2026-04-18T07:52:11Z</time></trkpt><trkpt lat="41.68976822337785" lon="13.542706179303444"><ele>269.0</ele><time>2026-04-18T07:52:12Z</time></trkpt><trkpt lat="41.689901361803095" lon="13.543069625871855"><ele>268.0</ele><time>2026-04-18T07:52:13Z</time></trkpt><trkpt lat="41.6900326178126" lon="13.543435187460473"><ele>267.5</ele><time>2026-04-18T07:52:14Z</time></trkpt><trkpt lat="41.69016694285162" lon="13.543794790462186"><ele>267.0</ele><time>2026-04-18T07:52:15Z</time></trkpt><trkpt lat="41.69031034281442" lon="13.5441507973413"><ele>265.0</ele><time>2026-04-18T07:52:16Z</time></trkpt><trkpt lat="41.69046718021897" lon="13.544497964581831"><ele>263.0</ele><time>2026-04-18T07:52:17Z</time></trkpt><trkpt lat="41.690630209433" lon="13.544842437545002"><ele>260.5</ele><time>2026-04-18T07:52:18Z</time></trkpt><trkpt lat="41.690800770613514" lon="13.54517639035736"><ele>258.0</ele><time>2026-04-18T07:52:19Z</time></trkpt><trkpt lat="41.690979977653406" lon="13.545501212089059"><ele>259.5</ele><time>2026-04-18T07:52:20Z</time></trkpt><trkpt lat="41.691164870131566" lon="13.54581557299142"><ele>261.0</ele><time>2026-04-18T07:52:21Z</time></trkpt><trkpt lat="41.69136034288038" lon="13.546118922559348"><ele>263.0</ele><time>2026-04-18T07:52:22Z</time></trkpt><trkpt lat="41.69156101397178" lon="13.546415372284551"><ele>265.0</ele><time>2026-04-18T07:52:23Z</time></trkpt><trkpt lat="41.691765444525" lon="13.546705059405955"><ele>265.5</ele><time>2026-04-18T07:52:24Z</time></trkpt><trkpt lat="41.69197686799552" lon="13.54698531557999"><ele>266.0</ele><time>2026-04-18T07:52:24.999Z</time></trkpt><trkpt lat="41.69219797974846" lon="13.547252043041643"><ele>269.0</ele><time>2026-04-18T07:52:25.999Z</time></trkpt><trkpt lat="41.6924255076463" lon="13.547510321532133"><ele>272.0</ele><time>2026-04-18T07:52:26.999Z</time></trkpt><trkpt lat="41.69265346524394" lon="13.547765191593637"><ele>273.5</ele><time>2026-04-18T07:52:27.999Z</time></trkpt><trkpt lat="41.692880766854195" lon="13.548018144486685"><ele>275.0</ele><time>2026-04-18T07:52:28.999Z</time></trkpt><trkpt lat="41.69310550227091" lon="13.548273531679735"><ele>275.0</ele><time>2026-04-18T07:52:29.999Z</time></trkpt><trkpt lat="41.69332811286212" lon="13.548527257123038"><ele>275.0</ele><time>2026-04-18T07:52:30.999Z</time></trkpt><trkpt lat="41.69355331756568" lon="13.54878733666427"><ele>277.0</ele><time>2026-04-18T07:52:31.999Z</time></trkpt><trkpt lat="41.693786631354996" lon="13.54905174336693"><ele>279.0</ele><time>2026-04-18T07:52:32.999Z</time></trkpt><trkpt lat="41.69402838523884" lon="13.549322875499772"><ele>281.5</ele><time>2026-04-18T07:52:33.999Z</time></trkpt><trkpt lat="41.69427590489372" lon="13.549600444047456"><ele>284.0</ele><time>2026-04-18T07:52:34.999Z</time></trkpt><trkpt lat="41.69453289902391" lon="13.549889188801034"><ele>285.5</ele><time>2026-04-18T07:52:35.999Z</time></trkpt><trkpt lat="41.69480002029495" lon="13.550187737523576"><ele>287.0</ele><time>2026-04-18T07:52:36.999Z</time></trkpt><trkpt lat="41.69507412122248" lon="13.550493348717689"><ele>290.5</ele><time>2026-04-18T07:52:37.999Z</time></trkpt><trkpt lat="41.69535615585727" lon="13.550802784052156"><ele>294.0</ele><time>2026-04-18T07:52:38.999Z</time></trkpt><trkpt lat="41.69564496544511" lon="13.551124152480485"><ele>293.0</ele><time>2026-04-18T07:52:39.999Z</time></trkpt><trkpt lat="41.69593239410001" lon="13.55145765423645"><ele>292.0</ele><time>2026-04-18T07:52:40.999Z</time></trkpt><trkpt lat="41.69622588174348" lon="13.551791697536892"><ele>294.0</ele><time>2026-04-18T07:52:41.999Z</time></trkpt><trkpt lat="41.69652896542404" lon="13.552128744532682"><ele>296.0</ele><time>2026-04-18T07:52:42.999Z</time></trkpt><trkpt lat="41.69683798313082" lon="13.552466097482307"><ele>298.5</ele><time>2026-04-18T07:52:43.999Z</time></trkpt><trkpt lat="41.697157795482575" lon="13.552795764727518"><ele>301.0</ele><time>2026-04-18T07:52:44.999Z</time></trkpt><trkpt lat="41.697491205905045" lon="13.553117246582577"><ele>302.5</ele><time>2026-04-18T07:52:45.999Z</time></trkpt><trkpt lat="41.69782590714131" lon="13.553429152422646"><ele>304.0</ele><time>2026-04-18T07:52:46.999Z</time></trkpt><trkpt lat="41.698123872878895" lon="13.55370349428154"><ele>305.0</ele><time>2026-04-18T07:52:47.999Z</time></trkpt><trkpt lat="41.69841196649521" lon="13.55396080369765"><ele>306.0</ele><time>2026-04-18T07:52:48.999Z</time></trkpt><trkpt lat="41.69869665134937" lon="13.554205907763789"><ele>309.0</ele><time>2026-04-18T07:52:49.999Z</time></trkpt><trkpt lat="41.698974793131846" lon="13.55444470112572"><ele>312.0</ele><time>2026-04-18T07:52:50.999Z</time></trkpt><trkpt lat="41.69924984361414" lon="13.55467131415351"><ele>314.0</ele><time>2026-04-18T07:52:51.999Z</time></trkpt><trkpt lat="41.69951959793667" lon="13.55487246267563"><ele>316.0</ele><time>2026-04-18T07:52:52.999Z</time></trkpt><trkpt lat="41.6997655081915" lon="13.555051240416624"><ele>316.0</ele><time>2026-04-18T07:52:53.999Z</time></trkpt><trkpt lat="41.699992661586876" lon="13.555222179948435"><ele>316.0</ele><time>2026-04-18T07:52:54.999Z</time></trkpt><trkpt lat="41.700205050462856" lon="13.555391224519395"><ele>313.5</ele><time>2026-04-18T07:52:55.999Z</time></trkpt><trkpt lat="41.70040756884288" lon="13.555553968215198"><ele>311.0</ele><time>2026-04-18T07:52:56.999Z</time></trkpt><trkpt lat="41.70059712960406" lon="13.555715949642705"><ele>311.0</ele><time>2026-04-18T07:52:57.999Z</time></trkpt><trkpt lat="41.700775335071604" lon="13.5558674101178"><ele>311.0</ele><time>2026-04-18T07:52:58.999Z</time></trkpt><trkpt lat="41.70094316974176" lon="13.556012377777062"><ele>311.0</ele><time>2026-04-18T07:52:59.999Z</time></trkpt><trkpt lat="41.70110335643836" lon="13.55615547612115"><ele>311.6666666666667</ele><time>2026-04-18T07:53:00.999Z</time></trkpt><trkpt lat="41.70125428632105" lon="13.556287866573904"><ele>312.3333333333333</ele><time>2026-04-18T07:53:01.999Z</time></trkpt><trkpt lat="41.7013933063514" lon="13.556416071381053"><ele>313.0</ele><time>2026-04-18T07:53:02.999Z</time></trkpt><trkpt lat="41.70152405696481" lon="13.556548951462164"><ele>313.0</ele><time>2026-04-18T07:53:03.999Z</time></trkpt><trkpt lat="41.701658827553175" lon="13.556690790370634"><ele>313.0</ele><time>2026-04-18T07:53:04.999Z</time></trkpt><trkpt lat="41.70178730698426" lon="13.556834832433491"><ele>313.0</ele><time>2026-04-18T07:53:05.999Z</time></trkpt><trkpt lat="41.70190892976798" lon="13.556994726048293"><ele>311.0</ele><time>2026-04-18T07:53:06.999Z</time></trkpt><trkpt lat="41.70202305940706" lon="13.557158727592418"><ele>309.0</ele><time>2026-04-18T07:53:07.999Z</time></trkpt><trkpt lat="41.70212858988051" lon="13.557320995394303"><ele>307.0</ele><time>2026-04-18T07:53:08.999Z</time></trkpt><trkpt lat="41.70222051278726" lon="13.55747848246532"><ele>307.0</ele><time>2026-04-18T07:53:09.999Z</time></trkpt><trkpt lat="41.70230798913753" lon="13.557631511251655"><ele>307.0</ele><time>2026-04-18T07:53:10.999Z</time></trkpt><trkpt lat="41.70238982352005" lon="13.557779479040462"><ele>307.0</ele><time>2026-04-18T07:53:11.999Z</time></trkpt><trkpt lat="41.7024634655965" lon="13.557927921475995"><ele>307.0</ele><time>2026-04-18T07:53:12.999Z</time></trkpt><trkpt lat="41.70253325588239" lon="13.558081620883765"><ele>307.0</ele><time>2026-04-18T07:53:13.999Z</time></trkpt><trkpt lat="41.702600928623724" lon="13.558245160537316"><ele>307.0</ele><time>2026-04-18T07:53:14.999Z</time></trkpt><trkpt lat="41.702664913090295" lon="13.558417615763425"><ele>307.0</ele><time>2026-04-18T07:53:15.999Z</time></trkpt><trkpt lat="41.70272840303796" lon="13.55859733190422"><ele>307.0</ele><time>2026-04-18T07:53:16.999Z</time></trkpt><trkpt lat="41.702781868020836" lon="13.558788464847078"><ele>303.75</ele><time>2026-04-18T07:53:17.999Z</time></trkpt><trkpt lat="41.70283469602145" lon="13.558978227189238"><ele>300.5</ele><time>2026-04-18T07:53:18.999Z</time></trkpt><trkpt lat="41.70287333047876" lon="13.559161946483194"><ele>297.25</ele><time>2026-04-18T07:53:19.999Z</time></trkpt><trkpt lat="41.702900348019334" lon="13.55934761877524"><ele>294.0</ele><time>2026-04-18T07:53:20.999Z</time></trkpt><trkpt lat="41.70290983322978" lon="13.559526754899505"><ele>292.5</ele><time>2026-04-18T07:53:21.999Z</time></trkpt><trkpt lat="41.702888340276544" lon="13.559694469803977"><ele>291.0</ele><time>2026-04-18T07:53:22.999Z</time></trkpt><trkpt lat="41.702858761537726" lon="13.559854791878593"><ele>289.5</ele><time>2026-04-18T07:53:23.999Z</time></trkpt><trkpt lat="41.70281730333339" lon="13.560003124233747"><ele>288.0</ele><time>2026-04-18T07:53:24.999Z</time></trkpt><trkpt lat="41.70276027089991" lon="13.560141668508402"><ele>287.25</ele><time>2026-04-18T07:53:25.999Z</time></trkpt><trkpt lat="41.702687025843765" lon="13.560276412021746"><ele>286.5</ele><time>2026-04-18T07:53:26.999Z</time></trkpt><trkpt lat="41.70260410452867" lon="13.5604016393914"><ele>285.75</ele><time>2026-04-18T07:53:27.999Z</time></trkpt><trkpt lat="41.70252800496456" lon="13.560523134254607"><ele>285.0</ele><time>2026-04-18T07:53:28.999Z</time></trkpt><trkpt lat="41.702468925169846" lon="13.560631373007203"><ele>285.0</ele><time>2026-04-18T07:53:29.999Z</time></trkpt><trkpt lat="41.70242007184053" lon="13.560726589294125"><ele>285.0</ele><time>2026-04-18T07:53:30.999Z</time></trkpt><trkpt lat="41.70238533231481" lon="13.56080940326858"><ele>285.0</ele><time>2026-04-18T07:53:31.999Z</time></trkpt><trkpt lat="41.70234986648069" lon="13.560893246183685"><ele>285.0</ele><time>2026-04-18T07:53:32.999Z</time></trkpt><trkpt lat="41.70229109440119" lon="13.561021660649581"><ele>285.0</ele><time>2026-04-18T07:53:34.999Z</time></trkpt><trkpt lat="41.70223139156627" lon="13.561131579509398"><ele>285.0</ele><time>2026-04-18T07:53:36.999Z</time></trkpt><trkpt lat="41.70213981512122" lon="13.56126469349992"><ele>284.3333333333333</ele><time>2026-04-18T07:53:38.999Z</time></trkpt><trkpt lat="41.70208006963017" lon="13.561343017260974"><ele>283.6666666666667</ele><time>2026-04-18T07:53:39.999Z</time></trkpt><trkpt lat="41.702027611205416" lon="13.561416998985472"><ele>283.0</ele><time>2026-04-18T07:53:40.999Z</time></trkpt><trkpt lat="41.70198699139801" lon="13.561482848795182"><ele>282.33333333333337</ele><time>2026-04-18T07:53:41.999Z</time></trkpt><trkpt lat="41.701931891178134" lon="13.56159734876853"><ele>281.6666666666667</ele><time>2026-04-18T07:53:43.999Z</time></trkpt><trkpt lat="41.701907522636425" lon="13.561681018536424"><ele>281.0</ele><time>2026-04-18T07:53:44.999Z</time></trkpt><trkpt lat="41.70188344244118" lon="13.561772811016159"><ele>281.0</ele><time>2026-04-18T07:53:45.999Z</time></trkpt><trkpt lat="41.701852542506046" lon="13.561873080070395"><ele>281.0</ele><time>2026-04-18T07:53:46.999Z</time></trkpt><trkpt lat="41.70181345514185" lon="13.561989501476445"><ele>281.0</ele><time>2026-04-18T07:53:47.999Z</time></trkpt><trkpt lat="41.701763669004976" lon="13.562109305210232"><ele>281.0</ele><time>2026-04-18T07:53:48.999Z</time></trkpt><trkpt lat="41.70170995597745" lon="13.562237641910754"><ele>281.0</ele><time>2026-04-18T07:53:49.999Z</time></trkpt><trkpt lat="41.701648427184516" lon="13.562372623186585"><ele>280.0</ele><time>2026-04-18T07:53:50.999Z</time></trkpt><trkpt lat="41.7015727243779" lon="13.56251820676314"><ele>279.0</ele><time>2026-04-18T07:53:51.999Z</time></trkpt><trkpt lat="41.701487926610234" lon="13.562663637898629"><ele>278.0</ele><time>2026-04-18T07:53:52.999Z</time></trkpt><trkpt lat="41.701397982687055" lon="13.562814251830137"><ele>277.0</ele><time>2026-04-18T07:53:53.999Z</time></trkpt><trkpt lat="41.701299926955265" lon="13.562961310563193"><ele>276.5</ele><time>2026-04-18T07:53:54.999Z</time></trkpt><trkpt lat="41.70119353159726" lon="13.563102633817389"><ele>276.0</ele><time>2026-04-18T07:53:55.999Z</time></trkpt><trkpt lat="41.70108962111571" lon="13.563240441448288"><ele>275.5</ele><time>2026-04-18T07:53:56.999Z</time></trkpt><trkpt lat="41.70097959100187" lon="13.563372598474102"><ele>275.0</ele><time>2026-04-18T07:53:57.999Z</time></trkpt><trkpt lat="41.70086788049933" lon="13.563494462669338"><ele>275.0</ele><time>2026-04-18T07:53:58.999Z</time></trkpt><trkpt lat="41.7007579120157" lon="13.563604366162492"><ele>275.0</ele><time>2026-04-18T07:53:59.999Z</time></trkpt><trkpt lat="41.70064903695033" lon="13.563705006093306"><ele>275.0</ele><time>2026-04-18T07:54:00.999Z</time></trkpt><trkpt lat="41.70054461711075" lon="13.563803697107382"><ele>275.0</ele><time>2026-04-18T07:54:01.999Z</time></trkpt><trkpt lat="41.7004459070803" lon="13.563890581709245"><ele>274.4</ele><time>2026-04-18T07:54:02.999Z</time></trkpt><trkpt lat="41.70035295589948" lon="13.56396687197777"><ele>273.8</ele><time>2026-04-18T07:54:03.999Z</time></trkpt><trkpt lat="41.70026719413301" lon="13.564039393128658"><ele>273.2</ele><time>2026-04-18T07:54:04.999Z</time></trkpt><trkpt lat="41.70018842580462" lon="13.56409973547916"><ele>272.6</ele><time>2026-04-18T07:54:06Z</time></trkpt><trkpt lat="41.700116066376175" lon="13.564158327750219"><ele>272.0</ele><time>2026-04-18T07:54:07Z</time></trkpt><trkpt lat="41.70005347592973" lon="13.564209027248971"><ele>272.0</ele><time>2026-04-18T07:54:08Z</time></trkpt><trkpt lat="41.699998690090894" lon="13.564256989206566"><ele>272.0</ele><time>2026-04-18T07:54:09Z</time></trkpt><trkpt lat="41.69993059503349" lon="13.564384415388991"><ele>272.0</ele><time>2026-04-18T07:54:11Z</time></trkpt><trkpt lat="41.699927627936106" lon="13.564469980745466"><ele>272.0</ele><time>2026-04-18T07:54:12Z</time></trkpt><trkpt lat="41.699960588389274" lon="13.56457484367849"><ele>272.0</ele><time>2026-04-18T07:54:13Z</time></trkpt><trkpt lat="41.70001380444257" lon="13.564694310825834"><ele>272.0</ele><time>2026-04-18T07:54:14Z</time></trkpt><trkpt lat="41.70006692927654" lon="13.564834790561925"><ele>271.5</ele><time>2026-04-18T07:54:15Z</time></trkpt><trkpt lat="41.70012106553728" lon="13.564992230723641"><ele>271.0</ele><time>2026-04-18T07:54:16Z</time></trkpt><trkpt lat="41.70017614129022" lon="13.565151828862392"><ele>270.5</ele><time>2026-04-18T07:54:17Z</time></trkpt><trkpt lat="41.70023461518029" lon="13.565323005880067"><ele>270.0</ele><time>2026-04-18T07:54:18Z</time></trkpt><trkpt lat="41.70029871855162" lon="13.565508382930497"><ele>270.0</ele><time>2026-04-18T07:54:19Z</time></trkpt><trkpt lat="41.70036698696207" lon="13.565706095808961"><ele>270.0</ele><time>2026-04-18T07:54:20Z</time></trkpt><trkpt lat="41.70043766648057" lon="13.565912443943914"><ele>270.0</ele><time>2026-04-18T07:54:21Z</time></trkpt><trkpt lat="41.70050735432136" lon="13.566123263473763"><ele>270.3333333333333</ele><time>2026-04-18T07:54:22Z</time></trkpt><trkpt lat="41.70058530136586" lon="13.566332806493273"><ele>270.66666666666663</ele><time>2026-04-18T07:54:23Z</time></trkpt><trkpt lat="41.70067277526" lon="13.56653509353359"><ele>271.0</ele><time>2026-04-18T07:54:24Z</time></trkpt><trkpt lat="41.70075917163572" lon="13.566712414167533"><ele>271.0</ele><time>2026-04-18T07:54:25Z</time></trkpt><trkpt lat="41.70084347785099" lon="13.566865926777693"><ele>271.0</ele><time>2026-04-18T07:54:25.999Z</time></trkpt><trkpt lat="41.70092788903078" lon="13.567011442201226"><ele>271.0</ele><time>2026-04-18T07:54:26.999Z</time></trkpt><trkpt lat="41.701023036778196" lon="13.5671697311433"><ele>271.0</ele><time>2026-04-18T07:54:27.999Z</time></trkpt><trkpt lat="41.70112015117686" lon="13.567339155376649"><ele>271.0</ele><time>2026-04-18T07:54:28.999Z</time></trkpt><trkpt lat="41.70122867331268" lon="13.567512701485285"><ele>271.0</ele><time>2026-04-18T07:54:29.999Z</time></trkpt><trkpt lat="41.701350838925435" lon="13.567684034311519"><ele>271.0</ele><time>2026-04-18T07:54:30.999Z</time></trkpt><trkpt lat="41.701484023559445" lon="13.567846804347086"><ele>270.66666666666663</ele><time>2026-04-18T07:54:31.999Z</time></trkpt><trkpt lat="41.70162795874486" lon="13.568006379741723"><ele>270.3333333333333</ele><time>2026-04-18T07:54:32.999Z</time></trkpt><trkpt lat="41.70178257175776" lon="13.568162924670355"><ele>270.0</ele><time>2026-04-18T07:54:33.999Z</time></trkpt><trkpt lat="41.70194686223621" lon="13.568310413186802"><ele>269.6666666666667</ele><time>2026-04-18T07:54:34.999Z</time></trkpt><trkpt lat="41.70212117677932" lon="13.568441656903694"><ele>269.33333333333337</ele><time>2026-04-18T07:54:35.999Z</time></trkpt><trkpt lat="41.70230705339783" lon="13.568556609020856"><ele>269.0</ele><time>2026-04-18T07:54:36.999Z</time></trkpt><trkpt lat="41.70248962567049" lon="13.568664561528184"><ele>268.6666666666667</ele><time>2026-04-18T07:54:37.999Z</time></trkpt><trkpt lat="41.70265160651635" lon="13.568760091711749"><ele>268.3333333333333</ele><time>2026-04-18T07:54:38.999Z</time></trkpt><trkpt lat="41.70279232410346" lon="13.56886314767034"><ele>268.0</ele><time>2026-04-18T07:54:39.999Z</time></trkpt><trkpt lat="41.70291486669169" lon="13.568971896702001"><ele>268.0</ele><time>2026-04-18T07:54:40.999Z</time></trkpt><trkpt lat="41.70304226825116" lon="13.56909012395616"><ele>268.0</ele><time>2026-04-18T07:54:41.999Z</time></trkpt><trkpt lat="41.70317312464182" lon="13.569233028587208"><ele>268.0</ele><time>2026-04-18T07:54:42.999Z</time></trkpt><trkpt lat="41.70330789072624" lon="13.56941413490098"><ele>268.66666666666663</ele><time>2026-04-18T07:54:43.999Z</time></trkpt><trkpt lat="41.703433296246" lon="13.569622959798217"><ele>269.3333333333333</ele><time>2026-04-18T07:54:44.999Z</time></trkpt><trkpt lat="41.703551294099555" lon="13.56985023267611"><ele>270.0</ele><time>2026-04-18T07:54:45.999Z</time></trkpt><trkpt lat="41.70368277134461" lon="13.570082277897809"><ele>270.6666666666667</ele><time>2026-04-18T07:54:46.999Z</time></trkpt><trkpt lat="41.703816586501404" lon="13.570315111401635"><ele>271.33333333333337</ele><time>2026-04-18T07:54:47.999Z</time></trkpt><trkpt lat="41.7039315243465" lon="13.57052935118885"><ele>272.0</ele><time>2026-04-18T07:54:48.999Z</time></trkpt><trkpt lat="41.70403948174179" lon="13.570724421546684"><ele>272.0</ele><time>2026-04-18T07:54:49.999Z</time></trkpt><trkpt lat="41.70413793358929" lon="13.570906371186599"><ele>272.0</ele><time>2026-04-18T07:54:50.999Z</time></trkpt><trkpt lat="41.70422895947769" lon="13.571076721395155"><ele>272.0</ele><time>2026-04-18T07:54:51.999Z</time></trkpt><trkpt lat="41.7043173237381" lon="13.571241990594709"><ele>272.0</ele><time>2026-04-18T07:54:52.999Z</time></trkpt><trkpt lat="41.70441276404828" lon="13.57142108717872"><ele>272.0</ele><time>2026-04-18T07:54:53.999Z</time></trkpt><trkpt lat="41.7045146725389" lon="13.571606191224138"><ele>272.0</ele><time>2026-04-18T07:54:54.999Z</time></trkpt><trkpt lat="41.704617733602994" lon="13.57179011325769"><ele>272.0</ele><time>2026-04-18T07:54:55.999Z</time></trkpt><trkpt lat="41.70470889453943" lon="13.571961486063696"><ele>272.0</ele><time>2026-04-18T07:54:56.999Z</time></trkpt><trkpt lat="41.704795052697406" lon="13.572121078693813"><ele>272.0</ele><time>2026-04-18T07:54:57.999Z</time></trkpt><trkpt lat="41.70487489152157" lon="13.57226373257307"><ele>272.0</ele><time>2026-04-18T07:54:58.999Z</time></trkpt><trkpt lat="41.704942414866565" lon="13.57239152773422"><ele>272.0</ele><time>2026-04-18T07:54:59.999Z</time></trkpt><trkpt lat="41.70499500702137" lon="13.572504612796344"><ele>272.0</ele><time>2026-04-18T07:55:00.999Z</time></trkpt><trkpt lat="41.70502675371312" lon="13.57261108567986"><ele>272.0</ele><time>2026-04-18T07:55:01.999Z</time></trkpt><trkpt lat="41.70505620764346" lon="13.572700012972938"><ele>272.0</ele><time>2026-04-18T07:55:02.999Z</time></trkpt><trkpt lat="41.7050978894344" lon="13.572792451917323"><ele>272.0</ele><time>2026-04-18T07:55:03.999Z</time></trkpt><trkpt lat="41.705125578326935" lon="13.572922834602462"><ele>272.0</ele><time>2026-04-18T07:55:04.999Z</time></trkpt><trkpt lat="41.705269441180114" lon="13.573008597040523"><ele>271.6666666666667</ele><time>2026-04-18T07:55:05.999Z</time></trkpt><trkpt lat="41.705357145001805" lon="13.573172978556975"><ele>271.3333333333333</ele><time>2026-04-18T07:55:06.999Z</time></trkpt><trkpt lat="41.70545022212196" lon="13.573353813220384"><ele>271.0</ele><time>2026-04-18T07:55:07.999Z</time></trkpt><trkpt lat="41.705542658614554" lon="13.573538143328655"><ele>270.66666666666663</ele><time>2026-04-18T07:55:08.999Z</time></trkpt><trkpt lat="41.705639645472154" lon="13.573727122568922"><ele>270.3333333333333</ele><time>2026-04-18T07:55:09.999Z</time></trkpt><trkpt lat="41.70573859965086" lon="13.573922822108964"><ele>270.0</ele><time>2026-04-18T07:55:10.999Z</time></trkpt><trkpt lat="41.70583486296377" lon="13.574128179300446"><ele>270.0</ele><time>2026-04-18T07:55:11.999Z</time></trkpt><trkpt lat="41.70593225292821" lon="13.574342036564888"><ele>270.0</ele><time>2026-04-18T07:55:12.999Z</time></trkpt><trkpt lat="41.706032031106155" lon="13.574555366857652"><ele>270.0</ele><time>2026-04-18T07:55:13.999Z</time></trkpt><trkpt lat="41.7061304331363" lon="13.574770123116"><ele>270.0</ele><time>2026-04-18T07:55:14.999Z</time></trkpt><trkpt lat="41.70622766901249" lon="13.574986516165664"><ele>270.0</ele><time>2026-04-18T07:55:15.999Z</time></trkpt><trkpt lat="41.7063208524936" lon="13.575198514913648"><ele>270.0</ele><time>2026-04-18T07:55:16.999Z</time></trkpt><trkpt lat="41.706420327687766" lon="13.575406575421042"><ele>270.0</ele><time>2026-04-18T07:55:17.999Z</time></trkpt><trkpt lat="41.70653414130406" lon="13.575600512275557"><ele>270.0</ele><time>2026-04-18T07:55:18.999Z</time></trkpt><trkpt lat="41.70666253764202" lon="13.575780707059726"><ele>270.0</ele><time>2026-04-18T07:55:19.999Z</time></trkpt><trkpt lat="41.70680076202546" lon="13.57592507282451"><ele>270.0</ele><time>2026-04-18T07:55:20.999Z</time></trkpt><trkpt lat="41.70693647146998" lon="13.57603083780335"><ele>270.0</ele><time>2026-04-18T07:55:21.999Z</time></trkpt><trkpt lat="41.7070714545762" lon="13.576102089042559"><ele>270.0</ele><time>2026-04-18T07:55:22.999Z</time></trkpt><trkpt lat="41.70718528694652" lon="13.576147900429548"><ele>270.0</ele><time>2026-04-18T07:55:23.999Z</time></trkpt><trkpt lat="41.70727180437354" lon="13.576181571217235"><ele>270.0</ele><time>2026-04-18T07:55:24.999Z</time></trkpt><trkpt lat="41.70734151106366" lon="13.576224698261802"><ele>270.0</ele><time>2026-04-18T07:55:25.999Z</time></trkpt><trkpt lat="41.70740539419734" lon="13.576262922651473"><ele>270.0</ele><time>2026-04-18T07:55:26.999Z</time></trkpt><trkpt lat="41.70748186307181" lon="13.57628178042207"><ele>270.0</ele><time>2026-04-18T07:55:27.999Z</time></trkpt><trkpt lat="41.70756751024266" lon="13.576261576518675"><ele>270.0</ele><time>2026-04-18T07:55:28.999Z</time></trkpt><trkpt lat="41.70765144504832" lon="13.576210680879255"><ele>270.0</ele><time>2026-04-18T07:55:29.999Z</time></trkpt><trkpt lat="41.70774677263427" lon="13.57616983894524"><ele>270.0</ele><time>2026-04-18T07:55:30.999Z</time></trkpt><trkpt lat="41.70785538335697" lon="13.576165275680516"><ele>270.0</ele><time>2026-04-18T07:55:31.999Z</time></trkpt><trkpt lat="41.70798145813245" lon="13.576193623096374"><ele>270.0</ele><time>2026-04-18T07:55:32.999Z</time></trkpt><trkpt lat="41.70811879404896" lon="13.576248459142343"><ele>270.0</ele><time>2026-04-18T07:55:33.999Z</time></trkpt><trkpt lat="41.708254511761986" lon="13.576303162511094"><ele>270.3333333333333</ele><time>2026-04-18T07:55:34.999Z</time></trkpt><trkpt lat="41.70838736748501" lon="13.576380750856087"><ele>270.66666666666663</ele><time>2026-04-18T07:55:35.999Z</time></trkpt><trkpt lat="41.70851309934942" lon="13.57649975606413"><ele>271.0</ele><time>2026-04-18T07:55:36.999Z</time></trkpt><trkpt lat="41.708633320430195" lon="13.576645009161942"><ele>271.0</ele><time>2026-04-18T07:55:37.999Z</time></trkpt><trkpt lat="41.70874534347647" lon="13.576802731870519"><ele>271.0</ele><time>2026-04-18T07:55:38.999Z</time></trkpt><trkpt lat="41.70883541609507" lon="13.576983430363988"><ele>271.0</ele><time>2026-04-18T07:55:39.999Z</time></trkpt><trkpt lat="41.708908670292" lon="13.57717407366686"><ele>272.0</ele><time>2026-04-18T07:55:40.999Z</time></trkpt><trkpt lat="41.70896325270444" lon="13.577374900795176"><ele>273.0</ele><time>2026-04-18T07:55:41.999Z</time></trkpt><trkpt lat="41.70900015835725" lon="13.577589121869858"><ele>274.0</ele><time>2026-04-18T07:55:42.999Z</time></trkpt><trkpt lat="41.70900817593052" lon="13.577811127343754"><ele>273.3333333333333</ele><time>2026-04-18T07:55:43.999Z</time></trkpt><trkpt lat="41.70899966879076" lon="13.578031644181962"><ele>272.6666666666667</ele><time>2026-04-18T07:55:44.999Z</time></trkpt><trkpt lat="41.708958331380444" lon="13.57824860692118"><ele>272.0</ele><time>2026-04-18T07:55:45.999Z</time></trkpt><trkpt lat="41.70889737145507" lon="13.578457247292837"><ele>272.0</ele><time>2026-04-18T07:55:46.999Z</time></trkpt><trkpt lat="41.70882137933527" lon="13.578671288242786"><ele>272.0</ele><time>2026-04-18T07:55:47.999Z</time></trkpt><trkpt lat="41.7087390788314" lon="13.578874060304946"><ele>272.0</ele><time>2026-04-18T07:55:48.999Z</time></trkpt><trkpt lat="41.70865120029351" lon="13.579074247891977"><ele>272.0</ele><time>2026-04-18T07:55:49.999Z</time></trkpt><trkpt lat="41.70856942310597" lon="13.579280869682336"><ele>272.0</ele><time>2026-04-18T07:55:50.999Z</time></trkpt><trkpt lat="41.70848469121659" lon="13.579491199490104"><ele>272.0</ele><time>2026-04-18T07:55:51.999Z</time></trkpt><trkpt lat="41.70839782465719" lon="13.579705232915954"><ele>271.6666666666667</ele><time>2026-04-18T07:55:52.999Z</time></trkpt><trkpt lat="41.70831093536773" lon="13.579918271203292"><ele>271.3333333333333</ele><time>2026-04-18T07:55:53.999Z</time></trkpt><trkpt lat="41.70822126234108" lon="13.580135016768985"><ele>271.0</ele><time>2026-04-18T07:55:54.999Z</time></trkpt><trkpt lat="41.708130403661144" lon="13.58035464921105"><ele>270.66666666666663</ele><time>2026-04-18T07:55:55.999Z</time></trkpt><trkpt lat="41.708042371348284" lon="13.580577562593449"><ele>270.3333333333333</ele><time>2026-04-18T07:55:56.999Z</time></trkpt><trkpt lat="41.70794967397884" lon="13.580800000056122"><ele>270.0</ele><time>2026-04-18T07:55:57.999Z</time></trkpt><trkpt lat="41.70785160082514" lon="13.58102495395824"><ele>270.3333333333333</ele><time>2026-04-18T07:55:58.999Z</time></trkpt><trkpt lat="41.7077628857335" lon="13.58125954113798"><ele>270.66666666666663</ele><time>2026-04-18T07:55:59.999Z</time></trkpt><trkpt lat="41.70766972852535" lon="13.581490410282152"><ele>271.0</ele><time>2026-04-18T07:56:00.999Z</time></trkpt><trkpt lat="41.70757380462095" lon="13.581720389646549"><ele>271.0</ele><time>2026-04-18T07:56:01.999Z</time></trkpt><trkpt lat="41.70747849159195" lon="13.581953498518187"><ele>271.0</ele><time>2026-04-18T07:56:02.999Z</time></trkpt><trkpt lat="41.707382438290814" lon="13.582183391304708"><ele>271.0</ele><time>2026-04-18T07:56:03.999Z</time></trkpt><trkpt lat="41.70728786005539" lon="13.582412176494039"><ele>270.66666666666663</ele><time>2026-04-18T07:56:04.999Z</time></trkpt><trkpt lat="41.70719639586218" lon="13.58263835305497"><ele>270.3333333333333</ele><time>2026-04-18T07:56:05.999Z</time></trkpt><trkpt lat="41.707102260620786" lon="13.582866727857995"><ele>270.0</ele><time>2026-04-18T07:56:06.999Z</time></trkpt><trkpt lat="41.70700799781983" lon="13.583097124484462"><ele>270.0</ele><time>2026-04-18T07:56:07.999Z</time></trkpt><trkpt lat="41.70691278429443" lon="13.583328305572682"><ele>270.0</ele><time>2026-04-18T07:56:08.999Z</time></trkpt><trkpt lat="41.70681590555083" lon="13.583562011361671"><ele>270.0</ele><time>2026-04-18T07:56:09.999Z</time></trkpt><trkpt lat="41.706718882049586" lon="13.583792950283199"><ele>270.3333333333333</ele><time>2026-04-18T07:56:10.999Z</time></trkpt><trkpt lat="41.706624546264976" lon="13.584017847299576"><ele>270.66666666666663</ele><time>2026-04-18T07:56:12Z</time></trkpt><trkpt lat="41.7065307243263" lon="13.584241692269195"><ele>271.0</ele><time>2026-04-18T07:56:13Z</time></trkpt><trkpt lat="41.70643447452089" lon="13.584462400282455"><ele>271.66666666666663</ele><time>2026-04-18T07:56:14Z</time></trkpt><trkpt lat="41.70633531328144" lon="13.584677552833902"><ele>272.3333333333333</ele><time>2026-04-18T07:56:15Z</time></trkpt><trkpt lat="41.706234579801446" lon="13.584894769928521"><ele>273.0</ele><time>2026-04-18T07:56:16.001Z</time></trkpt><trkpt lat="41.706128752311905" lon="13.585119247587302"><ele>272.0</ele><time>2026-04-18T07:56:17.001Z</time></trkpt><trkpt lat="41.70601901406523" lon="13.585345074772253"><ele>271.0</ele><time>2026-04-18T07:56:18.001Z</time></trkpt><trkpt lat="41.70590305718013" lon="13.585573536123302"><ele>270.0</ele><time>2026-04-18T07:56:19.001Z</time></trkpt><trkpt lat="41.70578645747111" lon="13.585805211681661"><ele>270.0</ele><time>2026-04-18T07:56:20.001Z</time></trkpt><trkpt lat="41.705665181615295" lon="13.586036540811381"><ele>270.0</ele><time>2026-04-18T07:56:21.001Z</time></trkpt><trkpt lat="41.70554024403476" lon="13.586262677035421"><ele>270.0</ele><time>2026-04-18T07:56:22.001Z</time></trkpt><trkpt lat="41.70541714964521" lon="13.586488390604924"><ele>270.3333333333333</ele><time>2026-04-18T07:56:23.001Z</time></trkpt><trkpt lat="41.70529110948647" lon="13.586708971434414"><ele>270.66666666666663</ele><time>2026-04-18T07:56:24.001Z</time></trkpt><trkpt lat="41.705166370879" lon="13.586927178158897"><ele>271.0</ele><time>2026-04-18T07:56:25.001Z</time></trkpt><trkpt lat="41.70504107584899" lon="13.587142412217174"><ele>271.0</ele><time>2026-04-18T07:56:26.001Z</time></trkpt><trkpt lat="41.70491564759204" lon="13.587354547620375"><ele>271.0</ele><time>2026-04-18T07:56:27Z</time></trkpt><trkpt lat="41.70479101498204" lon="13.5875642542515"><ele>271.0</ele><time>2026-04-18T07:56:28Z</time></trkpt><trkpt lat="41.704666814561264" lon="13.587771754582198"><ele>271.0</ele><time>2026-04-18T07:56:29Z</time></trkpt><trkpt lat="41.7045430818657" lon="13.587974745196009"><ele>271.0</ele><time>2026-04-18T07:56:30Z</time></trkpt><trkpt lat="41.704429377641155" lon="13.588167427749653"><ele>271.0</ele><time>2026-04-18T07:56:31Z</time></trkpt><trkpt lat="41.70432281064942" lon="13.58834613451004"><ele>271.0</ele><time>2026-04-18T07:56:32Z</time></trkpt><trkpt lat="41.70422594168981" lon="13.588512581930962"><ele>271.0</ele><time>2026-04-18T07:56:33Z</time></trkpt><trkpt lat="41.70413456844934" lon="13.588664654097956"><ele>271.0</ele><time>2026-04-18T07:56:34Z</time></trkpt><trkpt lat="41.7040491002479" lon="13.588809832379372"><ele>271.0</ele><time>2026-04-18T07:56:35Z</time></trkpt><trkpt lat="41.70397207481651" lon="13.588932743712647"><ele>271.0</ele><time>2026-04-18T07:56:36Z</time></trkpt><trkpt lat="41.70390107138882" lon="13.589043387182441"><ele>271.0</ele><time>2026-04-18T07:56:37Z</time></trkpt><trkpt lat="41.7038356443502" lon="13.589141093187324"><ele>271.0</ele><time>2026-04-18T07:56:38Z</time></trkpt><trkpt lat="41.703777706922104" lon="13.589222106782506"><ele>271.0</ele><time>2026-04-18T07:56:39Z</time></trkpt><trkpt lat="41.70373083516663" lon="13.589284779910901"><ele>271.0</ele><time>2026-04-18T07:56:40Z</time></trkpt><trkpt lat="41.703684187977444" lon="13.589378344225471"><ele>271.0</ele><time>2026-04-18T07:56:42Z</time></trkpt><trkpt lat="41.70362049469618" lon="13.589452205538668"><ele>271.2</ele><time>2026-04-18T07:56:44Z</time></trkpt><trkpt lat="41.70355500346737" lon="13.589518753766916"><ele>271.40000000000003</ele><time>2026-04-18T07:56:46Z</time></trkpt><trkpt lat="41.70355492736477" lon="13.589650608442787"><ele>271.6</ele><time>2026-04-18T07:56:48Z</time></trkpt><trkpt lat="41.703655242506024" lon="13.589781202570494"><ele>271.8</ele><time>2026-04-18T07:56:50Z</time></trkpt><trkpt lat="41.70372632812434" lon="13.589873614882787"><ele>272.0</ele><time>2026-04-18T07:56:51Z</time></trkpt><trkpt lat="41.7037842182601" lon="13.58997097992753"><ele>272.0</ele><time>2026-04-18T07:56:52Z</time></trkpt><trkpt lat="41.703848319673256" lon="13.590077113467993"><ele>272.0</ele><time>2026-04-18T07:56:53Z</time></trkpt><trkpt lat="41.70391598978949" lon="13.590193567543954"><ele>272.0</ele><time>2026-04-18T07:56:54Z</time></trkpt><trkpt lat="41.703995976128965" lon="13.59031169949885"><ele>272.0</ele><time>2026-04-18T07:56:55Z</time></trkpt><trkpt lat="41.704071461963444" lon="13.590440755510308"><ele>272.0</ele><time>2026-04-18T07:56:56Z</time></trkpt><trkpt lat="41.70415465348937" lon="13.59056440589315"><ele>272.0</ele><time>2026-04-18T07:56:57Z</time></trkpt><trkpt lat="41.704236705644085" lon="13.590693897274766"><ele>272.0</ele><time>2026-04-18T07:56:58Z</time></trkpt><trkpt lat="41.70432177893362" lon="13.59082577598507"><ele>272.0</ele><time>2026-04-18T07:56:59Z</time></trkpt><trkpt lat="41.70440799699759" lon="13.590954833282625"><ele>272.25</ele><time>2026-04-18T07:57:00Z</time></trkpt><trkpt lat="41.70448752157748" lon="13.591080257129207"><ele>272.5</ele><time>2026-04-18T07:57:01Z</time></trkpt><trkpt lat="41.70456289967261" lon="13.591201952768612"><ele>272.75</ele><time>2026-04-18T07:57:02Z</time></trkpt><trkpt lat="41.70463537204248" lon="13.591317470228661"><ele>273.0</ele><time>2026-04-18T07:57:03Z</time></trkpt><trkpt lat="41.70470715478872" lon="13.591423788594025"><ele>273.0</ele><time>2026-04-18T07:57:04Z</time></trkpt><trkpt lat="41.704778434754296" lon="13.591525698042307"><ele>273.0</ele><time>2026-04-18T07:57:05Z</time></trkpt><trkpt lat="41.70484734861362" lon="13.591632105667523"><ele>273.0</ele><time>2026-04-18T07:57:06Z</time></trkpt><trkpt lat="41.704908894433686" lon="13.591731078775563"><ele>273.0</ele><time>2026-04-18T07:57:07Z</time></trkpt><trkpt lat="41.70496163197338" lon="13.591815395558747"><ele>273.0</ele><time>2026-04-18T07:57:08Z</time></trkpt><trkpt lat="41.70500675855044" lon="13.591884124225315"><ele>273.0</ele><time>2026-04-18T07:57:09Z</time></trkpt><trkpt lat="41.70505396589513" lon="13.591953245719209"><ele>273.0</ele><time>2026-04-18T07:57:10Z</time></trkpt><trkpt lat="41.70510935788325" lon="13.59203587510613"><ele>273.0</ele><time>2026-04-18T07:57:11Z</time></trkpt><trkpt lat="41.705167139678174" lon="13.59212663063844"><ele>273.0</ele><time>2026-04-18T07:57:12Z</time></trkpt><trkpt lat="41.7052382693706" lon="13.59223452534808"><ele>273.0</ele><time>2026-04-18T07:57:13Z</time></trkpt><trkpt lat="41.70531541668174" lon="13.59235754587031"><ele>273.25</ele><time>2026-04-18T07:57:14Z</time></trkpt><trkpt lat="41.705398650993516" lon="13.59248735361379"><ele>273.5</ele><time>2026-04-18T07:57:15Z</time></trkpt><trkpt lat="41.70548412062515" lon="13.592622039466127"><ele>273.75</ele><time>2026-04-18T07:57:16Z</time></trkpt><trkpt lat="41.705570941297" lon="13.592760812001519"><ele>274.0</ele><time>2026-04-18T07:57:17Z</time></trkpt><trkpt lat="41.70565728795216" lon="13.592888802181347"><ele>274.25</ele><time>2026-04-18T07:57:18Z</time></trkpt><trkpt lat="41.70573910606119" lon="13.593024012935157"><ele>274.5</ele><time>2026-04-18T07:57:19Z</time></trkpt><trkpt lat="41.70582371328147" lon="13.593156312492422"><ele>274.75</ele><time>2026-04-18T07:57:20Z</time></trkpt><trkpt lat="41.705907696592895" lon="13.593289710993767"><ele>275.0</ele><time>2026-04-18T07:57:21Z</time></trkpt><trkpt lat="41.70598817794067" lon="13.593424611971178"><ele>275.0</ele><time>2026-04-18T07:57:22Z</time></trkpt><trkpt lat="41.706070545220086" lon="13.593553408296605"><ele>275.0</ele><time>2026-04-18T07:57:23Z</time></trkpt><trkpt lat="41.70615331944655" lon="13.593672709543993"><ele>275.0</ele><time>2026-04-18T07:57:24Z</time></trkpt><trkpt lat="41.70622845635668" lon="13.593788538111102"><ele>275.0</ele><time>2026-04-18T07:57:25Z</time></trkpt><trkpt lat="41.70630399848438" lon="13.593904532919419"><ele>275.0</ele><time>2026-04-18T07:57:26Z</time></trkpt><trkpt lat="41.706383403652744" lon="13.59402589878941"><ele>275.0</ele><time>2026-04-18T07:57:27Z</time></trkpt><trkpt lat="41.70646180132642" lon="13.594157744752946"><ele>275.0</ele><time>2026-04-18T07:57:28Z</time></trkpt><trkpt lat="41.70653415925792" lon="13.59426940362516"><ele>275.0</ele><time>2026-04-18T07:57:29Z</time></trkpt><trkpt lat="41.706610457500815" lon="13.594382500346208"><ele>275.0</ele><time>2026-04-18T07:57:30Z</time></trkpt><trkpt lat="41.70668751759637" lon="13.594499906804842"><ele>275.0</ele><time>2026-04-18T07:57:31Z</time></trkpt><trkpt lat="41.70675851210826" lon="13.594610217607439"><ele>275.0</ele><time>2026-04-18T07:57:32Z</time></trkpt><trkpt lat="41.70682572542269" lon="13.594713926376253"><ele>275.0</ele><time>2026-04-18T07:57:33Z</time></trkpt><trkpt lat="41.706888327080065" lon="13.594808977846824"><ele>275.0</ele><time>2026-04-18T07:57:34Z</time></trkpt><trkpt lat="41.70694963611622" lon="13.594906899091066"><ele>275.2</ele><time>2026-04-18T07:57:35Z</time></trkpt><trkpt lat="41.70701450604379" lon="13.595011595131941"><ele>275.4</ele><time>2026-04-18T07:57:36Z</time></trkpt><trkpt lat="41.707075964254656" lon="13.595110341429384"><ele>275.6</ele><time>2026-04-18T07:57:37Z</time></trkpt><trkpt lat="41.707136492592305" lon="13.595208775704005"><ele>275.8</ele><time>2026-04-18T07:57:38Z</time></trkpt><trkpt lat="41.70720913955411" lon="13.595320267133653"><ele>276.0</ele><time>2026-04-18T07:57:39Z</time></trkpt><trkpt lat="41.707289932431955" lon="13.595437174593041"><ele>276.0</ele><time>2026-04-18T07:57:40Z</time></trkpt><trkpt lat="41.70737302739972" lon="13.595564343193743"><ele>276.0</ele><time>2026-04-18T07:57:41Z</time></trkpt><trkpt lat="41.70745504507041" lon="13.595693556946847"><ele>276.0</ele><time>2026-04-18T07:57:42Z</time></trkpt><trkpt lat="41.70753015408606" lon="13.595811582147698"><ele>276.0</ele><time>2026-04-18T07:57:43Z</time></trkpt><trkpt lat="41.70759846384832" lon="13.595914262475045"><ele>276.0</ele><time>2026-04-18T07:57:44Z</time></trkpt><trkpt lat="41.707649855329485" lon="13.595997791758817"><ele>276.0</ele><time>2026-04-18T07:57:45Z</time></trkpt><trkpt lat="41.70769668861947" lon="13.59606656366277"><ele>276.0</ele><time>2026-04-18T07:57:46Z</time></trkpt><trkpt lat="41.70775827079323" lon="13.596163165396872"><ele>276.0</ele><time>2026-04-18T07:57:48Z</time></trkpt><trkpt lat="41.70781460275554" lon="13.59625575534292"><ele>276.0</ele><time>2026-04-18T07:57:50Z</time></trkpt><trkpt lat="41.70786566116637" lon="13.596336349710796"><ele>276.0</ele><time>2026-04-18T07:57:52Z</time></trkpt><trkpt lat="41.70792502607542" lon="13.59643281832339"><ele>276.0</ele><time>2026-04-18T07:57:54Z</time></trkpt><trkpt lat="41.70800558507168" lon="13.596556226437764"><ele>276.0</ele><time>2026-04-18T07:57:56Z</time></trkpt><trkpt lat="41.70805424788349" lon="13.59663212936651"><ele>276.0</ele><time>2026-04-18T07:57:57Z</time></trkpt><trkpt lat="41.70810638109061" lon="13.59671502529029"><ele>276.0</ele><time>2026-04-18T07:57:58Z</time></trkpt><trkpt lat="41.70816188207891" lon="13.59679965740608"><ele>276.0</ele><time>2026-04-18T07:57:59Z</time></trkpt><trkpt lat="41.708216058668604" lon="13.596884106107932"><ele>276.0</ele><time>2026-04-18T07:58:00Z</time></trkpt><trkpt lat="41.70827992887447" lon="13.596978628723058"><ele>276.0</ele><time>2026-04-18T07:58:01Z</time></trkpt><trkpt lat="41.70835064860181" lon="13.597081819732395"><ele>276.0</ele><time>2026-04-18T07:58:02Z</time></trkpt><trkpt lat="41.708425204553" lon="13.597186134430494"><ele>276.0</ele><time>2026-04-18T07:58:03Z</time></trkpt><trkpt lat="41.70849925003889" lon="13.597297257126902"><ele>276.0</ele><time>2026-04-18T07:58:04Z</time></trkpt><trkpt lat="41.70857081890813" lon="13.59741411054629"><ele>276.0</ele><time>2026-04-18T07:58:05Z</time></trkpt><trkpt lat="41.70864138098442" lon="13.597531824091334"><ele>276.0</ele><time>2026-04-18T07:58:06Z</time></trkpt><trkpt lat="41.70871676256482" lon="13.597648813266543"><ele>276.0</ele><time>2026-04-18T07:58:07Z</time></trkpt><trkpt lat="41.70878663239736" lon="13.597753835088765"><ele>276.0</ele><time>2026-04-18T07:58:08Z</time></trkpt><trkpt lat="41.70884917148012" lon="13.597851263745993"><ele>276.0</ele><time>2026-04-18T07:58:09Z</time></trkpt><trkpt lat="41.7089106519299" lon="13.597944671860056"><ele>276.0</ele><time>2026-04-18T07:58:10Z</time></trkpt><trkpt lat="41.70897126399553" lon="13.598035468552258"><ele>276.0</ele><time>2026-04-18T07:58:11Z</time></trkpt><trkpt lat="41.709025349727824" lon="13.59812290842473"><ele>276.0</ele><time>2026-04-18T07:58:12Z</time></trkpt><trkpt lat="41.709086642573084" lon="13.598215867971707"><ele>276.0</ele><time>2026-04-18T07:58:13Z</time></trkpt><trkpt lat="41.70914388646766" lon="13.598304583399674"><ele>276.0</ele><time>2026-04-18T07:58:14Z</time></trkpt><trkpt lat="41.709202990398616" lon="13.598399417744591"><ele>276.0</ele><time>2026-04-18T07:58:15Z</time></trkpt><trkpt lat="41.70926944237805" lon="13.598502137672757"><ele>276.0</ele><time>2026-04-18T07:58:16Z</time></trkpt><trkpt lat="41.70932234339482" lon="13.598590074031142"><ele>276.0</ele><time>2026-04-18T07:58:17Z</time></trkpt><trkpt lat="41.70938030630432" lon="13.598674920674256"><ele>276.0</ele><time>2026-04-18T07:58:18Z</time></trkpt><trkpt lat="41.70943000256785" lon="13.598753232883414"><ele>276.0</ele><time>2026-04-18T07:58:19Z</time></trkpt><trkpt lat="41.709472613003086" lon="13.598822017516854"><ele>276.0</ele><time>2026-04-18T07:58:20Z</time></trkpt><trkpt lat="41.709524295159746" lon="13.598899184417784"><ele>276.0</ele><time>2026-04-18T07:58:21Z</time></trkpt><trkpt lat="41.70960422510237" lon="13.599027888842885"><ele>276.2</ele><time>2026-04-18T07:58:23Z</time></trkpt><trkpt lat="41.70967354183253" lon="13.599134358882672"><ele>276.40000000000003</ele><time>2026-04-18T07:58:25Z</time></trkpt><trkpt lat="41.70973854333945" lon="13.599239436262144"><ele>276.6</ele><time>2026-04-18T07:58:27Z</time></trkpt><trkpt lat="41.70981346628491" lon="13.599372940239322"><ele>276.8</ele><time>2026-04-18T07:58:29Z</time></trkpt><trkpt lat="41.709878388198625" lon="13.59946042127492"><ele>277.0</ele><time>2026-04-18T07:58:30Z</time></trkpt><trkpt lat="41.709949916378704" lon="13.599560819902752"><ele>277.2</ele><time>2026-04-18T07:58:31Z</time></trkpt><trkpt lat="41.71002408690269" lon="13.59967602793231"><ele>277.4</ele><time>2026-04-18T07:58:32Z</time></trkpt><trkpt lat="41.710095767076" lon="13.59979127624839"><ele>277.6</ele><time>2026-04-18T07:58:33Z</time></trkpt><trkpt lat="41.71015746791777" lon="13.599893960130208"><ele>277.8</ele><time>2026-04-18T07:58:34Z</time></trkpt><trkpt lat="41.71022230043189" lon="13.600000467821367"><ele>278.0</ele><time>2026-04-18T07:58:35Z</time></trkpt><trkpt lat="41.71028649326528" lon="13.600110517704179"><ele>278.0</ele><time>2026-04-18T07:58:36Z</time></trkpt><trkpt lat="41.710355657050066" lon="13.60022061092707"><ele>278.0</ele><time>2026-04-18T07:58:37Z</time></trkpt><trkpt lat="41.71043529341441" lon="13.600341473162622"><ele>278.0</ele><time>2026-04-18T07:58:38Z</time></trkpt><trkpt lat="41.71051938784824" lon="13.60046794570599"><ele>278.0</ele><time>2026-04-18T07:58:39Z</time></trkpt><trkpt lat="41.71060955837305" lon="13.60060452678716"><ele>278.25</ele><time>2026-04-18T07:58:40Z</time></trkpt><trkpt lat="41.71069849060351" lon="13.600739867966468"><ele>278.5</ele><time>2026-04-18T07:58:41Z</time></trkpt><trkpt lat="41.71077679723263" lon="13.600865378064881"><ele>278.75</ele><time>2026-04-18T07:58:42Z</time></trkpt><trkpt lat="41.71085132947554" lon="13.60097844321505"><ele>279.0</ele><time>2026-04-18T07:58:43Z</time></trkpt><trkpt lat="41.71093753308473" lon="13.601102407758704"><ele>279.0</ele><time>2026-04-18T07:58:44Z</time></trkpt><trkpt lat="41.7110159383718" lon="13.601218477910145"><ele>279.0</ele><time>2026-04-18T07:58:45Z</time></trkpt><trkpt lat="41.711077886148" lon="13.601324085238605"><ele>279.0</ele><time>2026-04-18T07:58:46Z</time></trkpt><trkpt lat="41.711147516847106" lon="13.601450640165995"><ele>279.0</ele><time>2026-04-18T07:58:47Z</time></trkpt><trkpt lat="41.711227959493" lon="13.601583964641145"><ele>279.0</ele><time>2026-04-18T07:58:48Z</time></trkpt><trkpt lat="41.711313553662244" lon="13.601717079706464"><ele>279.0</ele><time>2026-04-18T07:58:49Z</time></trkpt><trkpt lat="41.71140236493234" lon="13.601854962004715"><ele>279.0</ele><time>2026-04-18T07:58:50Z</time></trkpt><trkpt lat="41.711484699444824" lon="13.601981446635788"><ele>279.0</ele><time>2026-04-18T07:58:51Z</time></trkpt><trkpt lat="41.711559260770706" lon="13.602102241191705"><ele>279.25</ele><time>2026-04-18T07:58:52Z</time></trkpt><trkpt lat="41.71163953618414" lon="13.6022251645629"><ele>279.5</ele><time>2026-04-18T07:58:53Z</time></trkpt><trkpt lat="41.711719650953135" lon="13.602350856218019"><ele>279.75</ele><time>2026-04-18T07:58:54Z</time></trkpt><trkpt lat="41.71180024581688" lon="13.602478152143878"><ele>280.0</ele><time>2026-04-18T07:58:55Z</time></trkpt><trkpt lat="41.71188304809828" lon="13.602604157714076"><ele>280.0</ele><time>2026-04-18T07:58:56Z</time></trkpt><trkpt lat="41.71196447076852" lon="13.60272977720198"><ele>280.0</ele><time>2026-04-18T07:58:57Z</time></trkpt><trkpt lat="41.712045942202344" lon="13.602854986660224"><ele>280.0</ele><time>2026-04-18T07:58:58Z</time></trkpt><trkpt lat="41.712127138762504" lon="13.602986823587395"><ele>280.0</ele><time>2026-04-18T07:58:59Z</time></trkpt><trkpt lat="41.712207650230845" lon="13.603114525449879"><ele>280.0</ele><time>2026-04-18T07:59:00Z</time></trkpt><trkpt lat="41.712276380668555" lon="13.603220862822246"><ele>280.0</ele><time>2026-04-18T07:59:01Z</time></trkpt><trkpt lat="41.71232564111525" lon="13.603303038805075"><ele>280.0</ele><time>2026-04-18T07:59:02Z</time></trkpt><trkpt lat="41.71238871160533" lon="13.603403002355977"><ele>280.0</ele><time>2026-04-18T07:59:04Z</time></trkpt><trkpt lat="41.71245065010134" lon="13.60349102360066"><ele>280.0</ele><time>2026-04-18T07:59:06Z</time></trkpt><trkpt lat="41.71253564151704" lon="13.603622362908837"><ele>280.0</ele><time>2026-04-18T07:59:08Z</time></trkpt><trkpt lat="41.71259032767358" lon="13.603702060754072"><ele>280.0</ele><time>2026-04-18T07:59:09Z</time></trkpt><trkpt lat="41.71264755632472" lon="13.603791892341365"><ele>280.0</ele><time>2026-04-18T07:59:10Z</time></trkpt><trkpt lat="41.71270669245719" lon="13.603888340817742"><ele>280.0</ele><time>2026-04-18T07:59:11Z</time></trkpt><trkpt lat="41.712761087075" lon="13.603975544359512"><ele>280.0</ele><time>2026-04-18T07:59:12Z</time></trkpt><trkpt lat="41.712817953592555" lon="13.604066159827626"><ele>280.0</ele><time>2026-04-18T07:59:13Z</time></trkpt><trkpt lat="41.71288458377226" lon="13.604170352813613"><ele>280.2</ele><time>2026-04-18T07:59:14Z</time></trkpt><trkpt lat="41.71295264038335" lon="13.604278991400745"><ele>280.4</ele><time>2026-04-18T07:59:15Z</time></trkpt><trkpt lat="41.713026787138226" lon="13.604390339119004"><ele>280.6</ele><time>2026-04-18T07:59:16Z</time></trkpt><trkpt lat="41.7130974672427" lon="13.604506601590039"><ele>280.8</ele><time>2026-04-18T07:59:17Z</time></trkpt><trkpt lat="41.713168094955286" lon="13.604620784070532"><ele>281.0</ele><time>2026-04-18T07:59:18Z</time></trkpt><trkpt lat="41.71324297038279" lon="13.604734918700027"><ele>281.25</ele><time>2026-04-18T07:59:19Z</time></trkpt><trkpt lat="41.71330931071641" lon="13.60483367867174"><ele>281.5</ele><time>2026-04-18T07:59:20Z</time></trkpt><trkpt lat="41.71337173475196" lon="13.604923538210214"><ele>281.75</ele><time>2026-04-18T07:59:21Z</time></trkpt><trkpt lat="41.71345960170501" lon="13.605045394727648"><ele>282.0</ele><time>2026-04-18T07:59:22Z</time></trkpt><trkpt lat="41.71355946567834" lon="13.605198133812994"><ele>282.75</ele><time>2026-04-18T07:59:23Z</time></trkpt><trkpt lat="41.71364093223958" lon="13.605329391154998"><ele>283.5</ele><time>2026-04-18T07:59:24Z</time></trkpt><trkpt lat="41.71372547751698" lon="13.605453981875772"><ele>284.25</ele><time>2026-04-18T07:59:25Z</time></trkpt><trkpt lat="41.713802359934" lon="13.605575524855864"><ele>285.0</ele><time>2026-04-18T07:59:26Z</time></trkpt><trkpt lat="41.713882918068634" lon="13.605701430136067"><ele>285.0</ele><time>2026-04-18T07:59:27Z</time></trkpt><trkpt lat="41.713962527558145" lon="13.60582296561275"><ele>285.0</ele><time>2026-04-18T07:59:28Z</time></trkpt><trkpt lat="41.71403410298681" lon="13.6059339224748"><ele>285.0</ele><time>2026-04-18T07:59:29Z</time></trkpt><trkpt lat="41.714088993576" lon="13.606018977292283"><ele>285.0</ele><time>2026-04-18T07:59:30Z</time></trkpt><trkpt lat="41.714156676503556" lon="13.606113861940555"><ele>285.0</ele><time>2026-04-18T07:59:32Z</time></trkpt><trkpt lat="41.714226464841566" lon="13.60621890949558"><ele>284.6</ele><time>2026-04-18T07:59:34Z</time></trkpt><trkpt lat="41.71427859496838" lon="13.606297344344906"><ele>284.2</ele><time>2026-04-18T07:59:35Z</time></trkpt><trkpt lat="41.714338118542045" lon="13.60638461770934"><ele>283.8</ele><time>2026-04-18T07:59:36Z</time></trkpt><trkpt lat="41.71439916074653" lon="13.606476433444943"><ele>283.4</ele><time>2026-04-18T07:59:37Z</time></trkpt><trkpt lat="41.71446142085504" lon="13.606582807645578"><ele>283.0</ele><time>2026-04-18T07:59:38Z</time></trkpt><trkpt lat="41.71452832237835" lon="13.606687735889183"><ele>283.0</ele><time>2026-04-18T07:59:39Z</time></trkpt><trkpt lat="41.7145972469548" lon="13.606795817184018"><ele>283.0</ele><time>2026-04-18T07:59:40Z</time></trkpt><trkpt lat="41.71466842685807" lon="13.606904464989537"><ele>283.0</ele><time>2026-04-18T07:59:41Z</time></trkpt><trkpt lat="41.71473716343946" lon="13.607009381120086"><ele>283.0</ele><time>2026-04-18T07:59:42Z</time></trkpt><trkpt lat="41.71480579115483" lon="13.607114480943013"><ele>283.0</ele><time>2026-04-18T07:59:43Z</time></trkpt><trkpt lat="41.71487310226725" lon="13.607221224755543"><ele>282.8</ele><time>2026-04-18T07:59:44Z</time></trkpt><trkpt lat="41.71494151202921" lon="13.607329950170985"><ele>282.6</ele><time>2026-04-18T07:59:45Z</time></trkpt><trkpt lat="41.71500910197269" lon="13.607439873309588"><ele>282.4</ele><time>2026-04-18T07:59:46Z</time></trkpt><trkpt lat="41.71507861562124" lon="13.607550347860736"><ele>282.2</ele><time>2026-04-18T07:59:47Z</time></trkpt><trkpt lat="41.71514413460946" lon="13.607654099921014"><ele>282.0</ele><time>2026-04-18T07:59:48Z</time></trkpt><trkpt lat="41.715202047495545" lon="13.607741484927825"><ele>282.1666666666667</ele><time>2026-04-18T07:59:49Z</time></trkpt><trkpt lat="41.71525207105881" lon="13.607820652048463"><ele>282.3333333333333</ele><time>2026-04-18T07:59:50Z</time></trkpt><trkpt lat="41.71530352505223" lon="13.607901506276082"><ele>282.5</ele><time>2026-04-18T07:59:51Z</time></trkpt><trkpt lat="41.71535331216773" lon="13.607983476617873"><ele>282.66666666666663</ele><time>2026-04-18T07:59:52Z</time></trkpt><trkpt lat="41.71539608865929" lon="13.6080524665467"><ele>282.8333333333333</ele><time>2026-04-18T07:59:53Z</time></trkpt><trkpt lat="41.715454261228345" lon="13.608142015359592"><ele>283.0</ele><time>2026-04-18T07:59:55Z</time></trkpt><trkpt lat="41.715530974011315" lon="13.608270342640447"><ele>283.0</ele><time>2026-04-18T07:59:58Z</time></trkpt><trkpt lat="41.7155824187382" lon="13.608362884714028"><ele>283.0</ele><time>2026-04-18T07:59:59Z</time></trkpt><trkpt lat="41.71564006068101" lon="13.608451704279512"><ele>283.0</ele><time>2026-04-18T08:00:00Z</time></trkpt><trkpt lat="41.71570703826103" lon="13.608549399593533"><ele>283.0</ele><time>2026-04-18T08:00:01Z</time></trkpt><trkpt lat="41.715772902135974" lon="13.608653974904824"><ele>283.0</ele><time>2026-04-18T08:00:02Z</time></trkpt><trkpt lat="41.71584323493182" lon="13.60876407434092"><ele>282.8</ele><time>2026-04-18T08:00:03Z</time></trkpt><trkpt lat="41.715914516291036" lon="13.608878914728793"><ele>282.6</ele><time>2026-04-18T08:00:04Z</time></trkpt><trkpt lat="41.71597786505681" lon="13.608982172534795"><ele>282.4</ele><time>2026-04-18T08:00:05Z</time></trkpt><trkpt lat="41.71603475098391" lon="13.609067338160425"><ele>282.2</ele><time>2026-04-18T08:00:06Z</time></trkpt><trkpt lat="41.71608643166969" lon="13.609141702706326"><ele>282.0</ele><time>2026-04-18T08:00:07Z</time></trkpt><trkpt lat="41.71613988391445" lon="13.609219995482388"><ele>282.3333333333333</ele><time>2026-04-18T08:00:08Z</time></trkpt><trkpt lat="41.71619393989942" lon="13.609309875364717"><ele>282.6666666666667</ele><time>2026-04-18T08:00:09Z</time></trkpt><trkpt lat="41.716242578840635" lon="13.609389337193104"><ele>283.0</ele><time>2026-04-18T08:00:10Z</time></trkpt><trkpt lat="41.71628311097756" lon="13.609468651260022"><ele>283.33333333333337</ele><time>2026-04-18T08:00:11Z</time></trkpt><trkpt lat="41.716331590259145" lon="13.60954809541"><ele>283.6666666666667</ele><time>2026-04-18T08:00:12Z</time></trkpt><trkpt lat="41.71638795651791" lon="13.609630292881198"><ele>284.0</ele><time>2026-04-18T08:00:13Z</time></trkpt><trkpt lat="41.716437457851946" lon="13.609715617215217"><ele>284.2</ele><time>2026-04-18T08:00:14Z</time></trkpt><trkpt lat="41.7164810431998" lon="13.609788112086076"><ele>284.4</ele><time>2026-04-18T08:00:15Z</time></trkpt><trkpt lat="41.71654381563131" lon="13.60990345124311"><ele>284.6</ele><time>2026-04-18T08:00:17Z</time></trkpt><trkpt lat="41.71659534169203" lon="13.609976575033892"><ele>284.8</ele><time>2026-04-18T08:00:19Z</time></trkpt><trkpt lat="41.71667454970392" lon="13.610083585814833"><ele>285.0</ele><time>2026-04-18T08:00:21Z</time></trkpt><trkpt lat="41.71673876220152" lon="13.610192449243614"><ele>285.0</ele><time>2026-04-18T08:00:22Z</time></trkpt><trkpt lat="41.7168129689355" lon="13.610297894893264"><ele>285.0</ele><time>2026-04-18T08:00:23Z</time></trkpt><trkpt lat="41.71688829634427" lon="13.610423424120695"><ele>285.0</ele><time>2026-04-18T08:00:24Z</time></trkpt><trkpt lat="41.716955295317625" lon="13.610533955846641"><ele>285.0</ele><time>2026-04-18T08:00:25Z</time></trkpt><trkpt lat="41.71701904038066" lon="13.610634911438515"><ele>285.0</ele><time>2026-04-18T08:00:26Z</time></trkpt><trkpt lat="41.717089995936696" lon="13.610741082389413"><ele>284.8</ele><time>2026-04-18T08:00:27Z</time></trkpt><trkpt lat="41.71716414750016" lon="13.61085074418354"><ele>284.6</ele><time>2026-04-18T08:00:28Z</time></trkpt><trkpt lat="41.71723694776239" lon="13.610963265907069"><ele>284.4</ele><time>2026-04-18T08:00:29Z</time></trkpt><trkpt lat="41.7173090347611" lon="13.611075016299695"><ele>284.2</ele><time>2026-04-18T08:00:30Z</time></trkpt><trkpt lat="41.71738304769693" lon="13.61118412477709"><ele>284.0</ele><time>2026-04-18T08:00:31Z</time></trkpt><trkpt lat="41.71745181690562" lon="13.611291347182062"><ele>284.0</ele><time>2026-04-18T08:00:32Z</time></trkpt><trkpt lat="41.71751699303978" lon="13.611396314038192"><ele>284.0</ele><time>2026-04-18T08:00:33Z</time></trkpt><trkpt lat="41.71758268083667" lon="13.611496044414462"><ele>284.0</ele><time>2026-04-18T08:00:34Z</time></trkpt><trkpt lat="41.717647350815874" lon="13.611590929567901"><ele>284.0</ele><time>2026-04-18T08:00:35Z</time></trkpt><trkpt lat="41.717708532512646" lon="13.611688062635888"><ele>284.0</ele><time>2026-04-18T08:00:36Z</time></trkpt><trkpt lat="41.7177699445884" lon="13.611785573495641"><ele>284.0</ele><time>2026-04-18T08:00:37Z</time></trkpt><trkpt lat="41.7178273636426" lon="13.611877121238763"><ele>284.0</ele><time>2026-04-18T08:00:38Z</time></trkpt><trkpt lat="41.71788547086911" lon="13.61196810176202"><ele>284.0</ele><time>2026-04-18T08:00:39Z</time></trkpt><trkpt lat="41.717941759806656" lon="13.612063289627496"><ele>284.0</ele><time>2026-04-18T08:00:40Z</time></trkpt><trkpt lat="41.717999458691466" lon="13.612152345551229"><ele>284.0</ele><time>2026-04-18T08:00:41Z</time></trkpt><trkpt lat="41.718052801372984" lon="13.612239384883859"><ele>284.0</ele><time>2026-04-18T08:00:42Z</time></trkpt><trkpt lat="41.71810429761247" lon="13.612321368132136"><ele>283.83333333333337</ele><time>2026-04-18T08:00:43Z</time></trkpt><trkpt lat="41.71814377936059" lon="13.61238848502244"><ele>283.6666666666667</ele><time>2026-04-18T08:00:44Z</time></trkpt><trkpt lat="41.718184927790126" lon="13.612464294701766"><ele>283.5</ele><time>2026-04-18T08:00:47Z</time></trkpt><trkpt lat="41.71821893185389" lon="13.6125937894661"><ele>283.3333333333333</ele><time>2026-04-18T08:00:51Z</time></trkpt><trkpt lat="41.718226663313104" lon="13.612695827325469"><ele>283.16666666666663</ele><time>2026-04-18T08:00:53Z</time></trkpt><trkpt lat="41.718244226309885" lon="13.612786000804316"><ele>283.0</ele><time>2026-04-18T08:00:55Z</time></trkpt><trkpt lat="41.718274412592635" lon="13.612892993909664"><ele>283.0</ele><time>2026-04-18T08:00:59Z</time></trkpt><trkpt lat="41.71824880616722" lon="13.613033625688635"><ele>283.0</ele><time>2026-04-18T08:01:01Z</time></trkpt><trkpt lat="41.71822820077037" lon="13.613195074369326"><ele>283.0</ele><time>2026-04-18T08:01:03Z</time></trkpt><trkpt lat="41.71822370370352" lon="13.613295328537145"><ele>283.0</ele><time>2026-04-18T08:01:04Z</time></trkpt><trkpt lat="41.71822772107947" lon="13.613408559470294"><ele>283.0</ele><time>2026-04-18T08:01:05Z</time></trkpt><trkpt lat="41.71824550299294" lon="13.613508238345972"><ele>283.0</ele><time>2026-04-18T08:01:06Z</time></trkpt><trkpt lat="41.71827495169495" lon="13.613610737526884"><ele>283.0</ele><time>2026-04-18T08:01:07Z</time></trkpt><trkpt lat="41.71831098148737" lon="13.613713573585528"><ele>283.0</ele><time>2026-04-18T08:01:08Z</time></trkpt><trkpt lat="41.71835823628433" lon="13.613815176996946"><ele>283.0</ele><time>2026-04-18T08:01:09Z</time></trkpt><trkpt lat="41.71841954872555" lon="13.613909154695666"><ele>283.0</ele><time>2026-04-18T08:01:10Z</time></trkpt><trkpt lat="41.71847466476901" lon="13.614002689119292"><ele>283.0</ele><time>2026-04-18T08:01:11Z</time></trkpt><trkpt lat="41.71852860971032" lon="13.614094416594336"><ele>283.0</ele><time>2026-04-18T08:01:12Z</time></trkpt><trkpt lat="41.71858357464685" lon="13.614185839930004"><ele>283.0</ele><time>2026-04-18T08:01:13Z</time></trkpt><trkpt lat="41.71864005688856" lon="13.614274861267033"><ele>283.0</ele><time>2026-04-18T08:01:14Z</time></trkpt><trkpt lat="41.718700516230385" lon="13.614356181909379"><ele>283.0</ele><time>2026-04-18T08:01:15Z</time></trkpt><trkpt lat="41.71876212455846" lon="13.614434904261064"><ele>283.0</ele><time>2026-04-18T08:01:16Z</time></trkpt><trkpt lat="41.71881943348916" lon="13.614507220233877"><ele>283.0</ele><time>2026-04-18T08:01:17Z</time></trkpt><trkpt lat="41.718872847835065" lon="13.614575762888263"><ele>283.16666666666663</ele><time>2026-04-18T08:01:18Z</time></trkpt><trkpt lat="41.718923631590755" lon="13.614644713322239"><ele>283.3333333333333</ele><time>2026-04-18T08:01:19Z</time></trkpt><trkpt lat="41.71898046319676" lon="13.614718748745744"><ele>283.5</ele><time>2026-04-18T08:01:20Z</time></trkpt><trkpt lat="41.719044608452116" lon="13.614800044403461"><ele>283.6666666666667</ele><time>2026-04-18T08:01:21Z</time></trkpt><trkpt lat="41.719114358005015" lon="13.614887140792773"><ele>283.83333333333337</ele><time>2026-04-18T08:01:22Z</time></trkpt><trkpt lat="41.719185675536565" lon="13.614976810939242"><ele>284.0</ele><time>2026-04-18T08:01:23Z</time></trkpt><trkpt lat="41.71926924736117" lon="13.615071082229324"><ele>284.0</ele><time>2026-04-18T08:01:24Z</time></trkpt><trkpt lat="41.71935257461873" lon="13.615176005195538"><ele>284.0</ele><time>2026-04-18T08:01:25Z</time></trkpt><trkpt lat="41.71944320197352" lon="13.615280051519445"><ele>284.0</ele><time>2026-04-18T08:01:26Z</time></trkpt><trkpt lat="41.71953604097186" lon="13.615390222450353"><ele>284.0</ele><time>2026-04-18T08:01:27Z</time></trkpt><trkpt lat="41.71962794738557" lon="13.615501009455572"><ele>284.4</ele><time>2026-04-18T08:01:28Z</time></trkpt><trkpt lat="41.71971024623505" lon="13.615602018183221"><ele>284.79999999999995</ele><time>2026-04-18T08:01:29Z</time></trkpt><trkpt lat="41.719785698685634" lon="13.615693827445307"><ele>285.20000000000005</ele><time>2026-04-18T08:01:30Z</time></trkpt><trkpt lat="41.71985229817162" lon="13.615775134712388"><ele>285.6</ele><time>2026-04-18T08:01:31Z</time></trkpt><trkpt lat="41.719917111435215" lon="13.61585083445086"><ele>286.0</ele><time>2026-04-18T08:01:32Z</time></trkpt><trkpt lat="41.71998793639604" lon="13.615935123414651"><ele>286.0</ele><time>2026-04-18T08:01:33Z</time></trkpt><trkpt lat="41.72005741803438" lon="13.6160276832844"><ele>286.0</ele><time>2026-04-18T08:01:34Z</time></trkpt><trkpt lat="41.720129952611515" lon="13.616120722982869"><ele>286.0</ele><time>2026-04-18T08:01:35Z</time></trkpt><trkpt lat="41.72020416421409" lon="13.616212420954854"><ele>286.0</ele><time>2026-04-18T08:01:36Z</time></trkpt><trkpt lat="41.72026744789035" lon="13.616295540448458"><ele>286.0</ele><time>2026-04-18T08:01:37Z</time></trkpt><trkpt lat="41.72031873965594" lon="13.616374959092399"><ele>286.16666666666663</ele><time>2026-04-18T08:01:38Z</time></trkpt><trkpt lat="41.72037006350507" lon="13.616450124107018"><ele>286.3333333333333</ele><time>2026-04-18T08:01:39Z</time></trkpt><trkpt lat="41.7204203973887" lon="13.61652552261796"><ele>286.5</ele><time>2026-04-18T08:01:40Z</time></trkpt><trkpt lat="41.72047073896587" lon="13.616598047989761"><ele>286.6666666666667</ele><time>2026-04-18T08:01:41Z</time></trkpt><trkpt lat="41.72051441404176" lon="13.616674601294855"><ele>286.83333333333337</ele><time>2026-04-18T08:01:42Z</time></trkpt><trkpt lat="41.72054916795886" lon="13.616756237448861"><ele>287.0</ele><time>2026-04-18T08:01:43Z</time></trkpt><trkpt lat="41.72061214915097" lon="13.61686911869905"><ele>287.0</ele><time>2026-04-18T08:01:45Z</time></trkpt><trkpt lat="41.72061951895308" lon="13.616956539358624"><ele>287.0</ele><time>2026-04-18T08:01:46Z</time></trkpt><trkpt lat="41.72058816912755" lon="13.617031774802369"><ele>287.0</ele><time>2026-04-18T08:01:47Z</time></trkpt><trkpt lat="41.72053681382564" lon="13.617099805062425"><ele>287.0</ele><time>2026-04-18T08:01:48Z</time></trkpt><trkpt lat="41.7204781355079" lon="13.617155270880863"><ele>287.0</ele><time>2026-04-18T08:01:49Z</time></trkpt><trkpt lat="41.720433650014755" lon="13.61722383078572"><ele>287.0</ele><time>2026-04-18T08:01:50Z</time></trkpt><trkpt lat="41.72039811771314" lon="13.617293922772246"><ele>287.0</ele><time>2026-04-18T08:01:51Z</time></trkpt><trkpt lat="41.720336683554656" lon="13.617393345759192"><ele>287.0</ele><time>2026-04-18T08:01:53Z</time></trkpt><trkpt lat="41.72026969373183" lon="13.617470687025797"><ele>287.0</ele><time>2026-04-18T08:01:55Z</time></trkpt><trkpt lat="41.720207617895724" lon="13.617549354283453"><ele>287.0</ele><time>2026-04-18T08:01:57Z</time></trkpt><trkpt lat="41.720145493341136" lon="13.617627127759198"><ele>287.0</ele><time>2026-04-18T08:01:59Z</time></trkpt><trkpt lat="41.72008324401287" lon="13.617690985373462"><ele>287.0</ele><time>2026-04-18T08:02:01Z</time></trkpt><trkpt lat="41.72002377848552" lon="13.617741739367776"><ele>287.0</ele><time>2026-04-18T08:02:06Z</time></trkpt><trkpt lat="41.71996075412529" lon="13.617798544329844"><ele>287.0</ele><time>2026-04-18T08:02:11Z</time></trkpt><trkpt lat="41.71990969173629" lon="13.617865349618945"><ele>287.0</ele><time>2026-04-18T08:02:13Z</time></trkpt><trkpt lat="41.71988173788465" lon="13.617948834023272"><ele>287.0</ele><time>2026-04-18T08:02:15Z</time></trkpt><trkpt lat="41.719867477209284" lon="13.618076759519965"><ele>287.0</ele><time>2026-04-18T08:02:17Z</time></trkpt><trkpt lat="41.71983259048154" lon="13.618217376131959"><ele>287.0</ele><time>2026-04-18T08:02:19Z</time></trkpt><trkpt lat="41.719802627492065" lon="13.61829544709972"><ele>287.0</ele><time>2026-04-18T08:02:20Z</time></trkpt><trkpt lat="41.719779126847016" lon="13.618384511894789"><ele>287.0</ele><time>2026-04-18T08:02:21Z</time></trkpt><trkpt lat="41.71976029953579" lon="13.618481082283715"><ele>287.0</ele><time>2026-04-18T08:02:22Z</time></trkpt><trkpt lat="41.71974985645165" lon="13.618581697152262"><ele>287.0</ele><time>2026-04-18T08:02:23Z</time></trkpt><trkpt lat="41.719748506489836" lon="13.618675807354851"><ele>287.0</ele><time>2026-04-18T08:02:24Z</time></trkpt><trkpt lat="41.71975346882344" lon="13.618816334125325"><ele>287.0</ele><time>2026-04-18T08:02:26Z</time></trkpt><trkpt lat="41.71976081300398" lon="13.618921566745392"><ele>287.0</ele><time>2026-04-18T08:02:28Z</time></trkpt><trkpt lat="41.71978411519869" lon="13.619029283058186"><ele>287.0</ele><time>2026-04-18T08:02:31Z</time></trkpt><trkpt lat="41.71981398050971" lon="13.619116317778"><ele>287.0</ele><time>2026-04-18T08:02:34Z</time></trkpt><trkpt lat="41.71986096594085" lon="13.619234172858704"><ele>287.0</ele><time>2026-04-18T08:02:45Z</time></trkpt><trkpt lat="41.71987642871903" lon="13.619318396041036"><ele>287.0</ele><time>2026-04-18T08:02:46Z</time></trkpt><trkpt lat="41.71991011593922" lon="13.619399043336115"><ele>287.0</ele><time>2026-04-18T08:02:47Z</time></trkpt><trkpt lat="41.71998459790302" lon="13.619520107968924"><ele>287.0</ele><time>2026-04-18T08:02:49Z</time></trkpt><trkpt lat="41.72003413945077" lon="13.619631509346549"><ele>287.0</ele><time>2026-04-18T08:02:50Z</time></trkpt><trkpt lat="41.720097262068" lon="13.619759932645831"><ele>287.0</ele><time>2026-04-18T08:02:51Z</time></trkpt><trkpt lat="41.72016994359749" lon="13.619892551240378"><ele>287.0</ele><time>2026-04-18T08:02:52Z</time></trkpt><trkpt lat="41.72023363302091" lon="13.619995887809507"><ele>287.0</ele><time>2026-04-18T08:02:53Z</time></trkpt><trkpt lat="41.720295471503235" lon="13.620089616631082"><ele>287.0</ele><time>2026-04-18T08:02:54Z</time></trkpt><trkpt lat="41.72036555322603" lon="13.620190799458149"><ele>287.0</ele><time>2026-04-18T08:02:55Z</time></trkpt><trkpt lat="41.720446006697614" lon="13.620290265348778"><ele>287.0</ele><time>2026-04-18T08:02:56Z</time></trkpt><trkpt lat="41.72052756621577" lon="13.620389396464434"><ele>287.0</ele><time>2026-04-18T08:02:57Z</time></trkpt><trkpt lat="41.72061303108227" lon="13.620482967959228"><ele>287.0</ele><time>2026-04-18T08:02:58Z</time></trkpt><trkpt lat="41.72069969720734" lon="13.620566431170504"><ele>287.0</ele><time>2026-04-18T08:02:59Z</time></trkpt><trkpt lat="41.72077597707626" lon="13.620632152554958"><ele>287.0</ele><time>2026-04-18T08:03:00Z</time></trkpt><trkpt lat="41.72084351714271" lon="13.620690133932364"><ele>287.0</ele><time>2026-04-18T08:03:01Z</time></trkpt><trkpt lat="41.72090643102061" lon="13.620746902422649"><ele>287.0</ele><time>2026-04-18T08:03:02Z</time></trkpt><trkpt lat="41.72097754040149" lon="13.620802739456808"><ele>287.0</ele><time>2026-04-18T08:03:03Z</time></trkpt><trkpt lat="41.721042115310034" lon="13.620856853230801"><ele>287.0</ele><time>2026-04-18T08:03:04Z</time></trkpt><trkpt lat="41.721103279844506" lon="13.620907320844395"><ele>287.0</ele><time>2026-04-18T08:03:05Z</time></trkpt><trkpt lat="41.721191805494946" lon="13.620965288096231"><ele>287.0</ele><time>2026-04-18T08:03:07Z</time></trkpt><trkpt lat="41.72128480814405" lon="13.621041913156178"><ele>287.0</ele><time>2026-04-18T08:03:09Z</time></trkpt><trkpt lat="41.721344781471615" lon="13.621088527792415"><ele>287.0</ele><time>2026-04-18T08:03:10Z</time></trkpt><trkpt lat="41.72140450850743" lon="13.621148872199665"><ele>287.0</ele><time>2026-04-18T08:03:11Z</time></trkpt><trkpt lat="41.72149146744178" lon="13.621215417446331"><ele>287.0</ele><time>2026-04-18T08:03:13Z</time></trkpt><trkpt lat="41.721578886717154" lon="13.621268984913586"><ele>286.8</ele><time>2026-04-18T08:03:15Z</time></trkpt><trkpt lat="41.72163691553422" lon="13.621311625339832"><ele>286.6</ele><time>2026-04-18T08:03:16Z</time></trkpt><trkpt lat="41.72171997325726" lon="13.621372101760501"><ele>286.40000000000003</ele><time>2026-04-18T08:03:17Z</time></trkpt><trkpt lat="41.72182082781232" lon="13.621426304332854"><ele>286.2</ele><time>2026-04-18T08:03:18Z</time></trkpt><trkpt lat="41.72192544342742" lon="13.621481115770985"><ele>286.0</ele><time>2026-04-18T08:03:19Z</time></trkpt><trkpt lat="41.72202017868301" lon="13.62152973334273"><ele>286.0</ele><time>2026-04-18T08:03:20Z</time></trkpt><trkpt lat="41.722100368637726" lon="13.62157225007382"><ele>286.0</ele><time>2026-04-18T08:03:21Z</time></trkpt><trkpt lat="41.72218926998075" lon="13.621617334752845"><ele>286.0</ele><time>2026-04-18T08:03:22Z</time></trkpt><trkpt lat="41.72230973521512" lon="13.621675890540237"><ele>286.0</ele><time>2026-04-18T08:03:23Z</time></trkpt><trkpt lat="41.72244032563336" lon="13.62175003724774"><ele>286.0</ele><time>2026-04-18T08:03:24Z</time></trkpt><trkpt lat="41.722565777194355" lon="13.621823902149732"><ele>286.0</ele><time>2026-04-18T08:03:25Z</time></trkpt><trkpt lat="41.72269319090444" lon="13.621892069717676"><ele>286.0</ele><time>2026-04-18T08:03:26Z</time></trkpt><trkpt lat="41.722823125130084" lon="13.621958172291592"><ele>286.0</ele><time>2026-04-18T08:03:27Z</time></trkpt><trkpt lat="41.72295227523753" lon="13.622023549682055"><ele>286.2</ele><time>2026-04-18T08:03:28Z</time></trkpt><trkpt lat="41.72306806608824" lon="13.622079238216728"><ele>286.40000000000003</ele><time>2026-04-18T08:03:29Z</time></trkpt><trkpt lat="41.72317007064872" lon="13.622129589618323"><ele>286.6</ele><time>2026-04-18T08:03:30Z</time></trkpt><trkpt lat="41.72325413292834" lon="13.622178114582523"><ele>286.8</ele><time>2026-04-18T08:03:31Z</time></trkpt><trkpt lat="41.72332431747365" lon="13.622215628595086"><ele>287.0</ele><time>2026-04-18T08:03:32Z</time></trkpt><trkpt lat="41.723386116419356" lon="13.622249384496529"><ele>287.0</ele><time>2026-04-18T08:03:33Z</time></trkpt><trkpt lat="41.72350144285285" lon="13.622310256918201"><ele>287.0</ele><time>2026-04-18T08:03:35Z</time></trkpt><trkpt lat="41.72356253459434" lon="13.622345706765724"><ele>287.0</ele><time>2026-04-18T08:03:36Z</time></trkpt><trkpt lat="41.72363020547235" lon="13.622378492018306"><ele>287.0</ele><time>2026-04-18T08:03:37Z</time></trkpt><trkpt lat="41.72369295271173" lon="13.622410344847395"><ele>287.0</ele><time>2026-04-18T08:03:38Z</time></trkpt><trkpt lat="41.723752876482195" lon="13.622439156955648"><ele>287.0</ele><time>2026-04-18T08:03:39Z</time></trkpt><trkpt lat="41.72381406440455" lon="13.622471912677977"><ele>287.14285714285717</ele><time>2026-04-18T08:03:40Z</time></trkpt><trkpt lat="41.72387818751287" lon="13.622503100600342"><ele>287.2857142857143</ele><time>2026-04-18T08:03:41Z</time></trkpt><trkpt lat="41.72394164992158" lon="13.622537822115135"><ele>287.42857142857144</ele><time>2026-04-18T08:03:42Z</time></trkpt><trkpt lat="41.724007658585435" lon="13.622571031369263"><ele>287.57142857142856</ele><time>2026-04-18T08:03:43Z</time></trkpt><trkpt lat="41.72407512206901" lon="13.622603770654951"><ele>287.7142857142857</ele><time>2026-04-18T08:03:44Z</time></trkpt><trkpt lat="41.724141858960046" lon="13.622639346325876"><ele>287.8571428571429</ele><time>2026-04-18T08:03:45Z</time></trkpt><trkpt lat="41.72421010922252" lon="13.622678136863067"><ele>288.0</ele><time>2026-04-18T08:03:46Z</time></trkpt><trkpt lat="41.72428099936808" lon="13.622709413128328"><ele>288.0</ele><time>2026-04-18T08:03:47Z</time></trkpt><trkpt lat="41.724353061709365" lon="13.62274071807057"><ele>288.0</ele><time>2026-04-18T08:03:48Z</time></trkpt><trkpt lat="41.72442613251857" lon="13.622773076876667"><ele>288.0</ele><time>2026-04-18T08:03:49Z</time></trkpt><trkpt lat="41.72449854210495" lon="13.622806756295432"><ele>288.0</ele><time>2026-04-18T08:03:50Z</time></trkpt><trkpt lat="41.724561951082855" lon="13.622837015131664"><ele>288.0</ele><time>2026-04-18T08:03:51Z</time></trkpt><trkpt lat="41.72465162058048" lon="13.6228772966067"><ele>288.0</ele><time>2026-04-18T08:03:53Z</time></trkpt><trkpt lat="41.724714392058424" lon="13.622905663813514"><ele>288.14285714285717</ele><time>2026-04-18T08:03:55Z</time></trkpt><trkpt lat="41.72477832953448" lon="13.622934875830786"><ele>288.2857142857143</ele><time>2026-04-18T08:03:58Z</time></trkpt><trkpt lat="41.72484384693103" lon="13.622963235997823"><ele>288.42857142857144</ele><time>2026-04-18T08:04:00Z</time></trkpt><trkpt lat="41.724927680840175" lon="13.623004855718738"><ele>288.57142857142856</ele><time>2026-04-18T08:04:02Z</time></trkpt><trkpt lat="41.725000068826944" lon="13.623040251915933"><ele>288.7142857142857</ele><time>2026-04-18T08:04:04Z</time></trkpt><trkpt lat="41.72506143160384" lon="13.623069000197027"><ele>288.8571428571429</ele><time>2026-04-18T08:04:06Z</time></trkpt><trkpt lat="41.72512567571065" lon="13.623092461848895"><ele>289.0</ele><time>2026-04-18T08:04:09Z</time></trkpt><trkpt lat="41.72518017545653" lon="13.623037029608135"><ele>289.0</ele><time>2026-04-18T08:04:12Z</time></trkpt><trkpt lat="41.72521929322647" lon="13.622956672128316"><ele>289.0</ele><time>2026-04-18T08:04:16Z</time></trkpt><trkpt lat="41.72525892690816" lon="13.622882514144525"><ele>289.0</ele><time>2026-04-18T08:04:48Z</time></trkpt><trkpt lat="41.725321111276" lon="13.622908116007999"><ele>289.0</ele><time>2026-04-18T08:06:22Z</time></trkpt><trkpt lat="41.725257536519706" lon="13.622949836843585"><ele>289.0</ele><time>2026-04-18T08:06:55Z</time></trkpt><trkpt lat="41.72532150523549" lon="13.622917378806878"><ele>289.0</ele><time>2026-04-18T08:10:18Z</time></trkpt><trkpt lat="41.725256389594286" lon="13.622932870611303"><ele>289.0</ele><time>2026-04-18T08:11:22Z</time></trkpt><trkpt lat="41.72524308299136" lon="13.6230161622155"><ele>289.0</ele><time>2026-04-18T08:11:30Z</time></trkpt><trkpt lat="41.7252279813496" lon="13.622907586552646"><ele>289.0</ele><time>2026-04-18T08:19:28Z</time></trkpt><trkpt lat="41.72516491190839" lon="13.622904641686938"><ele>289.0</ele><time>2026-04-18T08:19:36Z</time></trkpt><trkpt lat="41.72513537299876" lon="13.622988227698265"><ele>289.0</ele><time>2026-04-18T08:20:26Z</time></trkpt><trkpt lat="41.72513028009378" lon="13.623081757210644"><ele>289.0</ele><time>2026-04-18T08:20:40Z</time></trkpt><trkpt lat="41.72518077558196" lon="13.62322921516588"><ele>289.0</ele><time>2026-04-18T08:20:42Z</time></trkpt><trkpt lat="41.725257443030536" lon="13.623251117699924"><ele>289.0</ele><time>2026-04-18T08:20:44Z</time></trkpt><trkpt lat="41.72533291622515" lon="13.623088083672338"><ele>289.0</ele><time>2026-04-18T08:24:00Z</time></trkpt><trkpt lat="41.72524257654177" lon="13.623021309704312"><ele>289.0</ele><time>2026-04-18T08:24:02Z</time></trkpt><trkpt lat="41.72522475107322" lon="13.622914046840048"><ele>289.0</ele><time>2026-04-18T08:24:07Z</time></trkpt><trkpt lat="41.72528957130269" lon="13.622873710217787"><ele>289.0</ele><time>2026-04-18T08:24:15Z</time></trkpt><trkpt lat="41.72528444794031" lon="13.62274701791732"><ele>289.0</ele><time>2026-04-18T08:30:33Z</time></trkpt><trkpt lat="41.725236603424236" lon="13.622675944918072"><ele>289.0</ele><time>2026-04-18T08:30:52Z</time></trkpt><trkpt lat="41.72516511568961" lon="13.62271693600494"><ele>289.0</ele><time>2026-04-18T08:31:11Z</time></trkpt><trkpt lat="41.725266639002484" lon="13.622733668885793"><ele>289.0</ele><time>2026-04-18T08:31:45Z</time></trkpt><trkpt lat="41.72526683216102" lon="13.622833188976598"><ele>289.0</ele><time>2026-04-18T08:31:50Z</time></trkpt><trkpt lat="41.72526603961123" lon="13.62293411695382"><ele>289.0</ele><time>2026-04-18T08:49:52Z</time></trkpt><trkpt lat="41.72521909997513" lon="13.622995536570574"><ele>289.0</ele><time>2026-04-18T08:50:52Z</time></trkpt><trkpt lat="41.725179780976696" lon="13.623098096423911"><ele>289.0</ele><time>2026-04-18T08:51:06Z</time></trkpt><trkpt lat="41.72521059597828" lon="13.623194545494314"><ele>289.0</ele><time>2026-04-18T08:51:09Z</time></trkpt><trkpt lat="41.725285050824525" lon="13.623218083170851"><ele>289.0</ele><time>2026-04-18T08:51:12Z</time></trkpt><trkpt lat="41.72541320797316" lon="13.623231844366806"><ele>289.0</ele><time>2026-04-18T08:53:55Z</time></trkpt><trkpt lat="41.7255016044398" lon="13.623240587426299"><ele>288.8</ele><time>2026-04-18T08:54:03Z</time></trkpt><trkpt lat="41.725575612114376" lon="13.623297870823082"><ele>288.59999999999997</ele><time>2026-04-18T08:54:05Z</time></trkpt><trkpt lat="41.72578151654955" lon="13.623360230295262"><ele>288.4</ele><time>2026-04-18T08:54:10Z</time></trkpt><trkpt lat="41.72584304392554" lon="13.623396745122635"><ele>288.2</ele><time>2026-04-18T08:54:11Z</time></trkpt><trkpt lat="41.725907136403556" lon="13.623427764751924"><ele>288.0</ele><time>2026-04-18T08:54:12Z</time></trkpt><trkpt lat="41.725967032644554" lon="13.623461137978934"><ele>288.0</ele><time>2026-04-18T08:54:13Z</time></trkpt><trkpt lat="41.72602677569074" lon="13.623505485220427"><ele>288.0</ele><time>2026-04-18T08:54:14Z</time></trkpt><trkpt lat="41.72609797978905" lon="13.623536399746511"><ele>288.0</ele><time>2026-04-18T08:54:15Z</time></trkpt><trkpt lat="41.72617162874028" lon="13.623579806374192"><ele>288.0</ele><time>2026-04-18T08:54:16Z</time></trkpt><trkpt lat="41.726241364719485" lon="13.623633701486158"><ele>288.0</ele><time>2026-04-18T08:54:17Z</time></trkpt><trkpt lat="41.726302873568564" lon="13.623697456180745"><ele>288.0</ele><time>2026-04-18T08:54:18Z</time></trkpt><trkpt lat="41.726356772871874" lon="13.62376333741886"><ele>288.0</ele><time>2026-04-18T08:54:19Z</time></trkpt><trkpt lat="41.72642087077198" lon="13.623872331869448"><ele>288.0</ele><time>2026-04-18T08:54:21Z</time></trkpt><trkpt lat="41.726493127150924" lon="13.623993949731908"><ele>288.0</ele><time>2026-04-18T08:54:23Z</time></trkpt><trkpt lat="41.72652534838835" lon="13.624075631616387"><ele>288.0</ele><time>2026-04-18T08:54:24Z</time></trkpt><trkpt lat="41.72657642111993" lon="13.624213661877489"><ele>288.0</ele><time>2026-04-18T08:54:26Z</time></trkpt><trkpt lat="41.72653252474405" lon="13.624320659837426"><ele>288.0</ele><time>2026-04-18T08:54:27Z</time></trkpt><trkpt lat="41.726539062926314" lon="13.624498071021362"><ele>288.0</ele><time>2026-04-18T08:54:29Z</time></trkpt><trkpt lat="41.72654382190887" lon="13.624601459387408"><ele>288.0</ele><time>2026-04-18T08:54:30Z</time></trkpt><trkpt lat="41.726544407378675" lon="13.624704622184467"><ele>288.0</ele><time>2026-04-18T08:54:31Z</time></trkpt><trkpt lat="41.726546986638255" lon="13.624797586972845"><ele>288.0</ele><time>2026-04-18T08:54:32Z</time></trkpt><trkpt lat="41.726547214508535" lon="13.624890366526099"><ele>288.0</ele><time>2026-04-18T08:54:33Z</time></trkpt><trkpt lat="41.72654800385123" lon="13.624996765168556"><ele>288.0</ele><time>2026-04-18T08:54:34Z</time></trkpt><trkpt lat="41.72655171112109" lon="13.625104304457974"><ele>288.0</ele><time>2026-04-18T08:54:35Z</time></trkpt><trkpt lat="41.72655572310428" lon="13.625210903325293"><ele>288.0</ele><time>2026-04-18T08:54:36Z</time></trkpt><trkpt lat="41.72655620501632" lon="13.625308580701978"><ele>288.0</ele><time>2026-04-18T08:54:37Z</time></trkpt><trkpt lat="41.7265584023772" lon="13.625404018108009"><ele>288.0</ele><time>2026-04-18T08:54:38Z</time></trkpt><trkpt lat="41.72656150796791" lon="13.62551318269195"><ele>288.0</ele><time>2026-04-18T08:54:39Z</time></trkpt><trkpt lat="41.72656554316162" lon="13.625639643465151"><ele>288.0</ele><time>2026-04-18T08:54:40Z</time></trkpt><trkpt lat="41.72656750603254" lon="13.625780475401116"><ele>288.0</ele><time>2026-04-18T08:54:41Z</time></trkpt><trkpt lat="41.72656819416722" lon="13.625911152208904"><ele>288.0</ele><time>2026-04-18T08:54:42Z</time></trkpt><trkpt lat="41.7265713160594" lon="13.626041756125687"><ele>288.0</ele><time>2026-04-18T08:54:43Z</time></trkpt><trkpt lat="41.72657769844275" lon="13.626193771238684"><ele>288.0</ele><time>2026-04-18T08:54:44Z</time></trkpt><trkpt lat="41.726581459522926" lon="13.626352514414476"><ele>289.0</ele><time>2026-04-18T08:54:45Z</time></trkpt><trkpt lat="41.72658785134623" lon="13.626503447623577"><ele>290.0</ele><time>2026-04-18T08:54:46Z</time></trkpt><trkpt lat="41.72660068178105" lon="13.626652810420929"><ele>291.0</ele><time>2026-04-18T08:54:47Z</time></trkpt><trkpt lat="41.726604519161505" lon="13.626785420361907"><ele>292.0</ele><time>2026-04-18T08:54:48Z</time></trkpt><trkpt lat="41.726609177944226" lon="13.626919731730778"><ele>293.0</ele><time>2026-04-18T08:54:49Z</time></trkpt><trkpt lat="41.726618949386115" lon="13.627121039123484"><ele>295.2</ele><time>2026-04-18T08:54:50Z</time></trkpt><trkpt lat="41.726619505625976" lon="13.62728884554008"><ele>297.4</ele><time>2026-04-18T08:54:51Z</time></trkpt><trkpt lat="41.726621375924715" lon="13.627416312329906"><ele>299.59999999999997</ele><time>2026-04-18T08:54:52Z</time></trkpt><trkpt lat="41.726635785523406" lon="13.627546522538436"><ele>301.8</ele><time>2026-04-18T08:54:53Z</time></trkpt><trkpt lat="41.72664958370154" lon="13.627682675209735"><ele>304.0</ele><time>2026-04-18T08:54:54Z</time></trkpt><trkpt lat="41.72667443230927" lon="13.62783420377084"><ele>304.0</ele><time>2026-04-18T08:54:55Z</time></trkpt><trkpt lat="41.726711938136674" lon="13.628041672386903"><ele>304.0</ele><time>2026-04-18T08:54:56Z</time></trkpt><trkpt lat="41.72674184210495" lon="13.62821696176813"><ele>304.0</ele><time>2026-04-18T08:54:57Z</time></trkpt><trkpt lat="41.726790175014926" lon="13.628401351576281"><ele>304.0</ele><time>2026-04-18T08:54:58Z</time></trkpt><trkpt lat="41.72683473327381" lon="13.62862929250146"><ele>308.66666666666663</ele><time>2026-04-18T08:54:59Z</time></trkpt><trkpt lat="41.72691373558114" lon="13.628859811550342"><ele>313.3333333333333</ele><time>2026-04-18T08:55:00Z</time></trkpt><trkpt lat="41.72696196160067" lon="13.6290715030895"><ele>318.0</ele><time>2026-04-18T08:55:01Z</time></trkpt><trkpt lat="41.72700243706023" lon="13.629248836168944"><ele>318.0</ele><time>2026-04-18T08:55:02Z</time></trkpt><trkpt lat="41.72704130490957" lon="13.629387673669152"><ele>318.0</ele><time>2026-04-18T08:55:03Z</time></trkpt><trkpt lat="41.72707540720602" lon="13.629521532482116"><ele>318.0</ele><time>2026-04-18T08:55:04Z</time></trkpt><trkpt lat="41.72710869321308" lon="13.629657762021424"><ele>318.0</ele><time>2026-04-18T08:55:05Z</time></trkpt><trkpt lat="41.72714087629478" lon="13.629796925596635"><ele>318.0</ele><time>2026-04-18T08:55:06Z</time></trkpt><trkpt lat="41.727169919295584" lon="13.629942803958624"><ele>317.75</ele><time>2026-04-18T08:55:07Z</time></trkpt><trkpt lat="41.72719868002641" lon="13.63010677023061"><ele>317.5</ele><time>2026-04-18T08:55:08Z</time></trkpt><trkpt lat="41.7272217203463" lon="13.63029755964318"><ele>317.25</ele><time>2026-04-18T08:55:09Z</time></trkpt><trkpt lat="41.72722999289403" lon="13.630493964174274"><ele>317.0</ele><time>2026-04-18T08:55:10Z</time></trkpt><trkpt lat="41.727228523118946" lon="13.630656673079448"><ele>318.0</ele><time>2026-04-18T08:55:11Z</time></trkpt><trkpt lat="41.72723153212237" lon="13.630806331673645"><ele>319.0</ele><time>2026-04-18T08:55:12Z</time></trkpt><trkpt lat="41.72723778937581" lon="13.630966176162723"><ele>320.0</ele><time>2026-04-18T08:55:13Z</time></trkpt><trkpt lat="41.72724755847454" lon="13.631117738722448"><ele>321.0</ele><time>2026-04-18T08:55:14Z</time></trkpt><trkpt lat="41.72725117395475" lon="13.631269476900144"><ele>321.5</ele><time>2026-04-18T08:55:15Z</time></trkpt><trkpt lat="41.72725600734086" lon="13.631424995461618"><ele>322.0</ele><time>2026-04-18T08:55:16Z</time></trkpt><trkpt lat="41.727262889865635" lon="13.63160015645067"><ele>322.5</ele><time>2026-04-18T08:55:17Z</time></trkpt><trkpt lat="41.7272603951224" lon="13.631798183756084"><ele>323.0</ele><time>2026-04-18T08:55:18Z</time></trkpt><trkpt lat="41.727274187776324" lon="13.632017702283347"><ele>323.33333333333337</ele><time>2026-04-18T08:55:19Z</time></trkpt><trkpt lat="41.72728169725417" lon="13.63224514733044"><ele>323.6666666666667</ele><time>2026-04-18T08:55:20Z</time></trkpt><trkpt lat="41.72729873679628" lon="13.632486391235581"><ele>324.0</ele><time>2026-04-18T08:55:21Z</time></trkpt><trkpt lat="41.72731158851392" lon="13.632736050638632"><ele>324.0</ele><time>2026-04-18T08:55:22Z</time></trkpt><trkpt lat="41.72732203762538" lon="13.632993885277859"><ele>324.0</ele><time>2026-04-18T08:55:23Z</time></trkpt><trkpt lat="41.727340282293156" lon="13.633227533133002"><ele>324.0</ele><time>2026-04-18T08:55:24Z</time></trkpt><trkpt lat="41.727350657580175" lon="13.633438970374486"><ele>324.0</ele><time>2026-04-18T08:55:25Z</time></trkpt><trkpt lat="41.72736313394145" lon="13.633622920790645"><ele>324.0</ele><time>2026-04-18T08:55:26Z</time></trkpt><trkpt lat="41.72737568370967" lon="13.633805550056008"><ele>324.0</ele><time>2026-04-18T08:55:27Z</time></trkpt><trkpt lat="41.727388246261995" lon="13.633995761646931"><ele>324.0</ele><time>2026-04-18T08:55:28Z</time></trkpt><trkpt lat="41.72739139143356" lon="13.634179746587753"><ele>326.3333333333333</ele><time>2026-04-18T08:55:29Z</time></trkpt><trkpt lat="41.72739419480399" lon="13.634380775284823"><ele>328.66666666666663</ele><time>2026-04-18T08:55:30Z</time></trkpt><trkpt lat="41.727408538813" lon="13.634588881148174"><ele>331.0</ele><time>2026-04-18T08:55:31Z</time></trkpt><trkpt lat="41.72742171798985" lon="13.634812830403542"><ele>331.66666666666663</ele><time>2026-04-18T08:55:32Z</time></trkpt><trkpt lat="41.72742473242151" lon="13.635057451451004"><ele>332.3333333333333</ele><time>2026-04-18T08:55:33Z</time></trkpt><trkpt lat="41.72744864794271" lon="13.635326191070835"><ele>333.0</ele><time>2026-04-18T08:55:34Z</time></trkpt><trkpt lat="41.72746979316003" lon="13.635591833016905"><ele>333.6666666666667</ele><time>2026-04-18T08:55:35Z</time></trkpt><trkpt lat="41.72750010499339" lon="13.63585816800878"><ele>334.33333333333337</ele><time>2026-04-18T08:55:36Z</time></trkpt><trkpt lat="41.72755876063095" lon="13.63613556075568"><ele>335.0</ele><time>2026-04-18T08:55:37Z</time></trkpt><trkpt lat="41.727638759500856" lon="13.63640922400142"><ele>335.5</ele><time>2026-04-18T08:55:38Z</time></trkpt><trkpt lat="41.72772644259784" lon="13.636679896938986"><ele>336.0</ele><time>2026-04-18T08:55:39Z</time></trkpt><trkpt lat="41.72784214023453" lon="13.636945990912047"><ele>346.5</ele><time>2026-04-18T08:55:40Z</time></trkpt><trkpt lat="41.7279785597729" lon="13.63722725595865"><ele>357.0</ele><time>2026-04-18T08:55:41Z</time></trkpt><trkpt lat="41.72810886562588" lon="13.637507935918451"><ele>357.0</ele><time>2026-04-18T08:55:42Z</time></trkpt><trkpt lat="41.728208273362206" lon="13.637768948486155"><ele>357.0</ele><time>2026-04-18T08:55:43Z</time></trkpt><trkpt lat="41.72828777566871" lon="13.638024818097513"><ele>357.0</ele><time>2026-04-18T08:55:44Z</time></trkpt><trkpt lat="41.72835332779597" lon="13.638290334881026"><ele>356.0</ele><time>2026-04-18T08:55:45Z</time></trkpt><trkpt lat="41.72839714860878" lon="13.638564096170162"><ele>355.0</ele><time>2026-04-18T08:55:46Z</time></trkpt><trkpt lat="41.72843597200589" lon="13.638840052377072"><ele>354.0</ele><time>2026-04-18T08:55:47Z</time></trkpt><trkpt lat="41.728445155871015" lon="13.639115400044192"><ele>354.0</ele><time>2026-04-18T08:55:48Z</time></trkpt><trkpt lat="41.728450175833686" lon="13.63938791435351"><ele>354.0</ele><time>2026-04-18T08:55:49Z</time></trkpt><trkpt lat="41.728436700182016" lon="13.639655296640923"><ele>354.0</ele><time>2026-04-18T08:55:50Z</time></trkpt><trkpt lat="41.728437841884435" lon="13.639908256426171"><ele>354.6666666666667</ele><time>2026-04-18T08:55:51Z</time></trkpt><trkpt lat="41.72845120688929" lon="13.640163802086711"><ele>355.33333333333337</ele><time>2026-04-18T08:55:52Z</time></trkpt><trkpt lat="41.728487981072426" lon="13.640431559255244"><ele>356.0</ele><time>2026-04-18T08:55:53Z</time></trkpt><trkpt lat="41.72854947371477" lon="13.640704760245654"><ele>367.0</ele><time>2026-04-18T08:55:54Z</time></trkpt><trkpt lat="41.728644672396925" lon="13.640994357808474"><ele>378.0</ele><time>2026-04-18T08:55:55Z</time></trkpt><trkpt lat="41.728767451064" lon="13.641290065824064"><ele>378.0</ele><time>2026-04-18T08:55:56Z</time></trkpt><trkpt lat="41.72890408526408" lon="13.641600342222139"><ele>378.0</ele><time>2026-04-18T08:55:57Z</time></trkpt><trkpt lat="41.72902893710363" lon="13.64190208837796"><ele>375.5</ele><time>2026-04-18T08:55:58Z</time></trkpt><trkpt lat="41.72914300625316" lon="13.642191446882107"><ele>373.0</ele><time>2026-04-18T08:55:59Z</time></trkpt><trkpt lat="41.72924161500985" lon="13.642472568027138"><ele>373.0</ele><time>2026-04-18T08:56:00Z</time></trkpt><trkpt lat="41.72932235240938" lon="13.642743930876733"><ele>373.0</ele><time>2026-04-18T08:56:01Z</time></trkpt><trkpt lat="41.7293846275088" lon="13.643006009363525"><ele>373.0</ele><time>2026-04-18T08:56:02Z</time></trkpt><trkpt lat="41.72943377178796" lon="13.643264153234298"><ele>379.66666666666663</ele><time>2026-04-18T08:56:03Z</time></trkpt><trkpt lat="41.72947531760858" lon="13.643523611800859"><ele>386.3333333333333</ele><time>2026-04-18T08:56:04Z</time></trkpt><trkpt lat="41.72950472447265" lon="13.643790684768835"><ele>393.0</ele><time>2026-04-18T08:56:05Z</time></trkpt><trkpt lat="41.72951967664497" lon="13.644066295148649"><ele>393.0</ele><time>2026-04-18T08:56:06Z</time></trkpt><trkpt lat="41.72951624488984" lon="13.644348283133917"><ele>393.0</ele><time>2026-04-18T08:56:07Z</time></trkpt><trkpt lat="41.729518101002" lon="13.644643374866828"><ele>393.0</ele><time>2026-04-18T08:56:08Z</time></trkpt><trkpt lat="41.729504187610715" lon="13.644950063873559"><ele>394.0</ele><time>2026-04-18T08:56:09Z</time></trkpt><trkpt lat="41.72949603055142" lon="13.64528734162791"><ele>395.0</ele><time>2026-04-18T08:56:10Z</time></trkpt><trkpt lat="41.729486176254916" lon="13.645631042331019"><ele>396.0</ele><time>2026-04-18T08:56:11Z</time></trkpt><trkpt lat="41.72948024890231" lon="13.645948392397552"><ele>397.0</ele><time>2026-04-18T08:56:12Z</time></trkpt><trkpt lat="41.72947023043331" lon="13.646278101673547"><ele>400.0</ele><time>2026-04-18T08:56:13Z</time></trkpt><trkpt lat="41.729452948479924" lon="13.646644065489285"><ele>403.0</ele><time>2026-04-18T08:56:14Z</time></trkpt><trkpt lat="41.729431002669216" lon="13.647036351875986"><ele>406.5</ele><time>2026-04-18T08:56:15Z</time></trkpt><trkpt lat="41.72941819502747" lon="13.6474297936138"><ele>410.0</ele><time>2026-04-18T08:56:16Z</time></trkpt><trkpt lat="41.729423161392624" lon="13.647782323322886"><ele>412.0</ele><time>2026-04-18T08:56:17Z</time></trkpt><trkpt lat="41.7294560406088" lon="13.648130821658004"><ele>414.0</ele><time>2026-04-18T08:56:18Z</time></trkpt><trkpt lat="41.72951028281391" lon="13.64849265335598"><ele>416.0</ele><time>2026-04-18T08:56:19Z</time></trkpt><trkpt lat="41.729573996063245" lon="13.648866119496017"><ele>418.0</ele><time>2026-04-18T08:56:20Z</time></trkpt><trkpt lat="41.72963169243144" lon="13.649192784903992"><ele>420.0</ele><time>2026-04-18T08:56:21Z</time></trkpt><trkpt lat="41.729670274725805" lon="13.649464993492403"><ele>422.0</ele><time>2026-04-18T08:56:22Z</time></trkpt><trkpt lat="41.729671899735614" lon="13.649741589843332"><ele>424.0</ele><time>2026-04-18T08:56:23Z</time></trkpt><trkpt lat="41.72963737585926" lon="13.650035005513748"><ele>426.5</ele><time>2026-04-18T08:56:24Z</time></trkpt><trkpt lat="41.729601904922276" lon="13.650333083710628"><ele>429.0</ele><time>2026-04-18T08:56:25Z</time></trkpt><trkpt lat="41.72954994238391" lon="13.650635569666168"><ele>429.0</ele><time>2026-04-18T08:56:26Z</time></trkpt><trkpt lat="41.7295222334215" lon="13.65094606808147"><ele>429.0</ele><time>2026-04-18T08:56:27Z</time></trkpt><trkpt lat="41.72948294125036" lon="13.651258097389714"><ele>430.5</ele><time>2026-04-18T08:56:28Z</time></trkpt><trkpt lat="41.729440868412006" lon="13.651570705215931"><ele>432.0</ele><time>2026-04-18T08:56:29Z</time></trkpt><trkpt lat="41.72939312371121" lon="13.651897955293588"><ele>424.5</ele><time>2026-04-18T08:56:30Z</time></trkpt><trkpt lat="41.72932359235953" lon="13.652225852268963"><ele>417.0</ele><time>2026-04-18T08:56:31Z</time></trkpt><trkpt lat="41.729230302750786" lon="13.65256513057394"><ele>424.5</ele><time>2026-04-18T08:56:32Z</time></trkpt><trkpt lat="41.72911600241471" lon="13.652918814129967"><ele>432.0</ele><time>2026-04-18T08:56:33Z</time></trkpt><trkpt lat="41.72898222711377" lon="13.653291189040479"><ele>437.5</ele><time>2026-04-18T08:56:34Z</time></trkpt><trkpt lat="41.72885375872982" lon="13.653683264374607"><ele>443.0</ele><time>2026-04-18T08:56:35Z</time></trkpt><trkpt lat="41.728735598919066" lon="13.65405761150671"><ele>443.0</ele><time>2026-04-18T08:56:36Z</time></trkpt><trkpt lat="41.72864499255951" lon="13.654417386525141"><ele>443.0</ele><time>2026-04-18T08:56:37Z</time></trkpt><trkpt lat="41.728579064650496" lon="13.654797169992852"><ele>442.0</ele><time>2026-04-18T08:56:38Z</time></trkpt><trkpt lat="41.728508089847644" lon="13.655172548214068"><ele>441.0</ele><time>2026-04-18T08:56:39Z</time></trkpt><trkpt lat="41.72843842336254" lon="13.655539519412804"><ele>441.0</ele><time>2026-04-18T08:56:40Z</time></trkpt><trkpt lat="41.728370850171274" lon="13.655895937651877"><ele>441.0</ele><time>2026-04-18T08:56:41Z</time></trkpt><trkpt lat="41.72830264903712" lon="13.656246449533905"><ele>440.5</ele><time>2026-04-18T08:56:42Z</time></trkpt><trkpt lat="41.72823821799107" lon="13.656593062811273"><ele>440.0</ele><time>2026-04-18T08:56:43Z</time></trkpt><trkpt lat="41.7281698668449" lon="13.656937759460067"><ele>439.5</ele><time>2026-04-18T08:56:44Z</time></trkpt><trkpt lat="41.72810546040438" lon="13.657295919329867"><ele>439.0</ele><time>2026-04-18T08:56:45Z</time></trkpt><trkpt lat="41.728062440844184" lon="13.657680526308104"><ele>438.5</ele><time>2026-04-18T08:56:46Z</time></trkpt><trkpt lat="41.72803346165091" lon="13.658039750748873"><ele>438.0</ele><time>2026-04-18T08:56:47Z</time></trkpt><trkpt lat="41.72800743249815" lon="13.658362871333111"><ele>440.0</ele><time>2026-04-18T08:56:48Z</time></trkpt><trkpt lat="41.727972542674635" lon="13.65866586404612"><ele>442.0</ele><time>2026-04-18T08:56:49Z</time></trkpt><trkpt lat="41.727916147855844" lon="13.658989466963723"><ele>442.0</ele><time>2026-04-18T08:56:50Z</time></trkpt><trkpt lat="41.72783861885728" lon="13.65934042635629"><ele>442.0</ele><time>2026-04-18T08:56:51Z</time></trkpt><trkpt lat="41.72775249728876" lon="13.65970286081583"><ele>449.5</ele><time>2026-04-18T08:56:52Z</time></trkpt><trkpt lat="41.72765809924713" lon="13.66006580979444"><ele>457.0</ele><time>2026-04-18T08:56:53Z</time></trkpt><trkpt lat="41.727567567147574" lon="13.66041767295211"><ele>457.0</ele><time>2026-04-18T08:56:54Z</time></trkpt><trkpt lat="41.72749220596595" lon="13.660711601682376"><ele>457.0</ele><time>2026-04-18T08:56:55Z</time></trkpt><trkpt lat="41.72741717352842" lon="13.66095222966168"><ele>457.0</ele><time>2026-04-18T08:56:56Z</time></trkpt><trkpt lat="41.72732098199384" lon="13.661177910087659"><ele>460.0</ele><time>2026-04-18T08:56:57Z</time></trkpt><trkpt lat="41.72717859488236" lon="13.66140090982008"><ele>463.0</ele><time>2026-04-18T08:56:58Z</time></trkpt><trkpt lat="41.72702811796041" lon="13.661601403969554"><ele>466.0</ele><time>2026-04-18T08:56:59Z</time></trkpt><trkpt lat="41.72689021379851" lon="13.661798476585663"><ele>464.33333333333337</ele><time>2026-04-18T08:57:00Z</time></trkpt><trkpt lat="41.72678946639835" lon="13.662029872307116"><ele>462.66666666666663</ele><time>2026-04-18T08:57:01Z</time></trkpt><trkpt lat="41.726710786527015" lon="13.662269507006659"><ele>461.0</ele><time>2026-04-18T08:57:02Z</time></trkpt><trkpt lat="41.72664723706533" lon="13.662536672834282"><ele>459.5</ele><time>2026-04-18T08:57:03Z</time></trkpt><trkpt lat="41.72659778992858" lon="13.662852736692104"><ele>458.0</ele><time>2026-04-18T08:57:04Z</time></trkpt><trkpt lat="41.726564402706025" lon="13.663207470108809"><ele>458.0</ele><time>2026-04-18T08:57:05Z</time></trkpt><trkpt lat="41.72655596181498" lon="13.663566838618568"><ele>458.0</ele><time>2026-04-18T08:57:06Z</time></trkpt><trkpt lat="41.72654072390756" lon="13.66387143828677"><ele>455.0</ele><time>2026-04-18T08:57:07Z</time></trkpt><trkpt lat="41.72650369752074" lon="13.664168642614236"><ele>452.0</ele><time>2026-04-18T08:57:08Z</time></trkpt><trkpt lat="41.726418788783995" lon="13.664474011934981"><ele>450.66666666666663</ele><time>2026-04-18T08:57:09Z</time></trkpt><trkpt lat="41.72632122877151" lon="13.664745696788795"><ele>449.33333333333337</ele><time>2026-04-18T08:57:10Z</time></trkpt><trkpt lat="41.72622651141966" lon="13.6650040324361"><ele>448.0</ele><time>2026-04-18T08:57:11Z</time></trkpt><trkpt lat="41.72613506767017" lon="13.665278566444595"><ele>453.0</ele><time>2026-04-18T08:57:12Z</time></trkpt><trkpt lat="41.72603868155699" lon="13.665557788698488"><ele>458.0</ele><time>2026-04-18T08:57:13Z</time></trkpt><trkpt lat="41.7259458879037" lon="13.665836445737552"><ele>458.0</ele><time>2026-04-18T08:57:14Z</time></trkpt><trkpt lat="41.725867328372" lon="13.666109679434145"><ele>458.0</ele><time>2026-04-18T08:57:15Z</time></trkpt><trkpt lat="41.7258175750337" lon="13.666361588421786"><ele>458.0</ele><time>2026-04-18T08:57:16Z</time></trkpt><trkpt lat="41.72580803270484" lon="13.666603320119423"><ele>460.3333333333333</ele><time>2026-04-18T08:57:17Z</time></trkpt><trkpt lat="41.72584108669294" lon="13.666848977608097"><ele>462.66666666666663</ele><time>2026-04-18T08:57:18Z</time></trkpt><trkpt lat="41.725911690265576" lon="13.667101038334836"><ele>465.0</ele><time>2026-04-18T08:57:19Z</time></trkpt><trkpt lat="41.72599653918648" lon="13.667361796057577"><ele>468.33333333333337</ele><time>2026-04-18T08:57:20Z</time></trkpt><trkpt lat="41.72606403500092" lon="13.667635481878344"><ele>471.6666666666667</ele><time>2026-04-18T08:57:21Z</time></trkpt><trkpt lat="41.726101919945165" lon="13.66789581734312"><ele>475.0</ele><time>2026-04-18T08:57:22Z</time></trkpt><trkpt lat="41.7261161231957" lon="13.668152342878363"><ele>477.33333333333337</ele><time>2026-04-18T08:57:23Z</time></trkpt><trkpt lat="41.72610399590775" lon="13.668399230141446"><ele>479.66666666666663</ele><time>2026-04-18T08:57:24Z</time></trkpt><trkpt lat="41.72604812729006" lon="13.668633850163374"><ele>482.0</ele><time>2026-04-18T08:57:25Z</time></trkpt><trkpt lat="41.72597573591726" lon="13.66886914192653"><ele>482.0</ele><time>2026-04-18T08:57:26Z</time></trkpt><trkpt lat="41.725852284290056" lon="13.669077719112352"><ele>482.0</ele><time>2026-04-18T08:57:27Z</time></trkpt><trkpt lat="41.72569195837105" lon="13.669265306758673"><ele>482.0</ele><time>2026-04-18T08:57:28Z</time></trkpt><trkpt lat="41.72550955175403" lon="13.669438680509"><ele>484.5</ele><time>2026-04-18T08:57:29Z</time></trkpt><trkpt lat="41.72530836133995" lon="13.66957597393719"><ele>487.0</ele><time>2026-04-18T08:57:30Z</time></trkpt><trkpt lat="41.72508940756539" lon="13.669692332608905"><ele>487.0</ele><time>2026-04-18T08:57:31Z</time></trkpt><trkpt lat="41.724907911440766" lon="13.669855059612509"><ele>487.0</ele><time>2026-04-18T08:57:32Z</time></trkpt><trkpt lat="41.724774726058" lon="13.669997385111747"><ele>487.0</ele><time>2026-04-18T08:57:33Z</time></trkpt><trkpt lat="41.724674003954554" lon="13.670188367973589"><ele>491.0</ele><time>2026-04-18T08:57:34Z</time></trkpt><trkpt lat="41.724606417092126" lon="13.670428118030332"><ele>495.0</ele><time>2026-04-18T08:57:35Z</time></trkpt><trkpt lat="41.72457932563234" lon="13.670671553277684"><ele>499.0</ele><time>2026-04-18T08:57:36Z</time></trkpt><trkpt lat="41.72459564794181" lon="13.670882707778192"><ele>499.0</ele><time>2026-04-18T08:57:37Z</time></trkpt><trkpt lat="41.72461033333544" lon="13.671093852421825"><ele>499.0</ele><time>2026-04-18T08:57:38Z</time></trkpt><trkpt lat="41.724554189837775" lon="13.67130247845923"><ele>499.0</ele><time>2026-04-18T08:57:39Z</time></trkpt><trkpt lat="41.72446391149129" lon="13.671520697326926"><ele>496.33333333333337</ele><time>2026-04-18T08:57:40Z</time></trkpt><trkpt lat="41.724340000562044" lon="13.671746330494987"><ele>493.66666666666663</ele><time>2026-04-18T08:57:41Z</time></trkpt><trkpt lat="41.72417841161585" lon="13.671957375251244"><ele>491.0</ele><time>2026-04-18T08:57:42Z</time></trkpt><trkpt lat="41.724001650251054" lon="13.672182162386042"><ele>501.5</ele><time>2026-04-18T08:57:43Z</time></trkpt><trkpt lat="41.72381311589792" lon="13.672391404512105"><ele>512.0</ele><time>2026-04-18T08:57:44Z</time></trkpt><trkpt lat="41.72364713587776" lon="13.67256910031854"><ele>508.66666666666663</ele><time>2026-04-18T08:57:45Z</time></trkpt><trkpt lat="41.72350942521592" lon="13.67273205153881"><ele>505.33333333333337</ele><time>2026-04-18T08:57:46Z</time></trkpt><trkpt lat="41.723410141085076" lon="13.672899281204119"><ele>502.0</ele><time>2026-04-18T08:57:47Z</time></trkpt><trkpt lat="41.72333660403484" lon="13.673105701142795"><ele>502.0</ele><time>2026-04-18T08:57:48Z</time></trkpt><trkpt lat="41.72328330400576" lon="13.673387925628447"><ele>502.0</ele><time>2026-04-18T08:57:49Z</time></trkpt><trkpt lat="41.723220984415796" lon="13.673721380091859"><ele>508.0</ele><time>2026-04-18T08:57:50Z</time></trkpt><trkpt lat="41.723183145039634" lon="13.674045019527878"><ele>514.0</ele><time>2026-04-18T08:57:51Z</time></trkpt><trkpt lat="41.72312467619478" lon="13.674350944980787"><ele>519.5</ele><time>2026-04-18T08:57:52Z</time></trkpt><trkpt lat="41.72306644443983" lon="13.674663982300578"><ele>525.0</ele><time>2026-04-18T08:57:53Z</time></trkpt><trkpt lat="41.72300267190815" lon="13.674984200813858"><ele>526.0</ele><time>2026-04-18T08:57:54Z</time></trkpt><trkpt lat="41.7229484137635" lon="13.675286782542011"><ele>527.0</ele><time>2026-04-18T08:57:55Z</time></trkpt><trkpt lat="41.722905583429636" lon="13.675565524303126"><ele>528.0</ele><time>2026-04-18T08:57:56Z</time></trkpt><trkpt lat="41.722922635666194" lon="13.675826284335749"><ele>528.0</ele><time>2026-04-18T08:57:57Z</time></trkpt><trkpt lat="41.722981254793545" lon="13.676060919615193"><ele>528.0</ele><time>2026-04-18T08:57:58Z</time></trkpt><trkpt lat="41.723060619426235" lon="13.676341900446028"><ele>528.0</ele><time>2026-04-18T08:57:59Z</time></trkpt><trkpt lat="41.72319554574092" lon="13.6766167327928"><ele>521.5</ele><time>2026-04-18T08:58:00Z</time></trkpt><trkpt lat="41.72335942014224" lon="13.676878121589933"><ele>515.0</ele><time>2026-04-18T08:58:01Z</time></trkpt><trkpt lat="41.723543937850664" lon="13.677169687027806"><ele>522.5</ele><time>2026-04-18T08:58:02Z</time></trkpt><trkpt lat="41.72373799843208" lon="13.677473194428341"><ele>530.0</ele><time>2026-04-18T08:58:03Z</time></trkpt><trkpt lat="41.72392404207024" lon="13.677767685630807"><ele>526.5</ele><time>2026-04-18T08:58:04Z</time></trkpt><trkpt lat="41.7241127748495" lon="13.678067201667615"><ele>523.0</ele><time>2026-04-18T08:58:05Z</time></trkpt><trkpt lat="41.72430097443349" lon="13.678364498390513"><ele>528.5</ele><time>2026-04-18T08:58:06Z</time></trkpt><trkpt lat="41.7244754884365" lon="13.678640688086292"><ele>534.0</ele><time>2026-04-18T08:58:07Z</time></trkpt><trkpt lat="41.724632792467524" lon="13.678887915155064"><ele>534.0</ele><time>2026-04-18T08:58:08Z</time></trkpt><trkpt lat="41.72478370613696" lon="13.679098204727559"><ele>534.0</ele><time>2026-04-18T08:58:09Z</time></trkpt><trkpt lat="41.724895788478484" lon="13.679333629903851"><ele>534.0</ele><time>2026-04-18T08:58:10Z</time></trkpt><trkpt lat="41.72496858202343" lon="13.679602646534757"><ele>534.3333333333334</ele><time>2026-04-18T08:58:11Z</time></trkpt><trkpt lat="41.725039028748256" lon="13.679891259042021"><ele>534.6666666666667</ele><time>2026-04-18T08:58:12Z</time></trkpt><trkpt lat="41.72506370923149" lon="13.680181695864622"><ele>535.0</ele><time>2026-04-18T08:58:13Z</time></trkpt><trkpt lat="41.72505449718707" lon="13.680470949850926"><ele>538.0</ele><time>2026-04-18T08:58:14Z</time></trkpt><trkpt lat="41.72502306232643" lon="13.680758344363355"><ele>541.0</ele><time>2026-04-18T08:58:15Z</time></trkpt><trkpt lat="41.72497075781532" lon="13.681039827839662"><ele>544.0</ele><time>2026-04-18T08:58:16Z</time></trkpt><trkpt lat="41.72487301850741" lon="13.681304209983619"><ele>552.5</ele><time>2026-04-18T08:58:17Z</time></trkpt><trkpt lat="41.72474637231687" lon="13.68156216228291"><ele>561.0</ele><time>2026-04-18T08:58:18Z</time></trkpt><trkpt lat="41.724611206984896" lon="13.681810879897922"><ele>558.6666666666666</ele><time>2026-04-18T08:58:19Z</time></trkpt><trkpt lat="41.72445488300232" lon="13.682015515337763"><ele>556.3333333333333</ele><time>2026-04-18T08:58:20Z</time></trkpt><trkpt lat="41.72426755455356" lon="13.68217673875964"><ele>554.0</ele><time>2026-04-18T08:58:21Z</time></trkpt><trkpt lat="41.7240705392008" lon="13.682328686032664"><ele>554.0</ele><time>2026-04-18T08:58:22Z</time></trkpt><trkpt lat="41.723840992354006" lon="13.682506082494026"><ele>554.0</ele><time>2026-04-18T08:58:23Z</time></trkpt><trkpt lat="41.72364948957372" lon="13.682703767399962"><ele>552.6666666666666</ele><time>2026-04-18T08:58:24Z</time></trkpt><trkpt lat="41.72348904999329" lon="13.682899225727787"><ele>551.3333333333334</ele><time>2026-04-18T08:58:25Z</time></trkpt><trkpt lat="41.72335278070594" lon="13.68309191106639"><ele>550.0</ele><time>2026-04-18T08:58:26Z</time></trkpt><trkpt lat="41.72325809020554" lon="13.683292917611292"><ele>550.0</ele><time>2026-04-18T08:58:27Z</time></trkpt><trkpt lat="41.723204780842984" lon="13.683504117035586"><ele>550.0</ele><time>2026-04-18T08:58:28Z</time></trkpt><trkpt lat="41.72319538494655" lon="13.68371017091647"><ele>550.0</ele><time>2026-04-18T08:58:29Z</time></trkpt><trkpt lat="41.723222686757595" lon="13.68393379765546"><ele>548.3333333333334</ele><time>2026-04-18T08:58:30Z</time></trkpt><trkpt lat="41.72328776219499" lon="13.684148323289728"><ele>546.6666666666666</ele><time>2026-04-18T08:58:31Z</time></trkpt><trkpt lat="41.723376262544036" lon="13.684320953262942"><ele>545.0</ele><time>2026-04-18T08:58:32Z</time></trkpt><trkpt lat="41.72349655335278" lon="13.684459949530865"><ele>546.6666666666666</ele><time>2026-04-18T08:58:33Z</time></trkpt><trkpt lat="41.72362647639601" lon="13.684591458848653"><ele>548.3333333333334</ele><time>2026-04-18T08:58:34Z</time></trkpt><trkpt lat="41.723708157095146" lon="13.684696797384749"><ele>550.0</ele><time>2026-04-18T08:58:35Z</time></trkpt><trkpt lat="41.72389628863475" lon="13.684783594569781"><ele>550.0</ele><time>2026-04-18T08:58:36Z</time></trkpt><trkpt lat="41.72409467899248" lon="13.684876979028713"><ele>550.0</ele><time>2026-04-18T08:58:37Z</time></trkpt><trkpt lat="41.72430138286358" lon="13.685006960737471"><ele>550.0</ele><time>2026-04-18T08:58:38Z</time></trkpt><trkpt lat="41.72449694103925" lon="13.685129465083449"><ele>553.5</ele><time>2026-04-18T08:58:39Z</time></trkpt><trkpt lat="41.72469160152889" lon="13.685288066933284"><ele>557.0</ele><time>2026-04-18T08:58:40Z</time></trkpt><trkpt lat="41.72490325775106" lon="13.68547201154517"><ele>557.0</ele><time>2026-04-18T08:58:41Z</time></trkpt><trkpt lat="41.72510389697482" lon="13.685712821095697"><ele>557.0</ele><time>2026-04-18T08:58:42Z</time></trkpt><trkpt lat="41.725291408651664" lon="13.68595500416183"><ele>558.5</ele><time>2026-04-18T08:58:43Z</time></trkpt><trkpt lat="41.72546989936032" lon="13.686183888786578"><ele>560.0</ele><time>2026-04-18T08:58:44Z</time></trkpt><trkpt lat="41.725653982668085" lon="13.68641831294977"><ele>560.0</ele><time>2026-04-18T08:58:45Z</time></trkpt><trkpt lat="41.7258467218194" lon="13.68661530615046"><ele>560.0</ele><time>2026-04-18T08:58:46Z</time></trkpt><trkpt lat="41.72604955267899" lon="13.686781844651192"><ele>558.0</ele><time>2026-04-18T08:58:47Z</time></trkpt><trkpt lat="41.72626740026927" lon="13.68691184724384"><ele>556.0</ele><time>2026-04-18T08:58:48Z</time></trkpt><trkpt lat="41.72649774644198" lon="13.687018276579867"><ele>556.0</ele><time>2026-04-18T08:58:49Z</time></trkpt><trkpt lat="41.72673817160378" lon="13.68709242932508"><ele>556.0</ele><time>2026-04-18T08:58:50Z</time></trkpt><trkpt lat="41.72696755427006" lon="13.687109573102017"><ele>553.5</ele><time>2026-04-18T08:58:51Z</time></trkpt><trkpt lat="41.72719656170394" lon="13.687071144258756"><ele>551.0</ele><time>2026-04-18T08:58:52Z</time></trkpt><trkpt lat="41.72744663856107" lon="13.686989074064558"><ele>559.0</ele><time>2026-04-18T08:58:53Z</time></trkpt><trkpt lat="41.72772025883893" lon="13.686897686607272"><ele>567.0</ele><time>2026-04-18T08:58:54Z</time></trkpt><trkpt lat="41.72801708419624" lon="13.68680529785617"><ele>567.0</ele><time>2026-04-18T08:58:55Z</time></trkpt><trkpt lat="41.72832291396189" lon="13.686723277925777"><ele>567.0</ele><time>2026-04-18T08:58:56Z</time></trkpt><trkpt lat="41.728620265821405" lon="13.686639044991127"><ele>566.0</ele><time>2026-04-18T08:58:57Z</time></trkpt><trkpt lat="41.72890161462936" lon="13.686562921278458"><ele>565.0</ele><time>2026-04-18T08:58:58Z</time></trkpt><trkpt lat="41.72917988669055" lon="13.686490779172702"><ele>566.5</ele><time>2026-04-18T08:58:59Z</time></trkpt><trkpt lat="41.729447087646506" lon="13.686428408727387"><ele>568.0</ele><time>2026-04-18T08:59:00Z</time></trkpt><trkpt lat="41.7297200075446" lon="13.686370703863789"><ele>568.0</ele><time>2026-04-18T08:59:01Z</time></trkpt><trkpt lat="41.73000189389498" lon="13.686362883606781"><ele>568.0</ele><time>2026-04-18T08:59:02Z</time></trkpt><trkpt lat="41.73028619345591" lon="13.68640639021947"><ele>570.0</ele><time>2026-04-18T08:59:03Z</time></trkpt><trkpt lat="41.73056504121078" lon="13.686520357876109"><ele>572.0</ele><time>2026-04-18T08:59:04Z</time></trkpt><trkpt lat="41.730828989550766" lon="13.686642867261993"><ele>571.5</ele><time>2026-04-18T08:59:05Z</time></trkpt><trkpt lat="41.73108796077379" lon="13.686796515510498"><ele>571.0</ele><time>2026-04-18T08:59:06Z</time></trkpt><trkpt lat="41.731347413106135" lon="13.686971564274124"><ele>571.0</ele><time>2026-04-18T08:59:07Z</time></trkpt><trkpt lat="41.731586790563505" lon="13.687170905049687"><ele>571.0</ele><time>2026-04-18T08:59:08Z</time></trkpt><trkpt lat="41.731799755987744" lon="13.687330220101108"><ele>575.0</ele><time>2026-04-18T08:59:09Z</time></trkpt><trkpt lat="41.73199804007351" lon="13.687529595058194"><ele>579.0</ele><time>2026-04-18T08:59:10Z</time></trkpt><trkpt lat="41.7321465125923" lon="13.687728035585213"><ele>578.3333333333334</ele><time>2026-04-18T08:59:11Z</time></trkpt><trkpt lat="41.73223250697989" lon="13.687971149558015"><ele>577.6666666666667</ele><time>2026-04-18T08:59:12Z</time></trkpt><trkpt lat="41.73228498128944" lon="13.688233145697865"><ele>577.0</ele><time>2026-04-18T08:59:13Z</time></trkpt><trkpt lat="41.732308425139124" lon="13.68851761385837"><ele>579.3333333333334</ele><time>2026-04-18T08:59:14Z</time></trkpt><trkpt lat="41.7323059815703" lon="13.688807600145775"><ele>581.6666666666666</ele><time>2026-04-18T08:59:15Z</time></trkpt><trkpt lat="41.73226671758814" lon="13.689077560740925"><ele>584.0</ele><time>2026-04-18T08:59:16Z</time></trkpt><trkpt lat="41.73219248479035" lon="13.689357069488585"><ele>592.0</ele><time>2026-04-18T08:59:17Z</time></trkpt><trkpt lat="41.7320748421503" lon="13.68963620752332"><ele>600.0</ele><time>2026-04-18T08:59:18Z</time></trkpt><trkpt lat="41.73193187793182" lon="13.689918293598119"><ele>599.5</ele><time>2026-04-18T08:59:19Z</time></trkpt><trkpt lat="41.73178339469631" lon="13.690203120580497"><ele>599.0</ele><time>2026-04-18T08:59:20Z</time></trkpt><trkpt lat="41.731647379834186" lon="13.690499372025856"><ele>599.0</ele><time>2026-04-18T08:59:21Z</time></trkpt><trkpt lat="41.73153094680393" lon="13.690826723424417"><ele>599.0</ele><time>2026-04-18T08:59:22Z</time></trkpt><trkpt lat="41.731435340686254" lon="13.691187640553023"><ele>602.0</ele><time>2026-04-18T08:59:23Z</time></trkpt><trkpt lat="41.73135731486571" lon="13.691574833365124"><ele>605.0</ele><time>2026-04-18T08:59:24Z</time></trkpt><trkpt lat="41.73128652274895" lon="13.691961402323736"><ele>606.0</ele><time>2026-04-18T08:59:25Z</time></trkpt><trkpt lat="41.73121015264751" lon="13.692315872894406"><ele>607.0</ele><time>2026-04-18T08:59:26Z</time></trkpt><trkpt lat="41.73112392170943" lon="13.692642619598002"><ele>602.0</ele><time>2026-04-18T08:59:27Z</time></trkpt><trkpt lat="41.73101912908829" lon="13.692963582809117"><ele>597.0</ele><time>2026-04-18T08:59:28Z</time></trkpt><trkpt lat="41.73087390856683" lon="13.69328482906861"><ele>598.0</ele><time>2026-04-18T08:59:29Z</time></trkpt><trkpt lat="41.730718752034264" lon="13.693593376680566"><ele>599.0</ele><time>2026-04-18T08:59:30Z</time></trkpt><trkpt lat="41.73054571179064" lon="13.693888683025014"><ele>599.0</ele><time>2026-04-18T08:59:31Z</time></trkpt><trkpt lat="41.73037266033323" lon="13.694167529302886"><ele>599.0</ele><time>2026-04-18T08:59:32Z</time></trkpt><trkpt lat="41.7302268393307" lon="13.694436455481625"><ele>601.6666666666666</ele><time>2026-04-18T08:59:33Z</time></trkpt><trkpt lat="41.73011198500963" lon="13.69468891847993"><ele>604.3333333333334</ele><time>2026-04-18T08:59:34Z</time></trkpt><trkpt lat="41.73003596743043" lon="13.69493891351265"><ele>607.0</ele><time>2026-04-18T08:59:35Z</time></trkpt><trkpt lat="41.72998683444038" lon="13.69519536426141"><ele>610.0</ele><time>2026-04-18T08:59:36Z</time></trkpt><trkpt lat="41.72997715169289" lon="13.695458021160801"><ele>613.0</ele><time>2026-04-18T08:59:37Z</time></trkpt><trkpt lat="41.72999943338711" lon="13.695717793788566"><ele>616.0</ele><time>2026-04-18T08:59:38Z</time></trkpt><trkpt lat="41.73005584557477" lon="13.695956012764704"><ele>619.6666666666667</ele><time>2026-04-18T08:59:39Z</time></trkpt><trkpt lat="41.73014414016632" lon="13.696185000791651"><ele>623.3333333333334</ele><time>2026-04-18T08:59:40Z</time></trkpt><trkpt lat="41.73027647593112" lon="13.69639946117757"><ele>627.0</ele><time>2026-04-18T08:59:41Z</time></trkpt><trkpt lat="41.73043687552613" lon="13.696593625056732"><ele>627.0</ele><time>2026-04-18T08:59:42Z</time></trkpt><trkpt lat="41.730620649943496" lon="13.696763671835482"><ele>627.0</ele><time>2026-04-18T08:59:43Z</time></trkpt><trkpt lat="41.730794575352434" lon="13.696928980891103"><ele>627.0</ele><time>2026-04-18T08:59:44Z</time></trkpt><trkpt lat="41.73091532709198" lon="13.697025401937479"><ele>633.6666666666666</ele><time>2026-04-18T08:59:45Z</time></trkpt><trkpt lat="41.73107790393857" lon="13.69708938922836"><ele>640.3333333333333</ele><time>2026-04-18T08:59:46Z</time></trkpt><trkpt lat="41.73126714698275" lon="13.697093842166472"><ele>647.0</ele><time>2026-04-18T08:59:47Z</time></trkpt><trkpt lat="41.731500882068694" lon="13.69703713647191"><ele>647.0</ele><time>2026-04-18T08:59:48Z</time></trkpt><trkpt lat="41.731703076498555" lon="13.696946926888232"><ele>647.0</ele><time>2026-04-18T08:59:49Z</time></trkpt><trkpt lat="41.73188525343894" lon="13.696857732564848"><ele>647.0</ele><time>2026-04-18T08:59:50Z</time></trkpt><trkpt lat="41.732071402586804" lon="13.696788923038891"><ele>649.5</ele><time>2026-04-18T08:59:51Z</time></trkpt><trkpt lat="41.732261619778846" lon="13.696723261141651"><ele>652.0</ele><time>2026-04-18T08:59:52Z</time></trkpt><trkpt lat="41.73247840571264" lon="13.696010259206512"><ele>655.5</ele><time>2026-04-18T08:59:53Z</time></trkpt><trkpt lat="41.73267587538923" lon="13.695767405760627"><ele>659.0</ele><time>2026-04-18T08:59:54Z</time></trkpt><trkpt lat="41.732886829851495" lon="13.695518907361546"><ele>659.0</ele><time>2026-04-18T08:59:55Z</time></trkpt><trkpt lat="41.733078136479264" lon="13.695274022844407"><ele>659.0</ele><time>2026-04-18T08:59:56Z</time></trkpt><trkpt lat="41.7332637760736" lon="13.695028241385016"><ele>662.5</ele><time>2026-04-18T08:59:57Z</time></trkpt><trkpt lat="41.73344432574154" lon="13.694781009906475"><ele>666.0</ele><time>2026-04-18T08:59:58Z</time></trkpt><trkpt lat="41.733629399301" lon="13.69456741303109"><ele>658.5</ele><time>2026-04-18T08:59:59Z</time></trkpt><trkpt lat="41.733833331790954" lon="13.694392058920233"><ele>651.0</ele><time>2026-04-18T09:00:00Z</time></trkpt><trkpt lat="41.73405973188989" lon="13.69425674518738"><ele>651.0</ele><time>2026-04-18T09:00:01Z</time></trkpt><trkpt lat="41.73429800808057" lon="13.694150757170304"><ele>651.0</ele><time>2026-04-18T09:00:02Z</time></trkpt><trkpt lat="41.73453730772191" lon="13.694078887522416"><ele>655.5</ele><time>2026-04-18T09:00:03Z</time></trkpt><trkpt lat="41.734768135423984" lon="13.694053922465777"><ele>660.0</ele><time>2026-04-18T09:00:04Z</time></trkpt><trkpt lat="41.734986304538914" lon="13.694044131970314"><ele>660.0</ele><time>2026-04-18T09:00:05Z</time></trkpt><trkpt lat="41.73520259375672" lon="13.69407345530834"><ele>660.0</ele><time>2026-04-18T09:00:06Z</time></trkpt><trkpt lat="41.735411113692436" lon="13.69413774491466"><ele>660.0</ele><time>2026-04-18T09:00:07Z</time></trkpt><trkpt lat="41.73562066637486" lon="13.694241853669185"><ele>660.0</ele><time>2026-04-18T09:00:08Z</time></trkpt><trkpt lat="41.735864351796835" lon="13.69434992796249"><ele>660.0</ele><time>2026-04-18T09:00:09Z</time></trkpt><trkpt lat="41.73612460156785" lon="13.694478962403867"><ele>669.5</ele><time>2026-04-18T09:00:10Z</time></trkpt><trkpt lat="41.73637653661074" lon="13.694563289674905"><ele>679.0</ele><time>2026-04-18T09:00:11Z</time></trkpt><trkpt lat="41.73659585473692" lon="13.69457039775854"><ele>679.0</ele><time>2026-04-18T09:00:12Z</time></trkpt><trkpt lat="41.736849049890864" lon="13.694571661501884"><ele>679.0</ele><time>2026-04-18T09:00:13Z</time></trkpt><trkpt lat="41.73711851356927" lon="13.69451817361617"><ele>671.0</ele><time>2026-04-18T09:00:14Z</time></trkpt><trkpt lat="41.73740537768148" lon="13.694418495399052"><ele>663.0</ele><time>2026-04-18T09:00:15Z</time></trkpt><trkpt lat="41.73766841218455" lon="13.694386490062316"><ele>664.0</ele><time>2026-04-18T09:00:16Z</time></trkpt><trkpt lat="41.737927140236046" lon="13.69439275279096"><ele>665.0</ele><time>2026-04-18T09:00:17Z</time></trkpt><trkpt lat="41.738177861717794" lon="13.694448707771892"><ele>675.0</ele><time>2026-04-18T09:00:18Z</time></trkpt><trkpt lat="41.73841887097584" lon="13.694533140749943"><ele>685.0</ele><time>2026-04-18T09:00:19Z</time></trkpt><trkpt lat="41.73866104720049" lon="13.69462391822459"><ele>685.0</ele><time>2026-04-18T09:00:20Z</time></trkpt><trkpt lat="41.738882457643285" lon="13.694734048138324"><ele>685.0</ele><time>2026-04-18T09:00:21Z</time></trkpt><trkpt lat="41.739093259811554" lon="13.694879239144681"><ele>685.0</ele><time>2026-04-18T09:00:22Z</time></trkpt><trkpt lat="41.73928011177169" lon="13.695063025099603"><ele>685.0</ele><time>2026-04-18T09:00:23Z</time></trkpt><trkpt lat="41.73945660837408" lon="13.695282775640315"><ele>688.5</ele><time>2026-04-18T09:00:24Z</time></trkpt><trkpt lat="41.73962591696779" lon="13.6955279034074"><ele>692.0</ele><time>2026-04-18T09:00:25Z</time></trkpt><trkpt lat="41.73980653999066" lon="13.695764792592271"><ele>692.0</ele><time>2026-04-18T09:00:26Z</time></trkpt><trkpt lat="41.73998647388221" lon="13.695998538123792"><ele>692.0</ele><time>2026-04-18T09:00:27Z</time></trkpt><trkpt lat="41.74017415918059" lon="13.696199886576755"><ele>697.5</ele><time>2026-04-18T09:00:28Z</time></trkpt><trkpt lat="41.740379842809915" lon="13.696354353189582"><ele>703.0</ele><time>2026-04-18T09:00:29Z</time></trkpt><trkpt lat="41.740593772599006" lon="13.696459263665648"><ele>703.0</ele><time>2026-04-18T09:00:30Z</time></trkpt><trkpt lat="41.74079102718029" lon="13.696525068627102"><ele>703.0</ele><time>2026-04-18T09:00:31Z</time></trkpt><trkpt lat="41.74096862860345" lon="13.696579354764792"><ele>703.0</ele><time>2026-04-18T09:00:32Z</time></trkpt><trkpt lat="41.74115162695874" lon="13.696636429561265"><ele>702.6666666666667</ele><time>2026-04-18T09:00:33Z</time></trkpt><trkpt lat="41.74134235632244" lon="13.696697380668532"><ele>702.3333333333334</ele><time>2026-04-18T09:00:34Z</time></trkpt><trkpt lat="41.74155813626931" lon="13.696761810466862"><ele>702.0</ele><time>2026-04-18T09:00:35Z</time></trkpt><trkpt lat="41.741799662680286" lon="13.696851126759029"><ele>708.0</ele><time>2026-04-18T09:00:36Z</time></trkpt><trkpt lat="41.74204445135739" lon="13.696961532234965"><ele>714.0</ele><time>2026-04-18T09:00:37Z</time></trkpt><trkpt lat="41.7423067927278" lon="13.697057858664747"><ele>714.0</ele><time>2026-04-18T09:00:38Z</time></trkpt><trkpt lat="41.74258322874013" lon="13.697154000742339"><ele>714.0</ele><time>2026-04-18T09:00:39Z</time></trkpt><trkpt lat="41.742882340673205" lon="13.69725886594142"><ele>718.5</ele><time>2026-04-18T09:00:40Z</time></trkpt><trkpt lat="41.74319046090036" lon="13.697381069535341"><ele>723.0</ele><time>2026-04-18T09:00:41Z</time></trkpt><trkpt lat="41.743480070165376" lon="13.697527727176581"><ele>717.5</ele><time>2026-04-18T09:00:42Z</time></trkpt><trkpt lat="41.743763899856795" lon="13.697705866083817"><ele>712.0</ele><time>2026-04-18T09:00:43Z</time></trkpt><trkpt lat="41.744023283241134" lon="13.697908980215468"><ele>714.5</ele><time>2026-04-18T09:00:44Z</time></trkpt><trkpt lat="41.74424392608802" lon="13.698165348843572"><ele>717.0</ele><time>2026-04-18T09:00:45Z</time></trkpt><trkpt lat="41.74449347056865" lon="13.698389812791795"><ele>717.0</ele><time>2026-04-18T09:00:46Z</time></trkpt><trkpt lat="41.74474358960167" lon="13.698569902221612"><ele>717.0</ele><time>2026-04-18T09:00:47Z</time></trkpt><trkpt lat="41.74498711325421" lon="13.698788676251194"><ele>716.3333333333334</ele><time>2026-04-18T09:00:48Z</time></trkpt><trkpt lat="41.74517006756133" lon="13.698978545251324"><ele>715.6666666666667</ele><time>2026-04-18T09:00:49Z</time></trkpt><trkpt lat="41.74527507793108" lon="13.699160491795062"><ele>715.0</ele><time>2026-04-18T09:00:50Z</time></trkpt><trkpt lat="41.74539716331304" lon="13.699407999331246"><ele>719.6666666666667</ele><time>2026-04-18T09:00:51Z</time></trkpt><trkpt lat="41.74547038540568" lon="13.699651227905573"><ele>724.3333333333334</ele><time>2026-04-18T09:00:52Z</time></trkpt><trkpt lat="41.74554064367317" lon="13.699918143761886"><ele>729.0</ele><time>2026-04-18T09:00:53Z</time></trkpt><trkpt lat="41.745556605116775" lon="13.700216110982542"><ele>730.0</ele><time>2026-04-18T09:00:54Z</time></trkpt><trkpt lat="41.74557863544973" lon="13.70048664404415"><ele>731.0</ele><time>2026-04-18T09:00:55Z</time></trkpt><trkpt lat="41.74558217150573" lon="13.700747025001373"><ele>732.0</ele><time>2026-04-18T09:00:56Z</time></trkpt><trkpt lat="41.74553449610527" lon="13.700993560347476"><ele>728.6666666666666</ele><time>2026-04-18T09:00:57Z</time></trkpt><trkpt lat="41.7454765558312" lon="13.701252764865613"><ele>725.3333333333333</ele><time>2026-04-18T09:00:58Z</time></trkpt><trkpt lat="41.74535927387365" lon="13.70150596014902"><ele>722.0</ele><time>2026-04-18T09:00:59Z</time></trkpt><trkpt lat="41.74521750300403" lon="13.701831116336372"><ele>739.5</ele><time>2026-04-18T09:01:00Z</time></trkpt><trkpt lat="41.7450865481163" lon="13.70212260451797"><ele>757.0</ele><time>2026-04-18T09:01:01Z</time></trkpt><trkpt lat="41.74493568906019" lon="13.702446730617739"><ele>748.0</ele><time>2026-04-18T09:01:02Z</time></trkpt><trkpt lat="41.74475231196302" lon="13.702779839815491"><ele>739.0</ele><time>2026-04-18T09:01:03Z</time></trkpt><trkpt lat="41.744592010329015" lon="13.703100470096258"><ele>739.0</ele><time>2026-04-18T09:01:04Z</time></trkpt><trkpt lat="41.74447058157668" lon="13.703376461489757"><ele>739.0</ele><time>2026-04-18T09:01:05Z</time></trkpt><trkpt lat="41.744321762117416" lon="13.7036307950794"><ele>750.0</ele><time>2026-04-18T09:01:06Z</time></trkpt><trkpt lat="41.74418480707742" lon="13.703880793053314"><ele>761.0</ele><time>2026-04-18T09:01:07Z</time></trkpt><trkpt lat="41.74400409682411" lon="13.704092007927553"><ele>761.0</ele><time>2026-04-18T09:01:08Z</time></trkpt><trkpt lat="41.743796220393925" lon="13.704265035841376"><ele>761.0</ele><time>2026-04-18T09:01:09Z</time></trkpt><trkpt lat="41.743567872417195" lon="13.704399646154629"><ele>765.0</ele><time>2026-04-18T09:01:10Z</time></trkpt><trkpt lat="41.74362742659896" lon="13.704596203099383"><ele>769.0</ele><time>2026-04-18T09:01:11Z</time></trkpt><trkpt lat="41.74334912952285" lon="13.704739955726136"><ele>769.0</ele><time>2026-04-18T09:01:12Z</time></trkpt><trkpt lat="41.74315237116311" lon="13.704919870524103"><ele>769.0</ele><time>2026-04-18T09:01:13Z</time></trkpt><trkpt lat="41.74300266737404" lon="13.70514194164273"><ele>760.0</ele><time>2026-04-18T09:01:14Z</time></trkpt><trkpt lat="41.74286783027004" lon="13.705391652346124"><ele>751.0</ele><time>2026-04-18T09:01:15Z</time></trkpt><trkpt lat="41.74273211768606" lon="13.705672686230674"><ele>767.0</ele><time>2026-04-18T09:01:16Z</time></trkpt><trkpt lat="41.742615858397535" lon="13.706015084172744"><ele>783.0</ele><time>2026-04-18T09:01:17Z</time></trkpt><trkpt lat="41.74252983745146" lon="13.706359386995086"><ele>783.0</ele><time>2026-04-18T09:01:18Z</time></trkpt><trkpt lat="41.742441833754214" lon="13.706713341002764"><ele>783.0</ele><time>2026-04-18T09:01:19Z</time></trkpt><trkpt lat="41.742340811250635" lon="13.706999496331553"><ele>778.5</ele><time>2026-04-18T09:01:20Z</time></trkpt><trkpt lat="41.742267356835754" lon="13.70731668322213"><ele>774.0</ele><time>2026-04-18T09:01:21Z</time></trkpt><trkpt lat="41.74219082617872" lon="13.707593753354372"><ele>768.5</ele><time>2026-04-18T09:01:22Z</time></trkpt><trkpt lat="41.74211603256011" lon="13.707879324524798"><ele>763.0</ele><time>2026-04-18T09:01:23Z</time></trkpt><trkpt lat="41.74202224354302" lon="13.708157420200362"><ele>763.0</ele><time>2026-04-18T09:01:24Z</time></trkpt><trkpt lat="41.741924846542034" lon="13.708408553632681"><ele>763.0</ele><time>2026-04-18T09:01:25Z</time></trkpt><trkpt lat="41.74182686503716" lon="13.708636415112862"><ele>763.0</ele><time>2026-04-18T09:01:26Z</time></trkpt><trkpt lat="41.7417076159527" lon="13.708878619262526"><ele>766.6666666666667</ele><time>2026-04-18T09:01:27Z</time></trkpt><trkpt lat="41.74157266510933" lon="13.70911177521301"><ele>770.3333333333334</ele><time>2026-04-18T09:01:28Z</time></trkpt><trkpt lat="41.74141373416831" lon="13.709330786989327"><ele>774.0</ele><time>2026-04-18T09:01:29Z</time></trkpt><trkpt lat="41.74125054853824" lon="13.70954917212384"><ele>774.0</ele><time>2026-04-18T09:01:30Z</time></trkpt><trkpt lat="41.74110317531049" lon="13.709810729544376"><ele>774.0</ele><time>2026-04-18T09:01:31Z</time></trkpt><trkpt lat="41.7409200134186" lon="13.710132110619355"><ele>798.0</ele><time>2026-04-18T09:01:32Z</time></trkpt><trkpt lat="41.74083262035043" lon="13.710444435371253"><ele>822.0</ele><time>2026-04-18T09:01:33Z</time></trkpt><trkpt lat="41.74074973204371" lon="13.710782927630772"><ele>820.5</ele><time>2026-04-18T09:01:34Z</time></trkpt><trkpt lat="41.74068259635176" lon="13.711105045070765"><ele>819.0</ele><time>2026-04-18T09:01:35Z</time></trkpt><trkpt lat="41.740630074206194" lon="13.71138444228931"><ele>819.0</ele><time>2026-04-18T09:01:36Z</time></trkpt><trkpt lat="41.74057620804025" lon="13.711656629215366"><ele>819.0</ele><time>2026-04-18T09:01:37Z</time></trkpt><trkpt lat="41.74073088253262" lon="13.71186786943091"><ele>819.0</ele><time>2026-04-18T09:01:38Z</time></trkpt><trkpt lat="41.74082138670424" lon="13.712106096575527"><ele>820.3333333333333</ele><time>2026-04-18T09:01:39Z</time></trkpt><trkpt lat="41.740948190759916" lon="13.7123324117525"><ele>821.6666666666666</ele><time>2026-04-18T09:01:40Z</time></trkpt><trkpt lat="41.74110541001152" lon="13.712520835616184"><ele>823.0</ele><time>2026-04-18T09:01:41Z</time></trkpt><trkpt lat="41.74128804602573" lon="13.712653500270964"><ele>826.6666666666666</ele><time>2026-04-18T09:01:42Z</time></trkpt><trkpt lat="41.74145460242585" lon="13.71279458190878"><ele>830.3333333333333</ele><time>2026-04-18T09:01:43Z</time></trkpt><trkpt lat="41.741574201048685" lon="13.712984727797169"><ele>834.0</ele><time>2026-04-18T09:01:44Z</time></trkpt><trkpt lat="41.741662314296626" lon="13.713211484390035"><ele>834.0</ele><time>2026-04-18T09:01:45Z</time></trkpt><trkpt lat="41.741725800029734" lon="13.713461132705488"><ele>834.0</ele><time>2026-04-18T09:01:46Z</time></trkpt><trkpt lat="41.74176271903729" lon="13.713738184025244"><ele>834.0</ele><time>2026-04-18T09:01:47Z</time></trkpt><trkpt lat="41.74177101848458" lon="13.7140269711647"><ele>839.5</ele><time>2026-04-18T09:01:48Z</time></trkpt><trkpt lat="41.741740226847355" lon="13.71434364615598"><ele>845.0</ele><time>2026-04-18T09:01:49Z</time></trkpt><trkpt lat="41.74168997190937" lon="13.714664570713177"><ele>845.5</ele><time>2026-04-18T09:01:50Z</time></trkpt><trkpt lat="41.74164824646265" lon="13.714989599428339"><ele>846.0</ele><time>2026-04-18T09:01:51Z</time></trkpt><trkpt lat="41.741612226498496" lon="13.715315008129393"><ele>846.5</ele><time>2026-04-18T09:01:52Z</time></trkpt><trkpt lat="41.741561876509" lon="13.715662010193975"><ele>847.0</ele><time>2026-04-18T09:01:53Z</time></trkpt><trkpt lat="41.741515507117704" lon="13.715967887602787"><ele>849.3333333333333</ele><time>2026-04-18T09:01:54Z</time></trkpt><trkpt lat="41.741502584440546" lon="13.716211321935981"><ele>851.6666666666667</ele><time>2026-04-18T09:01:55Z</time></trkpt><trkpt lat="41.74151636688482" lon="13.716450950994231"><ele>854.0</ele><time>2026-04-18T09:01:56Z</time></trkpt><trkpt lat="41.74154769515005" lon="13.716705649864952"><ele>859.0</ele><time>2026-04-18T09:01:57Z</time></trkpt><trkpt lat="41.74160920743483" lon="13.716967852506261"><ele>864.0</ele><time>2026-04-18T09:01:58Z</time></trkpt><trkpt lat="41.74168845525808" lon="13.71719538628562"><ele>869.0</ele><time>2026-04-18T09:01:59Z</time></trkpt><trkpt lat="41.74179547964149" lon="13.717394010043877"><ele>871.0</ele><time>2026-04-18T09:02:00Z</time></trkpt><trkpt lat="41.74193082321871" lon="13.717583063135892"><ele>873.0</ele><time>2026-04-18T09:02:01Z</time></trkpt><trkpt lat="41.74209823592058" lon="13.717736921078227"><ele>875.0</ele><time>2026-04-18T09:02:02Z</time></trkpt><trkpt lat="41.74227713056466" lon="13.717846836197747"><ele>875.0</ele><time>2026-04-18T09:02:03Z</time></trkpt><trkpt lat="41.742466395562886" lon="13.71791627011862"><ele>875.0</ele><time>2026-04-18T09:02:04Z</time></trkpt><trkpt lat="41.74266673470927" lon="13.717936435397029"><ele>875.0</ele><time>2026-04-18T09:02:05Z</time></trkpt><trkpt lat="41.74288045070373" lon="13.717906674154415"><ele>877.3333333333334</ele><time>2026-04-18T09:02:06Z</time></trkpt><trkpt lat="41.743107501304465" lon="13.717828013851475"><ele>879.6666666666667</ele><time>2026-04-18T09:02:07Z</time></trkpt><trkpt lat="41.743275077080234" lon="13.717817167627768"><ele>882.0</ele><time>2026-04-18T09:02:08Z</time></trkpt><trkpt lat="41.74352524118573" lon="13.717688415219538"><ele>878.0</ele><time>2026-04-18T09:02:09Z</time></trkpt><trkpt lat="41.74376486036623" lon="13.717593907881726"><ele>874.0</ele><time>2026-04-18T09:02:10Z</time></trkpt><trkpt lat="41.743977148150826" lon="13.717483250134867"><ele>874.0</ele><time>2026-04-18T09:02:11Z</time></trkpt><trkpt lat="41.744117876616386" lon="13.717442643726079"><ele>874.0</ele><time>2026-04-18T09:02:12Z</time></trkpt><trkpt lat="41.74422831704369" lon="13.7174436261607"><ele>874.0</ele><time>2026-04-18T09:02:13Z</time></trkpt><trkpt lat="41.74436262039541" lon="13.717437155105321"><ele>874.0</ele><time>2026-04-18T09:02:14Z</time></trkpt><trkpt lat="41.74453215669809" lon="13.717467293073254"><ele>875.3333333333333</ele><time>2026-04-18T09:02:15Z</time></trkpt><trkpt lat="41.74466668641885" lon="13.717549104913237"><ele>876.6666666666667</ele><time>2026-04-18T09:02:16Z</time></trkpt><trkpt lat="41.74480736900012" lon="13.717587939838246"><ele>878.0</ele><time>2026-04-18T09:02:17Z</time></trkpt><trkpt lat="41.745072678635346" lon="13.718263517794743"><ele>877.5</ele><time>2026-04-18T09:02:18Z</time></trkpt><trkpt lat="41.74522925948656" lon="13.718481815140699"><ele>877.0</ele><time>2026-04-18T09:02:19Z</time></trkpt><trkpt lat="41.74542851272678" lon="13.71867332947676"><ele>877.0</ele><time>2026-04-18T09:02:20Z</time></trkpt><trkpt lat="41.74565849170784" lon="13.718805489134487"><ele>877.0</ele><time>2026-04-18T09:02:21Z</time></trkpt><trkpt lat="41.74590910401333" lon="13.718936604425922"><ele>877.0</ele><time>2026-04-18T09:02:22Z</time></trkpt><trkpt lat="41.746184760616" lon="13.719013232464023"><ele>877.0</ele><time>2026-04-18T09:02:23Z</time></trkpt><trkpt lat="41.746472877314176" lon="13.719079498725579"><ele>877.0</ele><time>2026-04-18T09:02:24Z</time></trkpt><trkpt lat="41.74671931982009" lon="13.719160296750092"><ele>877.0</ele><time>2026-04-18T09:02:25Z</time></trkpt><trkpt lat="41.746965411654344" lon="13.719241502437736"><ele>876.5</ele><time>2026-04-18T09:02:26Z</time></trkpt><trkpt lat="41.74720242930775" lon="13.719328614061675"><ele>876.0</ele><time>2026-04-18T09:02:27Z</time></trkpt><trkpt lat="41.74744463578417" lon="13.719427402113787"><ele>876.0</ele><time>2026-04-18T09:02:28Z</time></trkpt><trkpt lat="41.747670833579434" lon="13.719595124658053"><ele>876.0</ele><time>2026-04-18T09:02:29Z</time></trkpt><trkpt lat="41.74789807600667" lon="13.719774402813709"><ele>879.0</ele><time>2026-04-18T09:02:30Z</time></trkpt><trkpt lat="41.74811676749476" lon="13.719985958156355"><ele>882.0</ele><time>2026-04-18T09:02:31Z</time></trkpt><trkpt lat="41.74831408342302" lon="13.720215094851453"><ele>878.5</ele><time>2026-04-18T09:02:32Z</time></trkpt><trkpt lat="41.748499795198114" lon="13.720466878690925"><ele>875.0</ele><time>2026-04-18T09:02:33Z</time></trkpt><trkpt lat="41.74868643300828" lon="13.720751145587325"><ele>877.5</ele><time>2026-04-18T09:02:34Z</time></trkpt><trkpt lat="41.74886706100053" lon="13.721029682777518"><ele>880.0</ele><time>2026-04-18T09:02:35Z</time></trkpt><trkpt lat="41.74904660200384" lon="13.721293712727503"><ele>880.0</ele><time>2026-04-18T09:02:36Z</time></trkpt><trkpt lat="41.74926018314578" lon="13.721566089126195"><ele>880.0</ele><time>2026-04-18T09:02:37Z</time></trkpt><trkpt lat="41.74944813135007" lon="13.721835199243243"><ele>883.5</ele><time>2026-04-18T09:02:38Z</time></trkpt><trkpt lat="41.74962737685518" lon="13.722102177138515"><ele>887.0</ele><time>2026-04-18T09:02:39Z</time></trkpt><trkpt lat="41.74980585101252" lon="13.72236932256799"><ele>887.0</ele><time>2026-04-18T09:02:40Z</time></trkpt><trkpt lat="41.74997854178448" lon="13.722627444678636"><ele>887.0</ele><time>2026-04-18T09:02:41Z</time></trkpt><trkpt lat="41.75014062602241" lon="13.722887421109853"><ele>897.5</ele><time>2026-04-18T09:02:42Z</time></trkpt><trkpt lat="41.75029417212793" lon="13.723151196998835"><ele>908.0</ele><time>2026-04-18T09:02:43Z</time></trkpt><trkpt lat="41.75042231247459" lon="13.723433642937664"><ele>903.0</ele><time>2026-04-18T09:02:44Z</time></trkpt><trkpt lat="41.750537204204015" lon="13.723720688253083"><ele>898.0</ele><time>2026-04-18T09:02:45Z</time></trkpt><trkpt lat="41.75064234937796" lon="13.723996319207806"><ele>898.0</ele><time>2026-04-18T09:02:46Z</time></trkpt><trkpt lat="41.75075232598878" lon="13.724265469952421"><ele>898.0</ele><time>2026-04-18T09:02:47Z</time></trkpt><trkpt lat="41.75090392624213" lon="13.724515787429269"><ele>901.5</ele><time>2026-04-18T09:02:48Z</time></trkpt><trkpt lat="41.75107869839285" lon="13.72472746445487"><ele>905.0</ele><time>2026-04-18T09:02:49Z</time></trkpt><trkpt lat="41.751264829606356" lon="13.724903035754885"><ele>905.0</ele><time>2026-04-18T09:02:50Z</time></trkpt><trkpt lat="41.75145117075314" lon="13.725072232232264"><ele>905.0</ele><time>2026-04-18T09:02:51Z</time></trkpt><trkpt lat="41.75164611418629" lon="13.725225290913928"><ele>905.0</ele><time>2026-04-18T09:02:52Z</time></trkpt><trkpt lat="41.751819896022795" lon="13.725351228833635"><ele>905.0</ele><time>2026-04-18T09:02:53Z</time></trkpt><trkpt lat="41.751976471880624" lon="13.725474852512367"><ele>905.0</ele><time>2026-04-18T09:02:54Z</time></trkpt><trkpt lat="41.752133809856616" lon="13.725616509238302"><ele>905.0</ele><time>2026-04-18T09:02:55Z</time></trkpt><trkpt lat="41.75228323696174" lon="13.725776959799255"><ele>905.0</ele><time>2026-04-18T09:02:56Z</time></trkpt><trkpt lat="41.75241881197045" lon="13.72596901518564"><ele>905.0</ele><time>2026-04-18T09:02:57Z</time></trkpt><trkpt lat="41.752540633086554" lon="13.726179701900627"><ele>904.0</ele><time>2026-04-18T09:02:58Z</time></trkpt><trkpt lat="41.7526405913758" lon="13.72639887063024"><ele>903.0</ele><time>2026-04-18T09:02:59Z</time></trkpt><trkpt lat="41.752711426460195" lon="13.726637630140445"><ele>902.0</ele><time>2026-04-18T09:03:00Z</time></trkpt><trkpt lat="41.75275399521919" lon="13.726889957624083"><ele>905.6666666666667</ele><time>2026-04-18T09:03:01Z</time></trkpt><trkpt lat="41.75276599791875" lon="13.727139867765661"><ele>909.3333333333333</ele><time>2026-04-18T09:03:02Z</time></trkpt><trkpt lat="41.75276702586128" lon="13.727408789611898"><ele>913.0</ele><time>2026-04-18T09:03:03Z</time></trkpt><trkpt lat="41.75270659401011" lon="13.727685957814947"><ele>915.3333333333333</ele><time>2026-04-18T09:03:04Z</time></trkpt><trkpt lat="41.752662044711684" lon="13.727951215384742"><ele>917.6666666666667</ele><time>2026-04-18T09:03:05Z</time></trkpt><trkpt lat="41.75259304689673" lon="13.728210408748735"><ele>920.0</ele><time>2026-04-18T09:03:06Z</time></trkpt><trkpt lat="41.75249836741136" lon="13.728451727650771"><ele>924.6666666666667</ele><time>2026-04-18T09:03:07Z</time></trkpt><trkpt lat="41.75237473175301" lon="13.728674314869393"><ele>929.3333333333333</ele><time>2026-04-18T09:03:08Z</time></trkpt><trkpt lat="41.752234680271464" lon="13.728880619103236"><ele>934.0</ele><time>2026-04-18T09:03:09Z</time></trkpt><trkpt lat="41.75206560003117" lon="13.729059131527558"><ele>934.0</ele><time>2026-04-18T09:03:10Z</time></trkpt><trkpt lat="41.75188267743071" lon="13.72920745268981"><ele>934.0</ele><time>2026-04-18T09:03:11Z</time></trkpt><trkpt lat="41.751678889226135" lon="13.72934744497008"><ele>934.0</ele><time>2026-04-18T09:03:12Z</time></trkpt><trkpt lat="41.751474666582" lon="13.729494152597374"><ele>944.5</ele><time>2026-04-18T09:03:13Z</time></trkpt><trkpt lat="41.75126056423238" lon="13.729653320933604"><ele>955.0</ele><time>2026-04-18T09:03:14Z</time></trkpt><trkpt lat="41.75104119138096" lon="13.729821113222942"><ele>943.5</ele><time>2026-04-18T09:03:15Z</time></trkpt><trkpt lat="41.7508187938395" lon="13.72999241157633"><ele>932.0</ele><time>2026-04-18T09:03:16Z</time></trkpt><trkpt lat="41.75059583924832" lon="13.730162026860325"><ele>941.0</ele><time>2026-04-18T09:03:17Z</time></trkpt><trkpt lat="41.75037402942453" lon="13.730334799035298"><ele>950.0</ele><time>2026-04-18T09:03:18Z</time></trkpt><trkpt lat="41.75015095578845" lon="13.7305035732307"><ele>950.0</ele><time>2026-04-18T09:03:19Z</time></trkpt><trkpt lat="41.74992618617091" lon="13.730662968835603"><ele>950.0</ele><time>2026-04-18T09:03:20Z</time></trkpt><trkpt lat="41.7497038983903" lon="13.730822371867047"><ele>950.0</ele><time>2026-04-18T09:03:21Z</time></trkpt><trkpt lat="41.74947623908609" lon="13.730966875578048"><ele>950.0</ele><time>2026-04-18T09:03:22Z</time></trkpt><trkpt lat="41.749250009545946" lon="13.731107546437462"><ele>958.5</ele><time>2026-04-18T09:03:23Z</time></trkpt><trkpt lat="41.749029548065835" lon="13.731274341021347"><ele>967.0</ele><time>2026-04-18T09:03:24Z</time></trkpt><trkpt lat="41.74882694783589" lon="13.73147354115221"><ele>967.0</ele><time>2026-04-18T09:03:25Z</time></trkpt><trkpt lat="41.748638359466554" lon="13.731698652819933"><ele>967.0</ele><time>2026-04-18T09:03:26Z</time></trkpt><trkpt lat="41.74845120319261" lon="13.731913654269553"><ele>969.5</ele><time>2026-04-18T09:03:27Z</time></trkpt><trkpt lat="41.74825854842453" lon="13.732101962721364"><ele>972.0</ele><time>2026-04-18T09:03:28Z</time></trkpt><trkpt lat="41.74806387784173" lon="13.732280880357928"><ele>972.0</ele><time>2026-04-18T09:03:29Z</time></trkpt><trkpt lat="41.7478637828364" lon="13.732436979389336"><ele>972.0</ele><time>2026-04-18T09:03:30Z</time></trkpt><trkpt lat="41.74766138115102" lon="13.732588279567743"><ele>981.0</ele><time>2026-04-18T09:03:31Z</time></trkpt><trkpt lat="41.74745243280968" lon="13.732727431030208"><ele>990.0</ele><time>2026-04-18T09:03:32Z</time></trkpt><trkpt lat="41.74722728379679" lon="13.732840561361726"><ele>990.0</ele><time>2026-04-18T09:03:33Z</time></trkpt><trkpt lat="41.7470034377126" lon="13.732980438110552"><ele>990.0</ele><time>2026-04-18T09:03:34Z</time></trkpt><trkpt lat="41.74677230231666" lon="13.73309609220698"><ele>984.5</ele><time>2026-04-18T09:03:35Z</time></trkpt><trkpt lat="41.74654213945328" lon="13.733216583125234"><ele>979.0</ele><time>2026-04-18T09:03:36Z</time></trkpt><trkpt lat="41.74631745885678" lon="13.733343193901757"><ele>979.0</ele><time>2026-04-18T09:03:37Z</time></trkpt><trkpt lat="41.74608782040782" lon="13.733464345847452"><ele>979.0</ele><time>2026-04-18T09:03:38Z</time></trkpt><trkpt lat="41.745863449884105" lon="13.73357956757215"><ele>989.5</ele><time>2026-04-18T09:03:39Z</time></trkpt><trkpt lat="41.745637896007665" lon="13.733662818084868"><ele>1000.0</ele><time>2026-04-18T09:03:40Z</time></trkpt><trkpt lat="41.745411978318394" lon="13.733760978549276"><ele>998.5</ele><time>2026-04-18T09:03:41Z</time></trkpt><trkpt lat="41.74517954636954" lon="13.733809260071995"><ele>997.0</ele><time>2026-04-18T09:03:42Z</time></trkpt><trkpt lat="41.74494766202161" lon="13.733835636024285"><ele>997.0</ele><time>2026-04-18T09:03:43Z</time></trkpt><trkpt lat="41.74472311374858" lon="13.733827001075628"><ele>997.0</ele><time>2026-04-18T09:03:44Z</time></trkpt><trkpt lat="41.744516708698505" lon="13.733852614293294"><ele>997.0</ele><time>2026-04-18T09:03:45Z</time></trkpt><trkpt lat="41.74430492314277" lon="13.73391020378186"><ele>995.0</ele><time>2026-04-18T09:03:46Z</time></trkpt><trkpt lat="41.744097688094215" lon="13.734031989273443"><ele>993.0</ele><time>2026-04-18T09:03:47Z</time></trkpt><trkpt lat="41.74390779116468" lon="13.734187598955307"><ele>991.0</ele><time>2026-04-18T09:03:48Z</time></trkpt><trkpt lat="41.74374433368617" lon="13.734392901026679"><ele>994.0</ele><time>2026-04-18T09:03:49Z</time></trkpt><trkpt lat="41.743600574415254" lon="13.73462767450778"><ele>997.0</ele><time>2026-04-18T09:03:50Z</time></trkpt><trkpt lat="41.74346943367524" lon="13.734883515654218"><ele>997.0</ele><time>2026-04-18T09:03:51Z</time></trkpt><trkpt lat="41.743308180780744" lon="13.735093878345346"><ele>997.0</ele><time>2026-04-18T09:03:52Z</time></trkpt><trkpt lat="41.74314306542009" lon="13.73527826613598"><ele>997.0</ele><time>2026-04-18T09:03:53Z</time></trkpt><trkpt lat="41.74295740879745" lon="13.735441044647"><ele>1006.0</ele><time>2026-04-18T09:03:54Z</time></trkpt><trkpt lat="41.74275176910318" lon="13.735585438448828"><ele>1015.0</ele><time>2026-04-18T09:03:55Z</time></trkpt><trkpt lat="41.7425305177354" lon="13.735694003278198"><ele>1015.0</ele><time>2026-04-18T09:03:56Z</time></trkpt><trkpt lat="41.74230504490315" lon="13.735802512851825"><ele>1015.0</ele><time>2026-04-18T09:03:57Z</time></trkpt><trkpt lat="41.74207011582543" lon="13.735842272009357"><ele>1011.3333333333333</ele><time>2026-04-18T09:03:58Z</time></trkpt><trkpt lat="41.741844779896276" lon="13.735876827524885"><ele>1007.6666666666667</ele><time>2026-04-18T09:03:59Z</time></trkpt><trkpt lat="41.74163471514723" lon="13.73591731459818"><ele>1004.0</ele><time>2026-04-18T09:04:00Z</time></trkpt><trkpt lat="41.74143640172785" lon="13.73594746445373"><ele>1004.0</ele><time>2026-04-18T09:04:01Z</time></trkpt><trkpt lat="41.74125880891156" lon="13.73603155971787"><ele>1004.0</ele><time>2026-04-18T09:04:02Z</time></trkpt><trkpt lat="41.741100568674845" lon="13.736162426168132"><ele>1004.0</ele><time>2026-04-18T09:04:03Z</time></trkpt><trkpt lat="41.74096169651086" lon="13.736351492750295"><ele>1008.0</ele><time>2026-04-18T09:04:04Z</time></trkpt><trkpt lat="41.740852510383704" lon="13.73657384212571"><ele>1012.0</ele><time>2026-04-18T09:04:05Z</time></trkpt><trkpt lat="41.740777421039446" lon="13.736823481575378"><ele>1016.0</ele><time>2026-04-18T09:04:06Z</time></trkpt><trkpt lat="41.7407442064302" lon="13.737105496591186"><ele>1021.0</ele><time>2026-04-18T09:04:07Z</time></trkpt><trkpt lat="41.740728317984775" lon="13.737397558378612"><ele>1026.0</ele><time>2026-04-18T09:04:08Z</time></trkpt><trkpt lat="41.740677818756105" lon="13.73768464597311"><ele>1031.0</ele><time>2026-04-18T09:04:09Z</time></trkpt><trkpt lat="41.74061290478365" lon="13.737965367604573"><ele>1040.5</ele><time>2026-04-18T09:04:10Z</time></trkpt><trkpt lat="41.74052525463515" lon="13.73823635071264"><ele>1050.0</ele><time>2026-04-18T09:04:11Z</time></trkpt><trkpt lat="41.74041355239614" lon="13.73851293162638"><ele>1044.0</ele><time>2026-04-18T09:04:12Z</time></trkpt><trkpt lat="41.74031171070386" lon="13.738769077970609"><ele>1038.0</ele><time>2026-04-18T09:04:13Z</time></trkpt><trkpt lat="41.74021949983865" lon="13.739034323629765"><ele>1032.0</ele><time>2026-04-18T09:04:14Z</time></trkpt><trkpt lat="41.74011521604259" lon="13.739295532203815"><ele>1036.3333333333333</ele><time>2026-04-18T09:04:15Z</time></trkpt><trkpt lat="41.7400138106804" lon="13.739553510174504"><ele>1040.6666666666665</ele><time>2026-04-18T09:04:16Z</time></trkpt><trkpt lat="41.73989847667057" lon="13.739798351989979"><ele>1045.0</ele><time>2026-04-18T09:04:17Z</time></trkpt><trkpt lat="41.73979552396745" lon="13.740034763115048"><ele>1048.6666666666665</ele><time>2026-04-18T09:04:18Z</time></trkpt><trkpt lat="41.73968139849012" lon="13.740260835807057"><ele>1052.3333333333333</ele><time>2026-04-18T09:04:19Z</time></trkpt><trkpt lat="41.73955904323227" lon="13.740482895302206"><ele>1056.0</ele><time>2026-04-18T09:04:20Z</time></trkpt><trkpt lat="41.73940290885709" lon="13.740681596409688"><ele>1055.3333333333333</ele><time>2026-04-18T09:04:21Z</time></trkpt><trkpt lat="41.7392361463961" lon="13.740862473167072"><ele>1054.6666666666665</ele><time>2026-04-18T09:04:22Z</time></trkpt><trkpt lat="41.739062381550404" lon="13.741027353186354"><ele>1054.0</ele><time>2026-04-18T09:04:23Z</time></trkpt><trkpt lat="41.73886736410027" lon="13.741155210127072"><ele>1054.0</ele><time>2026-04-18T09:04:24Z</time></trkpt><trkpt lat="41.73865967242337" lon="13.74126298241448"><ele>1054.0</ele><time>2026-04-18T09:04:25Z</time></trkpt><trkpt lat="41.738456469880134" lon="13.741372643775735"><ele>1054.0</ele><time>2026-04-18T09:04:26Z</time></trkpt><trkpt lat="41.73824974721353" lon="13.741493339694243"><ele>1051.0</ele><time>2026-04-18T09:04:27Z</time></trkpt><trkpt lat="41.73805109449868" lon="13.741636324721073"><ele>1048.0</ele><time>2026-04-18T09:04:28Z</time></trkpt><trkpt lat="41.73785610172699" lon="13.741800724849643"><ele>1048.0</ele><time>2026-04-18T09:04:29Z</time></trkpt><trkpt lat="41.737655530814074" lon="13.74197805739523"><ele>1048.0</ele><time>2026-04-18T09:04:30Z</time></trkpt><trkpt lat="41.737479425719485" lon="13.742179995190284"><ele>1048.0</ele><time>2026-04-18T09:04:31Z</time></trkpt><trkpt lat="41.73730378002845" lon="13.742424685700394"><ele>1048.0</ele><time>2026-04-18T09:04:32Z</time></trkpt><trkpt lat="41.73714025407843" lon="13.742687014527835"><ele>1050.0</ele><time>2026-04-18T09:04:33Z</time></trkpt><trkpt lat="41.736997098208825" lon="13.74295671418368"><ele>1052.0</ele><time>2026-04-18T09:04:34Z</time></trkpt><trkpt lat="41.736880366865755" lon="13.743233664397167"><ele>1044.0</ele><time>2026-04-18T09:04:35Z</time></trkpt><trkpt lat="41.73676844394595" lon="13.743521618652105"><ele>1036.0</ele><time>2026-04-18T09:04:36Z</time></trkpt><trkpt lat="41.736689500020276" lon="13.743816604803625"><ele>1036.0</ele><time>2026-04-18T09:04:37Z</time></trkpt><trkpt lat="41.736622758002945" lon="13.744130755149282"><ele>1036.0</ele><time>2026-04-18T09:04:38Z</time></trkpt><trkpt lat="41.73657990724304" lon="13.744418694059833"><ele>1035.3333333333333</ele><time>2026-04-18T09:04:39Z</time></trkpt><trkpt lat="41.73654500049515" lon="13.74469519732394"><ele>1034.6666666666667</ele><time>2026-04-18T09:04:40Z</time></trkpt><trkpt lat="41.73651689771072" lon="13.7449516666005"><ele>1034.0</ele><time>2026-04-18T09:04:41Z</time></trkpt><trkpt lat="41.736480329427906" lon="13.745196053486628"><ele>1034.3333333333335</ele><time>2026-04-18T09:04:42Z</time></trkpt><trkpt lat="41.73642145713064" lon="13.745420404714606"><ele>1034.6666666666667</ele><time>2026-04-18T09:04:43Z</time></trkpt><trkpt lat="41.73633921086325" lon="13.745614743717486"><ele>1035.0</ele><time>2026-04-18T09:04:44Z</time></trkpt><trkpt lat="41.7362301816483" lon="13.745790145589023"><ele>1035.0</ele><time>2026-04-18T09:04:45Z</time></trkpt><trkpt lat="41.73610513308202" lon="13.745942685498116"><ele>1035.0</ele><time>2026-04-18T09:04:46Z</time></trkpt><trkpt lat="41.73596759425957" lon="13.746061822759932"><ele>1035.0</ele><time>2026-04-18T09:04:47Z</time></trkpt><trkpt lat="41.73583168945212" lon="13.746148571661706"><ele>1042.0</ele><time>2026-04-18T09:04:48Z</time></trkpt><trkpt lat="41.7356733673362" lon="13.74618517551972"><ele>1049.0</ele><time>2026-04-18T09:04:49Z</time></trkpt><trkpt lat="41.73549246906529" lon="13.746190864877494"><ele>1056.0</ele><time>2026-04-18T09:04:50Z</time></trkpt><trkpt lat="41.735312678531656" lon="13.746179636233235"><ele>1056.3333333333333</ele><time>2026-04-18T09:04:51Z</time></trkpt><trkpt lat="41.73513035255211" lon="13.746155034163982"><ele>1056.6666666666665</ele><time>2026-04-18T09:04:52Z</time></trkpt><trkpt lat="41.73493866916268" lon="13.746123167654053"><ele>1057.0</ele><time>2026-04-18T09:04:53Z</time></trkpt><trkpt lat="41.734733870973336" lon="13.74608982798641"><ele>1057.0</ele><time>2026-04-18T09:04:54Z</time></trkpt><trkpt lat="41.73452819231114" lon="13.74607864369727"><ele>1057.0</ele><time>2026-04-18T09:04:55Z</time></trkpt><trkpt lat="41.73431442072963" lon="13.746065900460744"><ele>1057.0</ele><time>2026-04-18T09:04:56Z</time></trkpt><trkpt lat="41.7341046606313" lon="13.746059214184688"><ele>1057.6666666666665</ele><time>2026-04-18T09:04:57Z</time></trkpt><trkpt lat="41.73389995757276" lon="13.74605137991236"><ele>1058.3333333333333</ele><time>2026-04-18T09:04:58Z</time></trkpt><trkpt lat="41.73370843095803" lon="13.746042596947163"><ele>1059.0</ele><time>2026-04-18T09:04:59Z</time></trkpt><trkpt lat="41.7335262143864" lon="13.746031673323856"><ele>1057.6666666666667</ele><time>2026-04-18T09:05:00Z</time></trkpt><trkpt lat="41.73334248922492" lon="13.746031739998624"><ele>1056.3333333333335</ele><time>2026-04-18T09:05:01Z</time></trkpt><trkpt lat="41.7331498288873" lon="13.746070253088659"><ele>1055.0</ele><time>2026-04-18T09:05:02Z</time></trkpt><trkpt lat="41.73294728346287" lon="13.746136174019885"><ele>1055.0</ele><time>2026-04-18T09:05:03Z</time></trkpt><trkpt lat="41.732750362597656" lon="13.746235064399812"><ele>1055.0</ele><time>2026-04-18T09:05:04Z</time></trkpt><trkpt lat="41.73255628022251" lon="13.74634078160987"><ele>1055.0</ele><time>2026-04-18T09:05:05Z</time></trkpt><trkpt lat="41.73236750494905" lon="13.746489869975438"><ele>1052.3333333333335</ele><time>2026-04-18T09:05:06Z</time></trkpt><trkpt lat="41.73218081163319" lon="13.746641794648134"><ele>1049.6666666666667</ele><time>2026-04-18T09:05:07Z</time></trkpt><trkpt lat="41.731990038241335" lon="13.746787903606844"><ele>1047.0</ele><time>2026-04-18T09:05:08Z</time></trkpt><trkpt lat="41.731801128515286" lon="13.74692318689071"><ele>1047.0</ele><time>2026-04-18T09:05:09Z</time></trkpt><trkpt lat="41.731611524818206" lon="13.747065077872836"><ele>1047.0</ele><time>2026-04-18T09:05:10Z</time></trkpt><trkpt lat="41.731420888073885" lon="13.747200258323812"><ele>1047.0</ele><time>2026-04-18T09:05:11Z</time></trkpt><trkpt lat="41.73121890696277" lon="13.747304876312361"><ele>1041.0</ele><time>2026-04-18T09:05:12Z</time></trkpt><trkpt lat="41.731000004107216" lon="13.747354177601121"><ele>1035.0</ele><time>2026-04-18T09:05:13Z</time></trkpt><trkpt lat="41.73077599013363" lon="13.747399099710945"><ele>1029.0</ele><time>2026-04-18T09:05:14Z</time></trkpt><trkpt lat="41.73055078874169" lon="13.74743878397418"><ele>1029.0</ele><time>2026-04-18T09:05:15Z</time></trkpt><trkpt lat="41.73032953709236" lon="13.747483450080498"><ele>1029.0</ele><time>2026-04-18T09:05:16Z</time></trkpt><trkpt lat="41.730107221662536" lon="13.747540235670634"><ele>1025.0</ele><time>2026-04-18T09:05:17Z</time></trkpt><trkpt lat="41.72988264621726" lon="13.747610069956671"><ele>1021.0</ele><time>2026-04-18T09:05:18Z</time></trkpt><trkpt lat="41.72966836728363" lon="13.747710929828537"><ele>1020.5</ele><time>2026-04-18T09:05:19Z</time></trkpt><trkpt lat="41.72946613088512" lon="13.74784826726608"><ele>1020.0</ele><time>2026-04-18T09:05:20Z</time></trkpt><trkpt lat="41.72927378525578" lon="13.748013756248051"><ele>1020.0</ele><time>2026-04-18T09:05:21Z</time></trkpt><trkpt lat="41.7290936324712" lon="13.74820883386302"><ele>1020.0</ele><time>2026-04-18T09:05:22Z</time></trkpt><trkpt lat="41.728932372356994" lon="13.748423753456036"><ele>1032.0</ele><time>2026-04-18T09:05:23Z</time></trkpt><trkpt lat="41.728788757408495" lon="13.748662412853115"><ele>1044.0</ele><time>2026-04-18T09:05:24Z</time></trkpt><trkpt lat="41.72866714158377" lon="13.7489225256393"><ele>1033.3333333333333</ele><time>2026-04-18T09:05:25Z</time></trkpt><trkpt lat="41.728556180688294" lon="13.749165092366592"><ele>1022.6666666666666</ele><time>2026-04-18T09:05:26Z</time></trkpt><trkpt lat="41.728458353664244" lon="13.749396140125775"><ele>1012.0</ele><time>2026-04-18T09:05:27Z</time></trkpt><trkpt lat="41.728356174105194" lon="13.74961238802554"><ele>1012.0</ele><time>2026-04-18T09:05:28Z</time></trkpt><trkpt lat="41.72830081723333" lon="13.749863554134379"><ele>1012.0</ele><time>2026-04-18T09:05:29Z</time></trkpt><trkpt lat="41.728282941784805" lon="13.750140369385962"><ele>1012.0</ele><time>2026-04-18T09:05:30Z</time></trkpt><trkpt lat="41.728302255360745" lon="13.750428523438035"><ele>1010.0</ele><time>2026-04-18T09:05:31Z</time></trkpt><trkpt lat="41.728349615390805" lon="13.750715042020838"><ele>1008.0</ele><time>2026-04-18T09:05:32Z</time></trkpt><trkpt lat="41.72836803771123" lon="13.751020563837688"><ele>1006.0</ele><time>2026-04-18T09:05:33Z</time></trkpt><trkpt lat="41.72840299966819" lon="13.751331898910527"><ele>1001.0</ele><time>2026-04-18T09:05:34Z</time></trkpt><trkpt lat="41.728453805003134" lon="13.751643719973716"><ele>996.0</ele><time>2026-04-18T09:05:35Z</time></trkpt><trkpt lat="41.72848975742302" lon="13.751973676538999"><ele>992.5</ele><time>2026-04-18T09:05:36Z</time></trkpt><trkpt lat="41.72852577697686" lon="13.752307658126886"><ele>989.0</ele><time>2026-04-18T09:05:37Z</time></trkpt><trkpt lat="41.72856445698281" lon="13.752645291660823"><ele>1010.5</ele><time>2026-04-18T09:05:38Z</time></trkpt><trkpt lat="41.728600535735346" lon="13.752979213874928"><ele>1032.0</ele><time>2026-04-18T09:05:39Z</time></trkpt><trkpt lat="41.7286399844339" lon="13.75330675998044"><ele>1022.5</ele><time>2026-04-18T09:05:40Z</time></trkpt><trkpt lat="41.728692800110295" lon="13.753623667196463"><ele>1013.0</ele><time>2026-04-18T09:05:41Z</time></trkpt><trkpt lat="41.728785193621796" lon="13.753920453894553"><ele>1013.0</ele><time>2026-04-18T09:05:42Z</time></trkpt><trkpt lat="41.72889679460529" lon="13.754201233013715"><ele>1013.0</ele><time>2026-04-18T09:05:43Z</time></trkpt><trkpt lat="41.7290382063471" lon="13.754456081232357"><ele>999.5</ele><time>2026-04-18T09:05:44Z</time></trkpt><trkpt lat="41.72920105580907" lon="13.754683111103828"><ele>986.0</ele><time>2026-04-18T09:05:45Z</time></trkpt><trkpt lat="41.72938888407476" lon="13.754874022168448"><ele>1000.5</ele><time>2026-04-18T09:05:46Z</time></trkpt><trkpt lat="41.72959083743857" lon="13.755037521991374"><ele>1015.0</ele><time>2026-04-18T09:05:47Z</time></trkpt><trkpt lat="41.729795636314776" lon="13.755183597393213"><ele>1013.3333333333333</ele><time>2026-04-18T09:05:48Z</time></trkpt><trkpt lat="41.72996996889023" lon="13.755316064538519"><ele>1011.6666666666667</ele><time>2026-04-18T09:05:49Z</time></trkpt><trkpt lat="41.73010914179376" lon="13.755444928320337"><ele>1010.0</ele><time>2026-04-18T09:05:50Z</time></trkpt><trkpt lat="41.73023266832049" lon="13.755600277506424"><ele>1010.0</ele><time>2026-04-18T09:05:51Z</time></trkpt><trkpt lat="41.73033327768581" lon="13.755778200087477"><ele>1010.0</ele><time>2026-04-18T09:05:52Z</time></trkpt><trkpt lat="41.73041081615345" lon="13.755986558682046"><ele>1010.0</ele><time>2026-04-18T09:05:53Z</time></trkpt><trkpt lat="41.730464957909184" lon="13.756218103634025"><ele>1008.0</ele><time>2026-04-18T09:05:54Z</time></trkpt><trkpt lat="41.730492528000354" lon="13.756468205256569"><ele>1006.0</ele><time>2026-04-18T09:05:55Z</time></trkpt><trkpt lat="41.730498688069645" lon="13.756728392720888"><ele>1004.0</ele><time>2026-04-18T09:05:56Z</time></trkpt><trkpt lat="41.7304738042543" lon="13.756977045337981"><ele>999.3333333333334</ele><time>2026-04-18T09:05:57Z</time></trkpt><trkpt lat="41.730404420672514" lon="13.757209858074892"><ele>994.6666666666667</ele><time>2026-04-18T09:05:58Z</time></trkpt><trkpt lat="41.73029801467096" lon="13.757425622797145"><ele>990.0</ele><time>2026-04-18T09:05:59Z</time></trkpt><trkpt lat="41.73015668410789" lon="13.757613837175713"><ele>998.6666666666667</ele><time>2026-04-18T09:06:00Z</time></trkpt><trkpt lat="41.72999871575934" lon="13.75777573934051"><ele>1007.3333333333334</ele><time>2026-04-18T09:06:01Z</time></trkpt><trkpt lat="41.72982245008181" lon="13.757911300489821"><ele>1016.0</ele><time>2026-04-18T09:06:02Z</time></trkpt><trkpt lat="41.72965234823714" lon="13.75806391942093"><ele>1016.0</ele><time>2026-04-18T09:06:03Z</time></trkpt><trkpt lat="41.729494851925004" lon="13.758232459010522"><ele>1016.0</ele><time>2026-04-18T09:06:04Z</time></trkpt><trkpt lat="41.729351133493516" lon="13.75843310259737"><ele>1016.0</ele><time>2026-04-18T09:06:05Z</time></trkpt><trkpt lat="41.72920749543956" lon="13.758641898658215"><ele>1018.0</ele><time>2026-04-18T09:06:06Z</time></trkpt><trkpt lat="41.729056545454846" lon="13.758844587766424"><ele>1020.0</ele><time>2026-04-18T09:06:07Z</time></trkpt><trkpt lat="41.728905803218886" lon="13.759041662315358"><ele>1022.0</ele><time>2026-04-18T09:06:08Z</time></trkpt><trkpt lat="41.728756171842484" lon="13.759235208850077"><ele>1022.0</ele><time>2026-04-18T09:06:09Z</time></trkpt><trkpt lat="41.72859694901653" lon="13.759417930516374"><ele>1022.0</ele><time>2026-04-18T09:06:10Z</time></trkpt><trkpt lat="41.72842670557859" lon="13.75957911504402"><ele>1022.0</ele><time>2026-04-18T09:06:11Z</time></trkpt><trkpt lat="41.72826267777042" lon="13.759750389143043"><ele>1022.0</ele><time>2026-04-18T09:06:12Z</time></trkpt><trkpt lat="41.728115227648395" lon="13.75995292149135"><ele>1022.0</ele><time>2026-04-18T09:06:13Z</time></trkpt><trkpt lat="41.727987488370275" lon="13.760161701665641"><ele>1022.0</ele><time>2026-04-18T09:06:14Z</time></trkpt><trkpt lat="41.727878911923874" lon="13.760356961181078"><ele>1015.3333333333334</ele><time>2026-04-18T09:06:15Z</time></trkpt><trkpt lat="41.72780124856382" lon="13.760555362033049"><ele>1008.6666666666667</ele><time>2026-04-18T09:06:16Z</time></trkpt><trkpt lat="41.727754980334566" lon="13.760777060469577"><ele>1002.0</ele><time>2026-04-18T09:06:17Z</time></trkpt><trkpt lat="41.727709031829825" lon="13.761012520086151"><ele>1004.3333333333333</ele><time>2026-04-18T09:06:18Z</time></trkpt><trkpt lat="41.72768757672267" lon="13.761266251535801"><ele>1006.6666666666666</ele><time>2026-04-18T09:06:19Z</time></trkpt><trkpt lat="41.727706905405185" lon="13.761531694663567"><ele>1009.0</ele><time>2026-04-18T09:06:20Z</time></trkpt><trkpt lat="41.727699519918936" lon="13.76180037482379"><ele>1009.0</ele><time>2026-04-18T09:06:21Z</time></trkpt><trkpt lat="41.72770877490374" lon="13.762078431506227"><ele>1009.0</ele><time>2026-04-18T09:06:22Z</time></trkpt><trkpt lat="41.72771590267646" lon="13.762347300206965"><ele>1009.0</ele><time>2026-04-18T09:06:23Z</time></trkpt><trkpt lat="41.727727973910184" lon="13.762621129045629"><ele>1027.6666666666665</ele><time>2026-04-18T09:06:24Z</time></trkpt><trkpt lat="41.72775635099257" lon="13.76289042186719"><ele>1046.3333333333333</ele><time>2026-04-18T09:06:25Z</time></trkpt><trkpt lat="41.72777483185152" lon="13.763165526516037"><ele>1065.0</ele><time>2026-04-18T09:06:26Z</time></trkpt><trkpt lat="41.72777864193045" lon="13.763443198384936"><ele>1064.3333333333333</ele><time>2026-04-18T09:06:27Z</time></trkpt><trkpt lat="41.72781015384677" lon="13.763708587048862"><ele>1063.6666666666665</ele><time>2026-04-18T09:06:28Z</time></trkpt><trkpt lat="41.72782579946177" lon="13.763965065228986"><ele>1063.0</ele><time>2026-04-18T09:06:29Z</time></trkpt><trkpt lat="41.7278358761836" lon="13.764190908820972"><ele>1060.0</ele><time>2026-04-18T09:06:30Z</time></trkpt><trkpt lat="41.72784641882824" lon="13.764400265278036"><ele>1057.0</ele><time>2026-04-18T09:06:31Z</time></trkpt><trkpt lat="41.727864799371424" lon="13.764614837961362"><ele>1054.0</ele><time>2026-04-18T09:06:32Z</time></trkpt><trkpt lat="41.72790707813418" lon="13.764824089810855"><ele>1054.0</ele><time>2026-04-18T09:06:33Z</time></trkpt><trkpt lat="41.72797094241423" lon="13.765027002659187"><ele>1054.0</ele><time>2026-04-18T09:06:34Z</time></trkpt><trkpt lat="41.72805599766118" lon="13.765208853840154"><ele>1054.0</ele><time>2026-04-18T09:06:35Z</time></trkpt><trkpt lat="41.728170518363214" lon="13.765366303382448"><ele>1047.6666666666665</ele><time>2026-04-18T09:06:36Z</time></trkpt><trkpt lat="41.72830417608261" lon="13.765514194791061"><ele>1041.3333333333333</ele><time>2026-04-18T09:06:37Z</time></trkpt><trkpt lat="41.72843187444343" lon="13.76567204993915"><ele>1035.0</ele><time>2026-04-18T09:06:38Z</time></trkpt><trkpt lat="41.72854622928395" lon="13.765832104879127"><ele>1039.0</ele><time>2026-04-18T09:06:39Z</time></trkpt><trkpt lat="41.72865492527143" lon="13.765977709518038"><ele>1043.0</ele><time>2026-04-18T09:06:40Z</time></trkpt><trkpt lat="41.728747243666454" lon="13.766108021591602"><ele>1047.0</ele><time>2026-04-18T09:06:41Z</time></trkpt><trkpt lat="41.72883208950009" lon="13.766230403161261"><ele>1051.0</ele><time>2026-04-18T09:06:42Z</time></trkpt><trkpt lat="41.728912326552084" lon="13.766358747092895"><ele>1051.0</ele><time>2026-04-18T09:06:43Z</time></trkpt><trkpt lat="41.7290046065179" lon="13.766477893252304"><ele>1051.0</ele><time>2026-04-18T09:06:44Z</time></trkpt><trkpt lat="41.72910368429131" lon="13.766585700933287"><ele>1051.0</ele><time>2026-04-18T09:06:45Z</time></trkpt><trkpt lat="41.72920041269309" lon="13.766692796563012"><ele>1051.0</ele><time>2026-04-18T09:06:46Z</time></trkpt><trkpt lat="41.72929108812684" lon="13.766812136665425"><ele>1047.25</ele><time>2026-04-18T09:06:47Z</time></trkpt><trkpt lat="41.72936972977417" lon="13.76695460121606"><ele>1043.5</ele><time>2026-04-18T09:06:48Z</time></trkpt><trkpt lat="41.72942697607723" lon="13.767123424146046"><ele>1039.75</ele><time>2026-04-18T09:06:49Z</time></trkpt><trkpt lat="41.729445654692" lon="13.767310128145752"><ele>1036.0</ele><time>2026-04-18T09:06:50Z</time></trkpt><trkpt lat="41.729442475621795" lon="13.76749065830059"><ele>1043.8</ele><time>2026-04-18T09:06:51Z</time></trkpt><trkpt lat="41.72947023930007" lon="13.76766636370656"><ele>1051.6</ele><time>2026-04-18T09:06:52Z</time></trkpt><trkpt lat="41.72951831339639" lon="13.76781384431339"><ele>1059.4</ele><time>2026-04-18T09:06:53Z</time></trkpt><trkpt lat="41.7295745386448" lon="13.767931398290452"><ele>1067.2</ele><time>2026-04-18T09:06:54Z</time></trkpt><trkpt lat="41.729606056900025" lon="13.768031031508642"><ele>1075.0</ele><time>2026-04-18T09:06:55Z</time></trkpt><trkpt lat="41.72962036194503" lon="13.768134598708475"><ele>1075.0</ele><time>2026-04-18T09:06:56Z</time></trkpt><trkpt lat="41.72960155345016" lon="13.768249507959085"><ele>1075.0</ele><time>2026-04-18T09:06:57Z</time></trkpt><trkpt lat="41.72953993112846" lon="13.768358618247019"><ele>1075.0</ele><time>2026-04-18T09:06:58Z</time></trkpt><trkpt lat="41.72947204019666" lon="13.76847956011066"><ele>1075.0</ele><time>2026-04-18T09:06:59Z</time></trkpt><trkpt lat="41.729411113965774" lon="13.768610256400788"><ele>1075.0</ele><time>2026-04-18T09:07:00Z</time></trkpt><trkpt lat="41.7293495954481" lon="13.768747995230921"><ele>1070.25</ele><time>2026-04-18T09:07:01Z</time></trkpt><trkpt lat="41.729294013613234" lon="13.768899059044559"><ele>1065.5</ele><time>2026-04-18T09:07:02Z</time></trkpt><trkpt lat="41.72925295309739" lon="13.769067541091978"><ele>1060.75</ele><time>2026-04-18T09:07:03Z</time></trkpt><trkpt lat="41.72922583492874" lon="13.769260223064958"><ele>1056.0</ele><time>2026-04-18T09:07:04Z</time></trkpt><trkpt lat="41.729211625478285" lon="13.769481593838844"><ele>1056.0</ele><time>2026-04-18T09:07:05Z</time></trkpt><trkpt lat="41.729204517062364" lon="13.76973338295236"><ele>1056.0</ele><time>2026-04-18T09:07:06Z</time></trkpt><trkpt lat="41.72918545251678" lon="13.769986282630923"><ele>1056.0</ele><time>2026-04-18T09:07:07Z</time></trkpt><trkpt lat="41.729150303088645" lon="13.770233489443545"><ele>1062.0</ele><time>2026-04-18T09:07:08Z</time></trkpt><trkpt lat="41.729101664030104" lon="13.770458149069757"><ele>1068.0</ele><time>2026-04-18T09:07:09Z</time></trkpt><trkpt lat="41.72904181797632" lon="13.770648223940183"><ele>1074.0</ele><time>2026-04-18T09:07:10Z</time></trkpt><trkpt lat="41.72895632229753" lon="13.770809447893459"><ele>1074.0</ele><time>2026-04-18T09:07:11Z</time></trkpt><trkpt lat="41.72883071066505" lon="13.770953432957215"><ele>1074.0</ele><time>2026-04-18T09:07:12Z</time></trkpt><trkpt lat="41.728676143402744" lon="13.771082004023691"><ele>1074.0</ele><time>2026-04-18T09:07:13Z</time></trkpt><trkpt lat="41.72850588256583" lon="13.77120908002663"><ele>1074.3333333333333</ele><time>2026-04-18T09:07:14Z</time></trkpt><trkpt lat="41.728332291588785" lon="13.771349728812387"><ele>1074.6666666666665</ele><time>2026-04-18T09:07:15Z</time></trkpt><trkpt lat="41.72815261114509" lon="13.771490912607954"><ele>1075.0</ele><time>2026-04-18T09:07:16Z</time></trkpt><trkpt lat="41.72798504690015" lon="13.771632971773814"><ele>1075.0</ele><time>2026-04-18T09:07:17Z</time></trkpt><trkpt lat="41.72785188433901" lon="13.771795067571713"><ele>1075.0</ele><time>2026-04-18T09:07:18Z</time></trkpt><trkpt lat="41.72771990982784" lon="13.771982469533764"><ele>1075.0</ele><time>2026-04-18T09:07:19Z</time></trkpt><trkpt lat="41.72760772201094" lon="13.772184538609828"><ele>1072.5</ele><time>2026-04-18T09:07:20Z</time></trkpt><trkpt lat="41.7275300098357" lon="13.772343717376405"><ele>1070.0</ele><time>2026-04-18T09:07:21Z</time></trkpt><trkpt lat="41.727479555311625" lon="13.77248440049369"><ele>1067.5</ele><time>2026-04-18T09:07:22Z</time></trkpt><trkpt lat="41.727466209432606" lon="13.772642966335102"><ele>1065.0</ele><time>2026-04-18T09:07:23Z</time></trkpt><trkpt lat="41.72750935954143" lon="13.772798716540281"><ele>1061.75</ele><time>2026-04-18T09:07:24Z</time></trkpt><trkpt lat="41.72759163887104" lon="13.772954429030031"><ele>1058.5</ele><time>2026-04-18T09:07:25Z</time></trkpt><trkpt lat="41.72769864099277" lon="13.773096042316636"><ele>1055.25</ele><time>2026-04-18T09:07:26Z</time></trkpt><trkpt lat="41.72782942197131" lon="13.773209426597111"><ele>1052.0</ele><time>2026-04-18T09:07:27Z</time></trkpt><trkpt lat="41.727963611315786" lon="13.773326058271401"><ele>1053.6666666666667</ele><time>2026-04-18T09:07:28Z</time></trkpt><trkpt lat="41.728097806873365" lon="13.77344205183073"><ele>1055.3333333333333</ele><time>2026-04-18T09:07:29Z</time></trkpt><trkpt lat="41.728251068171865" lon="13.77356924853351"><ele>1057.0</ele><time>2026-04-18T09:07:30Z</time></trkpt><trkpt lat="41.728396964475515" lon="13.773699017084803"><ele>1057.0</ele><time>2026-04-18T09:07:31Z</time></trkpt><trkpt lat="41.72855821810481" lon="13.773832684119585"><ele>1057.0</ele><time>2026-04-18T09:07:32Z</time></trkpt><trkpt lat="41.728727520951395" lon="13.7739674287495"><ele>1057.0</ele><time>2026-04-18T09:07:33Z</time></trkpt><trkpt lat="41.72888596015705" lon="13.774101262296925"><ele>1058.3333333333333</ele><time>2026-04-18T09:07:34Z</time></trkpt><trkpt lat="41.72904361929815" lon="13.774231961618488"><ele>1059.6666666666667</ele><time>2026-04-18T09:07:35Z</time></trkpt><trkpt lat="41.72919979886542" lon="13.774363726768383"><ele>1061.0</ele><time>2026-04-18T09:07:36Z</time></trkpt><trkpt lat="41.72934918884023" lon="13.774489445947362"><ele>1079.0</ele><time>2026-04-18T09:07:37Z</time></trkpt><trkpt lat="41.72948920008647" lon="13.774633984197019"><ele>1097.0</ele><time>2026-04-18T09:07:38Z</time></trkpt><trkpt lat="41.72960517601548" lon="13.7747903370076"><ele>1115.0</ele><time>2026-04-18T09:07:39Z</time></trkpt><trkpt lat="41.72967967450763" lon="13.774992513306264"><ele>1106.3333333333335</ele><time>2026-04-18T09:07:40Z</time></trkpt><trkpt lat="41.72974533956679" lon="13.775189133925792"><ele>1097.6666666666667</ele><time>2026-04-18T09:07:41Z</time></trkpt><trkpt lat="41.72980136911353" lon="13.775403019732956"><ele>1089.0</ele><time>2026-04-18T09:07:42Z</time></trkpt><trkpt lat="41.72985279894187" lon="13.775608890486069"><ele>1089.0</ele><time>2026-04-18T09:07:43Z</time></trkpt><trkpt lat="41.7299120449794" lon="13.77576321200472"><ele>1089.0</ele><time>2026-04-18T09:07:44Z</time></trkpt><trkpt lat="41.73001499180904" lon="13.775881358212226"><ele>1089.0</ele><time>2026-04-18T09:07:45Z</time></trkpt><trkpt lat="41.730127948847006" lon="13.776024769635313"><ele>1089.0</ele><time>2026-04-18T09:07:46Z</time></trkpt><trkpt lat="41.73024611874269" lon="13.776163839997958"><ele>1093.25</ele><time>2026-04-18T09:07:47Z</time></trkpt><trkpt lat="41.73036492383742" lon="13.7762786037369"><ele>1097.5</ele><time>2026-04-18T09:07:48Z</time></trkpt><trkpt lat="41.73048506333671" lon="13.776365707524743"><ele>1101.75</ele><time>2026-04-18T09:07:49Z</time></trkpt><trkpt lat="41.73056570089023" lon="13.776492935627912"><ele>1106.0</ele><time>2026-04-18T09:07:50Z</time></trkpt><trkpt lat="41.73062747292544" lon="13.776647050201355"><ele>1106.0</ele><time>2026-04-18T09:07:51Z</time></trkpt><trkpt lat="41.73067390021062" lon="13.776795526872096"><ele>1106.0</ele><time>2026-04-18T09:07:52Z</time></trkpt><trkpt lat="41.73069874988119" lon="13.77695918082361"><ele>1106.0</ele><time>2026-04-18T09:07:53Z</time></trkpt><trkpt lat="41.730702528977055" lon="13.777142181607939"><ele>1106.0</ele><time>2026-04-18T09:07:54Z</time></trkpt><trkpt lat="41.73064879630806" lon="13.777334168667345"><ele>1104.5</ele><time>2026-04-18T09:07:55Z</time></trkpt><trkpt lat="41.73060905670916" lon="13.777513567471692"><ele>1103.0</ele><time>2026-04-18T09:07:56Z</time></trkpt><trkpt lat="41.73057877913018" lon="13.777703881070824"><ele>1101.5</ele><time>2026-04-18T09:07:57Z</time></trkpt><trkpt lat="41.73055007149975" lon="13.777892267375925"><ele>1100.0</ele><time>2026-04-18T09:07:58Z</time></trkpt><trkpt lat="41.73050284086589" lon="13.778073895682812"><ele>1100.0</ele><time>2026-04-18T09:07:59Z</time></trkpt><trkpt lat="41.73042889613705" lon="13.778232558073228"><ele>1100.0</ele><time>2026-04-18T09:08:00Z</time></trkpt><trkpt lat="41.73031410744846" lon="13.778361398728801"><ele>1100.0</ele><time>2026-04-18T09:08:01Z</time></trkpt><trkpt lat="41.73018945837906" lon="13.778465140965181"><ele>1100.0</ele><time>2026-04-18T09:08:02Z</time></trkpt><trkpt lat="41.73005110981919" lon="13.778577359166972"><ele>1108.6666666666667</ele><time>2026-04-18T09:08:03Z</time></trkpt><trkpt lat="41.72991436931875" lon="13.778693504040861"><ele>1117.3333333333333</ele><time>2026-04-18T09:08:04Z</time></trkpt><trkpt lat="41.729777251514264" lon="13.778803630830701"><ele>1126.0</ele><time>2026-04-18T09:08:05Z</time></trkpt><trkpt lat="41.729629254496516" lon="13.77889810566126"><ele>1126.0</ele><time>2026-04-18T09:08:06Z</time></trkpt><trkpt lat="41.729464708808024" lon="13.778959365828488"><ele>1126.0</ele><time>2026-04-18T09:08:07Z</time></trkpt><trkpt lat="41.7292760733854" lon="13.77901075591525"><ele>1126.0</ele><time>2026-04-18T09:08:08Z</time></trkpt><trkpt lat="41.729100876941445" lon="13.779074357437814"><ele>1121.3333333333333</ele><time>2026-04-18T09:08:09Z</time></trkpt><trkpt lat="41.7289305863999" lon="13.779128770099403"><ele>1116.6666666666667</ele><time>2026-04-18T09:08:10Z</time></trkpt><trkpt lat="41.728756572737" lon="13.779177987186856"><ele>1112.0</ele><time>2026-04-18T09:08:11Z</time></trkpt><trkpt lat="41.72859754866479" lon="13.779238810139265"><ele>1108.0</ele><time>2026-04-18T09:08:12Z</time></trkpt><trkpt lat="41.72842834573886" lon="13.779311434994051"><ele>1104.0</ele><time>2026-04-18T09:08:13Z</time></trkpt><trkpt lat="41.72826304032232" lon="13.779373566181356"><ele>1100.0</ele><time>2026-04-18T09:08:14Z</time></trkpt><trkpt lat="41.72809125629902" lon="13.779387155792485"><ele>1110.25</ele><time>2026-04-18T09:08:15Z</time></trkpt><trkpt lat="41.72795411812325" lon="13.779422053150956"><ele>1120.5</ele><time>2026-04-18T09:08:16Z</time></trkpt><trkpt lat="41.72780882273333" lon="13.779423460788042"><ele>1130.75</ele><time>2026-04-18T09:08:17Z</time></trkpt><trkpt lat="41.727697546416046" lon="13.779421904547153"><ele>1141.0</ele><time>2026-04-18T09:08:18Z</time></trkpt><trkpt lat="41.72758578653437" lon="13.77940828543323"><ele>1141.0</ele><time>2026-04-18T09:08:19Z</time></trkpt><trkpt lat="41.72746729010302" lon="13.77938862087902"><ele>1141.0</ele><time>2026-04-18T09:08:20Z</time></trkpt><trkpt lat="41.72735679499004" lon="13.779380268785232"><ele>1141.0</ele><time>2026-04-18T09:08:21Z</time></trkpt><trkpt lat="41.727258852970564" lon="13.779396159630542"><ele>1141.0</ele><time>2026-04-18T09:08:22Z</time></trkpt><trkpt lat="41.72716737541575" lon="13.7794622740993"><ele>1141.0</ele><time>2026-04-18T09:08:23Z</time></trkpt><trkpt lat="41.72708880773764" lon="13.779576683072573"><ele>1141.0</ele><time>2026-04-18T09:08:24Z</time></trkpt><trkpt lat="41.72705617308174" lon="13.77974865858858"><ele>1141.0</ele><time>2026-04-18T09:08:25Z</time></trkpt><trkpt lat="41.72699722036339" lon="13.779835070338555"><ele>1141.0</ele><time>2026-04-18T09:08:26Z</time></trkpt><trkpt lat="41.72691551765396" lon="13.779874450095683"><ele>1141.0</ele><time>2026-04-18T09:08:27Z</time></trkpt><trkpt lat="41.72681738967775" lon="13.779867005931052"><ele>1141.0</ele><time>2026-04-18T09:08:28Z</time></trkpt><trkpt lat="41.72670446367385" lon="13.779893505656409"><ele>1138.0</ele><time>2026-04-18T09:08:29Z</time></trkpt><trkpt lat="41.72658210186644" lon="13.779897042054639"><ele>1135.0</ele><time>2026-04-18T09:08:30Z</time></trkpt><trkpt lat="41.726489087305445" lon="13.779919540432099"><ele>1132.0</ele><time>2026-04-18T09:08:31Z</time></trkpt><trkpt lat="41.72638070945339" lon="13.779925083891051"><ele>1129.0</ele><time>2026-04-18T09:08:32Z</time></trkpt><trkpt lat="41.7262735963589" lon="13.779930212703102"><ele>1126.0</ele><time>2026-04-18T09:08:33Z</time></trkpt><trkpt lat="41.72618077353119" lon="13.779944798369861"><ele>1126.0</ele><time>2026-04-18T09:08:34Z</time></trkpt><trkpt lat="41.726080753769295" lon="13.77994411585502"><ele>1126.0</ele><time>2026-04-18T09:08:35Z</time></trkpt><trkpt lat="41.725983721148765" lon="13.77999200758672"><ele>1126.0</ele><time>2026-04-18T09:08:36Z</time></trkpt><trkpt lat="41.72588873817714" lon="13.780114069915957"><ele>1126.0</ele><time>2026-04-18T09:08:37Z</time></trkpt><trkpt lat="41.72584862587663" lon="13.780238068975171"><ele>1126.0</ele><time>2026-04-18T09:08:38Z</time></trkpt><trkpt lat="41.72584166671834" lon="13.780364500926122"><ele>1121.8</ele><time>2026-04-18T09:08:39Z</time></trkpt><trkpt lat="41.72588641387318" lon="13.78049108243042"><ele>1117.6</ele><time>2026-04-18T09:08:40Z</time></trkpt><trkpt lat="41.72595097585848" lon="13.780594023015052"><ele>1113.4</ele><time>2026-04-18T09:08:41Z</time></trkpt><trkpt lat="41.726015954060784" lon="13.78069856864429"><ele>1109.2</ele><time>2026-04-18T09:08:42Z</time></trkpt><trkpt lat="41.726076194515514" lon="13.780815815110834"><ele>1105.0</ele><time>2026-04-18T09:08:43Z</time></trkpt><trkpt lat="41.72614192168206" lon="13.780940968084778"><ele>1114.0</ele><time>2026-04-18T09:08:44Z</time></trkpt><trkpt lat="41.72620199325216" lon="13.781060833514886"><ele>1123.0</ele><time>2026-04-18T09:08:45Z</time></trkpt><trkpt lat="41.72625669023638" lon="13.78118669408521"><ele>1132.0</ele><time>2026-04-18T09:08:46Z</time></trkpt><trkpt lat="41.72628950079256" lon="13.781319223013798"><ele>1141.0</ele><time>2026-04-18T09:08:47Z</time></trkpt><trkpt lat="41.726326055566304" lon="13.781449315815072"><ele>1150.0</ele><time>2026-04-18T09:08:48Z</time></trkpt><trkpt lat="41.72636439543044" lon="13.78158847898245"><ele>1150.0</ele><time>2026-04-18T09:08:49Z</time></trkpt><trkpt lat="41.72639660344848" lon="13.78172595810828"><ele>1150.0</ele><time>2026-04-18T09:08:50Z</time></trkpt><trkpt lat="41.72641860250222" lon="13.78185932498562"><ele>1150.0</ele><time>2026-04-18T09:08:51Z</time></trkpt><trkpt lat="41.726435948940306" lon="13.782018673059744"><ele>1150.0</ele><time>2026-04-18T09:08:52Z</time></trkpt><trkpt lat="41.726448539749285" lon="13.782185117222676"><ele>1150.0</ele><time>2026-04-18T09:08:53Z</time></trkpt><trkpt lat="41.72642029608092" lon="13.782350028949958"><ele>1150.0</ele><time>2026-04-18T09:08:54Z</time></trkpt><trkpt lat="41.726384312438746" lon="13.78250582412647"><ele>1150.0</ele><time>2026-04-18T09:08:55Z</time></trkpt><trkpt lat="41.726333378328306" lon="13.78265751447021"><ele>1150.0</ele><time>2026-04-18T09:08:56Z</time></trkpt><trkpt lat="41.726277671794094" lon="13.782802560641377"><ele>1150.6</ele><time>2026-04-18T09:08:57Z</time></trkpt><trkpt lat="41.72622974054916" lon="13.78295113705442"><ele>1151.2</ele><time>2026-04-18T09:08:58Z</time></trkpt><trkpt lat="41.72618043326805" lon="13.783081822297143"><ele>1151.8</ele><time>2026-04-18T09:08:59Z</time></trkpt><trkpt lat="41.726135383507064" lon="13.783224919261658"><ele>1152.4</ele><time>2026-04-18T09:09:00Z</time></trkpt><trkpt lat="41.72613102145495" lon="13.783355749716725"><ele>1153.0</ele><time>2026-04-18T09:09:01Z</time></trkpt><trkpt lat="41.72616990949639" lon="13.783535118846304"><ele>1153.0</ele><time>2026-04-18T09:09:02Z</time></trkpt><trkpt lat="41.72623622761349" lon="13.783701441691859"><ele>1153.0</ele><time>2026-04-18T09:09:03Z</time></trkpt><trkpt lat="41.72631598302821" lon="13.783850004697978"><ele>1153.0</ele><time>2026-04-18T09:09:04Z</time></trkpt><trkpt lat="41.72638297265371" lon="13.78400396745266"><ele>1153.0</ele><time>2026-04-18T09:09:05Z</time></trkpt><trkpt lat="41.726455945685906" lon="13.784163990092027"><ele>1153.0</ele><time>2026-04-18T09:09:06Z</time></trkpt><trkpt lat="41.726512782986056" lon="13.78433611659004"><ele>1153.0</ele><time>2026-04-18T09:09:07Z</time></trkpt><trkpt lat="41.72655005903361" lon="13.784525718041726"><ele>1153.0</ele><time>2026-04-18T09:09:08Z</time></trkpt><trkpt lat="41.72659706487607" lon="13.784716144599747"><ele>1153.0</ele><time>2026-04-18T09:09:09Z</time></trkpt><trkpt lat="41.72662440917684" lon="13.784890566933163"><ele>1151.5</ele><time>2026-04-18T09:09:10Z</time></trkpt><trkpt lat="41.72664399830957" lon="13.785043820278604"><ele>1150.0</ele><time>2026-04-18T09:09:11Z</time></trkpt><trkpt lat="41.72665269287266" lon="13.785196494955153"><ele>1148.5</ele><time>2026-04-18T09:09:12Z</time></trkpt><trkpt lat="41.72664296667332" lon="13.785348092487569"><ele>1147.0</ele><time>2026-04-18T09:09:13Z</time></trkpt><trkpt lat="41.72659451701638" lon="13.785507480761778"><ele>1147.0</ele><time>2026-04-18T09:09:14Z</time></trkpt><trkpt lat="41.72654784718262" lon="13.785688429246129"><ele>1147.0</ele><time>2026-04-18T09:09:15Z</time></trkpt><trkpt lat="41.72650178660644" lon="13.785867015464557"><ele>1147.0</ele><time>2026-04-18T09:09:16Z</time></trkpt><trkpt lat="41.72645475591497" lon="13.786055048878865"><ele>1147.0</ele><time>2026-04-18T09:09:17Z</time></trkpt><trkpt lat="41.726430827006" lon="13.786257662907545"><ele>1151.3333333333333</ele><time>2026-04-18T09:09:18Z</time></trkpt><trkpt lat="41.72639536656387" lon="13.78648722756528"><ele>1155.6666666666667</ele><time>2026-04-18T09:09:19Z</time></trkpt><trkpt lat="41.72635189930423" lon="13.786710683625554"><ele>1160.0</ele><time>2026-04-18T09:09:20Z</time></trkpt><trkpt lat="41.7263345578201" lon="13.786949892823877"><ele>1166.6666666666667</ele><time>2026-04-18T09:09:21Z</time></trkpt><trkpt lat="41.726299712825444" lon="13.787186065870952"><ele>1173.3333333333333</ele><time>2026-04-18T09:09:22Z</time></trkpt><trkpt lat="41.72626743571799" lon="13.787413183610202"><ele>1180.0</ele><time>2026-04-18T09:09:23Z</time></trkpt><trkpt lat="41.726237677564235" lon="13.787633921203833"><ele>1184.0</ele><time>2026-04-18T09:09:24Z</time></trkpt><trkpt lat="41.72620298765221" lon="13.787847709919511"><ele>1188.0</ele><time>2026-04-18T09:09:25Z</time></trkpt><trkpt lat="41.72614024230066" lon="13.78804779883171"><ele>1192.0</ele><time>2026-04-18T09:09:26Z</time></trkpt><trkpt lat="41.72609525311803" lon="13.788245687705"><ele>1186.5</ele><time>2026-04-18T09:09:27Z</time></trkpt><trkpt lat="41.72603478264592" lon="13.7884304670333"><ele>1181.0</ele><time>2026-04-18T09:09:28Z</time></trkpt><trkpt lat="41.72599278422619" lon="13.788604509716501"><ele>1175.5</ele><time>2026-04-18T09:09:29Z</time></trkpt><trkpt lat="41.72595357824001" lon="13.788763399832954"><ele>1170.0</ele><time>2026-04-18T09:09:30Z</time></trkpt><trkpt lat="41.72590219243639" lon="13.78888669736683"><ele>1170.0</ele><time>2026-04-18T09:09:31Z</time></trkpt><trkpt lat="41.72581862940355" lon="13.788977849311525"><ele>1170.0</ele><time>2026-04-18T09:09:32Z</time></trkpt><trkpt lat="41.7257032163463" lon="13.78904697343195"><ele>1170.0</ele><time>2026-04-18T09:09:33Z</time></trkpt><trkpt lat="41.72556324848679" lon="13.789033082532551"><ele>1170.0</ele><time>2026-04-18T09:09:34Z</time></trkpt><trkpt lat="41.72541901723424" lon="13.789014962819735"><ele>1170.0</ele><time>2026-04-18T09:09:35Z</time></trkpt><trkpt lat="41.72526015874332" lon="13.789022010840561"><ele>1170.0</ele><time>2026-04-18T09:09:36Z</time></trkpt><trkpt lat="41.72510853234267" lon="13.788993380148854"><ele>1170.0</ele><time>2026-04-18T09:09:37Z</time></trkpt><trkpt lat="41.72494074091816" lon="13.788979916658493"><ele>1170.0</ele><time>2026-04-18T09:09:38Z</time></trkpt><trkpt lat="41.72473802556542" lon="13.788964856633582"><ele>1170.0</ele><time>2026-04-18T09:09:39Z</time></trkpt><trkpt lat="41.72455103302724" lon="13.78895136772428"><ele>1170.0</ele><time>2026-04-18T09:09:40Z</time></trkpt><trkpt lat="41.7243747486792" lon="13.788925183058325"><ele>1171.0</ele><time>2026-04-18T09:09:41Z</time></trkpt><trkpt lat="41.724219454717385" lon="13.78888976386924"><ele>1172.0</ele><time>2026-04-18T09:09:42Z</time></trkpt><trkpt lat="41.72405964594439" lon="13.78885130334749"><ele>1173.0</ele><time>2026-04-18T09:09:43Z</time></trkpt><trkpt lat="41.723922095529545" lon="13.788820947010972"><ele>1173.0</ele><time>2026-04-18T09:09:44Z</time></trkpt><trkpt lat="41.72382754356397" lon="13.788806028799323"><ele>1173.0</ele><time>2026-04-18T09:09:45Z</time></trkpt><trkpt lat="41.7237525423687" lon="13.788819192863881"><ele>1173.0</ele><time>2026-04-18T09:09:46Z</time></trkpt><trkpt lat="41.723667861559825" lon="13.788881190120568"><ele>1173.0</ele><time>2026-04-18T09:09:47Z</time></trkpt><trkpt lat="41.72365900998863" lon="13.789013882174581"><ele>1173.0</ele><time>2026-04-18T09:09:48Z</time></trkpt><trkpt lat="41.72367687079632" lon="13.789151947481121"><ele>1173.0</ele><time>2026-04-18T09:09:49Z</time></trkpt><trkpt lat="41.72372464357245" lon="13.789300190429799"><ele>1173.0</ele><time>2026-04-18T09:09:50Z</time></trkpt><trkpt lat="41.72376956314393" lon="13.789468315744763"><ele>1173.0</ele><time>2026-04-18T09:09:51Z</time></trkpt><trkpt lat="41.72380507309416" lon="13.789671432709701"><ele>1173.0</ele><time>2026-04-18T09:09:52Z</time></trkpt><trkpt lat="41.72381391578039" lon="13.78984320045354"><ele>1175.6666666666667</ele><time>2026-04-18T09:09:53Z</time></trkpt><trkpt lat="41.72383952170565" lon="13.79007645848196"><ele>1178.3333333333335</ele><time>2026-04-18T09:09:54Z</time></trkpt><trkpt lat="41.72385537045842" lon="13.790299865324318"><ele>1181.0</ele><time>2026-04-18T09:09:55Z</time></trkpt><trkpt lat="41.72387573697105" lon="13.790528372119097"><ele>1183.3333333333335</ele><time>2026-04-18T09:09:56Z</time></trkpt><trkpt lat="41.72387986080117" lon="13.790767716281948"><ele>1185.6666666666667</ele><time>2026-04-18T09:09:57Z</time></trkpt><trkpt lat="41.723881210395504" lon="13.790994247985527"><ele>1188.0</ele><time>2026-04-18T09:09:58Z</time></trkpt><trkpt lat="41.72386947174404" lon="13.791219864637844"><ele>1191.6666666666667</ele><time>2026-04-18T09:09:59Z</time></trkpt><trkpt lat="41.72383545590225" lon="13.79142607638886"><ele>1195.3333333333335</ele><time>2026-04-18T09:10:00Z</time></trkpt><trkpt lat="41.723779132659416" lon="13.791628926879435"><ele>1199.0</ele><time>2026-04-18T09:10:01Z</time></trkpt><trkpt lat="41.72370738291817" lon="13.791839224663933"><ele>1205.3333333333335</ele><time>2026-04-18T09:10:02Z</time></trkpt><trkpt lat="41.72362846709836" lon="13.792057397830625"><ele>1211.6666666666667</ele><time>2026-04-18T09:10:03Z</time></trkpt><trkpt lat="41.7235443911445" lon="13.792289836384336"><ele>1218.0</ele><time>2026-04-18T09:10:04Z</time></trkpt><trkpt lat="41.723460980182445" lon="13.792530481157215"><ele>1204.6666666666667</ele><time>2026-04-18T09:10:05Z</time></trkpt><trkpt lat="41.72340115421524" lon="13.79276803773386"><ele>1191.3333333333335</ele><time>2026-04-18T09:10:06Z</time></trkpt><trkpt lat="41.723358380916956" lon="13.793008522398923"><ele>1178.0</ele><time>2026-04-18T09:10:07Z</time></trkpt><trkpt lat="41.72332079998262" lon="13.793247501547535"><ele>1178.0</ele><time>2026-04-18T09:10:08Z</time></trkpt><trkpt lat="41.723283085944615" lon="13.79347368530785"><ele>1178.0</ele><time>2026-04-18T09:10:09Z</time></trkpt><trkpt lat="41.72322928112122" lon="13.793661027721589"><ele>1178.0</ele><time>2026-04-18T09:10:10Z</time></trkpt><trkpt lat="41.72314934520461" lon="13.793808971692092"><ele>1186.0</ele><time>2026-04-18T09:10:11Z</time></trkpt><trkpt lat="41.72305661869206" lon="13.793968698729778"><ele>1194.0</ele><time>2026-04-18T09:10:12Z</time></trkpt><trkpt lat="41.72297372733434" lon="13.794139139266216"><ele>1202.0</ele><time>2026-04-18T09:10:13Z</time></trkpt><trkpt lat="41.72291550905449" lon="13.79432134916345"><ele>1201.25</ele><time>2026-04-18T09:10:14Z</time></trkpt><trkpt lat="41.72289377400306" lon="13.79448904977792"><ele>1200.5</ele><time>2026-04-18T09:10:15Z</time></trkpt><trkpt lat="41.72291229779569" lon="13.794654742748094"><ele>1199.75</ele><time>2026-04-18T09:10:16Z</time></trkpt><trkpt lat="41.722980665756594" lon="13.794834265150357"><ele>1199.0</ele><time>2026-04-18T09:10:17Z</time></trkpt><trkpt lat="41.723090673526336" lon="13.795021831263611"><ele>1193.6666666666667</ele><time>2026-04-18T09:10:18Z</time></trkpt><trkpt lat="41.723172750830756" lon="13.795205654725823"><ele>1188.3333333333333</ele><time>2026-04-18T09:10:19Z</time></trkpt><trkpt lat="41.723235508719476" lon="13.795400466091706"><ele>1183.0</ele><time>2026-04-18T09:10:20Z</time></trkpt><trkpt lat="41.72329799048115" lon="13.795586768886459"><ele>1183.0</ele><time>2026-04-18T09:10:21Z</time></trkpt><trkpt lat="41.72336537138709" lon="13.795769962122925"><ele>1183.0</ele><time>2026-04-18T09:10:22Z</time></trkpt><trkpt lat="41.72347995015535" lon="13.795929613988895"><ele>1183.0</ele><time>2026-04-18T09:10:23Z</time></trkpt><trkpt lat="41.723563923249316" lon="13.796073231611196"><ele>1192.75</ele><time>2026-04-18T09:10:24Z</time></trkpt><trkpt lat="41.723644614882105" lon="13.79622285550724"><ele>1202.5</ele><time>2026-04-18T09:10:25Z</time></trkpt><trkpt lat="41.72372287551905" lon="13.796378869317016"><ele>1212.25</ele><time>2026-04-18T09:10:26Z</time></trkpt><trkpt lat="41.72379978937213" lon="13.79654210628654"><ele>1222.0</ele><time>2026-04-18T09:10:27Z</time></trkpt><trkpt lat="41.723823319653945" lon="13.796727783872383"><ele>1221.75</ele><time>2026-04-18T09:10:28Z</time></trkpt><trkpt lat="41.72383541238502" lon="13.796908688052099"><ele>1221.5</ele><time>2026-04-18T09:10:29Z</time></trkpt><trkpt lat="41.72383941879946" lon="13.79706911285882"><ele>1221.25</ele><time>2026-04-18T09:10:30Z</time></trkpt><trkpt lat="41.723843538845905" lon="13.79721769099488"><ele>1221.0</ele><time>2026-04-18T09:10:31Z</time></trkpt><trkpt lat="41.72386129911919" lon="13.797352019970726"><ele>1221.0</ele><time>2026-04-18T09:10:32Z</time></trkpt><trkpt lat="41.72386473960981" lon="13.797478157420722"><ele>1221.0</ele><time>2026-04-18T09:10:33Z</time></trkpt><trkpt lat="41.72386743444046" lon="13.797591688328538"><ele>1221.0</ele><time>2026-04-18T09:10:34Z</time></trkpt><trkpt lat="41.72386884982527" lon="13.79769355316416"><ele>1221.0</ele><time>2026-04-18T09:10:35Z</time></trkpt><trkpt lat="41.72387276175786" lon="13.797786776580875"><ele>1221.0</ele><time>2026-04-18T09:10:36Z</time></trkpt><trkpt lat="41.723877832842916" lon="13.797881291478335"><ele>1221.0</ele><time>2026-04-18T09:10:37Z</time></trkpt><trkpt lat="41.723882260890576" lon="13.797983254445143"><ele>1221.3333333333333</ele><time>2026-04-18T09:10:38Z</time></trkpt><trkpt lat="41.72388271445899" lon="13.79809693505986"><ele>1221.6666666666667</ele><time>2026-04-18T09:10:39Z</time></trkpt><trkpt lat="41.72388419998048" lon="13.798217664725994"><ele>1222.0</ele><time>2026-04-18T09:10:40Z</time></trkpt><trkpt lat="41.72388797428645" lon="13.798343580473198"><ele>1222.3333333333335</ele><time>2026-04-18T09:10:41Z</time></trkpt><trkpt lat="41.72388997150768" lon="13.79845374321516"><ele>1222.6666666666667</ele><time>2026-04-18T09:10:42Z</time></trkpt><trkpt lat="41.72386493825009" lon="13.798542617443271"><ele>1223.0</ele><time>2026-04-18T09:10:43Z</time></trkpt><trkpt lat="41.72385784801917" lon="13.798630951747471"><ele>1223.7142857142856</ele><time>2026-04-18T09:10:44Z</time></trkpt><trkpt lat="41.72384404326609" lon="13.798716977930333"><ele>1224.4285714285716</ele><time>2026-04-18T09:10:45Z</time></trkpt><trkpt lat="41.72382585213129" lon="13.798804539127001"><ele>1225.142857142857</ele><time>2026-04-18T09:10:46Z</time></trkpt><trkpt lat="41.723807613851335" lon="13.798890262497503"><ele>1225.8571428571427</ele><time>2026-04-18T09:10:47Z</time></trkpt><trkpt lat="41.72378837660613" lon="13.798978280495216"><ele>1226.5714285714284</ele><time>2026-04-18T09:10:48Z</time></trkpt><trkpt lat="41.723763900054585" lon="13.79906700619459"><ele>1227.2857142857142</ele><time>2026-04-18T09:10:49Z</time></trkpt><trkpt lat="41.723739615010174" lon="13.799160141123526"><ele>1228.0</ele><time>2026-04-18T09:10:50Z</time></trkpt><trkpt lat="41.723720663328514" lon="13.799245064720838"><ele>1227.5714285714284</ele><time>2026-04-18T09:10:51Z</time></trkpt><trkpt lat="41.72371671685527" lon="13.79935080232529"><ele>1227.142857142857</ele><time>2026-04-18T09:10:52Z</time></trkpt><trkpt lat="41.72373605750682" lon="13.799446612383923"><ele>1226.7142857142858</ele><time>2026-04-18T09:10:53Z</time></trkpt><trkpt lat="41.72377281466834" lon="13.799528699190684"><ele>1226.2857142857142</ele><time>2026-04-18T09:10:54Z</time></trkpt><trkpt lat="41.72380879735421" lon="13.799609060693179"><ele>1225.857142857143</ele><time>2026-04-18T09:10:55Z</time></trkpt><trkpt lat="41.723847661543765" lon="13.799684756244341"><ele>1225.4285714285713</ele><time>2026-04-18T09:10:56Z</time></trkpt><trkpt lat="41.72388412603172" lon="13.799762473216406"><ele>1225.0</ele><time>2026-04-18T09:10:57Z</time></trkpt><trkpt lat="41.72392116180866" lon="13.799843104942152"><ele>1225.0</ele><time>2026-04-18T09:10:58Z</time></trkpt><trkpt lat="41.723914311299836" lon="13.800011212265087"><ele>1225.0</ele><time>2026-04-18T09:11:00Z</time></trkpt><trkpt lat="41.72389785294381" lon="13.800100288985716"><ele>1225.0</ele><time>2026-04-18T09:11:01Z</time></trkpt><trkpt lat="41.72388622850212" lon="13.80020026521727"><ele>1225.0</ele><time>2026-04-18T09:11:02Z</time></trkpt><trkpt lat="41.723877145018335" lon="13.80030805433095"><ele>1225.0</ele><time>2026-04-18T09:11:03Z</time></trkpt><trkpt lat="41.72385367701964" lon="13.800397886813535"><ele>1225.0</ele><time>2026-04-18T09:11:04Z</time></trkpt><trkpt lat="41.723831446090585" lon="13.800494965468975"><ele>1227.2857142857142</ele><time>2026-04-18T09:11:05Z</time></trkpt><trkpt lat="41.723799139064845" lon="13.800584597060485"><ele>1229.5714285714284</ele><time>2026-04-18T09:11:06Z</time></trkpt><trkpt lat="41.72376351285673" lon="13.800675993855446"><ele>1231.857142857143</ele><time>2026-04-18T09:11:07Z</time></trkpt><trkpt lat="41.72373824435589" lon="13.800762438011366"><ele>1234.142857142857</ele><time>2026-04-18T09:11:08Z</time></trkpt><trkpt lat="41.72370563029926" lon="13.800849454551805"><ele>1236.4285714285713</ele><time>2026-04-18T09:11:09Z</time></trkpt><trkpt lat="41.72367827895282" lon="13.800927897025039"><ele>1238.7142857142858</ele><time>2026-04-18T09:11:10Z</time></trkpt><trkpt lat="41.72364821598183" lon="13.801005072495323"><ele>1241.0</ele><time>2026-04-18T09:11:11Z</time></trkpt><trkpt lat="41.723616293716915" lon="13.801087422524912"><ele>1243.1666666666667</ele><time>2026-04-18T09:11:12Z</time></trkpt><trkpt lat="41.72358807539594" lon="13.801169409865178"><ele>1245.3333333333335</ele><time>2026-04-18T09:11:13Z</time></trkpt><trkpt lat="41.72355427162002" lon="13.801248609421217"><ele>1247.5</ele><time>2026-04-18T09:11:14Z</time></trkpt><trkpt lat="41.72352471518394" lon="13.80132424505727"><ele>1249.6666666666667</ele><time>2026-04-18T09:11:15Z</time></trkpt><trkpt lat="41.72347087931638" lon="13.801466684700008"><ele>1251.8333333333333</ele><time>2026-04-18T09:11:17Z</time></trkpt><trkpt lat="41.72342200202451" lon="13.80162790213452"><ele>1254.0</ele><time>2026-04-18T09:11:19Z</time></trkpt><trkpt lat="41.72341972315037" lon="13.801718764520528"><ele>1254.1666666666667</ele><time>2026-04-18T09:11:20Z</time></trkpt><trkpt lat="41.72343382006932" lon="13.801819995022235"><ele>1254.3333333333333</ele><time>2026-04-18T09:11:21Z</time></trkpt><trkpt lat="41.723464486706554" lon="13.801924567543706"><ele>1254.5</ele><time>2026-04-18T09:11:22Z</time></trkpt><trkpt lat="41.72351284498258" lon="13.802086450203834"><ele>1254.6666666666665</ele><time>2026-04-18T09:11:24Z</time></trkpt><trkpt lat="41.72353460046499" lon="13.80217282045826"><ele>1254.8333333333333</ele><time>2026-04-18T09:11:25Z</time></trkpt><trkpt lat="41.72356594481384" lon="13.80225996637712"><ele>1255.0</ele><time>2026-04-18T09:11:26Z</time></trkpt><trkpt lat="41.7235867441788" lon="13.802346543093304"><ele>1255.0</ele><time>2026-04-18T09:11:27Z</time></trkpt><trkpt lat="41.72359956388184" lon="13.80243619575592"><ele>1255.0</ele><time>2026-04-18T09:11:28Z</time></trkpt><trkpt lat="41.72360281948552" lon="13.802525008841362"><ele>1255.0</ele><time>2026-04-18T09:11:29Z</time></trkpt><trkpt lat="41.723597422265996" lon="13.80261535848804"><ele>1255.0</ele><time>2026-04-18T09:11:30Z</time></trkpt><trkpt lat="41.72360712239741" lon="13.802710472269892"><ele>1255.0</ele><time>2026-04-18T09:11:31Z</time></trkpt><trkpt lat="41.723612693763904" lon="13.802797168225077"><ele>1255.0</ele><time>2026-04-18T09:11:32Z</time></trkpt><trkpt lat="41.723612860231036" lon="13.80289672047238"><ele>1255.0</ele><time>2026-04-18T09:11:33Z</time></trkpt><trkpt lat="41.72359476557363" lon="13.80299770810332"><ele>1255.4285714285716</ele><time>2026-04-18T09:11:34Z</time></trkpt><trkpt lat="41.723576846573366" lon="13.803082368917392"><ele>1255.8571428571427</ele><time>2026-04-18T09:11:35Z</time></trkpt><trkpt lat="41.72355974523693" lon="13.803179911647344"><ele>1256.2857142857142</ele><time>2026-04-18T09:11:36Z</time></trkpt><trkpt lat="41.72354262251014" lon="13.803272200944622"><ele>1256.7142857142858</ele><time>2026-04-18T09:11:37Z</time></trkpt><trkpt lat="41.72353377196438" lon="13.803379188935045"><ele>1257.1428571428573</ele><time>2026-04-18T09:11:38Z</time></trkpt><trkpt lat="41.7235184822969" lon="13.803479575172277"><ele>1257.5714285714284</ele><time>2026-04-18T09:11:39Z</time></trkpt><trkpt lat="41.723487027187296" lon="13.803575086342953"><ele>1258.0</ele><time>2026-04-18T09:11:40Z</time></trkpt><trkpt lat="41.723474431496804" lon="13.803676402959487"><ele>1254.857142857143</ele><time>2026-04-18T09:11:41Z</time></trkpt><trkpt lat="41.72346467078057" lon="13.803775358070363"><ele>1251.7142857142858</ele><time>2026-04-18T09:11:42Z</time></trkpt><trkpt lat="41.72345578429746" lon="13.803869697971995"><ele>1248.5714285714287</ele><time>2026-04-18T09:11:43Z</time></trkpt><trkpt lat="41.72344850228068" lon="13.80395418582764"><ele>1245.4285714285716</ele><time>2026-04-18T09:11:44Z</time></trkpt><trkpt lat="41.72345493770951" lon="13.804043502250984"><ele>1242.2857142857142</ele><time>2026-04-18T09:11:45Z</time></trkpt><trkpt lat="41.72343397999045" lon="13.804143701780985"><ele>1239.1428571428573</ele><time>2026-04-18T09:11:46Z</time></trkpt><trkpt lat="41.723439578163564" lon="13.804241167679349"><ele>1236.0</ele><time>2026-04-18T09:11:47Z</time></trkpt><trkpt lat="41.72343101341095" lon="13.804329813311925"><ele>1236.0</ele><time>2026-04-18T09:11:48Z</time></trkpt><trkpt lat="41.72342337736739" lon="13.804422255422418"><ele>1236.0</ele><time>2026-04-18T09:11:49Z</time></trkpt><trkpt lat="41.723414122305684" lon="13.804528879202968"><ele>1236.0</ele><time>2026-04-18T09:11:50Z</time></trkpt><trkpt lat="41.72340588078264" lon="13.804642107113802"><ele>1236.0</ele><time>2026-04-18T09:11:51Z</time></trkpt><trkpt lat="41.72339485642025" lon="13.804745523430357"><ele>1236.0</ele><time>2026-04-18T09:11:52Z</time></trkpt><trkpt lat="41.72337850496219" lon="13.804838363258979"><ele>1236.0</ele><time>2026-04-18T09:11:53Z</time></trkpt><trkpt lat="41.72335465305333" lon="13.804922437634803"><ele>1236.0000000000002</ele><time>2026-04-18T09:11:54Z</time></trkpt><trkpt lat="41.72332224444372" lon="13.805012402056493"><ele>1236.0</ele><time>2026-04-18T09:11:55Z</time></trkpt><trkpt lat="41.72327810368231" lon="13.805092667527518"><ele>1236.0</ele><time>2026-04-18T09:11:56Z</time></trkpt><trkpt lat="41.72323012649933" lon="13.805170929361458"><ele>1236.0</ele><time>2026-04-18T09:11:57Z</time></trkpt><trkpt lat="41.723178955455076" lon="13.805240622064021"><ele>1236.0</ele><time>2026-04-18T09:11:58Z</time></trkpt><trkpt lat="41.723133334571976" lon="13.80530561317237"><ele>1236.0000000000002</ele><time>2026-04-18T09:11:59Z</time></trkpt><trkpt lat="41.72308739989861" lon="13.80537095796882"><ele>1236.0</ele><time>2026-04-18T09:12:00Z</time></trkpt><trkpt lat="41.72299271099959" lon="13.805475452673267"><ele>1233.8</ele><time>2026-04-18T09:12:02Z</time></trkpt><trkpt lat="41.722885331121844" lon="13.805542547898046"><ele>1231.6</ele><time>2026-04-18T09:12:04Z</time></trkpt><trkpt lat="41.72278182061419" lon="13.805603066255646"><ele>1229.4</ele><time>2026-04-18T09:12:06Z</time></trkpt><trkpt lat="41.72273361247456" lon="13.805668231939386"><ele>1227.2</ele><time>2026-04-18T09:12:07Z</time></trkpt><trkpt lat="41.72263847643437" lon="13.80578393409434"><ele>1225.0</ele><time>2026-04-18T09:12:09Z</time></trkpt><trkpt lat="41.72260988649986" lon="13.80586002704139"><ele>1225.0</ele><time>2026-04-18T09:12:10Z</time></trkpt><trkpt lat="41.72255835686084" lon="13.805937086235572"><ele>1225.0</ele><time>2026-04-18T09:12:11Z</time></trkpt><trkpt lat="41.72250657128246" lon="13.806012809479757"><ele>1225.0</ele><time>2026-04-18T09:12:12Z</time></trkpt><trkpt lat="41.72245667052311" lon="13.806088120911435"><ele>1225.0</ele><time>2026-04-18T09:12:13Z</time></trkpt><trkpt lat="41.72237282165347" lon="13.806207500532885"><ele>1225.0</ele><time>2026-04-18T09:12:15Z</time></trkpt><trkpt lat="41.72233037545759" lon="13.806273517553628"><ele>1225.0</ele><time>2026-04-18T09:12:16Z</time></trkpt><trkpt lat="41.722284240647724" lon="13.806347360261741"><ele>1224.7142857142858</ele><time>2026-04-18T09:12:17Z</time></trkpt><trkpt lat="41.72223267330608" lon="13.806420472243248"><ele>1224.4285714285716</ele><time>2026-04-18T09:12:18Z</time></trkpt><trkpt lat="41.72217907184277" lon="13.806495950555664"><ele>1224.142857142857</ele><time>2026-04-18T09:12:19Z</time></trkpt><trkpt lat="41.72211963132706" lon="13.806546509812035"><ele>1223.857142857143</ele><time>2026-04-18T09:12:20Z</time></trkpt><trkpt lat="41.722055714776985" lon="13.806587034771614"><ele>1223.5714285714287</ele><time>2026-04-18T09:12:21Z</time></trkpt><trkpt lat="41.72199284433828" lon="13.806616768530159"><ele>1223.2857142857142</ele><time>2026-04-18T09:12:22Z</time></trkpt><trkpt lat="41.72192885723909" lon="13.806657883770077"><ele>1223.0</ele><time>2026-04-18T09:12:23Z</time></trkpt><trkpt lat="41.721866657820925" lon="13.806696387275757"><ele>1223.0</ele><time>2026-04-18T09:12:24Z</time></trkpt><trkpt lat="41.721800448684654" lon="13.806739625743354"><ele>1223.0</ele><time>2026-04-18T09:12:25Z</time></trkpt><trkpt lat="41.721740092138994" lon="13.806771367598754"><ele>1223.0</ele><time>2026-04-18T09:12:26Z</time></trkpt><trkpt lat="41.7216737826512" lon="13.806812078094447"><ele>1223.0</ele><time>2026-04-18T09:12:27Z</time></trkpt><trkpt lat="41.721610460092094" lon="13.806851140420981"><ele>1223.0</ele><time>2026-04-18T09:12:28Z</time></trkpt><trkpt lat="41.72154075822696" lon="13.806891776125703"><ele>1223.0</ele><time>2026-04-18T09:12:29Z</time></trkpt><trkpt lat="41.72147343527842" lon="13.80697112432935"><ele>1223.0</ele><time>2026-04-18T09:12:30Z</time></trkpt><trkpt lat="41.72140850874648" lon="13.807068850086962"><ele>1224.75</ele><time>2026-04-18T09:12:31Z</time></trkpt><trkpt lat="41.72130498354695" lon="13.807194093853365"><ele>1226.5</ele><time>2026-04-18T09:12:32Z</time></trkpt><trkpt lat="41.72121210562219" lon="13.807344825334564"><ele>1228.25</ele><time>2026-04-18T09:12:33Z</time></trkpt><trkpt lat="41.72112406209963" lon="13.807489708252"><ele>1230.0</ele><time>2026-04-18T09:12:34Z</time></trkpt><trkpt lat="41.721022160414606" lon="13.807652168396343"><ele>1241.0</ele><time>2026-04-18T09:12:35Z</time></trkpt><trkpt lat="41.72093280586299" lon="13.80782866939806"><ele>1252.0</ele><time>2026-04-18T09:12:36Z</time></trkpt><trkpt lat="41.72082098582319" lon="13.807998217126496"><ele>1263.0</ele><time>2026-04-18T09:12:37Z</time></trkpt><trkpt lat="41.720699700884666" lon="13.808162380194272"><ele>1263.0</ele><time>2026-04-18T09:12:38Z</time></trkpt><trkpt lat="41.72054795604668" lon="13.808288877523541"><ele>1263.0</ele><time>2026-04-18T09:12:39Z</time></trkpt><trkpt lat="41.72037886225685" lon="13.80838034363316"><ele>1263.0</ele><time>2026-04-18T09:12:40Z</time></trkpt><trkpt lat="41.72020211057705" lon="13.808443201826638"><ele>1259.0</ele><time>2026-04-18T09:12:41Z</time></trkpt><trkpt lat="41.72005395884048" lon="13.80847823904408"><ele>1255.0</ele><time>2026-04-18T09:12:42Z</time></trkpt><trkpt lat="41.719937974810854" lon="13.808514524507322"><ele>1251.0</ele><time>2026-04-18T09:12:43Z</time></trkpt><trkpt lat="41.71986173673765" lon="13.808585910723357"><ele>1247.0</ele><time>2026-04-18T09:12:44Z</time></trkpt><trkpt lat="41.71979566542232" lon="13.80868657172291"><ele>1247.0</ele><time>2026-04-18T09:12:45Z</time></trkpt><trkpt lat="41.719785424551226" lon="13.808833736908523"><ele>1247.0</ele><time>2026-04-18T09:12:46Z</time></trkpt><trkpt lat="41.71991985267776" lon="13.809017109851924"><ele>1247.0</ele><time>2026-04-18T09:12:48Z</time></trkpt><trkpt lat="41.72009817238575" lon="13.80909805595967"><ele>1249.3333333333335</ele><time>2026-04-18T09:12:49Z</time></trkpt><trkpt lat="41.72027561536085" lon="13.809207849643402"><ele>1251.6666666666667</ele><time>2026-04-18T09:12:50Z</time></trkpt><trkpt lat="41.7204131185814" lon="13.80932292563112"><ele>1254.0</ele><time>2026-04-18T09:12:51Z</time></trkpt><trkpt lat="41.72054278572993" lon="13.809441068923409"><ele>1254.0</ele><time>2026-04-18T09:12:52Z</time></trkpt><trkpt lat="41.7206994575571" lon="13.809573579480213"><ele>1254.0</ele><time>2026-04-18T09:12:53Z</time></trkpt><trkpt lat="41.72091786898419" lon="13.809704102542522"><ele>1254.0</ele><time>2026-04-18T09:12:54Z</time></trkpt><trkpt lat="41.72115695992236" lon="13.809868139652517"><ele>1253.0</ele><time>2026-04-18T09:12:55Z</time></trkpt><trkpt lat="41.72136423167808" lon="13.81000714715034"><ele>1252.0</ele><time>2026-04-18T09:12:56Z</time></trkpt><trkpt lat="41.72154330869837" lon="13.81018317332503"><ele>1252.0</ele><time>2026-04-18T09:12:57Z</time></trkpt><trkpt lat="41.72171959073107" lon="13.810386394092278"><ele>1252.0</ele><time>2026-04-18T09:12:58Z</time></trkpt><trkpt lat="41.7218416605192" lon="13.810635247633774"><ele>1265.6666666666665</ele><time>2026-04-18T09:12:59Z</time></trkpt><trkpt lat="41.72192994372123" lon="13.810757625970206"><ele>1279.3333333333333</ele><time>2026-04-18T09:13:00Z</time></trkpt><trkpt lat="41.722077171033874" lon="13.810872215870727"><ele>1293.0</ele><time>2026-04-18T09:13:01Z</time></trkpt><trkpt lat="41.722214697119526" lon="13.810979014619742"><ele>1294.0</ele><time>2026-04-18T09:13:02Z</time></trkpt><trkpt lat="41.722384739242436" lon="13.811036149154022"><ele>1295.0</ele><time>2026-04-18T09:13:03Z</time></trkpt><trkpt lat="41.72259261157186" lon="13.811148254289225"><ele>1296.0</ele><time>2026-04-18T09:13:04Z</time></trkpt><trkpt lat="41.722750006523356" lon="13.811313445599849"><ele>1296.0</ele><time>2026-04-18T09:13:05Z</time></trkpt><trkpt lat="41.72291286517765" lon="13.81149470163338"><ele>1296.0</ele><time>2026-04-18T09:13:06Z</time></trkpt><trkpt lat="41.72308018827043" lon="13.811673233566312"><ele>1296.0</ele><time>2026-04-18T09:13:07Z</time></trkpt><trkpt lat="41.72326279627334" lon="13.811821728703372"><ele>1300.3333333333333</ele><time>2026-04-18T09:13:08Z</time></trkpt><trkpt lat="41.72342050664775" lon="13.811988377197167"><ele>1304.6666666666665</ele><time>2026-04-18T09:13:09Z</time></trkpt><trkpt lat="41.723520026316365" lon="13.812213301668443"><ele>1309.0</ele><time>2026-04-18T09:13:10Z</time></trkpt><trkpt lat="41.723619407400584" lon="13.812499031175067"><ele>1298.0</ele><time>2026-04-18T09:13:11Z</time></trkpt><trkpt lat="41.723766759836444" lon="13.812714000928011"><ele>1287.0</ele><time>2026-04-18T09:13:12Z</time></trkpt><trkpt lat="41.72391246867327" lon="13.81290558403567"><ele>1276.0</ele><time>2026-04-18T09:13:13Z</time></trkpt><trkpt lat="41.72402255558081" lon="13.813055215932918"><ele>1276.0</ele><time>2026-04-18T09:13:14Z</time></trkpt><trkpt lat="41.72411995568421" lon="13.8131319462644"><ele>1276.0</ele><time>2026-04-18T09:13:15Z</time></trkpt><trkpt lat="41.7242683050168" lon="13.813185913799234"><ele>1276.0</ele><time>2026-04-18T09:13:16Z</time></trkpt><trkpt lat="41.72442531436239" lon="13.813165060585725"><ele>1276.0</ele><time>2026-04-18T09:13:17Z</time></trkpt><trkpt lat="41.72458460522874" lon="13.813106833065234"><ele>1276.0</ele><time>2026-04-18T09:13:18Z</time></trkpt><trkpt lat="41.724781403644336" lon="13.813006261910916"><ele>1276.0</ele><time>2026-04-18T09:13:19Z</time></trkpt><trkpt lat="41.72502490246319" lon="13.812964581948872"><ele>1276.0</ele><time>2026-04-18T09:13:20Z</time></trkpt><trkpt lat="41.725227842672545" lon="13.813002948210702"><ele>1276.0</ele><time>2026-04-18T09:13:21Z</time></trkpt><trkpt lat="41.72539768304127" lon="13.812958880558234"><ele>1276.0</ele><time>2026-04-18T09:13:22Z</time></trkpt><trkpt lat="41.72554352669939" lon="13.812946289602507"><ele>1280.3333333333333</ele><time>2026-04-18T09:13:23Z</time></trkpt><trkpt lat="41.72568044384503" lon="13.813012738099905"><ele>1284.6666666666667</ele><time>2026-04-18T09:13:24Z</time></trkpt><trkpt lat="41.72579315298447" lon="13.813152795150632"><ele>1289.0</ele><time>2026-04-18T09:13:25Z</time></trkpt><trkpt lat="41.725927923715645" lon="13.813297741605615"><ele>1288.6666666666667</ele><time>2026-04-18T09:13:26Z</time></trkpt><trkpt lat="41.72606961244011" lon="13.813389473817992"><ele>1288.3333333333333</ele><time>2026-04-18T09:13:27Z</time></trkpt><trkpt lat="41.726235479379646" lon="13.813339551003576"><ele>1288.0</ele><time>2026-04-18T09:13:28Z</time></trkpt><trkpt lat="41.726392462258936" lon="13.813279186568497"><ele>1288.0</ele><time>2026-04-18T09:13:29Z</time></trkpt><trkpt lat="41.72655820953305" lon="13.813194153409723"><ele>1288.0</ele><time>2026-04-18T09:13:30Z</time></trkpt><trkpt lat="41.72671029161222" lon="13.813084549079129"><ele>1288.0</ele><time>2026-04-18T09:13:31Z</time></trkpt><trkpt lat="41.726860277193445" lon="13.812971956764489"><ele>1290.0</ele><time>2026-04-18T09:13:32Z</time></trkpt><trkpt lat="41.72698490986973" lon="13.812850053035282"><ele>1292.0</ele><time>2026-04-18T09:13:33Z</time></trkpt><trkpt lat="41.72709397263651" lon="13.812796784427961"><ele>1294.0</ele><time>2026-04-18T09:13:34Z</time></trkpt><trkpt lat="41.72718557044032" lon="13.812759690486452"><ele>1296.0</ele><time>2026-04-18T09:13:35Z</time></trkpt><trkpt lat="41.72727784248176" lon="13.81280256716272"><ele>1296.0</ele><time>2026-04-18T09:13:36Z</time></trkpt><trkpt lat="41.727397891292476" lon="13.812860964695597"><ele>1296.0</ele><time>2026-04-18T09:13:37Z</time></trkpt><trkpt lat="41.727555352967656" lon="13.812936651313882"><ele>1296.0</ele><time>2026-04-18T09:13:38Z</time></trkpt><trkpt lat="41.727712299008274" lon="13.81301616618984"><ele>1304.0</ele><time>2026-04-18T09:13:39Z</time></trkpt><trkpt lat="41.72786780327053" lon="13.813119007081935"><ele>1312.0</ele><time>2026-04-18T09:13:40Z</time></trkpt><trkpt lat="41.727985360466825" lon="13.813256936742878"><ele>1320.0</ele><time>2026-04-18T09:13:41Z</time></trkpt><trkpt lat="41.72811506029746" lon="13.813396261240003"><ele>1312.0</ele><time>2026-04-18T09:13:42Z</time></trkpt><trkpt lat="41.72824872533963" lon="13.813520218230716"><ele>1304.0</ele><time>2026-04-18T09:13:43Z</time></trkpt><trkpt lat="41.72841230068234" lon="13.813573473800705"><ele>1296.0</ele><time>2026-04-18T09:13:44Z</time></trkpt><trkpt lat="41.72861442362096" lon="13.813607146892407"><ele>1296.0</ele><time>2026-04-18T09:13:45Z</time></trkpt><trkpt lat="41.72880285099057" lon="13.813631052236516"><ele>1296.0</ele><time>2026-04-18T09:13:46Z</time></trkpt><trkpt lat="41.728994547851244" lon="13.81368038809933"><ele>1296.0</ele><time>2026-04-18T09:13:47Z</time></trkpt><trkpt lat="41.729187974554996" lon="13.81367381679682"><ele>1296.0</ele><time>2026-04-18T09:13:48Z</time></trkpt><trkpt lat="41.72938452686898" lon="13.81364246337031"><ele>1296.0</ele><time>2026-04-18T09:13:49Z</time></trkpt><trkpt lat="41.729571041620545" lon="13.813521760185806"><ele>1296.0</ele><time>2026-04-18T09:13:50Z</time></trkpt><trkpt lat="41.72976764452184" lon="13.813388110980782"><ele>1307.5</ele><time>2026-04-18T09:13:51Z</time></trkpt><trkpt lat="41.72999321681774" lon="13.813292319039114"><ele>1319.0</ele><time>2026-04-18T09:13:52Z</time></trkpt><trkpt lat="41.73026340877014" lon="13.81325057507018"><ele>1319.0</ele><time>2026-04-18T09:13:53Z</time></trkpt><trkpt lat="41.73052389408335" lon="13.813220003664421"><ele>1319.0</ele><time>2026-04-18T09:13:54Z</time></trkpt><trkpt lat="41.73081435128375" lon="13.813162716415537"><ele>1318.0</ele><time>2026-04-18T09:13:55Z</time></trkpt><trkpt lat="41.7311137942003" lon="13.813079617687693"><ele>1317.0</ele><time>2026-04-18T09:13:56Z</time></trkpt><trkpt lat="41.73142865635144" lon="13.81299669661195"><ele>1317.0</ele><time>2026-04-18T09:13:57Z</time></trkpt><trkpt lat="41.73173681953499" lon="13.812944453275074"><ele>1317.0</ele><time>2026-04-18T09:13:58Z</time></trkpt><trkpt lat="41.73200362893407" lon="13.812907755973"><ele>1318.5</ele><time>2026-04-18T09:13:59Z</time></trkpt><trkpt lat="41.732255592145194" lon="13.81284849477607"><ele>1320.0</ele><time>2026-04-18T09:14:00Z</time></trkpt><trkpt lat="41.73251350542275" lon="13.812742490056058"><ele>1330.5</ele><time>2026-04-18T09:14:01Z</time></trkpt><trkpt lat="41.73278433654552" lon="13.812623087773247"><ele>1341.0</ele><time>2026-04-18T09:14:02Z</time></trkpt><trkpt lat="41.73306002702722" lon="13.812513127629476"><ele>1341.0</ele><time>2026-04-18T09:14:03Z</time></trkpt><trkpt lat="41.733323166276065" lon="13.81239937092737"><ele>1341.0</ele><time>2026-04-18T09:14:04Z</time></trkpt><trkpt lat="41.7335802718949" lon="13.81227695842247"><ele>1332.5</ele><time>2026-04-18T09:14:05Z</time></trkpt><trkpt lat="41.733850023994165" lon="13.812155521718097"><ele>1324.0</ele><time>2026-04-18T09:14:06Z</time></trkpt><trkpt lat="41.734135711946585" lon="13.81207773725073"><ele>1326.5</ele><time>2026-04-18T09:14:07Z</time></trkpt><trkpt lat="41.73444060554589" lon="13.812002371554508"><ele>1329.0</ele><time>2026-04-18T09:14:08Z</time></trkpt><trkpt lat="41.73470457040845" lon="13.811907824705644"><ele>1335.0</ele><time>2026-04-18T09:14:09Z</time></trkpt><trkpt lat="41.734964450159076" lon="13.811807948990676"><ele>1341.0</ele><time>2026-04-18T09:14:10Z</time></trkpt><trkpt lat="41.73522306444979" lon="13.81168400035569"><ele>1341.0</ele><time>2026-04-18T09:14:11Z</time></trkpt><trkpt lat="41.73548747611057" lon="13.81154624882216"><ele>1341.0</ele><time>2026-04-18T09:14:12Z</time></trkpt><trkpt lat="41.73576194530761" lon="13.811409818132034"><ele>1341.0</ele><time>2026-04-18T09:14:13Z</time></trkpt><trkpt lat="41.73601314218784" lon="13.811270818607763"><ele>1341.0</ele><time>2026-04-18T09:14:14Z</time></trkpt><trkpt lat="41.73622668390102" lon="13.81112654656429"><ele>1343.0</ele><time>2026-04-18T09:14:15Z</time></trkpt><trkpt lat="41.736429986834686" lon="13.81100133337307"><ele>1345.0</ele><time>2026-04-18T09:14:16Z</time></trkpt><trkpt lat="41.73665916538627" lon="13.810914330350588"><ele>1354.5</ele><time>2026-04-18T09:14:17Z</time></trkpt><trkpt lat="41.73690929149244" lon="13.810886871188686"><ele>1364.0</ele><time>2026-04-18T09:14:18Z</time></trkpt><trkpt lat="41.737140075718436" lon="13.81080188387631"><ele>1364.0</ele><time>2026-04-18T09:14:19Z</time></trkpt><trkpt lat="41.73734481997453" lon="13.810769774949279"><ele>1364.0</ele><time>2026-04-18T09:14:20Z</time></trkpt><trkpt lat="41.7375259066991" lon="13.81076428279349"><ele>1364.0</ele><time>2026-04-18T09:14:21Z</time></trkpt><trkpt lat="41.73769693960738" lon="13.810785346018813"><ele>1364.75</ele><time>2026-04-18T09:14:22Z</time></trkpt><trkpt lat="41.737844889660636" lon="13.810793073629174"><ele>1365.5</ele><time>2026-04-18T09:14:23Z</time></trkpt><trkpt lat="41.737979199556875" lon="13.810834598098035"><ele>1366.25</ele><time>2026-04-18T09:14:24Z</time></trkpt><trkpt lat="41.73811685244843" lon="13.81091614794365"><ele>1367.0</ele><time>2026-04-18T09:14:25Z</time></trkpt><trkpt lat="41.738186833472845" lon="13.811094647206826"><ele>1367.0</ele><time>2026-04-18T09:14:26Z</time></trkpt><trkpt lat="41.73824898956038" lon="13.811244963775769"><ele>1367.0</ele><time>2026-04-18T09:14:27Z</time></trkpt><trkpt lat="41.73829162235915" lon="13.811422065284567"><ele>1367.0</ele><time>2026-04-18T09:14:28Z</time></trkpt><trkpt lat="41.73831874597702" lon="13.811622562231296"><ele>1367.0</ele><time>2026-04-18T09:14:29Z</time></trkpt><trkpt lat="41.73826154547811" lon="13.811843887786438"><ele>1370.0</ele><time>2026-04-18T09:14:30Z</time></trkpt><trkpt lat="41.738193946188076" lon="13.812032603262903"><ele>1373.0</ele><time>2026-04-18T09:14:31Z</time></trkpt><trkpt lat="41.73804986690412" lon="13.812214250015234"><ele>1376.0</ele><time>2026-04-18T09:14:32Z</time></trkpt><trkpt lat="41.73788774965872" lon="13.812349132641758"><ele>1380.0</ele><time>2026-04-18T09:14:33Z</time></trkpt><trkpt lat="41.737672937937276" lon="13.812542696098056"><ele>1384.0</ele><time>2026-04-18T09:14:34Z</time></trkpt><trkpt lat="41.737486598611476" lon="13.812722204235632"><ele>1384.0</ele><time>2026-04-18T09:14:35Z</time></trkpt><trkpt lat="41.73733365163495" lon="13.812887829177525"><ele>1384.0</ele><time>2026-04-18T09:14:36Z</time></trkpt><trkpt lat="41.73722677038221" lon="13.813060679456061"><ele>1384.0</ele><time>2026-04-18T09:14:37Z</time></trkpt><trkpt lat="41.73714688377265" lon="13.813329181033172"><ele>1396.5</ele><time>2026-04-18T09:14:38Z</time></trkpt><trkpt lat="41.73701531863857" lon="13.813617560073112"><ele>1409.0</ele><time>2026-04-18T09:14:39Z</time></trkpt><trkpt lat="41.736892045213565" lon="13.813841378559252"><ele>1401.3333333333335</ele><time>2026-04-18T09:14:40Z</time></trkpt><trkpt lat="41.73676146998604" lon="13.813987692844185"><ele>1393.6666666666667</ele><time>2026-04-18T09:14:41Z</time></trkpt><trkpt lat="41.73659831886094" lon="13.814107675139661"><ele>1386.0</ele><time>2026-04-18T09:14:42Z</time></trkpt><trkpt lat="41.73639954641646" lon="13.814247905959991"><ele>1387.0</ele><time>2026-04-18T09:14:43Z</time></trkpt><trkpt lat="41.73616631478728" lon="13.814410420127755"><ele>1388.0</ele><time>2026-04-18T09:14:44Z</time></trkpt><trkpt lat="41.73597927156754" lon="13.814544963773635"><ele>1388.0</ele><time>2026-04-18T09:14:45Z</time></trkpt><trkpt lat="41.73586093156142" lon="13.814684495741515"><ele>1388.0</ele><time>2026-04-18T09:14:46Z</time></trkpt><trkpt lat="41.73578813500583" lon="13.814822456583862"><ele>1388.0</ele><time>2026-04-18T09:14:47Z</time></trkpt><trkpt lat="41.73573818886657" lon="13.815038343039918"><ele>1396.3333333333335</ele><time>2026-04-18T09:14:48Z</time></trkpt><trkpt lat="41.73563511976165" lon="13.815284458247115"><ele>1404.6666666666667</ele><time>2026-04-18T09:14:49Z</time></trkpt><trkpt lat="41.73550895568041" lon="13.81551186601049"><ele>1413.0</ele><time>2026-04-18T09:14:50Z</time></trkpt><trkpt lat="41.73535986368968" lon="13.815717709915232"><ele>1413.0</ele><time>2026-04-18T09:14:51Z</time></trkpt><trkpt lat="41.73519452596984" lon="13.81593969756089"><ele>1413.0</ele><time>2026-04-18T09:14:52Z</time></trkpt><trkpt lat="41.73504087332948" lon="13.816105876786015"><ele>1413.0</ele><time>2026-04-18T09:14:53Z</time></trkpt><trkpt lat="41.73491067937919" lon="13.81618288057153"><ele>1413.0</ele><time>2026-04-18T09:14:54Z</time></trkpt><trkpt lat="41.73474065496076" lon="13.816277303960756"><ele>1413.0</ele><time>2026-04-18T09:14:55Z</time></trkpt><trkpt lat="41.73459997411795" lon="13.816433702127078"><ele>1413.0</ele><time>2026-04-18T09:14:56Z</time></trkpt><trkpt lat="41.734482543063855" lon="13.816643647423527"><ele>1410.5</ele><time>2026-04-18T09:14:57Z</time></trkpt><trkpt lat="41.73438308477186" lon="13.816876664963845"><ele>1408.0</ele><time>2026-04-18T09:14:58Z</time></trkpt><trkpt lat="41.734279251374176" lon="13.817207207051561"><ele>1408.0</ele><time>2026-04-18T09:14:59Z</time></trkpt><trkpt lat="41.7341684210249" lon="13.817470088772637"><ele>1408.0</ele><time>2026-04-18T09:15:00Z</time></trkpt><trkpt lat="41.73405749100424" lon="13.817672710328996"><ele>1408.0</ele><time>2026-04-18T09:15:01Z</time></trkpt><trkpt lat="41.733937599237755" lon="13.817812016322073"><ele>1405.6666666666665</ele><time>2026-04-18T09:15:02Z</time></trkpt><trkpt lat="41.73377081020907" lon="13.81793775881725"><ele>1403.3333333333333</ele><time>2026-04-18T09:15:03Z</time></trkpt><trkpt lat="41.73359278417814" lon="13.818071141017786"><ele>1401.0</ele><time>2026-04-18T09:15:04Z</time></trkpt><trkpt lat="41.73344693479073" lon="13.81823634634901"><ele>1401.0</ele><time>2026-04-18T09:15:05Z</time></trkpt><trkpt lat="41.73336640878253" lon="13.818423193587698"><ele>1401.0</ele><time>2026-04-18T09:15:06Z</time></trkpt><trkpt lat="41.73329941651603" lon="13.818672475527833"><ele>1401.0</ele><time>2026-04-18T09:15:07Z</time></trkpt><trkpt lat="41.73323208626172" lon="13.818915012560048"><ele>1405.75</ele><time>2026-04-18T09:15:08Z</time></trkpt><trkpt lat="41.73317338625272" lon="13.819092686265368"><ele>1410.5</ele><time>2026-04-18T09:15:09Z</time></trkpt><trkpt lat="41.73309328074773" lon="13.819263901102394"><ele>1415.25</ele><time>2026-04-18T09:15:10Z</time></trkpt><trkpt lat="41.733026106448925" lon="13.819366552886516"><ele>1420.0</ele><time>2026-04-18T09:15:11Z</time></trkpt><trkpt lat="41.73296591439077" lon="13.819457778317314"><ele>1423.6</ele><time>2026-04-18T09:15:12Z</time></trkpt><trkpt lat="41.7329253795709" lon="13.819542907473897"><ele>1427.2</ele><time>2026-04-18T09:15:13Z</time></trkpt><trkpt lat="41.73292061434267" lon="13.819706022896943"><ele>1430.8000000000002</ele><time>2026-04-18T09:15:15Z</time></trkpt><trkpt lat="41.73300551656075" lon="13.819779231974977"><ele>1434.4</ele><time>2026-04-18T09:15:17Z</time></trkpt><trkpt lat="41.73309120161631" lon="13.819775626062158"><ele>1438.0</ele><time>2026-04-18T09:15:19Z</time></trkpt><trkpt lat="41.73317756902505" lon="13.819688088618905"><ele>1438.0</ele><time>2026-04-18T09:15:21Z</time></trkpt><trkpt lat="41.73320074298129" lon="13.819591100726942"><ele>1438.0</ele><time>2026-04-18T09:16:32Z</time></trkpt><trkpt lat="41.733259313307585" lon="13.819549559760102"><ele>1438.0</ele><time>2026-04-18T09:16:38Z</time></trkpt><trkpt lat="41.73330169522817" lon="13.819486163667303"><ele>1438.0</ele><time>2026-04-18T09:16:49Z</time></trkpt><trkpt lat="41.73323200061036" lon="13.819605416956904"><ele>1438.0</ele><time>2026-04-18T09:17:27Z</time></trkpt><trkpt lat="41.733296235619854" lon="13.819536282992006"><ele>1438.0</ele><time>2026-04-18T09:24:15Z</time></trkpt><trkpt lat="41.733351628150906" lon="13.81944712309988"><ele>1435.0</ele><time>2026-04-18T09:24:48Z</time></trkpt><trkpt lat="41.73338588821376" lon="13.819288404402275"><ele>1432.0</ele><time>2026-04-18T09:24:50Z</time></trkpt><trkpt lat="41.733412349141695" lon="13.8191940901454"><ele>1429.0</ele><time>2026-04-18T09:24:51Z</time></trkpt><trkpt lat="41.733444348233164" lon="13.819087935222957"><ele>1426.0</ele><time>2026-04-18T09:24:52Z</time></trkpt><trkpt lat="41.73347526018308" lon="13.81898094813987"><ele>1423.0</ele><time>2026-04-18T09:24:53Z</time></trkpt><trkpt lat="41.73350304445173" lon="13.818888756637401"><ele>1420.0</ele><time>2026-04-18T09:24:54Z</time></trkpt><trkpt lat="41.73352883417138" lon="13.818785967589138"><ele>1420.0</ele><time>2026-04-18T09:24:55Z</time></trkpt><trkpt lat="41.733525355650166" lon="13.818636271162408"><ele>1420.0</ele><time>2026-04-18T09:24:56Z</time></trkpt><trkpt lat="41.733571450177784" lon="13.818538696101426"><ele>1420.0</ele><time>2026-04-18T09:24:57Z</time></trkpt><trkpt lat="41.73362388436051" lon="13.818467173342103"><ele>1420.0</ele><time>2026-04-18T09:24:58Z</time></trkpt><trkpt lat="41.733699877121644" lon="13.818426173132059"><ele>1420.0</ele><time>2026-04-18T09:24:59Z</time></trkpt><trkpt lat="41.733780648863146" lon="13.818380810149929"><ele>1420.0</ele><time>2026-04-18T09:25:00Z</time></trkpt><trkpt lat="41.733876538099935" lon="13.818338789690607"><ele>1422.6</ele><time>2026-04-18T09:25:01Z</time></trkpt><trkpt lat="41.733959127828925" lon="13.818297479819023"><ele>1425.2</ele><time>2026-04-18T09:25:02Z</time></trkpt><trkpt lat="41.734021127358275" lon="13.81826630433532"><ele>1427.8000000000002</ele><time>2026-04-18T09:25:03Z</time></trkpt><trkpt lat="41.73412543618449" lon="13.818209727851407"><ele>1430.4</ele><time>2026-04-18T09:25:15Z</time></trkpt><trkpt lat="41.73420547145569" lon="13.81815167144583"><ele>1433.0</ele><time>2026-04-18T09:25:16Z</time></trkpt><trkpt lat="41.734311636195606" lon="13.81805058520216"><ele>1434.75</ele><time>2026-04-18T09:25:17Z</time></trkpt><trkpt lat="41.734401660517335" lon="13.817950694077682"><ele>1436.5</ele><time>2026-04-18T09:25:18Z</time></trkpt><trkpt lat="41.73449050078346" lon="13.817828137524822"><ele>1438.25</ele><time>2026-04-18T09:25:19Z</time></trkpt><trkpt lat="41.73457634327055" lon="13.81767666819463"><ele>1440.0</ele><time>2026-04-18T09:25:20Z</time></trkpt><trkpt lat="41.734668417697534" lon="13.817509101131765"><ele>1440.0</ele><time>2026-04-18T09:25:21Z</time></trkpt><trkpt lat="41.73477242125926" lon="13.817333148882883"><ele>1440.0</ele><time>2026-04-18T09:25:22Z</time></trkpt><trkpt lat="41.73488814637462" lon="13.817211351147309"><ele>1440.0</ele><time>2026-04-18T09:25:23Z</time></trkpt><trkpt lat="41.7350395354593" lon="13.817138198752959"><ele>1440.0</ele><time>2026-04-18T09:25:24Z</time></trkpt><trkpt lat="41.73519445649422" lon="13.817064008765634"><ele>1440.0</ele><time>2026-04-18T09:25:25Z</time></trkpt><trkpt lat="41.735361678874376" lon="13.816980215927902"><ele>1440.0</ele><time>2026-04-18T09:25:26Z</time></trkpt><trkpt lat="41.73551752949405" lon="13.816869811351797"><ele>1439.6666666666667</ele><time>2026-04-18T09:25:27Z</time></trkpt><trkpt lat="41.73567900921881" lon="13.816741452512797"><ele>1439.3333333333335</ele><time>2026-04-18T09:25:28Z</time></trkpt><trkpt lat="41.73583976413333" lon="13.816594997816168"><ele>1439.0</ele><time>2026-04-18T09:25:29Z</time></trkpt><trkpt lat="41.73598990058508" lon="13.81642304613833"><ele>1439.6666666666667</ele><time>2026-04-18T09:25:30Z</time></trkpt><trkpt lat="41.736140329913695" lon="13.816244137636424"><ele>1440.3333333333333</ele><time>2026-04-18T09:25:31Z</time></trkpt><trkpt lat="41.736280273114716" lon="13.816049543160693"><ele>1441.0</ele><time>2026-04-18T09:25:32Z</time></trkpt><trkpt lat="41.736402552301996" lon="13.815870702137515"><ele>1441.0</ele><time>2026-04-18T09:25:33Z</time></trkpt><trkpt lat="41.7365036687496" lon="13.815774308005848"><ele>1441.0</ele><time>2026-04-18T09:25:34Z</time></trkpt><trkpt lat="41.7366052285418" lon="13.815740851876967"><ele>1441.0</ele><time>2026-04-18T09:25:35Z</time></trkpt><trkpt lat="41.73667913192103" lon="13.815747838295298"><ele>1441.0</ele><time>2026-04-18T09:25:36Z</time></trkpt><trkpt lat="41.73683094285885" lon="13.815726376598683"><ele>1449.3333333333333</ele><time>2026-04-18T09:25:37Z</time></trkpt><trkpt lat="41.736999439567704" lon="13.815687870987533"><ele>1457.6666666666667</ele><time>2026-04-18T09:25:38Z</time></trkpt><trkpt lat="41.7371577180748" lon="13.81560928605551"><ele>1466.0</ele><time>2026-04-18T09:25:39Z</time></trkpt><trkpt lat="41.73729942080602" lon="13.815491190128126"><ele>1466.0</ele><time>2026-04-18T09:25:40Z</time></trkpt><trkpt lat="41.737431631916934" lon="13.815352478331295"><ele>1466.0</ele><time>2026-04-18T09:25:41Z</time></trkpt><trkpt lat="41.737567389612465" lon="13.81520957409833"><ele>1466.0</ele><time>2026-04-18T09:25:42Z</time></trkpt><trkpt lat="41.737684668240604" lon="13.815109084782957"><ele>1461.3333333333335</ele><time>2026-04-18T09:25:43Z</time></trkpt><trkpt lat="41.73781960100474" lon="13.815052578765103"><ele>1456.6666666666667</ele><time>2026-04-18T09:25:44Z</time></trkpt><trkpt lat="41.737978998119786" lon="13.81501594566183"><ele>1452.0</ele><time>2026-04-18T09:25:45Z</time></trkpt><trkpt lat="41.738149071729225" lon="13.814924265138336"><ele>1452.0</ele><time>2026-04-18T09:25:46Z</time></trkpt><trkpt lat="41.73835395625344" lon="13.814857416678224"><ele>1452.0</ele><time>2026-04-18T09:25:47Z</time></trkpt><trkpt lat="41.73856115214846" lon="13.814814556785322"><ele>1452.0</ele><time>2026-04-18T09:25:48Z</time></trkpt><trkpt lat="41.738654666756176" lon="13.81483640655057"><ele>1454.25</ele><time>2026-04-18T09:25:49Z</time></trkpt><trkpt lat="41.73872437262098" lon="13.814881881232086"><ele>1456.5</ele><time>2026-04-18T09:25:50Z</time></trkpt><trkpt lat="41.73889148861737" lon="13.814952450344933"><ele>1458.75</ele><time>2026-04-18T09:25:51Z</time></trkpt><trkpt lat="41.739060167955444" lon="13.814984024515256"><ele>1461.0</ele><time>2026-04-18T09:25:52Z</time></trkpt><trkpt lat="41.7392298524568" lon="13.814940602970436"><ele>1466.3333333333333</ele><time>2026-04-18T09:25:53Z</time></trkpt><trkpt lat="41.739389667146895" lon="13.814845147471528"><ele>1471.6666666666665</ele><time>2026-04-18T09:25:54Z</time></trkpt><trkpt lat="41.73958353282692" lon="13.81475487605973"><ele>1477.0</ele><time>2026-04-18T09:25:55Z</time></trkpt><trkpt lat="41.73977215528813" lon="13.81470467028162"><ele>1477.0</ele><time>2026-04-18T09:25:56Z</time></trkpt><trkpt lat="41.739933717176726" lon="13.814632916230478"><ele>1477.0</ele><time>2026-04-18T09:25:57Z</time></trkpt><trkpt lat="41.74007087578877" lon="13.814506575707327"><ele>1477.0</ele><time>2026-04-18T09:25:58Z</time></trkpt><trkpt lat="41.74018896408353" lon="13.814378010745974"><ele>1473.3333333333333</ele><time>2026-04-18T09:25:59Z</time></trkpt><trkpt lat="41.740304446690594" lon="13.814246558414018"><ele>1469.6666666666667</ele><time>2026-04-18T09:26:00Z</time></trkpt><trkpt lat="41.74045666521033" lon="13.814195480907925"><ele>1466.0</ele><time>2026-04-18T09:26:01Z</time></trkpt><trkpt lat="41.74060921809369" lon="13.814147319073788"><ele>1466.0</ele><time>2026-04-18T09:26:02Z</time></trkpt><trkpt lat="41.74077721187375" lon="13.814139535263822"><ele>1466.0</ele><time>2026-04-18T09:26:03Z</time></trkpt><trkpt lat="41.74098334132033" lon="13.814153924051464"><ele>1466.0</ele><time>2026-04-18T09:26:04Z</time></trkpt><trkpt lat="41.74116490763013" lon="13.814191093445217"><ele>1470.6666666666667</ele><time>2026-04-18T09:26:05Z</time></trkpt><trkpt lat="41.74136090572676" lon="13.814203216921204"><ele>1475.3333333333333</ele><time>2026-04-18T09:26:06Z</time></trkpt><trkpt lat="41.7415340614789" lon="13.814160946032915"><ele>1480.0</ele><time>2026-04-18T09:26:07Z</time></trkpt><trkpt lat="41.7417255764269" lon="13.814090295773775"><ele>1487.0</ele><time>2026-04-18T09:26:08Z</time></trkpt><trkpt lat="41.7419361623276" lon="13.813999472126142"><ele>1494.0</ele><time>2026-04-18T09:26:09Z</time></trkpt><trkpt lat="41.74212022272127" lon="13.813845432603493"><ele>1501.0</ele><time>2026-04-18T09:26:10Z</time></trkpt><trkpt lat="41.742289489076306" lon="13.813771384405493"><ele>1501.0</ele><time>2026-04-18T09:26:11Z</time></trkpt><trkpt lat="41.74246487719545" lon="13.813603619657332"><ele>1501.0</ele><time>2026-04-18T09:26:12Z</time></trkpt><trkpt lat="41.74264718894948" lon="13.813475136113466"><ele>1501.0</ele><time>2026-04-18T09:26:13Z</time></trkpt><trkpt lat="41.74281906734406" lon="13.813380424274364"><ele>1496.3333333333333</ele><time>2026-04-18T09:26:14Z</time></trkpt><trkpt lat="41.74299728778341" lon="13.813338643255772"><ele>1491.6666666666667</ele><time>2026-04-18T09:26:15Z</time></trkpt><trkpt lat="41.743162804403404" lon="13.813351814623761"><ele>1487.0</ele><time>2026-04-18T09:26:16Z</time></trkpt><trkpt lat="41.743284135685826" lon="13.813395405271896"><ele>1487.0</ele><time>2026-04-18T09:26:17Z</time></trkpt><trkpt lat="41.74341020861013" lon="13.813465613856279"><ele>1487.0</ele><time>2026-04-18T09:26:18Z</time></trkpt><trkpt lat="41.743531444530156" lon="13.813497669185772"><ele>1487.0</ele><time>2026-04-18T09:26:19Z</time></trkpt><trkpt lat="41.743662382906805" lon="13.81346879786633"><ele>1487.0</ele><time>2026-04-18T09:26:20Z</time></trkpt><trkpt lat="41.7437531654926" lon="13.813336065996117"><ele>1492.0</ele><time>2026-04-18T09:26:20.999Z</time></trkpt><trkpt lat="41.74387314664969" lon="13.813184921211986"><ele>1497.0</ele><time>2026-04-18T09:26:21.999Z</time></trkpt><trkpt lat="41.74401547949983" lon="13.813022418472782"><ele>1502.0</ele><time>2026-04-18T09:26:22.999Z</time></trkpt><trkpt lat="41.74414029882589" lon="13.812890039549746"><ele>1502.0</ele><time>2026-04-18T09:26:24Z</time></trkpt><trkpt lat="41.74426598358593" lon="13.812852333896817"><ele>1502.0</ele><time>2026-04-18T09:26:25Z</time></trkpt><trkpt lat="41.74439090580752" lon="13.812882115264246"><ele>1502.0</ele><time>2026-04-18T09:26:26Z</time></trkpt><trkpt lat="41.74447427065301" lon="13.812961114086304"><ele>1502.0</ele><time>2026-04-18T09:26:27Z</time></trkpt><trkpt lat="41.744590356992774" lon="13.813059887648725"><ele>1502.0</ele><time>2026-04-18T09:26:28Z</time></trkpt><trkpt lat="41.74479339172916" lon="13.813194328948354"><ele>1502.0</ele><time>2026-04-18T09:26:29Z</time></trkpt><trkpt lat="41.74495988493185" lon="13.813252595609947"><ele>1502.0</ele><time>2026-04-18T09:26:30Z</time></trkpt><trkpt lat="41.74513500128138" lon="13.813311025416857"><ele>1499.5</ele><time>2026-04-18T09:26:31Z</time></trkpt><trkpt lat="41.745356399976224" lon="13.813362425493395"><ele>1497.0</ele><time>2026-04-18T09:26:32Z</time></trkpt><trkpt lat="41.74560332892901" lon="13.813420402601094"><ele>1497.0</ele><time>2026-04-18T09:26:33Z</time></trkpt><trkpt lat="41.745893378018" lon="13.813486228128907"><ele>1497.0</ele><time>2026-04-18T09:26:34Z</time></trkpt><trkpt lat="41.74613990712705" lon="13.813555143867024"><ele>1504.3333333333333</ele><time>2026-04-18T09:26:35Z</time></trkpt><trkpt lat="41.74635536081251" lon="13.813599856278646"><ele>1511.6666666666665</ele><time>2026-04-18T09:26:36Z</time></trkpt><trkpt lat="41.74654484211001" lon="13.813634693865756"><ele>1519.0</ele><time>2026-04-18T09:26:37Z</time></trkpt><trkpt lat="41.746658259679776" lon="13.813744006886465"><ele>1519.0</ele><time>2026-04-18T09:26:38Z</time></trkpt><trkpt lat="41.74672298268322" lon="13.813844519357065"><ele>1519.0</ele><time>2026-04-18T09:26:39Z</time></trkpt><trkpt lat="41.746831093740205" lon="13.814004473590717"><ele>1519.0</ele><time>2026-04-18T09:26:40Z</time></trkpt><trkpt lat="41.746936680868615" lon="13.814160693563068"><ele>1519.0</ele><time>2026-04-18T09:26:41Z</time></trkpt><trkpt lat="41.74707705342369" lon="13.814368379834125"><ele>1521.6666666666665</ele><time>2026-04-18T09:26:42Z</time></trkpt><trkpt lat="41.747281219835024" lon="13.81449653845219"><ele>1524.3333333333333</ele><time>2026-04-18T09:26:43Z</time></trkpt><trkpt lat="41.747446376267874" lon="13.814626390852572"><ele>1527.0</ele><time>2026-04-18T09:26:44Z</time></trkpt><trkpt lat="41.747620447189725" lon="13.814732703594139"><ele>1526.0</ele><time>2026-04-18T09:26:45Z</time></trkpt><trkpt lat="41.7478227144077" lon="13.814799552022127"><ele>1525.0</ele><time>2026-04-18T09:26:46Z</time></trkpt><trkpt lat="41.748023173207855" lon="13.814846577644316"><ele>1524.0</ele><time>2026-04-18T09:26:47Z</time></trkpt><trkpt lat="41.74817293877944" lon="13.814887893751798"><ele>1524.0</ele><time>2026-04-18T09:26:48Z</time></trkpt><trkpt lat="41.748294178172124" lon="13.814889225035836"><ele>1524.0</ele><time>2026-04-18T09:26:49Z</time></trkpt><trkpt lat="41.74842197309528" lon="13.814819832871756"><ele>1524.0</ele><time>2026-04-18T09:26:50Z</time></trkpt><trkpt lat="41.74854664663082" lon="13.814683779274901"><ele>1524.0</ele><time>2026-04-18T09:26:51Z</time></trkpt><trkpt lat="41.748687878785816" lon="13.814527448914713"><ele>1525.5</ele><time>2026-04-18T09:26:52Z</time></trkpt><trkpt lat="41.74881101323917" lon="13.814406908940143"><ele>1527.0</ele><time>2026-04-18T09:26:53Z</time></trkpt><trkpt lat="41.74891020210044" lon="13.814350430441618"><ele>1528.5</ele><time>2026-04-18T09:26:54Z</time></trkpt><trkpt lat="41.74896535712791" lon="13.814200505627753"><ele>1530.0</ele><time>2026-04-18T09:26:55Z</time></trkpt><trkpt lat="41.74907881440531" lon="13.814160008450783"><ele>1530.0</ele><time>2026-04-18T09:26:56Z</time></trkpt><trkpt lat="41.749154942522715" lon="13.814230030601141"><ele>1530.0</ele><time>2026-04-18T09:26:57Z</time></trkpt><trkpt lat="41.749249925810176" lon="13.81434112793474"><ele>1530.0</ele><time>2026-04-18T09:26:58Z</time></trkpt><trkpt lat="41.74952421968391" lon="13.814778910527824"><ele>1527.3333333333333</ele><time>2026-04-18T09:26:59Z</time></trkpt><trkpt lat="41.74970742061128" lon="13.814968924083882"><ele>1524.6666666666665</ele><time>2026-04-18T09:27:00Z</time></trkpt><trkpt lat="41.74986509120622" lon="13.815144722544021"><ele>1522.0</ele><time>2026-04-18T09:27:01Z</time></trkpt><trkpt lat="41.750021073836685" lon="13.815235888941684"><ele>1530.3333333333333</ele><time>2026-04-18T09:27:02Z</time></trkpt><trkpt lat="41.750153389524975" lon="13.81526690038993"><ele>1538.6666666666665</ele><time>2026-04-18T09:27:03Z</time></trkpt><trkpt lat="41.75032110159933" lon="13.81528078888252"><ele>1547.0</ele><time>2026-04-18T09:27:04Z</time></trkpt><trkpt lat="41.75048879656529" lon="13.815276570638522"><ele>1547.0</ele><time>2026-04-18T09:27:05Z</time></trkpt><trkpt lat="41.75058280565033" lon="13.815287066848311"><ele>1547.0</ele><time>2026-04-18T09:27:06Z</time></trkpt><trkpt lat="41.75071320704809" lon="13.815343823110043"><ele>1547.0</ele><time>2026-04-18T09:27:07Z</time></trkpt><trkpt lat="41.750828757210556" lon="13.81545287893696"><ele>1547.0</ele><time>2026-04-18T09:27:08Z</time></trkpt><trkpt lat="41.750973612006305" lon="13.815570112934536"><ele>1543.6666666666665</ele><time>2026-04-18T09:27:09Z</time></trkpt><trkpt lat="41.75114424475074" lon="13.815654612561607"><ele>1540.3333333333335</ele><time>2026-04-18T09:27:10Z</time></trkpt><trkpt lat="41.75128441834807" lon="13.81571835878591"><ele>1537.0</ele><time>2026-04-18T09:27:11Z</time></trkpt><trkpt lat="41.75144947317546" lon="13.815801427472303"><ele>1537.0</ele><time>2026-04-18T09:27:12Z</time></trkpt><trkpt lat="41.75157805108662" lon="13.815842873117646"><ele>1537.0</ele><time>2026-04-18T09:27:13Z</time></trkpt><trkpt lat="41.75168375427428" lon="13.815890977366825"><ele>1537.0</ele><time>2026-04-18T09:27:14Z</time></trkpt><trkpt lat="41.75174145759351" lon="13.8159948940572"><ele>1537.0</ele><time>2026-04-18T09:27:15Z</time></trkpt><trkpt lat="41.75174727252551" lon="13.816079211321176"><ele>1537.0</ele><time>2026-04-18T09:27:16Z</time></trkpt><trkpt lat="41.7517445042787" lon="13.816258862042744"><ele>1539.0</ele><time>2026-04-18T09:27:18Z</time></trkpt><trkpt lat="41.751759046954575" lon="13.816411938234172"><ele>1541.0</ele><time>2026-04-18T09:27:19Z</time></trkpt><trkpt lat="41.75177320126888" lon="13.816557180962244"><ele>1543.0</ele><time>2026-04-18T09:27:20Z</time></trkpt><trkpt lat="41.751801188334014" lon="13.816716292376563"><ele>1545.0</ele><time>2026-04-18T09:27:21Z</time></trkpt><trkpt lat="41.751848008392045" lon="13.816863770062286"><ele>1541.6666666666667</ele><time>2026-04-18T09:27:22Z</time></trkpt><trkpt lat="41.75194712007258" lon="13.817042704474519"><ele>1538.3333333333335</ele><time>2026-04-18T09:27:23Z</time></trkpt><trkpt lat="41.75207230383344" lon="13.817229274538672"><ele>1535.0</ele><time>2026-04-18T09:27:24Z</time></trkpt><trkpt lat="41.752171898262056" lon="13.817379126557052"><ele>1535.0</ele><time>2026-04-18T09:27:25Z</time></trkpt><trkpt lat="41.752258618672556" lon="13.817535193781117"><ele>1535.0</ele><time>2026-04-18T09:27:26Z</time></trkpt><trkpt lat="41.752303077282086" lon="13.817701486767778"><ele>1535.0</ele><time>2026-04-18T09:27:27Z</time></trkpt><trkpt lat="41.75235420827803" lon="13.817860360964819"><ele>1535.0</ele><time>2026-04-18T09:27:28Z</time></trkpt><trkpt lat="41.752428487392386" lon="13.817990811792502"><ele>1535.2</ele><time>2026-04-18T09:27:29Z</time></trkpt><trkpt lat="41.75252945675012" lon="13.818093811864477"><ele>1535.4</ele><time>2026-04-18T09:27:30Z</time></trkpt><trkpt lat="41.75262745220591" lon="13.81813519556639"><ele>1535.6</ele><time>2026-04-18T09:27:31Z</time></trkpt><trkpt lat="41.75275407159566" lon="13.818123506873917"><ele>1535.8</ele><time>2026-04-18T09:27:32Z</time></trkpt><trkpt lat="41.75282379746955" lon="13.818144565957798"><ele>1536.0</ele><time>2026-04-18T09:27:33Z</time></trkpt><trkpt lat="41.752910437691725" lon="13.818191238525781"><ele>1536.0</ele><time>2026-04-18T09:27:34Z</time></trkpt><trkpt lat="41.752942537243285" lon="13.818300397527821"><ele>1536.0</ele><time>2026-04-18T09:27:35Z</time></trkpt><trkpt lat="41.75298999794959" lon="13.818420616458377"><ele>1536.0</ele><time>2026-04-18T09:27:36Z</time></trkpt><trkpt lat="41.753098734019595" lon="13.818576421428533"><ele>1536.0</ele><time>2026-04-18T09:27:37Z</time></trkpt><trkpt lat="41.753209592686524" lon="13.818701065466264"><ele>1535.5</ele><time>2026-04-18T09:27:38Z</time></trkpt><trkpt lat="41.7533333077702" lon="13.818773390653577"><ele>1535.0</ele><time>2026-04-18T09:27:39Z</time></trkpt><trkpt lat="41.753491025977205" lon="13.81880198509968"><ele>1534.5</ele><time>2026-04-18T09:27:40Z</time></trkpt><trkpt lat="41.75359444256189" lon="13.818823449579694"><ele>1534.0</ele><time>2026-04-18T09:27:41Z</time></trkpt><trkpt lat="41.75369818288211" lon="13.818842297944233"><ele>1534.0</ele><time>2026-04-18T09:27:42Z</time></trkpt><trkpt lat="41.753800995625596" lon="13.818846620982232"><ele>1534.0</ele><time>2026-04-18T09:27:43Z</time></trkpt><trkpt lat="41.75387529988144" lon="13.818920271360502"><ele>1534.0</ele><time>2026-04-18T09:27:44Z</time></trkpt><trkpt lat="41.75390881148656" lon="13.819044279811608"><ele>1534.0</ele><time>2026-04-18T09:27:45Z</time></trkpt><trkpt lat="41.75392097950835" lon="13.81916411443501"><ele>1534.0</ele><time>2026-04-18T09:27:46Z</time></trkpt><trkpt lat="41.75394622740255" lon="13.819278432706007"><ele>1539.25</ele><time>2026-04-18T09:27:47Z</time></trkpt><trkpt lat="41.75398999037451" lon="13.819382504812934"><ele>1544.5</ele><time>2026-04-18T09:27:48Z</time></trkpt><trkpt lat="41.754092459578125" lon="13.81947956641291"><ele>1549.75</ele><time>2026-04-18T09:27:49Z</time></trkpt><trkpt lat="41.75421025779586" lon="13.819600992117698"><ele>1555.0</ele><time>2026-04-18T09:27:50Z</time></trkpt><trkpt lat="41.754358115649005" lon="13.819741312921883"><ele>1553.0</ele><time>2026-04-18T09:27:51Z</time></trkpt><trkpt lat="41.75443605606631" lon="13.819870314547783"><ele>1551.0</ele><time>2026-04-18T09:27:52Z</time></trkpt><trkpt lat="41.75452815551544" lon="13.820004656802917"><ele>1549.0</ele><time>2026-04-18T09:27:53Z</time></trkpt><trkpt lat="41.7546586992437" lon="13.820160813530906"><ele>1547.0</ele><time>2026-04-18T09:27:54Z</time></trkpt><trkpt lat="41.7547912748152" lon="13.820274779112305"><ele>1547.0</ele><time>2026-04-18T09:27:55Z</time></trkpt><trkpt lat="41.75485904159305" lon="13.820396321520674"><ele>1547.0</ele><time>2026-04-18T09:27:56Z</time></trkpt><trkpt lat="41.75493503187855" lon="13.820470504834562"><ele>1547.0</ele><time>2026-04-18T09:27:57Z</time></trkpt><trkpt lat="41.755023358338306" lon="13.820487892622658"><ele>1547.0</ele><time>2026-04-18T09:27:58Z</time></trkpt><trkpt lat="41.755133995207366" lon="13.820461314655667"><ele>1547.0</ele><time>2026-04-18T09:27:59Z</time></trkpt><trkpt lat="41.75524331163523" lon="13.820406494686711"><ele>1545.6</ele><time>2026-04-18T09:28:00Z</time></trkpt><trkpt lat="41.755335282496695" lon="13.820347212390752"><ele>1544.1999999999998</ele><time>2026-04-18T09:28:01Z</time></trkpt><trkpt lat="41.75543586646967" lon="13.820354975161726"><ele>1542.8</ele><time>2026-04-18T09:28:02Z</time></trkpt><trkpt lat="41.75554085187345" lon="13.820395066444666"><ele>1541.4</ele><time>2026-04-18T09:28:03Z</time></trkpt><trkpt lat="41.75563673253273" lon="13.82043468371134"><ele>1540.0</ele><time>2026-04-18T09:28:04Z</time></trkpt><trkpt lat="41.75570302726903" lon="13.820458973794596"><ele>1540.0</ele><time>2026-04-18T09:28:05Z</time></trkpt><trkpt lat="41.755774488552156" lon="13.820637782443342"><ele>1540.0</ele><time>2026-04-18T09:28:07Z</time></trkpt><trkpt lat="41.75584733539948" lon="13.820741891087943"><ele>1540.0</ele><time>2026-04-18T09:28:08Z</time></trkpt><trkpt lat="41.755897965076606" lon="13.820825867858938"><ele>1540.0</ele><time>2026-04-18T09:28:09Z</time></trkpt><trkpt lat="41.75597045873216" lon="13.820859787047832"><ele>1540.0</ele><time>2026-04-18T09:28:10Z</time></trkpt><trkpt lat="41.756065183230795" lon="13.820805359042337"><ele>1539.6</ele><time>2026-04-18T09:28:11Z</time></trkpt><trkpt lat="41.756187756961566" lon="13.820824269683337"><ele>1539.2</ele><time>2026-04-18T09:28:12Z</time></trkpt><trkpt lat="41.75628192001716" lon="13.820865104500845"><ele>1538.8000000000002</ele><time>2026-04-18T09:28:13Z</time></trkpt><trkpt lat="41.75635488983242" lon="13.82094322851299"><ele>1538.4</ele><time>2026-04-18T09:28:14Z</time></trkpt><trkpt lat="41.7563046143294" lon="13.821013856476448"><ele>1538.0</ele><time>2026-04-18T09:28:15Z</time></trkpt><trkpt lat="41.756307705433045" lon="13.82117041806715"><ele>1538.0</ele><time>2026-04-18T09:28:16Z</time></trkpt><trkpt lat="41.7563608090252" lon="13.82133432847407"><ele>1538.0</ele><time>2026-04-18T09:28:16.999Z</time></trkpt><trkpt lat="41.75643626458346" lon="13.82144430542367"><ele>1538.0</ele><time>2026-04-18T09:28:17.999Z</time></trkpt><trkpt lat="41.75650821194753" lon="13.821565176789505"><ele>1538.0</ele><time>2026-04-18T09:28:18.999Z</time></trkpt><trkpt lat="41.756675726395834" lon="13.82158910841279"><ele>1537.9999999999998</ele><time>2026-04-18T09:28:19.999Z</time></trkpt><trkpt lat="41.75672999030631" lon="13.821646130186494"><ele>1538.0</ele><time>2026-04-18T09:28:20.999Z</time></trkpt><trkpt lat="41.75679570963921" lon="13.821716866710995"><ele>1538.0</ele><time>2026-04-18T09:28:21.999Z</time></trkpt><trkpt lat="41.75683825471118" lon="13.821795775781187"><ele>1538.0</ele><time>2026-04-18T09:28:22.999Z</time></trkpt><trkpt lat="41.75688338941649" lon="13.821890241938663"><ele>1537.9999999999998</ele><time>2026-04-18T09:28:23.999Z</time></trkpt><trkpt lat="41.756928098512745" lon="13.821967673098559"><ele>1538.0</ele><time>2026-04-18T09:28:24.999Z</time></trkpt><trkpt lat="41.757000276336456" lon="13.822034607822925"><ele>1537.0</ele><time>2026-04-18T09:28:25.999Z</time></trkpt><trkpt lat="41.75716283861163" lon="13.8220088938762"><ele>1536.0</ele><time>2026-04-18T09:28:26.999Z</time></trkpt><trkpt lat="41.75731526430513" lon="13.822045949926354"><ele>1535.0</ele><time>2026-04-18T09:28:27.999Z</time></trkpt><trkpt lat="41.75743832461077" lon="13.822061459167639"><ele>1534.0</ele><time>2026-04-18T09:28:29Z</time></trkpt><trkpt lat="41.75757311094244" lon="13.822064536090789"><ele>1534.0</ele><time>2026-04-18T09:28:30Z</time></trkpt><trkpt lat="41.75767737568121" lon="13.821936765438624"><ele>1534.0</ele><time>2026-04-18T09:28:31Z</time></trkpt><trkpt lat="41.7577766692998" lon="13.821888410222824"><ele>1534.0</ele><time>2026-04-18T09:28:32Z</time></trkpt><trkpt lat="41.75784939890179" lon="13.82187114081249"><ele>1534.0</ele><time>2026-04-18T09:28:33Z</time></trkpt><trkpt lat="41.75794662500686" lon="13.82186928657385"><ele>1534.0</ele><time>2026-04-18T09:28:34Z</time></trkpt><trkpt lat="41.75803687470082" lon="13.821910487596421"><ele>1530.4</ele><time>2026-04-18T09:28:35Z</time></trkpt><trkpt lat="41.75810085614095" lon="13.821984250513147"><ele>1526.8000000000002</ele><time>2026-04-18T09:28:36Z</time></trkpt><trkpt lat="41.75814340682938" lon="13.822054631949722"><ele>1523.1999999999998</ele><time>2026-04-18T09:28:37Z</time></trkpt><trkpt lat="41.75809823105466" lon="13.82221157511457"><ele>1519.6</ele><time>2026-04-18T09:28:38Z</time></trkpt><trkpt lat="41.75807281981058" lon="13.822396511333393"><ele>1516.0</ele><time>2026-04-18T09:28:39Z</time></trkpt><trkpt lat="41.758063197626406" lon="13.822619580766094"><ele>1515.0</ele><time>2026-04-18T09:28:40Z</time></trkpt><trkpt lat="41.758082973877634" lon="13.82300220407285"><ele>1514.0</ele><time>2026-04-18T09:28:41Z</time></trkpt><trkpt lat="41.75809011931931" lon="13.823209536859837"><ele>1513.0</ele><time>2026-04-18T09:28:42Z</time></trkpt><trkpt lat="41.75811204809528" lon="13.823353571836195"><ele>1512.3333333333333</ele><time>2026-04-18T09:28:43Z</time></trkpt><trkpt lat="41.75810527938742" lon="13.82352628968112"><ele>1511.6666666666667</ele><time>2026-04-18T09:28:44Z</time></trkpt><trkpt lat="41.758067500590805" lon="13.823717352087193"><ele>1511.0</ele><time>2026-04-18T09:28:45Z</time></trkpt><trkpt lat="41.757872446318885" lon="13.823810735497588"><ele>1511.0</ele><time>2026-04-18T09:28:46Z</time></trkpt><trkpt lat="41.757786045553" lon="13.823945919028255"><ele>1511.0</ele><time>2026-04-18T09:28:47Z</time></trkpt><trkpt lat="41.75782313644821" lon="13.824273184363356"><ele>1511.0</ele><time>2026-04-18T09:28:48Z</time></trkpt><trkpt lat="41.75774674791085" lon="13.824416539794997"><ele>1511.6</ele><time>2026-04-18T09:28:49Z</time></trkpt><trkpt lat="41.75770464336615" lon="13.824524052750263"><ele>1512.1999999999998</ele><time>2026-04-18T09:28:50Z</time></trkpt><trkpt lat="41.75755325826741" lon="13.824589945800513"><ele>1512.8000000000002</ele><time>2026-04-18T09:28:51Z</time></trkpt><trkpt lat="41.757559818979146" lon="13.824705223802088"><ele>1513.4</ele><time>2026-04-18T09:28:52Z</time></trkpt><trkpt lat="41.75765578606529" lon="13.82477849218577"><ele>1514.0</ele><time>2026-04-18T09:28:53Z</time></trkpt><trkpt lat="41.75777647810101" lon="13.824807087135872"><ele>1514.0</ele><time>2026-04-18T09:28:54Z</time></trkpt><trkpt lat="41.75789030250475" lon="13.824752657458507"><ele>1514.0</ele><time>2026-04-18T09:28:55Z</time></trkpt><trkpt lat="41.75796002706451" lon="13.824732974091713"><ele>1514.0</ele><time>2026-04-18T09:28:56Z</time></trkpt><trkpt lat="41.75805890989996" lon="13.824796184914641"><ele>1514.0</ele><time>2026-04-18T09:28:57Z</time></trkpt><trkpt lat="41.75813078631766" lon="13.825004684827018"><ele>1516.3333333333335</ele><time>2026-04-18T09:28:58Z</time></trkpt><trkpt lat="41.75821987352541" lon="13.825223104357665"><ele>1518.6666666666667</ele><time>2026-04-18T09:28:59Z</time></trkpt><trkpt lat="41.758287174931915" lon="13.825445404750596"><ele>1521.0</ele><time>2026-04-18T09:29:00Z</time></trkpt><trkpt lat="41.75836531534776" lon="13.82577504171583"><ele>1523.0</ele><time>2026-04-18T09:29:01Z</time></trkpt><trkpt lat="41.758437482105535" lon="13.826099078706207"><ele>1525.0</ele><time>2026-04-18T09:29:02Z</time></trkpt><trkpt lat="41.75850736610323" lon="13.826360910065151"><ele>1527.0</ele><time>2026-04-18T09:29:03Z</time></trkpt><trkpt lat="41.75855049146631" lon="13.826614244418046"><ele>1529.0</ele><time>2026-04-18T09:29:04Z</time></trkpt><trkpt lat="41.75854455941381" lon="13.826819624121493"><ele>1531.0</ele><time>2026-04-18T09:29:05Z</time></trkpt><trkpt lat="41.758512693860986" lon="13.827010541479586"><ele>1531.0</ele><time>2026-04-18T09:29:06Z</time></trkpt><trkpt lat="41.75850159224196" lon="13.827253981254142"><ele>1531.0</ele><time>2026-04-18T09:29:07Z</time></trkpt><trkpt lat="41.75853285458185" lon="13.8274309981827"><ele>1531.0</ele><time>2026-04-18T09:29:08Z</time></trkpt><trkpt lat="41.758562514536884" lon="13.82759004812024"><ele>1531.0</ele><time>2026-04-18T09:29:09Z</time></trkpt><trkpt lat="41.758694353071355" lon="13.827658413527812"><ele>1526.8</ele><time>2026-04-18T09:29:10Z</time></trkpt><trkpt lat="41.75877974201022" lon="13.827681162443133"><ele>1522.6</ele><time>2026-04-18T09:29:11Z</time></trkpt><trkpt lat="41.75886627490022" lon="13.827692504511864"><ele>1518.4</ele><time>2026-04-18T09:29:12Z</time></trkpt><trkpt lat="41.75895850693873" lon="13.827742505000629"><ele>1514.2</ele><time>2026-04-18T09:29:13Z</time></trkpt><trkpt lat="41.759065399414496" lon="13.827800453488623"><ele>1510.0</ele><time>2026-04-18T09:29:14Z</time></trkpt><trkpt lat="41.75918581813797" lon="13.827865696673497"><ele>1510.0</ele><time>2026-04-18T09:29:15Z</time></trkpt><trkpt lat="41.759338648380435" lon="13.82795301852424"><ele>1510.0</ele><time>2026-04-18T09:29:16Z</time></trkpt><trkpt lat="41.75947443690454" lon="13.828060746419627"><ele>1510.0</ele><time>2026-04-18T09:29:17Z</time></trkpt><trkpt lat="41.75960322876255" lon="13.828235349821954"><ele>1513.0</ele><time>2026-04-18T09:29:18Z</time></trkpt><trkpt lat="41.759701639373354" lon="13.828446916062662"><ele>1516.0</ele><time>2026-04-18T09:29:19Z</time></trkpt><trkpt lat="41.759778814468" lon="13.82866910127149"><ele>1519.0</ele><time>2026-04-18T09:29:20Z</time></trkpt><trkpt lat="41.75989175731635" lon="13.828924441343684"><ele>1514.0</ele><time>2026-04-18T09:29:21Z</time></trkpt><trkpt lat="41.760030363505955" lon="13.829171800090174"><ele>1509.0</ele><time>2026-04-18T09:29:22Z</time></trkpt><trkpt lat="41.76020116830472" lon="13.829475237336723"><ele>1509.0</ele><time>2026-04-18T09:29:23Z</time></trkpt><trkpt lat="41.76034502764621" lon="13.829717852561696"><ele>1509.0</ele><time>2026-04-18T09:29:24Z</time></trkpt><trkpt lat="41.76044026029424" lon="13.829957226594585"><ele>1509.0</ele><time>2026-04-18T09:29:25Z</time></trkpt><trkpt lat="41.760495367745136" lon="13.830158611468175"><ele>1503.75</ele><time>2026-04-18T09:29:26Z</time></trkpt><trkpt lat="41.76057074234455" lon="13.830332836070514"><ele>1498.5</ele><time>2026-04-18T09:29:27Z</time></trkpt><trkpt lat="41.76062738677772" lon="13.83039609510089"><ele>1493.25</ele><time>2026-04-18T09:29:28Z</time></trkpt><trkpt lat="41.760734667301335" lon="13.830461838766116"><ele>1488.0</ele><time>2026-04-18T09:29:29Z</time></trkpt><trkpt lat="41.7608517188828" lon="13.830493809862002"><ele>1488.0</ele><time>2026-04-18T09:29:30Z</time></trkpt><trkpt lat="41.76095290362088" lon="13.830565828896232"><ele>1488.0</ele><time>2026-04-18T09:29:31Z</time></trkpt><trkpt lat="41.76110021475065" lon="13.830663059773775"><ele>1488.0</ele><time>2026-04-18T09:29:32Z</time></trkpt><trkpt lat="41.761437230330266" lon="13.830399750410297"><ele>1489.6666666666667</ele><time>2026-04-18T09:29:33Z</time></trkpt><trkpt lat="41.76165117358443" lon="13.83037316995601"><ele>1491.3333333333335</ele><time>2026-04-18T09:29:34Z</time></trkpt><trkpt lat="41.76184565437261" lon="13.830388257152784"><ele>1493.0</ele><time>2026-04-18T09:29:35Z</time></trkpt><trkpt lat="41.76201067545658" lon="13.830420059417618"><ele>1493.0</ele><time>2026-04-18T09:29:36Z</time></trkpt><trkpt lat="41.762171399084906" lon="13.830438939255517"><ele>1493.0</ele><time>2026-04-18T09:29:37Z</time></trkpt><trkpt lat="41.76232865044318" lon="13.830463871006033"><ele>1493.0</ele><time>2026-04-18T09:29:38Z</time></trkpt><trkpt lat="41.762382694500985" lon="13.830563340218545"><ele>1493.0</ele><time>2026-04-18T09:29:39Z</time></trkpt><trkpt lat="41.76246396029167" lon="13.830598947230262"><ele>1493.0</ele><time>2026-04-18T09:29:40Z</time></trkpt><trkpt lat="41.762547628365155" lon="13.83061165443476"><ele>1493.0</ele><time>2026-04-18T09:29:41Z</time></trkpt><trkpt lat="41.762620424166386" lon="13.830605103014014"><ele>1493.0</ele><time>2026-04-18T09:29:42Z</time></trkpt><trkpt lat="41.762738032445085" lon="13.830592435242405"><ele>1493.0</ele><time>2026-04-18T09:29:44Z</time></trkpt><trkpt lat="41.762827577119836" lon="13.830607532742079"><ele>1493.0</ele><time>2026-04-18T09:29:46Z</time></trkpt><trkpt lat="41.762912278535936" lon="13.83061534217507"><ele>1492.1666666666667</ele><time>2026-04-18T09:29:48Z</time></trkpt><trkpt lat="41.763019892014185" lon="13.830654322334443"><ele>1491.3333333333335</ele><time>2026-04-18T09:29:50Z</time></trkpt><trkpt lat="41.76306568602237" lon="13.830715584347127"><ele>1490.5</ele><time>2026-04-18T09:29:51Z</time></trkpt><trkpt lat="41.76309717201465" lon="13.830794442813898"><ele>1489.6666666666667</ele><time>2026-04-18T09:29:52Z</time></trkpt><trkpt lat="41.763117049644386" lon="13.830879589236787"><ele>1488.8333333333333</ele><time>2026-04-18T09:29:53Z</time></trkpt><trkpt lat="41.763130324924866" lon="13.830975992448606"><ele>1488.0</ele><time>2026-04-18T09:29:54Z</time></trkpt><trkpt lat="41.76315226847988" lon="13.831085810524117"><ele>1488.0</ele><time>2026-04-18T09:29:55Z</time></trkpt><trkpt lat="41.76322161707786" lon="13.831253378344817"><ele>1488.0</ele><time>2026-04-18T09:29:56Z</time></trkpt><trkpt lat="41.763328083031936" lon="13.831478753453752"><ele>1488.0</ele><time>2026-04-18T09:29:57Z</time></trkpt><trkpt lat="41.763426731140406" lon="13.831714125560207"><ele>1484.5</ele><time>2026-04-18T09:29:58Z</time></trkpt><trkpt lat="41.7635249563901" lon="13.8319056720471"><ele>1481.0</ele><time>2026-04-18T09:29:59Z</time></trkpt><trkpt lat="41.76360472238592" lon="13.832053966185876"><ele>1477.5</ele><time>2026-04-18T09:30:00Z</time></trkpt><trkpt lat="41.76367086280817" lon="13.83216603492825"><ele>1474.0</ele><time>2026-04-18T09:30:01Z</time></trkpt><trkpt lat="41.76375419209658" lon="13.832251926168327"><ele>1474.0</ele><time>2026-04-18T09:30:02Z</time></trkpt><trkpt lat="41.76388997633702" lon="13.83227304052945"><ele>1474.0</ele><time>2026-04-18T09:30:03Z</time></trkpt><trkpt lat="41.76407930700227" lon="13.832272166790837"><ele>1474.0</ele><time>2026-04-18T09:30:04Z</time></trkpt><trkpt lat="41.76427882945753" lon="13.832264979787277"><ele>1475.5</ele><time>2026-04-18T09:30:05Z</time></trkpt><trkpt lat="41.76443430936266" lon="13.832242403024056"><ele>1477.0</ele><time>2026-04-18T09:30:06Z</time></trkpt><trkpt lat="41.764566499332474" lon="13.832199027028386"><ele>1478.5</ele><time>2026-04-18T09:30:07Z</time></trkpt><trkpt lat="41.76469422118498" lon="13.832182027280892"><ele>1480.0</ele><time>2026-04-18T09:30:08Z</time></trkpt><trkpt lat="41.76482700620712" lon="13.832203007752144"><ele>1480.0</ele><time>2026-04-18T09:30:09Z</time></trkpt><trkpt lat="41.764933203869646" lon="13.832270239232553"><ele>1480.0</ele><time>2026-04-18T09:30:09.999Z</time></trkpt><trkpt lat="41.76506843161122" lon="13.832364185422998"><ele>1480.0</ele><time>2026-04-18T09:30:10.999Z</time></trkpt><trkpt lat="41.76516400752255" lon="13.83247231633093"><ele>1480.0</ele><time>2026-04-18T09:30:11.999Z</time></trkpt><trkpt lat="41.76524554729619" lon="13.832570954447938"><ele>1478.0</ele><time>2026-04-18T09:30:12.999Z</time></trkpt><trkpt lat="41.765338631056935" lon="13.832579906259625"><ele>1476.0</ele><time>2026-04-18T09:30:13.999Z</time></trkpt><trkpt lat="41.76545627550845" lon="13.832503365315592"><ele>1474.0</ele><time>2026-04-18T09:30:14.999Z</time></trkpt><trkpt lat="41.76559328328661" lon="13.832386325508594"><ele>1472.0</ele><time>2026-04-18T09:30:15.999Z</time></trkpt><trkpt lat="41.76573875195588" lon="13.83227235556147"><ele>1472.0</ele><time>2026-04-18T09:30:16.999Z</time></trkpt><trkpt lat="41.76589209116567" lon="13.832229930050474"><ele>1472.0</ele><time>2026-04-18T09:30:17.999Z</time></trkpt><trkpt lat="41.766080840927" lon="13.832269005770652"><ele>1472.0</ele><time>2026-04-18T09:30:18.999Z</time></trkpt><trkpt lat="41.76626659985494" lon="13.832262519205798"><ele>1471.5</ele><time>2026-04-18T09:30:19.999Z</time></trkpt><trkpt lat="41.766421209355585" lon="13.832255879063357"><ele>1471.0</ele><time>2026-04-18T09:30:20.999Z</time></trkpt><trkpt lat="41.76654069803578" lon="13.832285533299062"><ele>1470.5</ele><time>2026-04-18T09:30:21.999Z</time></trkpt><trkpt lat="41.76663743897972" lon="13.832405028247116"><ele>1470.0</ele><time>2026-04-18T09:30:22.999Z</time></trkpt><trkpt lat="41.76673611973889" lon="13.83252542179394"><ele>1465.0</ele><time>2026-04-18T09:30:23.999Z</time></trkpt><trkpt lat="41.76685252007173" lon="13.832760910068275"><ele>1460.0</ele><time>2026-04-18T09:30:24.999Z</time></trkpt><trkpt lat="41.76697433149287" lon="13.832916378252795"><ele>1455.0</ele><time>2026-04-18T09:30:25.999Z</time></trkpt><trkpt lat="41.76709100016595" lon="13.832992391879795"><ele>1455.0</ele><time>2026-04-18T09:30:26.999Z</time></trkpt><trkpt lat="41.76720353701664" lon="13.833021119702838"><ele>1455.0</ele><time>2026-04-18T09:30:27.999Z</time></trkpt><trkpt lat="41.76731168385566" lon="13.833020676202532"><ele>1455.0</ele><time>2026-04-18T09:30:28.999Z</time></trkpt><trkpt lat="41.76740403138462" lon="13.833025907722286"><ele>1455.0</ele><time>2026-04-18T09:30:29.999Z</time></trkpt><trkpt lat="41.767470549616384" lon="13.83303992908089"><ele>1455.0</ele><time>2026-04-18T09:30:30.999Z</time></trkpt><trkpt lat="41.767527576103156" lon="13.833159498526067"><ele>1455.0</ele><time>2026-04-18T09:30:32.999Z</time></trkpt><trkpt lat="41.76743606720104" lon="13.833295826296062"><ele>1455.0</ele><time>2026-04-18T09:30:35Z</time></trkpt><trkpt lat="41.767347239051645" lon="13.833297226566446"><ele>1455.0</ele><time>2026-04-18T09:30:36Z</time></trkpt><trkpt lat="41.76723482110463" lon="13.833217850302233"><ele>1455.0</ele><time>2026-04-18T09:30:37Z</time></trkpt><trkpt lat="41.76710274268374" lon="13.833119972531179"><ele>1455.0</ele><time>2026-04-18T09:30:38Z</time></trkpt><trkpt lat="41.766955790053544" lon="13.833040376736385"><ele>1455.0</ele><time>2026-04-18T09:30:39Z</time></trkpt><trkpt lat="41.766790256584514" lon="13.83295868216426"><ele>1455.0</ele><time>2026-04-18T09:30:40Z</time></trkpt><trkpt lat="41.766647248854056" lon="13.832830502101052"><ele>1453.0</ele><time>2026-04-18T09:30:41Z</time></trkpt><trkpt lat="41.76653548380033" lon="13.832690793701785"><ele>1451.0</ele><time>2026-04-18T09:30:42Z</time></trkpt><trkpt lat="41.76644884635151" lon="13.832584952045266"><ele>1449.0</ele><time>2026-04-18T09:30:43Z</time></trkpt><trkpt lat="41.76635396697738" lon="13.832530645661155"><ele>1447.0</ele><time>2026-04-18T09:30:44Z</time></trkpt><trkpt lat="41.766230307642864" lon="13.832534769961347"><ele>1443.3333333333333</ele><time>2026-04-18T09:30:45Z</time></trkpt><trkpt lat="41.76607015007506" lon="13.83258494578188"><ele>1439.6666666666667</ele><time>2026-04-18T09:30:46Z</time></trkpt><trkpt lat="41.765877442748156" lon="13.832659134633055"><ele>1436.0</ele><time>2026-04-18T09:30:47Z</time></trkpt><trkpt lat="41.76571045175526" lon="13.832738970399513"><ele>1436.0</ele><time>2026-04-18T09:30:48Z</time></trkpt><trkpt lat="41.76557440740462" lon="13.83285723824003"><ele>1436.0</ele><time>2026-04-18T09:30:49Z</time></trkpt><trkpt lat="41.76545222840752" lon="13.83296484391676"><ele>1436.0</ele><time>2026-04-18T09:30:50Z</time></trkpt><trkpt lat="41.765346277656185" lon="13.833048814568176"><ele>1436.0</ele><time>2026-04-18T09:30:51Z</time></trkpt><trkpt lat="41.7652458254197" lon="13.833096172783833"><ele>1436.25</ele><time>2026-04-18T09:30:52Z</time></trkpt><trkpt lat="41.76513671551939" lon="13.83312925770119"><ele>1436.5</ele><time>2026-04-18T09:30:53Z</time></trkpt><trkpt lat="41.76501363300449" lon="13.833095861487099"><ele>1436.75</ele><time>2026-04-18T09:30:54Z</time></trkpt><trkpt lat="41.764852162785495" lon="13.83300388017942"><ele>1437.0</ele><time>2026-04-18T09:30:55Z</time></trkpt><trkpt lat="41.76472462761221" lon="13.832930916748477"><ele>1437.0</ele><time>2026-04-18T09:30:56Z</time></trkpt><trkpt lat="41.764600516609526" lon="13.832943556423883"><ele>1437.0</ele><time>2026-04-18T09:30:57Z</time></trkpt><trkpt lat="41.76448176134901" lon="13.833006060815656"><ele>1437.0</ele><time>2026-04-18T09:30:58Z</time></trkpt><trkpt lat="41.76437019980668" lon="13.83303849295581"><ele>1437.0</ele><time>2026-04-18T09:30:59Z</time></trkpt><trkpt lat="41.764241199107026" lon="13.83299735064289"><ele>1436.0</ele><time>2026-04-18T09:31:00Z</time></trkpt><trkpt lat="41.76408769780132" lon="13.832960243538942"><ele>1435.0</ele><time>2026-04-18T09:31:01Z</time></trkpt><trkpt lat="41.76394477343927" lon="13.832920879818973"><ele>1434.0</ele><time>2026-04-18T09:31:02Z</time></trkpt><trkpt lat="41.76381495692372" lon="13.832891588018866"><ele>1433.0</ele><time>2026-04-18T09:31:03Z</time></trkpt><trkpt lat="41.76365094132439" lon="13.832940875303118"><ele>1433.0</ele><time>2026-04-18T09:31:04Z</time></trkpt><trkpt lat="41.763485874582614" lon="13.83303073092131"><ele>1433.0</ele><time>2026-04-18T09:31:05Z</time></trkpt><trkpt lat="41.76334925684684" lon="13.833105104350867"><ele>1433.0</ele><time>2026-04-18T09:31:06Z</time></trkpt><trkpt lat="41.763219300663515" lon="13.833118285290231"><ele>1433.0</ele><time>2026-04-18T09:31:07Z</time></trkpt><trkpt lat="41.763055164767245" lon="13.833094729194908"><ele>1433.0</ele><time>2026-04-18T09:31:08Z</time></trkpt><trkpt lat="41.76289076605365" lon="13.833026552082586"><ele>1433.0</ele><time>2026-04-18T09:31:09Z</time></trkpt><trkpt lat="41.76270835054671" lon="13.83299970406051"><ele>1432.0</ele><time>2026-04-18T09:31:10Z</time></trkpt><trkpt lat="41.76253480724039" lon="13.833033651735974"><ele>1431.0</ele><time>2026-04-18T09:31:11Z</time></trkpt><trkpt lat="41.762360273039434" lon="13.833047533347381"><ele>1430.0</ele><time>2026-04-18T09:31:12Z</time></trkpt><trkpt lat="41.76215904803792" lon="13.833079166435514"><ele>1430.0</ele><time>2026-04-18T09:31:13Z</time></trkpt><trkpt lat="41.76198095977539" lon="13.833050312959523"><ele>1430.0</ele><time>2026-04-18T09:31:14Z</time></trkpt><trkpt lat="41.7618181242998" lon="13.833049949984739"><ele>1430.0</ele><time>2026-04-18T09:31:15Z</time></trkpt><trkpt lat="41.761648497419195" lon="13.833112822060116"><ele>1430.6666666666667</ele><time>2026-04-18T09:31:16Z</time></trkpt><trkpt lat="41.76147024109136" lon="13.833189134108446"><ele>1431.3333333333333</ele><time>2026-04-18T09:31:17Z</time></trkpt><trkpt lat="41.76129020062188" lon="13.833237135288014"><ele>1432.0</ele><time>2026-04-18T09:31:18Z</time></trkpt><trkpt lat="41.761095200313044" lon="13.83326176277888"><ele>1431.0</ele><time>2026-04-18T09:31:19Z</time></trkpt><trkpt lat="41.760857385365675" lon="13.833241003501538"><ele>1430.0</ele><time>2026-04-18T09:31:20Z</time></trkpt><trkpt lat="41.76060171485714" lon="13.833272928903632"><ele>1430.0</ele><time>2026-04-18T09:31:21Z</time></trkpt><trkpt lat="41.7603746449411" lon="13.833345896773364"><ele>1430.0</ele><time>2026-04-18T09:31:22Z</time></trkpt><trkpt lat="41.76017069330112" lon="13.833418842725434"><ele>1430.0</ele><time>2026-04-18T09:31:23Z</time></trkpt><trkpt lat="41.75997361604507" lon="13.83348140525763"><ele>1418.6666666666667</ele><time>2026-04-18T09:31:24Z</time></trkpt><trkpt lat="41.759799960481374" lon="13.83352239025735"><ele>1407.3333333333333</ele><time>2026-04-18T09:31:25Z</time></trkpt><trkpt lat="41.75962814661552" lon="13.833592329897384"><ele>1396.0</ele><time>2026-04-18T09:31:26Z</time></trkpt><trkpt lat="41.75946923477673" lon="13.833666859660255"><ele>1397.6666666666665</ele><time>2026-04-18T09:31:27Z</time></trkpt><trkpt lat="41.75932671690038" lon="13.833726404982784"><ele>1399.3333333333333</ele><time>2026-04-18T09:31:28Z</time></trkpt><trkpt lat="41.75918130136107" lon="13.833794602287814"><ele>1401.0</ele><time>2026-04-18T09:31:29Z</time></trkpt><trkpt lat="41.75903961376304" lon="13.833844417738165"><ele>1401.0</ele><time>2026-04-18T09:31:30Z</time></trkpt><trkpt lat="41.75891042059229" lon="13.833849511286894"><ele>1401.0</ele><time>2026-04-18T09:31:31Z</time></trkpt><trkpt lat="41.75877774588618" lon="13.833824184110682"><ele>1401.0</ele><time>2026-04-18T09:31:32Z</time></trkpt><trkpt lat="41.75863853057409" lon="13.833753124551588"><ele>1401.0</ele><time>2026-04-18T09:31:33Z</time></trkpt><trkpt lat="41.75850094720517" lon="13.833697531786935"><ele>1399.5</ele><time>2026-04-18T09:31:34Z</time></trkpt><trkpt lat="41.75839436620315" lon="13.833646893224802"><ele>1398.0</ele><time>2026-04-18T09:31:35Z</time></trkpt><trkpt lat="41.75824769168083" lon="13.833649254440392"><ele>1396.5</ele><time>2026-04-18T09:31:36Z</time></trkpt><trkpt lat="41.758088573888266" lon="13.833633114949984"><ele>1395.0</ele><time>2026-04-18T09:31:37Z</time></trkpt><trkpt lat="41.75792144822115" lon="13.833635443978784"><ele>1395.0</ele><time>2026-04-18T09:31:38Z</time></trkpt><trkpt lat="41.75775574579228" lon="13.833658285487285"><ele>1395.0</ele><time>2026-04-18T09:31:39Z</time></trkpt><trkpt lat="41.7575857315794" lon="13.833698172462405"><ele>1395.0</ele><time>2026-04-18T09:31:40Z</time></trkpt><trkpt lat="41.75741997387458" lon="13.833748210245568"><ele>1396.6666666666667</ele><time>2026-04-18T09:31:41Z</time></trkpt><trkpt lat="41.75724902785924" lon="13.833803390681576"><ele>1398.3333333333335</ele><time>2026-04-18T09:31:42Z</time></trkpt><trkpt lat="41.75708202687173" lon="13.833856435319221"><ele>1400.0</ele><time>2026-04-18T09:31:43Z</time></trkpt><trkpt lat="41.75691432299363" lon="13.83391204435068"><ele>1402.6666666666667</ele><time>2026-04-18T09:31:44Z</time></trkpt><trkpt lat="41.75676092688055" lon="13.833987633362684"><ele>1405.3333333333333</ele><time>2026-04-18T09:31:45Z</time></trkpt><trkpt lat="41.756621911813404" lon="13.83407362394433"><ele>1408.0</ele><time>2026-04-18T09:31:46Z</time></trkpt><trkpt lat="41.756493722137456" lon="13.834141604744724"><ele>1408.0</ele><time>2026-04-18T09:31:47Z</time></trkpt><trkpt lat="41.75636745953676" lon="13.834214947066197"><ele>1408.0</ele><time>2026-04-18T09:31:48Z</time></trkpt><trkpt lat="41.75624474322523" lon="13.834283737066894"><ele>1408.0</ele><time>2026-04-18T09:31:49Z</time></trkpt><trkpt lat="41.75610412874367" lon="13.834362882238434"><ele>1408.0</ele><time>2026-04-18T09:31:50Z</time></trkpt><trkpt lat="41.75597012747953" lon="13.83441980571611"><ele>1402.0</ele><time>2026-04-18T09:31:51Z</time></trkpt><trkpt lat="41.755823540468946" lon="13.834432247153888"><ele>1396.0</ele><time>2026-04-18T09:31:52Z</time></trkpt><trkpt lat="41.755666350350666" lon="13.834446519526784"><ele>1390.0</ele><time>2026-04-18T09:31:53Z</time></trkpt><trkpt lat="41.75552421638566" lon="13.834473000477095"><ele>1384.0</ele><time>2026-04-18T09:31:54Z</time></trkpt><trkpt lat="41.75540630576805" lon="13.834540418752844"><ele>1384.0</ele><time>2026-04-18T09:31:55Z</time></trkpt><trkpt lat="41.7552992129678" lon="13.83461934213035"><ele>1384.0</ele><time>2026-04-18T09:31:56Z</time></trkpt><trkpt lat="41.75516153947899" lon="13.834694072360616"><ele>1384.0</ele><time>2026-04-18T09:31:57Z</time></trkpt><trkpt lat="41.75502872148948" lon="13.834739052115966"><ele>1384.0</ele><time>2026-04-18T09:31:58Z</time></trkpt><trkpt lat="41.75492131553167" lon="13.834752948446337"><ele>1386.0</ele><time>2026-04-18T09:31:59Z</time></trkpt><trkpt lat="41.75482254857282" lon="13.83473662215145"><ele>1388.0</ele><time>2026-04-18T09:32:00Z</time></trkpt><trkpt lat="41.75473933728844" lon="13.834750939881685"><ele>1390.0</ele><time>2026-04-18T09:32:01Z</time></trkpt><trkpt lat="41.754669214735706" lon="13.834765062002967"><ele>1392.0</ele><time>2026-04-18T09:32:02Z</time></trkpt><trkpt lat="41.754606397504034" lon="13.83479927056045"><ele>1394.0</ele><time>2026-04-18T09:32:03Z</time></trkpt><trkpt lat="41.754566035470894" lon="13.834864175374545"><ele>1396.0</ele><time>2026-04-18T09:32:04Z</time></trkpt><trkpt lat="41.75456373677602" lon="13.835005068451215"><ele>1396.0</ele><time>2026-04-18T09:32:06Z</time></trkpt><trkpt lat="41.75460562966153" lon="13.835077000505041"><ele>1396.0</ele><time>2026-04-18T09:32:07Z</time></trkpt><trkpt lat="41.75467520924861" lon="13.835112601460576"><ele>1396.0</ele><time>2026-04-18T09:32:08Z</time></trkpt><trkpt lat="41.754763111051524" lon="13.835096683203972"><ele>1396.0</ele><time>2026-04-18T09:32:09Z</time></trkpt><trkpt lat="41.75486712533446" lon="13.835032646205356"><ele>1396.0</ele><time>2026-04-18T09:32:10Z</time></trkpt><trkpt lat="41.75497771700983" lon="13.834974275300798"><ele>1396.0</ele><time>2026-04-18T09:32:10.999Z</time></trkpt><trkpt lat="41.7550957159461" lon="13.834940849402125"><ele>1396.0</ele><time>2026-04-18T09:32:11.999Z</time></trkpt><trkpt lat="41.75522843650006" lon="13.834913738391279"><ele>1396.0</ele><time>2026-04-18T09:32:12.999Z</time></trkpt><trkpt lat="41.75538277630842" lon="13.834867833147198"><ele>1396.0</ele><time>2026-04-18T09:32:13.999Z</time></trkpt><trkpt lat="41.755542578014534" lon="13.834817957248324"><ele>1392.0</ele><time>2026-04-18T09:32:14.999Z</time></trkpt><trkpt lat="41.7557248252821" lon="13.834794727861858"><ele>1388.0</ele><time>2026-04-18T09:32:15.999Z</time></trkpt><trkpt lat="41.755924648042" lon="13.834798233851913"><ele>1384.0</ele><time>2026-04-18T09:32:16.999Z</time></trkpt><trkpt lat="41.75616629984361" lon="13.834781334132993"><ele>1382.6666666666665</ele><time>2026-04-18T09:32:17.999Z</time></trkpt><trkpt lat="41.756393670647896" lon="13.834787157318218"><ele>1381.3333333333333</ele><time>2026-04-18T09:32:18.999Z</time></trkpt><trkpt lat="41.75659714981848" lon="13.834803259623133"><ele>1380.0</ele><time>2026-04-18T09:32:19.999Z</time></trkpt><trkpt lat="41.75679348333917" lon="13.83480176192912"><ele>1378.6666666666667</ele><time>2026-04-18T09:32:20.999Z</time></trkpt><trkpt lat="41.7569927827361" lon="13.83479045971212"><ele>1377.3333333333335</ele><time>2026-04-18T09:32:21.999Z</time></trkpt><trkpt lat="41.75718088631629" lon="13.834767209742527"><ele>1376.0</ele><time>2026-04-18T09:32:22.999Z</time></trkpt><trkpt lat="41.75735531783369" lon="13.834720214775114"><ele>1376.0</ele><time>2026-04-18T09:32:23.999Z</time></trkpt><trkpt lat="41.757513997284704" lon="13.834664798705345"><ele>1376.0</ele><time>2026-04-18T09:32:24.999Z</time></trkpt><trkpt lat="41.75766757084832" lon="13.83462155166112"><ele>1376.0</ele><time>2026-04-18T09:32:25.999Z</time></trkpt><trkpt lat="41.757805850854474" lon="13.834589269574316"><ele>1373.75</ele><time>2026-04-18T09:32:26.999Z</time></trkpt><trkpt lat="41.75794038310869" lon="13.834583519126916"><ele>1371.5</ele><time>2026-04-18T09:32:27.999Z</time></trkpt><trkpt lat="41.75808510677428" lon="13.834615401010499"><ele>1369.25</ele><time>2026-04-18T09:32:28.999Z</time></trkpt><trkpt lat="41.75824650052657" lon="13.834675739603846"><ele>1367.0</ele><time>2026-04-18T09:32:29.999Z</time></trkpt><trkpt lat="41.758399716413756" lon="13.834735580702857"><ele>1365.25</ele><time>2026-04-18T09:32:30.999Z</time></trkpt><trkpt lat="41.75854138548748" lon="13.834788378574483"><ele>1363.5</ele><time>2026-04-18T09:32:31.999Z</time></trkpt><trkpt lat="41.75867464829979" lon="13.834831024833358"><ele>1361.75</ele><time>2026-04-18T09:32:32.999Z</time></trkpt><trkpt lat="41.75880289757887" lon="13.834874789202113"><ele>1360.0</ele><time>2026-04-18T09:32:33.999Z</time></trkpt><trkpt lat="41.75895335869414" lon="13.834913042298373"><ele>1360.0</ele><time>2026-04-18T09:32:34.999Z</time></trkpt><trkpt lat="41.75914552359968" lon="13.834916098213768"><ele>1360.0</ele><time>2026-04-18T09:32:35.999Z</time></trkpt><trkpt lat="41.75937804080676" lon="13.83490044480205"><ele>1360.0</ele><time>2026-04-18T09:32:36.999Z</time></trkpt><trkpt lat="41.7596208998696" lon="13.834884348489267"><ele>1359.5</ele><time>2026-04-18T09:32:37.999Z</time></trkpt><trkpt lat="41.7598612721338" lon="13.834870131683076"><ele>1359.0</ele><time>2026-04-18T09:32:38.999Z</time></trkpt><trkpt lat="41.76010660151965" lon="13.834862891036437"><ele>1358.0</ele><time>2026-04-18T09:32:39.999Z</time></trkpt><trkpt lat="41.76036192694125" lon="13.834873672228335"><ele>1357.0</ele><time>2026-04-18T09:32:41Z</time></trkpt><trkpt lat="41.76063580384689" lon="13.834897702531105"><ele>1357.0</ele><time>2026-04-18T09:32:42Z</time></trkpt><trkpt lat="41.76093786565732" lon="13.834934795945241"><ele>1357.0</ele><time>2026-04-18T09:32:43Z</time></trkpt><trkpt lat="41.76125402786314" lon="13.834992600911963"><ele>1359.0</ele><time>2026-04-18T09:32:44Z</time></trkpt><trkpt lat="41.761575568181385" lon="13.835072406114234"><ele>1361.0</ele><time>2026-04-18T09:32:45Z</time></trkpt><trkpt lat="41.761883732592025" lon="13.835161776382188"><ele>1345.5</ele><time>2026-04-18T09:32:46Z</time></trkpt><trkpt lat="41.76216661441044" lon="13.83523142273468"><ele>1330.0</ele><time>2026-04-18T09:32:47Z</time></trkpt><trkpt lat="41.762445797040684" lon="13.835281816257659"><ele>1330.0</ele><time>2026-04-18T09:32:48Z</time></trkpt><trkpt lat="41.76270698770879" lon="13.835316330758243"><ele>1330.0</ele><time>2026-04-18T09:32:49Z</time></trkpt><trkpt lat="41.762952533312664" lon="13.835369489203694"><ele>1330.0</ele><time>2026-04-18T09:32:50Z</time></trkpt><trkpt lat="41.763168312415885" lon="13.83544392823718"><ele>1330.0</ele><time>2026-04-18T09:32:51Z</time></trkpt><trkpt lat="41.76336975490389" lon="13.835526272792766"><ele>1330.0</ele><time>2026-04-18T09:32:52Z</time></trkpt><trkpt lat="41.76359526646027" lon="13.835583562015518"><ele>1329.0</ele><time>2026-04-18T09:32:53Z</time></trkpt><trkpt lat="41.763856551319556" lon="13.835595445890684"><ele>1328.0</ele><time>2026-04-18T09:32:54Z</time></trkpt><trkpt lat="41.76412806126037" lon="13.835610810731296"><ele>1330.5</ele><time>2026-04-18T09:32:55Z</time></trkpt><trkpt lat="41.764371387134226" lon="13.835621635176135"><ele>1333.0</ele><time>2026-04-18T09:32:56Z</time></trkpt><trkpt lat="41.76459078159254" lon="13.835629939238835"><ele>1333.0</ele><time>2026-04-18T09:32:57Z</time></trkpt><trkpt lat="41.76479971840028" lon="13.835638879475681"><ele>1333.0</ele><time>2026-04-18T09:32:58Z</time></trkpt><trkpt lat="41.76498055113669" lon="13.835651167532292"><ele>1333.0</ele><time>2026-04-18T09:32:59Z</time></trkpt><trkpt lat="41.76515183785463" lon="13.835701717827654"><ele>1335.0</ele><time>2026-04-18T09:33:00Z</time></trkpt><trkpt lat="41.76533909616463" lon="13.835820143902826"><ele>1337.0</ele><time>2026-04-18T09:33:01Z</time></trkpt><trkpt lat="41.76554540552858" lon="13.835923961407971"><ele>1339.0</ele><time>2026-04-18T09:33:02Z</time></trkpt><trkpt lat="41.76575565253087" lon="13.835983572678389"><ele>1332.6666666666665</ele><time>2026-04-18T09:33:03Z</time></trkpt><trkpt lat="41.76594467399786" lon="13.836053362133395"><ele>1326.3333333333333</ele><time>2026-04-18T09:33:04Z</time></trkpt><trkpt lat="41.766130443530855" lon="13.836143871702633"><ele>1320.0</ele><time>2026-04-18T09:33:05Z</time></trkpt><trkpt lat="41.76632202502594" lon="13.836255471908002"><ele>1320.0</ele><time>2026-04-18T09:33:06Z</time></trkpt><trkpt lat="41.766511967913125" lon="13.836391241872553"><ele>1320.0</ele><time>2026-04-18T09:33:07Z</time></trkpt><trkpt lat="41.76671424043231" lon="13.836584334459664"><ele>1317.5</ele><time>2026-04-18T09:33:08Z</time></trkpt><trkpt lat="41.76692884991691" lon="13.836805474946209"><ele>1315.0</ele><time>2026-04-18T09:33:09Z</time></trkpt><trkpt lat="41.76712529031157" lon="13.836982339162153"><ele>1315.0</ele><time>2026-04-18T09:33:10Z</time></trkpt><trkpt lat="41.76730665952905" lon="13.83715638563422"><ele>1315.0</ele><time>2026-04-18T09:33:11Z</time></trkpt><trkpt lat="41.76748647890067" lon="13.837357927544323"><ele>1315.0</ele><time>2026-04-18T09:33:12Z</time></trkpt><trkpt lat="41.76765312618184" lon="13.837600475840771"><ele>1315.0</ele><time>2026-04-18T09:33:13Z</time></trkpt><trkpt lat="41.76781335867084" lon="13.837866316031011"><ele>1316.5</ele><time>2026-04-18T09:33:14Z</time></trkpt><trkpt lat="41.767978666564964" lon="13.838116133610106"><ele>1318.0</ele><time>2026-04-18T09:33:15Z</time></trkpt><trkpt lat="41.7681255943314" lon="13.8383379392269"><ele>1315.3333333333333</ele><time>2026-04-18T09:33:16Z</time></trkpt><trkpt lat="41.76826090991599" lon="13.838536458092523"><ele>1312.6666666666667</ele><time>2026-04-18T09:33:17Z</time></trkpt><trkpt lat="41.76840002415883" lon="13.83870471003204"><ele>1310.0</ele><time>2026-04-18T09:33:18Z</time></trkpt><trkpt lat="41.76858419609354" lon="13.838854935366877"><ele>1310.0</ele><time>2026-04-18T09:33:19Z</time></trkpt><trkpt lat="41.768801890982346" lon="13.838995070441685"><ele>1310.0</ele><time>2026-04-18T09:33:20Z</time></trkpt><trkpt lat="41.76902260568182" lon="13.839144852530515"><ele>1303.5</ele><time>2026-04-18T09:33:21Z</time></trkpt><trkpt lat="41.769244339556685" lon="13.839305317425984"><ele>1297.0</ele><time>2026-04-18T09:33:22Z</time></trkpt><trkpt lat="41.769469236623706" lon="13.839482352788771"><ele>1297.0</ele><time>2026-04-18T09:33:23Z</time></trkpt><trkpt lat="41.76968164836761" lon="13.83964883229422"><ele>1297.0</ele><time>2026-04-18T09:33:24Z</time></trkpt><trkpt lat="41.769881585992806" lon="13.839801437255543"><ele>1297.0</ele><time>2026-04-18T09:33:25Z</time></trkpt><trkpt lat="41.77007352114162" lon="13.839941688460861"><ele>1297.0</ele><time>2026-04-18T09:33:26Z</time></trkpt><trkpt lat="41.770254414867324" lon="13.840077441683567"><ele>1297.0</ele><time>2026-04-18T09:33:27Z</time></trkpt><trkpt lat="41.77041782303515" lon="13.8401970101357"><ele>1290.6666666666665</ele><time>2026-04-18T09:33:28Z</time></trkpt><trkpt lat="41.770572255968936" lon="13.840310135890284"><ele>1284.3333333333333</ele><time>2026-04-18T09:33:29Z</time></trkpt><trkpt lat="41.77070175664696" lon="13.840413900494895"><ele>1278.0</ele><time>2026-04-18T09:33:30Z</time></trkpt><trkpt lat="41.77081032944517" lon="13.84049127092537"><ele>1278.0</ele><time>2026-04-18T09:33:31Z</time></trkpt><trkpt lat="41.7709013681135" lon="13.840538918260025"><ele>1278.0</ele><time>2026-04-18T09:33:32Z</time></trkpt><trkpt lat="41.77099444439349" lon="13.840537692402492"><ele>1278.0</ele><time>2026-04-18T09:33:33Z</time></trkpt><trkpt lat="41.771083768369856" lon="13.84047451960026"><ele>1278.0</ele><time>2026-04-18T09:33:34Z</time></trkpt><trkpt lat="41.77114245057454" lon="13.84035867644982"><ele>1278.0</ele><time>2026-04-18T09:33:35Z</time></trkpt><trkpt lat="41.771155418939635" lon="13.840212193258997"><ele>1279.0</ele><time>2026-04-18T09:33:36Z</time></trkpt><trkpt lat="41.771130472085304" lon="13.840038704331143"><ele>1280.0</ele><time>2026-04-18T09:33:37Z</time></trkpt><trkpt lat="41.7711367067359" lon="13.839885535456935"><ele>1281.0</ele><time>2026-04-18T09:33:38Z</time></trkpt><trkpt lat="41.77117851171538" lon="13.839768628777307"><ele>1282.0</ele><time>2026-04-18T09:33:39Z</time></trkpt><trkpt lat="41.771249433205256" lon="13.839689176048124"><ele>1283.0</ele><time>2026-04-18T09:33:40Z</time></trkpt><trkpt lat="41.7713511467258" lon="13.839657902378393"><ele>1283.0</ele><time>2026-04-18T09:33:41Z</time></trkpt><trkpt lat="41.77146847242844" lon="13.839687152205189"><ele>1283.0</ele><time>2026-04-18T09:33:42Z</time></trkpt><trkpt lat="41.7716181144583" lon="13.839758577194472"><ele>1283.0</ele><time>2026-04-18T09:33:43Z</time></trkpt><trkpt lat="41.77176755872648" lon="13.839763635353693"><ele>1283.0</ele><time>2026-04-18T09:33:44Z</time></trkpt><trkpt lat="41.77190152497514" lon="13.839712779498766"><ele>1280.3333333333335</ele><time>2026-04-18T09:33:45Z</time></trkpt><trkpt lat="41.77202579167502" lon="13.839604103420568"><ele>1277.6666666666667</ele><time>2026-04-18T09:33:46Z</time></trkpt><trkpt lat="41.77214068493651" lon="13.839437014307347"><ele>1275.0</ele><time>2026-04-18T09:33:47Z</time></trkpt><trkpt lat="41.77224461688839" lon="13.839262684685778"><ele>1275.0</ele><time>2026-04-18T09:33:48Z</time></trkpt><trkpt lat="41.77234933697707" lon="13.8391335620084"><ele>1275.0</ele><time>2026-04-18T09:33:49Z</time></trkpt><trkpt lat="41.77247068152812" lon="13.838991415610513"><ele>1275.0</ele><time>2026-04-18T09:33:50Z</time></trkpt><trkpt lat="41.77254090257988" lon="13.838744372613673"><ele>1275.0</ele><time>2026-04-18T09:33:51Z</time></trkpt><trkpt lat="41.77262240736527" lon="13.838530631404668"><ele>1275.0</ele><time>2026-04-18T09:33:52Z</time></trkpt><trkpt lat="41.77270651424944" lon="13.838347100714465"><ele>1275.0</ele><time>2026-04-18T09:33:53Z</time></trkpt><trkpt lat="41.772767101642074" lon="13.838174660289281"><ele>1276.75</ele><time>2026-04-18T09:33:54Z</time></trkpt><trkpt lat="41.772786501158826" lon="13.83802311849087"><ele>1278.5</ele><time>2026-04-18T09:33:55Z</time></trkpt><trkpt lat="41.77275699754774" lon="13.837848852939329"><ele>1280.25</ele><time>2026-04-18T09:33:56Z</time></trkpt><trkpt lat="41.77267037152521" lon="13.837675914278442"><ele>1282.0</ele><time>2026-04-18T09:33:57Z</time></trkpt><trkpt lat="41.77255163864368" lon="13.837498187359879"><ele>1282.0</ele><time>2026-04-18T09:33:58Z</time></trkpt><trkpt lat="41.77241993986625" lon="13.837291006619846"><ele>1282.0</ele><time>2026-04-18T09:33:59Z</time></trkpt><trkpt lat="41.772279449101" lon="13.837072858828622"><ele>1282.0</ele><time>2026-04-18T09:34:00Z</time></trkpt><trkpt lat="41.7721656674564" lon="13.836883542163275"><ele>1273.3333333333333</ele><time>2026-04-18T09:34:01Z</time></trkpt><trkpt lat="41.77207802356192" lon="13.836699962686948"><ele>1264.6666666666667</ele><time>2026-04-18T09:34:02Z</time></trkpt><trkpt lat="41.77199239292474" lon="13.836491035219245"><ele>1256.0</ele><time>2026-04-18T09:34:03Z</time></trkpt><trkpt lat="41.771901663292546" lon="13.836244568109768"><ele>1270.5</ele><time>2026-04-18T09:34:04Z</time></trkpt><trkpt lat="41.77180531628594" lon="13.835975122084774"><ele>1285.0</ele><time>2026-04-18T09:34:05Z</time></trkpt><trkpt lat="41.77169835737277" lon="13.83568286099538"><ele>1285.0</ele><time>2026-04-18T09:34:06Z</time></trkpt><trkpt lat="41.77159102591574" lon="13.835409534219082"><ele>1285.0</ele><time>2026-04-18T09:34:06.999Z</time></trkpt><trkpt lat="41.77147473721423" lon="13.835131693941921"><ele>1271.5</ele><time>2026-04-18T09:34:07.999Z</time></trkpt><trkpt lat="41.77135327869228" lon="13.83486527998502"><ele>1258.0</ele><time>2026-04-18T09:34:08.999Z</time></trkpt><trkpt lat="41.7712278894725" lon="13.834614744660755"><ele>1258.0</ele><time>2026-04-18T09:34:09.999Z</time></trkpt><trkpt lat="41.77111067465736" lon="13.834385233258175"><ele>1258.0</ele><time>2026-04-18T09:34:10.999Z</time></trkpt><trkpt lat="41.77100220629409" lon="13.834169553908689"><ele>1258.0</ele><time>2026-04-18T09:34:11.999Z</time></trkpt><trkpt lat="41.77090275846078" lon="13.83396541563971"><ele>1259.6666666666665</ele><time>2026-04-18T09:34:12.999Z</time></trkpt><trkpt lat="41.77082395827541" lon="13.833771739422513"><ele>1261.3333333333333</ele><time>2026-04-18T09:34:13.999Z</time></trkpt><trkpt lat="41.77077524675374" lon="13.833564766042826"><ele>1263.0</ele><time>2026-04-18T09:34:14.999Z</time></trkpt><trkpt lat="41.77075952823317" lon="13.833318022723342"><ele>1263.0</ele><time>2026-04-18T09:34:15.999Z</time></trkpt><trkpt lat="41.770763547705926" lon="13.833040258827973"><ele>1263.0</ele><time>2026-04-18T09:34:16.999Z</time></trkpt><trkpt lat="41.770763755344255" lon="13.832762581761115"><ele>1263.0</ele><time>2026-04-18T09:34:17.999Z</time></trkpt><trkpt lat="41.77072716688415" lon="13.832521417764116"><ele>1261.25</ele><time>2026-04-18T09:34:18.999Z</time></trkpt><trkpt lat="41.770697189395364" lon="13.83233338615027"><ele>1259.5</ele><time>2026-04-18T09:34:19.999Z</time></trkpt><trkpt lat="41.77067698755843" lon="13.832176971029332"><ele>1257.75</ele><time>2026-04-18T09:34:20.999Z</time></trkpt><trkpt lat="41.77067750131731" lon="13.832045138149136"><ele>1256.0</ele><time>2026-04-18T09:34:21.999Z</time></trkpt><trkpt lat="41.77071245675508" lon="13.831927496511874"><ele>1256.0</ele><time>2026-04-18T09:34:22.999Z</time></trkpt><trkpt lat="41.77076682744126" lon="13.831814888248013"><ele>1256.0</ele><time>2026-04-18T09:34:23.999Z</time></trkpt><trkpt lat="41.77088090322997" lon="13.831749134840106"><ele>1256.0</ele><time>2026-04-18T09:34:24.999Z</time></trkpt><trkpt lat="41.77104735527034" lon="13.83175173934609"><ele>1256.0</ele><time>2026-04-18T09:34:25.999Z</time></trkpt><trkpt lat="41.77125554684253" lon="13.831776483275059"><ele>1252.0</ele><time>2026-04-18T09:34:26.999Z</time></trkpt><trkpt lat="41.77146672945989" lon="13.831801916273445"><ele>1248.0</ele><time>2026-04-18T09:34:27.999Z</time></trkpt><trkpt lat="41.771708953097246" lon="13.831775076250802"><ele>1242.0</ele><time>2026-04-18T09:34:28.999Z</time></trkpt><trkpt lat="41.771928960428454" lon="13.831730054384561"><ele>1236.0</ele><time>2026-04-18T09:34:29.999Z</time></trkpt><trkpt lat="41.77211406995542" lon="13.831688542762933"><ele>1230.0</ele><time>2026-04-18T09:34:30.999Z</time></trkpt><trkpt lat="41.77226401648558" lon="13.831646823615168"><ele>1230.0</ele><time>2026-04-18T09:34:31.999Z</time></trkpt><trkpt lat="41.77240141363561" lon="13.831566000415323"><ele>1230.0</ele><time>2026-04-18T09:34:32.999Z</time></trkpt><trkpt lat="41.77251007055549" lon="13.831443013045673"><ele>1230.0</ele><time>2026-04-18T09:34:33.999Z</time></trkpt><trkpt lat="41.772598429569136" lon="13.8312656323039"><ele>1230.0</ele><time>2026-04-18T09:34:34.999Z</time></trkpt><trkpt lat="41.77266770488863" lon="13.831037957793878"><ele>1230.0</ele><time>2026-04-18T09:34:35.999Z</time></trkpt><trkpt lat="41.772744150020436" lon="13.830781488807817"><ele>1230.0</ele><time>2026-04-18T09:34:36.999Z</time></trkpt><trkpt lat="41.77278908660895" lon="13.8304858376844"><ele>1216.0</ele><time>2026-04-18T09:34:37.999Z</time></trkpt><trkpt lat="41.77281736662824" lon="13.830137727324047"><ele>1202.0</ele><time>2026-04-18T09:34:38.999Z</time></trkpt><trkpt lat="41.772829977072035" lon="13.82977304826018"><ele>1202.0</ele><time>2026-04-18T09:34:39.999Z</time></trkpt><trkpt lat="41.77283415966188" lon="13.829446294129356"><ele>1202.0</ele><time>2026-04-18T09:34:40.999Z</time></trkpt><trkpt lat="41.772836174810216" lon="13.829157653225503"><ele>1203.6666666666667</ele><time>2026-04-18T09:34:41.999Z</time></trkpt><trkpt lat="41.77283759547713" lon="13.828904703911867"><ele>1205.3333333333333</ele><time>2026-04-18T09:34:42.999Z</time></trkpt><trkpt lat="41.77283882636012" lon="13.828685545936272"><ele>1207.0</ele><time>2026-04-18T09:34:43.999Z</time></trkpt><trkpt lat="41.772843414698926" lon="13.82850607560721"><ele>1210.0</ele><time>2026-04-18T09:34:44.999Z</time></trkpt><trkpt lat="41.7728464213754" lon="13.828332776130075"><ele>1213.0</ele><time>2026-04-18T09:34:45.999Z</time></trkpt><trkpt lat="41.772923367405056" lon="13.82816763184391"><ele>1216.0</ele><time>2026-04-18T09:34:47Z</time></trkpt><trkpt lat="41.773057703905444" lon="13.82800855653099"><ele>1216.0</ele><time>2026-04-18T09:34:48Z</time></trkpt><trkpt lat="41.7732240544266" lon="13.82782499728896"><ele>1216.0</ele><time>2026-04-18T09:34:49Z</time></trkpt><trkpt lat="41.773385028905466" lon="13.827618591925402"><ele>1216.0</ele><time>2026-04-18T09:34:50Z</time></trkpt><trkpt lat="41.773545413799965" lon="13.8274306119028"><ele>1210.6666666666665</ele><time>2026-04-18T09:34:51Z</time></trkpt><trkpt lat="41.773725469823866" lon="13.827297117389898"><ele>1205.3333333333333</ele><time>2026-04-18T09:34:52Z</time></trkpt><trkpt lat="41.773899475068674" lon="13.827184430367941"><ele>1200.0</ele><time>2026-04-18T09:34:53Z</time></trkpt><trkpt lat="41.77405155656385" lon="13.827069008812437"><ele>1200.0</ele><time>2026-04-18T09:34:54Z</time></trkpt><trkpt lat="41.77419114104181" lon="13.826942900379507"><ele>1200.0</ele><time>2026-04-18T09:34:55Z</time></trkpt><trkpt lat="41.774312292722264" lon="13.826791103048304"><ele>1200.0</ele><time>2026-04-18T09:34:56Z</time></trkpt><trkpt lat="41.774414226742074" lon="13.826581969274471"><ele>1195.0</ele><time>2026-04-18T09:34:57Z</time></trkpt><trkpt lat="41.77449356535635" lon="13.826369976798846"><ele>1190.0</ele><time>2026-04-18T09:34:58Z</time></trkpt><trkpt lat="41.77456680185611" lon="13.826175803240286"><ele>1185.0</ele><time>2026-04-18T09:34:59Z</time></trkpt><trkpt lat="41.774640716569316" lon="13.825996732506903"><ele>1193.0</ele><time>2026-04-18T09:35:00Z</time></trkpt><trkpt lat="41.77474098371544" lon="13.825848814789321"><ele>1201.0</ele><time>2026-04-18T09:35:01Z</time></trkpt><trkpt lat="41.7748722755703" lon="13.825713239083779"><ele>1209.0</ele><time>2026-04-18T09:35:02Z</time></trkpt><trkpt lat="41.775037906840396" lon="13.825622697716298"><ele>1199.0</ele><time>2026-04-18T09:35:03Z</time></trkpt><trkpt lat="41.77522198208155" lon="13.825565328298858"><ele>1189.0</ele><time>2026-04-18T09:35:04Z</time></trkpt><trkpt lat="41.775411464832864" lon="13.825442522678623"><ele>1179.0</ele><time>2026-04-18T09:35:05Z</time></trkpt><trkpt lat="41.77560184894203" lon="13.825250024198743"><ele>1178.0</ele><time>2026-04-18T09:35:06Z</time></trkpt><trkpt lat="41.775766726390785" lon="13.825076925366755"><ele>1177.0</ele><time>2026-04-18T09:35:07Z</time></trkpt><trkpt lat="41.775931878090624" lon="13.824946790358231"><ele>1176.0</ele><time>2026-04-18T09:35:08Z</time></trkpt><trkpt lat="41.77609471173601" lon="13.82484832662823"><ele>1176.0</ele><time>2026-04-18T09:35:09Z</time></trkpt><trkpt lat="41.77624716983259" lon="13.824747407434305"><ele>1176.0</ele><time>2026-04-18T09:35:10Z</time></trkpt><trkpt lat="41.776393035659595" lon="13.824607157338427"><ele>1176.0</ele><time>2026-04-18T09:35:11Z</time></trkpt><trkpt lat="41.776525993118476" lon="13.824430984337566"><ele>1187.0</ele><time>2026-04-18T09:35:12Z</time></trkpt><trkpt lat="41.77662808325436" lon="13.8242377972504"><ele>1198.0</ele><time>2026-04-18T09:35:13Z</time></trkpt><trkpt lat="41.77671627021044" lon="13.824056713470736"><ele>1209.0</ele><time>2026-04-18T09:35:14Z</time></trkpt><trkpt lat="41.77678599263441" lon="13.823880463986088"><ele>1209.0</ele><time>2026-04-18T09:35:15Z</time></trkpt><trkpt lat="41.776846452745595" lon="13.82373614965662"><ele>1209.0</ele><time>2026-04-18T09:35:16Z</time></trkpt><trkpt lat="41.776950473585714" lon="13.823616300158738"><ele>1209.0</ele><time>2026-04-18T09:35:17Z</time></trkpt><trkpt lat="41.777116114238865" lon="13.823510380472975"><ele>1209.0</ele><time>2026-04-18T09:35:18Z</time></trkpt><trkpt lat="41.777293881425116" lon="13.823381636048024"><ele>1201.5</ele><time>2026-04-18T09:35:19Z</time></trkpt><trkpt lat="41.777476390402114" lon="13.82322665214289"><ele>1194.0</ele><time>2026-04-18T09:35:20Z</time></trkpt><trkpt lat="41.77767942462233" lon="13.823042962760175"><ele>1190.5</ele><time>2026-04-18T09:35:21Z</time></trkpt><trkpt lat="41.777874288489485" lon="13.822852113437863"><ele>1187.0</ele><time>2026-04-18T09:35:22Z</time></trkpt><trkpt lat="41.778062813268676" lon="13.82263212108551"><ele>1187.0</ele><time>2026-04-18T09:35:23Z</time></trkpt><trkpt lat="41.77824124823176" lon="13.822389177164736"><ele>1187.0</ele><time>2026-04-18T09:35:24Z</time></trkpt><trkpt lat="41.77841907231513" lon="13.822151426048336"><ele>1181.6666666666667</ele><time>2026-04-18T09:35:25Z</time></trkpt><trkpt lat="41.778592643181554" lon="13.82194913979778"><ele>1176.3333333333333</ele><time>2026-04-18T09:35:26Z</time></trkpt><trkpt lat="41.77873037624876" lon="13.821747687212559"><ele>1171.0</ele><time>2026-04-18T09:35:27Z</time></trkpt><trkpt lat="41.7788433176277" lon="13.821544558290961"><ele>1171.0</ele><time>2026-04-18T09:35:28Z</time></trkpt><trkpt lat="41.77893470647349" lon="13.821352067542957"><ele>1171.0</ele><time>2026-04-18T09:35:29Z</time></trkpt><trkpt lat="41.7790303574552" lon="13.8211906794685"><ele>1171.0</ele><time>2026-04-18T09:35:30Z</time></trkpt><trkpt lat="41.77909862850894" lon="13.821049537152843"><ele>1171.0</ele><time>2026-04-18T09:35:31Z</time></trkpt><trkpt lat="41.77915394117764" lon="13.82093902470462"><ele>1171.0</ele><time>2026-04-18T09:35:32Z</time></trkpt><trkpt lat="41.77919272062098" lon="13.820848530022818"><ele>1171.0</ele><time>2026-04-18T09:35:33Z</time></trkpt><trkpt lat="41.779258257008955" lon="13.820818018270714"><ele>1171.0</ele><time>2026-04-18T09:35:34Z</time></trkpt><trkpt lat="41.779358608906904" lon="13.820895189289597"><ele>1171.0</ele><time>2026-04-18T09:35:36Z</time></trkpt><trkpt lat="41.77936801546147" lon="13.820991830276508"><ele>1171.0</ele><time>2026-04-18T09:35:37Z</time></trkpt><trkpt lat="41.77933311477836" lon="13.821093118039338"><ele>1171.0</ele><time>2026-04-18T09:35:38Z</time></trkpt><trkpt lat="41.77924057759057" lon="13.821202900094109"><ele>1171.0</ele><time>2026-04-18T09:35:39Z</time></trkpt><trkpt lat="41.77911644157065" lon="13.82134375731404"><ele>1171.0</ele><time>2026-04-18T09:35:40Z</time></trkpt><trkpt lat="41.77900207129373" lon="13.821544908607965"><ele>1171.0</ele><time>2026-04-18T09:35:41Z</time></trkpt><trkpt lat="41.77887917577163" lon="13.821800163767287"><ele>1160.0</ele><time>2026-04-18T09:35:42Z</time></trkpt><trkpt lat="41.778739279532246" lon="13.822065727548573"><ele>1149.0</ele><time>2026-04-18T09:35:43Z</time></trkpt><trkpt lat="41.77861192567776" lon="13.82229633925242"><ele>1154.0</ele><time>2026-04-18T09:35:44Z</time></trkpt><trkpt lat="41.77846814045303" lon="13.822529775752416"><ele>1159.0</ele><time>2026-04-18T09:35:45Z</time></trkpt><trkpt lat="41.778284478101796" lon="13.822779664422647"><ele>1159.0</ele><time>2026-04-18T09:35:46Z</time></trkpt><trkpt lat="41.778084799269614" lon="13.823031102070567"><ele>1159.0</ele><time>2026-04-18T09:35:47Z</time></trkpt><trkpt lat="41.777914914253465" lon="13.823260415061606"><ele>1159.0</ele><time>2026-04-18T09:35:48Z</time></trkpt><trkpt lat="41.777763103060074" lon="13.823475778506056"><ele>1159.0</ele><time>2026-04-18T09:35:49Z</time></trkpt><trkpt lat="41.77761404525215" lon="13.823679654433608"><ele>1159.0</ele><time>2026-04-18T09:35:50Z</time></trkpt><trkpt lat="41.7774997294578" lon="13.823945935984272"><ele>1161.6666666666665</ele><time>2026-04-18T09:35:51Z</time></trkpt><trkpt lat="41.7773830076719" lon="13.824203218837303"><ele>1164.3333333333333</ele><time>2026-04-18T09:35:52Z</time></trkpt><trkpt lat="41.77727407652087" lon="13.824435841530896"><ele>1167.0</ele><time>2026-04-18T09:35:53Z</time></trkpt><trkpt lat="41.77715722655934" lon="13.824658967544705"><ele>1161.0</ele><time>2026-04-18T09:35:54Z</time></trkpt><trkpt lat="41.77702095439988" lon="13.82487764721091"><ele>1155.0</ele><time>2026-04-18T09:35:55Z</time></trkpt><trkpt lat="41.776869632571334" lon="13.825084609151393"><ele>1149.0</ele><time>2026-04-18T09:35:56Z</time></trkpt><trkpt lat="41.776715246730305" lon="13.825294951642778"><ele>1149.0</ele><time>2026-04-18T09:35:57Z</time></trkpt><trkpt lat="41.776555930190995" lon="13.825533454782287"><ele>1149.0</ele><time>2026-04-18T09:35:58Z</time></trkpt><trkpt lat="41.77640107506276" lon="13.825806619574317"><ele>1141.5</ele><time>2026-04-18T09:35:59Z</time></trkpt><trkpt lat="41.776255957360505" lon="13.826102378499858"><ele>1134.0</ele><time>2026-04-18T09:36:00Z</time></trkpt><trkpt lat="41.77612478077837" lon="13.826389745319089"><ele>1138.0</ele><time>2026-04-18T09:36:01Z</time></trkpt><trkpt lat="41.77599796581546" lon="13.826660831919718"><ele>1142.0</ele><time>2026-04-18T09:36:02Z</time></trkpt><trkpt lat="41.77587064563046" lon="13.82692144563578"><ele>1142.0</ele><time>2026-04-18T09:36:03Z</time></trkpt><trkpt lat="41.775748219131216" lon="13.827178564643033"><ele>1142.0</ele><time>2026-04-18T09:36:04Z</time></trkpt><trkpt lat="41.77563859048352" lon="13.827430250624445"><ele>1142.0</ele><time>2026-04-18T09:36:05Z</time></trkpt><trkpt lat="41.775530352247664" lon="13.827672681336415"><ele>1139.0</ele><time>2026-04-18T09:36:06Z</time></trkpt><trkpt lat="41.77541849471271" lon="13.827913874533289"><ele>1136.0</ele><time>2026-04-18T09:36:07Z</time></trkpt><trkpt lat="41.77531358388245" lon="13.828142094068474"><ele>1133.0</ele><time>2026-04-18T09:36:08Z</time></trkpt><trkpt lat="41.7752237655299" lon="13.828335189416451"><ele>1135.25</ele><time>2026-04-18T09:36:09Z</time></trkpt><trkpt lat="41.77515173448801" lon="13.828504518466477"><ele>1137.5</ele><time>2026-04-18T09:36:10Z</time></trkpt><trkpt lat="41.77508968567109" lon="13.828662386290798"><ele>1139.75</ele><time>2026-04-18T09:36:10.999Z</time></trkpt><trkpt lat="41.775053099686126" lon="13.828812188420114"><ele>1142.0</ele><time>2026-04-18T09:36:11.999Z</time></trkpt><trkpt lat="41.77505796008439" lon="13.828983069482016"><ele>1142.0</ele><time>2026-04-18T09:36:12.999Z</time></trkpt><trkpt lat="41.77509309752782" lon="13.829158476669486"><ele>1142.0</ele><time>2026-04-18T09:36:13.999Z</time></trkpt><trkpt lat="41.775137591921" lon="13.829330485072683"><ele>1142.0</ele><time>2026-04-18T09:36:14.999Z</time></trkpt><trkpt lat="41.77517274802562" lon="13.829487347400628"><ele>1142.0</ele><time>2026-04-18T09:36:15.999Z</time></trkpt><trkpt lat="41.77519856704372" lon="13.829618266876354"><ele>1141.8333333333335</ele><time>2026-04-18T09:36:16.999Z</time></trkpt><trkpt lat="41.775223721856584" lon="13.829727469470582"><ele>1141.6666666666667</ele><time>2026-04-18T09:36:17.999Z</time></trkpt><trkpt lat="41.77524550308657" lon="13.829807324157414"><ele>1141.5</ele><time>2026-04-18T09:36:18.999Z</time></trkpt><trkpt lat="41.77526599940602" lon="13.829918349277268"><ele>1141.3333333333333</ele><time>2026-04-18T09:36:20.999Z</time></trkpt><trkpt lat="41.7752913381202" lon="13.829999991990883"><ele>1141.1666666666665</ele><time>2026-04-18T09:36:24.999Z</time></trkpt><trkpt lat="41.77536241135203" lon="13.830080662023581"><ele>1141.0</ele><time>2026-04-18T09:36:28.999Z</time></trkpt><trkpt lat="41.77548456390426" lon="13.830002766500664"><ele>1141.0</ele><time>2026-04-18T09:36:30.999Z</time></trkpt><trkpt lat="41.77556460372926" lon="13.829926904279391"><ele>1141.0</ele><time>2026-04-18T09:36:31.999Z</time></trkpt><trkpt lat="41.7756640900703" lon="13.829860254222544"><ele>1141.0</ele><time>2026-04-18T09:36:32.999Z</time></trkpt><trkpt lat="41.7757891332245" lon="13.829799948109828"><ele>1141.0</ele><time>2026-04-18T09:36:33.999Z</time></trkpt><trkpt lat="41.7759298963026" lon="13.829737067345773"><ele>1142.25</ele><time>2026-04-18T09:36:34.999Z</time></trkpt><trkpt lat="41.77607540194554" lon="13.829678809961472"><ele>1143.5</ele><time>2026-04-18T09:36:35.999Z</time></trkpt><trkpt lat="41.77621453311805" lon="13.82962436383552"><ele>1144.75</ele><time>2026-04-18T09:36:36.999Z</time></trkpt><trkpt lat="41.77636034123484" lon="13.829564662760083"><ele>1146.0</ele><time>2026-04-18T09:36:37.999Z</time></trkpt><trkpt lat="41.776521666519166" lon="13.829518063154708"><ele>1146.0</ele><time>2026-04-18T09:36:38.999Z</time></trkpt><trkpt lat="41.77668707453227" lon="13.829433697830346"><ele>1146.0</ele><time>2026-04-18T09:36:39.999Z</time></trkpt><trkpt lat="41.77686728430953" lon="13.829359018630328"><ele>1146.0</ele><time>2026-04-18T09:36:40.999Z</time></trkpt><trkpt lat="41.77705073715392" lon="13.829288270076203"><ele>1143.0</ele><time>2026-04-18T09:36:41.999Z</time></trkpt><trkpt lat="41.77722342192217" lon="13.829209899799528"><ele>1140.0</ele><time>2026-04-18T09:36:42.999Z</time></trkpt><trkpt lat="41.777379407981506" lon="13.829136727739147"><ele>1137.0</ele><time>2026-04-18T09:36:43.999Z</time></trkpt><trkpt lat="41.777520462004716" lon="13.829058020003453"><ele>1137.0</ele><time>2026-04-18T09:36:44.999Z</time></trkpt><trkpt lat="41.777645492495495" lon="13.828983776560975"><ele>1137.0</ele><time>2026-04-18T09:36:45.999Z</time></trkpt><trkpt lat="41.777757066579625" lon="13.828915818029193"><ele>1137.0</ele><time>2026-04-18T09:36:46.999Z</time></trkpt><trkpt lat="41.77786255696297" lon="13.8288528031187"><ele>1137.0</ele><time>2026-04-18T09:36:47.999Z</time></trkpt><trkpt lat="41.77796262597794" lon="13.828795677802043"><ele>1140.4</ele><time>2026-04-18T09:36:48.999Z</time></trkpt><trkpt lat="41.778055421815374" lon="13.828740753040584"><ele>1143.8000000000002</ele><time>2026-04-18T09:36:49.999Z</time></trkpt><trkpt lat="41.77814865592859" lon="13.828685180855963"><ele>1147.2</ele><time>2026-04-18T09:36:50.999Z</time></trkpt><trkpt lat="41.77824220096492" lon="13.828628359666121"><ele>1150.6000000000001</ele><time>2026-04-18T09:36:51.999Z</time></trkpt><trkpt lat="41.77833550966724" lon="13.828576262013776"><ele>1154.0</ele><time>2026-04-18T09:36:53Z</time></trkpt><trkpt lat="41.778428761363706" lon="13.828522969487988"><ele>1150.4</ele><time>2026-04-18T09:36:54Z</time></trkpt><trkpt lat="41.77852318606272" lon="13.82846370514687"><ele>1146.8000000000002</ele><time>2026-04-18T09:36:55Z</time></trkpt><trkpt lat="41.778624043331526" lon="13.82840805061092"><ele>1143.1999999999998</ele><time>2026-04-18T09:36:56Z</time></trkpt><trkpt lat="41.77872274262488" lon="13.8283455273766"><ele>1139.6</ele><time>2026-04-18T09:36:57Z</time></trkpt><trkpt lat="41.77882077571047" lon="13.828283602761587"><ele>1136.0</ele><time>2026-04-18T09:36:58Z</time></trkpt><trkpt lat="41.77892214677919" lon="13.828222063819346"><ele>1136.0</ele><time>2026-04-18T09:36:59Z</time></trkpt><trkpt lat="41.77903508537727" lon="13.828151781451606"><ele>1136.0</ele><time>2026-04-18T09:37:00Z</time></trkpt><trkpt lat="41.779149287508766" lon="13.828080477780318"><ele>1136.0</ele><time>2026-04-18T09:37:01Z</time></trkpt><trkpt lat="41.7792588733403" lon="13.828002132464153"><ele>1136.0</ele><time>2026-04-18T09:37:02Z</time></trkpt><trkpt lat="41.779372657103224" lon="13.827928689712676"><ele>1135.0</ele><time>2026-04-18T09:37:03Z</time></trkpt><trkpt lat="41.7794822560497" lon="13.827833331978816"><ele>1134.0</ele><time>2026-04-18T09:37:04Z</time></trkpt><trkpt lat="41.77959822429252" lon="13.827744853015336"><ele>1133.0</ele><time>2026-04-18T09:37:05Z</time></trkpt><trkpt lat="41.77971095159217" lon="13.827650684708068"><ele>1132.0</ele><time>2026-04-18T09:37:06Z</time></trkpt><trkpt lat="41.779824250272824" lon="13.827572497194627"><ele>1132.0</ele><time>2026-04-18T09:37:07Z</time></trkpt><trkpt lat="41.77993320869769" lon="13.827495828374591"><ele>1132.0</ele><time>2026-04-18T09:37:08Z</time></trkpt><trkpt lat="41.78003976078183" lon="13.827420973815842"><ele>1132.0</ele><time>2026-04-18T09:37:09Z</time></trkpt><trkpt lat="41.780146426861855" lon="13.827345760261824"><ele>1132.0</ele><time>2026-04-18T09:37:10Z</time></trkpt><trkpt lat="41.78025910138284" lon="13.827268631848158"><ele>1137.0</ele><time>2026-04-18T09:37:11Z</time></trkpt><trkpt lat="41.78038029661561" lon="13.827175924681956"><ele>1142.0</ele><time>2026-04-18T09:37:12Z</time></trkpt><trkpt lat="41.78051646054561" lon="13.827093987183266"><ele>1147.0</ele><time>2026-04-18T09:37:13Z</time></trkpt><trkpt lat="41.78066691934648" lon="13.827013882730808"><ele>1147.0</ele><time>2026-04-18T09:37:14Z</time></trkpt><trkpt lat="41.78084632283947" lon="13.826937348693095"><ele>1147.0</ele><time>2026-04-18T09:37:15Z</time></trkpt><trkpt lat="41.781050813628795" lon="13.826855472680078"><ele>1147.0</ele><time>2026-04-18T09:37:16Z</time></trkpt><trkpt lat="41.78125755796661" lon="13.82677990902159"><ele>1137.6666666666665</ele><time>2026-04-18T09:37:17Z</time></trkpt><trkpt lat="41.781470406210474" lon="13.826713813690503"><ele>1128.3333333333333</ele><time>2026-04-18T09:37:18Z</time></trkpt><trkpt lat="41.781677092699994" lon="13.826664882899296"><ele>1119.0</ele><time>2026-04-18T09:37:19Z</time></trkpt><trkpt lat="41.781881952429146" lon="13.826629448114518"><ele>1119.0</ele><time>2026-04-18T09:37:20Z</time></trkpt><trkpt lat="41.78208727461347" lon="13.82659574339134"><ele>1119.0</ele><time>2026-04-18T09:37:21Z</time></trkpt><trkpt lat="41.78228392499793" lon="13.826562082952602"><ele>1119.0</ele><time>2026-04-18T09:37:22Z</time></trkpt><trkpt lat="41.78246996093215" lon="13.826537156297077"><ele>1119.0</ele><time>2026-04-18T09:37:23Z</time></trkpt><trkpt lat="41.78263635734791" lon="13.826518233323553"><ele>1119.0</ele><time>2026-04-18T09:37:24Z</time></trkpt><trkpt lat="41.78278980556867" lon="13.826491229890758"><ele>1119.0</ele><time>2026-04-18T09:37:25Z</time></trkpt><trkpt lat="41.7829192847801" lon="13.826446401041151"><ele>1120.6666666666667</ele><time>2026-04-18T09:37:26Z</time></trkpt><trkpt lat="41.78302587226942" lon="13.826352161411737"><ele>1122.3333333333335</ele><time>2026-04-18T09:37:27Z</time></trkpt><trkpt lat="41.78312571093715" lon="13.826183093109789"><ele>1124.0</ele><time>2026-04-18T09:37:28Z</time></trkpt><trkpt lat="41.78322105431498" lon="13.825953835298185"><ele>1124.0</ele><time>2026-04-18T09:37:29Z</time></trkpt><trkpt lat="41.78330804062561" lon="13.82568378882818"><ele>1124.0</ele><time>2026-04-18T09:37:30Z</time></trkpt><trkpt lat="41.78339655260769" lon="13.825412242162127"><ele>1124.0</ele><time>2026-04-18T09:37:31Z</time></trkpt><trkpt lat="41.783489380670204" lon="13.825143267852566"><ele>1133.6666666666667</ele><time>2026-04-18T09:37:32Z</time></trkpt><trkpt lat="41.78359547310147" lon="13.82488192828231"><ele>1143.3333333333333</ele><time>2026-04-18T09:37:33Z</time></trkpt><trkpt lat="41.78370676637476" lon="13.824623530421373"><ele>1153.0</ele><time>2026-04-18T09:37:34Z</time></trkpt><trkpt lat="41.78382341029753" lon="13.82435651310451"><ele>1141.5</ele><time>2026-04-18T09:37:35Z</time></trkpt><trkpt lat="41.783948293184984" lon="13.824070632100169"><ele>1130.0</ele><time>2026-04-18T09:37:36Z</time></trkpt><trkpt lat="41.78407616911831" lon="13.823770196937346"><ele>1124.0</ele><time>2026-04-18T09:37:37Z</time></trkpt><trkpt lat="41.78421298852096" lon="13.823457413561679"><ele>1118.0</ele><time>2026-04-18T09:37:38Z</time></trkpt><trkpt lat="41.784366275072934" lon="13.823119657054463"><ele>1124.5</ele><time>2026-04-18T09:37:39Z</time></trkpt><trkpt lat="41.78453837294132" lon="13.822763216571696"><ele>1131.0</ele><time>2026-04-18T09:37:40Z</time></trkpt><trkpt lat="41.78472513640812" lon="13.822386763945314"><ele>1131.0</ele><time>2026-04-18T09:37:41Z</time></trkpt><trkpt lat="41.784895529073424" lon="13.822044606191767"><ele>1131.0</ele><time>2026-04-18T09:37:42Z</time></trkpt><trkpt lat="41.78505087672179" lon="13.821730074787704"><ele>1139.5</ele><time>2026-04-18T09:37:43Z</time></trkpt><trkpt lat="41.78519540433281" lon="13.821433700364063"><ele>1148.0</ele><time>2026-04-18T09:37:44Z</time></trkpt><trkpt lat="41.78532637898581" lon="13.821131070812937"><ele>1139.5</ele><time>2026-04-18T09:37:45Z</time></trkpt><trkpt lat="41.785436515576656" lon="13.820841924065999"><ele>1131.0</ele><time>2026-04-18T09:37:46Z</time></trkpt><trkpt lat="41.78552810322555" lon="13.820570215420785"><ele>1131.0</ele><time>2026-04-18T09:37:47Z</time></trkpt><trkpt lat="41.785617428730724" lon="13.820295927862752"><ele>1131.0</ele><time>2026-04-18T09:37:48Z</time></trkpt><trkpt lat="41.78571420595629" lon="13.820032194265254"><ele>1131.0</ele><time>2026-04-18T09:37:49Z</time></trkpt><trkpt lat="41.78581487361902" lon="13.819801307308724"><ele>1125.0</ele><time>2026-04-18T09:37:50Z</time></trkpt><trkpt lat="41.78595078165602" lon="13.819571365697392"><ele>1119.0</ele><time>2026-04-18T09:37:51Z</time></trkpt><trkpt lat="41.786110783170486" lon="13.819336224805927"><ele>1125.0</ele><time>2026-04-18T09:37:52Z</time></trkpt><trkpt lat="41.78628522949101" lon="13.81909529226733"><ele>1131.0</ele><time>2026-04-18T09:37:53Z</time></trkpt><trkpt lat="41.786469773757126" lon="13.818848552134273"><ele>1131.0</ele><time>2026-04-18T09:37:54Z</time></trkpt><trkpt lat="41.78665262585084" lon="13.818617352247141"><ele>1131.0</ele><time>2026-04-18T09:37:55Z</time></trkpt><trkpt lat="41.78683337431297" lon="13.8183858905058"><ele>1133.0</ele><time>2026-04-18T09:37:56Z</time></trkpt><trkpt lat="41.78701994137865" lon="13.81814188242771"><ele>1135.0</ele><time>2026-04-18T09:37:57Z</time></trkpt><trkpt lat="41.787215472584776" lon="13.81788531263523"><ele>1127.5</ele><time>2026-04-18T09:37:58Z</time></trkpt><trkpt lat="41.78742123401126" lon="13.817625406309407"><ele>1120.0</ele><time>2026-04-18T09:37:59Z</time></trkpt><trkpt lat="41.78762871389337" lon="13.817353316717712"><ele>1120.5</ele><time>2026-04-18T09:38:00Z</time></trkpt><trkpt lat="41.787833297678894" lon="13.817081540432596"><ele>1121.0</ele><time>2026-04-18T09:38:01Z</time></trkpt><trkpt lat="41.78802920998268" lon="13.816807114192654"><ele>1121.0</ele><time>2026-04-18T09:38:02Z</time></trkpt><trkpt lat="41.7882110004897" lon="13.816529387636958"><ele>1121.0</ele><time>2026-04-18T09:38:03Z</time></trkpt><trkpt lat="41.78837985044124" lon="13.816244701553071"><ele>1121.0</ele><time>2026-04-18T09:38:04Z</time></trkpt><trkpt lat="41.78853427572463" lon="13.81594138903557"><ele>1121.0</ele><time>2026-04-18T09:38:05Z</time></trkpt><trkpt lat="41.78867566404627" lon="13.815623142404586"><ele>1121.0</ele><time>2026-04-18T09:38:06Z</time></trkpt><trkpt lat="41.78880000178438" lon="13.815341034268794"><ele>1121.0</ele><time>2026-04-18T09:38:07Z</time></trkpt><trkpt lat="41.788895207785544" lon="13.815101865854974"><ele>1121.0</ele><time>2026-04-18T09:38:07.999Z</time></trkpt><trkpt lat="41.78896650302401" lon="13.814845936039452"><ele>1121.6666666666667</ele><time>2026-04-18T09:38:08.999Z</time></trkpt><trkpt lat="41.78899736066984" lon="13.814559755013143"><ele>1122.3333333333333</ele><time>2026-04-18T09:38:09.999Z</time></trkpt><trkpt lat="41.78898000862494" lon="13.814255967467766"><ele>1123.0</ele><time>2026-04-18T09:38:10.999Z</time></trkpt><trkpt lat="41.78893682173894" lon="13.813971514167784"><ele>1124.6666666666665</ele><time>2026-04-18T09:38:11.999Z</time></trkpt><trkpt lat="41.78890889788524" lon="13.813728130089409"><ele>1126.3333333333333</ele><time>2026-04-18T09:38:12.999Z</time></trkpt><trkpt lat="41.78892648951444" lon="13.813475389044472"><ele>1128.0</ele><time>2026-04-18T09:38:13.999Z</time></trkpt><trkpt lat="41.78897927956216" lon="13.813182089175687"><ele>1128.5</ele><time>2026-04-18T09:38:14.999Z</time></trkpt><trkpt lat="41.78903681594846" lon="13.812863499574624"><ele>1129.0</ele><time>2026-04-18T09:38:15.999Z</time></trkpt><trkpt lat="41.78908677619225" lon="13.812525462540162"><ele>1128.0</ele><time>2026-04-18T09:38:16.999Z</time></trkpt><trkpt lat="41.78913801054561" lon="13.812173867814025"><ele>1127.0</ele><time>2026-04-18T09:38:17.999Z</time></trkpt><trkpt lat="41.789187712497835" lon="13.811814476428735"><ele>1125.0</ele><time>2026-04-18T09:38:18.999Z</time></trkpt><trkpt lat="41.78923752343824" lon="13.811483701135312"><ele>1123.0</ele><time>2026-04-18T09:38:19.999Z</time></trkpt><trkpt lat="41.789284596910164" lon="13.811177650233079"><ele>1123.0</ele><time>2026-04-18T09:38:20.999Z</time></trkpt><trkpt lat="41.78934040585204" lon="13.810888060928592"><ele>1123.0</ele><time>2026-04-18T09:38:21.999Z</time></trkpt><trkpt lat="41.789426448312845" lon="13.810578821320247"><ele>1127.0</ele><time>2026-04-18T09:38:22.999Z</time></trkpt><trkpt lat="41.78952992707548" lon="13.810257904862372"><ele>1131.0</ele><time>2026-04-18T09:38:23.999Z</time></trkpt><trkpt lat="41.7896334351607" lon="13.80993284429445"><ele>1131.0</ele><time>2026-04-18T09:38:24.999Z</time></trkpt><trkpt lat="41.78973598054004" lon="13.80959882472141"><ele>1131.0</ele><time>2026-04-18T09:38:25.999Z</time></trkpt><trkpt lat="41.78984013305624" lon="13.809258762379745"><ele>1129.0</ele><time>2026-04-18T09:38:26.999Z</time></trkpt><trkpt lat="41.78994643498652" lon="13.80892333606139"><ele>1127.0</ele><time>2026-04-18T09:38:27.999Z</time></trkpt><trkpt lat="41.79005400232824" lon="13.808592631703945"><ele>1125.5</ele><time>2026-04-18T09:38:28.999Z</time></trkpt><trkpt lat="41.79015361546834" lon="13.808279258452657"><ele>1124.0</ele><time>2026-04-18T09:38:29.999Z</time></trkpt><trkpt lat="41.79025604187223" lon="13.807976513071496"><ele>1131.0</ele><time>2026-04-18T09:38:30.999Z</time></trkpt><trkpt lat="41.79038039336782" lon="13.807667831184084"><ele>1138.0</ele><time>2026-04-18T09:38:31.999Z</time></trkpt><trkpt lat="41.79052691825445" lon="13.807353316236965"><ele>1138.0</ele><time>2026-04-18T09:38:32.999Z</time></trkpt><trkpt lat="41.79068529277307" lon="13.807030129646494"><ele>1138.0</ele><time>2026-04-18T09:38:33.999Z</time></trkpt><trkpt lat="41.79084741831503" lon="13.806690690601826"><ele>1138.0</ele><time>2026-04-18T09:38:34.999Z</time></trkpt><trkpt lat="41.79101813505224" lon="13.806327550770174"><ele>1138.0</ele><time>2026-04-18T09:38:35.999Z</time></trkpt><trkpt lat="41.79118042638711" lon="13.805988246883736"><ele>1138.0</ele><time>2026-04-18T09:38:36.999Z</time></trkpt><trkpt lat="41.791330082444084" lon="13.805674222165589"><ele>1138.0</ele><time>2026-04-18T09:38:37.999Z</time></trkpt><trkpt lat="41.791475272456005" lon="13.805354874071117"><ele>1133.5</ele><time>2026-04-18T09:38:38.999Z</time></trkpt><trkpt lat="41.79161625417378" lon="13.805021145931757"><ele>1129.0</ele><time>2026-04-18T09:38:39.999Z</time></trkpt><trkpt lat="41.79174242529399" lon="13.804662251049482"><ele>1140.0</ele><time>2026-04-18T09:38:40.999Z</time></trkpt><trkpt lat="41.79186331591406" lon="13.80428984127602"><ele>1151.0</ele><time>2026-04-18T09:38:41.999Z</time></trkpt><trkpt lat="41.79198449379406" lon="13.803919413919003"><ele>1151.0</ele><time>2026-04-18T09:38:42.999Z</time></trkpt><trkpt lat="41.79210283189579" lon="13.803566930317638"><ele>1151.0</ele><time>2026-04-18T09:38:43.999Z</time></trkpt><trkpt lat="41.79220798395289" lon="13.803225637461438"><ele>1147.5</ele><time>2026-04-18T09:38:44.999Z</time></trkpt><trkpt lat="41.792314916248365" lon="13.802889709436432"><ele>1144.0</ele><time>2026-04-18T09:38:45.999Z</time></trkpt><trkpt lat="41.79241021826557" lon="13.802551005977708"><ele>1138.5</ele><time>2026-04-18T09:38:46.999Z</time></trkpt><trkpt lat="41.79248524189621" lon="13.802212477870428"><ele>1133.0</ele><time>2026-04-18T09:38:47.999Z</time></trkpt><trkpt lat="41.792552739986725" lon="13.80188170804849"><ele>1131.0</ele><time>2026-04-18T09:38:48.999Z</time></trkpt><trkpt lat="41.79262042397434" lon="13.801554910599059"><ele>1129.0</ele><time>2026-04-18T09:38:49.999Z</time></trkpt><trkpt lat="41.79269317158645" lon="13.801220971163556"><ele>1134.0</ele><time>2026-04-18T09:38:50.999Z</time></trkpt><trkpt lat="41.79277265211619" lon="13.800883199340149"><ele>1139.0</ele><time>2026-04-18T09:38:51.999Z</time></trkpt><trkpt lat="41.792849650210016" lon="13.800546997504824"><ele>1139.0</ele><time>2026-04-18T09:38:52.999Z</time></trkpt><trkpt lat="41.7929343145211" lon="13.800203103356795"><ele>1139.0</ele><time>2026-04-18T09:38:53.999Z</time></trkpt><trkpt lat="41.7930177685977" lon="13.79983895344453"><ele>1139.0</ele><time>2026-04-18T09:38:54.999Z</time></trkpt><trkpt lat="41.79310308441454" lon="13.79945485064263"><ele>1139.0</ele><time>2026-04-18T09:38:55.999Z</time></trkpt><trkpt lat="41.79319118144115" lon="13.799041236872618"><ele>1139.0</ele><time>2026-04-18T09:38:56.999Z</time></trkpt><trkpt lat="41.793291189704995" lon="13.798624365761594"><ele>1139.0</ele><time>2026-04-18T09:38:57.999Z</time></trkpt><trkpt lat="41.793376690827905" lon="13.798249728156211"><ele>1137.5</ele><time>2026-04-18T09:38:59Z</time></trkpt><trkpt lat="41.79345171548927" lon="13.797903619338776"><ele>1136.0</ele><time>2026-04-18T09:39:00Z</time></trkpt><trkpt lat="41.79351861439754" lon="13.797581234773334"><ele>1150.0</ele><time>2026-04-18T09:39:01Z</time></trkpt><trkpt lat="41.79358412684425" lon="13.797284552818908"><ele>1164.0</ele><time>2026-04-18T09:39:02Z</time></trkpt><trkpt lat="41.79364918761596" lon="13.796999093368408"><ele>1158.5</ele><time>2026-04-18T09:39:03Z</time></trkpt><trkpt lat="41.79372523676506" lon="13.796709887338087"><ele>1153.0</ele><time>2026-04-18T09:39:04Z</time></trkpt><trkpt lat="41.79381690885455" lon="13.796429080613377"><ele>1153.0</ele><time>2026-04-18T09:39:05Z</time></trkpt><trkpt lat="41.793928013584946" lon="13.796164034379805"><ele>1153.0</ele><time>2026-04-18T09:39:06Z</time></trkpt><trkpt lat="41.79406041814237" lon="13.795921602224217"><ele>1154.6666666666665</ele><time>2026-04-18T09:39:07Z</time></trkpt><trkpt lat="41.794210051168974" lon="13.795705468308126"><ele>1156.3333333333333</ele><time>2026-04-18T09:39:08Z</time></trkpt><trkpt lat="41.79436217235546" lon="13.795528934195994"><ele>1158.0</ele><time>2026-04-18T09:39:09Z</time></trkpt><trkpt lat="41.79452391692641" lon="13.795360324718274"><ele>1158.0</ele><time>2026-04-18T09:39:10Z</time></trkpt><trkpt lat="41.794698629824644" lon="13.795200914605884"><ele>1158.0</ele><time>2026-04-18T09:39:11Z</time></trkpt><trkpt lat="41.794890886743666" lon="13.795050575101143"><ele>1158.0</ele><time>2026-04-18T09:39:12Z</time></trkpt><trkpt lat="41.79508240491817" lon="13.794910286843642"><ele>1152.0</ele><time>2026-04-18T09:39:13Z</time></trkpt><trkpt lat="41.79527798152974" lon="13.794762193953385"><ele>1146.0</ele><time>2026-04-18T09:39:14Z</time></trkpt><trkpt lat="41.79547852383742" lon="13.794604078607264"><ele>1146.0</ele><time>2026-04-18T09:39:15Z</time></trkpt><trkpt lat="41.79568762461408" lon="13.79444520186653"><ele>1146.0</ele><time>2026-04-18T09:39:16Z</time></trkpt><trkpt lat="41.79590019375449" lon="13.794284359631602"><ele>1143.0</ele><time>2026-04-18T09:39:17Z</time></trkpt><trkpt lat="41.79611436911214" lon="13.794124580332563"><ele>1140.0</ele><time>2026-04-18T09:39:18Z</time></trkpt><trkpt lat="41.7963240010577" lon="13.793964470787774"><ele>1140.0</ele><time>2026-04-18T09:39:19Z</time></trkpt><trkpt lat="41.79652776919527" lon="13.79380780113596"><ele>1140.0</ele><time>2026-04-18T09:39:20Z</time></trkpt><trkpt lat="41.79673179978262" lon="13.793650065952452"><ele>1139.0</ele><time>2026-04-18T09:39:21Z</time></trkpt><trkpt lat="41.79693272520741" lon="13.793493891888772"><ele>1138.0</ele><time>2026-04-18T09:39:22Z</time></trkpt><trkpt lat="41.79713920220788" lon="13.79333994404074"><ele>1138.0</ele><time>2026-04-18T09:39:23Z</time></trkpt><trkpt lat="41.79735572105142" lon="13.793197192361625"><ele>1138.0</ele><time>2026-04-18T09:39:24Z</time></trkpt><trkpt lat="41.797598940791" lon="13.793067149352531"><ele>1139.0</ele><time>2026-04-18T09:39:25Z</time></trkpt><trkpt lat="41.79786825053739" lon="13.792928736146159"><ele>1140.0</ele><time>2026-04-18T09:39:26Z</time></trkpt><trkpt lat="41.79815729504359" lon="13.792775132899056"><ele>1140.0</ele><time>2026-04-18T09:39:27Z</time></trkpt><trkpt lat="41.7984640812267" lon="13.792612023700432"><ele>1140.0</ele><time>2026-04-18T09:39:28Z</time></trkpt><trkpt lat="41.79879076467639" lon="13.792444890888568"><ele>1139.5</ele><time>2026-04-18T09:39:29Z</time></trkpt><trkpt lat="41.79912279726911" lon="13.792271473693548"><ele>1139.0</ele><time>2026-04-18T09:39:30Z</time></trkpt><trkpt lat="41.79941372749027" lon="13.792120125005365"><ele>1139.0</ele><time>2026-04-18T09:39:31Z</time></trkpt><trkpt lat="41.79967460774091" lon="13.791984036311622"><ele>1139.0</ele><time>2026-04-18T09:39:32Z</time></trkpt><trkpt lat="41.7999177965922" lon="13.79186239642651"><ele>1140.0</ele><time>2026-04-18T09:39:33Z</time></trkpt><trkpt lat="41.80012739632805" lon="13.791748240812193"><ele>1141.0</ele><time>2026-04-18T09:39:34Z</time></trkpt><trkpt lat="41.80031312980239" lon="13.791630198086198"><ele>1142.0</ele><time>2026-04-18T09:39:35Z</time></trkpt><trkpt lat="41.80048309517539" lon="13.791486224768668"><ele>1142.6666666666667</ele><time>2026-04-18T09:39:36Z</time></trkpt><trkpt lat="41.800636657667624" lon="13.791303766501454"><ele>1143.3333333333333</ele><time>2026-04-18T09:39:37Z</time></trkpt><trkpt lat="41.800773899948666" lon="13.791080115776273"><ele>1144.0</ele><time>2026-04-18T09:39:38Z</time></trkpt><trkpt lat="41.80088671686914" lon="13.790843695213436"><ele>1144.0</ele><time>2026-04-18T09:39:39Z</time></trkpt><trkpt lat="41.80100903937723" lon="13.79060975889538"><ele>1144.0</ele><time>2026-04-18T09:39:40Z</time></trkpt><trkpt lat="41.80114289540863" lon="13.790350144708906"><ele>1144.0</ele><time>2026-04-18T09:39:41Z</time></trkpt><trkpt lat="41.80127105715722" lon="13.790105724699114"><ele>1144.0</ele><time>2026-04-18T09:39:42Z</time></trkpt><trkpt lat="41.801387415002836" lon="13.789884588783687"><ele>1144.0</ele><time>2026-04-18T09:39:43Z</time></trkpt><trkpt lat="41.80151132763175" lon="13.789661169717837"><ele>1144.0</ele><time>2026-04-18T09:39:44Z</time></trkpt><trkpt lat="41.80164969728862" lon="13.789448998245616"><ele>1144.0</ele><time>2026-04-18T09:39:45Z</time></trkpt><trkpt lat="41.80180933623915" lon="13.789259080094906"><ele>1144.0</ele><time>2026-04-18T09:39:46Z</time></trkpt><trkpt lat="41.80197065021898" lon="13.789067807398752"><ele>1144.0</ele><time>2026-04-18T09:39:47Z</time></trkpt><trkpt lat="41.802135426280735" lon="13.788878082968054"><ele>1144.0</ele><time>2026-04-18T09:39:48Z</time></trkpt><trkpt lat="41.80229544582339" lon="13.78868973673676"><ele>1144.0</ele><time>2026-04-18T09:39:49Z</time></trkpt><trkpt lat="41.802441190409496" lon="13.788518502172893"><ele>1144.0</ele><time>2026-04-18T09:39:50Z</time></trkpt><trkpt lat="41.80257265250448" lon="13.78835711404853"><ele>1145.0</ele><time>2026-04-18T09:39:51Z</time></trkpt><trkpt lat="41.80269385687878" lon="13.788208032605963"><ele>1146.0</ele><time>2026-04-18T09:39:52Z</time></trkpt><trkpt lat="41.802807104752986" lon="13.788074523997238"><ele>1147.0</ele><time>2026-04-18T09:39:53Z</time></trkpt><trkpt lat="41.80289762229307" lon="13.787967666536447"><ele>1148.0</ele><time>2026-04-18T09:39:54Z</time></trkpt><trkpt lat="41.80297695137122" lon="13.787880102164342"><ele>1148.0</ele><time>2026-04-18T09:39:55Z</time></trkpt><trkpt lat="41.80303755653456" lon="13.787813393116142"><ele>1148.0</ele><time>2026-04-18T09:39:56Z</time></trkpt><trkpt lat="41.803094193976136" lon="13.787764792666856"><ele>1148.0</ele><time>2026-04-18T09:39:57Z</time></trkpt><trkpt lat="41.80318267383472" lon="13.78769831224819"><ele>1148.0</ele><time>2026-04-18T09:39:59Z</time></trkpt><trkpt lat="41.80324803197171" lon="13.787678913991087"><ele>1148.0</ele><time>2026-04-18T09:40:02Z</time></trkpt><trkpt lat="41.803335545320586" lon="13.787671605950203"><ele>1148.0</ele><time>2026-04-18T09:40:04Z</time></trkpt><trkpt lat="41.8034324513363" lon="13.787589868679593"><ele>1148.6666666666667</ele><time>2026-04-18T09:40:06Z</time></trkpt><trkpt lat="41.80349849079917" lon="13.787545702755397"><ele>1149.3333333333335</ele><time>2026-04-18T09:40:07Z</time></trkpt><trkpt lat="41.80357040880258" lon="13.787525291109839"><ele>1150.0</ele><time>2026-04-18T09:40:08Z</time></trkpt><trkpt lat="41.803641246191184" lon="13.787523481420774"><ele>1150.6666666666667</ele><time>2026-04-18T09:40:08.999Z</time></trkpt><trkpt lat="41.80374538463375" lon="13.787531483827763"><ele>1151.3333333333333</ele><time>2026-04-18T09:40:10.999Z</time></trkpt><trkpt lat="41.80381408606824" lon="13.78754656439815"><ele>1152.0</ele><time>2026-04-18T09:40:11.999Z</time></trkpt><trkpt lat="41.803897266895504" lon="13.787569817345506"><ele>1152.0</ele><time>2026-04-18T09:40:12.999Z</time></trkpt><trkpt lat="41.8039968384067" lon="13.787614607100124"><ele>1152.0</ele><time>2026-04-18T09:40:13.999Z</time></trkpt><trkpt lat="41.804113691264796" lon="13.787647772894863"><ele>1152.0</ele><time>2026-04-18T09:40:14.999Z</time></trkpt><trkpt lat="41.80423538190647" lon="13.787681747291705"><ele>1152.0</ele><time>2026-04-18T09:40:15.999Z</time></trkpt><trkpt lat="41.80437597586577" lon="13.787705150949416"><ele>1152.0</ele><time>2026-04-18T09:40:16.999Z</time></trkpt><trkpt lat="41.804526463404216" lon="13.7877515027409"><ele>1152.0</ele><time>2026-04-18T09:40:17.999Z</time></trkpt><trkpt lat="41.804680191259486" lon="13.787797046411189"><ele>1152.0</ele><time>2026-04-18T09:40:18.999Z</time></trkpt><trkpt lat="41.80484199302678" lon="13.787838302117624"><ele>1152.0</ele><time>2026-04-18T09:40:19.999Z</time></trkpt><trkpt lat="41.805001102549845" lon="13.787883583467003"><ele>1152.0</ele><time>2026-04-18T09:40:20.999Z</time></trkpt><trkpt lat="41.805173971254064" lon="13.787925548340764"><ele>1152.0</ele><time>2026-04-18T09:40:21.999Z</time></trkpt><trkpt lat="41.805340796277" lon="13.787973395025208"><ele>1152.0</ele><time>2026-04-18T09:40:22.999Z</time></trkpt><trkpt lat="41.805511066092514" lon="13.788021088541457"><ele>1152.0</ele><time>2026-04-18T09:40:23.999Z</time></trkpt><trkpt lat="41.80567968988338" lon="13.788069963446576"><ele>1152.0</ele><time>2026-04-18T09:40:24.999Z</time></trkpt><trkpt lat="41.80584126033349" lon="13.788113812376496"><ele>1152.3333333333333</ele><time>2026-04-18T09:40:25.999Z</time></trkpt><trkpt lat="41.80600260777958" lon="13.788157511169377"><ele>1152.6666666666665</ele><time>2026-04-18T09:40:26.999Z</time></trkpt><trkpt lat="41.80616442124078" lon="13.788199104281075"><ele>1153.0</ele><time>2026-04-18T09:40:27.999Z</time></trkpt><trkpt lat="41.80632917314525" lon="13.788254914044114"><ele>1153.0</ele><time>2026-04-18T09:40:28.999Z</time></trkpt><trkpt lat="41.80649019162091" lon="13.788314956354117"><ele>1153.0</ele><time>2026-04-18T09:40:29.999Z</time></trkpt><trkpt lat="41.80664740538505" lon="13.788374082016276"><ele>1153.0</ele><time>2026-04-18T09:40:30.999Z</time></trkpt><trkpt lat="41.80679310878666" lon="13.788425977077942"><ele>1153.0</ele><time>2026-04-18T09:40:31.999Z</time></trkpt><trkpt lat="41.80692311603458" lon="13.788479048205179"><ele>1153.0</ele><time>2026-04-18T09:40:32.999Z</time></trkpt><trkpt lat="41.8070414112467" lon="13.788527511401762"><ele>1153.0</ele><time>2026-04-18T09:40:33.999Z</time></trkpt><trkpt lat="41.80715474567115" lon="13.788572481133095"><ele>1153.0</ele><time>2026-04-18T09:40:34.999Z</time></trkpt><trkpt lat="41.807273319546766" lon="13.788623539597058"><ele>1152.75</ele><time>2026-04-18T09:40:35.999Z</time></trkpt><trkpt lat="41.80739471632264" lon="13.788686598753033"><ele>1152.5</ele><time>2026-04-18T09:40:36.999Z</time></trkpt><trkpt lat="41.807521629304894" lon="13.788749510585895"><ele>1152.25</ele><time>2026-04-18T09:40:37.999Z</time></trkpt><trkpt lat="41.807650959236625" lon="13.788796836688068"><ele>1152.0</ele><time>2026-04-18T09:40:38.999Z</time></trkpt><trkpt lat="41.807774905897126" lon="13.788846455551077"><ele>1152.4</ele><time>2026-04-18T09:40:39.999Z</time></trkpt><trkpt lat="41.807890729152696" lon="13.788895827949192"><ele>1152.8000000000002</ele><time>2026-04-18T09:40:40.999Z</time></trkpt><trkpt lat="41.80799622986267" lon="13.78893907610066"><ele>1153.2</ele><time>2026-04-18T09:40:41.999Z</time></trkpt><trkpt lat="41.80809260355163" lon="13.78897917242069"><ele>1153.6000000000001</ele><time>2026-04-18T09:40:42.999Z</time></trkpt><trkpt lat="41.80816720734145" lon="13.789012160515396"><ele>1154.0</ele><time>2026-04-18T09:40:43.999Z</time></trkpt><trkpt lat="41.80826362103188" lon="13.78907829276915"><ele>1154.0</ele><time>2026-04-18T09:40:45.999Z</time></trkpt><trkpt lat="41.80829472423643" lon="13.7891923271714"><ele>1154.0</ele><time>2026-04-18T09:40:47.999Z</time></trkpt><trkpt lat="41.80825846594046" lon="13.789352997098336"><ele>1154.0</ele><time>2026-04-18T09:40:49.999Z</time></trkpt><trkpt lat="41.80823372680058" lon="13.789457345446367"><ele>1154.0</ele><time>2026-04-18T09:40:50.999Z</time></trkpt><trkpt lat="41.808210059633566" lon="13.789573292837458"><ele>1154.0</ele><time>2026-04-18T09:40:51.999Z</time></trkpt><trkpt lat="41.808182689390186" lon="13.78969054166229"><ele>1154.1666666666667</ele><time>2026-04-18T09:40:52.999Z</time></trkpt><trkpt lat="41.80815543516495" lon="13.789800114864077"><ele>1154.3333333333335</ele><time>2026-04-18T09:40:53.999Z</time></trkpt><trkpt lat="41.808138853066424" lon="13.789894952887925"><ele>1154.5</ele><time>2026-04-18T09:40:54.999Z</time></trkpt><trkpt lat="41.80812107014713" lon="13.789976447752428"><ele>1154.6666666666667</ele><time>2026-04-18T09:40:55.999Z</time></trkpt><trkpt lat="41.808089193223104" lon="13.790109593258073"><ele>1154.8333333333333</ele><time>2026-04-18T09:40:57.999Z</time></trkpt><trkpt lat="41.80806259201402" lon="13.790230194750759"><ele>1155.0</ele><time>2026-04-18T09:40:59.999Z</time></trkpt><trkpt lat="41.808048096985274" lon="13.79035797502851"><ele>1154.7142857142858</ele><time>2026-04-18T09:41:01.999Z</time></trkpt><trkpt lat="41.80807571617454" lon="13.79044633336941"><ele>1154.4285714285716</ele><time>2026-04-18T09:41:03.999Z</time></trkpt><trkpt lat="41.80816987207707" lon="13.790507863010482"><ele>1154.142857142857</ele><time>2026-04-18T09:41:06Z</time></trkpt><trkpt lat="41.80823570531389" lon="13.790524821505146"><ele>1153.857142857143</ele><time>2026-04-18T09:41:07Z</time></trkpt><trkpt lat="41.80829927444431" lon="13.790541669653946"><ele>1153.5714285714287</ele><time>2026-04-18T09:41:08Z</time></trkpt><trkpt lat="41.80836373182183" lon="13.79055541076345"><ele>1153.2857142857142</ele><time>2026-04-18T09:41:09Z</time></trkpt><trkpt lat="41.80842688842462" lon="13.790568296880254"><ele>1153.0</ele><time>2026-04-18T09:41:10Z</time></trkpt><trkpt lat="41.80848945094234" lon="13.790583421438447"><ele>1153.5</ele><time>2026-04-18T09:41:11Z</time></trkpt><trkpt lat="41.808608791941815" lon="13.79060912898461"><ele>1154.0</ele><time>2026-04-18T09:41:13Z</time></trkpt><trkpt lat="41.80872968744858" lon="13.790639577349136"><ele>1154.5</ele><time>2026-04-18T09:41:15Z</time></trkpt><trkpt lat="41.80883989779544" lon="13.790665950532373"><ele>1155.0</ele><time>2026-04-18T09:41:17Z</time></trkpt><trkpt lat="41.80893612930551" lon="13.790693472117177"><ele>1155.0</ele><time>2026-04-18T09:41:19Z</time></trkpt><trkpt lat="41.80903919207426" lon="13.790720215150255"><ele>1155.0</ele><time>2026-04-18T09:41:21Z</time></trkpt><trkpt lat="41.809167089683044" lon="13.790753356495648"><ele>1155.0</ele><time>2026-04-18T09:41:23Z</time></trkpt><trkpt lat="41.80924929755325" lon="13.79077750770893"><ele>1155.0</ele><time>2026-04-18T09:41:24Z</time></trkpt><trkpt lat="41.809334637973414" lon="13.790803014248509"><ele>1155.0</ele><time>2026-04-18T09:41:25Z</time></trkpt><trkpt lat="41.80942223751055" lon="13.790830687521183"><ele>1155.2</ele><time>2026-04-18T09:41:26Z</time></trkpt><trkpt lat="41.80951648305015" lon="13.790857602942001"><ele>1155.4</ele><time>2026-04-18T09:41:27Z</time></trkpt><trkpt lat="41.809618158919506" lon="13.790880193924487"><ele>1155.6</ele><time>2026-04-18T09:41:28Z</time></trkpt><trkpt lat="41.80973715797661" lon="13.790903400383865"><ele>1155.8</ele><time>2026-04-18T09:41:29Z</time></trkpt><trkpt lat="41.809852616239326" lon="13.790931061292666"><ele>1156.0</ele><time>2026-04-18T09:41:30Z</time></trkpt><trkpt lat="41.80996533783937" lon="13.790961626127169"><ele>1156.0</ele><time>2026-04-18T09:41:31Z</time></trkpt><trkpt lat="41.81008106040108" lon="13.79099230063477"><ele>1156.0</ele><time>2026-04-18T09:41:32Z</time></trkpt><trkpt lat="41.81019562001272" lon="13.791020816282094"><ele>1156.0</ele><time>2026-04-18T09:41:33Z</time></trkpt><trkpt lat="41.81031188528238" lon="13.791049209295783"><ele>1156.0</ele><time>2026-04-18T09:41:34Z</time></trkpt><trkpt lat="41.8104378756719" lon="13.791079630421022"><ele>1156.25</ele><time>2026-04-18T09:41:35Z</time></trkpt><trkpt lat="41.81056809792332" lon="13.791108157047107"><ele>1156.5</ele><time>2026-04-18T09:41:36Z</time></trkpt><trkpt lat="41.810703960811544" lon="13.791135413397614"><ele>1156.75</ele><time>2026-04-18T09:41:37Z</time></trkpt><trkpt lat="41.8108423399888" lon="13.7911702485573"><ele>1157.0</ele><time>2026-04-18T09:41:38Z</time></trkpt><trkpt lat="41.81098156747095" lon="13.791203290570168"><ele>1157.75</ele><time>2026-04-18T09:41:39Z</time></trkpt><trkpt lat="41.81111842958723" lon="13.791235256163205"><ele>1158.5</ele><time>2026-04-18T09:41:40Z</time></trkpt><trkpt lat="41.81124974987905" lon="13.791264286640612"><ele>1159.25</ele><time>2026-04-18T09:41:41Z</time></trkpt><trkpt lat="41.811379559848874" lon="13.791286450596012"><ele>1160.0</ele><time>2026-04-18T09:41:42Z</time></trkpt><trkpt lat="41.811499987169725" lon="13.791298497984759"><ele>1160.0</ele><time>2026-04-18T09:41:43Z</time></trkpt><trkpt lat="41.811629179485344" lon="13.791307338283417"><ele>1160.0</ele><time>2026-04-18T09:41:44Z</time></trkpt><trkpt lat="41.811751066661124" lon="13.79130267217113"><ele>1160.0</ele><time>2026-04-18T09:41:45Z</time></trkpt><trkpt lat="41.81187651632387" lon="13.791296396269184"><ele>1160.0</ele><time>2026-04-18T09:41:46Z</time></trkpt><trkpt lat="41.8120039590343" lon="13.79129205703763"><ele>1160.0</ele><time>2026-04-18T09:41:47Z</time></trkpt><trkpt lat="41.812133579863215" lon="13.791298006918115"><ele>1160.0</ele><time>2026-04-18T09:41:48Z</time></trkpt><trkpt lat="41.81227413552829" lon="13.79127659669057"><ele>1160.0</ele><time>2026-04-18T09:41:49Z</time></trkpt><trkpt lat="41.81241865059022" lon="13.79125920917266"><ele>1160.0</ele><time>2026-04-18T09:41:50Z</time></trkpt><trkpt lat="41.8125675242439" lon="13.791239426148035"><ele>1160.0</ele><time>2026-04-18T09:41:51Z</time></trkpt><trkpt lat="41.81270826339606" lon="13.79120569437231"><ele>1160.0</ele><time>2026-04-18T09:41:52Z</time></trkpt><trkpt lat="41.81285056241061" lon="13.791193721064865"><ele>1160.0</ele><time>2026-04-18T09:41:53Z</time></trkpt><trkpt lat="41.81300381390346" lon="13.79117018906432"><ele>1160.0</ele><time>2026-04-18T09:41:54Z</time></trkpt><trkpt lat="41.81316089265973" lon="13.791137954213447"><ele>1160.0</ele><time>2026-04-18T09:41:55Z</time></trkpt><trkpt lat="41.81329540588745" lon="13.791112491727684"><ele>1160.0</ele><time>2026-04-18T09:41:56Z</time></trkpt><trkpt lat="41.81341918433369" lon="13.791094135715403"><ele>1160.0</ele><time>2026-04-18T09:41:57Z</time></trkpt><trkpt lat="41.81355563997927" lon="13.791071697540247"><ele>1160.0</ele><time>2026-04-18T09:41:58Z</time></trkpt><trkpt lat="41.81369816893595" lon="13.791045613825872"><ele>1161.6666666666667</ele><time>2026-04-18T09:41:59Z</time></trkpt><trkpt lat="41.8138443006143" lon="13.79101732797869"><ele>1163.3333333333333</ele><time>2026-04-18T09:42:00Z</time></trkpt><trkpt lat="41.81401378040112" lon="13.790989680159127"><ele>1165.0</ele><time>2026-04-18T09:42:01Z</time></trkpt><trkpt lat="41.81422035382977" lon="13.790955251183787"><ele>1166.0</ele><time>2026-04-18T09:42:02Z</time></trkpt><trkpt lat="41.81441560672238" lon="13.790917877999957"><ele>1167.0</ele><time>2026-04-18T09:42:03Z</time></trkpt><trkpt lat="41.814601274900866" lon="13.79088331347651"><ele>1168.0</ele><time>2026-04-18T09:42:04Z</time></trkpt><trkpt lat="41.814767560341934" lon="13.790851095922433"><ele>1168.0</ele><time>2026-04-18T09:42:05Z</time></trkpt><trkpt lat="41.8149370889735" lon="13.79082298475281"><ele>1168.0</ele><time>2026-04-18T09:42:06Z</time></trkpt><trkpt lat="41.81511412025444" lon="13.790790645647053"><ele>1168.0</ele><time>2026-04-18T09:42:07Z</time></trkpt><trkpt lat="41.815296664889345" lon="13.790746483686338"><ele>1167.0</ele><time>2026-04-18T09:42:08Z</time></trkpt><trkpt lat="41.81548771177126" lon="13.7907122144754"><ele>1166.0</ele><time>2026-04-18T09:42:09Z</time></trkpt><trkpt lat="41.81569090846561" lon="13.790685137218835"><ele>1165.0</ele><time>2026-04-18T09:42:09.999Z</time></trkpt><trkpt lat="41.81590035227336" lon="13.790644334357834"><ele>1165.0</ele><time>2026-04-18T09:42:10.999Z</time></trkpt><trkpt lat="41.81610688321914" lon="13.790605588999744"><ele>1165.0</ele><time>2026-04-18T09:42:11.999Z</time></trkpt><trkpt lat="41.81631786831904" lon="13.790570682373291"><ele>1165.0</ele><time>2026-04-18T09:42:12.999Z</time></trkpt><trkpt lat="41.81654069113147" lon="13.790531490443028"><ele>1165.0</ele><time>2026-04-18T09:42:13.999Z</time></trkpt><trkpt lat="41.81679852827027" lon="13.790484584936976"><ele>1165.0</ele><time>2026-04-18T09:42:14.999Z</time></trkpt><trkpt lat="41.817077302375" lon="13.790431265709357"><ele>1167.5</ele><time>2026-04-18T09:42:15.999Z</time></trkpt><trkpt lat="41.817317609549534" lon="13.79039073376979"><ele>1170.0</ele><time>2026-04-18T09:42:16.999Z</time></trkpt><trkpt lat="41.81753421921133" lon="13.790351715742334"><ele>1170.3333333333333</ele><time>2026-04-18T09:42:17.999Z</time></trkpt><trkpt lat="41.8177237209114" lon="13.790317350324692"><ele>1170.6666666666665</ele><time>2026-04-18T09:42:18.999Z</time></trkpt><trkpt lat="41.81789013462174" lon="13.790276394805085"><ele>1171.0</ele><time>2026-04-18T09:42:19.999Z</time></trkpt><trkpt lat="41.818031782183" lon="13.79020759131824"><ele>1174.3333333333333</ele><time>2026-04-18T09:42:20.999Z</time></trkpt><trkpt lat="41.81816791887889" lon="13.790081378574294"><ele>1177.6666666666667</ele><time>2026-04-18T09:42:21.999Z</time></trkpt><trkpt lat="41.81828608571217" lon="13.789948596974872"><ele>1181.0</ele><time>2026-04-18T09:42:22.999Z</time></trkpt><trkpt lat="41.81842545947923" lon="13.789858024831947"><ele>1177.6666666666667</ele><time>2026-04-18T09:42:23.999Z</time></trkpt><trkpt lat="41.81860454703055" lon="13.789804116305655"><ele>1174.3333333333333</ele><time>2026-04-18T09:42:24.999Z</time></trkpt><trkpt lat="41.818809155454616" lon="13.789813034465142"><ele>1171.0</ele><time>2026-04-18T09:42:25.999Z</time></trkpt><trkpt lat="41.819045516465806" lon="13.789838513956633"><ele>1171.0</ele><time>2026-04-18T09:42:26.999Z</time></trkpt><trkpt lat="41.81928932596996" lon="13.789834224524883"><ele>1171.0</ele><time>2026-04-18T09:42:27.999Z</time></trkpt><trkpt lat="41.81950798275123" lon="13.789825331264229"><ele>1172.6666666666665</ele><time>2026-04-18T09:42:28.999Z</time></trkpt><trkpt lat="41.81970837184618" lon="13.789809589563532"><ele>1174.3333333333333</ele><time>2026-04-18T09:42:29.999Z</time></trkpt><trkpt lat="41.819885019480296" lon="13.789794742793974"><ele>1176.0</ele><time>2026-04-18T09:42:30.999Z</time></trkpt><trkpt lat="41.820036927003606" lon="13.78981120127596"><ele>1177.0</ele><time>2026-04-18T09:42:31.999Z</time></trkpt><trkpt lat="41.82017672810968" lon="13.789872255573728"><ele>1178.0</ele><time>2026-04-18T09:42:32.999Z</time></trkpt><trkpt lat="41.82031253379532" lon="13.789999087696186"><ele>1179.0</ele><time>2026-04-18T09:42:33.999Z</time></trkpt><trkpt lat="41.82044096995131" lon="13.790123257191775"><ele>1178.3333333333333</ele><time>2026-04-18T09:42:34.999Z</time></trkpt><trkpt lat="41.82058901822239" lon="13.790209726008898"><ele>1177.6666666666665</ele><time>2026-04-18T09:42:35.999Z</time></trkpt><trkpt lat="41.820758378109105" lon="13.790250029225474"><ele>1177.0</ele><time>2026-04-18T09:42:36.999Z</time></trkpt><trkpt lat="41.82095662313447" lon="13.790222171948937"><ele>1177.5</ele><time>2026-04-18T09:42:37.999Z</time></trkpt><trkpt lat="41.821176872092764" lon="13.79015417803187"><ele>1178.0</ele><time>2026-04-18T09:42:38.999Z</time></trkpt><trkpt lat="41.8214100628403" lon="13.790097029239938"><ele>1178.0</ele><time>2026-04-18T09:42:39.999Z</time></trkpt><trkpt lat="41.82161479257979" lon="13.790038429528595"><ele>1178.0</ele><time>2026-04-18T09:42:40.999Z</time></trkpt><trkpt lat="41.82179455955566" lon="13.789984490053728"><ele>1178.0</ele><time>2026-04-18T09:42:41.999Z</time></trkpt><trkpt lat="41.821980127321986" lon="13.789956239049546"><ele>1177.6666666666667</ele><time>2026-04-18T09:42:42.999Z</time></trkpt><trkpt lat="41.82218060165991" lon="13.789978281115694"><ele>1177.3333333333333</ele><time>2026-04-18T09:42:43.999Z</time></trkpt><trkpt lat="41.82236222652788" lon="13.790024699143748"><ele>1177.0</ele><time>2026-04-18T09:42:44.999Z</time></trkpt><trkpt lat="41.822528086720496" lon="13.790050995095909"><ele>1177.3333333333333</ele><time>2026-04-18T09:42:45.999Z</time></trkpt><trkpt lat="41.82271037624276" lon="13.790002330717828"><ele>1177.6666666666667</ele><time>2026-04-18T09:42:46.999Z</time></trkpt><trkpt lat="41.8229001373928" lon="13.789890140191261"><ele>1178.0</ele><time>2026-04-18T09:42:47.999Z</time></trkpt><trkpt lat="41.82311322920362" lon="13.789804641237806"><ele>1178.0</ele><time>2026-04-18T09:42:48.999Z</time></trkpt><trkpt lat="41.823353792675206" lon="13.789767191353159"><ele>1178.0</ele><time>2026-04-18T09:42:49.999Z</time></trkpt><trkpt lat="41.82359759904671" lon="13.789725759780247"><ele>1177.6666666666667</ele><time>2026-04-18T09:42:50.999Z</time></trkpt><trkpt lat="41.82380452078337" lon="13.78968916998127"><ele>1177.3333333333333</ele><time>2026-04-18T09:42:51.999Z</time></trkpt><trkpt lat="41.823993803769866" lon="13.789661732387"><ele>1177.0</ele><time>2026-04-18T09:42:52.999Z</time></trkpt><trkpt lat="41.8241946941963" lon="13.789675621822557"><ele>1178.0</ele><time>2026-04-18T09:42:53.999Z</time></trkpt><trkpt lat="41.824394420603674" lon="13.78974915265413"><ele>1179.0</ele><time>2026-04-18T09:42:54.999Z</time></trkpt><trkpt lat="41.82458265825358" lon="13.789813938937991"><ele>1180.0</ele><time>2026-04-18T09:42:55.999Z</time></trkpt><trkpt lat="41.82478971665361" lon="13.789803088284481"><ele>1180.0</ele><time>2026-04-18T09:42:56.999Z</time></trkpt><trkpt lat="41.8250143096676" lon="13.7897372385074"><ele>1180.0</ele><time>2026-04-18T09:42:57.999Z</time></trkpt><trkpt lat="41.825275927214115" lon="13.789660388016852"><ele>1180.5</ele><time>2026-04-18T09:42:58.999Z</time></trkpt><trkpt lat="41.82555558102067" lon="13.789585791028022"><ele>1181.0</ele><time>2026-04-18T09:42:59.999Z</time></trkpt><trkpt lat="41.82584829205959" lon="13.789508559144721"><ele>1181.0</ele><time>2026-04-18T09:43:00.999Z</time></trkpt><trkpt lat="41.82616506177171" lon="13.789425322512331"><ele>1181.0</ele><time>2026-04-18T09:43:01.999Z</time></trkpt><trkpt lat="41.82648058115083" lon="13.789345110146973"><ele>1184.0</ele><time>2026-04-18T09:43:02.999Z</time></trkpt><trkpt lat="41.826796572704616" lon="13.789264007863467"><ele>1187.0</ele><time>2026-04-18T09:43:03.999Z</time></trkpt><trkpt lat="41.8270786096264" lon="13.789187370509035"><ele>1188.0</ele><time>2026-04-18T09:43:04.999Z</time></trkpt><trkpt lat="41.82735817283169" lon="13.789113898888692"><ele>1189.0</ele><time>2026-04-18T09:43:05.999Z</time></trkpt><trkpt lat="41.82762770701651" lon="13.789045443350643"><ele>1188.0</ele><time>2026-04-18T09:43:06.999Z</time></trkpt><trkpt lat="41.82789556851652" lon="13.788977688556907"><ele>1187.0</ele><time>2026-04-18T09:43:07.999Z</time></trkpt><trkpt lat="41.82818012739965" lon="13.788898586220915"><ele>1186.0</ele><time>2026-04-18T09:43:08.999Z</time></trkpt><trkpt lat="41.828479064193445" lon="13.7888126077473"><ele>1185.0</ele><time>2026-04-18T09:43:09.999Z</time></trkpt><trkpt lat="41.82879159944632" lon="13.788725001460625"><ele>1185.0</ele><time>2026-04-18T09:43:11Z</time></trkpt><trkpt lat="41.82911747349703" lon="13.78863369530143"><ele>1185.0</ele><time>2026-04-18T09:43:12Z</time></trkpt><trkpt lat="41.82945906123155" lon="13.788539695510106"><ele>1186.5</ele><time>2026-04-18T09:43:13Z</time></trkpt><trkpt lat="41.829770134833595" lon="13.788451858553618"><ele>1188.0</ele><time>2026-04-18T09:43:14Z</time></trkpt><trkpt lat="41.83005816878696" lon="13.788372629477186"><ele>1188.5</ele><time>2026-04-18T09:43:15Z</time></trkpt><trkpt lat="41.83032623838388" lon="13.788299792935018"><ele>1189.0</ele><time>2026-04-18T09:43:16Z</time></trkpt><trkpt lat="41.83059635915473" lon="13.788223325040919"><ele>1189.0</ele><time>2026-04-18T09:43:17Z</time></trkpt><trkpt lat="41.830864054263046" lon="13.788148053107996"><ele>1189.0</ele><time>2026-04-18T09:43:18Z</time></trkpt><trkpt lat="41.83113546622072" lon="13.788070233853158"><ele>1189.0</ele><time>2026-04-18T09:43:19Z</time></trkpt><trkpt lat="41.83141690883546" lon="13.787992776227867"><ele>1189.0</ele><time>2026-04-18T09:43:20Z</time></trkpt><trkpt lat="41.83170644661296" lon="13.78791237550084"><ele>1189.0</ele><time>2026-04-18T09:43:21Z</time></trkpt><trkpt lat="41.83200596384477" lon="13.787825887290383"><ele>1189.0</ele><time>2026-04-18T09:43:22Z</time></trkpt><trkpt lat="41.83230628631914" lon="13.787739928723271"><ele>1191.0</ele><time>2026-04-18T09:43:23Z</time></trkpt><trkpt lat="41.832603821364245" lon="13.78766029733216"><ele>1193.0</ele><time>2026-04-18T09:43:24Z</time></trkpt><trkpt lat="41.832903097429075" lon="13.78758643433669"><ele>1193.0</ele><time>2026-04-18T09:43:25Z</time></trkpt><trkpt lat="41.83321539501474" lon="13.787522481862489"><ele>1193.0</ele><time>2026-04-18T09:43:26Z</time></trkpt><trkpt lat="41.83353592498753" lon="13.787460068958293"><ele>1193.0</ele><time>2026-04-18T09:43:27Z</time></trkpt><trkpt lat="41.83386873434515" lon="13.787385684164748"><ele>1193.0</ele><time>2026-04-18T09:43:28Z</time></trkpt><trkpt lat="41.834216872263816" lon="13.787308498762721"><ele>1194.0</ele><time>2026-04-18T09:43:29Z</time></trkpt><trkpt lat="41.83456459353338" lon="13.787234679688018"><ele>1195.0</ele><time>2026-04-18T09:43:30Z</time></trkpt><trkpt lat="41.83487454988798" lon="13.787168410534361"><ele>1195.5</ele><time>2026-04-18T09:43:31Z</time></trkpt><trkpt lat="41.83517236237773" lon="13.787108179956277"><ele>1196.0</ele><time>2026-04-18T09:43:32Z</time></trkpt><trkpt lat="41.83546514103307" lon="13.78704689398148"><ele>1196.0</ele><time>2026-04-18T09:43:33Z</time></trkpt><trkpt lat="41.83575403961762" lon="13.786973543572147"><ele>1196.0</ele><time>2026-04-18T09:43:34Z</time></trkpt><trkpt lat="41.836041554006684" lon="13.786881890643198"><ele>1198.5</ele><time>2026-04-18T09:43:35Z</time></trkpt><trkpt lat="41.83633911683079" lon="13.786775656752297"><ele>1201.0</ele><time>2026-04-18T09:43:36Z</time></trkpt><trkpt lat="41.83664299463678" lon="13.786674177261993"><ele>1201.0</ele><time>2026-04-18T09:43:37Z</time></trkpt><trkpt lat="41.836920774815674" lon="13.786581544835125"><ele>1201.0</ele><time>2026-04-18T09:43:38Z</time></trkpt><trkpt lat="41.83719582398344" lon="13.786488083334794"><ele>1201.0</ele><time>2026-04-18T09:43:39Z</time></trkpt><trkpt lat="41.83747848932376" lon="13.786396229836203"><ele>1201.0</ele><time>2026-04-18T09:43:40Z</time></trkpt><trkpt lat="41.837763386904165" lon="13.786304050391408"><ele>1201.0</ele><time>2026-04-18T09:43:41Z</time></trkpt><trkpt lat="41.83805253173735" lon="13.786211682662382"><ele>1201.0</ele><time>2026-04-18T09:43:42Z</time></trkpt><trkpt lat="41.83834113149289" lon="13.786117287180852"><ele>1201.0</ele><time>2026-04-18T09:43:43Z</time></trkpt><trkpt lat="41.83862890679741" lon="13.786025086601786"><ele>1201.0</ele><time>2026-04-18T09:43:44Z</time></trkpt><trkpt lat="41.83891314864407" lon="13.785944613538987"><ele>1202.5</ele><time>2026-04-18T09:43:45Z</time></trkpt><trkpt lat="41.83919337694978" lon="13.785869566842209"><ele>1204.0</ele><time>2026-04-18T09:43:46Z</time></trkpt><trkpt lat="41.839469243876344" lon="13.785798290368588"><ele>1204.0</ele><time>2026-04-18T09:43:47Z</time></trkpt><trkpt lat="41.839738299051376" lon="13.785728749226534"><ele>1204.0</ele><time>2026-04-18T09:43:48Z</time></trkpt><trkpt lat="41.83998362966229" lon="13.785670823730241"><ele>1205.6666666666665</ele><time>2026-04-18T09:43:49Z</time></trkpt><trkpt lat="41.84021474566516" lon="13.785634894194608"><ele>1207.3333333333333</ele><time>2026-04-18T09:43:50Z</time></trkpt><trkpt lat="41.84042879708188" lon="13.78562068476243"><ele>1209.0</ele><time>2026-04-18T09:43:51Z</time></trkpt><trkpt lat="41.8406354161537" lon="13.785607304029934"><ele>1209.0</ele><time>2026-04-18T09:43:52Z</time></trkpt><trkpt lat="41.840838397822004" lon="13.785552977305233"><ele>1209.0</ele><time>2026-04-18T09:43:53Z</time></trkpt><trkpt lat="41.84105060430669" lon="13.785448893041242"><ele>1209.0</ele><time>2026-04-18T09:43:54Z</time></trkpt><trkpt lat="41.841267255930674" lon="13.785325623643734"><ele>1208.3333333333333</ele><time>2026-04-18T09:43:55Z</time></trkpt><trkpt lat="41.84147799523971" lon="13.785207898615521"><ele>1207.6666666666665</ele><time>2026-04-18T09:43:56Z</time></trkpt><trkpt lat="41.84167917752482" lon="13.785097009221"><ele>1207.0</ele><time>2026-04-18T09:43:57Z</time></trkpt><trkpt lat="41.84187621945561" lon="13.784993397856134"><ele>1209.0</ele><time>2026-04-18T09:43:58Z</time></trkpt><trkpt lat="41.84207089852387" lon="13.784891422238454"><ele>1211.0</ele><time>2026-04-18T09:43:59Z</time></trkpt><trkpt lat="41.84226457286319" lon="13.784787256653651"><ele>1213.0</ele><time>2026-04-18T09:44:00Z</time></trkpt><trkpt lat="41.84246357325061" lon="13.784682315657772"><ele>1214.3333333333333</ele><time>2026-04-18T09:44:01Z</time></trkpt><trkpt lat="41.84266672754856" lon="13.784572216387774"><ele>1215.6666666666667</ele><time>2026-04-18T09:44:02Z</time></trkpt><trkpt lat="41.84286840587386" lon="13.784454853990054"><ele>1217.0</ele><time>2026-04-18T09:44:03Z</time></trkpt><trkpt lat="41.843064418795095" lon="13.784315235097479"><ele>1217.0</ele><time>2026-04-18T09:44:04Z</time></trkpt><trkpt lat="41.843249366534195" lon="13.78413037685464"><ele>1217.0</ele><time>2026-04-18T09:44:05Z</time></trkpt><trkpt lat="41.843448862423145" lon="13.783900356091367"><ele>1217.5</ele><time>2026-04-18T09:44:06Z</time></trkpt><trkpt lat="41.843661261732635" lon="13.78365156186416"><ele>1218.0</ele><time>2026-04-18T09:44:07Z</time></trkpt><trkpt lat="41.843883092396155" lon="13.783411568808656"><ele>1218.0</ele><time>2026-04-18T09:44:08Z</time></trkpt><trkpt lat="41.84408691388849" lon="13.783190052865285"><ele>1218.0</ele><time>2026-04-18T09:44:09Z</time></trkpt><trkpt lat="41.84428993292238" lon="13.782970320467543"><ele>1217.5</ele><time>2026-04-18T09:44:10Z</time></trkpt><trkpt lat="41.844501983889444" lon="13.7827484927325"><ele>1217.0</ele><time>2026-04-18T09:44:11Z</time></trkpt><trkpt lat="41.84472192622667" lon="13.782531679417655"><ele>1217.0</ele><time>2026-04-18T09:44:12Z</time></trkpt><trkpt lat="41.84495423183121" lon="13.782331683222639"><ele>1217.0</ele><time>2026-04-18T09:44:12.999Z</time></trkpt><trkpt lat="41.845189755978986" lon="13.782130974841772"><ele>1217.5</ele><time>2026-04-18T09:44:13.999Z</time></trkpt><trkpt lat="41.84542044412598" lon="13.781928293364938"><ele>1218.0</ele><time>2026-04-18T09:44:14.999Z</time></trkpt><trkpt lat="41.845644001327635" lon="13.781739262732"><ele>1218.0</ele><time>2026-04-18T09:44:15.999Z</time></trkpt><trkpt lat="41.84585052339636" lon="13.781560498983259"><ele>1218.0</ele><time>2026-04-18T09:44:16.999Z</time></trkpt><trkpt lat="41.84605424971911" lon="13.78138293704169"><ele>1215.5</ele><time>2026-04-18T09:44:17.999Z</time></trkpt><trkpt lat="41.84626170237354" lon="13.78120533592043"><ele>1213.0</ele><time>2026-04-18T09:44:18.999Z</time></trkpt><trkpt lat="41.84645395352644" lon="13.78104016288922"><ele>1214.3333333333333</ele><time>2026-04-18T09:44:19.999Z</time></trkpt><trkpt lat="41.8466396660813" lon="13.78088651147944"><ele>1215.6666666666667</ele><time>2026-04-18T09:44:20.999Z</time></trkpt><trkpt lat="41.846836600983266" lon="13.780737253560789"><ele>1217.0</ele><time>2026-04-18T09:44:21.999Z</time></trkpt><trkpt lat="41.84704846992919" lon="13.780609413324516"><ele>1217.0</ele><time>2026-04-18T09:44:22.999Z</time></trkpt><trkpt lat="41.847271920631854" lon="13.780498033515375"><ele>1217.0</ele><time>2026-04-18T09:44:23.999Z</time></trkpt><trkpt lat="41.84749866774045" lon="13.780390725526722"><ele>1216.0</ele><time>2026-04-18T09:44:24.999Z</time></trkpt><trkpt lat="41.8477260340297" lon="13.780284666851745"><ele>1215.0</ele><time>2026-04-18T09:44:25.999Z</time></trkpt><trkpt lat="41.847942663896504" lon="13.780179012223648"><ele>1216.0</ele><time>2026-04-18T09:44:26.999Z</time></trkpt><trkpt lat="41.84815186901413" lon="13.780077506402385"><ele>1217.0</ele><time>2026-04-18T09:44:27.999Z</time></trkpt><trkpt lat="41.84836266161108" lon="13.77997493000736"><ele>1218.0</ele><time>2026-04-18T09:44:28.999Z</time></trkpt><trkpt lat="41.84856775799332" lon="13.779857923160478"><ele>1218.0</ele><time>2026-04-18T09:44:29.999Z</time></trkpt><trkpt lat="41.84876904539826" lon="13.779721046861413"><ele>1218.0</ele><time>2026-04-18T09:44:30.999Z</time></trkpt><trkpt lat="41.848963705092224" lon="13.779551032902578"><ele>1218.5</ele><time>2026-04-18T09:44:31.999Z</time></trkpt><trkpt lat="41.84914220750336" lon="13.779337469160202"><ele>1219.0</ele><time>2026-04-18T09:44:32.999Z</time></trkpt><trkpt lat="41.84931215403769" lon="13.779104987500473"><ele>1219.0</ele><time>2026-04-18T09:44:33.999Z</time></trkpt><trkpt lat="41.84946803243342" lon="13.778911173731812"><ele>1219.0</ele><time>2026-04-18T09:44:34.999Z</time></trkpt><trkpt lat="41.84962649478739" lon="13.778734402778083"><ele>1219.0</ele><time>2026-04-18T09:44:35.999Z</time></trkpt><trkpt lat="41.849804867437406" lon="13.77857919139838"><ele>1220.5</ele><time>2026-04-18T09:44:36.999Z</time></trkpt><trkpt lat="41.85001193756061" lon="13.778430491701197"><ele>1222.0</ele><time>2026-04-18T09:44:37.999Z</time></trkpt><trkpt lat="41.85024076407869" lon="13.77827645100896"><ele>1222.0</ele><time>2026-04-18T09:44:38.999Z</time></trkpt><trkpt lat="41.85047419437063" lon="13.778124131454557"><ele>1222.0</ele><time>2026-04-18T09:44:39.999Z</time></trkpt><trkpt lat="41.85071839390232" lon="13.777968298183326"><ele>1223.5</ele><time>2026-04-18T09:44:40.999Z</time></trkpt><trkpt lat="41.85096650271903" lon="13.77781108221244"><ele>1225.0</ele><time>2026-04-18T09:44:41.999Z</time></trkpt><trkpt lat="41.851216091756775" lon="13.777654654787154"><ele>1225.0</ele><time>2026-04-18T09:44:42.999Z</time></trkpt><trkpt lat="41.85145902281891" lon="13.777509296336476"><ele>1225.0</ele><time>2026-04-18T09:44:43.999Z</time></trkpt><trkpt lat="41.85169423606338" lon="13.777379746479843"><ele>1230.3333333333333</ele><time>2026-04-18T09:44:44.999Z</time></trkpt><trkpt lat="41.85190299150478" lon="13.777261929039819"><ele>1235.6666666666667</ele><time>2026-04-18T09:44:45.999Z</time></trkpt><trkpt lat="41.852049273760606" lon="13.777158454937062"><ele>1241.0</ele><time>2026-04-18T09:44:46.999Z</time></trkpt><trkpt lat="41.852180571997586" lon="13.777035293604417"><ele>1241.0</ele><time>2026-04-18T09:44:47.999Z</time></trkpt><trkpt lat="41.852290838689875" lon="13.776858789079318"><ele>1241.0</ele><time>2026-04-18T09:44:48.999Z</time></trkpt><trkpt lat="41.85237161538934" lon="13.776618991368329"><ele>1241.0</ele><time>2026-04-18T09:44:49.999Z</time></trkpt><trkpt lat="41.85245102690664" lon="13.776344610014158"><ele>1240.0</ele><time>2026-04-18T09:44:50.999Z</time></trkpt><trkpt lat="41.852526528988726" lon="13.776111926211518"><ele>1239.0</ele><time>2026-04-18T09:44:51.999Z</time></trkpt><trkpt lat="41.85261642576848" lon="13.77590728188963"><ele>1238.0</ele><time>2026-04-18T09:44:52.999Z</time></trkpt><trkpt lat="41.85276057903113" lon="13.77571256114264"><ele>1245.0</ele><time>2026-04-18T09:44:53.999Z</time></trkpt><trkpt lat="41.85293074734629" lon="13.775527046207586"><ele>1252.0</ele><time>2026-04-18T09:44:54.999Z</time></trkpt><trkpt lat="41.85312636533192" lon="13.775334428844712"><ele>1256.0</ele><time>2026-04-18T09:44:55.999Z</time></trkpt><trkpt lat="41.85332484373041" lon="13.77514848326621"><ele>1260.0</ele><time>2026-04-18T09:44:56.999Z</time></trkpt><trkpt lat="41.85352273638837" lon="13.774937601984439"><ele>1260.0</ele><time>2026-04-18T09:44:57.999Z</time></trkpt><trkpt lat="41.85369652050264" lon="13.774688706710375"><ele>1260.0</ele><time>2026-04-18T09:44:58.999Z</time></trkpt><trkpt lat="41.85385598872825" lon="13.774443997121232"><ele>1262.0</ele><time>2026-04-18T09:44:59.999Z</time></trkpt><trkpt lat="41.85400262463534" lon="13.77422263752029"><ele>1264.0</ele><time>2026-04-18T09:45:00.999Z</time></trkpt><trkpt lat="41.85416702731262" lon="13.774013495380999"><ele>1266.0</ele><time>2026-04-18T09:45:01.999Z</time></trkpt><trkpt lat="41.85437367417976" lon="13.773837871873818"><ele>1266.0</ele><time>2026-04-18T09:45:02.999Z</time></trkpt><trkpt lat="41.85459747447627" lon="13.773661779901348"><ele>1266.0</ele><time>2026-04-18T09:45:03.999Z</time></trkpt><trkpt lat="41.85482483946611" lon="13.773487628656028"><ele>1264.0</ele><time>2026-04-18T09:45:04.999Z</time></trkpt><trkpt lat="41.85504875789448" lon="13.773303495424013"><ele>1262.0</ele><time>2026-04-18T09:45:05.999Z</time></trkpt><trkpt lat="41.85525810385352" lon="13.773119248422137"><ele>1262.0</ele><time>2026-04-18T09:45:06.999Z</time></trkpt><trkpt lat="41.85543624229385" lon="13.77295546831115"><ele>1262.0</ele><time>2026-04-18T09:45:07.999Z</time></trkpt><trkpt lat="41.855582853105" lon="13.772816750354329"><ele>1262.0</ele><time>2026-04-18T09:45:08.999Z</time></trkpt><trkpt lat="41.85571217816413" lon="13.772713051060908"><ele>1259.0</ele><time>2026-04-18T09:45:09.999Z</time></trkpt><trkpt lat="41.855835131334516" lon="13.77263771134234"><ele>1256.0</ele><time>2026-04-18T09:45:10.999Z</time></trkpt><trkpt lat="41.85596908861307" lon="13.772626364643592"><ele>1253.0</ele><time>2026-04-18T09:45:11.999Z</time></trkpt><trkpt lat="41.856103021867504" lon="13.772684324194394"><ele>1250.0</ele><time>2026-04-18T09:45:12.999Z</time></trkpt><trkpt lat="41.85624253965732" lon="13.772746585214255"><ele>1250.0</ele><time>2026-04-18T09:45:13.999Z</time></trkpt><trkpt lat="41.85638416192935" lon="13.772738341060734"><ele>1250.0</ele><time>2026-04-18T09:45:14.999Z</time></trkpt><trkpt lat="41.85653639979018" lon="13.772671236791446"><ele>1250.0</ele><time>2026-04-18T09:45:15.999Z</time></trkpt><trkpt lat="41.85669682577861" lon="13.77253149986854"><ele>1255.0</ele><time>2026-04-18T09:45:17Z</time></trkpt><trkpt lat="41.85685890251834" lon="13.77234393748392"><ele>1260.0</ele><time>2026-04-18T09:45:18Z</time></trkpt><trkpt lat="41.85699849250697" lon="13.772151048471569"><ele>1265.0</ele><time>2026-04-18T09:45:19Z</time></trkpt><trkpt lat="41.85712651898454" lon="13.77197623868779"><ele>1259.3333333333335</ele><time>2026-04-18T09:45:20Z</time></trkpt><trkpt lat="41.85725320120452" lon="13.771840091835596"><ele>1253.6666666666667</ele><time>2026-04-18T09:45:21Z</time></trkpt><trkpt lat="41.857402468584525" lon="13.771725597888622"><ele>1248.0</ele><time>2026-04-18T09:45:22Z</time></trkpt><trkpt lat="41.857582345383626" lon="13.771652450132075"><ele>1249.0</ele><time>2026-04-18T09:45:23Z</time></trkpt><trkpt lat="41.857768983297895" lon="13.771608436389535"><ele>1250.0</ele><time>2026-04-18T09:45:24Z</time></trkpt><trkpt lat="41.85795894246923" lon="13.771626476419257"><ele>1251.0</ele><time>2026-04-18T09:45:25Z</time></trkpt><trkpt lat="41.85813923680196" lon="13.771697203932609"><ele>1251.0</ele><time>2026-04-18T09:45:26Z</time></trkpt><trkpt lat="41.85828508724221" lon="13.771796675778303"><ele>1251.0</ele><time>2026-04-18T09:45:27Z</time></trkpt><trkpt lat="41.85841132897939" lon="13.77187280519021"><ele>1251.0</ele><time>2026-04-18T09:45:28Z</time></trkpt><trkpt lat="41.85852941728101" lon="13.77190909406097"><ele>1251.0</ele><time>2026-04-18T09:45:29Z</time></trkpt><trkpt lat="41.85863944144228" lon="13.771897180304002"><ele>1253.3333333333333</ele><time>2026-04-18T09:45:30Z</time></trkpt><trkpt lat="41.85876048153732" lon="13.771821100023265"><ele>1255.6666666666665</ele><time>2026-04-18T09:45:31Z</time></trkpt><trkpt lat="41.858886712571746" lon="13.771666447220396"><ele>1258.0</ele><time>2026-04-18T09:45:32Z</time></trkpt><trkpt lat="41.85902531577829" lon="13.771446850348104"><ele>1258.0</ele><time>2026-04-18T09:45:33Z</time></trkpt><trkpt lat="41.85916619415984" lon="13.771212635796052"><ele>1258.0</ele><time>2026-04-18T09:45:34Z</time></trkpt><trkpt lat="41.85929768321989" lon="13.770981626526375"><ele>1258.0</ele><time>2026-04-18T09:45:35Z</time></trkpt><trkpt lat="41.859475479502805" lon="13.77076765244611"><ele>1264.0</ele><time>2026-04-18T09:45:36Z</time></trkpt><trkpt lat="41.859676183276974" lon="13.770589287785747"><ele>1270.0</ele><time>2026-04-18T09:45:37Z</time></trkpt><trkpt lat="41.859870543307" lon="13.770408660311412"><ele>1270.0</ele><time>2026-04-18T09:45:38Z</time></trkpt><trkpt lat="41.860008007544366" lon="13.770233287139888"><ele>1270.0</ele><time>2026-04-18T09:45:39Z</time></trkpt><trkpt lat="41.86010949190157" lon="13.770035620278088"><ele>1270.0</ele><time>2026-04-18T09:45:40Z</time></trkpt><trkpt lat="41.86017315725446" lon="13.769835868755914"><ele>1269.5</ele><time>2026-04-18T09:45:41Z</time></trkpt><trkpt lat="41.860215287053286" lon="13.769655915744176"><ele>1269.0</ele><time>2026-04-18T09:45:42Z</time></trkpt><trkpt lat="41.860273506072524" lon="13.7695159308409"><ele>1268.5</ele><time>2026-04-18T09:45:43Z</time></trkpt><trkpt lat="41.86036517477856" lon="13.769411109122633"><ele>1268.0</ele><time>2026-04-18T09:45:44Z</time></trkpt><trkpt lat="41.8604758262743" lon="13.76935292931578"><ele>1268.0</ele><time>2026-04-18T09:45:45Z</time></trkpt><trkpt lat="41.86062426165433" lon="13.76933991966821"><ele>1268.0</ele><time>2026-04-18T09:45:46Z</time></trkpt><trkpt lat="41.86078179174645" lon="13.76934758265014"><ele>1268.0</ele><time>2026-04-18T09:45:47Z</time></trkpt><trkpt lat="41.860948034798795" lon="13.769363727275465"><ele>1273.0</ele><time>2026-04-18T09:45:48Z</time></trkpt><trkpt lat="41.861080001157895" lon="13.769362761526772"><ele>1278.0</ele><time>2026-04-18T09:45:49Z</time></trkpt><trkpt lat="41.86120255741548" lon="13.769310362019116"><ele>1283.0</ele><time>2026-04-18T09:45:50Z</time></trkpt><trkpt lat="41.86133327281803" lon="13.769163260804293"><ele>1288.0</ele><time>2026-04-18T09:45:51Z</time></trkpt><trkpt lat="41.861469308802455" lon="13.768960582191836"><ele>1288.0</ele><time>2026-04-18T09:45:52Z</time></trkpt><trkpt lat="41.86160852876903" lon="13.768740268085187"><ele>1288.0</ele><time>2026-04-18T09:45:53Z</time></trkpt><trkpt lat="41.86173503237003" lon="13.768543068617264"><ele>1288.0</ele><time>2026-04-18T09:45:54Z</time></trkpt><trkpt lat="41.861816476695175" lon="13.768353165859974"><ele>1288.0</ele><time>2026-04-18T09:45:55Z</time></trkpt><trkpt lat="41.86187176495438" lon="13.768120314973167"><ele>1288.0</ele><time>2026-04-18T09:45:56Z</time></trkpt><trkpt lat="41.86192399584448" lon="13.767872963710847"><ele>1288.0</ele><time>2026-04-18T09:45:57Z</time></trkpt><trkpt lat="41.86197677255989" lon="13.767660119889467"><ele>1288.0</ele><time>2026-04-18T09:45:58Z</time></trkpt><trkpt lat="41.8620381845331" lon="13.767486005656878"><ele>1288.0</ele><time>2026-04-18T09:45:59Z</time></trkpt><trkpt lat="41.8621454186821" lon="13.767345932406108"><ele>1288.0</ele><time>2026-04-18T09:46:00Z</time></trkpt><trkpt lat="41.862299076609844" lon="13.767210388147914"><ele>1288.0</ele><time>2026-04-18T09:46:01Z</time></trkpt><trkpt lat="41.86245658718928" lon="13.7670699261689"><ele>1288.0</ele><time>2026-04-18T09:46:02Z</time></trkpt><trkpt lat="41.862567724049065" lon="13.766862240652758"><ele>1288.0</ele><time>2026-04-18T09:46:03Z</time></trkpt><trkpt lat="41.862665515054125" lon="13.766623718658826"><ele>1291.0</ele><time>2026-04-18T09:46:04Z</time></trkpt><trkpt lat="41.86277280310303" lon="13.766428445860335"><ele>1294.0</ele><time>2026-04-18T09:46:05Z</time></trkpt><trkpt lat="41.8629013365811" lon="13.766279304949139"><ele>1297.0</ele><time>2026-04-18T09:46:06Z</time></trkpt><trkpt lat="41.86308255265344" lon="13.766174027090727"><ele>1297.0</ele><time>2026-04-18T09:46:07Z</time></trkpt><trkpt lat="41.86325901842683" lon="13.766034981099143"><ele>1297.0</ele><time>2026-04-18T09:46:08Z</time></trkpt><trkpt lat="41.86339685002507" lon="13.765828043615802"><ele>1297.0</ele><time>2026-04-18T09:46:09Z</time></trkpt><trkpt lat="41.863530600954114" lon="13.76558707221674"><ele>1303.0</ele><time>2026-04-18T09:46:10Z</time></trkpt><trkpt lat="41.86365869562477" lon="13.765341826170243"><ele>1309.0</ele><time>2026-04-18T09:46:11Z</time></trkpt><trkpt lat="41.863746170816775" lon="13.765095175806307"><ele>1315.0</ele><time>2026-04-18T09:46:12Z</time></trkpt><trkpt lat="41.86382207912456" lon="13.764825224260754"><ele>1315.0</ele><time>2026-04-18T09:46:13Z</time></trkpt><trkpt lat="41.863890375754416" lon="13.764572183504685"><ele>1315.0</ele><time>2026-04-18T09:46:14Z</time></trkpt><trkpt lat="41.86394041728468" lon="13.764314043187497"><ele>1315.0</ele><time>2026-04-18T09:46:15Z</time></trkpt><trkpt lat="41.86394658705901" lon="13.76402335985736"><ele>1312.5</ele><time>2026-04-18T09:46:16Z</time></trkpt><trkpt lat="41.86391643719284" lon="13.76371197497137"><ele>1310.0</ele><time>2026-04-18T09:46:16.999Z</time></trkpt><trkpt lat="41.86388895996037" lon="13.76342467501871"><ele>1308.6666666666667</ele><time>2026-04-18T09:46:17.999Z</time></trkpt><trkpt lat="41.86387606767457" lon="13.763194315046661"><ele>1307.3333333333333</ele><time>2026-04-18T09:46:18.999Z</time></trkpt><trkpt lat="41.86388681456395" lon="13.762994453683834"><ele>1306.0</ele><time>2026-04-18T09:46:19.999Z</time></trkpt><trkpt lat="41.86393262465593" lon="13.762776033193589"><ele>1306.3333333333333</ele><time>2026-04-18T09:46:20.999Z</time></trkpt><trkpt lat="41.86402335098909" lon="13.762532765048457"><ele>1306.6666666666667</ele><time>2026-04-18T09:46:21.999Z</time></trkpt><trkpt lat="41.86411779672157" lon="13.762266259183797"><ele>1307.0</ele><time>2026-04-18T09:46:22.999Z</time></trkpt><trkpt lat="41.86420812583423" lon="13.761997968642948"><ele>1313.0</ele><time>2026-04-18T09:46:23.999Z</time></trkpt><trkpt lat="41.86428050023719" lon="13.761771196890368"><ele>1319.0</ele><time>2026-04-18T09:46:24.999Z</time></trkpt><trkpt lat="41.86433384494338" lon="13.761573909627668"><ele>1325.0</ele><time>2026-04-18T09:46:25.999Z</time></trkpt><trkpt lat="41.86434705583147" lon="13.761390890525508"><ele>1325.0</ele><time>2026-04-18T09:46:26.999Z</time></trkpt><trkpt lat="41.864325920167914" lon="13.761198243036509"><ele>1325.0</ele><time>2026-04-18T09:46:27.999Z</time></trkpt><trkpt lat="41.86429822126593" lon="13.761032313790652"><ele>1325.0</ele><time>2026-04-18T09:46:28.999Z</time></trkpt><trkpt lat="41.864316779229554" lon="13.760887807676124"><ele>1325.0</ele><time>2026-04-18T09:46:29.999Z</time></trkpt><trkpt lat="41.864376470887926" lon="13.76073433602294"><ele>1323.3333333333335</ele><time>2026-04-18T09:46:30.999Z</time></trkpt><trkpt lat="41.86450394316847" lon="13.760574170169319"><ele>1321.6666666666667</ele><time>2026-04-18T09:46:31.999Z</time></trkpt><trkpt lat="41.86459828584414" lon="13.760374254062457"><ele>1320.0</ele><time>2026-04-18T09:46:32.999Z</time></trkpt><trkpt lat="41.86463132862042" lon="13.760188807667799"><ele>1319.5</ele><time>2026-04-18T09:46:33.999Z</time></trkpt><trkpt lat="41.864626559791304" lon="13.760015740839963"><ele>1319.0</ele><time>2026-04-18T09:46:34.999Z</time></trkpt><trkpt lat="41.864633373966726" lon="13.759867114024278"><ele>1318.5</ele><time>2026-04-18T09:46:35.999Z</time></trkpt><trkpt lat="41.86468652313493" lon="13.759739870872565"><ele>1318.0</ele><time>2026-04-18T09:46:36.999Z</time></trkpt><trkpt lat="41.86479108382615" lon="13.759636087043429"><ele>1318.0</ele><time>2026-04-18T09:46:37.999Z</time></trkpt><trkpt lat="41.86492965171767" lon="13.759553551076769"><ele>1318.0</ele><time>2026-04-18T09:46:38.999Z</time></trkpt><trkpt lat="41.86506487176923" lon="13.75944327321558"><ele>1318.0</ele><time>2026-04-18T09:46:39.999Z</time></trkpt><trkpt lat="41.86516450645145" lon="13.759241960972808"><ele>1324.6666666666665</ele><time>2026-04-18T09:46:40.999Z</time></trkpt><trkpt lat="41.86522799368835" lon="13.759016265991516"><ele>1331.3333333333333</ele><time>2026-04-18T09:46:41.999Z</time></trkpt><trkpt lat="41.865241358586296" lon="13.758782838703123"><ele>1338.0</ele><time>2026-04-18T09:46:42.999Z</time></trkpt><trkpt lat="41.8652161788467" lon="13.758559217866058"><ele>1337.5</ele><time>2026-04-18T09:46:43.999Z</time></trkpt><trkpt lat="41.86515782676243" lon="13.758362958600305"><ele>1337.0</ele><time>2026-04-18T09:46:44.999Z</time></trkpt><trkpt lat="41.86510249178381" lon="13.758189554938998"><ele>1336.5</ele><time>2026-04-18T09:46:45.999Z</time></trkpt><trkpt lat="41.865071639140105" lon="13.75801420007695"><ele>1336.0</ele><time>2026-04-18T09:46:46.999Z</time></trkpt><trkpt lat="41.8650737998649" lon="13.75785525584538"><ele>1334.3333333333333</ele><time>2026-04-18T09:46:47.999Z</time></trkpt><trkpt lat="41.865122636386" lon="13.757686398192586"><ele>1332.6666666666667</ele><time>2026-04-18T09:46:48.999Z</time></trkpt><trkpt lat="41.86521343371819" lon="13.757485116739009"><ele>1331.0</ele><time>2026-04-18T09:46:49.999Z</time></trkpt><trkpt lat="41.86533850093854" lon="13.75726171117164"><ele>1331.0</ele><time>2026-04-18T09:46:50.999Z</time></trkpt><trkpt lat="41.865478775447734" lon="13.757056991655544"><ele>1331.0</ele><time>2026-04-18T09:46:51.999Z</time></trkpt><trkpt lat="41.86562329121028" lon="13.756849023509698"><ele>1331.0</ele><time>2026-04-18T09:46:52.999Z</time></trkpt><trkpt lat="41.86574566050099" lon="13.756582610905634"><ele>1330.0</ele><time>2026-04-18T09:46:53.999Z</time></trkpt><trkpt lat="41.8658601205396" lon="13.756251904597818"><ele>1329.0</ele><time>2026-04-18T09:46:54.999Z</time></trkpt><trkpt lat="41.86598053678879" lon="13.755944500297785"><ele>1334.6666666666667</ele><time>2026-04-18T09:46:55.999Z</time></trkpt><trkpt lat="41.86608420130581" lon="13.755688309225986"><ele>1340.3333333333335</ele><time>2026-04-18T09:46:56.999Z</time></trkpt><trkpt lat="41.86618798975324" lon="13.755471286139292"><ele>1346.0</ele><time>2026-04-18T09:46:57.999Z</time></trkpt><trkpt lat="41.86631879892175" lon="13.755289580371556"><ele>1344.0</ele><time>2026-04-18T09:46:58.999Z</time></trkpt><trkpt lat="41.86648806187456" lon="13.75511403301053"><ele>1342.0</ele><time>2026-04-18T09:46:59.999Z</time></trkpt><trkpt lat="41.866674280318286" lon="13.754938389173622"><ele>1340.0</ele><time>2026-04-18T09:47:00.999Z</time></trkpt><trkpt lat="41.86685474907561" lon="13.754721449285908"><ele>1346.5</ele><time>2026-04-18T09:47:01.999Z</time></trkpt><trkpt lat="41.86699117424135" lon="13.754468988474313"><ele>1353.0</ele><time>2026-04-18T09:47:02.999Z</time></trkpt><trkpt lat="41.86710028045892" lon="13.75417688261545"><ele>1353.0</ele><time>2026-04-18T09:47:03.999Z</time></trkpt><trkpt lat="41.867200412001424" lon="13.75391238069898"><ele>1353.0</ele><time>2026-04-18T09:47:04.999Z</time></trkpt><trkpt lat="41.867314864837425" lon="13.753685317621711"><ele>1353.0</ele><time>2026-04-18T09:47:05.999Z</time></trkpt><trkpt lat="41.8674928564258" lon="13.753481835256004"><ele>1356.0</ele><time>2026-04-18T09:47:06.999Z</time></trkpt><trkpt lat="41.867703705121514" lon="13.75326349741015"><ele>1359.0</ele><time>2026-04-18T09:47:07.999Z</time></trkpt><trkpt lat="41.867898843348065" lon="13.753023326935342"><ele>1359.0</ele><time>2026-04-18T09:47:08.999Z</time></trkpt><trkpt lat="41.86810282301256" lon="13.75277143827013"><ele>1359.0</ele><time>2026-04-18T09:47:09.999Z</time></trkpt><trkpt lat="41.86831205526803" lon="13.752515494209455"><ele>1362.0</ele><time>2026-04-18T09:47:10.999Z</time></trkpt><trkpt lat="41.868518359292445" lon="13.752271489477351"><ele>1365.0</ele><time>2026-04-18T09:47:11.999Z</time></trkpt><trkpt lat="41.86868887035497" lon="13.75207855390118"><ele>1365.0</ele><time>2026-04-18T09:47:12.999Z</time></trkpt><trkpt lat="41.86885275629499" lon="13.75190286054316"><ele>1365.0</ele><time>2026-04-18T09:47:13.999Z</time></trkpt><trkpt lat="41.869045135018034" lon="13.75174094976465"><ele>1365.0</ele><time>2026-04-18T09:47:14.999Z</time></trkpt><trkpt lat="41.86924688866779" lon="13.751592402794294"><ele>1365.5</ele><time>2026-04-18T09:47:15.999Z</time></trkpt><trkpt lat="41.86946222277365" lon="13.75143883709626"><ele>1366.0</ele><time>2026-04-18T09:47:16.999Z</time></trkpt><trkpt lat="41.86967843214303" lon="13.751277226908016"><ele>1366.0</ele><time>2026-04-18T09:47:17.999Z</time></trkpt><trkpt lat="41.86990090591342" lon="13.751111615400138"><ele>1366.0</ele><time>2026-04-18T09:47:18.999Z</time></trkpt><trkpt lat="41.87012907804919" lon="13.750944777398875"><ele>1369.5</ele><time>2026-04-18T09:47:19.999Z</time></trkpt><trkpt lat="41.87036044030785" lon="13.750779266166438"><ele>1373.0</ele><time>2026-04-18T09:47:20.999Z</time></trkpt><trkpt lat="41.87058979173914" lon="13.750608778319586"><ele>1373.0</ele><time>2026-04-18T09:47:21.999Z</time></trkpt><trkpt lat="41.870816176730436" lon="13.75044257964789"><ele>1373.0</ele><time>2026-04-18T09:47:23Z</time></trkpt><trkpt lat="41.87101585151803" lon="13.7503006871811"><ele>1374.6666666666667</ele><time>2026-04-18T09:47:24Z</time></trkpt><trkpt lat="41.87119245867381" lon="13.75017416344659"><ele>1376.3333333333333</ele><time>2026-04-18T09:47:25Z</time></trkpt><trkpt lat="41.87134617172337" lon="13.750056935422812"><ele>1378.0</ele><time>2026-04-18T09:47:26Z</time></trkpt><trkpt lat="41.87148726863962" lon="13.749909508015152"><ele>1378.0</ele><time>2026-04-18T09:47:27Z</time></trkpt><trkpt lat="41.871605248530834" lon="13.749715405702872"><ele>1378.0</ele><time>2026-04-18T09:47:28Z</time></trkpt><trkpt lat="41.871697769741075" lon="13.749478142379626"><ele>1378.0</ele><time>2026-04-18T09:47:29Z</time></trkpt><trkpt lat="41.87177634213606" lon="13.749236220463912"><ele>1381.6666666666665</ele><time>2026-04-18T09:47:30Z</time></trkpt><trkpt lat="41.87184487870518" lon="13.749039584892111"><ele>1385.3333333333333</ele><time>2026-04-18T09:47:31Z</time></trkpt><trkpt lat="41.87192491099598" lon="13.748872247036966"><ele>1389.0</ele><time>2026-04-18T09:47:32Z</time></trkpt><trkpt lat="41.87204012655857" lon="13.748718687034629"><ele>1389.0</ele><time>2026-04-18T09:47:33Z</time></trkpt><trkpt lat="41.87217939895306" lon="13.74858214412537"><ele>1389.0</ele><time>2026-04-18T09:47:34Z</time></trkpt><trkpt lat="41.87229519494742" lon="13.748454974923304"><ele>1389.0</ele><time>2026-04-18T09:47:35Z</time></trkpt><trkpt lat="41.872378588356014" lon="13.74827841649642"><ele>1387.5</ele><time>2026-04-18T09:47:36Z</time></trkpt><trkpt lat="41.87244361492811" lon="13.748078001849171"><ele>1386.0</ele><time>2026-04-18T09:47:37Z</time></trkpt><trkpt lat="41.872492546277556" lon="13.747921506179683"><ele>1384.5</ele><time>2026-04-18T09:47:38Z</time></trkpt><trkpt lat="41.87256527032127" lon="13.747794211554385"><ele>1383.0</ele><time>2026-04-18T09:47:39Z</time></trkpt><trkpt lat="41.87267951903181" lon="13.74769128753401"><ele>1383.0</ele><time>2026-04-18T09:47:40Z</time></trkpt><trkpt lat="41.87283138465816" lon="13.74761931397431"><ele>1383.0</ele><time>2026-04-18T09:47:41Z</time></trkpt><trkpt lat="41.873020055998964" lon="13.747568761209685"><ele>1383.0</ele><time>2026-04-18T09:47:42Z</time></trkpt><trkpt lat="41.873218670522384" lon="13.747505973991135"><ele>1383.0</ele><time>2026-04-18T09:47:43Z</time></trkpt><trkpt lat="41.87342414333407" lon="13.747424624108408"><ele>1383.0</ele><time>2026-04-18T09:47:44Z</time></trkpt><trkpt lat="41.87363436918977" lon="13.747318694171295"><ele>1383.0</ele><time>2026-04-18T09:47:45Z</time></trkpt><trkpt lat="41.873860590354624" lon="13.747195602243599"><ele>1386.5</ele><time>2026-04-18T09:47:46Z</time></trkpt><trkpt lat="41.874104348196695" lon="13.747066736191655"><ele>1390.0</ele><time>2026-04-18T09:47:47Z</time></trkpt><trkpt lat="41.87434531893029" lon="13.746940278525319"><ele>1392.0</ele><time>2026-04-18T09:47:48Z</time></trkpt><trkpt lat="41.874586997735264" lon="13.746811534052878"><ele>1394.0</ele><time>2026-04-18T09:47:49Z</time></trkpt><trkpt lat="41.874828921937635" lon="13.746682792782861"><ele>1394.0</ele><time>2026-04-18T09:47:50Z</time></trkpt><trkpt lat="41.87506792931958" lon="13.746554778957186"><ele>1394.0</ele><time>2026-04-18T09:47:51Z</time></trkpt><trkpt lat="41.87530119586566" lon="13.74642819858439"><ele>1397.6666666666667</ele><time>2026-04-18T09:47:52Z</time></trkpt><trkpt lat="41.875514100110586" lon="13.746317013211224"><ele>1401.3333333333333</ele><time>2026-04-18T09:47:53Z</time></trkpt><trkpt lat="41.875699593109566" lon="13.746225635228004"><ele>1405.0</ele><time>2026-04-18T09:47:54Z</time></trkpt><trkpt lat="41.87587449504157" lon="13.746159901822995"><ele>1406.0</ele><time>2026-04-18T09:47:55Z</time></trkpt><trkpt lat="41.876047962306" lon="13.746128924544092"><ele>1407.0</ele><time>2026-04-18T09:47:56Z</time></trkpt><trkpt lat="41.87623990409434" lon="13.746123975914085"><ele>1408.0</ele><time>2026-04-18T09:47:57Z</time></trkpt><trkpt lat="41.876410541129054" lon="13.74613073709766"><ele>1408.0</ele><time>2026-04-18T09:47:58Z</time></trkpt><trkpt lat="41.876556222283554" lon="13.74615650048323"><ele>1408.0</ele><time>2026-04-18T09:47:59Z</time></trkpt><trkpt lat="41.87669038434915" lon="13.746219222513249"><ele>1408.0</ele><time>2026-04-18T09:48:00Z</time></trkpt><trkpt lat="41.87683893594034" lon="13.746333779330774"><ele>1404.6666666666665</ele><time>2026-04-18T09:48:01Z</time></trkpt><trkpt lat="41.87700245059328" lon="13.746480872418706"><ele>1401.3333333333333</ele><time>2026-04-18T09:48:02Z</time></trkpt><trkpt lat="41.87718257254148" lon="13.746615865792553"><ele>1398.0</ele><time>2026-04-18T09:48:03Z</time></trkpt><trkpt lat="41.87737376013505" lon="13.74674606727843"><ele>1398.0</ele><time>2026-04-18T09:48:04Z</time></trkpt><trkpt lat="41.877546670235766" lon="13.746854552939729"><ele>1398.0</ele><time>2026-04-18T09:48:05Z</time></trkpt><trkpt lat="41.877692005828855" lon="13.746946843881139"><ele>1398.0</ele><time>2026-04-18T09:48:06Z</time></trkpt><trkpt lat="41.87781950059938" lon="13.747014398616473"><ele>1397.0</ele><time>2026-04-18T09:48:07Z</time></trkpt><trkpt lat="41.877951674193326" lon="13.747043705433668"><ele>1396.0</ele><time>2026-04-18T09:48:08Z</time></trkpt><trkpt lat="41.87809355685361" lon="13.747015194630233"><ele>1395.0</ele><time>2026-04-18T09:48:09Z</time></trkpt><trkpt lat="41.878246484347734" lon="13.746924528133084"><ele>1394.0</ele><time>2026-04-18T09:48:10Z</time></trkpt><trkpt lat="41.87841384753787" lon="13.746828830766761"><ele>1394.6666666666667</ele><time>2026-04-18T09:48:11Z</time></trkpt><trkpt lat="41.878591365871884" lon="13.74678884952204"><ele>1395.3333333333333</ele><time>2026-04-18T09:48:12Z</time></trkpt><trkpt lat="41.87876834712794" lon="13.746784134863205"><ele>1396.0</ele><time>2026-04-18T09:48:13Z</time></trkpt><trkpt lat="41.878946442768296" lon="13.746755685296323"><ele>1396.0</ele><time>2026-04-18T09:48:14Z</time></trkpt><trkpt lat="41.879128341225986" lon="13.74666911168686"><ele>1396.0</ele><time>2026-04-18T09:48:15Z</time></trkpt><trkpt lat="41.87930471454975" lon="13.746524813121363"><ele>1396.0</ele><time>2026-04-18T09:48:16Z</time></trkpt><trkpt lat="41.87947314068825" lon="13.746373088893803"><ele>1398.0</ele><time>2026-04-18T09:48:17Z</time></trkpt><trkpt lat="41.87962481360386" lon="13.746242543703726"><ele>1400.0</ele><time>2026-04-18T09:48:18Z</time></trkpt><trkpt lat="41.87976097563524" lon="13.746129850696468"><ele>1402.0</ele><time>2026-04-18T09:48:19Z</time></trkpt><trkpt lat="41.87989456481112" lon="13.746041352106086"><ele>1403.0</ele><time>2026-04-18T09:48:20Z</time></trkpt><trkpt lat="41.88004749354762" lon="13.746007428289927"><ele>1404.0</ele><time>2026-04-18T09:48:21Z</time></trkpt><trkpt lat="41.88022920665713" lon="13.74602268636258"><ele>1405.0</ele><time>2026-04-18T09:48:22Z</time></trkpt><trkpt lat="41.88042211656125" lon="13.74604734343135"><ele>1400.0</ele><time>2026-04-18T09:48:22.999Z</time></trkpt><trkpt lat="41.880619476469555" lon="13.746024742107045"><ele>1395.0</ele><time>2026-04-18T09:48:23.999Z</time></trkpt><trkpt lat="41.880819196911915" lon="13.745934624613145"><ele>1390.0</ele><time>2026-04-18T09:48:24.999Z</time></trkpt><trkpt lat="41.881031249141664" lon="13.745837884559373"><ele>1390.0</ele><time>2026-04-18T09:48:25.999Z</time></trkpt><trkpt lat="41.881250515770496" lon="13.745746732735833"><ele>1390.0</ele><time>2026-04-18T09:48:26.999Z</time></trkpt><trkpt lat="41.881462227369035" lon="13.745666748545597"><ele>1390.0</ele><time>2026-04-18T09:48:27.999Z</time></trkpt><trkpt lat="41.881655328811185" lon="13.745629313552447"><ele>1391.6666666666665</ele><time>2026-04-18T09:48:28.999Z</time></trkpt><trkpt lat="41.88181609859765" lon="13.745643053396678"><ele>1393.3333333333333</ele><time>2026-04-18T09:48:29.999Z</time></trkpt><trkpt lat="41.88195080870393" lon="13.7456215730299"><ele>1395.0</ele><time>2026-04-18T09:48:30.999Z</time></trkpt><trkpt lat="41.88209977592856" lon="13.745548151740378"><ele>1395.0</ele><time>2026-04-18T09:48:31.999Z</time></trkpt><trkpt lat="41.88224085657365" lon="13.745406480505244"><ele>1395.0</ele><time>2026-04-18T09:48:32.999Z</time></trkpt><trkpt lat="41.88236716924187" lon="13.745219209694211"><ele>1395.0</ele><time>2026-04-18T09:48:33.999Z</time></trkpt><trkpt lat="41.882488881114924" lon="13.745050902653663"><ele>1391.3333333333333</ele><time>2026-04-18T09:48:34.999Z</time></trkpt><trkpt lat="41.882624100723405" lon="13.74493682605215"><ele>1387.6666666666665</ele><time>2026-04-18T09:48:35.999Z</time></trkpt><trkpt lat="41.88280315947309" lon="13.744894262069476"><ele>1384.0</ele><time>2026-04-18T09:48:36.999Z</time></trkpt><trkpt lat="41.88299794139351" lon="13.744877443412774"><ele>1384.0</ele><time>2026-04-18T09:48:37.999Z</time></trkpt><trkpt lat="41.883222909189634" lon="13.744899381991145"><ele>1384.0</ele><time>2026-04-18T09:48:38.999Z</time></trkpt><trkpt lat="41.88343602205759" lon="13.744905746871437"><ele>1384.0</ele><time>2026-04-18T09:48:39.999Z</time></trkpt><trkpt lat="41.88361396124864" lon="13.74488467307379"><ele>1387.0</ele><time>2026-04-18T09:48:40.999Z</time></trkpt><trkpt lat="41.88378940380702" lon="13.744829278079118"><ele>1390.0</ele><time>2026-04-18T09:48:41.999Z</time></trkpt><trkpt lat="41.883960814816646" lon="13.744706972404872"><ele>1393.0</ele><time>2026-04-18T09:48:42.999Z</time></trkpt><trkpt lat="41.884117157109635" lon="13.74452531596569"><ele>1394.6666666666665</ele><time>2026-04-18T09:48:43.999Z</time></trkpt><trkpt lat="41.88425885438443" lon="13.744307950739573"><ele>1396.3333333333333</ele><time>2026-04-18T09:48:44.999Z</time></trkpt><trkpt lat="41.884402033918974" lon="13.744066083412884"><ele>1398.0</ele><time>2026-04-18T09:48:45.999Z</time></trkpt><trkpt lat="41.88456550055487" lon="13.743821983770262"><ele>1398.0</ele><time>2026-04-18T09:48:46.999Z</time></trkpt><trkpt lat="41.88477046698342" lon="13.743608720378221"><ele>1398.0</ele><time>2026-04-18T09:48:47.999Z</time></trkpt><trkpt lat="41.884987994358255" lon="13.743424756907572"><ele>1394.5</ele><time>2026-04-18T09:48:48.999Z</time></trkpt><trkpt lat="41.88518611791657" lon="13.743235537573554"><ele>1391.0</ele><time>2026-04-18T09:48:49.999Z</time></trkpt><trkpt lat="41.88538686015184" lon="13.743052363323411"><ele>1391.0</ele><time>2026-04-18T09:48:50.999Z</time></trkpt><trkpt lat="41.88560125096666" lon="13.742898188397588"><ele>1391.0</ele><time>2026-04-18T09:48:51.999Z</time></trkpt><trkpt lat="41.885848119730774" lon="13.74276741013886"><ele>1387.5</ele><time>2026-04-18T09:48:52.999Z</time></trkpt><trkpt lat="41.88611045593433" lon="13.742640838480897"><ele>1384.0</ele><time>2026-04-18T09:48:53.999Z</time></trkpt><trkpt lat="41.88634223637446" lon="13.742525465798986"><ele>1384.0</ele><time>2026-04-18T09:48:54.999Z</time></trkpt><trkpt lat="41.88653353123544" lon="13.742423177039807"><ele>1384.0</ele><time>2026-04-18T09:48:55.999Z</time></trkpt><trkpt lat="41.88672733468539" lon="13.74227088569984"><ele>1384.0</ele><time>2026-04-18T09:48:56.999Z</time></trkpt><trkpt lat="41.88691173876829" lon="13.74205335285684"><ele>1386.0</ele><time>2026-04-18T09:48:57.999Z</time></trkpt><trkpt lat="41.887089587124805" lon="13.741803273605953"><ele>1388.0</ele><time>2026-04-18T09:48:58.999Z</time></trkpt><trkpt lat="41.887271765497296" lon="13.741540011396037"><ele>1388.0</ele><time>2026-04-18T09:48:59.999Z</time></trkpt><trkpt lat="41.88743483430792" lon="13.741281812950998"><ele>1388.0</ele><time>2026-04-18T09:49:00.999Z</time></trkpt><trkpt lat="41.88757876783242" lon="13.741014538478543"><ele>1392.3333333333335</ele><time>2026-04-18T09:49:01.999Z</time></trkpt><trkpt lat="41.887700652381554" lon="13.740749905527835"><ele>1396.6666666666667</ele><time>2026-04-18T09:49:02.999Z</time></trkpt><trkpt lat="41.88782071052829" lon="13.74051422328167"><ele>1401.0</ele><time>2026-04-18T09:49:03.999Z</time></trkpt><trkpt lat="41.887949472123005" lon="13.740322327425659"><ele>1400.0</ele><time>2026-04-18T09:49:04.999Z</time></trkpt><trkpt lat="41.88808701804303" lon="13.740141536955644"><ele>1399.0</ele><time>2026-04-18T09:49:05.999Z</time></trkpt><trkpt lat="41.88825356194264" lon="13.739968403405255"><ele>1398.0</ele><time>2026-04-18T09:49:06.999Z</time></trkpt><trkpt lat="41.88843843995176" lon="13.73980025358617"><ele>1398.0</ele><time>2026-04-18T09:49:07.999Z</time></trkpt><trkpt lat="41.88862279420484" lon="13.739638082530513"><ele>1398.0</ele><time>2026-04-18T09:49:08.999Z</time></trkpt><trkpt lat="41.8887712536489" lon="13.739488982177315"><ele>1398.0</ele><time>2026-04-18T09:49:09.999Z</time></trkpt><trkpt lat="41.8888836115303" lon="13.739362519567894"><ele>1393.25</ele><time>2026-04-18T09:49:10.999Z</time></trkpt><trkpt lat="41.888989519531286" lon="13.739258323815656"><ele>1388.5</ele><time>2026-04-18T09:49:11.999Z</time></trkpt><trkpt lat="41.88910998143363" lon="13.73920092179679"><ele>1383.75</ele><time>2026-04-18T09:49:12.999Z</time></trkpt><trkpt lat="41.88927304319429" lon="13.739190034242373"><ele>1379.0</ele><time>2026-04-18T09:49:13.999Z</time></trkpt><trkpt lat="41.88946159989323" lon="13.739179837291408"><ele>1379.0</ele><time>2026-04-18T09:49:14.999Z</time></trkpt><trkpt lat="41.88966193997681" lon="13.7391259013679"><ele>1379.0</ele><time>2026-04-18T09:49:15.999Z</time></trkpt><trkpt lat="41.88986450166028" lon="13.739053815708644"><ele>1379.0</ele><time>2026-04-18T09:49:16.999Z</time></trkpt><trkpt lat="41.89007116235432" lon="13.73898797566911"><ele>1382.0</ele><time>2026-04-18T09:49:17.999Z</time></trkpt><trkpt lat="41.89028764662707" lon="13.738945367886696"><ele>1385.0</ele><time>2026-04-18T09:49:18.999Z</time></trkpt><trkpt lat="41.89050543773887" lon="13.73891421046901"><ele>1388.0</ele><time>2026-04-18T09:49:19.999Z</time></trkpt><trkpt lat="41.89071127803937" lon="13.73889273327161"><ele>1388.0</ele><time>2026-04-18T09:49:20.999Z</time></trkpt><trkpt lat="41.8909015616229" lon="13.738884378886942"><ele>1388.0</ele><time>2026-04-18T09:49:21.999Z</time></trkpt><trkpt lat="41.89108192187431" lon="13.738847880942103"><ele>1388.0</ele><time>2026-04-18T09:49:22.999Z</time></trkpt><trkpt lat="41.89127667133026" lon="13.738753366301777"><ele>1390.0</ele><time>2026-04-18T09:49:23.999Z</time></trkpt><trkpt lat="41.89147044959651" lon="13.738641674325423"><ele>1392.0</ele><time>2026-04-18T09:49:24.999Z</time></trkpt><trkpt lat="41.89163475921527" lon="13.738521396346407"><ele>1394.0</ele><time>2026-04-18T09:49:25.999Z</time></trkpt><trkpt lat="41.891778238414446" lon="13.738341790875236"><ele>1394.0</ele><time>2026-04-18T09:49:26.999Z</time></trkpt><trkpt lat="41.891904528882066" lon="13.738139430494103"><ele>1394.0</ele><time>2026-04-18T09:49:27.999Z</time></trkpt><trkpt lat="41.892042424244764" lon="13.737958121660222"><ele>1394.0</ele><time>2026-04-18T09:49:29Z</time></trkpt><trkpt lat="41.8922189759608" lon="13.737815416451454"><ele>1392.0</ele><time>2026-04-18T09:49:30Z</time></trkpt><trkpt lat="41.89240880832511" lon="13.737675992090464"><ele>1390.0</ele><time>2026-04-18T09:49:31Z</time></trkpt><trkpt lat="41.89258438992456" lon="13.737549357732284"><ele>1388.0</ele><time>2026-04-18T09:49:32Z</time></trkpt><trkpt lat="41.892745021387576" lon="13.737432223867275"><ele>1388.0</ele><time>2026-04-18T09:49:33Z</time></trkpt><trkpt lat="41.892924949132095" lon="13.73734864261894"><ele>1388.0</ele><time>2026-04-18T09:49:34Z</time></trkpt><trkpt lat="41.893128868278055" lon="13.737292346175332"><ele>1388.0</ele><time>2026-04-18T09:49:35Z</time></trkpt><trkpt lat="41.89334032738342" lon="13.737234426433666"><ele>1394.6666666666667</ele><time>2026-04-18T09:49:36Z</time></trkpt><trkpt lat="41.89353597433761" lon="13.737122856707794"><ele>1401.3333333333333</ele><time>2026-04-18T09:49:37Z</time></trkpt><trkpt lat="41.89370423574397" lon="13.737003361209196"><ele>1408.0</ele><time>2026-04-18T09:49:38Z</time></trkpt><trkpt lat="41.89387337521045" lon="13.736925607118117"><ele>1402.6666666666665</ele><time>2026-04-18T09:49:39Z</time></trkpt><trkpt lat="41.89406737596298" lon="13.736881494493495"><ele>1397.3333333333333</ele><time>2026-04-18T09:49:40Z</time></trkpt><trkpt lat="41.89424263530733" lon="13.736839066138177"><ele>1392.0</ele><time>2026-04-18T09:49:41Z</time></trkpt><trkpt lat="41.89442624478976" lon="13.736775295566483"><ele>1392.0</ele><time>2026-04-18T09:49:42Z</time></trkpt><trkpt lat="41.894609690842195" lon="13.73665993858994"><ele>1392.0</ele><time>2026-04-18T09:49:43Z</time></trkpt><trkpt lat="41.894791850502386" lon="13.73651279463554"><ele>1392.0</ele><time>2026-04-18T09:49:44Z</time></trkpt><trkpt lat="41.89497038927878" lon="13.736373417736479"><ele>1397.6666666666667</ele><time>2026-04-18T09:49:45Z</time></trkpt><trkpt lat="41.89512338992046" lon="13.736260197149656"><ele>1403.3333333333335</ele><time>2026-04-18T09:49:46Z</time></trkpt><trkpt lat="41.895257139927324" lon="13.73617000105059"><ele>1409.0</ele><time>2026-04-18T09:49:47Z</time></trkpt><trkpt lat="41.89540652874851" lon="13.736105085176305"><ele>1409.0</ele><time>2026-04-18T09:49:48Z</time></trkpt><trkpt lat="41.89559232557595" lon="13.736076286836141"><ele>1409.0</ele><time>2026-04-18T09:49:49Z</time></trkpt><trkpt lat="41.895792951156196" lon="13.73605437489919"><ele>1409.0</ele><time>2026-04-18T09:49:50Z</time></trkpt><trkpt lat="41.89599514803895" lon="13.73603440835761"><ele>1400.3333333333335</ele><time>2026-04-18T09:49:51Z</time></trkpt><trkpt lat="41.89620423245273" lon="13.73601245057297"><ele>1391.6666666666667</ele><time>2026-04-18T09:49:52Z</time></trkpt><trkpt lat="41.89641440725465" lon="13.735982382129801"><ele>1383.0</ele><time>2026-04-18T09:49:53Z</time></trkpt><trkpt lat="41.89662887090284" lon="13.73593663702581"><ele>1387.3333333333333</ele><time>2026-04-18T09:49:54Z</time></trkpt><trkpt lat="41.89684359117917" lon="13.735878908330815"><ele>1391.6666666666665</ele><time>2026-04-18T09:49:55Z</time></trkpt><trkpt lat="41.8970549075337" lon="13.735813624738087"><ele>1396.0</ele><time>2026-04-18T09:49:56Z</time></trkpt><trkpt lat="41.89725949717407" lon="13.735736050082751"><ele>1396.0</ele><time>2026-04-18T09:49:57Z</time></trkpt><trkpt lat="41.8974395835195" lon="13.735634446062184"><ele>1396.0</ele><time>2026-04-18T09:49:58Z</time></trkpt><trkpt lat="41.897606528620045" lon="13.735547126927377"><ele>1396.0</ele><time>2026-04-18T09:49:59Z</time></trkpt><trkpt lat="41.89777372386123" lon="13.735492223972091"><ele>1399.75</ele><time>2026-04-18T09:50:00Z</time></trkpt><trkpt lat="41.897928737913375" lon="13.735480569617035"><ele>1403.5</ele><time>2026-04-18T09:50:01Z</time></trkpt><trkpt lat="41.89806237929115" lon="13.735471703346102"><ele>1407.25</ele><time>2026-04-18T09:50:02Z</time></trkpt><trkpt lat="41.898179994945956" lon="13.735420368751917"><ele>1411.0</ele><time>2026-04-18T09:50:03Z</time></trkpt><trkpt lat="41.89828762215357" lon="13.735322126412523"><ele>1407.0</ele><time>2026-04-18T09:50:04Z</time></trkpt><trkpt lat="41.89838121714915" lon="13.735179355385887"><ele>1403.0</ele><time>2026-04-18T09:50:05Z</time></trkpt><trkpt lat="41.898473808187745" lon="13.735024569679267"><ele>1399.0</ele><time>2026-04-18T09:50:06Z</time></trkpt><trkpt lat="41.89858636719258" lon="13.734892962023627"><ele>1395.0</ele><time>2026-04-18T09:50:07Z</time></trkpt><trkpt lat="41.898720516402484" lon="13.734783799756508"><ele>1395.0</ele><time>2026-04-18T09:50:08Z</time></trkpt><trkpt lat="41.8988698023683" lon="13.734685044049348"><ele>1395.0</ele><time>2026-04-18T09:50:09Z</time></trkpt><trkpt lat="41.899026708366506" lon="13.734589703527098"><ele>1395.0</ele><time>2026-04-18T09:50:10Z</time></trkpt><trkpt lat="41.89918342717072" lon="13.734489581047887"><ele>1393.0</ele><time>2026-04-18T09:50:11Z</time></trkpt><trkpt lat="41.89934407158911" lon="13.734388257500504"><ele>1391.0</ele><time>2026-04-18T09:50:12Z</time></trkpt><trkpt lat="41.89950677682625" lon="13.734287529542673"><ele>1389.0</ele><time>2026-04-18T09:50:13Z</time></trkpt><trkpt lat="41.8996649460091" lon="13.734181778018652"><ele>1389.0</ele><time>2026-04-18T09:50:14Z</time></trkpt><trkpt lat="41.89981068924997" lon="13.734079399392098"><ele>1389.0</ele><time>2026-04-18T09:50:15Z</time></trkpt><trkpt lat="41.89993715471002" lon="13.733988029495455"><ele>1389.0</ele><time>2026-04-18T09:50:16Z</time></trkpt><trkpt lat="41.90005167820358" lon="13.73392602629107"><ele>1389.0</ele><time>2026-04-18T09:50:17Z</time></trkpt><trkpt lat="41.90016625577843" lon="13.733868505954069"><ele>1391.25</ele><time>2026-04-18T09:50:18Z</time></trkpt><trkpt lat="41.90028106646241" lon="13.733808099959406"><ele>1393.5</ele><time>2026-04-18T09:50:19Z</time></trkpt><trkpt lat="41.90040059440209" lon="13.733750667210915"><ele>1395.75</ele><time>2026-04-18T09:50:20Z</time></trkpt><trkpt lat="41.900536671362914" lon="13.733706300704505"><ele>1398.0</ele><time>2026-04-18T09:50:21Z</time></trkpt><trkpt lat="41.900679791272104" lon="13.733664217894592"><ele>1398.0</ele><time>2026-04-18T09:50:22Z</time></trkpt><trkpt lat="41.90083360246394" lon="13.733624038552318"><ele>1398.0</ele><time>2026-04-18T09:50:23Z</time></trkpt><trkpt lat="41.900991214687174" lon="13.733596181155454"><ele>1398.0</ele><time>2026-04-18T09:50:24Z</time></trkpt><trkpt lat="41.90114057511559" lon="13.733574407260015"><ele>1394.0</ele><time>2026-04-18T09:50:24.999Z</time></trkpt><trkpt lat="41.90127875916238" lon="13.733553120747988"><ele>1390.0</ele><time>2026-04-18T09:50:25.999Z</time></trkpt><trkpt lat="41.901419876764905" lon="13.733530426907555"><ele>1386.0</ele><time>2026-04-18T09:50:26.999Z</time></trkpt><trkpt lat="41.901564696074736" lon="13.733510069356196"><ele>1382.0</ele><time>2026-04-18T09:50:27.999Z</time></trkpt><trkpt lat="41.90171725705129" lon="13.733496070292233"><ele>1381.6666666666667</ele><time>2026-04-18T09:50:28.999Z</time></trkpt><trkpt lat="41.90187521583904" lon="13.733488702245037"><ele>1381.3333333333333</ele><time>2026-04-18T09:50:29.999Z</time></trkpt><trkpt lat="41.902035060198344" lon="13.733482619620487"><ele>1381.0</ele><time>2026-04-18T09:50:30.999Z</time></trkpt><trkpt lat="41.9022071334501" lon="13.733476536463346"><ele>1381.0</ele><time>2026-04-18T09:50:31.999Z</time></trkpt><trkpt lat="41.902379608797396" lon="13.733473893995598"><ele>1381.0</ele><time>2026-04-18T09:50:32.999Z</time></trkpt><trkpt lat="41.902551109543644" lon="13.733462475301284"><ele>1381.0</ele><time>2026-04-18T09:50:33.999Z</time></trkpt><trkpt lat="41.902709484268605" lon="13.733457342169949"><ele>1378.25</ele><time>2026-04-18T09:50:34.999Z</time></trkpt><trkpt lat="41.902857101643626" lon="13.733474232618317"><ele>1375.5</ele><time>2026-04-18T09:50:35.999Z</time></trkpt><trkpt lat="41.90299826174705" lon="13.73352974762407"><ele>1372.75</ele><time>2026-04-18T09:50:36.999Z</time></trkpt><trkpt lat="41.903136642045446" lon="13.73361638255263"><ele>1370.0</ele><time>2026-04-18T09:50:37.999Z</time></trkpt><trkpt lat="41.9032577930544" lon="13.733708167071006"><ele>1375.0</ele><time>2026-04-18T09:50:38.999Z</time></trkpt><trkpt lat="41.90337149478596" lon="13.733777353833368"><ele>1380.0</ele><time>2026-04-18T09:50:39.999Z</time></trkpt><trkpt lat="41.90347954381588" lon="13.733803643413761"><ele>1385.0</ele><time>2026-04-18T09:50:40.999Z</time></trkpt><trkpt lat="41.90359236774694" lon="13.733790714225185"><ele>1390.0</ele><time>2026-04-18T09:50:41.999Z</time></trkpt><trkpt lat="41.903696527017786" lon="13.733718893151039"><ele>1390.0</ele><time>2026-04-18T09:50:42.999Z</time></trkpt><trkpt lat="41.90379174618851" lon="13.733582504634976"><ele>1390.0</ele><time>2026-04-18T09:50:43.999Z</time></trkpt><trkpt lat="41.903877461323496" lon="13.733387834513492"><ele>1390.0</ele><time>2026-04-18T09:50:44.999Z</time></trkpt><trkpt lat="41.90395900368182" lon="13.733170796258543"><ele>1386.6666666666665</ele><time>2026-04-18T09:50:45.999Z</time></trkpt><trkpt lat="41.90403074936369" lon="13.73294559355432"><ele>1383.3333333333333</ele><time>2026-04-18T09:50:46.999Z</time></trkpt><trkpt lat="41.90410437627798" lon="13.73272338681433"><ele>1380.0</ele><time>2026-04-18T09:50:47.999Z</time></trkpt><trkpt lat="41.90416820781076" lon="13.732532585768075"><ele>1381.25</ele><time>2026-04-18T09:50:48.999Z</time></trkpt><trkpt lat="41.90422355878347" lon="13.73239078236618"><ele>1382.5</ele><time>2026-04-18T09:50:49.999Z</time></trkpt><trkpt lat="41.90429757982149" lon="13.732278902657564"><ele>1383.75</ele><time>2026-04-18T09:50:50.999Z</time></trkpt><trkpt lat="41.904392491880564" lon="13.732194990570866"><ele>1385.0</ele><time>2026-04-18T09:50:51.999Z</time></trkpt><trkpt lat="41.90453436913007" lon="13.73214417128761"><ele>1385.0</ele><time>2026-04-18T09:50:52.999Z</time></trkpt><trkpt lat="41.90471440840757" lon="13.73210157145866"><ele>1385.0</ele><time>2026-04-18T09:50:53.999Z</time></trkpt><trkpt lat="41.90489278100945" lon="13.732050726942925"><ele>1385.0</ele><time>2026-04-18T09:50:54.999Z</time></trkpt><trkpt lat="41.9050795434315" lon="13.731980663766768"><ele>1389.3333333333335</ele><time>2026-04-18T09:50:55.999Z</time></trkpt><trkpt lat="41.90527392404858" lon="13.73191515275076"><ele>1393.6666666666667</ele><time>2026-04-18T09:50:56.999Z</time></trkpt><trkpt lat="41.90544820425072" lon="13.731847208914989"><ele>1398.0</ele><time>2026-04-18T09:50:57.999Z</time></trkpt><trkpt lat="41.905603966067396" lon="13.731783297720964"><ele>1394.3333333333333</ele><time>2026-04-18T09:50:58.999Z</time></trkpt><trkpt lat="41.905736183146736" lon="13.731708836294507"><ele>1390.6666666666665</ele><time>2026-04-18T09:50:59.999Z</time></trkpt><trkpt lat="41.90585668805817" lon="13.731584035841088"><ele>1387.0</ele><time>2026-04-18T09:51:00.999Z</time></trkpt><trkpt lat="41.90596377562535" lon="13.731393279922397"><ele>1387.0</ele><time>2026-04-18T09:51:01.999Z</time></trkpt><trkpt lat="41.90605735049244" lon="13.731158758115935"><ele>1387.0</ele><time>2026-04-18T09:51:02.999Z</time></trkpt><trkpt lat="41.90613764215032" lon="13.73096015689598"><ele>1387.0</ele><time>2026-04-18T09:51:03.999Z</time></trkpt><trkpt lat="41.90620973019031" lon="13.730797491717574"><ele>1381.6666666666665</ele><time>2026-04-18T09:51:04.999Z</time></trkpt><trkpt lat="41.90631417158009" lon="13.730660034465233"><ele>1376.3333333333333</ele><time>2026-04-18T09:51:05.999Z</time></trkpt><trkpt lat="41.90645476227464" lon="13.73055406751271"><ele>1371.0</ele><time>2026-04-18T09:51:06.999Z</time></trkpt><trkpt lat="41.906580778961946" lon="13.730412366444204"><ele>1373.3333333333333</ele><time>2026-04-18T09:51:07.999Z</time></trkpt><trkpt lat="41.90668499263354" lon="13.730190112362113"><ele>1375.6666666666665</ele><time>2026-04-18T09:51:08.999Z</time></trkpt><trkpt lat="41.9067873310274" lon="13.729951476105828"><ele>1378.0</ele><time>2026-04-18T09:51:09.999Z</time></trkpt><trkpt lat="41.90687476521268" lon="13.729730232225586"><ele>1378.0</ele><time>2026-04-18T09:51:10.999Z</time></trkpt><trkpt lat="41.90694089283847" lon="13.729521618061623"><ele>1378.0</ele><time>2026-04-18T09:51:11.999Z</time></trkpt><trkpt lat="41.906971139149604" lon="13.729311580338019"><ele>1378.0</ele><time>2026-04-18T09:51:12.999Z</time></trkpt><trkpt lat="41.906981838165734" lon="13.729105969934846"><ele>1374.3333333333333</ele><time>2026-04-18T09:51:13.999Z</time></trkpt><trkpt lat="41.90701757474507" lon="13.728914503862349"><ele>1370.6666666666667</ele><time>2026-04-18T09:51:14.999Z</time></trkpt><trkpt lat="41.90710120719208" lon="13.72871232467399"><ele>1367.0</ele><time>2026-04-18T09:51:15.999Z</time></trkpt><trkpt lat="41.90720971546303" lon="13.728479745779687"><ele>1363.3333333333335</ele><time>2026-04-18T09:51:16.999Z</time></trkpt><trkpt lat="41.907305308750544" lon="13.72824672958927"><ele>1359.6666666666667</ele><time>2026-04-18T09:51:17.999Z</time></trkpt><trkpt lat="41.90741790278061" lon="13.728012688381284"><ele>1356.0</ele><time>2026-04-18T09:51:18.999Z</time></trkpt><trkpt lat="41.90754000232453" lon="13.727782363809576"><ele>1358.3333333333333</ele><time>2026-04-18T09:51:19.999Z</time></trkpt><trkpt lat="41.90766408929802" lon="13.727547933229179"><ele>1360.6666666666665</ele><time>2026-04-18T09:51:20.999Z</time></trkpt><trkpt lat="41.90778590482775" lon="13.727297551799452"><ele>1363.0</ele><time>2026-04-18T09:51:21.999Z</time></trkpt><trkpt lat="41.90790658263451" lon="13.727036144515674"><ele>1358.0</ele><time>2026-04-18T09:51:22.999Z</time></trkpt><trkpt lat="41.9080373815286" lon="13.72679532192391"><ele>1353.0</ele><time>2026-04-18T09:51:23.999Z</time></trkpt><trkpt lat="41.90818060534252" lon="13.72658390689415"><ele>1348.0</ele><time>2026-04-18T09:51:24.999Z</time></trkpt><trkpt lat="41.908340002481474" lon="13.726381721376649"><ele>1349.6666666666665</ele><time>2026-04-18T09:51:25.999Z</time></trkpt><trkpt lat="41.90845990601212" lon="13.726148191743121"><ele>1351.3333333333333</ele><time>2026-04-18T09:51:26.999Z</time></trkpt><trkpt lat="41.90856046157461" lon="13.725868074186137"><ele>1353.0</ele><time>2026-04-18T09:51:27.999Z</time></trkpt><trkpt lat="41.908665523170576" lon="13.725581534472832"><ele>1353.0</ele><time>2026-04-18T09:51:28.999Z</time></trkpt><trkpt lat="41.90877569730915" lon="13.725311686992988"><ele>1353.0</ele><time>2026-04-18T09:51:29.999Z</time></trkpt><trkpt lat="41.908882070525074" lon="13.725067858465597"><ele>1353.0</ele><time>2026-04-18T09:51:30.999Z</time></trkpt><trkpt lat="41.90899217485816" lon="13.724867111863"><ele>1353.0</ele><time>2026-04-18T09:51:31.999Z</time></trkpt><trkpt lat="41.90910275043676" lon="13.724741044761439"><ele>1353.0</ele><time>2026-04-18T09:51:32.999Z</time></trkpt><trkpt lat="41.90919291063093" lon="13.724605008206371"><ele>1353.0</ele><time>2026-04-18T09:51:33.999Z</time></trkpt><trkpt lat="41.90924856482015" lon="13.724431177058998"><ele>1353.0</ele><time>2026-04-18T09:51:35Z</time></trkpt><trkpt lat="41.90927806105418" lon="13.724234799482032"><ele>1350.5</ele><time>2026-04-18T09:51:36Z</time></trkpt><trkpt lat="41.90925230068027" lon="13.724034117092483"><ele>1348.0</ele><time>2026-04-18T09:51:37Z</time></trkpt><trkpt lat="41.90921126311994" lon="13.723855508847178"><ele>1345.5</ele><time>2026-04-18T09:51:38Z</time></trkpt><trkpt lat="41.909173323795365" lon="13.723716565982826"><ele>1343.0</ele><time>2026-04-18T09:51:39Z</time></trkpt><trkpt lat="41.90916592508735" lon="13.723563053297122"><ele>1340.3333333333335</ele><time>2026-04-18T09:51:40Z</time></trkpt><trkpt lat="41.90920560957468" lon="13.723374080205788"><ele>1337.6666666666667</ele><time>2026-04-18T09:51:41Z</time></trkpt><trkpt lat="41.90926322084935" lon="13.723137243741965"><ele>1335.0</ele><time>2026-04-18T09:51:42Z</time></trkpt><trkpt lat="41.9093235563411" lon="13.722904505228676"><ele>1334.6666666666667</ele><time>2026-04-18T09:51:43Z</time></trkpt><trkpt lat="41.909415033726354" lon="13.722667214349661"><ele>1334.3333333333335</ele><time>2026-04-18T09:51:44Z</time></trkpt><trkpt lat="41.90951950321067" lon="13.72242534513192"><ele>1334.0</ele><time>2026-04-18T09:51:45Z</time></trkpt><trkpt lat="41.909622101834756" lon="13.722165517509094"><ele>1334.0</ele><time>2026-04-18T09:51:46Z</time></trkpt><trkpt lat="41.90971672225447" lon="13.721901385308694"><ele>1334.0</ele><time>2026-04-18T09:51:47Z</time></trkpt><trkpt lat="41.90980854792776" lon="13.721633747929102"><ele>1334.0</ele><time>2026-04-18T09:51:48Z</time></trkpt><trkpt lat="41.90990853906853" lon="13.721374291345835"><ele>1334.3333333333335</ele><time>2026-04-18T09:51:49Z</time></trkpt><trkpt lat="41.91001463697099" lon="13.72112535809289"><ele>1334.6666666666667</ele><time>2026-04-18T09:51:50Z</time></trkpt><trkpt lat="41.91011379915824" lon="13.72089039689976"><ele>1335.0</ele><time>2026-04-18T09:51:51Z</time></trkpt><trkpt lat="41.91022423627413" lon="13.720662329358273"><ele>1335.0</ele><time>2026-04-18T09:51:52Z</time></trkpt><trkpt lat="41.910372717871496" lon="13.720432660141173"><ele>1335.0</ele><time>2026-04-18T09:51:53Z</time></trkpt><trkpt lat="41.91054458823868" lon="13.720180230540386"><ele>1334.3333333333333</ele><time>2026-04-18T09:51:54Z</time></trkpt><trkpt lat="41.910692609693434" lon="13.719956047348255"><ele>1333.6666666666665</ele><time>2026-04-18T09:51:55Z</time></trkpt><trkpt lat="41.91083340878914" lon="13.719763934491482"><ele>1333.0</ele><time>2026-04-18T09:51:56Z</time></trkpt><trkpt lat="41.91095180424658" lon="13.719597851540284"><ele>1333.0</ele><time>2026-04-18T09:51:57Z</time></trkpt><trkpt lat="41.91105437751588" lon="13.719454819959289"><ele>1333.0</ele><time>2026-04-18T09:51:58Z</time></trkpt><trkpt lat="41.91114491606192" lon="13.719340077575575"><ele>1333.0</ele><time>2026-04-18T09:51:59Z</time></trkpt><trkpt lat="41.911245460655316" lon="13.719269426535815"><ele>1333.0</ele><time>2026-04-18T09:52:00Z</time></trkpt><trkpt lat="41.9113499247838" lon="13.719248378237355"><ele>1333.0</ele><time>2026-04-18T09:52:01Z</time></trkpt><trkpt lat="41.91147103352085" lon="13.719274789119432"><ele>1333.0</ele><time>2026-04-18T09:52:02Z</time></trkpt><trkpt lat="41.91159011659709" lon="13.71935499010666"><ele>1333.0</ele><time>2026-04-18T09:52:03Z</time></trkpt><trkpt lat="41.91171369473159" lon="13.719439179184459"><ele>1333.0</ele><time>2026-04-18T09:52:04Z</time></trkpt><trkpt lat="41.91183553466845" lon="13.719465230245362"><ele>1333.5</ele><time>2026-04-18T09:52:05Z</time></trkpt><trkpt lat="41.911943091815935" lon="13.719443607126342"><ele>1334.0</ele><time>2026-04-18T09:52:06Z</time></trkpt><trkpt lat="41.91203139407759" lon="13.719378722650987"><ele>1334.5</ele><time>2026-04-18T09:52:07Z</time></trkpt><trkpt lat="41.91210148474564" lon="13.719259985052826"><ele>1335.0</ele><time>2026-04-18T09:52:08Z</time></trkpt><trkpt lat="41.912147991836484" lon="13.719085384917374"><ele>1331.6666666666667</ele><time>2026-04-18T09:52:09Z</time></trkpt><trkpt lat="41.91218801790231" lon="13.718872727209357"><ele>1328.3333333333335</ele><time>2026-04-18T09:52:10Z</time></trkpt><trkpt lat="41.912245089142175" lon="13.718656742170419"><ele>1325.0</ele><time>2026-04-18T09:52:11Z</time></trkpt><trkpt lat="41.912332483955026" lon="13.718436494895398"><ele>1322.5</ele><time>2026-04-18T09:52:12Z</time></trkpt><trkpt lat="41.91239804565473" lon="13.718233869433753"><ele>1320.0</ele><time>2026-04-18T09:52:13Z</time></trkpt><trkpt lat="41.91243930955337" lon="13.71803193553114"><ele>1317.5</ele><time>2026-04-18T09:52:14Z</time></trkpt><trkpt lat="41.91245626573605" lon="13.717874495655469"><ele>1315.0</ele><time>2026-04-18T09:52:15Z</time></trkpt><trkpt lat="41.91248105030359" lon="13.717738094228906"><ele>1314.25</ele><time>2026-04-18T09:52:16Z</time></trkpt><trkpt lat="41.91253501201429" lon="13.717616757847313"><ele>1313.5</ele><time>2026-04-18T09:52:17Z</time></trkpt><trkpt lat="41.91261965798784" lon="13.717518701130517"><ele>1312.75</ele><time>2026-04-18T09:52:18Z</time></trkpt><trkpt lat="41.912725326247035" lon="13.717458160079008"><ele>1312.0</ele><time>2026-04-18T09:52:19Z</time></trkpt><trkpt lat="41.91285362727782" lon="13.717439407380832"><ele>1309.6666666666665</ele><time>2026-04-18T09:52:19.999Z</time></trkpt><trkpt lat="41.913005442132224" lon="13.717478463749277"><ele>1307.3333333333333</ele><time>2026-04-18T09:52:20.999Z</time></trkpt><trkpt lat="41.91316810781746" lon="13.717516759594513"><ele>1305.0</ele><time>2026-04-18T09:52:21.999Z</time></trkpt><trkpt lat="41.91333508482313" lon="13.717509285957735"><ele>1305.6666666666667</ele><time>2026-04-18T09:52:22.999Z</time></trkpt><trkpt lat="41.9134854284721" lon="13.717449954860715"><ele>1306.3333333333335</ele><time>2026-04-18T09:52:23.999Z</time></trkpt><trkpt lat="41.913625362987894" lon="13.717379072887889"><ele>1307.0</ele><time>2026-04-18T09:52:24.999Z</time></trkpt><trkpt lat="41.91375662402071" lon="13.717245678894491"><ele>1307.0</ele><time>2026-04-18T09:52:25.999Z</time></trkpt><trkpt lat="41.91387282969968" lon="13.717064136335363"><ele>1307.0</ele><time>2026-04-18T09:52:26.999Z</time></trkpt><trkpt lat="41.913970518694384" lon="13.716875883381567"><ele>1307.0</ele><time>2026-04-18T09:52:27.999Z</time></trkpt><trkpt lat="41.91406009197533" lon="13.716720079805816"><ele>1304.5</ele><time>2026-04-18T09:52:28.999Z</time></trkpt><trkpt lat="41.914153173545" lon="13.716597435256814"><ele>1302.0</ele><time>2026-04-18T09:52:29.999Z</time></trkpt><trkpt lat="41.9142538045447" lon="13.71652586442579"><ele>1299.5</ele><time>2026-04-18T09:52:30.999Z</time></trkpt><trkpt lat="41.914354744097494" lon="13.71646425373098"><ele>1297.0</ele><time>2026-04-18T09:52:31.999Z</time></trkpt><trkpt lat="41.91447209670285" lon="13.716437782433797"><ele>1295.6666666666665</ele><time>2026-04-18T09:52:32.999Z</time></trkpt><trkpt lat="41.914650140426865" lon="13.7164222449015"><ele>1294.3333333333333</ele><time>2026-04-18T09:52:33.999Z</time></trkpt><trkpt lat="41.91484352915823" lon="13.71640963835338"><ele>1293.0</ele><time>2026-04-18T09:52:34.999Z</time></trkpt><trkpt lat="41.915015058490624" lon="13.716394910575552"><ele>1289.6000000000001</ele><time>2026-04-18T09:52:35.999Z</time></trkpt><trkpt lat="41.915149038284746" lon="13.716389492725433"><ele>1286.2</ele><time>2026-04-18T09:52:36.999Z</time></trkpt><trkpt lat="41.915253442841966" lon="13.716396774749288"><ele>1282.8</ele><time>2026-04-18T09:52:37.999Z</time></trkpt><trkpt lat="41.91533850004804" lon="13.716430174020873"><ele>1279.4</ele><time>2026-04-18T09:52:38.999Z</time></trkpt><trkpt lat="41.91541089308106" lon="13.716500401741678"><ele>1276.0</ele><time>2026-04-18T09:52:39.999Z</time></trkpt><trkpt lat="41.91546887851109" lon="13.71660164927079"><ele>1276.0</ele><time>2026-04-18T09:52:40.999Z</time></trkpt><trkpt lat="41.91549557778443" lon="13.71673543944692"><ele>1276.0</ele><time>2026-04-18T09:52:41.999Z</time></trkpt><trkpt lat="41.91547985275093" lon="13.716912951667972"><ele>1276.0</ele><time>2026-04-18T09:52:42.999Z</time></trkpt><trkpt lat="41.91545175031553" lon="13.717121533125834"><ele>1276.0</ele><time>2026-04-18T09:52:43.999Z</time></trkpt><trkpt lat="41.91544733704588" lon="13.717357331203429"><ele>1276.3333333333333</ele><time>2026-04-18T09:52:44.999Z</time></trkpt><trkpt lat="41.915483899878204" lon="13.71756235869946"><ele>1276.6666666666667</ele><time>2026-04-18T09:52:45.999Z</time></trkpt><trkpt lat="41.91555467633843" lon="13.717757812298128"><ele>1277.0</ele><time>2026-04-18T09:52:46.999Z</time></trkpt><trkpt lat="41.91566357889088" lon="13.717947426183095"><ele>1279.3333333333335</ele><time>2026-04-18T09:52:47.999Z</time></trkpt><trkpt lat="41.91577407289123" lon="13.718135678656441"><ele>1281.6666666666667</ele><time>2026-04-18T09:52:48.999Z</time></trkpt><trkpt lat="41.91585794652329" lon="13.718341915928958"><ele>1284.0</ele><time>2026-04-18T09:52:49.999Z</time></trkpt><trkpt lat="41.91591167798041" lon="13.718565070537984"><ele>1274.6666666666667</ele><time>2026-04-18T09:52:50.999Z</time></trkpt><trkpt lat="41.9159537001008" lon="13.718818146903695"><ele>1265.3333333333335</ele><time>2026-04-18T09:52:51.999Z</time></trkpt><trkpt lat="41.916016223033076" lon="13.719078588452376"><ele>1256.0</ele><time>2026-04-18T09:52:52.999Z</time></trkpt><trkpt lat="41.9160799810306" lon="13.719310865992444"><ele>1255.0</ele><time>2026-04-18T09:52:53.999Z</time></trkpt><trkpt lat="41.91612758969593" lon="13.719518787970074"><ele>1254.0</ele><time>2026-04-18T09:52:54.999Z</time></trkpt><trkpt lat="41.9161442725079" lon="13.719735584385814"><ele>1253.0</ele><time>2026-04-18T09:52:55.999Z</time></trkpt><trkpt lat="41.916134874232704" lon="13.719969251305052"><ele>1253.0</ele><time>2026-04-18T09:52:56.999Z</time></trkpt><trkpt lat="41.91611876808729" lon="13.720202141258406"><ele>1253.0</ele><time>2026-04-18T09:52:57.999Z</time></trkpt><trkpt lat="41.916099864730846" lon="13.720367187775459"><ele>1253.0</ele><time>2026-04-18T09:52:58.999Z</time></trkpt><trkpt lat="41.91607523415708" lon="13.72049576879767"><ele>1253.0</ele><time>2026-04-18T09:52:59.999Z</time></trkpt><trkpt lat="41.91604370525705" lon="13.720600373176326"><ele>1252.4</ele><time>2026-04-18T09:53:00.999Z</time></trkpt><trkpt lat="41.91598152865184" lon="13.720683924975134"><ele>1251.8</ele><time>2026-04-18T09:53:01.999Z</time></trkpt><trkpt lat="41.91589504816601" lon="13.720721961684918"><ele>1251.2</ele><time>2026-04-18T09:53:02.999Z</time></trkpt><trkpt lat="41.91577792764478" lon="13.720710172847129"><ele>1250.6</ele><time>2026-04-18T09:53:03.999Z</time></trkpt><trkpt lat="41.915665054354115" lon="13.720667301837857"><ele>1250.0</ele><time>2026-04-18T09:53:04.999Z</time></trkpt><trkpt lat="41.91557292164137" lon="13.720662305535658"><ele>1252.8</ele><time>2026-04-18T09:53:05.999Z</time></trkpt><trkpt lat="41.91549953854119" lon="13.720718757443462"><ele>1255.6</ele><time>2026-04-18T09:53:06.999Z</time></trkpt><trkpt lat="41.915441916700814" lon="13.720837697541388"><ele>1258.4</ele><time>2026-04-18T09:53:07.999Z</time></trkpt><trkpt lat="41.91541549009987" lon="13.720982560169105"><ele>1261.2</ele><time>2026-04-18T09:53:08.999Z</time></trkpt><trkpt lat="41.91542704535295" lon="13.72114613602371"><ele>1264.0</ele><time>2026-04-18T09:53:09.999Z</time></trkpt><trkpt lat="41.91547167161017" lon="13.721323738574759"><ele>1264.0</ele><time>2026-04-18T09:53:10.999Z</time></trkpt><trkpt lat="41.91553392066694" lon="13.721509579137917"><ele>1264.0</ele><time>2026-04-18T09:53:11.999Z</time></trkpt><trkpt lat="41.915580725621695" lon="13.721725838246863"><ele>1264.0</ele><time>2026-04-18T09:53:12.999Z</time></trkpt><trkpt lat="41.915593280173105" lon="13.721945138600324"><ele>1262.75</ele><time>2026-04-18T09:53:13.999Z</time></trkpt><trkpt lat="41.915609569976844" lon="13.72213457603203"><ele>1261.5</ele><time>2026-04-18T09:53:14.999Z</time></trkpt><trkpt lat="41.915608634931665" lon="13.722306741664932"><ele>1260.25</ele><time>2026-04-18T09:53:15.999Z</time></trkpt><trkpt lat="41.91562726711516" lon="13.722449140651802"><ele>1259.0</ele><time>2026-04-18T09:53:16.999Z</time></trkpt><trkpt lat="41.91561781685789" lon="13.72256167917886"><ele>1259.0</ele><time>2026-04-18T09:53:17.999Z</time></trkpt><trkpt lat="41.915594812766805" lon="13.722652795726388"><ele>1259.0</ele><time>2026-04-18T09:53:18.999Z</time></trkpt><trkpt lat="41.915541464886054" lon="13.722723610588586"><ele>1259.0</ele><time>2026-04-18T09:53:19.999Z</time></trkpt><trkpt lat="41.91545388563486" lon="13.722758788162526"><ele>1259.0</ele><time>2026-04-18T09:53:20.999Z</time></trkpt><trkpt lat="41.91534565204688" lon="13.722731725383978"><ele>1259.0</ele><time>2026-04-18T09:53:21.999Z</time></trkpt><trkpt lat="41.915238123035515" lon="13.72272853047838"><ele>1258.0</ele><time>2026-04-18T09:53:22.999Z</time></trkpt><trkpt lat="41.9151419736813" lon="13.722802252022841"><ele>1257.0</ele><time>2026-04-18T09:53:23.999Z</time></trkpt><trkpt lat="41.915062297872616" lon="13.722936063483413"><ele>1256.0</ele><time>2026-04-18T09:53:24.999Z</time></trkpt><trkpt lat="41.91500618575587" lon="13.723105484275427"><ele>1255.0</ele><time>2026-04-18T09:53:25.999Z</time></trkpt><trkpt lat="41.91498978563061" lon="13.72329223188178"><ele>1257.0</ele><time>2026-04-18T09:53:26.999Z</time></trkpt><trkpt lat="41.915011457935215" lon="13.723484160138698"><ele>1259.0</ele><time>2026-04-18T09:53:27.999Z</time></trkpt><trkpt lat="41.91506237213384" lon="13.723655586974594"><ele>1261.0</ele><time>2026-04-18T09:53:28.999Z</time></trkpt><trkpt lat="41.915135182661516" lon="13.723787614220223"><ele>1263.0</ele><time>2026-04-18T09:53:29.999Z</time></trkpt><trkpt lat="41.915218577074384" lon="13.723913264957337"><ele>1263.0</ele><time>2026-04-18T09:53:30.999Z</time></trkpt><trkpt lat="41.91536750273853" lon="13.723948343230337"><ele>1263.0</ele><time>2026-04-18T09:53:31.999Z</time></trkpt><trkpt lat="41.91552364224086" lon="13.72396597107428"><ele>1263.0</ele><time>2026-04-18T09:53:32.999Z</time></trkpt><trkpt lat="41.9156997412928" lon="13.723935816858106"><ele>1263.0</ele><time>2026-04-18T09:53:33.999Z</time></trkpt><trkpt lat="41.91589069425588" lon="13.723861065984584"><ele>1263.0</ele><time>2026-04-18T09:53:34.999Z</time></trkpt><trkpt lat="41.9160824148764" lon="13.723780894057846"><ele>1263.0</ele><time>2026-04-18T09:53:35.999Z</time></trkpt><trkpt lat="41.91629845456333" lon="13.723750106863156"><ele>1265.0</ele><time>2026-04-18T09:53:36.999Z</time></trkpt><trkpt lat="41.91653371012066" lon="13.723712285443916"><ele>1267.0</ele><time>2026-04-18T09:53:37.999Z</time></trkpt><trkpt lat="41.916759295500924" lon="13.723614835217523"><ele>1261.3333333333333</ele><time>2026-04-18T09:53:38.999Z</time></trkpt><trkpt lat="41.91695735845703" lon="13.723516523224085"><ele>1255.6666666666667</ele><time>2026-04-18T09:53:39.999Z</time></trkpt><trkpt lat="41.91713037792437" lon="13.723442616986038"><ele>1250.0</ele><time>2026-04-18T09:53:41Z</time></trkpt><trkpt lat="41.91728596487686" lon="13.723369180755315"><ele>1250.0</ele><time>2026-04-18T09:53:42Z</time></trkpt><trkpt lat="41.917432257983755" lon="13.723223448446205"><ele>1250.0</ele><time>2026-04-18T09:53:43Z</time></trkpt><trkpt lat="41.917563532860456" lon="13.723048787462163"><ele>1250.0</ele><time>2026-04-18T09:53:44Z</time></trkpt><trkpt lat="41.917693156455655" lon="13.72290569961011"><ele>1254.3333333333335</ele><time>2026-04-18T09:53:45Z</time></trkpt><trkpt lat="41.91784773352881" lon="13.722784549853166"><ele>1258.6666666666667</ele><time>2026-04-18T09:53:46Z</time></trkpt><trkpt lat="41.91802848001509" lon="13.722688222374368"><ele>1263.0</ele><time>2026-04-18T09:53:47Z</time></trkpt><trkpt lat="41.9182263732712" lon="13.722610113346356"><ele>1257.0</ele><time>2026-04-18T09:53:48Z</time></trkpt><trkpt lat="41.91842647230159" lon="13.722510215431386"><ele>1251.0</ele><time>2026-04-18T09:53:49Z</time></trkpt><trkpt lat="41.918603436890585" lon="13.722393776743692"><ele>1245.0</ele><time>2026-04-18T09:53:50Z</time></trkpt><trkpt lat="41.91874849493935" lon="13.722285569209303"><ele>1245.0</ele><time>2026-04-18T09:53:51Z</time></trkpt><trkpt lat="41.91887096479211" lon="13.722207530600336"><ele>1245.0</ele><time>2026-04-18T09:53:52Z</time></trkpt><trkpt lat="41.918993480451185" lon="13.722153673399733"><ele>1245.0</ele><time>2026-04-18T09:53:53Z</time></trkpt><trkpt lat="41.91913981262422" lon="13.722151730472063"><ele>1245.0</ele><time>2026-04-18T09:53:54Z</time></trkpt><trkpt lat="41.919282609382" lon="13.722192361987467"><ele>1244.75</ele><time>2026-04-18T09:53:55Z</time></trkpt><trkpt lat="41.91941475622263" lon="13.72225638468172"><ele>1244.5</ele><time>2026-04-18T09:53:56Z</time></trkpt><trkpt lat="41.91952764121581" lon="13.722359280958353"><ele>1244.25</ele><time>2026-04-18T09:53:57Z</time></trkpt><trkpt lat="41.91961399344648" lon="13.722468868330955"><ele>1244.0</ele><time>2026-04-18T09:53:58Z</time></trkpt><trkpt lat="41.919700285245995" lon="13.72253164458401"><ele>1244.0</ele><time>2026-04-18T09:53:59Z</time></trkpt><trkpt lat="41.91979994385415" lon="13.722519898434223"><ele>1244.0</ele><time>2026-04-18T09:54:00Z</time></trkpt><trkpt lat="41.91988225890661" lon="13.722463748343793"><ele>1244.0</ele><time>2026-04-18T09:54:01Z</time></trkpt><trkpt lat="41.91993981588512" lon="13.722342304378925"><ele>1244.0</ele><time>2026-04-18T09:54:02Z</time></trkpt><trkpt lat="41.91999009408687" lon="13.72215812748968"><ele>1244.0</ele><time>2026-04-18T09:54:03Z</time></trkpt><trkpt lat="41.9200454848122" lon="13.72195995240235"><ele>1245.75</ele><time>2026-04-18T09:54:04Z</time></trkpt><trkpt lat="41.92009028872683" lon="13.721787265816605"><ele>1247.5</ele><time>2026-04-18T09:54:05Z</time></trkpt><trkpt lat="41.92015302973555" lon="13.721632137088696"><ele>1249.25</ele><time>2026-04-18T09:54:06Z</time></trkpt><trkpt lat="41.92025905411874" lon="13.721466170225394"><ele>1251.0</ele><time>2026-04-18T09:54:07Z</time></trkpt><trkpt lat="41.920384275608036" lon="13.72129708458554"><ele>1251.0</ele><time>2026-04-18T09:54:08Z</time></trkpt><trkpt lat="41.920515350707895" lon="13.721126059997609"><ele>1251.0</ele><time>2026-04-18T09:54:09Z</time></trkpt><trkpt lat="41.92063842159224" lon="13.720936183202962"><ele>1251.0</ele><time>2026-04-18T09:54:10Z</time></trkpt><trkpt lat="41.92077580776468" lon="13.7207487464398"><ele>1251.3333333333333</ele><time>2026-04-18T09:54:11Z</time></trkpt><trkpt lat="41.920919012839285" lon="13.720561959400737"><ele>1251.6666666666665</ele><time>2026-04-18T09:54:12Z</time></trkpt><trkpt lat="41.92106109059499" lon="13.720364682212399"><ele>1252.0</ele><time>2026-04-18T09:54:13Z</time></trkpt><trkpt lat="41.92119486392578" lon="13.72017296768152"><ele>1242.3333333333333</ele><time>2026-04-18T09:54:14Z</time></trkpt><trkpt lat="41.92132582933294" lon="13.720004005427"><ele>1232.6666666666667</ele><time>2026-04-18T09:54:15Z</time></trkpt><trkpt lat="41.921460892598525" lon="13.719861614114942"><ele>1223.0</ele><time>2026-04-18T09:54:16Z</time></trkpt><trkpt lat="41.921616557952404" lon="13.719734710627401"><ele>1218.0</ele><time>2026-04-18T09:54:17Z</time></trkpt><trkpt lat="41.921786179933385" lon="13.719608524588491"><ele>1213.0</ele><time>2026-04-18T09:54:18Z</time></trkpt><trkpt lat="41.921966874009264" lon="13.719486561525596"><ele>1208.0</ele><time>2026-04-18T09:54:19Z</time></trkpt><trkpt lat="41.92215668062613" lon="13.719369916428521"><ele>1208.0</ele><time>2026-04-18T09:54:20Z</time></trkpt><trkpt lat="41.92234888011351" lon="13.719236603926415"><ele>1208.0</ele><time>2026-04-18T09:54:21Z</time></trkpt><trkpt lat="41.922550797215976" lon="13.719116997094597"><ele>1208.0</ele><time>2026-04-18T09:54:22Z</time></trkpt><trkpt lat="41.922772284289024" lon="13.71897639590326"><ele>1217.5</ele><time>2026-04-18T09:54:23Z</time></trkpt><trkpt lat="41.92301225383112" lon="13.718806533890303"><ele>1227.0</ele><time>2026-04-18T09:54:24Z</time></trkpt><trkpt lat="41.92326955538882" lon="13.71860885359702"><ele>1219.5</ele><time>2026-04-18T09:54:24.999Z</time></trkpt><trkpt lat="41.92350651288548" lon="13.71841897095036"><ele>1212.0</ele><time>2026-04-18T09:54:25.999Z</time></trkpt><trkpt lat="41.92371651186032" lon="13.71825443654392"><ele>1212.0</ele><time>2026-04-18T09:54:26.999Z</time></trkpt><trkpt lat="41.923905991972646" lon="13.718104520362662"><ele>1212.0</ele><time>2026-04-18T09:54:27.999Z</time></trkpt><trkpt lat="41.92408889625516" lon="13.71795911121966"><ele>1212.0</ele><time>2026-04-18T09:54:28.999Z</time></trkpt><trkpt lat="41.92425524658497" lon="13.71781693051662"><ele>1208.6666666666667</ele><time>2026-04-18T09:54:29.999Z</time></trkpt><trkpt lat="41.9244093415055" lon="13.717648675412049"><ele>1205.3333333333335</ele><time>2026-04-18T09:54:30.999Z</time></trkpt><trkpt lat="41.924533062222736" lon="13.717460692960408"><ele>1202.0</ele><time>2026-04-18T09:54:31.999Z</time></trkpt><trkpt lat="41.92463400539951" lon="13.717297230840856"><ele>1202.0</ele><time>2026-04-18T09:54:32.999Z</time></trkpt><trkpt lat="41.92473025881992" lon="13.717148876542655"><ele>1202.0</ele><time>2026-04-18T09:54:33.999Z</time></trkpt><trkpt lat="41.924804189552056" lon="13.7170262989103"><ele>1202.0</ele><time>2026-04-18T09:54:34.999Z</time></trkpt><trkpt lat="41.92486953828904" lon="13.716937811027995"><ele>1202.0</ele><time>2026-04-18T09:54:35.999Z</time></trkpt><trkpt lat="41.92494197070763" lon="13.71688654797989"><ele>1202.0</ele><time>2026-04-18T09:54:36.999Z</time></trkpt><trkpt lat="41.92503278767803" lon="13.716881384900315"><ele>1203.0</ele><time>2026-04-18T09:54:37.999Z</time></trkpt><trkpt lat="41.925145012303055" lon="13.716939108800831"><ele>1204.0</ele><time>2026-04-18T09:54:38.999Z</time></trkpt><trkpt lat="41.92527169078393" lon="13.717031440854994"><ele>1205.0</ele><time>2026-04-18T09:54:39.999Z</time></trkpt><trkpt lat="41.925410169695006" lon="13.71706676895967"><ele>1206.0</ele><time>2026-04-18T09:54:40.999Z</time></trkpt><trkpt lat="41.92555881934261" lon="13.717046457061164"><ele>1206.0</ele><time>2026-04-18T09:54:41.999Z</time></trkpt><trkpt lat="41.925726257463246" lon="13.716950571244476"><ele>1206.0</ele><time>2026-04-18T09:54:42.999Z</time></trkpt><trkpt lat="41.92589598242755" lon="13.716816544100734"><ele>1206.0</ele><time>2026-04-18T09:54:43.999Z</time></trkpt><trkpt lat="41.92603867820902" lon="13.71670783709976"><ele>1197.75</ele><time>2026-04-18T09:54:44.999Z</time></trkpt><trkpt lat="41.92616087972448" lon="13.716616764240234"><ele>1189.5</ele><time>2026-04-18T09:54:45.999Z</time></trkpt><trkpt lat="41.926261922150374" lon="13.716511374081115"><ele>1181.25</ele><time>2026-04-18T09:54:46.999Z</time></trkpt><trkpt lat="41.92633573871951" lon="13.716346975095517"><ele>1173.0</ele><time>2026-04-18T09:54:47.999Z</time></trkpt><trkpt lat="41.926385039249155" lon="13.716138389199038"><ele>1169.0</ele><time>2026-04-18T09:54:48.999Z</time></trkpt><trkpt lat="41.92641223108561" lon="13.715911404945526"><ele>1165.0</ele><time>2026-04-18T09:54:49.999Z</time></trkpt><trkpt lat="41.92643284030424" lon="13.715714666363871"><ele>1161.0</ele><time>2026-04-18T09:54:50.999Z</time></trkpt><trkpt lat="41.92643197686957" lon="13.71550293171763"><ele>1161.0</ele><time>2026-04-18T09:54:51.999Z</time></trkpt><trkpt lat="41.92638710625201" lon="13.715262247067768"><ele>1161.0</ele><time>2026-04-18T09:54:52.999Z</time></trkpt><trkpt lat="41.92633648865805" lon="13.71501133264178"><ele>1161.0</ele><time>2026-04-18T09:54:53.999Z</time></trkpt><trkpt lat="41.92630959155159" lon="13.714746449771072"><ele>1158.6666666666667</ele><time>2026-04-18T09:54:54.999Z</time></trkpt><trkpt lat="41.92628740684891" lon="13.71447999913904"><ele>1156.3333333333335</ele><time>2026-04-18T09:54:55.999Z</time></trkpt><trkpt lat="41.92625130847823" lon="13.714242495878539"><ele>1154.0</ele><time>2026-04-18T09:54:56.999Z</time></trkpt><trkpt lat="41.92619277142422" lon="13.714029449719362"><ele>1151.6666666666667</ele><time>2026-04-18T09:54:57.999Z</time></trkpt><trkpt lat="41.92612571405057" lon="13.71380637193271"><ele>1149.3333333333333</ele><time>2026-04-18T09:54:58.999Z</time></trkpt><trkpt lat="41.92610741671436" lon="13.713595067893914"><ele>1147.0</ele><time>2026-04-18T09:54:59.999Z</time></trkpt><trkpt lat="41.926103953010035" lon="13.713401356834726"><ele>1146.3333333333333</ele><time>2026-04-18T09:55:00.999Z</time></trkpt><trkpt lat="41.926047306622095" lon="13.71320700957247"><ele>1145.6666666666667</ele><time>2026-04-18T09:55:01.999Z</time></trkpt><trkpt lat="41.92594820147106" lon="13.71301108570914"><ele>1145.0</ele><time>2026-04-18T09:55:02.999Z</time></trkpt><trkpt lat="41.92586623774579" lon="13.712798094814888"><ele>1147.25</ele><time>2026-04-18T09:55:03.999Z</time></trkpt><trkpt lat="41.925830047459165" lon="13.712582589814263"><ele>1149.5</ele><time>2026-04-18T09:55:04.999Z</time></trkpt><trkpt lat="41.92581187103555" lon="13.712385096718148"><ele>1151.75</ele><time>2026-04-18T09:55:05.999Z</time></trkpt><trkpt lat="41.92577999460323" lon="13.712216559708901"><ele>1154.0</ele><time>2026-04-18T09:55:06.999Z</time></trkpt><trkpt lat="41.92571712767129" lon="13.712073064271385"><ele>1154.0</ele><time>2026-04-18T09:55:07.999Z</time></trkpt><trkpt lat="41.92561613505668" lon="13.711976604059524"><ele>1154.0</ele><time>2026-04-18T09:55:08.999Z</time></trkpt><trkpt lat="41.92547957140859" lon="13.711920616568483"><ele>1154.0</ele><time>2026-04-18T09:55:09.999Z</time></trkpt><trkpt lat="41.92531309364129" lon="13.711917924011573"><ele>1154.0</ele><time>2026-04-18T09:55:10.999Z</time></trkpt><trkpt lat="41.92510786459056" lon="13.711953488172227"><ele>1154.6666666666667</ele><time>2026-04-18T09:55:11.999Z</time></trkpt><trkpt lat="41.92489634654299" lon="13.712013954356506"><ele>1155.3333333333333</ele><time>2026-04-18T09:55:12.999Z</time></trkpt><trkpt lat="41.92467347754556" lon="13.712100604392392"><ele>1156.0</ele><time>2026-04-18T09:55:13.999Z</time></trkpt><trkpt lat="41.92442015317565" lon="13.712193643087295"><ele>1150.0</ele><time>2026-04-18T09:55:14.999Z</time></trkpt><trkpt lat="41.92416225080214" lon="13.712305949575837"><ele>1144.0</ele><time>2026-04-18T09:55:15.999Z</time></trkpt><trkpt lat="41.92393692833959" lon="13.712407832464661"><ele>1144.0</ele><time>2026-04-18T09:55:16.999Z</time></trkpt><trkpt lat="41.92375518377998" lon="13.712499429673144"><ele>1144.0</ele><time>2026-04-18T09:55:17.999Z</time></trkpt><trkpt lat="41.923588395311825" lon="13.712530326214374"><ele>1144.0</ele><time>2026-04-18T09:55:18.999Z</time></trkpt><trkpt lat="41.92343524856183" lon="13.712532573728605"><ele>1142.75</ele><time>2026-04-18T09:55:19.999Z</time></trkpt><trkpt lat="41.92331572199453" lon="13.712530580788929"><ele>1141.5</ele><time>2026-04-18T09:55:20.999Z</time></trkpt><trkpt lat="41.92321358504767" lon="13.712577073340114"><ele>1140.25</ele><time>2026-04-18T09:55:21.999Z</time></trkpt><trkpt lat="41.923132332275436" lon="13.712676778388802"><ele>1139.0</ele><time>2026-04-18T09:55:22.999Z</time></trkpt><trkpt lat="41.92307972920758" lon="13.712831690519142"><ele>1138.0</ele><time>2026-04-18T09:55:23.999Z</time></trkpt><trkpt lat="41.923058316199814" lon="13.713034439045428"><ele>1137.0</ele><time>2026-04-18T09:55:24.999Z</time></trkpt><trkpt lat="41.923042062728335" lon="13.713285273245127"><ele>1136.0</ele><time>2026-04-18T09:55:25.999Z</time></trkpt><trkpt lat="41.92299032102786" lon="13.713537541163662"><ele>1135.0</ele><time>2026-04-18T09:55:26.999Z</time></trkpt><trkpt lat="41.922941591870256" lon="13.713820350958414"><ele>1134.0</ele><time>2026-04-18T09:55:27.999Z</time></trkpt><trkpt lat="41.92289385125524" lon="13.714076543020065"><ele>1133.0</ele><time>2026-04-18T09:55:28.999Z</time></trkpt><trkpt lat="41.92285915930619" lon="13.714272563163034"><ele>1132.25</ele><time>2026-04-18T09:55:29.999Z</time></trkpt><trkpt lat="41.922824085400734" lon="13.714435266351396"><ele>1131.5</ele><time>2026-04-18T09:55:30.999Z</time></trkpt><trkpt lat="41.92277521155041" lon="13.714564740999151"><ele>1130.75</ele><time>2026-04-18T09:55:31.999Z</time></trkpt><trkpt lat="41.92268125788664" lon="13.714646286083095"><ele>1130.0</ele><time>2026-04-18T09:55:32.999Z</time></trkpt><trkpt lat="41.92255335054868" lon="13.714738694145082"><ele>1129.6</ele><time>2026-04-18T09:55:33.999Z</time></trkpt><trkpt lat="41.92243948685483" lon="13.714805150193383"><ele>1129.2</ele><time>2026-04-18T09:55:34.999Z</time></trkpt><trkpt lat="41.92234570483681" lon="13.71483822549526"><ele>1128.8</ele><time>2026-04-18T09:55:35.999Z</time></trkpt><trkpt lat="41.922261408116775" lon="13.714809327891661"><ele>1128.4</ele><time>2026-04-18T09:55:36.999Z</time></trkpt><trkpt lat="41.92219001860808" lon="13.714724605474727"><ele>1128.0</ele><time>2026-04-18T09:55:37.999Z</time></trkpt><trkpt lat="41.92214705947651" lon="13.714570056108336"><ele>1129.3333333333333</ele><time>2026-04-18T09:55:38.999Z</time></trkpt><trkpt lat="41.92212667609037" lon="13.71433935812235"><ele>1130.6666666666665</ele><time>2026-04-18T09:55:39.999Z</time></trkpt><trkpt lat="41.92210450025016" lon="13.714076269804783"><ele>1132.0</ele><time>2026-04-18T09:55:40.999Z</time></trkpt><trkpt lat="41.92205716992965" lon="13.71379759514537"><ele>1134.0</ele><time>2026-04-18T09:55:41.999Z</time></trkpt><trkpt lat="41.92199375932432" lon="13.713491919450897"><ele>1136.0</ele><time>2026-04-18T09:55:42.999Z</time></trkpt><trkpt lat="41.92192946753446" lon="13.71319615701726"><ele>1136.0</ele><time>2026-04-18T09:55:43.999Z</time></trkpt><trkpt lat="41.9218731936365" lon="13.712931946909439"><ele>1136.0</ele><time>2026-04-18T09:55:44.999Z</time></trkpt><trkpt lat="41.92183200093285" lon="13.712674196391323"><ele>1136.0</ele><time>2026-04-18T09:55:46Z</time></trkpt><trkpt lat="41.921799624934906" lon="13.712407122299034"><ele>1135.75</ele><time>2026-04-18T09:55:47Z</time></trkpt><trkpt lat="41.92178693512865" lon="13.712168135725127"><ele>1135.5</ele><time>2026-04-18T09:55:48Z</time></trkpt><trkpt lat="41.921790564296195" lon="13.71198505880637"><ele>1135.25</ele><time>2026-04-18T09:55:49Z</time></trkpt><trkpt lat="41.92181685804501" lon="13.71183191838299"><ele>1135.0</ele><time>2026-04-18T09:55:50Z</time></trkpt><trkpt lat="41.92187668295791" lon="13.711652374924556"><ele>1135.0</ele><time>2026-04-18T09:55:51Z</time></trkpt><trkpt lat="41.92195955100951" lon="13.71144889199347"><ele>1135.0</ele><time>2026-04-18T09:55:52Z</time></trkpt><trkpt lat="41.92207334414066" lon="13.711238046402345"><ele>1135.0</ele><time>2026-04-18T09:55:53Z</time></trkpt><trkpt lat="41.92218908830653" lon="13.711032370630646"><ele>1131.0</ele><time>2026-04-18T09:55:54Z</time></trkpt><trkpt lat="41.92229851467032" lon="13.710813811944085"><ele>1127.0</ele><time>2026-04-18T09:55:55Z</time></trkpt><trkpt lat="41.92239221697134" lon="13.710587552837945"><ele>1123.0</ele><time>2026-04-18T09:55:56Z</time></trkpt><trkpt lat="41.922453561348604" lon="13.710334340136795"><ele>1126.0</ele><time>2026-04-18T09:55:57Z</time></trkpt><trkpt lat="41.92249326952314" lon="13.710081054768429"><ele>1129.0</ele><time>2026-04-18T09:55:58Z</time></trkpt><trkpt lat="41.9225615007398" lon="13.70986730128452"><ele>1132.0</ele><time>2026-04-18T09:55:59Z</time></trkpt><trkpt lat="41.92265138040007" lon="13.709678718290926"><ele>1132.0</ele><time>2026-04-18T09:56:00Z</time></trkpt><trkpt lat="41.922700253312094" lon="13.709459560211199"><ele>1132.0</ele><time>2026-04-18T09:56:01Z</time></trkpt><trkpt lat="41.922680082972704" lon="13.709215166640874"><ele>1132.0</ele><time>2026-04-18T09:56:02Z</time></trkpt><trkpt lat="41.92265127000036" lon="13.708953811931783"><ele>1131.3333333333333</ele><time>2026-04-18T09:56:03Z</time></trkpt><trkpt lat="41.92263008034373" lon="13.708715020838513"><ele>1130.6666666666667</ele><time>2026-04-18T09:56:04Z</time></trkpt><trkpt lat="41.922608549763126" lon="13.708506508306124"><ele>1130.0</ele><time>2026-04-18T09:56:05Z</time></trkpt><trkpt lat="41.922607346897486" lon="13.708302547540914"><ele>1128.0</ele><time>2026-04-18T09:56:06Z</time></trkpt><trkpt lat="41.92263780022996" lon="13.70807244874657"><ele>1126.0</ele><time>2026-04-18T09:56:07Z</time></trkpt><trkpt lat="41.922697047737" lon="13.707825148377873"><ele>1124.0</ele><time>2026-04-18T09:56:08Z</time></trkpt><trkpt lat="41.92276416213145" lon="13.70756523935255"><ele>1120.3333333333335</ele><time>2026-04-18T09:56:09Z</time></trkpt><trkpt lat="41.922820380675795" lon="13.707292723845603"><ele>1116.6666666666667</ele><time>2026-04-18T09:56:10Z</time></trkpt><trkpt lat="41.92287095317482" lon="13.707018109112473"><ele>1113.0</ele><time>2026-04-18T09:56:11Z</time></trkpt><trkpt lat="41.922931806778145" lon="13.706748180001437"><ele>1108.6666666666667</ele><time>2026-04-18T09:56:12Z</time></trkpt><trkpt lat="41.92298876662406" lon="13.706504386574936"><ele>1104.3333333333335</ele><time>2026-04-18T09:56:13Z</time></trkpt><trkpt lat="41.92303933079208" lon="13.706273221332237"><ele>1100.0</ele><time>2026-04-18T09:56:14Z</time></trkpt><trkpt lat="41.92308422754588" lon="13.70605937492767"><ele>1096.0</ele><time>2026-04-18T09:56:15Z</time></trkpt><trkpt lat="41.92313394178321" lon="13.70586501374357"><ele>1092.0</ele><time>2026-04-18T09:56:16Z</time></trkpt><trkpt lat="41.923205982204856" lon="13.70569525832499"><ele>1088.0</ele><time>2026-04-18T09:56:17Z</time></trkpt><trkpt lat="41.92332083811704" lon="13.705538522426917"><ele>1088.3333333333335</ele><time>2026-04-18T09:56:18Z</time></trkpt><trkpt lat="41.923475519658375" lon="13.705377864427234"><ele>1088.6666666666667</ele><time>2026-04-18T09:56:19Z</time></trkpt><trkpt lat="41.923634017762296" lon="13.705197513407448"><ele>1089.0</ele><time>2026-04-18T09:56:20Z</time></trkpt><trkpt lat="41.92379375026841" lon="13.705007797998494"><ele>1089.0</ele><time>2026-04-18T09:56:21Z</time></trkpt><trkpt lat="41.92395807973044" lon="13.704822224516313"><ele>1089.0</ele><time>2026-04-18T09:56:22Z</time></trkpt><trkpt lat="41.92412704243587" lon="13.704666058329144"><ele>1089.0</ele><time>2026-04-18T09:56:23Z</time></trkpt><trkpt lat="41.92428165477221" lon="13.704491254974911"><ele>1087.0</ele><time>2026-04-18T09:56:24Z</time></trkpt><trkpt lat="41.924468636834334" lon="13.704368006719589"><ele>1085.0</ele><time>2026-04-18T09:56:25Z</time></trkpt><trkpt lat="41.92466515115343" lon="13.704265003144442"><ele>1083.0</ele><time>2026-04-18T09:56:26Z</time></trkpt><trkpt lat="41.92486186233435" lon="13.704155705153925"><ele>1083.0</ele><time>2026-04-18T09:56:27Z</time></trkpt><trkpt lat="41.92504987552478" lon="13.704029060129265"><ele>1083.0</ele><time>2026-04-18T09:56:28Z</time></trkpt><trkpt lat="41.92523448396403" lon="13.703867038388937"><ele>1083.0</ele><time>2026-04-18T09:56:29Z</time></trkpt><trkpt lat="41.92541144583413" lon="13.703669262219927"><ele>1078.6666666666667</ele><time>2026-04-18T09:56:29.999Z</time></trkpt><trkpt lat="41.925570112625714" lon="13.703486318102179"><ele>1074.3333333333335</ele><time>2026-04-18T09:56:30.999Z</time></trkpt><trkpt lat="41.92572447565853" lon="13.70333811800851"><ele>1070.0</ele><time>2026-04-18T09:56:31.999Z</time></trkpt><trkpt lat="41.92588680456953" lon="13.70320958922825"><ele>1071.6666666666667</ele><time>2026-04-18T09:56:32.999Z</time></trkpt><trkpt lat="41.926066235195805" lon="13.703085417921564"><ele>1073.3333333333333</ele><time>2026-04-18T09:56:33.999Z</time></trkpt><trkpt lat="41.926224623859156" lon="13.70298555052678"><ele>1075.0</ele><time>2026-04-18T09:56:34.999Z</time></trkpt><trkpt lat="41.926368496788115" lon="13.702897227772281"><ele>1075.0</ele><time>2026-04-18T09:56:35.999Z</time></trkpt><trkpt lat="41.92650724951453" lon="13.702829402824156"><ele>1075.0</ele><time>2026-04-18T09:56:36.999Z</time></trkpt><trkpt lat="41.92665979969817" lon="13.702786818989873"><ele>1075.0</ele><time>2026-04-18T09:56:37.999Z</time></trkpt><trkpt lat="41.92683143036385" lon="13.702794613268614"><ele>1070.6666666666665</ele><time>2026-04-18T09:56:38.999Z</time></trkpt><trkpt lat="41.92700392507426" lon="13.702831853421394"><ele>1066.3333333333333</ele><time>2026-04-18T09:56:39.999Z</time></trkpt><trkpt lat="41.92715757593593" lon="13.70286193183126"><ele>1062.0</ele><time>2026-04-18T09:56:40.999Z</time></trkpt><trkpt lat="41.92729422648544" lon="13.702903289441569"><ele>1062.0</ele><time>2026-04-18T09:56:41.999Z</time></trkpt><trkpt lat="41.92741958262636" lon="13.702977577285333"><ele>1062.0</ele><time>2026-04-18T09:56:42.999Z</time></trkpt><trkpt lat="41.92751869497445" lon="13.703079047909231"><ele>1062.0</ele><time>2026-04-18T09:56:43.999Z</time></trkpt><trkpt lat="41.92758069613039" lon="13.703215517760592"><ele>1062.0</ele><time>2026-04-18T09:56:44.999Z</time></trkpt><trkpt lat="41.92762452931566" lon="13.703404882478097"><ele>1058.3333333333333</ele><time>2026-04-18T09:56:45.999Z</time></trkpt><trkpt lat="41.92766390717437" lon="13.703631622102192"><ele>1054.6666666666665</ele><time>2026-04-18T09:56:46.999Z</time></trkpt><trkpt lat="41.927726504322756" lon="13.703845853838063"><ele>1051.0</ele><time>2026-04-18T09:56:47.999Z</time></trkpt><trkpt lat="41.92783062564428" lon="13.704023288309525"><ele>1051.0</ele><time>2026-04-18T09:56:48.999Z</time></trkpt><trkpt lat="41.92795176804301" lon="13.704155140308227"><ele>1051.0</ele><time>2026-04-18T09:56:49.999Z</time></trkpt><trkpt lat="41.92810994341967" lon="13.7042424725048"><ele>1051.0</ele><time>2026-04-18T09:56:50.999Z</time></trkpt><trkpt lat="41.928283378603034" lon="13.704322871899961"><ele>1051.3333333333333</ele><time>2026-04-18T09:56:51.999Z</time></trkpt><trkpt lat="41.92844507152758" lon="13.704436240664599"><ele>1051.6666666666667</ele><time>2026-04-18T09:56:52.999Z</time></trkpt><trkpt lat="41.9286015931755" lon="13.70454134438484"><ele>1052.0</ele><time>2026-04-18T09:56:53.999Z</time></trkpt><trkpt lat="41.92876637837306" lon="13.704592687106706"><ele>1052.0</ele><time>2026-04-18T09:56:54.999Z</time></trkpt><trkpt lat="41.928932567887756" lon="13.704612933662965"><ele>1052.0</ele><time>2026-04-18T09:56:55.999Z</time></trkpt><trkpt lat="41.92908544507709" lon="13.70465882687244"><ele>1052.0</ele><time>2026-04-18T09:56:56.999Z</time></trkpt><trkpt lat="41.929235127831454" lon="13.70474733703108"><ele>1045.6666666666667</ele><time>2026-04-18T09:56:57.999Z</time></trkpt><trkpt lat="41.929380082461655" lon="13.704854112320053"><ele>1039.3333333333333</ele><time>2026-04-18T09:56:58.999Z</time></trkpt><trkpt lat="41.92951636646738" lon="13.704963939149081"><ele>1033.0</ele><time>2026-04-18T09:56:59.999Z</time></trkpt><trkpt lat="41.92963581632997" lon="13.705071178548133"><ele>1033.0</ele><time>2026-04-18T09:57:00.999Z</time></trkpt><trkpt lat="41.92972115104994" lon="13.705184862523817"><ele>1033.0</ele><time>2026-04-18T09:57:01.999Z</time></trkpt><trkpt lat="41.92977487852324" lon="13.70531152249905"><ele>1033.0</ele><time>2026-04-18T09:57:02.999Z</time></trkpt><trkpt lat="41.929795623444384" lon="13.705447554600326"><ele>1033.0</ele><time>2026-04-18T09:57:03.999Z</time></trkpt><trkpt lat="41.92977807655763" lon="13.70558314164588"><ele>1033.0</ele><time>2026-04-18T09:57:04.999Z</time></trkpt><trkpt lat="41.92971386002261" lon="13.705714556908463"><ele>1033.5</ele><time>2026-04-18T09:57:05.999Z</time></trkpt><trkpt lat="41.929618548605646" lon="13.705819143171528"><ele>1034.0</ele><time>2026-04-18T09:57:06.999Z</time></trkpt><trkpt lat="41.929540511667334" lon="13.70595338582784"><ele>1034.5</ele><time>2026-04-18T09:57:07.999Z</time></trkpt><trkpt lat="41.929494892011846" lon="13.706086905609938"><ele>1035.0</ele><time>2026-04-18T09:57:08.999Z</time></trkpt><trkpt lat="41.92944238279641" lon="13.706198393659632"><ele>1035.2</ele><time>2026-04-18T09:57:09.999Z</time></trkpt><trkpt lat="41.92939402429394" lon="13.706308870111117"><ele>1035.4</ele><time>2026-04-18T09:57:10.999Z</time></trkpt><trkpt lat="41.92929602100763" lon="13.70638587359156"><ele>1035.6</ele><time>2026-04-18T09:57:11.999Z</time></trkpt><trkpt lat="41.92918101033264" lon="13.706431640304093"><ele>1035.8</ele><time>2026-04-18T09:57:12.999Z</time></trkpt><trkpt lat="41.92907482791638" lon="13.706451824742732"><ele>1036.0</ele><time>2026-04-18T09:57:13.999Z</time></trkpt><trkpt lat="41.9289790745318" lon="13.706472198406422"><ele>1036.0</ele><time>2026-04-18T09:57:14.999Z</time></trkpt><trkpt lat="41.92889176391319" lon="13.706490860250472"><ele>1036.0</ele><time>2026-04-18T09:57:15.999Z</time></trkpt><trkpt lat="41.928811839182536" lon="13.706507749156438"><ele>1036.0</ele><time>2026-04-18T09:57:16.999Z</time></trkpt><trkpt lat="41.92873598563228" lon="13.706541316330496"><ele>1036.0</ele><time>2026-04-18T09:57:17.999Z</time></trkpt><trkpt lat="41.92867350822342" lon="13.706619673084374"><ele>1036.0</ele><time>2026-04-18T09:57:18.999Z</time></trkpt><trkpt lat="41.9286290157204" lon="13.706723825994311"><ele>1036.0</ele><time>2026-04-18T09:57:19.999Z</time></trkpt><trkpt lat="41.92863628082599" lon="13.706859752491413"><ele>1034.3999999999999</ele><time>2026-04-18T09:57:20.999Z</time></trkpt><trkpt lat="41.928721504451644" lon="13.706967699206368"><ele>1032.8</ele><time>2026-04-18T09:57:21.999Z</time></trkpt><trkpt lat="41.92878143220037" lon="13.70709599215157"><ele>1031.1999999999998</ele><time>2026-04-18T09:57:22.999Z</time></trkpt><trkpt lat="41.928851617132345" lon="13.707206690749153"><ele>1029.6</ele><time>2026-04-18T09:57:23.999Z</time></trkpt><trkpt lat="41.92891340618474" lon="13.70730987176726"><ele>1028.0</ele><time>2026-04-18T09:57:24.999Z</time></trkpt><trkpt lat="41.92895194479032" lon="13.707409789498854"><ele>1028.0</ele><time>2026-04-18T09:57:25.999Z</time></trkpt><trkpt lat="41.92897316796124" lon="13.707513057369773"><ele>1028.0</ele><time>2026-04-18T09:57:26.999Z</time></trkpt><trkpt lat="41.928942313439265" lon="13.707627162770715"><ele>1028.0</ele><time>2026-04-18T09:57:27.999Z</time></trkpt><trkpt lat="41.928877371049715" lon="13.707728087157921"><ele>1028.0</ele><time>2026-04-18T09:57:28.999Z</time></trkpt><trkpt lat="41.928816269796705" lon="13.707809131359157"><ele>1028.0</ele><time>2026-04-18T09:57:29.999Z</time></trkpt><trkpt lat="41.92877352347019" lon="13.707883452042898"><ele>1028.0</ele><time>2026-04-18T09:57:30.999Z</time></trkpt><trkpt lat="41.92874540257875" lon="13.707970708526952"><ele>1028.2</ele><time>2026-04-18T09:57:31.999Z</time></trkpt><trkpt lat="41.92872779852749" lon="13.708076789400035"><ele>1028.4</ele><time>2026-04-18T09:57:32.999Z</time></trkpt><trkpt lat="41.928766631717146" lon="13.708199987116739"><ele>1028.6000000000001</ele><time>2026-04-18T09:57:33.999Z</time></trkpt><trkpt lat="41.92885360572372" lon="13.708309588357672"><ele>1028.8</ele><time>2026-04-18T09:57:34.999Z</time></trkpt><trkpt lat="41.928969496035464" lon="13.708363178257258"><ele>1029.0</ele><time>2026-04-18T09:57:35.999Z</time></trkpt><trkpt lat="41.92909301506946" lon="13.70839203226013"><ele>1025.75</ele><time>2026-04-18T09:57:36.999Z</time></trkpt><trkpt lat="41.92922798191411" lon="13.708417132669036"><ele>1022.5</ele><time>2026-04-18T09:57:37.999Z</time></trkpt><trkpt lat="41.92937178033889" lon="13.708443120553975"><ele>1019.25</ele><time>2026-04-18T09:57:38.999Z</time></trkpt><trkpt lat="41.92952733885115" lon="13.708477313443403"><ele>1016.0</ele><time>2026-04-18T09:57:39.999Z</time></trkpt><trkpt lat="41.92969221084441" lon="13.708499257066105"><ele>1016.0</ele><time>2026-04-18T09:57:40.999Z</time></trkpt><trkpt lat="41.92986140663808" lon="13.708560936381502"><ele>1016.0</ele><time>2026-04-18T09:57:41.999Z</time></trkpt><trkpt lat="41.93000259523635" lon="13.708620204204323"><ele>1016.0</ele><time>2026-04-18T09:57:42.999Z</time></trkpt><trkpt lat="41.93011533404148" lon="13.708680030145645"><ele>1016.0</ele><time>2026-04-18T09:57:43.999Z</time></trkpt><trkpt lat="41.93020674456697" lon="13.708762541278283"><ele>1016.25</ele><time>2026-04-18T09:57:44.999Z</time></trkpt><trkpt lat="41.93026794259082" lon="13.708905402098686"><ele>1016.5</ele><time>2026-04-18T09:57:45.999Z</time></trkpt><trkpt lat="41.93030029598816" lon="13.709062970582936"><ele>1016.75</ele><time>2026-04-18T09:57:46.999Z</time></trkpt><trkpt lat="41.93033413526356" lon="13.709200755192986"><ele>1017.0</ele><time>2026-04-18T09:57:47.999Z</time></trkpt><trkpt lat="41.93042927737082" lon="13.709254092346699"><ele>1017.0</ele><time>2026-04-18T09:57:48.999Z</time></trkpt><trkpt lat="41.930543726592184" lon="13.709258865263477"><ele>1017.0</ele><time>2026-04-18T09:57:49.999Z</time></trkpt><trkpt lat="41.93067646614911" lon="13.709201650894038"><ele>1017.0</ele><time>2026-04-18T09:57:50.999Z</time></trkpt><trkpt lat="41.93080690201954" lon="13.709085403939367"><ele>1017.0</ele><time>2026-04-18T09:57:52Z</time></trkpt><trkpt lat="41.930923019108356" lon="13.708920448859558"><ele>1016.0</ele><time>2026-04-18T09:57:53Z</time></trkpt><trkpt lat="41.931012457714296" lon="13.708768529201867"><ele>1015.0</ele><time>2026-04-18T09:57:54Z</time></trkpt><trkpt lat="41.93112089666783" lon="13.708646060854965"><ele>1014.0</ele><time>2026-04-18T09:57:55Z</time></trkpt><trkpt lat="41.93126115619531" lon="13.708570048097409"><ele>1013.0</ele><time>2026-04-18T09:57:56Z</time></trkpt><trkpt lat="41.93137539244836" lon="13.708514489090355"><ele>1013.0</ele><time>2026-04-18T09:57:57Z</time></trkpt><trkpt lat="41.93147586357326" lon="13.708494719834711"><ele>1013.0</ele><time>2026-04-18T09:57:58Z</time></trkpt><trkpt lat="41.931557918450196" lon="13.708524117617898"><ele>1013.0</ele><time>2026-04-18T09:57:59Z</time></trkpt><trkpt lat="41.93163333981384" lon="13.708613767619777"><ele>1013.0</ele><time>2026-04-18T09:58:00Z</time></trkpt><trkpt lat="41.93170426954867" lon="13.708766642337949"><ele>1013.0</ele><time>2026-04-18T09:58:01Z</time></trkpt><trkpt lat="41.931814604823316" lon="13.70892131710294"><ele>1005.6666666666667</ele><time>2026-04-18T09:58:02Z</time></trkpt><trkpt lat="41.93197779138414" lon="13.709028821019833"><ele>998.3333333333333</ele><time>2026-04-18T09:58:03Z</time></trkpt><trkpt lat="41.932149356082384" lon="13.709124223120813"><ele>991.0</ele><time>2026-04-18T09:58:04Z</time></trkpt><trkpt lat="41.93229766558868" lon="13.709228519891182"><ele>991.0</ele><time>2026-04-18T09:58:05Z</time></trkpt><trkpt lat="41.932404083344224" lon="13.709367551281437"><ele>991.0</ele><time>2026-04-18T09:58:06Z</time></trkpt><trkpt lat="41.93249193519974" lon="13.709520452397125"><ele>991.0</ele><time>2026-04-18T09:58:07Z</time></trkpt><trkpt lat="41.93256373551388" lon="13.70971355747034"><ele>989.6666666666666</ele><time>2026-04-18T09:58:08Z</time></trkpt><trkpt lat="41.93262946200177" lon="13.709935988594438"><ele>988.3333333333333</ele><time>2026-04-18T09:58:09Z</time></trkpt><trkpt lat="41.932692034752314" lon="13.710136658660403"><ele>987.0</ele><time>2026-04-18T09:58:10Z</time></trkpt><trkpt lat="41.93276676901848" lon="13.710322081032988"><ele>987.0</ele><time>2026-04-18T09:58:11Z</time></trkpt><trkpt lat="41.93289752259365" lon="13.710484757504673"><ele>987.0</ele><time>2026-04-18T09:58:12Z</time></trkpt><trkpt lat="41.93303278265382" lon="13.710613224652565"><ele>987.0</ele><time>2026-04-18T09:58:13Z</time></trkpt><trkpt lat="41.933121445301055" lon="13.710746722518984"><ele>987.0</ele><time>2026-04-18T09:58:14Z</time></trkpt><trkpt lat="41.93316615825585" lon="13.710884530378324"><ele>987.0</ele><time>2026-04-18T09:58:15Z</time></trkpt><trkpt lat="41.93318669102326" lon="13.711030709392233"><ele>987.0</ele><time>2026-04-18T09:58:16Z</time></trkpt><trkpt lat="41.93314533118153" lon="13.711185160239799"><ele>987.0</ele><time>2026-04-18T09:58:17Z</time></trkpt><trkpt lat="41.93308027960516" lon="13.711362217196948"><ele>987.0</ele><time>2026-04-18T09:58:18Z</time></trkpt><trkpt lat="41.93303077467356" lon="13.711568515487759"><ele>987.0</ele><time>2026-04-18T09:58:19Z</time></trkpt><trkpt lat="41.93300534758097" lon="13.711753586746505"><ele>987.0</ele><time>2026-04-18T09:58:20Z</time></trkpt><trkpt lat="41.9330300535642" lon="13.711919012546204"><ele>987.0</ele><time>2026-04-18T09:58:21Z</time></trkpt><trkpt lat="41.93306203210617" lon="13.71206501591202"><ele>987.0</ele><time>2026-04-18T09:58:22Z</time></trkpt><trkpt lat="41.933131225686594" lon="13.712193800378794"><ele>987.0</ele><time>2026-04-18T09:58:23Z</time></trkpt><trkpt lat="41.93323528203132" lon="13.712294103210715"><ele>987.0</ele><time>2026-04-18T09:58:24Z</time></trkpt><trkpt lat="41.93337180045632" lon="13.712358882404551"><ele>987.0</ele><time>2026-04-18T09:58:25Z</time></trkpt><trkpt lat="41.93354640833582" lon="13.71237980605628"><ele>987.0</ele><time>2026-04-18T09:58:26Z</time></trkpt><trkpt lat="41.933743884135836" lon="13.712382116832105"><ele>987.0</ele><time>2026-04-18T09:58:27Z</time></trkpt><trkpt lat="41.93394108110233" lon="13.712396953738043"><ele>987.0</ele><time>2026-04-18T09:58:28Z</time></trkpt><trkpt lat="41.93413069685904" lon="13.712410065281809"><ele>989.3333333333333</ele><time>2026-04-18T09:58:29Z</time></trkpt><trkpt lat="41.93432648500315" lon="13.71237969907603"><ele>991.6666666666666</ele><time>2026-04-18T09:58:30Z</time></trkpt><trkpt lat="41.934542099880474" lon="13.712288630013585"><ele>994.0</ele><time>2026-04-18T09:58:30.999Z</time></trkpt><trkpt lat="41.934759115211804" lon="13.7121763057317"><ele>994.0</ele><time>2026-04-18T09:58:31.999Z</time></trkpt><trkpt lat="41.93496542770186" lon="13.712065115518303"><ele>994.0</ele><time>2026-04-18T09:58:32.999Z</time></trkpt><trkpt lat="41.93515187736185" lon="13.711959876157396"><ele>994.0</ele><time>2026-04-18T09:58:33.999Z</time></trkpt><trkpt lat="41.93533840101548" lon="13.711816538313723"><ele>987.0</ele><time>2026-04-18T09:58:34.999Z</time></trkpt><trkpt lat="41.93552295151161" lon="13.711632889028724"><ele>980.0</ele><time>2026-04-18T09:58:35.999Z</time></trkpt><trkpt lat="41.93570372989608" lon="13.711427424821265"><ele>980.0</ele><time>2026-04-18T09:58:36.999Z</time></trkpt><trkpt lat="41.935860358302676" lon="13.711236185643623"><ele>980.0</ele><time>2026-04-18T09:58:37.999Z</time></trkpt><trkpt lat="41.935990862197485" lon="13.711038676400545"><ele>980.0</ele><time>2026-04-18T09:58:38.999Z</time></trkpt><trkpt lat="41.93609101645004" lon="13.710849626851944"><ele>977.75</ele><time>2026-04-18T09:58:39.999Z</time></trkpt><trkpt lat="41.93618552265892" lon="13.710696635383037"><ele>975.5</ele><time>2026-04-18T09:58:40.999Z</time></trkpt><trkpt lat="41.93629032215266" lon="13.710562680108273"><ele>973.25</ele><time>2026-04-18T09:58:41.999Z</time></trkpt><trkpt lat="41.936404329742274" lon="13.710466151125768"><ele>971.0</ele><time>2026-04-18T09:58:42.999Z</time></trkpt><trkpt lat="41.93654074404272" lon="13.710409215305152"><ele>971.0</ele><time>2026-04-18T09:58:43.999Z</time></trkpt><trkpt lat="41.93669053248654" lon="13.710386620096017"><ele>971.0</ele><time>2026-04-18T09:58:44.999Z</time></trkpt><trkpt lat="41.936846496956406" lon="13.710411228363073"><ele>971.0</ele><time>2026-04-18T09:58:45.999Z</time></trkpt><trkpt lat="41.93698033506087" lon="13.710474027646478"><ele>966.5</ele><time>2026-04-18T09:58:46.999Z</time></trkpt><trkpt lat="41.937107139782434" lon="13.710570518916441"><ele>962.0</ele><time>2026-04-18T09:58:47.999Z</time></trkpt><trkpt lat="41.937203331874386" lon="13.710716578126513"><ele>957.5</ele><time>2026-04-18T09:58:48.999Z</time></trkpt><trkpt lat="41.93728531897255" lon="13.710883760843474"><ele>953.0</ele><time>2026-04-18T09:58:49.999Z</time></trkpt><trkpt lat="41.93734680069691" lon="13.71109023737358"><ele>953.0</ele><time>2026-04-18T09:58:50.999Z</time></trkpt><trkpt lat="41.9373938735593" lon="13.711332195772151"><ele>953.0</ele><time>2026-04-18T09:58:51.999Z</time></trkpt><trkpt lat="41.93741661326937" lon="13.711555717424305"><ele>953.0</ele><time>2026-04-18T09:58:52.999Z</time></trkpt><trkpt lat="41.93740432959057" lon="13.71181957711552"><ele>956.5</ele><time>2026-04-18T09:58:53.999Z</time></trkpt><trkpt lat="41.9374059158215" lon="13.712063365880487"><ele>960.0</ele><time>2026-04-18T09:58:54.999Z</time></trkpt><trkpt lat="41.937378769642514" lon="13.712242181384807"><ele>963.5</ele><time>2026-04-18T09:58:55.999Z</time></trkpt><trkpt lat="41.937375322593546" lon="13.712370223483767"><ele>967.0</ele><time>2026-04-18T09:58:56.999Z</time></trkpt><trkpt lat="41.93741195279343" lon="13.71248817907388"><ele>967.0</ele><time>2026-04-18T09:58:57.999Z</time></trkpt><trkpt lat="41.93744763815821" lon="13.712586634277717"><ele>967.0</ele><time>2026-04-18T09:58:58.999Z</time></trkpt><trkpt lat="41.93755271509768" lon="13.712625731383092"><ele>967.0</ele><time>2026-04-18T09:58:59.999Z</time></trkpt><trkpt lat="41.937652347801645" lon="13.712611653159783"><ele>967.0</ele><time>2026-04-18T09:59:00.999Z</time></trkpt><trkpt lat="41.93777856793481" lon="13.71253631767582"><ele>967.0</ele><time>2026-04-18T09:59:01.999Z</time></trkpt><trkpt lat="41.937921301881964" lon="13.712436281792833"><ele>966.3333333333333</ele><time>2026-04-18T09:59:02.999Z</time></trkpt><trkpt lat="41.93807786742405" lon="13.712346544232254"><ele>965.6666666666667</ele><time>2026-04-18T09:59:03.999Z</time></trkpt><trkpt lat="41.93823316372755" lon="13.712258009038393"><ele>965.0</ele><time>2026-04-18T09:59:04.999Z</time></trkpt><trkpt lat="41.93838776332581" lon="13.712154275464918"><ele>966.3333333333334</ele><time>2026-04-18T09:59:05.999Z</time></trkpt><trkpt lat="41.93853374961108" lon="13.712016659540312"><ele>967.6666666666667</ele><time>2026-04-18T09:59:06.999Z</time></trkpt><trkpt lat="41.938659255429826" lon="13.711822604854902"><ele>969.0</ele><time>2026-04-18T09:59:07.999Z</time></trkpt><trkpt lat="41.93877109177216" lon="13.711597061247833"><ele>964.3333333333333</ele><time>2026-04-18T09:59:08.999Z</time></trkpt><trkpt lat="41.938863758264716" lon="13.711394170241759"><ele>959.6666666666666</ele><time>2026-04-18T09:59:09.999Z</time></trkpt><trkpt lat="41.938952227201675" lon="13.711207595136187"><ele>955.0</ele><time>2026-04-18T09:59:10.999Z</time></trkpt><trkpt lat="41.939044411150476" lon="13.711039923558674"><ele>950.3333333333333</ele><time>2026-04-18T09:59:11.999Z</time></trkpt><trkpt lat="41.93914824346964" lon="13.71088295431036"><ele>945.6666666666667</ele><time>2026-04-18T09:59:12.999Z</time></trkpt><trkpt lat="41.939271425067645" lon="13.71073593879284"><ele>941.0</ele><time>2026-04-18T09:59:13.999Z</time></trkpt><trkpt lat="41.939400208202414" lon="13.710614153855671"><ele>941.0</ele><time>2026-04-18T09:59:14.999Z</time></trkpt><trkpt lat="41.93952211426825" lon="13.710518823108158"><ele>941.0</ele><time>2026-04-18T09:59:15.999Z</time></trkpt><trkpt lat="41.93964170855808" lon="13.71044591523176"><ele>941.0</ele><time>2026-04-18T09:59:16.999Z</time></trkpt><trkpt lat="41.93976228287475" lon="13.710398529462378"><ele>941.0</ele><time>2026-04-18T09:59:17.999Z</time></trkpt><trkpt lat="41.9398820260724" lon="13.710354167267308"><ele>941.0000000000001</ele><time>2026-04-18T09:59:18.999Z</time></trkpt><trkpt lat="41.939965704234666" lon="13.71037135499891"><ele>941.0</ele><time>2026-04-18T09:59:19.999Z</time></trkpt><trkpt lat="41.94006041578067" lon="13.710365997839139"><ele>941.0</ele><time>2026-04-18T09:59:21.999Z</time></trkpt><trkpt lat="41.940134790079014" lon="13.71031669034228"><ele>941.0</ele><time>2026-04-18T10:00:12Z</time></trkpt><trkpt lat="41.94012768525547" lon="13.710188141221236"><ele>941.0000000000001</ele><time>2026-04-18T10:00:14Z</time></trkpt><trkpt lat="41.94008421438061" lon="13.710109603658216"><ele>941.0</ele><time>2026-04-18T10:00:15Z</time></trkpt><trkpt lat="41.939981131464826" lon="13.710045905697426"><ele>941.0000000000001</ele><time>2026-04-18T10:00:17Z</time></trkpt><trkpt lat="41.93988728797967" lon="13.710074229358284"><ele>941.0</ele><time>2026-04-18T10:00:19Z</time></trkpt><trkpt lat="41.93981110541205" lon="13.710101384127555"><ele>941.0</ele><time>2026-04-18T10:00:21Z</time></trkpt><trkpt lat="41.93973487219621" lon="13.71013078822876"><ele>941.0</ele><time>2026-04-18T10:00:23Z</time></trkpt><trkpt lat="41.9396548328949" lon="13.710168731451134"><ele>941.0000000000001</ele><time>2026-04-18T10:00:25Z</time></trkpt><trkpt lat="41.93956725057343" lon="13.710212584661702"><ele>941.0</ele><time>2026-04-18T10:00:27Z</time></trkpt><trkpt lat="41.93944816907095" lon="13.710277580620806"><ele>941.0000000000001</ele><time>2026-04-18T10:00:29Z</time></trkpt><trkpt lat="41.93938536913829" lon="13.710313922363486"><ele>941.0</ele><time>2026-04-18T10:00:29.999Z</time></trkpt><trkpt lat="41.93932714977199" lon="13.710347613347178"><ele>941.0</ele><time>2026-04-18T10:00:30.999Z</time></trkpt><trkpt lat="41.93922993351561" lon="13.71040841887389"><ele>941.0</ele><time>2026-04-18T10:00:32.999Z</time></trkpt><trkpt lat="41.93914853040887" lon="13.710463747898606"><ele>941.0000000000001</ele><time>2026-04-18T10:00:34.999Z</time></trkpt><trkpt lat="41.93904982799188" lon="13.710540562390403"><ele>941.0</ele><time>2026-04-18T10:00:36.999Z</time></trkpt><trkpt lat="41.93896991824804" lon="13.710614073866594"><ele>940.0000000000001</ele><time>2026-04-18T10:00:38.999Z</time></trkpt><trkpt lat="41.93889014853281" lon="13.710708548870883"><ele>939.0</ele><time>2026-04-18T10:00:40.999Z</time></trkpt><trkpt lat="41.93883328084395" lon="13.710789105436554"><ele>938.0</ele><time>2026-04-18T10:00:42.999Z</time></trkpt><trkpt lat="41.938785274830444" lon="13.710864917214332"><ele>937.0</ele><time>2026-04-18T10:00:44.999Z</time></trkpt><trkpt lat="41.938735079154" lon="13.710946179820876"><ele>936.0000000000001</ele><time>2026-04-18T10:00:46.999Z</time></trkpt><trkpt lat="41.93868071699679" lon="13.711035159357502"><ele>935.0</ele><time>2026-04-18T10:00:48.999Z</time></trkpt><trkpt lat="41.938621047067635" lon="13.711132826658051"><ele>934.75</ele><time>2026-04-18T10:00:50.999Z</time></trkpt><trkpt lat="41.93855801371182" lon="13.711232341367253"><ele>934.5</ele><time>2026-04-18T10:00:52.999Z</time></trkpt><trkpt lat="41.93847309807216" lon="13.711351905264067"><ele>934.25</ele><time>2026-04-18T10:00:54.999Z</time></trkpt><trkpt lat="41.9383799136665" lon="13.711452077330259"><ele>934.0</ele><time>2026-04-18T10:00:56.999Z</time></trkpt><trkpt lat="41.938276815976245" lon="13.711518742662289"><ele>934.0</ele><time>2026-04-18T10:00:58.999Z</time></trkpt><trkpt lat="41.93817332284024" lon="13.711511883464091"><ele>934.0</ele><time>2026-04-18T10:01:00.999Z</time></trkpt><trkpt lat="41.93812129430984" lon="13.711381555040187"><ele>934.0</ele><time>2026-04-18T10:01:02.999Z</time></trkpt><trkpt lat="41.93811580677799" lon="13.711224365921755"><ele>934.0</ele><time>2026-04-18T10:01:04.999Z</time></trkpt><trkpt lat="41.9380966547886" lon="13.711055363096955"><ele>930.8333333333333</ele><time>2026-04-18T10:01:06.999Z</time></trkpt><trkpt lat="41.93808215660527" lon="13.710944348689209"><ele>927.6666666666666</ele><time>2026-04-18T10:01:07.999Z</time></trkpt><trkpt lat="41.938080447083735" lon="13.71083245495119"><ele>924.5</ele><time>2026-04-18T10:01:08.999Z</time></trkpt><trkpt lat="41.9380830346044" lon="13.710721086807945"><ele>921.3333333333333</ele><time>2026-04-18T10:01:09.999Z</time></trkpt><trkpt lat="41.938081759907504" lon="13.710614449396639"><ele>918.1666666666666</ele><time>2026-04-18T10:01:10.999Z</time></trkpt><trkpt lat="41.938080108965956" lon="13.710521946713063"><ele>915.0</ele><time>2026-04-18T10:01:11.999Z</time></trkpt><trkpt lat="41.938076368688165" lon="13.710371354756218"><ele>911.8</ele><time>2026-04-18T10:01:13.999Z</time></trkpt><trkpt lat="41.93806638395414" lon="13.710227920531382"><ele>908.6</ele><time>2026-04-18T10:01:15.999Z</time></trkpt><trkpt lat="41.938025918744856" lon="13.710064032021428"><ele>905.4000000000001</ele><time>2026-04-18T10:01:17.999Z</time></trkpt><trkpt lat="41.93798716121931" lon="13.709984879720452"><ele>902.2</ele><time>2026-04-18T10:01:18.999Z</time></trkpt><trkpt lat="41.937946398817026" lon="13.709907765088447"><ele>899.0</ele><time>2026-04-18T10:01:19.999Z</time></trkpt><trkpt lat="41.93790199859624" lon="13.709823795067763"><ele>899.0000000000001</ele><time>2026-04-18T10:01:20.999Z</time></trkpt><trkpt lat="41.93786303857915" lon="13.709731818471186"><ele>899.0</ele><time>2026-04-18T10:01:21.999Z</time></trkpt><trkpt lat="41.937837979846314" lon="13.709647373407783"><ele>899.0</ele><time>2026-04-18T10:01:22.999Z</time></trkpt><trkpt lat="41.93782465799437" lon="13.709562562227243"><ele>899.0</ele><time>2026-04-18T10:01:23.999Z</time></trkpt><trkpt lat="41.93781473364032" lon="13.709469736337617"><ele>899.0000000000001</ele><time>2026-04-18T10:01:24.999Z</time></trkpt><trkpt lat="41.937803623233826" lon="13.709326994644378"><ele>899.0</ele><time>2026-04-18T10:01:26.999Z</time></trkpt><trkpt lat="41.93778429366483" lon="13.709158010381374"><ele>902.2</ele><time>2026-04-18T10:01:28.999Z</time></trkpt><trkpt lat="41.93775858949789" lon="13.709068110046344"><ele>905.4000000000001</ele><time>2026-04-18T10:01:29.999Z</time></trkpt><trkpt lat="41.93769513138127" lon="13.708915512752155"><ele>908.6</ele><time>2026-04-18T10:01:31.999Z</time></trkpt><trkpt lat="41.93765492705049" lon="13.70883071900638"><ele>911.8</ele><time>2026-04-18T10:01:32.999Z</time></trkpt><trkpt lat="41.937586309841045" lon="13.70868953629968"><ele>915.0</ele><time>2026-04-18T10:01:34.999Z</time></trkpt><trkpt lat="41.93754504169861" lon="13.708610198216922"><ele>911.1666666666666</ele><time>2026-04-18T10:01:35.999Z</time></trkpt><trkpt lat="41.937506341323555" lon="13.708539409355515"><ele>907.3333333333333</ele><time>2026-04-18T10:01:36.999Z</time></trkpt><trkpt lat="41.93745687208113" lon="13.708465008859687"><ele>903.5</ele><time>2026-04-18T10:01:37.999Z</time></trkpt><trkpt lat="41.93739658237966" lon="13.70841369810662"><ele>899.6666666666666</ele><time>2026-04-18T10:01:38.999Z</time></trkpt><trkpt lat="41.93733011179651" lon="13.708382715192979"><ele>895.8333333333333</ele><time>2026-04-18T10:01:39.999Z</time></trkpt><trkpt lat="41.937251745515724" lon="13.708383170112102"><ele>892.0</ele><time>2026-04-18T10:01:40.999Z</time></trkpt><trkpt lat="41.93716072479743" lon="13.708374608475385"><ele>892.0</ele><time>2026-04-18T10:01:41.999Z</time></trkpt><trkpt lat="41.93706262944923" lon="13.708410299145793"><ele>892.0</ele><time>2026-04-18T10:01:42.999Z</time></trkpt><trkpt lat="41.93695646320879" lon="13.708454010399272"><ele>892.0</ele><time>2026-04-18T10:01:43.999Z</time></trkpt><trkpt lat="41.936852930025324" lon="13.708497559653518"><ele>892.0</ele><time>2026-04-18T10:01:44.999Z</time></trkpt><trkpt lat="41.93674129730031" lon="13.708544539529717"><ele>892.0</ele><time>2026-04-18T10:01:45.999Z</time></trkpt><trkpt lat="41.93662345955876" lon="13.708594130746098"><ele>899.75</ele><time>2026-04-18T10:01:46.999Z</time></trkpt><trkpt lat="41.936502093635255" lon="13.708644430073539"><ele>907.5</ele><time>2026-04-18T10:01:47.999Z</time></trkpt><trkpt lat="41.936378971778666" lon="13.708690804652445"><ele>915.25</ele><time>2026-04-18T10:01:48.999Z</time></trkpt><trkpt lat="41.9362563759367" lon="13.708733111486806"><ele>923.0</ele><time>2026-04-18T10:01:49.999Z</time></trkpt><trkpt lat="41.936134165916386" lon="13.708781973905369"><ele>923.0</ele><time>2026-04-18T10:01:50.999Z</time></trkpt><trkpt lat="41.936008062157974" lon="13.70879653663587"><ele>923.0</ele><time>2026-04-18T10:01:51.999Z</time></trkpt><trkpt lat="41.935876579519736" lon="13.70880306346178"><ele>923.0</ele><time>2026-04-18T10:01:52.999Z</time></trkpt><trkpt lat="41.935744699349314" lon="13.708809867796932"><ele>923.0</ele><time>2026-04-18T10:01:53.999Z</time></trkpt><trkpt lat="41.93561115633844" lon="13.708822903756275"><ele>921.2</ele><time>2026-04-18T10:01:54.999Z</time></trkpt><trkpt lat="41.93549361518101" lon="13.708802147839119"><ele>919.4</ele><time>2026-04-18T10:01:55.999Z</time></trkpt><trkpt lat="41.93539048678155" lon="13.708801797646126"><ele>917.6000000000001</ele><time>2026-04-18T10:01:56.999Z</time></trkpt><trkpt lat="41.93530183009941" lon="13.708813418629726"><ele>915.8000000000001</ele><time>2026-04-18T10:01:57.999Z</time></trkpt><trkpt lat="41.935230240641985" lon="13.708749884072503"><ele>914.0</ele><time>2026-04-18T10:01:58.999Z</time></trkpt><trkpt lat="41.9351931319673" lon="13.708660927341814"><ele>908.2</ele><time>2026-04-18T10:01:59.999Z</time></trkpt><trkpt lat="41.93519268328073" lon="13.708550754464541"><ele>902.4000000000001</ele><time>2026-04-18T10:02:00.999Z</time></trkpt><trkpt lat="41.935234289939075" lon="13.708437556041783"><ele>896.6</ele><time>2026-04-18T10:02:01.999Z</time></trkpt><trkpt lat="41.935336315939324" lon="13.708345315739047"><ele>890.8</ele><time>2026-04-18T10:02:02.999Z</time></trkpt><trkpt lat="41.93546038844209" lon="13.708246435278761"><ele>885.0</ele><time>2026-04-18T10:02:04Z</time></trkpt><trkpt lat="41.935577793662006" lon="13.70810143310941"><ele>885.0</ele><time>2026-04-18T10:02:05Z</time></trkpt><trkpt lat="41.93567722885583" lon="13.707920161372373"><ele>885.0</ele><time>2026-04-18T10:02:06Z</time></trkpt><trkpt lat="41.93578032032339" lon="13.70773631348337"><ele>885.0</ele><time>2026-04-18T10:02:07Z</time></trkpt><trkpt lat="41.93587306509388" lon="13.707567468394132"><ele>879.25</ele><time>2026-04-18T10:02:08Z</time></trkpt><trkpt lat="41.93595401848214" lon="13.707401320796299"><ele>873.5</ele><time>2026-04-18T10:02:09Z</time></trkpt><trkpt lat="41.936022621670325" lon="13.707228988744337"><ele>867.75</ele><time>2026-04-18T10:02:10Z</time></trkpt><trkpt lat="41.93607329359174" lon="13.707039325931293"><ele>862.0</ele><time>2026-04-18T10:02:11Z</time></trkpt><trkpt lat="41.936093243328656" lon="13.706825826512155"><ele>860.6666666666666</ele><time>2026-04-18T10:02:12Z</time></trkpt><trkpt lat="41.93607605715782" lon="13.706583284163164"><ele>859.3333333333333</ele><time>2026-04-18T10:02:13Z</time></trkpt><trkpt lat="41.93605849111048" lon="13.706306831779576"><ele>858.0</ele><time>2026-04-18T10:02:14Z</time></trkpt><trkpt lat="41.93608117824593" lon="13.706011536897359"><ele>858.0</ele><time>2026-04-18T10:02:15Z</time></trkpt><trkpt lat="41.9361193813457" lon="13.70574593286949"><ele>858.0</ele><time>2026-04-18T10:02:16Z</time></trkpt><trkpt lat="41.93615367509685" lon="13.705502581577626"><ele>858.0</ele><time>2026-04-18T10:02:17Z</time></trkpt><trkpt lat="41.93618699547612" lon="13.705303627278687"><ele>858.0</ele><time>2026-04-18T10:02:18Z</time></trkpt><trkpt lat="41.936187842862005" lon="13.705138648949994"><ele>858.0</ele><time>2026-04-18T10:02:19Z</time></trkpt><trkpt lat="41.93614592868421" lon="13.704949175113622"><ele>858.0</ele><time>2026-04-18T10:02:20Z</time></trkpt><trkpt lat="41.93605999445191" lon="13.704740006096799"><ele>858.0</ele><time>2026-04-18T10:02:21Z</time></trkpt><trkpt lat="41.93597295824493" lon="13.70451896955078"><ele>857.75</ele><time>2026-04-18T10:02:22Z</time></trkpt><trkpt lat="41.93592286212334" lon="13.704336138269259"><ele>857.5</ele><time>2026-04-18T10:02:23Z</time></trkpt><trkpt lat="41.935916149669765" lon="13.704183419105949"><ele>857.25</ele><time>2026-04-18T10:02:24Z</time></trkpt><trkpt lat="41.93594951936782" lon="13.70402517523045"><ele>857.0</ele><time>2026-04-18T10:02:25Z</time></trkpt><trkpt lat="41.936033230642444" lon="13.703873587325944"><ele>857.0</ele><time>2026-04-18T10:02:26Z</time></trkpt><trkpt lat="41.936122480090184" lon="13.703716427670297"><ele>857.0</ele><time>2026-04-18T10:02:27Z</time></trkpt><trkpt lat="41.936159327526205" lon="13.703491904288411"><ele>857.0</ele><time>2026-04-18T10:02:28Z</time></trkpt><trkpt lat="41.93617292352032" lon="13.703260353485428"><ele>856.25</ele><time>2026-04-18T10:02:29Z</time></trkpt><trkpt lat="41.93618144770791" lon="13.70307505270713"><ele>855.5</ele><time>2026-04-18T10:02:30Z</time></trkpt><trkpt lat="41.93616770227925" lon="13.70291493954084"><ele>854.75</ele><time>2026-04-18T10:02:31Z</time></trkpt><trkpt lat="41.936115850626244" lon="13.702772358343243"><ele>854.0</ele><time>2026-04-18T10:02:31.999Z</time></trkpt><trkpt lat="41.93602190513537" lon="13.702648788756191"><ele>855.0</ele><time>2026-04-18T10:02:32.999Z</time></trkpt><trkpt lat="41.93592068610907" lon="13.702559943184463"><ele>856.0000000000001</ele><time>2026-04-18T10:02:33.999Z</time></trkpt><trkpt lat="41.93584999729991" lon="13.702501977615578"><ele>857.0000000000001</ele><time>2026-04-18T10:02:34.999Z</time></trkpt><trkpt lat="41.93578970579072" lon="13.702366082058754"><ele>858.0</ele><time>2026-04-18T10:02:36.999Z</time></trkpt><trkpt lat="41.93580726395856" lon="13.70227470460637"><ele>859.0</ele><time>2026-04-18T10:02:37.999Z</time></trkpt><trkpt lat="41.93586121286169" lon="13.702216342723503"><ele>856.25</ele><time>2026-04-18T10:02:38.999Z</time></trkpt><trkpt lat="41.93595325953234" lon="13.702219142930128"><ele>853.5</ele><time>2026-04-18T10:02:39.999Z</time></trkpt><trkpt lat="41.93605084524564" lon="13.702290056191837"><ele>850.75</ele><time>2026-04-18T10:02:40.999Z</time></trkpt><trkpt lat="41.93616195689726" lon="13.70243760280169"><ele>848.0</ele><time>2026-04-18T10:02:41.999Z</time></trkpt><trkpt lat="41.936280756759636" lon="13.702573398628184"><ele>848.0</ele><time>2026-04-18T10:02:42.999Z</time></trkpt><trkpt lat="41.93641822890307" lon="13.70274048921348"><ele>848.0</ele><time>2026-04-18T10:02:43.999Z</time></trkpt><trkpt lat="41.936566436479744" lon="13.702902948849784"><ele>848.0</ele><time>2026-04-18T10:02:44.999Z</time></trkpt><trkpt lat="41.936703370877275" lon="13.703028146041596"><ele>846.0</ele><time>2026-04-18T10:02:45.999Z</time></trkpt><trkpt lat="41.93683559133114" lon="13.703130171914383"><ele>844.0</ele><time>2026-04-18T10:02:46.999Z</time></trkpt><trkpt lat="41.93696387485277" lon="13.70321105483994"><ele>842.0</ele><time>2026-04-18T10:02:47.999Z</time></trkpt><trkpt lat="41.93708090246238" lon="13.703294998479487"><ele>840.0</ele><time>2026-04-18T10:02:48.999Z</time></trkpt><trkpt lat="41.937164175658936" lon="13.70342751091864"><ele>840.0</ele><time>2026-04-18T10:02:49.999Z</time></trkpt><trkpt lat="41.937247616994746" lon="13.703566185153237"><ele>840.0</ele><time>2026-04-18T10:02:50.999Z</time></trkpt><trkpt lat="41.937306434635275" lon="13.703734624529513"><ele>840.0</ele><time>2026-04-18T10:02:51.999Z</time></trkpt><trkpt lat="41.937332664292896" lon="13.703921927154028"><ele>840.0</ele><time>2026-04-18T10:02:52.999Z</time></trkpt><trkpt lat="41.93734090386899" lon="13.704136015335477"><ele>839.6666666666667</ele><time>2026-04-18T10:02:53.999Z</time></trkpt><trkpt lat="41.93735069275463" lon="13.704355065240422"><ele>839.3333333333334</ele><time>2026-04-18T10:02:54.999Z</time></trkpt><trkpt lat="41.93736092075351" lon="13.704588184186132"><ele>839.0</ele><time>2026-04-18T10:02:55.999Z</time></trkpt><trkpt lat="41.93737657853597" lon="13.704806714216259"><ele>838.3333333333334</ele><time>2026-04-18T10:02:56.999Z</time></trkpt><trkpt lat="41.93742360223539" lon="13.705012200669557"><ele>837.6666666666667</ele><time>2026-04-18T10:02:57.999Z</time></trkpt><trkpt lat="41.93748654305504" lon="13.70520610014204"><ele>837.0</ele><time>2026-04-18T10:02:58.999Z</time></trkpt><trkpt lat="41.93753971303274" lon="13.70539597937242"><ele>832.75</ele><time>2026-04-18T10:02:59.999Z</time></trkpt><trkpt lat="41.937577693824934" lon="13.705568419267854"><ele>828.5</ele><time>2026-04-18T10:03:00.999Z</time></trkpt><trkpt lat="41.93760198002122" lon="13.705733574739773"><ele>824.25</ele><time>2026-04-18T10:03:01.999Z</time></trkpt><trkpt lat="41.93761480759644" lon="13.705899625796949"><ele>820.0</ele><time>2026-04-18T10:03:02.999Z</time></trkpt><trkpt lat="41.93758939304121" lon="13.706053139041863"><ele>821.6</ele><time>2026-04-18T10:03:03.999Z</time></trkpt><trkpt lat="41.93755290584914" lon="13.706200330830326"><ele>823.2</ele><time>2026-04-18T10:03:04.999Z</time></trkpt><trkpt lat="41.93750829309965" lon="13.706326379431559"><ele>824.8</ele><time>2026-04-18T10:03:05.999Z</time></trkpt><trkpt lat="41.937509087245516" lon="13.70645887428539"><ele>826.4</ele><time>2026-04-18T10:03:06.999Z</time></trkpt><trkpt lat="41.93755954854944" lon="13.70657924693225"><ele>828.0</ele><time>2026-04-18T10:03:07.999Z</time></trkpt><trkpt lat="41.93764537691033" lon="13.706676340942483"><ele>828.0</ele><time>2026-04-18T10:03:08.999Z</time></trkpt><trkpt lat="41.93778238622537" lon="13.706680974467101"><ele>828.0</ele><time>2026-04-18T10:03:09.999Z</time></trkpt><trkpt lat="41.93792384692614" lon="13.706661586797827"><ele>828.0</ele><time>2026-04-18T10:03:10.999Z</time></trkpt><trkpt lat="41.93808870022243" lon="13.706620412512013"><ele>828.0</ele><time>2026-04-18T10:03:11.999Z</time></trkpt><trkpt lat="41.938257128969184" lon="13.70655703784981"><ele>828.3333333333333</ele><time>2026-04-18T10:03:12.999Z</time></trkpt><trkpt lat="41.93842680003602" lon="13.706479019242249"><ele>828.6666666666666</ele><time>2026-04-18T10:03:13.999Z</time></trkpt><trkpt lat="41.93858389648036" lon="13.706418392104341"><ele>829.0</ele><time>2026-04-18T10:03:14.999Z</time></trkpt><trkpt lat="41.93874149401686" lon="13.706407070961822"><ele>829.0</ele><time>2026-04-18T10:03:15.999Z</time></trkpt><trkpt lat="41.93888903348473" lon="13.706415458205864"><ele>829.0</ele><time>2026-04-18T10:03:16.999Z</time></trkpt><trkpt lat="41.939009514945155" lon="13.706398287420772"><ele>829.0</ele><time>2026-04-18T10:03:17.999Z</time></trkpt><trkpt lat="41.93911505346219" lon="13.70633257709986"><ele>829.0</ele><time>2026-04-18T10:03:18.999Z</time></trkpt><trkpt lat="41.93921440187002" lon="13.706202984111588"><ele>824.0</ele><time>2026-04-18T10:03:19.999Z</time></trkpt><trkpt lat="41.93930051784943" lon="13.706064224849285"><ele>819.0</ele><time>2026-04-18T10:03:20.999Z</time></trkpt><trkpt lat="41.93937564548284" lon="13.70595451205701"><ele>814.0</ele><time>2026-04-18T10:03:21.999Z</time></trkpt><trkpt lat="41.93945690735929" lon="13.705879837511901"><ele>809.0</ele><time>2026-04-18T10:03:22.999Z</time></trkpt><trkpt lat="41.9395502110445" lon="13.705858020344754"><ele>804.0</ele><time>2026-04-18T10:03:23.999Z</time></trkpt><trkpt lat="41.939665535900815" lon="13.705874534614596"><ele>804.0</ele><time>2026-04-18T10:03:24.999Z</time></trkpt><trkpt lat="41.93980180210292" lon="13.705956687396364"><ele>804.0</ele><time>2026-04-18T10:03:25.999Z</time></trkpt><trkpt lat="41.93995366597443" lon="13.70605447032523"><ele>804.0</ele><time>2026-04-18T10:03:26.999Z</time></trkpt><trkpt lat="41.94009594735987" lon="13.706130913002083"><ele>803.25</ele><time>2026-04-18T10:03:27.999Z</time></trkpt><trkpt lat="41.94020741270204" lon="13.7061682972019"><ele>802.5</ele><time>2026-04-18T10:03:28.999Z</time></trkpt><trkpt lat="41.940319309436106" lon="13.706145659582496"><ele>801.75</ele><time>2026-04-18T10:03:29.999Z</time></trkpt><trkpt lat="41.940426758865016" lon="13.706067698498872"><ele>801.0</ele><time>2026-04-18T10:03:30.999Z</time></trkpt><trkpt lat="41.94054036639343" lon="13.70596919160246"><ele>801.0</ele><time>2026-04-18T10:03:31.999Z</time></trkpt><trkpt lat="41.940648660666" lon="13.705868854348514"><ele>801.0</ele><time>2026-04-18T10:03:32.999Z</time></trkpt><trkpt lat="41.94075364625891" lon="13.705795588449357"><ele>801.0</ele><time>2026-04-18T10:03:33.999Z</time></trkpt><trkpt lat="41.9408633100372" lon="13.705753851901223"><ele>801.0</ele><time>2026-04-18T10:03:34.999Z</time></trkpt><trkpt lat="41.9409833618507" lon="13.70574494304018"><ele>802.0</ele><time>2026-04-18T10:03:35.999Z</time></trkpt><trkpt lat="41.94109311788637" lon="13.705783550752788"><ele>803.0</ele><time>2026-04-18T10:03:36.999Z</time></trkpt><trkpt lat="41.94119158439326" lon="13.705897497536194"><ele>804.0</ele><time>2026-04-18T10:03:37.999Z</time></trkpt><trkpt lat="41.94131185424954" lon="13.705998878694281"><ele>805.0</ele><time>2026-04-18T10:03:38.999Z</time></trkpt><trkpt lat="41.941446954261565" lon="13.7061095091978"><ele>805.0</ele><time>2026-04-18T10:03:39.999Z</time></trkpt><trkpt lat="41.94159172669728" lon="13.706224712008822"><ele>805.0</ele><time>2026-04-18T10:03:40.999Z</time></trkpt><trkpt lat="41.94173856646877" lon="13.70631243580598"><ele>805.0</ele><time>2026-04-18T10:03:41.999Z</time></trkpt><trkpt lat="41.94185973376916" lon="13.706412141328322"><ele>803.0</ele><time>2026-04-18T10:03:42.999Z</time></trkpt><trkpt lat="41.9419905949083" lon="13.70643654567009"><ele>801.0</ele><time>2026-04-18T10:03:43.999Z</time></trkpt><trkpt lat="41.94213197866992" lon="13.706395497349222"><ele>799.0</ele><time>2026-04-18T10:03:44.999Z</time></trkpt><trkpt lat="41.94226083015484" lon="13.70629079701023"><ele>797.0</ele><time>2026-04-18T10:03:45.999Z</time></trkpt><trkpt lat="41.942367130454734" lon="13.706123251266526"><ele>796.6666666666667</ele><time>2026-04-18T10:03:46.999Z</time></trkpt><trkpt lat="41.94245611812966" lon="13.705885336302842"><ele>796.3333333333333</ele><time>2026-04-18T10:03:47.999Z</time></trkpt><trkpt lat="41.942563787032164" lon="13.705666787910202"><ele>796.0</ele><time>2026-04-18T10:03:48.999Z</time></trkpt><trkpt lat="41.94264608045858" lon="13.705469707848337"><ele>796.0</ele><time>2026-04-18T10:03:49.999Z</time></trkpt><trkpt lat="41.94270717123943" lon="13.705271462764387"><ele>796.0</ele><time>2026-04-18T10:03:50.999Z</time></trkpt><trkpt lat="41.942745218685474" lon="13.705078316436333"><ele>796.0</ele><time>2026-04-18T10:03:51.999Z</time></trkpt><trkpt lat="41.94275400172583" lon="13.70490926887051"><ele>796.0</ele><time>2026-04-18T10:03:52.999Z</time></trkpt><trkpt lat="41.94272638848885" lon="13.704763688124693"><ele>795.25</ele><time>2026-04-18T10:03:53.999Z</time></trkpt><trkpt lat="41.942656217992905" lon="13.704619810119228"><ele>794.5</ele><time>2026-04-18T10:03:54.999Z</time></trkpt><trkpt lat="41.94255253336626" lon="13.70449908949064"><ele>793.75</ele><time>2026-04-18T10:03:55.999Z</time></trkpt><trkpt lat="41.94246703197729" lon="13.704385935597134"><ele>793.0</ele><time>2026-04-18T10:03:56.999Z</time></trkpt><trkpt lat="41.942406830911615" lon="13.704210350716052"><ele>789.75</ele><time>2026-04-18T10:03:57.999Z</time></trkpt><trkpt lat="41.9423633062673" lon="13.704046641277436"><ele>786.5</ele><time>2026-04-18T10:03:58.999Z</time></trkpt><trkpt lat="41.942338136717424" lon="13.703879565927048"><ele>783.25</ele><time>2026-04-18T10:03:59.999Z</time></trkpt><trkpt lat="41.94235924866704" lon="13.70370144590778"><ele>780.0</ele><time>2026-04-18T10:04:00.999Z</time></trkpt><trkpt lat="41.94242300058433" lon="13.703464034217703"><ele>779.0</ele><time>2026-04-18T10:04:01.999Z</time></trkpt><trkpt lat="41.94249387361823" lon="13.703194564417231"><ele>778.0</ele><time>2026-04-18T10:04:02.999Z</time></trkpt><trkpt lat="41.94255175337203" lon="13.702893321671848"><ele>777.0</ele><time>2026-04-18T10:04:03.999Z</time></trkpt><trkpt lat="41.942592678322846" lon="13.702625675994929"><ele>780.0</ele><time>2026-04-18T10:04:04.999Z</time></trkpt><trkpt lat="41.94263493058358" lon="13.702376089791324"><ele>783.0</ele><time>2026-04-18T10:04:05.999Z</time></trkpt><trkpt lat="41.9426790162842" lon="13.70215329310665"><ele>786.0</ele><time>2026-04-18T10:04:06.999Z</time></trkpt><trkpt lat="41.94273050706229" lon="13.701947886191302"><ele>781.0</ele><time>2026-04-18T10:04:07.999Z</time></trkpt><trkpt lat="41.94280427134371" lon="13.701743380771143"><ele>776.0</ele><time>2026-04-18T10:04:08.999Z</time></trkpt><trkpt lat="41.94289856115951" lon="13.701545820008599"><ele>771.0</ele><time>2026-04-18T10:04:10Z</time></trkpt><trkpt lat="41.94299739743078" lon="13.701381795725545"><ele>771.0</ele><time>2026-04-18T10:04:11Z</time></trkpt><trkpt lat="41.943109307027235" lon="13.701246937298334"><ele>771.0</ele><time>2026-04-18T10:04:12Z</time></trkpt><trkpt lat="41.94324832048835" lon="13.701129795359044"><ele>771.0</ele><time>2026-04-18T10:04:13Z</time></trkpt><trkpt lat="41.94340682273512" lon="13.701031466094046"><ele>764.0</ele><time>2026-04-18T10:04:14Z</time></trkpt><trkpt lat="41.94358039531984" lon="13.700952653574761"><ele>757.0</ele><time>2026-04-18T10:04:15Z</time></trkpt><trkpt lat="41.94375675215314" lon="13.700895456388022"><ele>750.0</ele><time>2026-04-18T10:04:16Z</time></trkpt><trkpt lat="41.94391909041415" lon="13.700859101533782"><ele>750.0</ele><time>2026-04-18T10:04:17Z</time></trkpt><trkpt lat="41.94408495359683" lon="13.700838073300167"><ele>750.0</ele><time>2026-04-18T10:04:18Z</time></trkpt><trkpt lat="41.944269091922536" lon="13.700853344989813"><ele>750.0</ele><time>2026-04-18T10:04:19Z</time></trkpt><trkpt lat="41.94446108135758" lon="13.700881567769605"><ele>747.3333333333334</ele><time>2026-04-18T10:04:20Z</time></trkpt><trkpt lat="41.94466099031686" lon="13.700896142626005"><ele>744.6666666666667</ele><time>2026-04-18T10:04:21Z</time></trkpt><trkpt lat="41.94485679781956" lon="13.700901053674544"><ele>742.0</ele><time>2026-04-18T10:04:22Z</time></trkpt><trkpt lat="41.94503473305446" lon="13.700904824903976"><ele>739.6666666666667</ele><time>2026-04-18T10:04:23Z</time></trkpt><trkpt lat="41.94520258425083" lon="13.70091741220533"><ele>737.3333333333334</ele><time>2026-04-18T10:04:24Z</time></trkpt><trkpt lat="41.94537982122389" lon="13.700958098525044"><ele>735.0</ele><time>2026-04-18T10:04:25Z</time></trkpt><trkpt lat="41.945564091842904" lon="13.701016222860284"><ele>735.3333333333334</ele><time>2026-04-18T10:04:26Z</time></trkpt><trkpt lat="41.94574828351072" lon="13.701085919009794"><ele>735.6666666666667</ele><time>2026-04-18T10:04:27Z</time></trkpt><trkpt lat="41.94593840095557" lon="13.70116374201247"><ele>736.0</ele><time>2026-04-18T10:04:28Z</time></trkpt><trkpt lat="41.94613047437736" lon="13.701243379440728"><ele>736.0</ele><time>2026-04-18T10:04:29Z</time></trkpt><trkpt lat="41.946309585076634" lon="13.701319434352731"><ele>736.0</ele><time>2026-04-18T10:04:30Z</time></trkpt><trkpt lat="41.946477232151736" lon="13.701386964036686"><ele>736.0</ele><time>2026-04-18T10:04:31Z</time></trkpt><trkpt lat="41.946642629934374" lon="13.701454652006246"><ele>735.6666666666667</ele><time>2026-04-18T10:04:32Z</time></trkpt><trkpt lat="41.946800224075304" lon="13.70152593437085"><ele>735.3333333333334</ele><time>2026-04-18T10:04:33Z</time></trkpt><trkpt lat="41.94694593776183" lon="13.701598979896936"><ele>735.0</ele><time>2026-04-18T10:04:34Z</time></trkpt><trkpt lat="41.94707992489584" lon="13.701665850944925"><ele>735.0</ele><time>2026-04-18T10:04:34.999Z</time></trkpt><trkpt lat="41.94720774659498" lon="13.701727571748883"><ele>735.0</ele><time>2026-04-18T10:04:35.999Z</time></trkpt><trkpt lat="41.94731541985086" lon="13.701783566489462"><ele>735.0</ele><time>2026-04-18T10:04:36.999Z</time></trkpt><trkpt lat="41.947407245776525" lon="13.70183720808192"><ele>735.0</ele><time>2026-04-18T10:04:37.999Z</time></trkpt><trkpt lat="41.94747574946239" lon="13.701870941902456"><ele>735.0</ele><time>2026-04-18T10:04:38.999Z</time></trkpt><trkpt lat="41.94754546826418" lon="13.701904575346957"><ele>735.1428571428571</ele><time>2026-04-18T10:04:40.999Z</time></trkpt><trkpt lat="41.94760786892593" lon="13.701931070076343"><ele>735.2857142857142</ele><time>2026-04-18T10:05:35.999Z</time></trkpt><trkpt lat="41.947646934764435" lon="13.702006669523751"><ele>735.4285714285714</ele><time>2026-04-18T10:06:08.999Z</time></trkpt><trkpt lat="41.947704626664034" lon="13.701968840114573"><ele>735.5714285714286</ele><time>2026-04-18T10:06:20Z</time></trkpt><trkpt lat="41.94775247617015" lon="13.702026634730707"><ele>735.7142857142857</ele><time>2026-04-18T10:06:28Z</time></trkpt><trkpt lat="41.94769516557197" lon="13.701974982980742"><ele>735.8571428571429</ele><time>2026-04-18T10:07:52.999Z</time></trkpt><trkpt lat="41.947639364176894" lon="13.701923291677298"><ele>736.0</ele><time>2026-04-18T10:08:22Z</time></trkpt><trkpt lat="41.947573897510196" lon="13.70189375107994"><ele>736.0</ele><time>2026-04-18T10:15:19Z</time></trkpt><trkpt lat="41.94763291042095" lon="13.701923865122216"><ele>736.0</ele><time>2026-04-18T10:18:35Z</time></trkpt><trkpt lat="41.94757110526753" lon="13.701895979697031"><ele>736.0</ele><time>2026-04-18T10:21:14Z</time></trkpt><trkpt lat="41.947631415249276" lon="13.701928050706766"><ele>736.0</ele><time>2026-04-18T10:23:26Z</time></trkpt><trkpt lat="41.947699180639596" lon="13.701926941579286"><ele>736.0</ele><time>2026-04-18T10:23:36Z</time></trkpt><trkpt lat="41.947757103736016" lon="13.701993384017365"><ele>736.0</ele><time>2026-04-18T10:23:42Z</time></trkpt><trkpt lat="41.947699281631756" lon="13.701954610515942"><ele>736.0</ele><time>2026-04-18T10:27:40Z</time></trkpt><trkpt lat="41.94761875450592" lon="13.701926566453515"><ele>736.0</ele><time>2026-04-18T10:31:05Z</time></trkpt><trkpt lat="41.947549320103" lon="13.701897702449221"><ele>736.0</ele><time>2026-04-18T10:31:26Z</time></trkpt><trkpt lat="41.94763979041768" lon="13.701927613234963"><ele>736.0</ele><time>2026-04-18T10:34:11Z</time></trkpt><trkpt lat="41.94772286730163" lon="13.701964689296563"><ele>736.0</ele><time>2026-04-18T10:34:12Z</time></trkpt><trkpt lat="41.947812901849275" lon="13.702017162736604"><ele>736.0</ele><time>2026-04-18T10:34:13Z</time></trkpt><trkpt lat="41.94789542139537" lon="13.702060143522242"><ele>736.0</ele><time>2026-04-18T10:34:14Z</time></trkpt><trkpt lat="41.94799877891858" lon="13.702107422702548"><ele>736.0</ele><time>2026-04-18T10:34:15Z</time></trkpt><trkpt lat="41.94810162551479" lon="13.702158873892218"><ele>736.0</ele><time>2026-04-18T10:34:16Z</time></trkpt><trkpt lat="41.94820747634821" lon="13.702201883220301"><ele>736.0</ele><time>2026-04-18T10:34:17Z</time></trkpt><trkpt lat="41.94831196471549" lon="13.702256032487078"><ele>736.0</ele><time>2026-04-18T10:34:18Z</time></trkpt><trkpt lat="41.94841796494379" lon="13.70233909330079"><ele>736.0</ele><time>2026-04-18T10:34:19Z</time></trkpt><trkpt lat="41.948516728397784" lon="13.702447560594988"><ele>736.0</ele><time>2026-04-18T10:34:20Z</time></trkpt><trkpt lat="41.94860846528472" lon="13.702566880880042"><ele>736.0</ele><time>2026-04-18T10:34:21Z</time></trkpt><trkpt lat="41.9487054607453" lon="13.702683410245442"><ele>736.0</ele><time>2026-04-18T10:34:22Z</time></trkpt><trkpt lat="41.94880596947888" lon="13.70279223775954"><ele>736.0</ele><time>2026-04-18T10:34:23Z</time></trkpt><trkpt lat="41.948907805766126" lon="13.702889956617739"><ele>736.0</ele><time>2026-04-18T10:34:24Z</time></trkpt><trkpt lat="41.94901743963768" lon="13.702943351768335"><ele>736.0</ele><time>2026-04-18T10:34:25Z</time></trkpt><trkpt lat="41.949134628475754" lon="13.702971441123422"><ele>736.0</ele><time>2026-04-18T10:34:26Z</time></trkpt><trkpt lat="41.949258506244576" lon="13.70297653759169"><ele>737.0</ele><time>2026-04-18T10:34:27Z</time></trkpt><trkpt lat="41.949373232436486" lon="13.702954446100241"><ele>738.0</ele><time>2026-04-18T10:34:28Z</time></trkpt><trkpt lat="41.9494791746578" lon="13.702894621492163"><ele>739.0</ele><time>2026-04-18T10:34:29Z</time></trkpt><trkpt lat="41.949582179212584" lon="13.702799520959905"><ele>740.0</ele><time>2026-04-18T10:34:30Z</time></trkpt><trkpt lat="41.94967667192616" lon="13.70268505283178"><ele>737.75</ele><time>2026-04-18T10:34:31Z</time></trkpt><trkpt lat="41.94975921403911" lon="13.702547249780267"><ele>735.5</ele><time>2026-04-18T10:34:32Z</time></trkpt><trkpt lat="41.949845925278154" lon="13.702411400669686"><ele>733.25</ele><time>2026-04-18T10:34:33Z</time></trkpt><trkpt lat="41.9499360922692" lon="13.702274921730867"><ele>731.0</ele><time>2026-04-18T10:34:34Z</time></trkpt><trkpt lat="41.9500291637218" lon="13.702140777322155"><ele>730.0</ele><time>2026-04-18T10:34:35Z</time></trkpt><trkpt lat="41.950120732005594" lon="13.70200071351053"><ele>729.0</ele><time>2026-04-18T10:34:36Z</time></trkpt><trkpt lat="41.95022372238103" lon="13.70186256582474"><ele>728.0</ele><time>2026-04-18T10:34:37Z</time></trkpt><trkpt lat="41.9503299399935" lon="13.701715559979746"><ele>727.0</ele><time>2026-04-18T10:34:38Z</time></trkpt><trkpt lat="41.950434436011264" lon="13.701559094596846"><ele>727.0</ele><time>2026-04-18T10:34:39Z</time></trkpt><trkpt lat="41.95053913199898" lon="13.701401794112291"><ele>727.0</ele><time>2026-04-18T10:34:40Z</time></trkpt><trkpt lat="41.950648494227124" lon="13.701243059545211"><ele>727.0</ele><time>2026-04-18T10:34:41Z</time></trkpt><trkpt lat="41.95075881236805" lon="13.701078283358344"><ele>725.6666666666667</ele><time>2026-04-18T10:34:42Z</time></trkpt><trkpt lat="41.950868940029956" lon="13.700909737878817"><ele>724.3333333333334</ele><time>2026-04-18T10:34:43Z</time></trkpt><trkpt lat="41.950983657384874" lon="13.700739280408643"><ele>723.0</ele><time>2026-04-18T10:34:44Z</time></trkpt><trkpt lat="41.951104504837836" lon="13.7005724035846"><ele>723.0</ele><time>2026-04-18T10:34:45Z</time></trkpt><trkpt lat="41.95122151201113" lon="13.700392460242734"><ele>723.0</ele><time>2026-04-18T10:34:46Z</time></trkpt><trkpt lat="41.951345485861836" lon="13.700215181945344"><ele>723.0</ele><time>2026-04-18T10:34:47Z</time></trkpt><trkpt lat="41.95146176867576" lon="13.700030416294117"><ele>722.3333333333334</ele><time>2026-04-18T10:34:48Z</time></trkpt><trkpt lat="41.95158017166434" lon="13.699851309992908"><ele>721.6666666666667</ele><time>2026-04-18T10:34:49Z</time></trkpt><trkpt lat="41.95169531726979" lon="13.699676963032326"><ele>721.0</ele><time>2026-04-18T10:34:50Z</time></trkpt><trkpt lat="41.95181273143946" lon="13.699493580776949"><ele>721.6666666666667</ele><time>2026-04-18T10:34:51Z</time></trkpt><trkpt lat="41.95193695997304" lon="13.699317220463858"><ele>722.3333333333334</ele><time>2026-04-18T10:34:52Z</time></trkpt><trkpt lat="41.95205028338718" lon="13.699128596980296"><ele>723.0</ele><time>2026-04-18T10:34:53Z</time></trkpt><trkpt lat="41.95217454822689" lon="13.698942061118004"><ele>723.0</ele><time>2026-04-18T10:34:54Z</time></trkpt><trkpt lat="41.95228976917974" lon="13.698750910125478"><ele>723.0</ele><time>2026-04-18T10:34:55Z</time></trkpt><trkpt lat="41.9524068808896" lon="13.698574617219386"><ele>723.0</ele><time>2026-04-18T10:34:56Z</time></trkpt><trkpt lat="41.9525317362186" lon="13.698400295718988"><ele>724.0</ele><time>2026-04-18T10:34:57Z</time></trkpt><trkpt lat="41.952657631216994" lon="13.698220062166332"><ele>725.0</ele><time>2026-04-18T10:34:58Z</time></trkpt><trkpt lat="41.95277996241075" lon="13.698035332619057"><ele>726.0</ele><time>2026-04-18T10:34:59Z</time></trkpt><trkpt lat="41.952902326946145" lon="13.69784240000699"><ele>724.0</ele><time>2026-04-18T10:35:00Z</time></trkpt><trkpt lat="41.95303199485547" lon="13.697657947884966"><ele>722.0</ele><time>2026-04-18T10:35:01Z</time></trkpt><trkpt lat="41.9531478382544" lon="13.69749038167474"><ele>720.0</ele><time>2026-04-18T10:35:02Z</time></trkpt><trkpt lat="41.95325441341189" lon="13.697321911776731"><ele>720.0</ele><time>2026-04-18T10:35:03Z</time></trkpt><trkpt lat="41.95337273739515" lon="13.697150759635804"><ele>720.0</ele><time>2026-04-18T10:35:04Z</time></trkpt><trkpt lat="41.95349584986079" lon="13.69697350751474"><ele>720.0</ele><time>2026-04-18T10:35:05Z</time></trkpt><trkpt lat="41.95360241004889" lon="13.696799873428448"><ele>720.0</ele><time>2026-04-18T10:35:06Z</time></trkpt><trkpt lat="41.95371543789198" lon="13.6966260014441"><ele>720.0</ele><time>2026-04-18T10:35:07Z</time></trkpt><trkpt lat="41.95383106374927" lon="13.696446640477117"><ele>720.0</ele><time>2026-04-18T10:35:08Z</time></trkpt><trkpt lat="41.953949327774374" lon="13.69627000566495"><ele>720.0</ele><time>2026-04-18T10:35:09Z</time></trkpt><trkpt lat="41.95407215369185" lon="13.696089420798707"><ele>720.0</ele><time>2026-04-18T10:35:10Z</time></trkpt><trkpt lat="41.95419409192741" lon="13.695906480768686"><ele>720.0</ele><time>2026-04-18T10:35:11Z</time></trkpt><trkpt lat="41.95430375439909" lon="13.69574242104315"><ele>720.25</ele><time>2026-04-18T10:35:12Z</time></trkpt><trkpt lat="41.95440516733506" lon="13.695589382100048"><ele>720.5</ele><time>2026-04-18T10:35:13Z</time></trkpt><trkpt lat="41.95449964173255" lon="13.695456107182403"><ele>720.75</ele><time>2026-04-18T10:35:14Z</time></trkpt><trkpt lat="41.95458000971761" lon="13.695342926967475"><ele>721.0</ele><time>2026-04-18T10:35:15Z</time></trkpt><trkpt lat="41.95465058194611" lon="13.695238192654058"><ele>719.8333333333334</ele><time>2026-04-18T10:35:16Z</time></trkpt><trkpt lat="41.95471157700219" lon="13.695144606482318"><ele>718.6666666666667</ele><time>2026-04-18T10:35:17Z</time></trkpt><trkpt lat="41.954763119988904" lon="13.695063390401899"><ele>717.5</ele><time>2026-04-18T10:35:18Z</time></trkpt><trkpt lat="41.954808721239" lon="13.694991833903929"><ele>716.3333333333334</ele><time>2026-04-18T10:35:19Z</time></trkpt><trkpt lat="41.95485760689593" lon="13.694905771051754"><ele>715.1666666666666</ele><time>2026-04-18T10:35:20Z</time></trkpt><trkpt lat="41.95491071725665" lon="13.694828951270143"><ele>714.0</ele><time>2026-04-18T10:35:21Z</time></trkpt><trkpt lat="41.954955908767595" lon="13.694762780639664"><ele>714.0</ele><time>2026-04-18T10:35:22Z</time></trkpt><trkpt lat="41.95499536110942" lon="13.694677024730868"><ele>714.0</ele><time>2026-04-18T10:35:23Z</time></trkpt><trkpt lat="41.95501352848879" lon="13.694575571003341"><ele>714.0</ele><time>2026-04-18T10:35:24Z</time></trkpt><trkpt lat="41.955014348052615" lon="13.694478075123317"><ele>714.0</ele><time>2026-04-18T10:35:25Z</time></trkpt><trkpt lat="41.9550078013613" lon="13.69438455513141"><ele>714.0</ele><time>2026-04-18T10:35:26Z</time></trkpt><trkpt lat="41.954978961577126" lon="13.694251677108292"><ele>714.0</ele><time>2026-04-18T10:35:28Z</time></trkpt><trkpt lat="41.95497267359828" lon="13.694131082290482"><ele>714.0</ele><time>2026-04-18T10:35:30Z</time></trkpt><trkpt lat="41.95495178424226" lon="13.69403866481492"><ele>714.0</ele><time>2026-04-18T10:35:32Z</time></trkpt><trkpt lat="41.9549238403999" lon="13.693960830274584"><ele>714.0</ele><time>2026-04-18T10:35:35Z</time></trkpt><trkpt lat="41.95496224516399" lon="13.693882741640575"><ele>714.0</ele><time>2026-04-18T10:36:58Z</time></trkpt><trkpt lat="41.954942972868594" lon="13.69375922060669"><ele>714.0</ele><time>2026-04-18T10:37:00Z</time></trkpt><trkpt lat="41.95492515076239" lon="13.693620473741156"><ele>714.0</ele><time>2026-04-18T10:37:02Z</time></trkpt><trkpt lat="41.95490346323817" lon="13.69351017230177"><ele>713.8000000000001</ele><time>2026-04-18T10:37:04Z</time></trkpt><trkpt lat="41.95491759210574" lon="13.693374766058783"><ele>713.6</ele><time>2026-04-18T10:37:09Z</time></trkpt><trkpt lat="41.95490923524082" lon="13.693228249672732"><ele>713.4</ele><time>2026-04-18T10:37:11Z</time></trkpt><trkpt lat="41.95490684214596" lon="13.693135158683756"><ele>713.2</ele><time>2026-04-18T10:37:13Z</time></trkpt><trkpt lat="41.954931699837026" lon="13.693023224071988"><ele>713.0</ele><time>2026-04-18T10:37:15Z</time></trkpt><trkpt lat="41.954966804222394" lon="13.692898584322629"><ele>713.0</ele><time>2026-04-18T10:37:17Z</time></trkpt><trkpt lat="41.95497429834095" lon="13.692813136346567"><ele>713.0</ele><time>2026-04-18T10:37:18Z</time></trkpt><trkpt lat="41.95499355607792" lon="13.692719336216662"><ele>713.0</ele><time>2026-04-18T10:37:19Z</time></trkpt><trkpt lat="41.95501735030066" lon="13.692594820718636"><ele>713.0</ele><time>2026-04-18T10:37:20Z</time></trkpt><trkpt lat="41.95504061001002" lon="13.692454064949468"><ele>713.0</ele><time>2026-04-18T10:37:21Z</time></trkpt><trkpt lat="41.955065176878236" lon="13.692310187628394"><ele>713.0</ele><time>2026-04-18T10:37:22Z</time></trkpt><trkpt lat="41.95509285685365" lon="13.692147165306482"><ele>711.5</ele><time>2026-04-18T10:37:23Z</time></trkpt><trkpt lat="41.95512534771611" lon="13.691977265152076"><ele>710.0</ele><time>2026-04-18T10:37:24Z</time></trkpt><trkpt lat="41.95515740550659" lon="13.69180367237725"><ele>708.5</ele><time>2026-04-18T10:37:25Z</time></trkpt><trkpt lat="41.95519236423174" lon="13.691631506135058"><ele>707.0</ele><time>2026-04-18T10:37:26Z</time></trkpt><trkpt lat="41.955221946007356" lon="13.691455088552072"><ele>705.3333333333333</ele><time>2026-04-18T10:37:27Z</time></trkpt><trkpt lat="41.95525027481974" lon="13.691273161119009"><ele>703.6666666666666</ele><time>2026-04-18T10:37:28Z</time></trkpt><trkpt lat="41.95527819146595" lon="13.691071758186071"><ele>702.0</ele><time>2026-04-18T10:37:29Z</time></trkpt><trkpt lat="41.955295612787495" lon="13.69084695550514"><ele>701.3333333333334</ele><time>2026-04-18T10:37:30Z</time></trkpt><trkpt lat="41.955292784466366" lon="13.690594260578923"><ele>700.6666666666667</ele><time>2026-04-18T10:37:31Z</time></trkpt><trkpt lat="41.955290563849495" lon="13.690340378771534"><ele>700.0</ele><time>2026-04-18T10:37:32Z</time></trkpt><trkpt lat="41.955282052523586" lon="13.69009889561442"><ele>698.6666666666667</ele><time>2026-04-18T10:37:33Z</time></trkpt><trkpt lat="41.95527686145144" lon="13.68987528000288"><ele>697.3333333333334</ele><time>2026-04-18T10:37:34Z</time></trkpt><trkpt lat="41.95526840120278" lon="13.689657701644682"><ele>696.0</ele><time>2026-04-18T10:37:35Z</time></trkpt><trkpt lat="41.95526349729044" lon="13.689435916703792"><ele>694.3333333333334</ele><time>2026-04-18T10:37:36Z</time></trkpt><trkpt lat="41.95526018664253" lon="13.689211364198979"><ele>692.6666666666667</ele><time>2026-04-18T10:37:37Z</time></trkpt><trkpt lat="41.955256566149636" lon="13.68897954837744"><ele>691.0</ele><time>2026-04-18T10:37:38Z</time></trkpt><trkpt lat="41.955258443572426" lon="13.688742397670525"><ele>689.3333333333334</ele><time>2026-04-18T10:37:39Z</time></trkpt><trkpt lat="41.955271774501924" lon="13.688502608676385"><ele>687.6666666666666</ele><time>2026-04-18T10:37:40Z</time></trkpt><trkpt lat="41.9552914482241" lon="13.68825701622098"><ele>686.0</ele><time>2026-04-18T10:37:41Z</time></trkpt><trkpt lat="41.95531417258365" lon="13.688010209703151"><ele>685.3333333333333</ele><time>2026-04-18T10:37:42Z</time></trkpt><trkpt lat="41.955341464808654" lon="13.68775222087055"><ele>684.6666666666666</ele><time>2026-04-18T10:37:43Z</time></trkpt><trkpt lat="41.95538239962666" lon="13.6874863700413"><ele>684.0</ele><time>2026-04-18T10:37:44Z</time></trkpt><trkpt lat="41.95542907281063" lon="13.687213888983187"><ele>684.0</ele><time>2026-04-18T10:37:45Z</time></trkpt><trkpt lat="41.95548004261127" lon="13.686936688502275"><ele>684.0</ele><time>2026-04-18T10:37:46Z</time></trkpt><trkpt lat="41.95553259432776" lon="13.686659576042574"><ele>684.0</ele><time>2026-04-18T10:37:47Z</time></trkpt><trkpt lat="41.955591399118035" lon="13.686382699432315"><ele>683.3333333333334</ele><time>2026-04-18T10:37:48Z</time></trkpt><trkpt lat="41.9556572573821" lon="13.686101541612738"><ele>682.6666666666667</ele><time>2026-04-18T10:37:49Z</time></trkpt><trkpt lat="41.95572939030449" lon="13.685818785684353"><ele>682.0</ele><time>2026-04-18T10:37:50Z</time></trkpt><trkpt lat="41.95580629554705" lon="13.68554239102778"><ele>680.6666666666667</ele><time>2026-04-18T10:37:51Z</time></trkpt><trkpt lat="41.95588169245918" lon="13.685276177732137"><ele>679.3333333333334</ele><time>2026-04-18T10:37:52Z</time></trkpt><trkpt lat="41.95595377815372" lon="13.685018838317497"><ele>678.0</ele><time>2026-04-18T10:37:53Z</time></trkpt><trkpt lat="41.95602094635492" lon="13.684771771017287"><ele>677.6666666666666</ele><time>2026-04-18T10:37:54Z</time></trkpt><trkpt lat="41.95608341459843" lon="13.684541899409217"><ele>677.3333333333333</ele><time>2026-04-18T10:37:55Z</time></trkpt><trkpt lat="41.956146537262484" lon="13.684329639015589"><ele>677.0</ele><time>2026-04-18T10:37:56Z</time></trkpt><trkpt lat="41.956207045314564" lon="13.684128606601785"><ele>677.0</ele><time>2026-04-18T10:37:57Z</time></trkpt><trkpt lat="41.95627482766759" lon="13.683929267549575"><ele>677.0</ele><time>2026-04-18T10:37:58Z</time></trkpt><trkpt lat="41.95635071881794" lon="13.68374083622195"><ele>677.0</ele><time>2026-04-18T10:37:59Z</time></trkpt><trkpt lat="41.95643097173577" lon="13.68355353005029"><ele>677.0</ele><time>2026-04-18T10:38:00Z</time></trkpt><trkpt lat="41.956512049402306" lon="13.683364319924008"><ele>677.0</ele><time>2026-04-18T10:38:01Z</time></trkpt><trkpt lat="41.95660270765088" lon="13.68315511310062"><ele>677.0</ele><time>2026-04-18T10:38:02Z</time></trkpt><trkpt lat="41.95669203563455" lon="13.682948222611566"><ele>676.6666666666666</ele><time>2026-04-18T10:38:03Z</time></trkpt><trkpt lat="41.956785602569084" lon="13.682731731871069"><ele>676.3333333333334</ele><time>2026-04-18T10:38:04Z</time></trkpt><trkpt lat="41.956887018098804" lon="13.68248761812246"><ele>676.0</ele><time>2026-04-18T10:38:05Z</time></trkpt><trkpt lat="41.95700390359622" lon="13.682230413838171"><ele>676.0</ele><time>2026-04-18T10:38:06Z</time></trkpt><trkpt lat="41.957111054713195" lon="13.681996386905908"><ele>676.0</ele><time>2026-04-18T10:38:07Z</time></trkpt><trkpt lat="41.957197778681525" lon="13.68177554060533"><ele>676.0</ele><time>2026-04-18T10:38:08Z</time></trkpt><trkpt lat="41.95727162146187" lon="13.681556196720342"><ele>676.0</ele><time>2026-04-18T10:38:09Z</time></trkpt><trkpt lat="41.957325601683586" lon="13.681346063843257"><ele>676.0</ele><time>2026-04-18T10:38:10Z</time></trkpt><trkpt lat="41.95736480578501" lon="13.681149178554126"><ele>676.0</ele><time>2026-04-18T10:38:11Z</time></trkpt><trkpt lat="41.95739986914643" lon="13.680967360160233"><ele>676.0</ele><time>2026-04-18T10:38:12Z</time></trkpt><trkpt lat="41.95743369175293" lon="13.680800577471956"><ele>676.0</ele><time>2026-04-18T10:38:13Z</time></trkpt><trkpt lat="41.95746885544665" lon="13.680644834194984"><ele>676.0</ele><time>2026-04-18T10:38:14Z</time></trkpt><trkpt lat="41.95751038486797" lon="13.680478961231827"><ele>676.0</ele><time>2026-04-18T10:38:15Z</time></trkpt><trkpt lat="41.95755729251999" lon="13.680310939029587"><ele>675.6666666666667</ele><time>2026-04-18T10:38:16Z</time></trkpt><trkpt lat="41.95761323724113" lon="13.680125574430486"><ele>675.3333333333334</ele><time>2026-04-18T10:38:17Z</time></trkpt><trkpt lat="41.957684584056594" lon="13.679906198709599"><ele>675.0</ele><time>2026-04-18T10:38:18Z</time></trkpt><trkpt lat="41.957777081866794" lon="13.679668629458973"><ele>675.3333333333334</ele><time>2026-04-18T10:38:19Z</time></trkpt><trkpt lat="41.95788204473167" lon="13.67943265115481"><ele>675.6666666666667</ele><time>2026-04-18T10:38:20Z</time></trkpt><trkpt lat="41.95798996710197" lon="13.679183723102708"><ele>676.0</ele><time>2026-04-18T10:38:21Z</time></trkpt><trkpt lat="41.958108234663484" lon="13.678912588922719"><ele>676.0</ele><time>2026-04-18T10:38:22Z</time></trkpt><trkpt lat="41.95822896212914" lon="13.678631596637924"><ele>676.0</ele><time>2026-04-18T10:38:23Z</time></trkpt><trkpt lat="41.95835146392751" lon="13.678350169791171"><ele>675.5</ele><time>2026-04-18T10:38:24Z</time></trkpt><trkpt lat="41.958482353845085" lon="13.678073957137057"><ele>675.0</ele><time>2026-04-18T10:38:25Z</time></trkpt><trkpt lat="41.9586251997938" lon="13.677803622475636"><ele>675.0</ele><time>2026-04-18T10:38:26Z</time></trkpt><trkpt lat="41.958779233316434" lon="13.677534035488263"><ele>675.0</ele><time>2026-04-18T10:38:27Z</time></trkpt><trkpt lat="41.95893533243254" lon="13.677259702814192"><ele>675.0</ele><time>2026-04-18T10:38:28Z</time></trkpt><trkpt lat="41.95909420299711" lon="13.676981374968802"><ele>675.0</ele><time>2026-04-18T10:38:29Z</time></trkpt><trkpt lat="41.959255569864446" lon="13.676697608212452"><ele>674.5</ele><time>2026-04-18T10:38:30Z</time></trkpt><trkpt lat="41.95941966672462" lon="13.676408447750102"><ele>674.0</ele><time>2026-04-18T10:38:31Z</time></trkpt><trkpt lat="41.959587968174034" lon="13.676119246233238"><ele>675.0</ele><time>2026-04-18T10:38:32Z</time></trkpt><trkpt lat="41.95976504775257" lon="13.675833652934536"><ele>676.0</ele><time>2026-04-18T10:38:33Z</time></trkpt><trkpt lat="41.95995118775311" lon="13.67555208865513"><ele>675.0</ele><time>2026-04-18T10:38:34Z</time></trkpt><trkpt lat="41.96014209921823" lon="13.675272559402908"><ele>674.0</ele><time>2026-04-18T10:38:35Z</time></trkpt><trkpt lat="41.960329632462155" lon="13.674989619335069"><ele>674.0</ele><time>2026-04-18T10:38:36Z</time></trkpt><trkpt lat="41.960521434056325" lon="13.67471186324371"><ele>674.0</ele><time>2026-04-18T10:38:37Z</time></trkpt><trkpt lat="41.9607052952082" lon="13.67443548106293"><ele>674.5</ele><time>2026-04-18T10:38:38Z</time></trkpt><trkpt lat="41.960887072538966" lon="13.67416464265149"><ele>675.0</ele><time>2026-04-18T10:38:39Z</time></trkpt><trkpt lat="41.96106653027445" lon="13.673899455773965"><ele>675.0</ele><time>2026-04-18T10:38:40Z</time></trkpt><trkpt lat="41.96124450811939" lon="13.673639957084813"><ele>675.0</ele><time>2026-04-18T10:38:41Z</time></trkpt><trkpt lat="41.961416021544004" lon="13.67338961947844"><ele>675.0</ele><time>2026-04-18T10:38:42Z</time></trkpt><trkpt lat="41.96158581393754" lon="13.67314531295134"><ele>675.0</ele><time>2026-04-18T10:38:43Z</time></trkpt><trkpt lat="41.96175498426178" lon="13.672894856271304"><ele>675.5</ele><time>2026-04-18T10:38:44Z</time></trkpt><trkpt lat="41.961927291707404" lon="13.672639155055643"><ele>676.0</ele><time>2026-04-18T10:38:45Z</time></trkpt><trkpt lat="41.962102128354054" lon="13.672374874224955"><ele>676.0</ele><time>2026-04-18T10:38:46Z</time></trkpt><trkpt lat="41.962280125436735" lon="13.67210397248285"><ele>676.0</ele><time>2026-04-18T10:38:47Z</time></trkpt><trkpt lat="41.9624657599498" lon="13.6718258848789"><ele>676.5</ele><time>2026-04-18T10:38:48Z</time></trkpt><trkpt lat="41.96265681521226" lon="13.671544396461963"><ele>677.0</ele><time>2026-04-18T10:38:49Z</time></trkpt><trkpt lat="41.962847724630485" lon="13.67125926360557"><ele>677.5</ele><time>2026-04-18T10:38:50Z</time></trkpt><trkpt lat="41.963039908986275" lon="13.670975069943902"><ele>678.0</ele><time>2026-04-18T10:38:51Z</time></trkpt><trkpt lat="41.96322902150925" lon="13.670692926293196"><ele>677.0</ele><time>2026-04-18T10:38:52Z</time></trkpt><trkpt lat="41.963415175538024" lon="13.670411561945054"><ele>676.0</ele><time>2026-04-18T10:38:53Z</time></trkpt><trkpt lat="41.96360163725589" lon="13.670131685012723"><ele>676.0</ele><time>2026-04-18T10:38:54Z</time></trkpt><trkpt lat="41.963786040431685" lon="13.669857784925332"><ele>676.0</ele><time>2026-04-18T10:38:55Z</time></trkpt><trkpt lat="41.96396017827507" lon="13.669594485453308"><ele>676.0</ele><time>2026-04-18T10:38:56Z</time></trkpt><trkpt lat="41.96412364609303" lon="13.669348703323974"><ele>676.0</ele><time>2026-04-18T10:38:57Z</time></trkpt><trkpt lat="41.96428451069838" lon="13.669107064273867"><ele>677.5</ele><time>2026-04-18T10:38:58Z</time></trkpt><trkpt lat="41.964444001243386" lon="13.668864456753282"><ele>679.0</ele><time>2026-04-18T10:38:59Z</time></trkpt><trkpt lat="41.96461261233351" lon="13.668630672410293"><ele>679.0</ele><time>2026-04-18T10:39:00Z</time></trkpt><trkpt lat="41.96479589054415" lon="13.66841339253809"><ele>679.0</ele><time>2026-04-18T10:39:01Z</time></trkpt><trkpt lat="41.96499754499248" lon="13.668214574658565"><ele>680.0</ele><time>2026-04-18T10:39:02Z</time></trkpt><trkpt lat="41.9652071164678" lon="13.668022673265135"><ele>681.0</ele><time>2026-04-18T10:39:03Z</time></trkpt><trkpt lat="41.96541711913307" lon="13.667828634625874"><ele>679.5</ele><time>2026-04-18T10:39:04Z</time></trkpt><trkpt lat="41.96562760217929" lon="13.667629701415606"><ele>678.0</ele><time>2026-04-18T10:39:05Z</time></trkpt><trkpt lat="41.965840722430535" lon="13.66743516664528"><ele>679.5</ele><time>2026-04-18T10:39:06Z</time></trkpt><trkpt lat="41.966050752409586" lon="13.667243735610295"><ele>681.0</ele><time>2026-04-18T10:39:07Z</time></trkpt><trkpt lat="41.96625539061208" lon="13.66705182412999"><ele>679.5</ele><time>2026-04-18T10:39:08Z</time></trkpt><trkpt lat="41.96645738321942" lon="13.666857451133911"><ele>678.0</ele><time>2026-04-18T10:39:09Z</time></trkpt><trkpt lat="41.96666965898103" lon="13.666681960476549"><ele>680.0</ele><time>2026-04-18T10:39:10Z</time></trkpt><trkpt lat="41.966871778570805" lon="13.666485560404098"><ele>682.0</ele><time>2026-04-18T10:39:11Z</time></trkpt><trkpt lat="41.96701011473075" lon="13.666170772431594"><ele>680.5</ele><time>2026-04-18T10:39:12Z</time></trkpt><trkpt lat="41.96718796155465" lon="13.665930933419746"><ele>679.0</ele><time>2026-04-18T10:39:13Z</time></trkpt><trkpt lat="41.96736452961585" lon="13.66568989863336"><ele>679.0</ele><time>2026-04-18T10:39:14Z</time></trkpt><trkpt lat="41.96752477717142" lon="13.665428331310709"><ele>679.0</ele><time>2026-04-18T10:39:15Z</time></trkpt><trkpt lat="41.96767693687755" lon="13.665152373169054"><ele>679.0</ele><time>2026-04-18T10:39:16Z</time></trkpt><trkpt lat="41.96782967788749" lon="13.664876484200835"><ele>679.0</ele><time>2026-04-18T10:39:17Z</time></trkpt><trkpt lat="41.96798195070785" lon="13.664605388927539"><ele>677.0</ele><time>2026-04-18T10:39:18Z</time></trkpt><trkpt lat="41.968132536408376" lon="13.664335597344934"><ele>675.0</ele><time>2026-04-18T10:39:19Z</time></trkpt><trkpt lat="41.96828339691696" lon="13.664065942385346"><ele>676.0</ele><time>2026-04-18T10:39:20Z</time></trkpt><trkpt lat="41.968434625790245" lon="13.663798679378392"><ele>677.0</ele><time>2026-04-18T10:39:21Z</time></trkpt><trkpt lat="41.968590611029946" lon="13.663536265307057"><ele>677.0</ele><time>2026-04-18T10:39:22Z</time></trkpt><trkpt lat="41.968749448764406" lon="13.663279505165853"><ele>677.0</ele><time>2026-04-18T10:39:23Z</time></trkpt><trkpt lat="41.96891246845272" lon="13.663025413710903"><ele>676.5</ele><time>2026-04-18T10:39:24Z</time></trkpt><trkpt lat="41.969079655406425" lon="13.662775245653767"><ele>676.0</ele><time>2026-04-18T10:39:25Z</time></trkpt><trkpt lat="41.969246497243546" lon="13.662526544400254"><ele>680.0</ele><time>2026-04-18T10:39:26Z</time></trkpt><trkpt lat="41.969415270207655" lon="13.662281106008892"><ele>684.0</ele><time>2026-04-18T10:39:27Z</time></trkpt><trkpt lat="41.96958080735024" lon="13.66203571121935"><ele>681.0</ele><time>2026-04-18T10:39:28Z</time></trkpt><trkpt lat="41.969744242130226" lon="13.661794754572496"><ele>678.0</ele><time>2026-04-18T10:39:29Z</time></trkpt><trkpt lat="41.96991521641559" lon="13.6615633933033"><ele>681.0</ele><time>2026-04-18T10:39:30Z</time></trkpt><trkpt lat="41.97010269134219" lon="13.661349737062029"><ele>684.0</ele><time>2026-04-18T10:39:31Z</time></trkpt><trkpt lat="41.970301742416325" lon="13.661147048727722"><ele>681.0</ele><time>2026-04-18T10:39:32Z</time></trkpt><trkpt lat="41.97050257492564" lon="13.660938587639139"><ele>678.0</ele><time>2026-04-18T10:39:33Z</time></trkpt><trkpt lat="41.97070378558825" lon="13.66072206882311"><ele>680.5</ele><time>2026-04-18T10:39:34Z</time></trkpt><trkpt lat="41.97090801194055" lon="13.660504256321905"><ele>683.0</ele><time>2026-04-18T10:39:35Z</time></trkpt><trkpt lat="41.971112586479684" lon="13.660289158987462"><ele>680.0</ele><time>2026-04-18T10:39:36Z</time></trkpt><trkpt lat="41.97131678612357" lon="13.660076066345537"><ele>677.0</ele><time>2026-04-18T10:39:37Z</time></trkpt><trkpt lat="41.97151929770193" lon="13.65986324638837"><ele>683.0</ele><time>2026-04-18T10:39:38Z</time></trkpt><trkpt lat="41.97172491997836" lon="13.659658172880231"><ele>689.0</ele><time>2026-04-18T10:39:39Z</time></trkpt><trkpt lat="41.97191633795942" lon="13.659458554151279"><ele>686.6666666666666</ele><time>2026-04-18T10:39:40Z</time></trkpt><trkpt lat="41.97209260414996" lon="13.659272243454742"><ele>684.3333333333334</ele><time>2026-04-18T10:39:41Z</time></trkpt><trkpt lat="41.97225080782924" lon="13.65908233283411"><ele>682.0</ele><time>2026-04-18T10:39:42Z</time></trkpt><trkpt lat="41.972390509453426" lon="13.658858897485251"><ele>683.3333333333334</ele><time>2026-04-18T10:39:43Z</time></trkpt><trkpt lat="41.97251091707812" lon="13.658614702938163"><ele>684.6666666666666</ele><time>2026-04-18T10:39:44Z</time></trkpt><trkpt lat="41.972624611684" lon="13.658372080625085"><ele>686.0</ele><time>2026-04-18T10:39:45Z</time></trkpt><trkpt lat="41.97275771046213" lon="13.65814601519485"><ele>686.0</ele><time>2026-04-18T10:39:46Z</time></trkpt><trkpt lat="41.972919417793584" lon="13.65793690406534"><ele>686.0</ele><time>2026-04-18T10:39:47Z</time></trkpt><trkpt lat="41.97310977568699" lon="13.657746724787359"><ele>687.5</ele><time>2026-04-18T10:39:48Z</time></trkpt><trkpt lat="41.97330639760059" lon="13.657555692541985"><ele>689.0</ele><time>2026-04-18T10:39:49Z</time></trkpt><trkpt lat="41.973506700122684" lon="13.657354887344137"><ele>689.0</ele><time>2026-04-18T10:39:50Z</time></trkpt><trkpt lat="41.97370085162058" lon="13.657160758065285"><ele>689.0</ele><time>2026-04-18T10:39:51Z</time></trkpt><trkpt lat="41.973894738449516" lon="13.656973282691817"><ele>691.5</ele><time>2026-04-18T10:39:52Z</time></trkpt><trkpt lat="41.974087555268326" lon="13.656793244978141"><ele>694.0</ele><time>2026-04-18T10:39:53Z</time></trkpt><trkpt lat="41.97428824060287" lon="13.656626567373234"><ele>694.0</ele><time>2026-04-18T10:39:54Z</time></trkpt><trkpt lat="41.97449980726651" lon="13.65646896422415"><ele>694.0</ele><time>2026-04-18T10:39:55Z</time></trkpt><trkpt lat="41.97471590636278" lon="13.656291678257872"><ele>693.0</ele><time>2026-04-18T10:39:56Z</time></trkpt><trkpt lat="41.97493624933301" lon="13.656080797919575"><ele>692.0</ele><time>2026-04-18T10:39:57Z</time></trkpt><trkpt lat="41.975170002177656" lon="13.655839541454137"><ele>692.0</ele><time>2026-04-18T10:39:58Z</time></trkpt><trkpt lat="41.975397068254274" lon="13.655611292672946"><ele>692.0</ele><time>2026-04-18T10:39:59Z</time></trkpt><trkpt lat="41.975600805017294" lon="13.655406718972593"><ele>690.5</ele><time>2026-04-18T10:40:00Z</time></trkpt><trkpt lat="41.97580286479197" lon="13.655210397356543"><ele>689.0</ele><time>2026-04-18T10:40:01Z</time></trkpt><trkpt lat="41.97600981565219" lon="13.65501694642558"><ele>689.0</ele><time>2026-04-18T10:40:02Z</time></trkpt><trkpt lat="41.97622049000986" lon="13.654833266582378"><ele>689.0</ele><time>2026-04-18T10:40:03Z</time></trkpt><trkpt lat="41.976427081093036" lon="13.654651362421323"><ele>689.0</ele><time>2026-04-18T10:40:04Z</time></trkpt><trkpt lat="41.9766325484598" lon="13.654474964859837"><ele>689.0</ele><time>2026-04-18T10:40:05Z</time></trkpt><trkpt lat="41.97683619282867" lon="13.654299567518963"><ele>685.5</ele><time>2026-04-18T10:40:06Z</time></trkpt><trkpt lat="41.97703685380497" lon="13.654128468510383"><ele>682.0</ele><time>2026-04-18T10:40:07Z</time></trkpt><trkpt lat="41.97724090005204" lon="13.653975906484469"><ele>682.0</ele><time>2026-04-18T10:40:08Z</time></trkpt><trkpt lat="41.977454181997636" lon="13.653841403569547"><ele>682.0</ele><time>2026-04-18T10:40:09Z</time></trkpt><trkpt lat="41.97768190525064" lon="13.65371485978298"><ele>680.5</ele><time>2026-04-18T10:40:10Z</time></trkpt><trkpt lat="41.977916533861155" lon="13.653595510720445"><ele>679.0</ele><time>2026-04-18T10:40:11Z</time></trkpt><trkpt lat="41.9781551365082" lon="13.653477659334008"><ele>680.5</ele><time>2026-04-18T10:40:12Z</time></trkpt><trkpt lat="41.97839614581672" lon="13.653355362123085"><ele>682.0</ele><time>2026-04-18T10:40:13Z</time></trkpt><trkpt lat="41.97864208592369" lon="13.653231070625933"><ele>682.0</ele><time>2026-04-18T10:40:14Z</time></trkpt><trkpt lat="41.97888680018891" lon="13.653108282723927"><ele>682.0</ele><time>2026-04-18T10:40:15Z</time></trkpt><trkpt lat="41.97912906270712" lon="13.652993361446432"><ele>683.0</ele><time>2026-04-18T10:40:16Z</time></trkpt><trkpt lat="41.97936759325337" lon="13.652878867928777"><ele>684.0</ele><time>2026-04-18T10:40:17Z</time></trkpt><trkpt lat="41.979616470971045" lon="13.652806117035786"><ele>682.5</ele><time>2026-04-18T10:40:18Z</time></trkpt><trkpt lat="41.97985484753965" lon="13.652689640649252"><ele>681.0</ele><time>2026-04-18T10:40:19Z</time></trkpt><trkpt lat="41.98009341107162" lon="13.652573072919534"><ele>681.0</ele><time>2026-04-18T10:40:20Z</time></trkpt><trkpt lat="41.980330110472124" lon="13.652456790747285"><ele>681.0</ele><time>2026-04-18T10:40:21Z</time></trkpt><trkpt lat="41.9805658390767" lon="13.652340963199858"><ele>681.0</ele><time>2026-04-18T10:40:22Z</time></trkpt><trkpt lat="41.9808012973486" lon="13.652225940966822"><ele>681.0</ele><time>2026-04-18T10:40:23Z</time></trkpt><trkpt lat="41.981033580598755" lon="13.652112740113742"><ele>680.0</ele><time>2026-04-18T10:40:24Z</time></trkpt><trkpt lat="41.98126315702281" lon="13.652001105563828"><ele>679.0</ele><time>2026-04-18T10:40:25Z</time></trkpt><trkpt lat="41.98147681554699" lon="13.65189744976052"><ele>684.5</ele><time>2026-04-18T10:40:26Z</time></trkpt><trkpt lat="41.981682245036076" lon="13.651778079573095"><ele>690.0</ele><time>2026-04-18T10:40:27Z</time></trkpt><trkpt lat="41.981876059347435" lon="13.65160380858829"><ele>690.0</ele><time>2026-04-18T10:40:28Z</time></trkpt><trkpt lat="41.98206806070219" lon="13.651400808091585"><ele>690.0</ele><time>2026-04-18T10:40:29Z</time></trkpt><trkpt lat="41.98225417249178" lon="13.65120046102012"><ele>692.0</ele><time>2026-04-18T10:40:30Z</time></trkpt><trkpt lat="41.98241818980028" lon="13.651022208851535"><ele>694.0</ele><time>2026-04-18T10:40:31Z</time></trkpt><trkpt lat="41.98256562237699" lon="13.650866630910047"><ele>696.0</ele><time>2026-04-18T10:40:32Z</time></trkpt><trkpt lat="41.982698948289496" lon="13.65072606242013"><ele>696.0</ele><time>2026-04-18T10:40:33Z</time></trkpt><trkpt lat="41.98282452408269" lon="13.650592400812894"><ele>696.0</ele><time>2026-04-18T10:40:34Z</time></trkpt><trkpt lat="41.98293745896132" lon="13.650435505338653"><ele>696.0</ele><time>2026-04-18T10:40:35Z</time></trkpt><trkpt lat="41.98301010950634" lon="13.650237480658229"><ele>692.3333333333334</ele><time>2026-04-18T10:40:36Z</time></trkpt><trkpt lat="41.98307612505167" lon="13.650028313552253"><ele>688.6666666666667</ele><time>2026-04-18T10:40:37Z</time></trkpt><trkpt lat="41.983126021793495" lon="13.649793396317177"><ele>685.0</ele><time>2026-04-18T10:40:38Z</time></trkpt><trkpt lat="41.983192341156546" lon="13.649560848626933"><ele>683.6666666666667</ele><time>2026-04-18T10:40:39Z</time></trkpt><trkpt lat="41.983222892301576" lon="13.64933997065634"><ele>682.3333333333334</ele><time>2026-04-18T10:40:40Z</time></trkpt><trkpt lat="41.98326581463967" lon="13.649146231586283"><ele>681.0</ele><time>2026-04-18T10:40:41Z</time></trkpt><trkpt lat="41.98332270438729" lon="13.648973964285915"><ele>682.5</ele><time>2026-04-18T10:40:42Z</time></trkpt><trkpt lat="41.98337433270572" lon="13.648813660504304"><ele>684.0</ele><time>2026-04-18T10:40:43Z</time></trkpt><trkpt lat="41.98345868652682" lon="13.64865612581726"><ele>685.5</ele><time>2026-04-18T10:40:44Z</time></trkpt><trkpt lat="41.9835821305194" lon="13.648501651195492"><ele>687.0</ele><time>2026-04-18T10:40:45Z</time></trkpt><trkpt lat="41.983722245149636" lon="13.648349677299858"><ele>687.0</ele><time>2026-04-18T10:40:46Z</time></trkpt><trkpt lat="41.98386468440115" lon="13.648206953179129"><ele>687.0</ele><time>2026-04-18T10:40:47Z</time></trkpt><trkpt lat="41.984006326887226" lon="13.648083268663969"><ele>687.0</ele><time>2026-04-18T10:40:48Z</time></trkpt><trkpt lat="41.98416018370032" lon="13.647971737496531"><ele>688.0</ele><time>2026-04-18T10:40:49Z</time></trkpt><trkpt lat="41.984322794052346" lon="13.647877188132787"><ele>689.0</ele><time>2026-04-18T10:40:50Z</time></trkpt><trkpt lat="41.98449334117597" lon="13.647800510470878"><ele>690.0</ele><time>2026-04-18T10:40:51Z</time></trkpt><trkpt lat="41.98465421287348" lon="13.647748352489645"><ele>688.0</ele><time>2026-04-18T10:40:52Z</time></trkpt><trkpt lat="41.98482410323619" lon="13.647714151665022"><ele>686.0</ele><time>2026-04-18T10:40:53Z</time></trkpt><trkpt lat="41.984995906340586" lon="13.647692024164757"><ele>684.0</ele><time>2026-04-18T10:40:54Z</time></trkpt><trkpt lat="41.98516763111729" lon="13.647679877895476"><ele>684.0</ele><time>2026-04-18T10:40:55Z</time></trkpt><trkpt lat="41.98532941682185" lon="13.647668434617803"><ele>684.0</ele><time>2026-04-18T10:40:56Z</time></trkpt><trkpt lat="41.98548948969029" lon="13.647635906434896"><ele>684.0</ele><time>2026-04-18T10:40:57Z</time></trkpt><trkpt lat="41.98564164248886" lon="13.647550641684855"><ele>684.0</ele><time>2026-04-18T10:40:58Z</time></trkpt><trkpt lat="41.98577951435882" lon="13.64744430657077"><ele>684.0</ele><time>2026-04-18T10:40:59Z</time></trkpt><trkpt lat="41.98592167998593" lon="13.647317237066037"><ele>684.0</ele><time>2026-04-18T10:41:00Z</time></trkpt><trkpt lat="41.98605752932096" lon="13.647194768542136"><ele>682.3333333333334</ele><time>2026-04-18T10:41:01Z</time></trkpt><trkpt lat="41.9861906765903" lon="13.64707817450713"><ele>680.6666666666667</ele><time>2026-04-18T10:41:02Z</time></trkpt><trkpt lat="41.9863311449253" lon="13.646964098789175"><ele>679.0</ele><time>2026-04-18T10:41:03Z</time></trkpt><trkpt lat="41.986477554043056" lon="13.646876350825586"><ele>679.0</ele><time>2026-04-18T10:41:04Z</time></trkpt><trkpt lat="41.986628846422654" lon="13.646797437092612"><ele>679.0</ele><time>2026-04-18T10:41:05Z</time></trkpt><trkpt lat="41.98677697571821" lon="13.64672293592629"><ele>679.0</ele><time>2026-04-18T10:41:06Z</time></trkpt><trkpt lat="41.98691421647807" lon="13.646657639670552"><ele>680.75</ele><time>2026-04-18T10:41:07Z</time></trkpt><trkpt lat="41.98704229937357" lon="13.646596700513403"><ele>682.5</ele><time>2026-04-18T10:41:08Z</time></trkpt><trkpt lat="41.98716675242243" lon="13.646537488380188"><ele>684.25</ele><time>2026-04-18T10:41:09Z</time></trkpt><trkpt lat="41.98728713517413" lon="13.646488196048923"><ele>686.0</ele><time>2026-04-18T10:41:10Z</time></trkpt><trkpt lat="41.98739697881669" lon="13.646466168264066"><ele>686.0</ele><time>2026-04-18T10:41:11Z</time></trkpt><trkpt lat="41.98750191009724" lon="13.646457764332046"><ele>686.0</ele><time>2026-04-18T10:41:12Z</time></trkpt><trkpt lat="41.98759688979808" lon="13.646439567341483"><ele>686.0</ele><time>2026-04-18T10:41:13Z</time></trkpt><trkpt lat="41.987680600318434" lon="13.646440322295774"><ele>686.0</ele><time>2026-04-18T10:41:14Z</time></trkpt><trkpt lat="41.98775512499458" lon="13.646442284959225"><ele>686.0</ele><time>2026-04-18T10:41:15Z</time></trkpt><trkpt lat="41.98782594474188" lon="13.646436046887153"><ele>686.0</ele><time>2026-04-18T10:41:16Z</time></trkpt><trkpt lat="41.98791449939184" lon="13.646423521287181"><ele>686.8333333333333</ele><time>2026-04-18T10:41:17Z</time></trkpt><trkpt lat="41.988015848654435" lon="13.646406752828309"><ele>687.6666666666666</ele><time>2026-04-18T10:41:18Z</time></trkpt><trkpt lat="41.988125410638695" lon="13.646391094466193"><ele>688.5</ele><time>2026-04-18T10:41:19Z</time></trkpt><trkpt lat="41.988215847565435" lon="13.646376406889564"><ele>689.3333333333334</ele><time>2026-04-18T10:41:20Z</time></trkpt><trkpt lat="41.98829006139434" lon="13.646366257125406"><ele>690.1666666666667</ele><time>2026-04-18T10:41:21Z</time></trkpt><trkpt lat="41.98835316657275" lon="13.64636207347119"><ele>691.0</ele><time>2026-04-18T10:41:22Z</time></trkpt><trkpt lat="41.988432094219576" lon="13.64639276712812"><ele>691.3333333333334</ele><time>2026-04-18T10:41:24Z</time></trkpt><trkpt lat="41.988492510174154" lon="13.646428705665894"><ele>691.6666666666667</ele><time>2026-04-18T10:41:26Z</time></trkpt><trkpt lat="41.98855474402722" lon="13.646447900101284"><ele>692.0</ele><time>2026-04-18T10:41:29Z</time></trkpt><trkpt lat="41.98871523269934" lon="13.64649975247077"><ele>692.3333333333334</ele><time>2026-04-18T10:49:38Z</time></trkpt><trkpt lat="41.98865030756698" lon="13.646508990663268"><ele>692.6666666666666</ele><time>2026-04-18T10:49:57Z</time></trkpt><trkpt lat="41.98861191239113" lon="13.646441835687247"><ele>693.0</ele><time>2026-04-18T10:53:00Z</time></trkpt><trkpt lat="41.98868030201918" lon="13.64639050657954"><ele>693.0</ele><time>2026-04-18T10:53:05Z</time></trkpt><trkpt lat="41.98874219617327" lon="13.646360166016061"><ele>693.0</ele><time>2026-04-18T10:53:08Z</time></trkpt><trkpt lat="41.988822361480935" lon="13.646300551503694"><ele>693.0</ele><time>2026-04-18T10:53:41Z</time></trkpt><trkpt lat="41.98891404272304" lon="13.646276976019758"><ele>693.0</ele><time>2026-04-18T10:53:43Z</time></trkpt><trkpt lat="41.98900116283249" lon="13.646265132637463"><ele>693.0</ele><time>2026-04-18T10:53:45Z</time></trkpt><trkpt lat="41.989087275051986" lon="13.64625100341723"><ele>693.0</ele><time>2026-04-18T10:53:47Z</time></trkpt><trkpt lat="41.98919428964261" lon="13.646240827939652"><ele>694.4</ele><time>2026-04-18T10:53:49Z</time></trkpt><trkpt lat="41.98931507234247" lon="13.646215540558114"><ele>695.8</ele><time>2026-04-18T10:53:51Z</time></trkpt><trkpt lat="41.989421996059455" lon="13.64620425590792"><ele>697.2</ele><time>2026-04-18T10:53:53Z</time></trkpt><trkpt lat="41.98951136211299" lon="13.646196822276254"><ele>698.6</ele><time>2026-04-18T10:53:55Z</time></trkpt><trkpt lat="41.98963949528746" lon="13.64617384930902"><ele>700.0</ele><time>2026-04-18T10:53:57Z</time></trkpt><trkpt lat="41.98971448207348" lon="13.646163533655471"><ele>700.0</ele><time>2026-04-18T10:53:58Z</time></trkpt><trkpt lat="41.989790842848386" lon="13.646141858236913"><ele>700.0</ele><time>2026-04-18T10:53:59Z</time></trkpt><trkpt lat="41.989867680760355" lon="13.646126031075214"><ele>700.0</ele><time>2026-04-18T10:54:00Z</time></trkpt><trkpt lat="41.989978216219725" lon="13.646074299411822"><ele>700.0</ele><time>2026-04-18T10:54:02Z</time></trkpt><trkpt lat="41.990101495731835" lon="13.646014147589932"><ele>700.0</ele><time>2026-04-18T10:54:04Z</time></trkpt><trkpt lat="41.990167464410504" lon="13.645973061678456"><ele>698.5</ele><time>2026-04-18T10:54:05Z</time></trkpt><trkpt lat="41.99023862821099" lon="13.645929049225856"><ele>697.0</ele><time>2026-04-18T10:54:06Z</time></trkpt><trkpt lat="41.99031152739196" lon="13.645879861648432"><ele>695.5</ele><time>2026-04-18T10:54:07Z</time></trkpt><trkpt lat="41.990384585211395" lon="13.645832815761723"><ele>694.0</ele><time>2026-04-18T10:54:08Z</time></trkpt><trkpt lat="41.99045364673352" lon="13.64577869982926"><ele>692.5</ele><time>2026-04-18T10:54:09Z</time></trkpt><trkpt lat="41.99050988962096" lon="13.645737695127835"><ele>691.0</ele><time>2026-04-18T10:54:10Z</time></trkpt><trkpt lat="41.990629010954514" lon="13.645672680103537"><ele>691.0</ele><time>2026-04-18T10:54:12Z</time></trkpt><trkpt lat="41.990686594638646" lon="13.64563640376503"><ele>691.0</ele><time>2026-04-18T10:54:13Z</time></trkpt><trkpt lat="41.99080047955002" lon="13.645606681615162"><ele>691.0</ele><time>2026-04-18T10:54:15Z</time></trkpt><trkpt lat="41.99092354982533" lon="13.645639041236308"><ele>691.0</ele><time>2026-04-18T10:54:17Z</time></trkpt><trkpt lat="41.990997181647" lon="13.645662466229709"><ele>691.0</ele><time>2026-04-18T10:54:18Z</time></trkpt><trkpt lat="41.991088383738045" lon="13.645694780422339"><ele>690.8333333333334</ele><time>2026-04-18T10:54:19Z</time></trkpt><trkpt lat="41.991177508041936" lon="13.645725844350528"><ele>690.6666666666667</ele><time>2026-04-18T10:54:20Z</time></trkpt><trkpt lat="41.991263739541196" lon="13.645754162802918"><ele>690.5</ele><time>2026-04-18T10:54:21Z</time></trkpt><trkpt lat="41.99133339431607" lon="13.64578903308986"><ele>690.3333333333334</ele><time>2026-04-18T10:54:22Z</time></trkpt><trkpt lat="41.99141724520539" lon="13.645798613464665"><ele>690.1666666666666</ele><time>2026-04-18T10:54:23Z</time></trkpt><trkpt lat="41.99150581539338" lon="13.645785767091828"><ele>690.0</ele><time>2026-04-18T10:54:24Z</time></trkpt><trkpt lat="41.99160296185749" lon="13.645766395174773"><ele>690.0</ele><time>2026-04-18T10:54:25Z</time></trkpt><trkpt lat="41.991698044671885" lon="13.64573221893918"><ele>690.0</ele><time>2026-04-18T10:54:26Z</time></trkpt><trkpt lat="41.991787881014915" lon="13.645705571540825"><ele>690.0</ele><time>2026-04-18T10:54:27Z</time></trkpt><trkpt lat="41.991884818044866" lon="13.645684680616707"><ele>690.0</ele><time>2026-04-18T10:54:28Z</time></trkpt><trkpt lat="41.991989223144216" lon="13.645658041712526"><ele>690.0</ele><time>2026-04-18T10:54:29Z</time></trkpt><trkpt lat="41.99210905336157" lon="13.645649759008531"><ele>690.0</ele><time>2026-04-18T10:54:30Z</time></trkpt><trkpt lat="41.99223829913261" lon="13.645650925303947"><ele>690.0</ele><time>2026-04-18T10:54:31Z</time></trkpt><trkpt lat="41.9923835149022" lon="13.645670453481658"><ele>690.0</ele><time>2026-04-18T10:54:32Z</time></trkpt><trkpt lat="41.992553558404566" lon="13.645701757626078"><ele>690.0</ele><time>2026-04-18T10:54:33Z</time></trkpt><trkpt lat="41.992721542828846" lon="13.64575358037532"><ele>690.25</ele><time>2026-04-18T10:54:34Z</time></trkpt><trkpt lat="41.992856859576435" lon="13.64580235598262"><ele>690.5</ele><time>2026-04-18T10:54:35Z</time></trkpt><trkpt lat="41.99300179327842" lon="13.645804352945376"><ele>690.75</ele><time>2026-04-18T10:54:36Z</time></trkpt><trkpt lat="41.993151587394124" lon="13.645784248129992"><ele>691.0</ele><time>2026-04-18T10:54:37Z</time></trkpt><trkpt lat="41.993308468835565" lon="13.645741630046048"><ele>693.3333333333334</ele><time>2026-04-18T10:54:38Z</time></trkpt><trkpt lat="41.99346589681816" lon="13.645638762010773"><ele>695.6666666666666</ele><time>2026-04-18T10:54:39Z</time></trkpt><trkpt lat="41.993620325155305" lon="13.645522085699245"><ele>698.0</ele><time>2026-04-18T10:54:40Z</time></trkpt><trkpt lat="41.99376292817543" lon="13.645422824307213"><ele>698.0</ele><time>2026-04-18T10:54:41Z</time></trkpt><trkpt lat="41.99390129753269" lon="13.645339355566604"><ele>698.0</ele><time>2026-04-18T10:54:42Z</time></trkpt><trkpt lat="41.994047064938954" lon="13.64525682694673"><ele>698.0</ele><time>2026-04-18T10:54:43Z</time></trkpt><trkpt lat="41.994197835265446" lon="13.645187471375335"><ele>697.3333333333333</ele><time>2026-04-18T10:54:44Z</time></trkpt><trkpt lat="41.994355901474464" lon="13.645110727812881"><ele>696.6666666666666</ele><time>2026-04-18T10:54:45Z</time></trkpt><trkpt lat="41.994513209207916" lon="13.645022791702981"><ele>696.0</ele><time>2026-04-18T10:54:46Z</time></trkpt><trkpt lat="41.99466485434267" lon="13.644910880989631"><ele>696.0</ele><time>2026-04-18T10:54:47Z</time></trkpt><trkpt lat="41.99479979743699" lon="13.644793934205016"><ele>696.0</ele><time>2026-04-18T10:54:48Z</time></trkpt><trkpt lat="41.994925373051395" lon="13.6446794102589"><ele>696.0</ele><time>2026-04-18T10:54:49Z</time></trkpt><trkpt lat="41.99505393410813" lon="13.644571643777684"><ele>697.0</ele><time>2026-04-18T10:54:50Z</time></trkpt><trkpt lat="41.995181330130634" lon="13.644479879616938"><ele>698.0</ele><time>2026-04-18T10:54:51Z</time></trkpt><trkpt lat="41.995306531293885" lon="13.644410257010499"><ele>699.0</ele><time>2026-04-18T10:54:52Z</time></trkpt><trkpt lat="41.99542110381753" lon="13.644355080119192"><ele>700.0</ele><time>2026-04-18T10:54:53Z</time></trkpt><trkpt lat="41.99552988201681" lon="13.644317786329445"><ele>697.5</ele><time>2026-04-18T10:54:54Z</time></trkpt><trkpt lat="41.99564574359514" lon="13.644288911898215"><ele>695.0</ele><time>2026-04-18T10:54:55Z</time></trkpt><trkpt lat="41.995763547554205" lon="13.644276110980384"><ele>692.5</ele><time>2026-04-18T10:54:56Z</time></trkpt><trkpt lat="41.995886186037886" lon="13.644271530819548"><ele>690.0</ele><time>2026-04-18T10:54:57Z</time></trkpt><trkpt lat="41.996025196296706" lon="13.644272879824936"><ele>689.6666666666666</ele><time>2026-04-18T10:54:58Z</time></trkpt><trkpt lat="41.996198064103815" lon="13.644271257809766"><ele>689.3333333333333</ele><time>2026-04-18T10:54:59Z</time></trkpt><trkpt lat="41.99640420978938" lon="13.64428271060362"><ele>689.0</ele><time>2026-04-18T10:55:00Z</time></trkpt><trkpt lat="41.99663312385714" lon="13.644294148819432"><ele>688.5</ele><time>2026-04-18T10:55:01Z</time></trkpt><trkpt lat="41.996855152330824" lon="13.644309608699983"><ele>688.0</ele><time>2026-04-18T10:55:02Z</time></trkpt><trkpt lat="41.997090305454655" lon="13.64433763267556"><ele>688.0</ele><time>2026-04-18T10:55:03Z</time></trkpt><trkpt lat="41.997318058629816" lon="13.644353752971517"><ele>688.0</ele><time>2026-04-18T10:55:04Z</time></trkpt><trkpt lat="41.99753201887396" lon="13.644365726417249"><ele>688.0</ele><time>2026-04-18T10:55:05Z</time></trkpt><trkpt lat="41.997746034895655" lon="13.64439508371249"><ele>688.6666666666667</ele><time>2026-04-18T10:55:06Z</time></trkpt><trkpt lat="41.99796154280271" lon="13.644448869310537"><ele>689.3333333333334</ele><time>2026-04-18T10:55:07Z</time></trkpt><trkpt lat="41.99818259536632" lon="13.644512168395128"><ele>690.0</ele><time>2026-04-18T10:55:08Z</time></trkpt><trkpt lat="41.99840759078913" lon="13.644557608598477"><ele>692.6666666666666</ele><time>2026-04-18T10:55:09Z</time></trkpt><trkpt lat="41.99862485872642" lon="13.64461481990584"><ele>695.3333333333333</ele><time>2026-04-18T10:55:10Z</time></trkpt><trkpt lat="41.998823931563216" lon="13.644653310674778"><ele>698.0</ele><time>2026-04-18T10:55:11Z</time></trkpt><trkpt lat="41.99902794815588" lon="13.644668845173978"><ele>698.0</ele><time>2026-04-18T10:55:12Z</time></trkpt><trkpt lat="41.99923796349241" lon="13.644642707759507"><ele>698.0</ele><time>2026-04-18T10:55:13Z</time></trkpt><trkpt lat="41.99945475561078" lon="13.644599159771518"><ele>698.0</ele><time>2026-04-18T10:55:14Z</time></trkpt><trkpt lat="41.99965411263937" lon="13.64456030517951"><ele>698.0</ele><time>2026-04-18T10:55:15Z</time></trkpt><trkpt lat="41.99983958029199" lon="13.644570610943926"><ele>698.0</ele><time>2026-04-18T10:55:16Z</time></trkpt><trkpt lat="42.000028911323625" lon="13.644624301618519"><ele>698.0</ele><time>2026-04-18T10:55:17Z</time></trkpt><trkpt lat="42.00022646125146" lon="13.644721643987898"><ele>698.0</ele><time>2026-04-18T10:55:18Z</time></trkpt><trkpt lat="42.00043743070249" lon="13.644828650775324"><ele>698.0</ele><time>2026-04-18T10:55:19Z</time></trkpt><trkpt lat="42.00065653917107" lon="13.644922875380614"><ele>698.0</ele><time>2026-04-18T10:55:20Z</time></trkpt><trkpt lat="42.000873846908306" lon="13.645039349403747"><ele>698.0</ele><time>2026-04-18T10:55:21Z</time></trkpt><trkpt lat="42.001098902225095" lon="13.64515052693155"><ele>698.0</ele><time>2026-04-18T10:55:22Z</time></trkpt><trkpt lat="42.00133591864225" lon="13.645257987156452"><ele>698.0</ele><time>2026-04-18T10:55:23Z</time></trkpt><trkpt lat="42.00160458221194" lon="13.645349005713422"><ele>698.5</ele><time>2026-04-18T10:55:24Z</time></trkpt><trkpt lat="42.001892862812305" lon="13.645435290540417"><ele>699.0</ele><time>2026-04-18T10:55:25Z</time></trkpt><trkpt lat="42.00215083688669" lon="13.645510465932592"><ele>699.0</ele><time>2026-04-18T10:55:26Z</time></trkpt><trkpt lat="42.00238826226263" lon="13.645577491499237"><ele>699.0</ele><time>2026-04-18T10:55:27Z</time></trkpt><trkpt lat="42.002620860704866" lon="13.645641277675836"><ele>699.5</ele><time>2026-04-18T10:55:28Z</time></trkpt><trkpt lat="42.002850387359835" lon="13.645704621605184"><ele>700.0</ele><time>2026-04-18T10:55:29Z</time></trkpt><trkpt lat="42.00306918009487" lon="13.645771343521641"><ele>700.0</ele><time>2026-04-18T10:55:30Z</time></trkpt><trkpt lat="42.00328218743002" lon="13.645846401935609"><ele>700.0</ele><time>2026-04-18T10:55:31Z</time></trkpt><trkpt lat="42.00348940700222" lon="13.645938226470564"><ele>700.0</ele><time>2026-04-18T10:55:32Z</time></trkpt><trkpt lat="42.003691476444494" lon="13.646047231272787"><ele>700.3333333333334</ele><time>2026-04-18T10:55:33Z</time></trkpt><trkpt lat="42.00389028171129" lon="13.64617207051737"><ele>700.6666666666666</ele><time>2026-04-18T10:55:34Z</time></trkpt><trkpt lat="42.00408839631287" lon="13.646304212730891"><ele>701.0</ele><time>2026-04-18T10:55:35Z</time></trkpt><trkpt lat="42.004282768259465" lon="13.646444699903249"><ele>702.5</ele><time>2026-04-18T10:55:36Z</time></trkpt><trkpt lat="42.004473848123936" lon="13.6466099451399"><ele>704.0</ele><time>2026-04-18T10:55:37Z</time></trkpt><trkpt lat="42.004660670041325" lon="13.646782063441686"><ele>704.0</ele><time>2026-04-18T10:55:38Z</time></trkpt><trkpt lat="42.0048472386019" lon="13.646952819389398"><ele>704.0</ele><time>2026-04-18T10:55:39Z</time></trkpt><trkpt lat="42.00504216717457" lon="13.647115927930013"><ele>704.5</ele><time>2026-04-18T10:55:40Z</time></trkpt><trkpt lat="42.005244794978935" lon="13.64727446065356"><ele>705.0</ele><time>2026-04-18T10:55:41Z</time></trkpt><trkpt lat="42.005447933404405" lon="13.64743651965032"><ele>705.0</ele><time>2026-04-18T10:55:42Z</time></trkpt><trkpt lat="42.005652361589775" lon="13.647602630559339"><ele>705.0</ele><time>2026-04-18T10:55:43Z</time></trkpt><trkpt lat="42.00585864133465" lon="13.647765392100531"><ele>705.5</ele><time>2026-04-18T10:55:44Z</time></trkpt><trkpt lat="42.00605962112729" lon="13.647928661819641"><ele>706.0</ele><time>2026-04-18T10:55:45Z</time></trkpt><trkpt lat="42.006262463382704" lon="13.648099072487355"><ele>706.0</ele><time>2026-04-18T10:55:46Z</time></trkpt><trkpt lat="42.00647078448803" lon="13.648277502778722"><ele>706.0</ele><time>2026-04-18T10:55:47Z</time></trkpt><trkpt lat="42.006682517538216" lon="13.648459506885189"><ele>705.0</ele><time>2026-04-18T10:55:48Z</time></trkpt><trkpt lat="42.00689721694722" lon="13.648645818886592"><ele>704.0</ele><time>2026-04-18T10:55:49Z</time></trkpt><trkpt lat="42.00711446013946" lon="13.648838044620208"><ele>704.0</ele><time>2026-04-18T10:55:50Z</time></trkpt><trkpt lat="42.007337293051854" lon="13.649028094629209"><ele>704.0</ele><time>2026-04-18T10:55:51Z</time></trkpt><trkpt lat="42.00756273561111" lon="13.649212491888036"><ele>704.5</ele><time>2026-04-18T10:55:52Z</time></trkpt><trkpt lat="42.007791557481056" lon="13.649387783661442"><ele>705.0</ele><time>2026-04-18T10:55:53Z</time></trkpt><trkpt lat="42.00801304759718" lon="13.64958659225256"><ele>705.0</ele><time>2026-04-18T10:55:54Z</time></trkpt><trkpt lat="42.00828649205175" lon="13.649706002927495"><ele>705.0</ele><time>2026-04-18T10:55:55Z</time></trkpt><trkpt lat="42.00855869998207" lon="13.649861923071496"><ele>704.5</ele><time>2026-04-18T10:55:56Z</time></trkpt><trkpt lat="42.00883452882707" lon="13.650035204729821"><ele>704.0</ele><time>2026-04-18T10:55:57Z</time></trkpt><trkpt lat="42.00908143014735" lon="13.650193929330213"><ele>703.5</ele><time>2026-04-18T10:55:58Z</time></trkpt><trkpt lat="42.00930691635374" lon="13.650333666043219"><ele>703.0</ele><time>2026-04-18T10:55:59Z</time></trkpt><trkpt lat="42.00952129263118" lon="13.650463352144852"><ele>703.0</ele><time>2026-04-18T10:56:00Z</time></trkpt><trkpt lat="42.00973205698934" lon="13.650573247115865"><ele>703.0</ele><time>2026-04-18T10:56:01Z</time></trkpt><trkpt lat="42.0099565852504" lon="13.650644510435093"><ele>702.0</ele><time>2026-04-18T10:56:02Z</time></trkpt><trkpt lat="42.010188091384464" lon="13.650672400374718"><ele>701.0</ele><time>2026-04-18T10:56:03Z</time></trkpt><trkpt lat="42.01042970350655" lon="13.65068086703935"><ele>701.0</ele><time>2026-04-18T10:56:04Z</time></trkpt><trkpt lat="42.01067294388971" lon="13.650695377396403"><ele>701.0</ele><time>2026-04-18T10:56:05Z</time></trkpt><trkpt lat="42.0109089857247" lon="13.650725064932622"><ele>701.6666666666666</ele><time>2026-04-18T10:56:06Z</time></trkpt><trkpt lat="42.011134200088186" lon="13.650761589627493"><ele>702.3333333333334</ele><time>2026-04-18T10:56:07Z</time></trkpt><trkpt lat="42.01134208737611" lon="13.650806551505784"><ele>703.0</ele><time>2026-04-18T10:56:08Z</time></trkpt><trkpt lat="42.01153471885133" lon="13.650848329150092"><ele>702.6666666666667</ele><time>2026-04-18T10:56:09Z</time></trkpt><trkpt lat="42.01171854855668" lon="13.65087962306191"><ele>702.3333333333334</ele><time>2026-04-18T10:56:10Z</time></trkpt><trkpt lat="42.011889964680805" lon="13.650907200139596"><ele>702.0</ele><time>2026-04-18T10:56:11Z</time></trkpt><trkpt lat="42.012065141632604" lon="13.650932233410629"><ele>702.0</ele><time>2026-04-18T10:56:12Z</time></trkpt><trkpt lat="42.01224122832266" lon="13.650952156026063"><ele>702.0</ele><time>2026-04-18T10:56:13Z</time></trkpt><trkpt lat="42.0124216376249" lon="13.650969309943045"><ele>702.0</ele><time>2026-04-18T10:56:14Z</time></trkpt><trkpt lat="42.0126070295386" lon="13.650986298361424"><ele>702.3333333333334</ele><time>2026-04-18T10:56:15Z</time></trkpt><trkpt lat="42.012797241581474" lon="13.651009844326103"><ele>702.6666666666667</ele><time>2026-04-18T10:56:16Z</time></trkpt><trkpt lat="42.0129859686622" lon="13.651065808180805"><ele>703.0</ele><time>2026-04-18T10:56:17Z</time></trkpt><trkpt lat="42.013178769181955" lon="13.651146353366974"><ele>703.0</ele><time>2026-04-18T10:56:18Z</time></trkpt><trkpt lat="42.01338197343642" lon="13.651233561163416"><ele>703.0</ele><time>2026-04-18T10:56:19Z</time></trkpt><trkpt lat="42.013597049803366" lon="13.651320187313768"><ele>703.0</ele><time>2026-04-18T10:56:20Z</time></trkpt><trkpt lat="42.013824188395965" lon="13.651406939043824"><ele>703.0</ele><time>2026-04-18T10:56:21Z</time></trkpt><trkpt lat="42.01405759891146" lon="13.651506187110815"><ele>703.0</ele><time>2026-04-18T10:56:22Z</time></trkpt><trkpt lat="42.014302068386435" lon="13.65162708573797"><ele>702.5</ele><time>2026-04-18T10:56:23Z</time></trkpt><trkpt lat="42.01456623508234" lon="13.651774573681731"><ele>702.0</ele><time>2026-04-18T10:56:24Z</time></trkpt><trkpt lat="42.01485677818366" lon="13.651925592406807"><ele>703.5</ele><time>2026-04-18T10:56:25Z</time></trkpt><trkpt lat="42.015149919808884" lon="13.652070556478398"><ele>705.0</ele><time>2026-04-18T10:56:26Z</time></trkpt><trkpt lat="42.01540606679462" lon="13.652198903129339"><ele>705.0</ele><time>2026-04-18T10:56:27Z</time></trkpt><trkpt lat="42.01565550089847" lon="13.652317924413733"><ele>705.0</ele><time>2026-04-18T10:56:28Z</time></trkpt><trkpt lat="42.01590359643909" lon="13.652427455648162"><ele>705.0</ele><time>2026-04-18T10:56:29Z</time></trkpt><trkpt lat="42.016144336985484" lon="13.652527417634106"><ele>705.0</ele><time>2026-04-18T10:56:30Z</time></trkpt><trkpt lat="42.01637939102622" lon="13.652620004562412"><ele>705.0</ele><time>2026-04-18T10:56:31Z</time></trkpt><trkpt lat="42.01660146947946" lon="13.652699768807564"><ele>705.0</ele><time>2026-04-18T10:56:32Z</time></trkpt><trkpt lat="42.016803191865115" lon="13.652766120869158"><ele>705.0</ele><time>2026-04-18T10:56:33Z</time></trkpt><trkpt lat="42.01698321140451" lon="13.652816324043334"><ele>705.6666666666666</ele><time>2026-04-18T10:56:34Z</time></trkpt><trkpt lat="42.017153151670755" lon="13.652851011553508"><ele>706.3333333333333</ele><time>2026-04-18T10:56:35Z</time></trkpt><trkpt lat="42.017301762824275" lon="13.652881377608711"><ele>707.0</ele><time>2026-04-18T10:56:36Z</time></trkpt><trkpt lat="42.0174365908656" lon="13.652915171492145"><ele>706.6666666666666</ele><time>2026-04-18T10:56:37Z</time></trkpt><trkpt lat="42.01757464549195" lon="13.652964106724395"><ele>706.3333333333334</ele><time>2026-04-18T10:56:38Z</time></trkpt><trkpt lat="42.01771048031737" lon="13.653036967553492"><ele>706.0</ele><time>2026-04-18T10:56:39Z</time></trkpt><trkpt lat="42.017864277789954" lon="13.65312431776865"><ele>706.0</ele><time>2026-04-18T10:56:40Z</time></trkpt><trkpt lat="42.01803332542065" lon="13.653227814288117"><ele>706.0</ele><time>2026-04-18T10:56:41Z</time></trkpt><trkpt lat="42.018227709828096" lon="13.653359026259523"><ele>706.0</ele><time>2026-04-18T10:56:42Z</time></trkpt><trkpt lat="42.018438166047254" lon="13.653499973047225"><ele>707.3333333333334</ele><time>2026-04-18T10:56:43Z</time></trkpt><trkpt lat="42.01863531827228" lon="13.65363905882385"><ele>708.6666666666666</ele><time>2026-04-18T10:56:44Z</time></trkpt><trkpt lat="42.01882334928995" lon="13.65378227265478"><ele>710.0</ele><time>2026-04-18T10:56:45Z</time></trkpt><trkpt lat="42.01900161895796" lon="13.653914713345976"><ele>710.6666666666666</ele><time>2026-04-18T10:56:46Z</time></trkpt><trkpt lat="42.0191806159486" lon="13.654024279559264"><ele>711.3333333333334</ele><time>2026-04-18T10:56:47Z</time></trkpt><trkpt lat="42.01937951592971" lon="13.654114139874475"><ele>712.0</ele><time>2026-04-18T10:56:48Z</time></trkpt><trkpt lat="42.01959315257117" lon="13.654166597016738"><ele>712.0</ele><time>2026-04-18T10:56:49Z</time></trkpt><trkpt lat="42.019809008262406" lon="13.654212297256825"><ele>712.0</ele><time>2026-04-18T10:56:50Z</time></trkpt><trkpt lat="42.02000740076492" lon="13.654241343143857"><ele>712.0</ele><time>2026-04-18T10:56:51Z</time></trkpt><trkpt lat="42.020212495453656" lon="13.654229914981775"><ele>712.3333333333334</ele><time>2026-04-18T10:56:52Z</time></trkpt><trkpt lat="42.020413456192536" lon="13.654180006678633"><ele>712.6666666666666</ele><time>2026-04-18T10:56:53Z</time></trkpt><trkpt lat="42.02059726891948" lon="13.65415663348883"><ele>713.0</ele><time>2026-04-18T10:56:54Z</time></trkpt><trkpt lat="42.02076598326565" lon="13.654174032509545"><ele>714.6666666666666</ele><time>2026-04-18T10:56:55Z</time></trkpt><trkpt lat="42.02092360610824" lon="13.654215377642574"><ele>716.3333333333334</ele><time>2026-04-18T10:56:56Z</time></trkpt><trkpt lat="42.0210714578962" lon="13.654287355239024"><ele>718.0</ele><time>2026-04-18T10:56:57Z</time></trkpt><trkpt lat="42.0212066348008" lon="13.654378466975754"><ele>720.0</ele><time>2026-04-18T10:56:58Z</time></trkpt><trkpt lat="42.02133684697273" lon="13.654486826734603"><ele>722.0</ele><time>2026-04-18T10:56:59Z</time></trkpt><trkpt lat="42.02146671624989" lon="13.654596786814002"><ele>724.0</ele><time>2026-04-18T10:57:00Z</time></trkpt><trkpt lat="42.0215945290213" lon="13.654702584385952"><ele>724.0</ele><time>2026-04-18T10:57:01Z</time></trkpt><trkpt lat="42.02172161317199" lon="13.654803990277612"><ele>724.0</ele><time>2026-04-18T10:57:02Z</time></trkpt><trkpt lat="42.02184167918134" lon="13.654916271814251"><ele>724.0</ele><time>2026-04-18T10:57:03Z</time></trkpt><trkpt lat="42.02196849414471" lon="13.655029481962513"><ele>724.0</ele><time>2026-04-18T10:57:04Z</time></trkpt><trkpt lat="42.02209403369896" lon="13.65514004763702"><ele>724.0</ele><time>2026-04-18T10:57:05Z</time></trkpt><trkpt lat="42.02220795383556" lon="13.65523944801901"><ele>724.0</ele><time>2026-04-18T10:57:06Z</time></trkpt><trkpt lat="42.0223066515794" lon="13.655330525221414"><ele>724.0</ele><time>2026-04-18T10:57:07Z</time></trkpt><trkpt lat="42.02239550967705" lon="13.655417077285064"><ele>724.0</ele><time>2026-04-18T10:57:08Z</time></trkpt><trkpt lat="42.022480645527516" lon="13.65551257334826"><ele>724.4000000000001</ele><time>2026-04-18T10:57:09Z</time></trkpt><trkpt lat="42.02256035265029" lon="13.655613293884416"><ele>724.8</ele><time>2026-04-18T10:57:10Z</time></trkpt><trkpt lat="42.02263652219059" lon="13.655722695474422"><ele>725.2</ele><time>2026-04-18T10:57:11Z</time></trkpt><trkpt lat="42.022705688505745" lon="13.655839267204904"><ele>725.5999999999999</ele><time>2026-04-18T10:57:12Z</time></trkpt><trkpt lat="42.02276229042532" lon="13.655963389293904"><ele>726.0</ele><time>2026-04-18T10:57:13Z</time></trkpt><trkpt lat="42.02281549737007" lon="13.656095005088485"><ele>727.5</ele><time>2026-04-18T10:57:14Z</time></trkpt><trkpt lat="42.02287097008928" lon="13.65622552910603"><ele>729.0</ele><time>2026-04-18T10:57:15Z</time></trkpt><trkpt lat="42.022927339408234" lon="13.656360251145236"><ele>730.5</ele><time>2026-04-18T10:57:16Z</time></trkpt><trkpt lat="42.02298438411663" lon="13.656500876184472"><ele>732.0</ele><time>2026-04-18T10:57:17Z</time></trkpt><trkpt lat="42.02304461396876" lon="13.656640239028734"><ele>732.0</ele><time>2026-04-18T10:57:18Z</time></trkpt><trkpt lat="42.02310326972988" lon="13.656780620898129"><ele>732.0</ele><time>2026-04-18T10:57:19Z</time></trkpt><trkpt lat="42.02316487966196" lon="13.656920520627631"><ele>732.0</ele><time>2026-04-18T10:57:20Z</time></trkpt><trkpt lat="42.02324290490207" lon="13.657057020333362"><ele>732.0</ele><time>2026-04-18T10:57:21Z</time></trkpt><trkpt lat="42.0233247339927" lon="13.657197900456183"><ele>730.75</ele><time>2026-04-18T10:57:22Z</time></trkpt><trkpt lat="42.02341198223452" lon="13.65733931518018"><ele>729.5</ele><time>2026-04-18T10:57:23Z</time></trkpt><trkpt lat="42.02350464798873" lon="13.657483685558093"><ele>728.25</ele><time>2026-04-18T10:57:24Z</time></trkpt><trkpt lat="42.02359562115676" lon="13.657627500184196"><ele>727.0</ele><time>2026-04-18T10:57:25Z</time></trkpt><trkpt lat="42.02368485510456" lon="13.657766681383645"><ele>729.0</ele><time>2026-04-18T10:57:26Z</time></trkpt><trkpt lat="42.02377658351177" lon="13.657902143769741"><ele>731.0</ele><time>2026-04-18T10:57:27Z</time></trkpt><trkpt lat="42.023862661774245" lon="13.65804547947184"><ele>733.0</ele><time>2026-04-18T10:57:28Z</time></trkpt><trkpt lat="42.02394692286134" lon="13.658181817397487"><ele>735.0</ele><time>2026-04-18T10:57:29Z</time></trkpt><trkpt lat="42.024031019524855" lon="13.658313012013329"><ele>735.0</ele><time>2026-04-18T10:57:30Z</time></trkpt><trkpt lat="42.02411413703118" lon="13.658434908393716"><ele>735.0</ele><time>2026-04-18T10:57:31Z</time></trkpt><trkpt lat="42.024196407154044" lon="13.6585462817847"><ele>735.0</ele><time>2026-04-18T10:57:32Z</time></trkpt><trkpt lat="42.02426785196495" lon="13.658643376483687"><ele>735.0</ele><time>2026-04-18T10:57:33Z</time></trkpt><trkpt lat="42.02432847085868" lon="13.65872500189049"><ele>735.0</ele><time>2026-04-18T10:57:34Z</time></trkpt><trkpt lat="42.02438451224008" lon="13.65880335771502"><ele>734.4</ele><time>2026-04-18T10:57:35Z</time></trkpt><trkpt lat="42.024434987508215" lon="13.658881697810493"><ele>733.8</ele><time>2026-04-18T10:57:36Z</time></trkpt><trkpt lat="42.024488706767485" lon="13.658965065884782"><ele>733.2</ele><time>2026-04-18T10:57:37Z</time></trkpt><trkpt lat="42.02455208176224" lon="13.659056271071421"><ele>732.6</ele><time>2026-04-18T10:57:38Z</time></trkpt><trkpt lat="42.024622222222156" lon="13.659152737860635"><ele>732.0</ele><time>2026-04-18T10:57:39Z</time></trkpt><trkpt lat="42.024700696696236" lon="13.659247614810825"><ele>732.0</ele><time>2026-04-18T10:57:40Z</time></trkpt><trkpt lat="42.024787540276314" lon="13.659335050519513"><ele>732.0</ele><time>2026-04-18T10:57:41Z</time></trkpt><trkpt lat="42.02488103849718" lon="13.659425018621375"><ele>732.0</ele><time>2026-04-18T10:57:42Z</time></trkpt><trkpt lat="42.02497912125222" lon="13.659511637570782"><ele>732.0</ele><time>2026-04-18T10:57:43Z</time></trkpt><trkpt lat="42.02507368073776" lon="13.659591196477779"><ele>732.0</ele><time>2026-04-18T10:57:44Z</time></trkpt><trkpt lat="42.02515932463641" lon="13.65965441780902"><ele>732.0</ele><time>2026-04-18T10:57:45Z</time></trkpt><trkpt lat="42.025241263217325" lon="13.659713591626284"><ele>732.0</ele><time>2026-04-18T10:57:46Z</time></trkpt><trkpt lat="42.025314565741205" lon="13.659763303463077"><ele>732.0</ele><time>2026-04-18T10:57:47Z</time></trkpt><trkpt lat="42.02538061890756" lon="13.659809835611272"><ele>732.0</ele><time>2026-04-18T10:57:48Z</time></trkpt><trkpt lat="42.02544875596415" lon="13.659851877090436"><ele>732.0</ele><time>2026-04-18T10:57:49Z</time></trkpt><trkpt lat="42.02551731298783" lon="13.659894057258636"><ele>732.0</ele><time>2026-04-18T10:57:50Z</time></trkpt><trkpt lat="42.02558712364862" lon="13.659925546695543"><ele>732.0</ele><time>2026-04-18T10:57:51Z</time></trkpt><trkpt lat="42.02564626830104" lon="13.65995894407851"><ele>732.0</ele><time>2026-04-18T10:57:52Z</time></trkpt><trkpt lat="42.0257529818407" lon="13.660022551271982"><ele>732.0</ele><time>2026-04-18T10:57:54Z</time></trkpt><trkpt lat="42.025856447264715" lon="13.660102693792918"><ele>732.0</ele><time>2026-04-18T10:57:56Z</time></trkpt><trkpt lat="42.02595119668291" lon="13.660141051993762"><ele>731.3333333333334</ele><time>2026-04-18T10:57:58Z</time></trkpt><trkpt lat="42.02604387963882" lon="13.6601211592981"><ele>730.6666666666666</ele><time>2026-04-18T10:58:00Z</time></trkpt><trkpt lat="42.02611935104523" lon="13.660083371814613"><ele>730.0</ele><time>2026-04-18T10:58:02Z</time></trkpt><trkpt lat="42.02618463052977" lon="13.66005834844243"><ele>729.3333333333333</ele><time>2026-04-18T11:01:47Z</time></trkpt><trkpt lat="42.02623369377393" lon="13.659999255506913"><ele>728.6666666666666</ele><time>2026-04-18T11:01:54Z</time></trkpt><trkpt lat="42.02628676809605" lon="13.659869168957915"><ele>728.0</ele><time>2026-04-18T11:01:56Z</time></trkpt><trkpt lat="42.026301605916586" lon="13.659773846323281"><ele>728.0</ele><time>2026-04-18T11:01:57Z</time></trkpt><trkpt lat="42.026304047275154" lon="13.659655252238744"><ele>728.0</ele><time>2026-04-18T11:01:58Z</time></trkpt><trkpt lat="42.026293757061694" lon="13.659523249691311"><ele>728.0</ele><time>2026-04-18T11:01:59Z</time></trkpt><trkpt lat="42.026270014484794" lon="13.659389075562617"><ele>728.0</ele><time>2026-04-18T11:02:00Z</time></trkpt><trkpt lat="42.02622991478037" lon="13.65925607072321"><ele>728.0</ele><time>2026-04-18T11:02:01Z</time></trkpt><trkpt lat="42.026216301020206" lon="13.659123412390523"><ele>727.8</ele><time>2026-04-18T11:02:02Z</time></trkpt><trkpt lat="42.026223123274725" lon="13.658990060103438"><ele>727.5999999999999</ele><time>2026-04-18T11:02:03Z</time></trkpt><trkpt lat="42.026258531873445" lon="13.658870152592675"><ele>727.4000000000001</ele><time>2026-04-18T11:02:04Z</time></trkpt><trkpt lat="42.02629961111963" lon="13.658748734716875"><ele>727.2</ele><time>2026-04-18T11:02:05Z</time></trkpt><trkpt lat="42.02634923008564" lon="13.658623378696099"><ele>727.0</ele><time>2026-04-18T11:02:06Z</time></trkpt><trkpt lat="42.026346960532216" lon="13.658479770257404"><ele>727.0</ele><time>2026-04-18T11:02:07Z</time></trkpt><trkpt lat="42.02635871069318" lon="13.65835890378702"><ele>727.0</ele><time>2026-04-18T11:02:08Z</time></trkpt><trkpt lat="42.02634060312542" lon="13.658229163285597"><ele>727.0</ele><time>2026-04-18T11:02:09Z</time></trkpt><trkpt lat="42.02627445984543" lon="13.658106745720533"><ele>727.0</ele><time>2026-04-18T11:02:10Z</time></trkpt><trkpt lat="42.02622301005951" lon="13.657990728277435"><ele>727.0</ele><time>2026-04-18T11:02:11Z</time></trkpt><trkpt lat="42.0261556191727" lon="13.657891533517441"><ele>727.0</ele><time>2026-04-18T11:02:12Z</time></trkpt><trkpt lat="42.026094278117604" lon="13.657794127949948"><ele>727.0</ele><time>2026-04-18T11:02:13Z</time></trkpt><trkpt lat="42.02602911419095" lon="13.657689886907889"><ele>727.0</ele><time>2026-04-18T11:02:14Z</time></trkpt><trkpt lat="42.02596580821553" lon="13.657580962392737"><ele>727.0</ele><time>2026-04-18T11:02:15Z</time></trkpt><trkpt lat="42.025902235285784" lon="13.657466848224436"><ele>727.0</ele><time>2026-04-18T11:02:16Z</time></trkpt><trkpt lat="42.025831414420786" lon="13.657381953340082"><ele>727.4000000000001</ele><time>2026-04-18T11:02:17Z</time></trkpt><trkpt lat="42.02574736909747" lon="13.657308261373437"><ele>727.8000000000001</ele><time>2026-04-18T11:02:18Z</time></trkpt><trkpt lat="42.025669313527466" lon="13.657234028370487"><ele>728.2</ele><time>2026-04-18T11:02:19Z</time></trkpt><trkpt lat="42.02561179361876" lon="13.657153977871795"><ele>728.6</ele><time>2026-04-18T11:02:20Z</time></trkpt><trkpt lat="42.02553386634738" lon="13.657063469012895"><ele>729.0</ele><time>2026-04-18T11:02:21Z</time></trkpt><trkpt lat="42.025485727462936" lon="13.656943041238387"><ele>729.0</ele><time>2026-04-18T11:02:22Z</time></trkpt><trkpt lat="42.02542090706927" lon="13.656830248524315"><ele>729.0</ele><time>2026-04-18T11:02:23Z</time></trkpt><trkpt lat="42.02536340813274" lon="13.65669598515255"><ele>729.0</ele><time>2026-04-18T11:02:24Z</time></trkpt><trkpt lat="42.02528983734189" lon="13.656577359024427"><ele>729.0</ele><time>2026-04-18T11:02:25Z</time></trkpt><trkpt lat="42.02528551353075" lon="13.656298472053091"><ele>730.6666666666666</ele><time>2026-04-18T11:02:26Z</time></trkpt><trkpt lat="42.0252329550499" lon="13.656071811426171"><ele>732.3333333333333</ele><time>2026-04-18T11:02:27Z</time></trkpt><trkpt lat="42.02513675695784" lon="13.655880655334029"><ele>734.0</ele><time>2026-04-18T11:02:28Z</time></trkpt><trkpt lat="42.02505418563454" lon="13.655724429763199"><ele>734.0</ele><time>2026-04-18T11:02:29Z</time></trkpt><trkpt lat="42.02498154624358" lon="13.655562640597324"><ele>734.0</ele><time>2026-04-18T11:02:30Z</time></trkpt><trkpt lat="42.02491296004703" lon="13.655434341341044"><ele>734.0</ele><time>2026-04-18T11:02:31Z</time></trkpt><trkpt lat="42.024844263906026" lon="13.655288546792796"><ele>734.0</ele><time>2026-04-18T11:02:32Z</time></trkpt><trkpt lat="42.02477577713693" lon="13.655162878841042"><ele>732.0</ele><time>2026-04-18T11:02:33Z</time></trkpt><trkpt lat="42.02470630273998" lon="13.655039743629857"><ele>730.0</ele><time>2026-04-18T11:02:34Z</time></trkpt><trkpt lat="42.02465201664051" lon="13.654916378665307"><ele>728.0</ele><time>2026-04-18T11:02:35Z</time></trkpt><trkpt lat="42.024618296859934" lon="13.65478146816689"><ele>726.0</ele><time>2026-04-18T11:02:36Z</time></trkpt><trkpt lat="42.024620195651465" lon="13.654605421587275"><ele>727.0</ele><time>2026-04-18T11:02:37Z</time></trkpt><trkpt lat="42.024593430133436" lon="13.65443088111201"><ele>728.0</ele><time>2026-04-18T11:02:38Z</time></trkpt><trkpt lat="42.02456412844612" lon="13.654242374015361"><ele>729.0</ele><time>2026-04-18T11:02:39Z</time></trkpt><trkpt lat="42.024523444164345" lon="13.654047087429783"><ele>730.0</ele><time>2026-04-18T11:02:40Z</time></trkpt><trkpt lat="42.024465592933446" lon="13.653839402989153"><ele>730.0</ele><time>2026-04-18T11:02:41Z</time></trkpt><trkpt lat="42.02441054606602" lon="13.653645585655994"><ele>730.0</ele><time>2026-04-18T11:02:42Z</time></trkpt><trkpt lat="42.02435983751625" lon="13.653459907617208"><ele>730.0</ele><time>2026-04-18T11:02:43Z</time></trkpt><trkpt lat="42.024338095381445" lon="13.653300613527405"><ele>730.0</ele><time>2026-04-18T11:02:44Z</time></trkpt><trkpt lat="42.02427740523193" lon="13.653111420593916"><ele>730.8</ele><time>2026-04-18T11:02:45Z</time></trkpt><trkpt lat="42.024258102992825" lon="13.652966482712284"><ele>731.6</ele><time>2026-04-18T11:02:46Z</time></trkpt><trkpt lat="42.02423950398498" lon="13.652837250196335"><ele>732.4000000000001</ele><time>2026-04-18T11:02:47Z</time></trkpt><trkpt lat="42.02422707245991" lon="13.652716328373947"><ele>733.2</ele><time>2026-04-18T11:02:48Z</time></trkpt><trkpt lat="42.02421270512884" lon="13.652603548189079"><ele>734.0</ele><time>2026-04-18T11:02:49Z</time></trkpt><trkpt lat="42.0242067227182" lon="13.652487919192918"><ele>734.4000000000001</ele><time>2026-04-18T11:02:50Z</time></trkpt><trkpt lat="42.02421611937371" lon="13.65235985283228"><ele>734.8</ele><time>2026-04-18T11:02:51Z</time></trkpt><trkpt lat="42.024276094029" lon="13.65225628359098"><ele>735.2</ele><time>2026-04-18T11:02:52Z</time></trkpt><trkpt lat="42.024342778782554" lon="13.65213781332771"><ele>735.5999999999999</ele><time>2026-04-18T11:02:53Z</time></trkpt><trkpt lat="42.02440563634454" lon="13.652030075301095"><ele>736.0</ele><time>2026-04-18T11:02:54Z</time></trkpt><trkpt lat="42.0244627363344" lon="13.651942496851554"><ele>734.5999999999999</ele><time>2026-04-18T11:02:55Z</time></trkpt><trkpt lat="42.02450905108287" lon="13.651861410971243"><ele>733.2</ele><time>2026-04-18T11:02:56Z</time></trkpt><trkpt lat="42.02454560423978" lon="13.651784203591353"><ele>731.8</ele><time>2026-04-18T11:02:57Z</time></trkpt><trkpt lat="42.0246181224295" lon="13.651665036023024"><ele>730.4000000000001</ele><time>2026-04-18T11:02:59Z</time></trkpt><trkpt lat="42.024698276255535" lon="13.651568842088727"><ele>729.0</ele><time>2026-04-18T11:03:01Z</time></trkpt><trkpt lat="42.024771775649896" lon="13.651483643371403"><ele>729.0</ele><time>2026-04-18T11:03:02Z</time></trkpt><trkpt lat="42.02486860734438" lon="13.651368557661241"><ele>729.0</ele><time>2026-04-18T11:03:03Z</time></trkpt><trkpt lat="42.02497359147326" lon="13.65124833116508"><ele>729.0</ele><time>2026-04-18T11:03:04Z</time></trkpt><trkpt lat="42.025077373877195" lon="13.651123001773284"><ele>729.0</ele><time>2026-04-18T11:03:05Z</time></trkpt><trkpt lat="42.025182044429556" lon="13.651001676291694"><ele>729.25</ele><time>2026-04-18T11:03:06Z</time></trkpt><trkpt lat="42.025287267788784" lon="13.650855827032794"><ele>729.5</ele><time>2026-04-18T11:03:07Z</time></trkpt><trkpt lat="42.025387731826974" lon="13.650702967203491"><ele>729.75</ele><time>2026-04-18T11:03:08Z</time></trkpt><trkpt lat="42.025483207035805" lon="13.65055933391821"><ele>730.0</ele><time>2026-04-18T11:03:09Z</time></trkpt><trkpt lat="42.025565262277325" lon="13.650422516816986"><ele>730.5</ele><time>2026-04-18T11:03:10Z</time></trkpt><trkpt lat="42.0256461621802" lon="13.65028126988309"><ele>731.0</ele><time>2026-04-18T11:03:11Z</time></trkpt><trkpt lat="42.0257260657415" lon="13.650131902476001"><ele>731.5</ele><time>2026-04-18T11:03:12Z</time></trkpt><trkpt lat="42.02581437314886" lon="13.649981416492272"><ele>732.0</ele><time>2026-04-18T11:03:13Z</time></trkpt><trkpt lat="42.025908844267846" lon="13.649839001436158"><ele>732.0</ele><time>2026-04-18T11:03:14Z</time></trkpt><trkpt lat="42.02599013078324" lon="13.649698922508515"><ele>732.0</ele><time>2026-04-18T11:03:15Z</time></trkpt><trkpt lat="42.02606895038378" lon="13.649569234371459"><ele>732.0</ele><time>2026-04-18T11:03:16Z</time></trkpt><trkpt lat="42.02614536276891" lon="13.649440284003482"><ele>732.0</ele><time>2026-04-18T11:03:17Z</time></trkpt><trkpt lat="42.026221959769096" lon="13.649320408168279"><ele>730.0</ele><time>2026-04-18T11:03:18Z</time></trkpt><trkpt lat="42.02630240683973" lon="13.649192323415098"><ele>728.0</ele><time>2026-04-18T11:03:19Z</time></trkpt><trkpt lat="42.02638972320874" lon="13.649063682685188"><ele>726.0</ele><time>2026-04-18T11:03:20Z</time></trkpt><trkpt lat="42.02648232635061" lon="13.648936235020962"><ele>724.0</ele><time>2026-04-18T11:03:21Z</time></trkpt><trkpt lat="42.026589775105805" lon="13.64882315422198"><ele>724.75</ele><time>2026-04-18T11:03:22Z</time></trkpt><trkpt lat="42.02670972617777" lon="13.648708099789188"><ele>725.5</ele><time>2026-04-18T11:03:23Z</time></trkpt><trkpt lat="42.02683387075095" lon="13.648590784833193"><ele>726.25</ele><time>2026-04-18T11:03:24Z</time></trkpt><trkpt lat="42.02693580871925" lon="13.648472215781023"><ele>727.0</ele><time>2026-04-18T11:03:25Z</time></trkpt><trkpt lat="42.0270246818166" lon="13.648367163681893"><ele>727.0</ele><time>2026-04-18T11:03:26Z</time></trkpt><trkpt lat="42.027107448047744" lon="13.648267647874361"><ele>727.0</ele><time>2026-04-18T11:03:27Z</time></trkpt><trkpt lat="42.02719804863856" lon="13.648160871448464"><ele>727.0</ele><time>2026-04-18T11:03:28Z</time></trkpt><trkpt lat="42.02729327996228" lon="13.648036265258131"><ele>727.0</ele><time>2026-04-18T11:03:29Z</time></trkpt><trkpt lat="42.027389582450546" lon="13.647896798968489"><ele>727.25</ele><time>2026-04-18T11:03:30Z</time></trkpt><trkpt lat="42.02748337267491" lon="13.64775149521808"><ele>727.5</ele><time>2026-04-18T11:03:31Z</time></trkpt><trkpt lat="42.027581242003954" lon="13.647609887947304"><ele>727.75</ele><time>2026-04-18T11:03:32Z</time></trkpt><trkpt lat="42.02767385822134" lon="13.64746294122256"><ele>728.0</ele><time>2026-04-18T11:03:33Z</time></trkpt><trkpt lat="42.027773025179435" lon="13.647317057968753"><ele>728.0</ele><time>2026-04-18T11:03:34Z</time></trkpt><trkpt lat="42.02789068860681" lon="13.647153829306081"><ele>728.0</ele><time>2026-04-18T11:03:35Z</time></trkpt><trkpt lat="42.02803324468476" lon="13.646980670793443"><ele>728.0</ele><time>2026-04-18T11:03:36Z</time></trkpt><trkpt lat="42.02818885322745" lon="13.646805826865034"><ele>727.3333333333333</ele><time>2026-04-18T11:03:37Z</time></trkpt><trkpt lat="42.02835022672875" lon="13.64664036427599"><ele>726.6666666666666</ele><time>2026-04-18T11:03:38Z</time></trkpt><trkpt lat="42.02848558966174" lon="13.646468426919656"><ele>726.0</ele><time>2026-04-18T11:03:39Z</time></trkpt><trkpt lat="42.02861063858488" lon="13.646322838094095"><ele>726.0</ele><time>2026-04-18T11:03:40Z</time></trkpt><trkpt lat="42.028709506011765" lon="13.646178398813325"><ele>726.0</ele><time>2026-04-18T11:03:41Z</time></trkpt><trkpt lat="42.028794348666544" lon="13.64602844490862"><ele>726.0</ele><time>2026-04-18T11:03:42Z</time></trkpt><trkpt lat="42.02887166389565" lon="13.645895669163387"><ele>726.0</ele><time>2026-04-18T11:03:43Z</time></trkpt><trkpt lat="42.02894366078821" lon="13.645781293483875"><ele>725.25</ele><time>2026-04-18T11:03:44Z</time></trkpt><trkpt lat="42.02902325618298" lon="13.645691388356566"><ele>724.5</ele><time>2026-04-18T11:03:45Z</time></trkpt><trkpt lat="42.0291166911837" lon="13.645611033555337"><ele>723.75</ele><time>2026-04-18T11:03:46Z</time></trkpt><trkpt lat="42.02922657749004" lon="13.645556555603275"><ele>723.0</ele><time>2026-04-18T11:03:47Z</time></trkpt><trkpt lat="42.029345142151556" lon="13.645516490315618"><ele>724.5</ele><time>2026-04-18T11:03:48Z</time></trkpt><trkpt lat="42.02946973822656" lon="13.645472707100092"><ele>726.0</ele><time>2026-04-18T11:03:49Z</time></trkpt><trkpt lat="42.02959735023322" lon="13.645427135358824"><ele>727.5</ele><time>2026-04-18T11:03:50Z</time></trkpt><trkpt lat="42.02973132425274" lon="13.645368800775746"><ele>729.0</ele><time>2026-04-18T11:03:51Z</time></trkpt><trkpt lat="42.02986737205099" lon="13.645309612933975"><ele>728.75</ele><time>2026-04-18T11:03:52Z</time></trkpt><trkpt lat="42.03000113786757" lon="13.645251573951082"><ele>728.5</ele><time>2026-04-18T11:03:53Z</time></trkpt><trkpt lat="42.03013274396997" lon="13.645184855877396"><ele>728.25</ele><time>2026-04-18T11:03:54Z</time></trkpt><trkpt lat="42.03026567467281" lon="13.645100847576986"><ele>728.0</ele><time>2026-04-18T11:03:55Z</time></trkpt><trkpt lat="42.030396274557134" lon="13.645006309223247"><ele>728.0</ele><time>2026-04-18T11:03:56Z</time></trkpt><trkpt lat="42.03052600492819" lon="13.644903669072203"><ele>728.0</ele><time>2026-04-18T11:03:57Z</time></trkpt><trkpt lat="42.03065328952789" lon="13.644793071976068"><ele>728.0</ele><time>2026-04-18T11:03:58Z</time></trkpt><trkpt lat="42.03077756404864" lon="13.644670019688785"><ele>727.0</ele><time>2026-04-18T11:03:59Z</time></trkpt><trkpt lat="42.03089949488508" lon="13.644537316649876"><ele>726.0</ele><time>2026-04-18T11:04:00Z</time></trkpt><trkpt lat="42.031019219498255" lon="13.644388308757689"><ele>725.0</ele><time>2026-04-18T11:04:01Z</time></trkpt><trkpt lat="42.03113796351024" lon="13.644225200418946"><ele>725.0</ele><time>2026-04-18T11:04:02Z</time></trkpt><trkpt lat="42.03125429054451" lon="13.644051579494004"><ele>725.0</ele><time>2026-04-18T11:04:03Z</time></trkpt><trkpt lat="42.031365748508975" lon="13.643868268587228"><ele>725.0</ele><time>2026-04-18T11:04:04Z</time></trkpt><trkpt lat="42.0314684878331" lon="13.643669701001738"><ele>724.0</ele><time>2026-04-18T11:04:05Z</time></trkpt><trkpt lat="42.03156933832563" lon="13.64345602062219"><ele>723.0</ele><time>2026-04-18T11:04:06Z</time></trkpt><trkpt lat="42.031672401386274" lon="13.64322484444332"><ele>722.0</ele><time>2026-04-18T11:04:07Z</time></trkpt><trkpt lat="42.03177823328601" lon="13.642981186022185"><ele>722.6666666666666</ele><time>2026-04-18T11:04:08Z</time></trkpt><trkpt lat="42.0319099680515" lon="13.642761298282595"><ele>723.3333333333334</ele><time>2026-04-18T11:04:09Z</time></trkpt><trkpt lat="42.03205844667613" lon="13.64256578991601"><ele>724.0</ele><time>2026-04-18T11:04:10Z</time></trkpt><trkpt lat="42.032229926148574" lon="13.642380241644963"><ele>724.0</ele><time>2026-04-18T11:04:11Z</time></trkpt><trkpt lat="42.03241723218226" lon="13.642201789537083"><ele>724.0</ele><time>2026-04-18T11:04:12Z</time></trkpt><trkpt lat="42.0326241419501" lon="13.642023399396065"><ele>723.5</ele><time>2026-04-18T11:04:13Z</time></trkpt><trkpt lat="42.03283195366508" lon="13.64182688881532"><ele>723.0</ele><time>2026-04-18T11:04:14Z</time></trkpt><trkpt lat="42.03304479461959" lon="13.641646090940052"><ele>723.0</ele><time>2026-04-18T11:04:15Z</time></trkpt><trkpt lat="42.03326124827944" lon="13.641462900525292"><ele>723.0</ele><time>2026-04-18T11:04:16Z</time></trkpt><trkpt lat="42.033477771792775" lon="13.641276656733245"><ele>723.5</ele><time>2026-04-18T11:04:17Z</time></trkpt><trkpt lat="42.03369690796508" lon="13.641082976422034"><ele>724.0</ele><time>2026-04-18T11:04:18Z</time></trkpt><trkpt lat="42.033920986062846" lon="13.64089275769999"><ele>725.5</ele><time>2026-04-18T11:04:19Z</time></trkpt><trkpt lat="42.0341451497233" lon="13.640706959026833"><ele>727.0</ele><time>2026-04-18T11:04:20Z</time></trkpt><trkpt lat="42.034368206827914" lon="13.640512299883175"><ele>727.0</ele><time>2026-04-18T11:04:21Z</time></trkpt><trkpt lat="42.034595427251325" lon="13.640315561054184"><ele>727.0</ele><time>2026-04-18T11:04:22Z</time></trkpt><trkpt lat="42.034823970340874" lon="13.640119739211283"><ele>727.0</ele><time>2026-04-18T11:04:23Z</time></trkpt><trkpt lat="42.03504864650102" lon="13.63992729771962"><ele>727.0</ele><time>2026-04-18T11:04:24Z</time></trkpt><trkpt lat="42.03526559546036" lon="13.639727669764191"><ele>727.0</ele><time>2026-04-18T11:04:25Z</time></trkpt><trkpt lat="42.03547374873862" lon="13.639511418632647"><ele>727.0</ele><time>2026-04-18T11:04:26Z</time></trkpt><trkpt lat="42.03567076016675" lon="13.63926205485321"><ele>726.0</ele><time>2026-04-18T11:04:27Z</time></trkpt><trkpt lat="42.035866849251086" lon="13.638955920365467"><ele>725.0</ele><time>2026-04-18T11:04:28Z</time></trkpt><trkpt lat="42.036060366651746" lon="13.638610598890736"><ele>725.0</ele><time>2026-04-18T11:04:29Z</time></trkpt><trkpt lat="42.03624809254095" lon="13.638308603730504"><ele>725.0</ele><time>2026-04-18T11:04:30Z</time></trkpt><trkpt lat="42.03639876094081" lon="13.638049673855525"><ele>725.0</ele><time>2026-04-18T11:04:31Z</time></trkpt><trkpt lat="42.0365412993216" lon="13.637806313763928"><ele>725.0</ele><time>2026-04-18T11:04:32Z</time></trkpt><trkpt lat="42.036694533082716" lon="13.637585286424134"><ele>726.5</ele><time>2026-04-18T11:04:33Z</time></trkpt><trkpt lat="42.03688631615473" lon="13.637385991088056"><ele>728.0</ele><time>2026-04-18T11:04:34Z</time></trkpt><trkpt lat="42.037105662123814" lon="13.63718577985378"><ele>728.0</ele><time>2026-04-18T11:04:35Z</time></trkpt><trkpt lat="42.03731513228519" lon="13.636994026859888"><ele>728.0</ele><time>2026-04-18T11:04:36Z</time></trkpt><trkpt lat="42.03750377781375" lon="13.63678014131309"><ele>727.0</ele><time>2026-04-18T11:04:37Z</time></trkpt><trkpt lat="42.03769483191915" lon="13.636519584634641"><ele>726.0</ele><time>2026-04-18T11:04:38Z</time></trkpt><trkpt lat="42.0378833564403" lon="13.636213856687688"><ele>724.0</ele><time>2026-04-18T11:04:39Z</time></trkpt><trkpt lat="42.03808246108228" lon="13.635879422494094"><ele>722.0</ele><time>2026-04-18T11:04:40Z</time></trkpt><trkpt lat="42.038266808360454" lon="13.635548761546147"><ele>721.0</ele><time>2026-04-18T11:04:41Z</time></trkpt><trkpt lat="42.03843830273718" lon="13.635198240928979"><ele>720.0</ele><time>2026-04-18T11:04:42Z</time></trkpt><trkpt lat="42.03859320327609" lon="13.634811429651256"><ele>718.5</ele><time>2026-04-18T11:04:43Z</time></trkpt><trkpt lat="42.038749351806324" lon="13.634406370889986"><ele>717.0</ele><time>2026-04-18T11:04:44Z</time></trkpt><trkpt lat="42.03891231561952" lon="13.63405124039302"><ele>717.0</ele><time>2026-04-18T11:04:45Z</time></trkpt><trkpt lat="42.03905598033185" lon="13.633700132066272"><ele>717.0</ele><time>2026-04-18T11:04:46Z</time></trkpt><trkpt lat="42.039194451967596" lon="13.633334243379524"><ele>717.5</ele><time>2026-04-18T11:04:47Z</time></trkpt><trkpt lat="42.03935433793155" lon="13.632956743400706"><ele>718.0</ele><time>2026-04-18T11:04:48Z</time></trkpt><trkpt lat="42.039519744238376" lon="13.632597611973326"><ele>716.0</ele><time>2026-04-18T11:04:49Z</time></trkpt><trkpt lat="42.039705660871135" lon="13.632260503918543"><ele>714.0</ele><time>2026-04-18T11:04:50Z</time></trkpt><trkpt lat="42.03990989367517" lon="13.631924350701844"><ele>715.0</ele><time>2026-04-18T11:04:51Z</time></trkpt><trkpt lat="42.04011567708738" lon="13.631586396499323"><ele>716.0</ele><time>2026-04-18T11:04:52Z</time></trkpt><trkpt lat="42.040319848775624" lon="13.63123821828552"><ele>715.0</ele><time>2026-04-18T11:04:53Z</time></trkpt><trkpt lat="42.04052296993114" lon="13.630901459918942"><ele>714.0</ele><time>2026-04-18T11:04:54Z</time></trkpt><trkpt lat="42.04073209296708" lon="13.630561391683278"><ele>714.5</ele><time>2026-04-18T11:04:55Z</time></trkpt><trkpt lat="42.040941525016436" lon="13.630212222341124"><ele>715.0</ele><time>2026-04-18T11:04:56Z</time></trkpt><trkpt lat="42.04114191870261" lon="13.629874312506375"><ele>715.0</ele><time>2026-04-18T11:04:57Z</time></trkpt><trkpt lat="42.041323778101095" lon="13.629569199232348"><ele>715.0</ele><time>2026-04-18T11:04:58Z</time></trkpt><trkpt lat="42.041498730873876" lon="13.629290204959103"><ele>717.0</ele><time>2026-04-18T11:04:58.999Z</time></trkpt><trkpt lat="42.04166707858999" lon="13.629016788405483"><ele>719.0</ele><time>2026-04-18T11:04:59.999Z</time></trkpt><trkpt lat="42.041837049409146" lon="13.62875140108686"><ele>716.5</ele><time>2026-04-18T11:05:00.999Z</time></trkpt><trkpt lat="42.0420068780398" lon="13.628484315745288"><ele>714.0</ele><time>2026-04-18T11:05:01.999Z</time></trkpt><trkpt lat="42.04218194558186" lon="13.628217409797042"><ele>714.0</ele><time>2026-04-18T11:05:02.999Z</time></trkpt><trkpt lat="42.04234345705975" lon="13.627971020305216"><ele>714.0</ele><time>2026-04-18T11:05:04Z</time></trkpt><trkpt lat="42.04249305738286" lon="13.627730636663598"><ele>713.6666666666666</ele><time>2026-04-18T11:05:05Z</time></trkpt><trkpt lat="42.04263340717293" lon="13.627504601615541"><ele>713.3333333333333</ele><time>2026-04-18T11:05:06Z</time></trkpt><trkpt lat="42.04277097869016" lon="13.627296170678411"><ele>713.0</ele><time>2026-04-18T11:05:07Z</time></trkpt><trkpt lat="42.04290041315665" lon="13.627100580279652"><ele>712.0</ele><time>2026-04-18T11:05:08Z</time></trkpt><trkpt lat="42.04302066232239" lon="13.626913498914364"><ele>711.0</ele><time>2026-04-18T11:05:09Z</time></trkpt><trkpt lat="42.04314101206987" lon="13.626727524859826"><ele>710.0</ele><time>2026-04-18T11:05:10Z</time></trkpt><trkpt lat="42.04326991800421" lon="13.62652975466713"><ele>710.6666666666666</ele><time>2026-04-18T11:05:11Z</time></trkpt><trkpt lat="42.04340230231362" lon="13.626317656417378"><ele>711.3333333333334</ele><time>2026-04-18T11:05:12Z</time></trkpt><trkpt lat="42.043544054812166" lon="13.626102948925277"><ele>712.0</ele><time>2026-04-18T11:05:13Z</time></trkpt><trkpt lat="42.043689673931475" lon="13.625884300353887"><ele>712.0</ele><time>2026-04-18T11:05:14Z</time></trkpt><trkpt lat="42.043832124862874" lon="13.625646138107784"><ele>712.0</ele><time>2026-04-18T11:05:15Z</time></trkpt><trkpt lat="42.04399189918833" lon="13.625415163113502"><ele>712.0</ele><time>2026-04-18T11:05:16Z</time></trkpt><trkpt lat="42.04414533547299" lon="13.625164469891564"><ele>712.0</ele><time>2026-04-18T11:05:17Z</time></trkpt><trkpt lat="42.04430968507515" lon="13.624912889485165"><ele>712.0</ele><time>2026-04-18T11:05:18Z</time></trkpt><trkpt lat="42.044478825914204" lon="13.624633723306523"><ele>712.0</ele><time>2026-04-18T11:05:19Z</time></trkpt><trkpt lat="42.0446538563682" lon="13.62435578802649"><ele>711.5</ele><time>2026-04-18T11:05:20Z</time></trkpt><trkpt lat="42.044819976529986" lon="13.624115724574441"><ele>711.0</ele><time>2026-04-18T11:05:21Z</time></trkpt><trkpt lat="42.04497228257255" lon="13.623917462904176"><ele>711.3333333333334</ele><time>2026-04-18T11:05:22Z</time></trkpt><trkpt lat="42.04512685526797" lon="13.623748954406912"><ele>711.6666666666667</ele><time>2026-04-18T11:05:23Z</time></trkpt><trkpt lat="42.04527065607861" lon="13.623594413182616"><ele>712.0</ele><time>2026-04-18T11:05:24Z</time></trkpt><trkpt lat="42.04540576002969" lon="13.623451670347528"><ele>712.0</ele><time>2026-04-18T11:05:25Z</time></trkpt><trkpt lat="42.04553517044563" lon="13.623315853483973"><ele>712.0</ele><time>2026-04-18T11:05:26Z</time></trkpt><trkpt lat="42.04566403696304" lon="13.623185221606338"><ele>712.0</ele><time>2026-04-18T11:05:27Z</time></trkpt><trkpt lat="42.04578005567373" lon="13.623065346267074"><ele>712.4000000000001</ele><time>2026-04-18T11:05:28Z</time></trkpt><trkpt lat="42.04588308731818" lon="13.62296180615046"><ele>712.8000000000001</ele><time>2026-04-18T11:05:29Z</time></trkpt><trkpt lat="42.04597805375823" lon="13.622869982428055"><ele>713.2</ele><time>2026-04-18T11:05:30Z</time></trkpt><trkpt lat="42.04606786185373" lon="13.62279751709506"><ele>713.6</ele><time>2026-04-18T11:05:31Z</time></trkpt><trkpt lat="42.04615182587095" lon="13.622741662410435"><ele>714.0</ele><time>2026-04-18T11:05:32Z</time></trkpt><trkpt lat="42.0462275019288" lon="13.6226889327035"><ele>714.0</ele><time>2026-04-18T11:05:33Z</time></trkpt><trkpt lat="42.046290539421555" lon="13.62264547731267"><ele>714.0</ele><time>2026-04-18T11:05:34Z</time></trkpt><trkpt lat="42.04637064740381" lon="13.622594585993062"><ele>714.0</ele><time>2026-04-18T11:05:36Z</time></trkpt><trkpt lat="42.04643251110186" lon="13.622553359075647"><ele>714.0</ele><time>2026-04-18T11:05:39Z</time></trkpt><trkpt lat="42.046323628317516" lon="13.622561214930295"><ele>714.0</ele><time>2026-04-18T11:06:05Z</time></trkpt><trkpt lat="42.04623545509472" lon="13.622634470167997"><ele>714.0</ele><time>2026-04-18T11:06:06Z</time></trkpt><trkpt lat="42.046137011403715" lon="13.622708060489204"><ele>714.0</ele><time>2026-04-18T11:06:07Z</time></trkpt><trkpt lat="42.04603158680426" lon="13.622776302197623"><ele>714.0</ele><time>2026-04-18T11:06:08Z</time></trkpt><trkpt lat="42.04592225463072" lon="13.622879534883166"><ele>714.0</ele><time>2026-04-18T11:06:09Z</time></trkpt><trkpt lat="42.04580552505367" lon="13.622983752570967"><ele>714.0</ele><time>2026-04-18T11:06:10Z</time></trkpt><trkpt lat="42.0457041630763" lon="13.623089046312598"><ele>713.5</ele><time>2026-04-18T11:06:11Z</time></trkpt><trkpt lat="42.04559967864928" lon="13.623205930366169"><ele>713.0</ele><time>2026-04-18T11:06:12Z</time></trkpt><trkpt lat="42.045481396691486" lon="13.623330875157809"><ele>712.5</ele><time>2026-04-18T11:06:13Z</time></trkpt><trkpt lat="42.04536077959058" lon="13.623461339879917"><ele>712.0</ele><time>2026-04-18T11:06:14Z</time></trkpt><trkpt lat="42.04523736329251" lon="13.62359231063291"><ele>712.2</ele><time>2026-04-18T11:06:15Z</time></trkpt><trkpt lat="42.04513000541331" lon="13.62371005373026"><ele>712.4000000000001</ele><time>2026-04-18T11:06:16Z</time></trkpt><trkpt lat="42.045043321610414" lon="13.62381004423876"><ele>712.5999999999999</ele><time>2026-04-18T11:06:17Z</time></trkpt><trkpt lat="42.044968966822516" lon="13.623877585423775"><ele>712.8</ele><time>2026-04-18T11:06:18Z</time></trkpt><trkpt lat="42.04491440367394" lon="13.623940607948956"><ele>713.0</ele><time>2026-04-18T11:06:19Z</time></trkpt><trkpt lat="42.04486632802545" lon="13.624028477216246"><ele>713.0</ele><time>2026-04-18T11:06:21Z</time></trkpt><trkpt lat="42.04498408084904" lon="13.62429973620282"><ele>713.0</ele><time>2026-04-18T11:06:22Z</time></trkpt><trkpt lat="42.04507978533895" lon="13.624400138273334"><ele>713.0</ele><time>2026-04-18T11:06:23Z</time></trkpt><trkpt lat="42.04520013928491" lon="13.62451957911728"><ele>714.3333333333333</ele><time>2026-04-18T11:06:24Z</time></trkpt><trkpt lat="42.04533988720576" lon="13.62465559684858"><ele>715.6666666666666</ele><time>2026-04-18T11:06:25Z</time></trkpt><trkpt lat="42.04547225819155" lon="13.624782724722934"><ele>717.0</ele><time>2026-04-18T11:06:26Z</time></trkpt><trkpt lat="42.045602269744734" lon="13.624909906595976"><ele>717.0</ele><time>2026-04-18T11:06:27Z</time></trkpt><trkpt lat="42.045728326189625" lon="13.62503359708646"><ele>717.0</ele><time>2026-04-18T11:06:28Z</time></trkpt><trkpt lat="42.04584545177916" lon="13.62514636131595"><ele>717.0</ele><time>2026-04-18T11:06:29Z</time></trkpt><trkpt lat="42.045963991340585" lon="13.625262972937756"><ele>717.0</ele><time>2026-04-18T11:06:30Z</time></trkpt><trkpt lat="42.04609062636498" lon="13.625389108560377"><ele>717.0</ele><time>2026-04-18T11:06:31Z</time></trkpt><trkpt lat="42.04622157587042" lon="13.625515095626616"><ele>717.0</ele><time>2026-04-18T11:06:32Z</time></trkpt><trkpt lat="42.04635595066628" lon="13.625643755805793"><ele>717.0</ele><time>2026-04-18T11:06:33Z</time></trkpt><trkpt lat="42.04649906880331" lon="13.625784038107533"><ele>718.0</ele><time>2026-04-18T11:06:34Z</time></trkpt><trkpt lat="42.046651034481165" lon="13.62593172809788"><ele>719.0</ele><time>2026-04-18T11:06:35Z</time></trkpt><trkpt lat="42.04681222687187" lon="13.626087607144392"><ele>720.0</ele><time>2026-04-18T11:06:36Z</time></trkpt><trkpt lat="42.04698298942446" lon="13.626257891949457"><ele>721.6666666666666</ele><time>2026-04-18T11:06:37Z</time></trkpt><trkpt lat="42.04715264770365" lon="13.626424011831975"><ele>723.3333333333333</ele><time>2026-04-18T11:06:38Z</time></trkpt><trkpt lat="42.04732245766574" lon="13.626591945460374"><ele>725.0</ele><time>2026-04-18T11:06:39Z</time></trkpt><trkpt lat="42.04749293025304" lon="13.626761127246567"><ele>727.0</ele><time>2026-04-18T11:06:40Z</time></trkpt><trkpt lat="42.047667162218936" lon="13.626930854348318"><ele>729.0</ele><time>2026-04-18T11:06:41Z</time></trkpt><trkpt lat="42.04786457121897" lon="13.62712308649546"><ele>729.0</ele><time>2026-04-18T11:06:42Z</time></trkpt><trkpt lat="42.04806283726788" lon="13.627316119007297"><ele>729.0</ele><time>2026-04-18T11:06:43Z</time></trkpt><trkpt lat="42.048260759154424" lon="13.627509954401619"><ele>730.3333333333334</ele><time>2026-04-18T11:06:44Z</time></trkpt><trkpt lat="42.048435058812586" lon="13.627681517547176"><ele>731.6666666666667</ele><time>2026-04-18T11:06:45Z</time></trkpt><trkpt lat="42.04861570702132" lon="13.627825740069701"><ele>733.0</ele><time>2026-04-18T11:06:46Z</time></trkpt><trkpt lat="42.048833919630795" lon="13.627931097362064"><ele>733.0</ele><time>2026-04-18T11:06:47Z</time></trkpt><trkpt lat="42.049080082798014" lon="13.628005901770686"><ele>733.0</ele><time>2026-04-18T11:06:48Z</time></trkpt><trkpt lat="42.04933638892032" lon="13.628072008250053"><ele>734.6666666666667</ele><time>2026-04-18T11:06:49Z</time></trkpt><trkpt lat="42.04956385609191" lon="13.62813959918352"><ele>736.3333333333334</ele><time>2026-04-18T11:06:50Z</time></trkpt><trkpt lat="42.049759806369366" lon="13.628229638649378"><ele>738.0</ele><time>2026-04-18T11:06:51Z</time></trkpt><trkpt lat="42.04993804755343" lon="13.628350686735214"><ele>739.3333333333334</ele><time>2026-04-18T11:06:52Z</time></trkpt><trkpt lat="42.05009372147959" lon="13.628524108828309"><ele>740.6666666666667</ele><time>2026-04-18T11:06:53Z</time></trkpt><trkpt lat="42.05024110037238" lon="13.628693079295317"><ele>742.0</ele><time>2026-04-18T11:06:54Z</time></trkpt><trkpt lat="42.050394560321244" lon="13.628836601864567"><ele>742.0</ele><time>2026-04-18T11:06:55Z</time></trkpt><trkpt lat="42.05057699138728" lon="13.628927668535614"><ele>742.0</ele><time>2026-04-18T11:06:56Z</time></trkpt><trkpt lat="42.05078518546088" lon="13.628951671975889"><ele>742.0</ele><time>2026-04-18T11:06:57Z</time></trkpt><trkpt lat="42.05101584591785" lon="13.628980025499896"><ele>745.5</ele><time>2026-04-18T11:06:58Z</time></trkpt><trkpt lat="42.05127595625927" lon="13.6289321654664"><ele>749.0</ele><time>2026-04-18T11:06:59Z</time></trkpt><trkpt lat="42.05153624158656" lon="13.628882986569524"><ele>751.5</ele><time>2026-04-18T11:06:59.999Z</time></trkpt><trkpt lat="42.05181028052378" lon="13.628798668139716"><ele>754.0</ele><time>2026-04-18T11:07:00.999Z</time></trkpt><trkpt lat="42.05210213065874" lon="13.628685328013384"><ele>761.0</ele><time>2026-04-18T11:07:01.999Z</time></trkpt><trkpt lat="42.052401990095575" lon="13.628568741229547"><ele>768.0</ele><time>2026-04-18T11:07:02.999Z</time></trkpt><trkpt lat="42.0526639848558" lon="13.628473874539083"><ele>769.6666666666667</ele><time>2026-04-18T11:07:03.999Z</time></trkpt><trkpt lat="42.0529041294955" lon="13.62839408586858"><ele>771.3333333333334</ele><time>2026-04-18T11:07:04.999Z</time></trkpt><trkpt lat="42.05309925326021" lon="13.628325911462444"><ele>773.0</ele><time>2026-04-18T11:07:05.999Z</time></trkpt><trkpt lat="42.05325109194213" lon="13.62827191217389"><ele>772.0</ele><time>2026-04-18T11:07:06.999Z</time></trkpt><trkpt lat="42.053386193520865" lon="13.628201122026148"><ele>771.0</ele><time>2026-04-18T11:07:07.999Z</time></trkpt><trkpt lat="42.0535131230261" lon="13.62807583863044"><ele>770.0</ele><time>2026-04-18T11:07:08.999Z</time></trkpt><trkpt lat="42.05364513120558" lon="13.627884811091482"><ele>775.0</ele><time>2026-04-18T11:07:10Z</time></trkpt><trkpt lat="42.05378075036067" lon="13.627660359528658"><ele>780.0</ele><time>2026-04-18T11:07:11Z</time></trkpt><trkpt lat="42.05389918188776" lon="13.627472226466166"><ele>785.0</ele><time>2026-04-18T11:07:12Z</time></trkpt><trkpt lat="42.054007883335984" lon="13.627345848359536"><ele>785.0</ele><time>2026-04-18T11:07:13Z</time></trkpt><trkpt lat="42.05409243132084" lon="13.627231986287642"><ele>785.0</ele><time>2026-04-18T11:07:14Z</time></trkpt><trkpt lat="42.054169843543285" lon="13.627143498199345"><ele>785.0</ele><time>2026-04-18T11:07:15Z</time></trkpt><trkpt lat="42.054270409022" lon="13.62715287974851"><ele>785.0</ele><time>2026-04-18T11:07:16Z</time></trkpt><trkpt lat="42.05435660376467" lon="13.6271924878806"><ele>785.0</ele><time>2026-04-18T11:07:17Z</time></trkpt><trkpt lat="42.05442919218581" lon="13.627279175627148"><ele>782.3333333333334</ele><time>2026-04-18T11:07:18Z</time></trkpt><trkpt lat="42.054501110062354" lon="13.627429397425066"><ele>779.6666666666667</ele><time>2026-04-18T11:07:19Z</time></trkpt><trkpt lat="42.054552964726916" lon="13.62764125312629"><ele>777.0</ele><time>2026-04-18T11:07:20Z</time></trkpt><trkpt lat="42.05462336121513" lon="13.627885879599065"><ele>775.0</ele><time>2026-04-18T11:07:21Z</time></trkpt><trkpt lat="42.054680119532264" lon="13.628107597185565"><ele>773.0</ele><time>2026-04-18T11:07:22Z</time></trkpt><trkpt lat="42.054713050183096" lon="13.628297620970734"><ele>771.0</ele><time>2026-04-18T11:07:23Z</time></trkpt><trkpt lat="42.054777195312354" lon="13.62846132310759"><ele>771.0</ele><time>2026-04-18T11:07:24Z</time></trkpt><trkpt lat="42.05487893262332" lon="13.628617082956078"><ele>771.0</ele><time>2026-04-18T11:07:25Z</time></trkpt><trkpt lat="42.05503918099897" lon="13.628746889376755"><ele>771.0</ele><time>2026-04-18T11:07:26Z</time></trkpt><trkpt lat="42.05522885736025" lon="13.62887385141536"><ele>773.3333333333333</ele><time>2026-04-18T11:07:27Z</time></trkpt><trkpt lat="42.05541375951162" lon="13.628988867504209"><ele>775.6666666666666</ele><time>2026-04-18T11:07:28Z</time></trkpt><trkpt lat="42.055570551248394" lon="13.629079710732167"><ele>778.0</ele><time>2026-04-18T11:07:29Z</time></trkpt><trkpt lat="42.05572884934859" lon="13.629144083349914"><ele>782.6666666666666</ele><time>2026-04-18T11:07:30Z</time></trkpt><trkpt lat="42.05589149553717" lon="13.629161626949937"><ele>787.3333333333333</ele><time>2026-04-18T11:07:31Z</time></trkpt><trkpt lat="42.05606523143379" lon="13.629103192857583"><ele>792.0</ele><time>2026-04-18T11:07:32Z</time></trkpt><trkpt lat="42.05624811604368" lon="13.629031122156944"><ele>792.0</ele><time>2026-04-18T11:07:33Z</time></trkpt><trkpt lat="42.05643846981711" lon="13.628962379382148"><ele>792.0</ele><time>2026-04-18T11:07:34Z</time></trkpt><trkpt lat="42.056630817038844" lon="13.628896266587306"><ele>792.0</ele><time>2026-04-18T11:07:35Z</time></trkpt><trkpt lat="42.05681380508215" lon="13.628832831237634"><ele>792.6666666666667</ele><time>2026-04-18T11:07:36Z</time></trkpt><trkpt lat="42.05698460801929" lon="13.628772375950641"><ele>793.3333333333334</ele><time>2026-04-18T11:07:37Z</time></trkpt><trkpt lat="42.057141841239265" lon="13.628716586951562"><ele>794.0</ele><time>2026-04-18T11:07:38Z</time></trkpt><trkpt lat="42.057290157768506" lon="13.628641341244688"><ele>797.0</ele><time>2026-04-18T11:07:39Z</time></trkpt><trkpt lat="42.057430470309484" lon="13.628592055959878"><ele>800.0</ele><time>2026-04-18T11:07:40Z</time></trkpt><trkpt lat="42.05755550332365" lon="13.62856947362644"><ele>803.0</ele><time>2026-04-18T11:07:41Z</time></trkpt><trkpt lat="42.057660781512766" lon="13.628535851815293"><ele>806.0</ele><time>2026-04-18T11:07:42Z</time></trkpt><trkpt lat="42.05775583439553" lon="13.628520193423082"><ele>806.4</ele><time>2026-04-18T11:07:43Z</time></trkpt><trkpt lat="42.05784256390839" lon="13.628509416217367"><ele>806.8</ele><time>2026-04-18T11:07:44Z</time></trkpt><trkpt lat="42.05792976766911" lon="13.628572801491288"><ele>807.1999999999999</ele><time>2026-04-18T11:07:45Z</time></trkpt><trkpt lat="42.05803275705769" lon="13.628612126876117"><ele>807.5999999999999</ele><time>2026-04-18T11:07:46Z</time></trkpt><trkpt lat="42.05812454906966" lon="13.628683707123164"><ele>808.0</ele><time>2026-04-18T11:07:47Z</time></trkpt><trkpt lat="42.05821427651221" lon="13.628729833650246"><ele>809.4</ele><time>2026-04-18T11:07:48Z</time></trkpt><trkpt lat="42.05830353390433" lon="13.62877642676697"><ele>810.8</ele><time>2026-04-18T11:07:49Z</time></trkpt><trkpt lat="42.0583986870655" lon="13.628826963227773"><ele>812.2</ele><time>2026-04-18T11:07:50Z</time></trkpt><trkpt lat="42.058491477880885" lon="13.628876802610757"><ele>813.6</ele><time>2026-04-18T11:07:51Z</time></trkpt><trkpt lat="42.058576244185154" lon="13.628906963750488"><ele>815.0</ele><time>2026-04-18T11:07:52Z</time></trkpt><trkpt lat="42.058660111708164" lon="13.628901592091994"><ele>815.0</ele><time>2026-04-18T11:07:53Z</time></trkpt><trkpt lat="42.05876316436496" lon="13.628929906700595"><ele>815.0</ele><time>2026-04-18T11:07:54Z</time></trkpt><trkpt lat="42.05888487930072" lon="13.628999160446645"><ele>815.0</ele><time>2026-04-18T11:07:55Z</time></trkpt><trkpt lat="42.05900457313746" lon="13.629077501038083"><ele>815.0</ele><time>2026-04-18T11:07:56Z</time></trkpt><trkpt lat="42.059106844510616" lon="13.629163510092466"><ele>816.6666666666667</ele><time>2026-04-18T11:07:57Z</time></trkpt><trkpt lat="42.05920099315927" lon="13.629236888772898"><ele>818.3333333333334</ele><time>2026-04-18T11:07:58Z</time></trkpt><trkpt lat="42.05927269212665" lon="13.629296105244254"><ele>820.0</ele><time>2026-04-18T11:07:59Z</time></trkpt><trkpt lat="42.059336759491806" lon="13.629349419089818"><ele>821.6666666666667</ele><time>2026-04-18T11:08:00Z</time></trkpt><trkpt lat="42.059402583029765" lon="13.629394510955866"><ele>823.3333333333334</ele><time>2026-04-18T11:08:01Z</time></trkpt><trkpt lat="42.05947183583096" lon="13.629422280828091"><ele>825.0</ele><time>2026-04-18T11:08:02Z</time></trkpt><trkpt lat="42.05953331541764" lon="13.629481998788421"><ele>825.0</ele><time>2026-04-18T11:08:03Z</time></trkpt><trkpt lat="42.05964692907345" lon="13.629446502744903"><ele>825.0</ele><time>2026-04-18T11:08:04Z</time></trkpt><trkpt lat="42.05976304951829" lon="13.629435838221964"><ele>825.0</ele><time>2026-04-18T11:08:05Z</time></trkpt><trkpt lat="42.059876311246455" lon="13.629403018007796"><ele>825.0</ele><time>2026-04-18T11:08:06Z</time></trkpt><trkpt lat="42.05997458548336" lon="13.629326435628585"><ele>826.25</ele><time>2026-04-18T11:08:07Z</time></trkpt><trkpt lat="42.06005332513976" lon="13.629210246847096"><ele>827.5</ele><time>2026-04-18T11:08:08Z</time></trkpt><trkpt lat="42.06014250188151" lon="13.629077131282763"><ele>828.75</ele><time>2026-04-18T11:08:09Z</time></trkpt><trkpt lat="42.06025407104688" lon="13.628931692557645"><ele>830.0</ele><time>2026-04-18T11:08:10Z</time></trkpt><trkpt lat="42.060370294465116" lon="13.628779981236459"><ele>830.3333333333334</ele><time>2026-04-18T11:08:11Z</time></trkpt><trkpt lat="42.06049251285445" lon="13.628629222379573"><ele>830.6666666666667</ele><time>2026-04-18T11:08:12Z</time></trkpt><trkpt lat="42.06061080396006" lon="13.628473553489965"><ele>831.0</ele><time>2026-04-18T11:08:13Z</time></trkpt><trkpt lat="42.060734455540455" lon="13.628337029133439"><ele>832.75</ele><time>2026-04-18T11:08:14Z</time></trkpt><trkpt lat="42.06081973955482" lon="13.628186066516658"><ele>834.5</ele><time>2026-04-18T11:08:15Z</time></trkpt><trkpt lat="42.060920509208465" lon="13.628060709383595"><ele>836.25</ele><time>2026-04-18T11:08:16Z</time></trkpt><trkpt lat="42.06101959800215" lon="13.627935100407797"><ele>838.0</ele><time>2026-04-18T11:08:17Z</time></trkpt><trkpt lat="42.061101654329335" lon="13.627822721380385"><ele>838.1666666666666</ele><time>2026-04-18T11:08:18Z</time></trkpt><trkpt lat="42.06118262949564" lon="13.627728193390734"><ele>838.3333333333333</ele><time>2026-04-18T11:08:19Z</time></trkpt><trkpt lat="42.0612543773579" lon="13.62764373278786"><ele>838.5</ele><time>2026-04-18T11:08:20Z</time></trkpt><trkpt lat="42.061318669174284" lon="13.627566044471328"><ele>838.6666666666667</ele><time>2026-04-18T11:08:21Z</time></trkpt><trkpt lat="42.061370591627345" lon="13.627496787344953"><ele>838.8333333333334</ele><time>2026-04-18T11:08:22Z</time></trkpt><trkpt lat="42.061422051904245" lon="13.627434233899162"><ele>839.0</ele><time>2026-04-18T11:08:23Z</time></trkpt><trkpt lat="42.061521948545895" lon="13.627327938640532"><ele>839.0</ele><time>2026-04-18T11:08:25Z</time></trkpt><trkpt lat="42.06158074879636" lon="13.627232590409905"><ele>839.0</ele><time>2026-04-18T11:08:27Z</time></trkpt><trkpt lat="42.06167172236542" lon="13.627228674735866"><ele>839.0</ele><time>2026-04-18T11:08:29Z</time></trkpt><trkpt lat="42.06173837437539" lon="13.627248023305834"><ele>839.0</ele><time>2026-04-18T11:08:30Z</time></trkpt><trkpt lat="42.06183659659451" lon="13.627323302699285"><ele>839.0</ele><time>2026-04-18T11:08:31Z</time></trkpt><trkpt lat="42.061951196047836" lon="13.627376289221845"><ele>839.5</ele><time>2026-04-18T11:08:32Z</time></trkpt><trkpt lat="42.06208024009238" lon="13.627439924919281"><ele>840.0</ele><time>2026-04-18T11:08:33Z</time></trkpt><trkpt lat="42.06220439123465" lon="13.62750425940187"><ele>840.5</ele><time>2026-04-18T11:08:34Z</time></trkpt><trkpt lat="42.062332858802655" lon="13.627574452614446"><ele>841.0</ele><time>2026-04-18T11:08:35Z</time></trkpt><trkpt lat="42.0624634843337" lon="13.627625825324401"><ele>841.25</ele><time>2026-04-18T11:08:36Z</time></trkpt><trkpt lat="42.06258210027422" lon="13.62770154215796"><ele>841.5</ele><time>2026-04-18T11:08:37Z</time></trkpt><trkpt lat="42.06270958651039" lon="13.62776527217247"><ele>841.75</ele><time>2026-04-18T11:08:38Z</time></trkpt><trkpt lat="42.06283583354571" lon="13.627815593600332"><ele>842.0</ele><time>2026-04-18T11:08:39Z</time></trkpt><trkpt lat="42.06296927965252" lon="13.627882060854471"><ele>842.0</ele><time>2026-04-18T11:08:40Z</time></trkpt><trkpt lat="42.063106132708654" lon="13.627944200312497"><ele>842.0</ele><time>2026-04-18T11:08:41Z</time></trkpt><trkpt lat="42.063242092684995" lon="13.628030454193865"><ele>842.0</ele><time>2026-04-18T11:08:42Z</time></trkpt><trkpt lat="42.063388038528984" lon="13.628088927659514"><ele>842.0</ele><time>2026-04-18T11:08:43Z</time></trkpt><trkpt lat="42.063528461725504" lon="13.628167025705302"><ele>842.5</ele><time>2026-04-18T11:08:44Z</time></trkpt><trkpt lat="42.06366521360311" lon="13.628226945796326"><ele>843.0</ele><time>2026-04-18T11:08:45Z</time></trkpt><trkpt lat="42.06380571904855" lon="13.628275966151675"><ele>843.5</ele><time>2026-04-18T11:08:46Z</time></trkpt><trkpt lat="42.06394126596057" lon="13.62833711591463"><ele>844.0</ele><time>2026-04-18T11:08:47Z</time></trkpt><trkpt lat="42.06407698903776" lon="13.628411428317241"><ele>844.25</ele><time>2026-04-18T11:08:48Z</time></trkpt><trkpt lat="42.06419760529392" lon="13.628470661289938"><ele>844.5</ele><time>2026-04-18T11:08:49Z</time></trkpt><trkpt lat="42.064302926185185" lon="13.62853050979612"><ele>844.75</ele><time>2026-04-18T11:08:50Z</time></trkpt><trkpt lat="42.064404165171446" lon="13.628613853069417"><ele>845.0</ele><time>2026-04-18T11:08:51Z</time></trkpt><trkpt lat="42.0645010341053" lon="13.628728008926805"><ele>845.0</ele><time>2026-04-18T11:08:52Z</time></trkpt><trkpt lat="42.06459357262517" lon="13.62888090871718"><ele>845.0</ele><time>2026-04-18T11:08:53Z</time></trkpt><trkpt lat="42.06469678460601" lon="13.629078840648235"><ele>845.0</ele><time>2026-04-18T11:08:54Z</time></trkpt><trkpt lat="42.06479695876486" lon="13.629300024607321"><ele>846.0</ele><time>2026-04-18T11:08:55Z</time></trkpt><trkpt lat="42.06489926714458" lon="13.629484263945299"><ele>847.0</ele><time>2026-04-18T11:08:56Z</time></trkpt><trkpt lat="42.064992729382" lon="13.629653870478752"><ele>848.0</ele><time>2026-04-18T11:08:57Z</time></trkpt><trkpt lat="42.06507317152157" lon="13.629831957558427"><ele>848.0</ele><time>2026-04-18T11:08:58Z</time></trkpt><trkpt lat="42.065169342224245" lon="13.630012711155194"><ele>848.0</ele><time>2026-04-18T11:08:59Z</time></trkpt><trkpt lat="42.065268562163176" lon="13.630203774317376"><ele>848.0</ele><time>2026-04-18T11:09:00Z</time></trkpt><trkpt lat="42.06538139923523" lon="13.630397478232252"><ele>848.3333333333334</ele><time>2026-04-18T11:09:01Z</time></trkpt><trkpt lat="42.06547703666363" lon="13.630608170134051"><ele>848.6666666666667</ele><time>2026-04-18T11:09:02Z</time></trkpt><trkpt lat="42.06558451531323" lon="13.63080925740948"><ele>849.0</ele><time>2026-04-18T11:09:03Z</time></trkpt><trkpt lat="42.06569112183012" lon="13.63103155597159"><ele>852.3333333333333</ele><time>2026-04-18T11:09:04Z</time></trkpt><trkpt lat="42.065811280848244" lon="13.631260177358149"><ele>855.6666666666666</ele><time>2026-04-18T11:09:04.999Z</time></trkpt><trkpt lat="42.065906906787916" lon="13.631447375415725"><ele>859.0</ele><time>2026-04-18T11:09:05.999Z</time></trkpt><trkpt lat="42.06598969764159" lon="13.631591649722624"><ele>859.0</ele><time>2026-04-18T11:09:06.999Z</time></trkpt><trkpt lat="42.06608461183808" lon="13.631721251125436"><ele>859.0</ele><time>2026-04-18T11:09:07.999Z</time></trkpt><trkpt lat="42.06622766150505" lon="13.631762177379352"><ele>859.0</ele><time>2026-04-18T11:09:08.999Z</time></trkpt><trkpt lat="42.06638276812097" lon="13.631761314907369"><ele>859.0</ele><time>2026-04-18T11:09:09.999Z</time></trkpt><trkpt lat="42.06657846953921" lon="13.631704535085502"><ele>861.5</ele><time>2026-04-18T11:09:10.999Z</time></trkpt><trkpt lat="42.06680275987374" lon="13.631622965574355"><ele>864.0</ele><time>2026-04-18T11:09:11.999Z</time></trkpt><trkpt lat="42.06704282366051" lon="13.6315504926638"><ele>864.0</ele><time>2026-04-18T11:09:12.999Z</time></trkpt><trkpt lat="42.06729803947404" lon="13.631475717017416"><ele>864.0</ele><time>2026-04-18T11:09:13.999Z</time></trkpt><trkpt lat="42.06755628524939" lon="13.631400580992254"><ele>865.6666666666667</ele><time>2026-04-18T11:09:14.999Z</time></trkpt><trkpt lat="42.0677672016356" lon="13.631318894228517"><ele>867.3333333333334</ele><time>2026-04-18T11:09:16Z</time></trkpt><trkpt lat="42.0679508480437" lon="13.631241432884819"><ele>869.0</ele><time>2026-04-18T11:09:17Z</time></trkpt><trkpt lat="42.06810496446694" lon="13.631130440926826"><ele>868.5</ele><time>2026-04-18T11:09:18Z</time></trkpt><trkpt lat="42.06822822457993" lon="13.631005131424185"><ele>868.0</ele><time>2026-04-18T11:09:19Z</time></trkpt><trkpt lat="42.06836173418823" lon="13.630957148693687"><ele>867.5</ele><time>2026-04-18T11:09:20Z</time></trkpt><trkpt lat="42.068476551327024" lon="13.63090394499779"><ele>867.0</ele><time>2026-04-18T11:09:21Z</time></trkpt><trkpt lat="42.06861634742581" lon="13.630918162499581"><ele>867.0</ele><time>2026-04-18T11:09:22Z</time></trkpt><trkpt lat="42.068761342037156" lon="13.630971430050963"><ele>867.0</ele><time>2026-04-18T11:09:23Z</time></trkpt><trkpt lat="42.06887475117221" lon="13.631079309450064"><ele>867.0</ele><time>2026-04-18T11:09:24Z</time></trkpt><trkpt lat="42.068987530237095" lon="13.631183628018027"><ele>867.0</ele><time>2026-04-18T11:09:25Z</time></trkpt><trkpt lat="42.06906816708784" lon="13.631368421701332"><ele>868.3333333333333</ele><time>2026-04-18T11:09:26Z</time></trkpt><trkpt lat="42.06913247606449" lon="13.631607641291792"><ele>869.6666666666666</ele><time>2026-04-18T11:09:27Z</time></trkpt><trkpt lat="42.06919319277902" lon="13.631866519294109"><ele>871.0</ele><time>2026-04-18T11:09:28Z</time></trkpt><trkpt lat="42.06926626753977" lon="13.632142606930467"><ele>873.3333333333333</ele><time>2026-04-18T11:09:29Z</time></trkpt><trkpt lat="42.06934226172188" lon="13.632419365081105"><ele>875.6666666666667</ele><time>2026-04-18T11:09:30Z</time></trkpt><trkpt lat="42.06941454792298" lon="13.63269497360216"><ele>878.0</ele><time>2026-04-18T11:09:31Z</time></trkpt><trkpt lat="42.069483143434745" lon="13.632959869088062"><ele>880.0</ele><time>2026-04-18T11:09:32Z</time></trkpt><trkpt lat="42.06954122483919" lon="13.633194312058842"><ele>882.0</ele><time>2026-04-18T11:09:33Z</time></trkpt><trkpt lat="42.06959097946553" lon="13.633433602759206"><ele>884.0</ele><time>2026-04-18T11:09:34Z</time></trkpt><trkpt lat="42.06962954175293" lon="13.633686912004153"><ele>885.0</ele><time>2026-04-18T11:09:35Z</time></trkpt><trkpt lat="42.069655344007984" lon="13.633904753108679"><ele>886.0</ele><time>2026-04-18T11:09:36Z</time></trkpt><trkpt lat="42.06966748764432" lon="13.634099350562321"><ele>887.0</ele><time>2026-04-18T11:09:37Z</time></trkpt><trkpt lat="42.0696422636404" lon="13.634277230609552"><ele>888.0</ele><time>2026-04-18T11:09:38Z</time></trkpt><trkpt lat="42.06957019740954" lon="13.634451404459659"><ele>889.3333333333333</ele><time>2026-04-18T11:09:39Z</time></trkpt><trkpt lat="42.06944309407281" lon="13.634642684888352"><ele>890.6666666666666</ele><time>2026-04-18T11:09:40Z</time></trkpt><trkpt lat="42.06929977525313" lon="13.634847325216658"><ele>892.0</ele><time>2026-04-18T11:09:41Z</time></trkpt><trkpt lat="42.06917177473791" lon="13.635069019157386"><ele>889.5</ele><time>2026-04-18T11:09:42Z</time></trkpt><trkpt lat="42.06905280295467" lon="13.635359850425719"><ele>887.0</ele><time>2026-04-18T11:09:43Z</time></trkpt><trkpt lat="42.06893456101625" lon="13.63569615571801"><ele>887.0</ele><time>2026-04-18T11:09:44Z</time></trkpt><trkpt lat="42.068809090085786" lon="13.636036307635772"><ele>887.0</ele><time>2026-04-18T11:09:45Z</time></trkpt><trkpt lat="42.06867285708632" lon="13.636408545308809"><ele>891.0</ele><time>2026-04-18T11:09:46Z</time></trkpt><trkpt lat="42.06854869911826" lon="13.636745430562373"><ele>895.0</ele><time>2026-04-18T11:09:47Z</time></trkpt><trkpt lat="42.06843934060506" lon="13.63704683544513"><ele>893.5</ele><time>2026-04-18T11:09:48Z</time></trkpt><trkpt lat="42.06833943011098" lon="13.637346161479629"><ele>892.0</ele><time>2026-04-18T11:09:49Z</time></trkpt><trkpt lat="42.06825180677592" lon="13.637667831656467"><ele>894.5</ele><time>2026-04-18T11:09:50Z</time></trkpt><trkpt lat="42.068184680573204" lon="13.638014325051873"><ele>897.0</ele><time>2026-04-18T11:09:51Z</time></trkpt><trkpt lat="42.06812567350857" lon="13.638386564099786"><ele>901.0</ele><time>2026-04-18T11:09:52Z</time></trkpt><trkpt lat="42.068067648006476" lon="13.638747781224215"><ele>905.0</ele><time>2026-04-18T11:09:53Z</time></trkpt><trkpt lat="42.068008763395675" lon="13.639066618503492"><ele>905.0</ele><time>2026-04-18T11:09:54Z</time></trkpt><trkpt lat="42.067924078651664" lon="13.639385181840302"><ele>905.0</ele><time>2026-04-18T11:09:55Z</time></trkpt><trkpt lat="42.067798659945616" lon="13.639702974700425"><ele>909.5</ele><time>2026-04-18T11:09:56Z</time></trkpt><trkpt lat="42.067675097567054" lon="13.639994721360166"><ele>914.0</ele><time>2026-04-18T11:09:57Z</time></trkpt><trkpt lat="42.06753071118962" lon="13.640277467994949"><ele>914.0</ele><time>2026-04-18T11:09:58Z</time></trkpt><trkpt lat="42.06734055757883" lon="13.64055254162832"><ele>914.0</ele><time>2026-04-18T11:09:59Z</time></trkpt><trkpt lat="42.06714372846024" lon="13.64084073356543"><ele>914.0</ele><time>2026-04-18T11:10:00Z</time></trkpt><trkpt lat="42.06694939636091" lon="13.641129930546963"><ele>914.0</ele><time>2026-04-18T11:10:01Z</time></trkpt><trkpt lat="42.066755082814055" lon="13.641421489295407"><ele>913.5</ele><time>2026-04-18T11:10:02Z</time></trkpt><trkpt lat="42.066561565992984" lon="13.641708403979946"><ele>913.0</ele><time>2026-04-18T11:10:03Z</time></trkpt><trkpt lat="42.06636810550151" lon="13.64199378548499"><ele>919.0</ele><time>2026-04-18T11:10:04Z</time></trkpt><trkpt lat="42.06618166996297" lon="13.64227080658067"><ele>925.0</ele><time>2026-04-18T11:10:05Z</time></trkpt><trkpt lat="42.06601618761814" lon="13.642507179070279"><ele>925.0</ele><time>2026-04-18T11:10:06Z</time></trkpt><trkpt lat="42.065873104479365" lon="13.642725795291284"><ele>925.0</ele><time>2026-04-18T11:10:07Z</time></trkpt><trkpt lat="42.06574943424367" lon="13.642939777412002"><ele>925.0</ele><time>2026-04-18T11:10:08Z</time></trkpt><trkpt lat="42.065646708511835" lon="13.643169633507217"><ele>926.0</ele><time>2026-04-18T11:10:09Z</time></trkpt><trkpt lat="42.06556109332803" lon="13.643373443129063"><ele>927.0</ele><time>2026-04-18T11:10:10Z</time></trkpt><trkpt lat="42.06546765978704" lon="13.643540176103404"><ele>928.0</ele><time>2026-04-18T11:10:11Z</time></trkpt><trkpt lat="42.06539219797975" lon="13.643701348427665"><ele>930.3333333333333</ele><time>2026-04-18T11:10:12Z</time></trkpt><trkpt lat="42.065319848561316" lon="13.643866147165484"><ele>932.6666666666667</ele><time>2026-04-18T11:10:13Z</time></trkpt><trkpt lat="42.06507184874884" lon="13.643857973714132"><ele>935.0</ele><time>2026-04-18T11:10:14Z</time></trkpt><trkpt lat="42.06496813660814" lon="13.643961554383973"><ele>934.5</ele><time>2026-04-18T11:10:15Z</time></trkpt><trkpt lat="42.06489566520322" lon="13.644099012529356"><ele>934.0</ele><time>2026-04-18T11:10:16Z</time></trkpt><trkpt lat="42.06485240269251" lon="13.644271772887388"><ele>933.5</ele><time>2026-04-18T11:10:17Z</time></trkpt><trkpt lat="42.06484173408903" lon="13.64448450737571"><ele>933.0</ele><time>2026-04-18T11:10:18Z</time></trkpt><trkpt lat="42.06486258999654" lon="13.644749871386198"><ele>933.0</ele><time>2026-04-18T11:10:19Z</time></trkpt><trkpt lat="42.06488784010041" lon="13.645022746410579"><ele>933.0</ele><time>2026-04-18T11:10:20Z</time></trkpt><trkpt lat="42.06490367019017" lon="13.645232249082058"><ele>933.0</ele><time>2026-04-18T11:10:21Z</time></trkpt><trkpt lat="42.064907517302345" lon="13.645414418940819"><ele>934.25</ele><time>2026-04-18T11:10:22Z</time></trkpt><trkpt lat="42.064874337715274" lon="13.645589492297573"><ele>935.5</ele><time>2026-04-18T11:10:23Z</time></trkpt><trkpt lat="42.06479731349419" lon="13.645759605977858"><ele>936.75</ele><time>2026-04-18T11:10:24Z</time></trkpt><trkpt lat="42.06469057070876" lon="13.645883055025417"><ele>938.0</ele><time>2026-04-18T11:10:25Z</time></trkpt><trkpt lat="42.06455039876895" lon="13.645971969825426"><ele>938.0</ele><time>2026-04-18T11:10:26Z</time></trkpt><trkpt lat="42.064376783125645" lon="13.646068605776158"><ele>938.0</ele><time>2026-04-18T11:10:27Z</time></trkpt><trkpt lat="42.06421943767977" lon="13.646217664731997"><ele>938.0</ele><time>2026-04-18T11:10:28Z</time></trkpt><trkpt lat="42.06405389145687" lon="13.646412690052777"><ele>937.6666666666667</ele><time>2026-04-18T11:10:29Z</time></trkpt><trkpt lat="42.06388508430918" lon="13.646621310494265"><ele>937.3333333333333</ele><time>2026-04-18T11:10:30Z</time></trkpt><trkpt lat="42.06374686498153" lon="13.646797004275214"><ele>937.0</ele><time>2026-04-18T11:10:31Z</time></trkpt><trkpt lat="42.063633302565684" lon="13.646947900340347"><ele>940.0</ele><time>2026-04-18T11:10:32Z</time></trkpt><trkpt lat="42.063546575216456" lon="13.647109949636828"><ele>943.0</ele><time>2026-04-18T11:10:33Z</time></trkpt><trkpt lat="42.063495508354656" lon="13.64730887089429"><ele>946.0</ele><time>2026-04-18T11:10:34Z</time></trkpt><trkpt lat="42.06348566547954" lon="13.647515883360418"><ele>946.0</ele><time>2026-04-18T11:10:35Z</time></trkpt><trkpt lat="42.06351753048547" lon="13.64773781650985"><ele>946.0</ele><time>2026-04-18T11:10:36Z</time></trkpt><trkpt lat="42.06354504028566" lon="13.647934413490159"><ele>946.0</ele><time>2026-04-18T11:10:37Z</time></trkpt><trkpt lat="42.063548887141856" lon="13.64810623067677"><ele>946.0</ele><time>2026-04-18T11:10:38Z</time></trkpt><trkpt lat="42.06351855563923" lon="13.648265527550572"><ele>947.75</ele><time>2026-04-18T11:10:39Z</time></trkpt><trkpt lat="42.06346557576618" lon="13.648403241392929"><ele>949.5</ele><time>2026-04-18T11:10:40Z</time></trkpt><trkpt lat="42.06337161851917" lon="13.648514836825724"><ele>951.25</ele><time>2026-04-18T11:10:41Z</time></trkpt><trkpt lat="42.06326594734571" lon="13.648561677437204"><ele>953.0</ele><time>2026-04-18T11:10:42Z</time></trkpt><trkpt lat="42.063139799485526" lon="13.648548562097817"><ele>953.0</ele><time>2026-04-18T11:10:43Z</time></trkpt><trkpt lat="42.06302050065159" lon="13.648520510339168"><ele>953.0</ele><time>2026-04-18T11:10:44Z</time></trkpt><trkpt lat="42.06291844143781" lon="13.648566731182376"><ele>953.0</ele><time>2026-04-18T11:10:45Z</time></trkpt><trkpt lat="42.062808846920625" lon="13.648659467359227"><ele>953.0</ele><time>2026-04-18T11:10:45.999Z</time></trkpt><trkpt lat="42.06269788256695" lon="13.64879846069961"><ele>955.25</ele><time>2026-04-18T11:10:46.999Z</time></trkpt><trkpt lat="42.06261467617793" lon="13.648941413930851"><ele>957.5</ele><time>2026-04-18T11:10:47.999Z</time></trkpt><trkpt lat="42.06255989494402" lon="13.649118445930759"><ele>959.75</ele><time>2026-04-18T11:10:48.999Z</time></trkpt><trkpt lat="42.06253340725386" lon="13.649345090540884"><ele>962.0</ele><time>2026-04-18T11:10:49.999Z</time></trkpt><trkpt lat="42.06252395987606" lon="13.649590016221085"><ele>961.3333333333334</ele><time>2026-04-18T11:10:50.999Z</time></trkpt><trkpt lat="42.06251040634647" lon="13.649799128251976"><ele>960.6666666666667</ele><time>2026-04-18T11:10:51.999Z</time></trkpt><trkpt lat="42.06245735123776" lon="13.649987630849697"><ele>960.0</ele><time>2026-04-18T11:10:52.999Z</time></trkpt><trkpt lat="42.06235241651474" lon="13.65016156278561"><ele>961.6666666666667</ele><time>2026-04-18T11:10:53.999Z</time></trkpt><trkpt lat="42.0622002428493" lon="13.650330593224208"><ele>963.3333333333334</ele><time>2026-04-18T11:10:54.999Z</time></trkpt><trkpt lat="42.0620719996626" lon="13.650464495952995"><ele>965.0</ele><time>2026-04-18T11:10:55.999Z</time></trkpt><trkpt lat="42.06197022138595" lon="13.650600554706543"><ele>965.0</ele><time>2026-04-18T11:10:56.999Z</time></trkpt><trkpt lat="42.061902258638575" lon="13.650758907681478"><ele>965.0</ele><time>2026-04-18T11:10:57.999Z</time></trkpt><trkpt lat="42.06187714978001" lon="13.650921228961257"><ele>965.0</ele><time>2026-04-18T11:10:58.999Z</time></trkpt><trkpt lat="42.061897553320094" lon="13.651104027054242"><ele>965.0</ele><time>2026-04-18T11:10:59.999Z</time></trkpt><trkpt lat="42.061966962228794" lon="13.651308445302938"><ele>966.6666666666667</ele><time>2026-04-18T11:11:00.999Z</time></trkpt><trkpt lat="42.062082750336785" lon="13.651543252701867"><ele>968.3333333333333</ele><time>2026-04-18T11:11:01.999Z</time></trkpt><trkpt lat="42.06220588563392" lon="13.651820824889482"><ele>970.0</ele><time>2026-04-18T11:11:02.999Z</time></trkpt><trkpt lat="42.06232748417369" lon="13.652112260847305"><ele>972.3333333333333</ele><time>2026-04-18T11:11:03.999Z</time></trkpt><trkpt lat="42.06243501710037" lon="13.652383807406208"><ele>974.6666666666667</ele><time>2026-04-18T11:11:04.999Z</time></trkpt><trkpt lat="42.06251105347613" lon="13.652658302693212"><ele>977.0</ele><time>2026-04-18T11:11:05.999Z</time></trkpt><trkpt lat="42.0625681081267" lon="13.652974829092084"><ele>979.0</ele><time>2026-04-18T11:11:06.999Z</time></trkpt><trkpt lat="42.06262526071108" lon="13.653311621475535"><ele>981.0</ele><time>2026-04-18T11:11:07.999Z</time></trkpt><trkpt lat="42.06269731098217" lon="13.653666015362802"><ele>984.0</ele><time>2026-04-18T11:11:08.999Z</time></trkpt><trkpt lat="42.06277271230302" lon="13.654045346058675"><ele>987.0</ele><time>2026-04-18T11:11:09.999Z</time></trkpt><trkpt lat="42.062840230451386" lon="13.654398329947892"><ele>988.5</ele><time>2026-04-18T11:11:10.999Z</time></trkpt><trkpt lat="42.06290269264793" lon="13.654719562674691"><ele>990.0</ele><time>2026-04-18T11:11:11.999Z</time></trkpt><trkpt lat="42.062967187833586" lon="13.6550315939314"><ele>990.6666666666667</ele><time>2026-04-18T11:11:12.999Z</time></trkpt><trkpt lat="42.063018079724614" lon="13.655307753940232"><ele>991.3333333333334</ele><time>2026-04-18T11:11:13.999Z</time></trkpt><trkpt lat="42.063058650301876" lon="13.655559434492107"><ele>992.0</ele><time>2026-04-18T11:11:14.999Z</time></trkpt><trkpt lat="42.063078145211364" lon="13.655823767874784"><ele>992.0</ele><time>2026-04-18T11:11:15.999Z</time></trkpt><trkpt lat="42.06307989776933" lon="13.656116529461627"><ele>992.0</ele><time>2026-04-18T11:11:16.999Z</time></trkpt><trkpt lat="42.06310426352172" lon="13.656430509520426"><ele>994.5</ele><time>2026-04-18T11:11:17.999Z</time></trkpt><trkpt lat="42.06317597224227" lon="13.656761206311574"><ele>997.0</ele><time>2026-04-18T11:11:18.999Z</time></trkpt><trkpt lat="42.06324395280281" lon="13.657107959150043"><ele>999.5</ele><time>2026-04-18T11:11:19.999Z</time></trkpt><trkpt lat="42.0633126886564" lon="13.657457631894669"><ele>1002.0</ele><time>2026-04-18T11:11:20.999Z</time></trkpt><trkpt lat="42.06337889023419" lon="13.657805046370981"><ele>1003.5</ele><time>2026-04-18T11:11:22Z</time></trkpt><trkpt lat="42.06344258708863" lon="13.658146284913311"><ele>1005.0</ele><time>2026-04-18T11:11:23Z</time></trkpt><trkpt lat="42.06350127198449" lon="13.65847774661671"><ele>1005.0</ele><time>2026-04-18T11:11:24Z</time></trkpt><trkpt lat="42.063561833744146" lon="13.658798625135859"><ele>1005.0</ele><time>2026-04-18T11:11:25Z</time></trkpt><trkpt lat="42.06361838477796" lon="13.65911663670477"><ele>1005.0</ele><time>2026-04-18T11:11:26Z</time></trkpt><trkpt lat="42.06365752778349" lon="13.659423326047316"><ele>1005.0</ele><time>2026-04-18T11:11:27Z</time></trkpt><trkpt lat="42.06368311525839" lon="13.659698029474235"><ele>1005.0</ele><time>2026-04-18T11:11:28Z</time></trkpt><trkpt lat="42.06374035617317" lon="13.65998949670711"><ele>1007.0</ele><time>2026-04-18T11:11:29Z</time></trkpt><trkpt lat="42.06382078670179" lon="13.660293912838455"><ele>1009.0</ele><time>2026-04-18T11:11:30Z</time></trkpt><trkpt lat="42.06392753387962" lon="13.660588911380495"><ele>1009.0</ele><time>2026-04-18T11:11:31Z</time></trkpt><trkpt lat="42.06401103190958" lon="13.660845696455237"><ele>1009.0</ele><time>2026-04-18T11:11:32Z</time></trkpt><trkpt lat="42.06409030677204" lon="13.661058428855778"><ele>1009.0</ele><time>2026-04-18T11:11:33Z</time></trkpt><trkpt lat="42.06415538984306" lon="13.66125035076811"><ele>1012.0</ele><time>2026-04-18T11:11:34Z</time></trkpt><trkpt lat="42.06421400844512" lon="13.661429922290948"><ele>1015.0</ele><time>2026-04-18T11:11:35Z</time></trkpt><trkpt lat="42.06422516986651" lon="13.661636144662479"><ele>1018.0</ele><time>2026-04-18T11:11:36Z</time></trkpt><trkpt lat="42.06420378225135" lon="13.661839991993373"><ele>1018.3333333333333</ele><time>2026-04-18T11:11:37Z</time></trkpt><trkpt lat="42.064143416792824" lon="13.662027820234018"><ele>1018.6666666666667</ele><time>2026-04-18T11:11:38Z</time></trkpt><trkpt lat="42.06404494272184" lon="13.662210950040473"><ele>1019.0</ele><time>2026-04-18T11:11:39Z</time></trkpt><trkpt lat="42.06391866733834" lon="13.662386759926607"><ele>1019.0</ele><time>2026-04-18T11:11:40Z</time></trkpt><trkpt lat="42.06375775774391" lon="13.662522746871725"><ele>1019.0</ele><time>2026-04-18T11:11:41Z</time></trkpt><trkpt lat="42.06359087883782" lon="13.662672851356334"><ele>1019.0</ele><time>2026-04-18T11:11:42Z</time></trkpt><trkpt lat="42.063407836155186" lon="13.662837013812942"><ele>1019.0</ele><time>2026-04-18T11:11:43Z</time></trkpt><trkpt lat="42.06324419668689" lon="13.662980597778578"><ele>1019.0</ele><time>2026-04-18T11:11:44Z</time></trkpt><trkpt lat="42.063100349972125" lon="13.66313127885922"><ele>1019.0</ele><time>2026-04-18T11:11:45Z</time></trkpt><trkpt lat="42.06296466437231" lon="13.663327384188639"><ele>1019.0</ele><time>2026-04-18T11:11:46Z</time></trkpt><trkpt lat="42.06283762129682" lon="13.663566297623342"><ele>1019.0</ele><time>2026-04-18T11:11:47Z</time></trkpt><trkpt lat="42.062715693556925" lon="13.663819200031456"><ele>1019.0</ele><time>2026-04-18T11:11:48Z</time></trkpt><trkpt lat="42.062601054213054" lon="13.664067165021503"><ele>1019.6666666666667</ele><time>2026-04-18T11:11:49Z</time></trkpt><trkpt lat="42.06249920518156" lon="13.664277545501708"><ele>1020.3333333333333</ele><time>2026-04-18T11:11:50Z</time></trkpt><trkpt lat="42.06241129817746" lon="13.664458023330297"><ele>1021.0</ele><time>2026-04-18T11:11:51Z</time></trkpt><trkpt lat="42.06234369673091" lon="13.664626548645183"><ele>1021.0</ele><time>2026-04-18T11:11:52Z</time></trkpt><trkpt lat="42.06229596803981" lon="13.664774983595377"><ele>1021.0</ele><time>2026-04-18T11:11:53Z</time></trkpt><trkpt lat="42.062275814886426" lon="13.664923903686722"><ele>1021.0</ele><time>2026-04-18T11:11:54Z</time></trkpt><trkpt lat="42.062308964689144" lon="13.665100973525371"><ele>1021.0</ele><time>2026-04-18T11:11:55Z</time></trkpt><trkpt lat="42.06240296431618" lon="13.665289664787268"><ele>1024.0</ele><time>2026-04-18T11:11:56Z</time></trkpt><trkpt lat="42.06252497399086" lon="13.665506076051674"><ele>1027.0</ele><time>2026-04-18T11:11:57Z</time></trkpt><trkpt lat="42.062666182069364" lon="13.665736023507593"><ele>1030.0</ele><time>2026-04-18T11:11:58Z</time></trkpt><trkpt lat="42.06279161897684" lon="13.665940922153741"><ele>1029.3333333333333</ele><time>2026-04-18T11:11:59Z</time></trkpt><trkpt lat="42.06289887570006" lon="13.666126543978818"><ele>1028.6666666666667</ele><time>2026-04-18T11:12:00Z</time></trkpt><trkpt lat="42.06296381055156" lon="13.666369115466585"><ele>1028.0</ele><time>2026-04-18T11:12:01Z</time></trkpt><trkpt lat="42.06300015010785" lon="13.666652248809857"><ele>1028.0</ele><time>2026-04-18T11:12:02Z</time></trkpt><trkpt lat="42.063033787047445" lon="13.666934876299969"><ele>1028.0</ele><time>2026-04-18T11:12:03Z</time></trkpt><trkpt lat="42.06305923075769" lon="13.667181221699726"><ele>1028.0</ele><time>2026-04-18T11:12:04Z</time></trkpt><trkpt lat="42.06307808709527" lon="13.667379891940156"><ele>1029.3333333333335</ele><time>2026-04-18T11:12:05Z</time></trkpt><trkpt lat="42.063068228686355" lon="13.66757899475513"><ele>1030.6666666666667</ele><time>2026-04-18T11:12:06Z</time></trkpt><trkpt lat="42.06299808949703" lon="13.667782169703178"><ele>1032.0</ele><time>2026-04-18T11:12:07Z</time></trkpt><trkpt lat="42.062874794588616" lon="13.667989290071251"><ele>1035.0</ele><time>2026-04-18T11:12:08Z</time></trkpt><trkpt lat="42.06274859889495" lon="13.668222263692135"><ele>1038.0</ele><time>2026-04-18T11:12:09Z</time></trkpt><trkpt lat="42.06263768012847" lon="13.66846313653206"><ele>1041.0</ele><time>2026-04-18T11:12:10Z</time></trkpt><trkpt lat="42.062506359889674" lon="13.668659905539934"><ele>1040.3333333333333</ele><time>2026-04-18T11:12:11Z</time></trkpt><trkpt lat="42.0623448346453" lon="13.66885892261701"><ele>1039.6666666666665</ele><time>2026-04-18T11:12:12Z</time></trkpt><trkpt lat="42.06221810528251" lon="13.669072276640234"><ele>1039.0</ele><time>2026-04-18T11:12:13Z</time></trkpt><trkpt lat="42.062041751290984" lon="13.669310725740784"><ele>1045.5</ele><time>2026-04-18T11:12:14Z</time></trkpt><trkpt lat="42.06190558155714" lon="13.669628687696454"><ele>1052.0</ele><time>2026-04-18T11:12:15Z</time></trkpt><trkpt lat="42.06175439480544" lon="13.669906696421672"><ele>1052.0</ele><time>2026-04-18T11:12:16Z</time></trkpt><trkpt lat="42.06162344598986" lon="13.67013656396279"><ele>1052.0</ele><time>2026-04-18T11:12:17Z</time></trkpt><trkpt lat="42.06150022991892" lon="13.670338793407838"><ele>1052.0</ele><time>2026-04-18T11:12:18Z</time></trkpt><trkpt lat="42.06138113328325" lon="13.67051257789377"><ele>1052.0</ele><time>2026-04-18T11:12:19Z</time></trkpt><trkpt lat="42.06127279425893" lon="13.67070383581011"><ele>1052.0</ele><time>2026-04-18T11:12:20Z</time></trkpt><trkpt lat="42.06119846652987" lon="13.67094177740643"><ele>1052.0</ele><time>2026-04-18T11:12:21Z</time></trkpt><trkpt lat="42.06114841834395" lon="13.671238915064794"><ele>1053.0</ele><time>2026-04-18T11:12:22Z</time></trkpt><trkpt lat="42.06107517527986" lon="13.67155575013041"><ele>1054.0</ele><time>2026-04-18T11:12:23Z</time></trkpt><trkpt lat="42.0609524695858" lon="13.671864725049543"><ele>1058.5</ele><time>2026-04-18T11:12:24Z</time></trkpt><trkpt lat="42.060841878093605" lon="13.672169110319931"><ele>1063.0</ele><time>2026-04-18T11:12:25Z</time></trkpt><trkpt lat="42.06072439434832" lon="13.672493684227902"><ele>1061.5</ele><time>2026-04-18T11:12:26Z</time></trkpt><trkpt lat="42.06056359076698" lon="13.672799110606084"><ele>1060.0</ele><time>2026-04-18T11:12:27Z</time></trkpt><trkpt lat="42.0603932332304" lon="13.67311168465377"><ele>1060.0</ele><time>2026-04-18T11:12:28Z</time></trkpt><trkpt lat="42.060224013813496" lon="13.673448692584014"><ele>1060.0</ele><time>2026-04-18T11:12:29Z</time></trkpt><trkpt lat="42.06004829592793" lon="13.67376394585318"><ele>1068.0</ele><time>2026-04-18T11:12:30Z</time></trkpt><trkpt lat="42.05990086429876" lon="13.674033695767358"><ele>1076.0</ele><time>2026-04-18T11:12:31Z</time></trkpt><trkpt lat="42.059748799708814" lon="13.67429117624259"><ele>1073.0</ele><time>2026-04-18T11:12:32Z</time></trkpt><trkpt lat="42.059604709427276" lon="13.674562155639514"><ele>1070.0</ele><time>2026-04-18T11:12:33Z</time></trkpt><trkpt lat="42.05947117732313" lon="13.674858869079607"><ele>1070.0</ele><time>2026-04-18T11:12:34Z</time></trkpt><trkpt lat="42.05934158482646" lon="13.675195312542007"><ele>1070.0</ele><time>2026-04-18T11:12:35Z</time></trkpt><trkpt lat="42.05921912447045" lon="13.675563250597595"><ele>1072.0</ele><time>2026-04-18T11:12:36Z</time></trkpt><trkpt lat="42.059090575845154" lon="13.675914997088034"><ele>1074.0</ele><time>2026-04-18T11:12:37Z</time></trkpt><trkpt lat="42.05898189512801" lon="13.676228395716109"><ele>1074.0</ele><time>2026-04-18T11:12:38Z</time></trkpt><trkpt lat="42.0588838049228" lon="13.67650639304204"><ele>1074.0</ele><time>2026-04-18T11:12:39Z</time></trkpt><trkpt lat="42.05879074381839" lon="13.67674897564901"><ele>1074.0</ele><time>2026-04-18T11:12:40Z</time></trkpt><trkpt lat="42.05869949867649" lon="13.676950974618558"><ele>1075.0</ele><time>2026-04-18T11:12:41Z</time></trkpt><trkpt lat="42.058599404510744" lon="13.67712210061932"><ele>1076.0</ele><time>2026-04-18T11:12:42Z</time></trkpt><trkpt lat="42.0584780981105" lon="13.677284106898178"><ele>1077.0</ele><time>2026-04-18T11:12:43Z</time></trkpt><trkpt lat="42.058367204011056" lon="13.677412219718695"><ele>1077.0</ele><time>2026-04-18T11:12:44Z</time></trkpt><trkpt lat="42.05827346111175" lon="13.677536065835133"><ele>1077.0</ele><time>2026-04-18T11:12:45Z</time></trkpt><trkpt lat="42.058203932488894" lon="13.677689358469422"><ele>1077.0</ele><time>2026-04-18T11:12:46Z</time></trkpt><trkpt lat="42.05816620905273" lon="13.677883914721978"><ele>1077.0</ele><time>2026-04-18T11:12:47Z</time></trkpt><trkpt lat="42.058162742989325" lon="13.678090938063804"><ele>1075.6666666666667</ele><time>2026-04-18T11:12:48Z</time></trkpt><trkpt lat="42.05820541473497" lon="13.678311542687002"><ele>1074.3333333333335</ele><time>2026-04-18T11:12:49Z</time></trkpt><trkpt lat="42.058283250800415" lon="13.678563437851059"><ele>1073.0</ele><time>2026-04-18T11:12:50Z</time></trkpt><trkpt lat="42.05835094191144" lon="13.678763972973401"><ele>1072.3333333333335</ele><time>2026-04-18T11:12:51Z</time></trkpt><trkpt lat="42.05841619468234" lon="13.678932519994085"><ele>1071.6666666666667</ele><time>2026-04-18T11:12:52Z</time></trkpt><trkpt lat="42.05852879613833" lon="13.679097495870977"><ele>1071.0</ele><time>2026-04-18T11:12:53Z</time></trkpt><trkpt lat="42.0587087445042" lon="13.679252071398702"><ele>1071.0</ele><time>2026-04-18T11:12:54Z</time></trkpt><trkpt lat="42.05893057368288" lon="13.67939917779654"><ele>1071.0</ele><time>2026-04-18T11:12:55Z</time></trkpt><trkpt lat="42.05915256793898" lon="13.679549120049531"><ele>1069.0</ele><time>2026-04-18T11:12:56Z</time></trkpt><trkpt lat="42.059383888035576" lon="13.679754918215663"><ele>1067.0</ele><time>2026-04-18T11:12:57Z</time></trkpt><trkpt lat="42.05960569481639" lon="13.680034719873841"><ele>1067.0</ele><time>2026-04-18T11:12:58Z</time></trkpt><trkpt lat="42.05982426073192" lon="13.68031714025871"><ele>1067.0</ele><time>2026-04-18T11:12:59Z</time></trkpt><trkpt lat="42.06008610767636" lon="13.680572584945077"><ele>1066.0</ele><time>2026-04-18T11:13:00Z</time></trkpt><trkpt lat="42.06035836442606" lon="13.680851376281257"><ele>1065.0</ele><time>2026-04-18T11:13:01Z</time></trkpt><trkpt lat="42.06064736424324" lon="13.681129508531999"><ele>1063.0</ele><time>2026-04-18T11:13:02Z</time></trkpt><trkpt lat="42.060933827954116" lon="13.681407564797977"><ele>1061.0</ele><time>2026-04-18T11:13:03Z</time></trkpt><trkpt lat="42.061238578545726" lon="13.681692875424993"><ele>1061.5</ele><time>2026-04-18T11:13:04Z</time></trkpt><trkpt lat="42.06155637746517" lon="13.682001001663174"><ele>1062.0</ele><time>2026-04-18T11:13:05Z</time></trkpt><trkpt lat="42.06186531542678" lon="13.682303506980029"><ele>1061.0</ele><time>2026-04-18T11:13:06Z</time></trkpt><trkpt lat="42.0621458702376" lon="13.68256430794942"><ele>1060.0</ele><time>2026-04-18T11:13:07Z</time></trkpt><trkpt lat="42.06239524905081" lon="13.682794798115498"><ele>1059.5</ele><time>2026-04-18T11:13:08Z</time></trkpt><trkpt lat="42.06263191895825" lon="13.6830143145686"><ele>1059.0</ele><time>2026-04-18T11:13:09Z</time></trkpt><trkpt lat="42.06284965680078" lon="13.683218251553155"><ele>1059.0</ele><time>2026-04-18T11:13:10Z</time></trkpt><trkpt lat="42.063052444653586" lon="13.683411894540189"><ele>1059.0</ele><time>2026-04-18T11:13:10.999Z</time></trkpt><trkpt lat="42.0632296303198" lon="13.68357618465734"><ele>1059.3333333333333</ele><time>2026-04-18T11:13:11.999Z</time></trkpt><trkpt lat="42.06338949941879" lon="13.683729911774753"><ele>1059.6666666666665</ele><time>2026-04-18T11:13:12.999Z</time></trkpt><trkpt lat="42.06353721823797" lon="13.683887895167489"><ele>1060.0</ele><time>2026-04-18T11:13:13.999Z</time></trkpt><trkpt lat="42.06367693610404" lon="13.68409440481622"><ele>1060.0</ele><time>2026-04-18T11:13:14.999Z</time></trkpt><trkpt lat="42.06380237090263" lon="13.684374861457586"><ele>1060.0</ele><time>2026-04-18T11:13:15.999Z</time></trkpt><trkpt lat="42.06391765000754" lon="13.68468396594082"><ele>1060.0</ele><time>2026-04-18T11:13:16.999Z</time></trkpt><trkpt lat="42.06401618130374" lon="13.684961381503966"><ele>1060.0</ele><time>2026-04-18T11:13:17.999Z</time></trkpt><trkpt lat="42.06409817051144" lon="13.685190891799317"><ele>1060.0</ele><time>2026-04-18T11:13:18.999Z</time></trkpt><trkpt lat="42.06417289820178" lon="13.685400193908084"><ele>1063.3333333333333</ele><time>2026-04-18T11:13:19.999Z</time></trkpt><trkpt lat="42.06421216048709" lon="13.685608173069742"><ele>1066.6666666666667</ele><time>2026-04-18T11:13:20.999Z</time></trkpt><trkpt lat="42.06420608803029" lon="13.685852259893876"><ele>1070.0</ele><time>2026-04-18T11:13:21.999Z</time></trkpt><trkpt lat="42.064155628459936" lon="13.686125674391203"><ele>1068.0</ele><time>2026-04-18T11:13:22.999Z</time></trkpt><trkpt lat="42.06406320020065" lon="13.686411615154844"><ele>1066.0</ele><time>2026-04-18T11:13:23.999Z</time></trkpt><trkpt lat="42.063967158703214" lon="13.6867069909107"><ele>1066.3333333333333</ele><time>2026-04-18T11:13:24.999Z</time></trkpt><trkpt lat="42.06388855014026" lon="13.686989818829987"><ele>1066.6666666666667</ele><time>2026-04-18T11:13:25.999Z</time></trkpt><trkpt lat="42.06383729218695" lon="13.687249872269472"><ele>1067.0</ele><time>2026-04-18T11:13:26.999Z</time></trkpt><trkpt lat="42.06382078206517" lon="13.68752421334244"><ele>1068.0</ele><time>2026-04-18T11:13:28Z</time></trkpt><trkpt lat="42.063842627731376" lon="13.68782665231183"><ele>1069.0</ele><time>2026-04-18T11:13:29Z</time></trkpt><trkpt lat="42.063893775832284" lon="13.688133429067753"><ele>1069.0</ele><time>2026-04-18T11:13:30Z</time></trkpt><trkpt lat="42.06393473450686" lon="13.6883837521602"><ele>1069.0</ele><time>2026-04-18T11:13:31Z</time></trkpt><trkpt lat="42.0639566852585" lon="13.688592510046403"><ele>1069.0</ele><time>2026-04-18T11:13:32Z</time></trkpt><trkpt lat="42.06392529085741" lon="13.688784760887298"><ele>1071.0</ele><time>2026-04-18T11:13:33Z</time></trkpt><trkpt lat="42.06384979444689" lon="13.689007719217104"><ele>1073.0</ele><time>2026-04-18T11:13:34Z</time></trkpt><trkpt lat="42.06373865962338" lon="13.689261373845794"><ele>1075.0</ele><time>2026-04-18T11:13:35Z</time></trkpt><trkpt lat="42.063613588067774" lon="13.689545621931547"><ele>1080.0</ele><time>2026-04-18T11:13:36Z</time></trkpt><trkpt lat="42.06348684706499" lon="13.68983520035727"><ele>1085.0</ele><time>2026-04-18T11:13:37Z</time></trkpt><trkpt lat="42.06336452790785" lon="13.690103740441987"><ele>1081.0</ele><time>2026-04-18T11:13:38Z</time></trkpt><trkpt lat="42.06323597355247" lon="13.690396229109146"><ele>1077.0</ele><time>2026-04-18T11:13:39Z</time></trkpt><trkpt lat="42.06309443109644" lon="13.690712274643996"><ele>1077.0</ele><time>2026-04-18T11:13:40Z</time></trkpt><trkpt lat="42.06293685299829" lon="13.691052025573004"><ele>1077.0</ele><time>2026-04-18T11:13:41Z</time></trkpt><trkpt lat="42.06277965559253" lon="13.69136010707164"><ele>1080.5</ele><time>2026-04-18T11:13:42Z</time></trkpt><trkpt lat="42.06261610623812" lon="13.691626525484642"><ele>1084.0</ele><time>2026-04-18T11:13:43Z</time></trkpt><trkpt lat="42.06243367449083" lon="13.691893988798114"><ele>1089.5</ele><time>2026-04-18T11:13:44Z</time></trkpt><trkpt lat="42.06227449012431" lon="13.6921527630915"><ele>1095.0</ele><time>2026-04-18T11:13:45Z</time></trkpt><trkpt lat="42.062137349664454" lon="13.692375327493725"><ele>1095.0</ele><time>2026-04-18T11:13:46Z</time></trkpt><trkpt lat="42.06203270000932" lon="13.692553962718483"><ele>1095.0</ele><time>2026-04-18T11:13:47Z</time></trkpt><trkpt lat="42.06193984242796" lon="13.692717105633056"><ele>1095.0</ele><time>2026-04-18T11:13:48Z</time></trkpt><trkpt lat="42.06187204648537" lon="13.692843227201509"><ele>1095.0</ele><time>2026-04-18T11:13:49Z</time></trkpt><trkpt lat="42.061829867233605" lon="13.692945440200548"><ele>1095.0</ele><time>2026-04-18T11:13:50Z</time></trkpt><trkpt lat="42.06180543355229" lon="13.693049357705048"><ele>1095.0</ele><time>2026-04-18T11:13:51Z</time></trkpt><trkpt lat="42.061835764116516" lon="13.693210370533075"><ele>1095.0</ele><time>2026-04-18T11:13:52Z</time></trkpt><trkpt lat="42.061906504327126" lon="13.693387244994858"><ele>1095.0</ele><time>2026-04-18T11:13:53Z</time></trkpt><trkpt lat="42.062023522314384" lon="13.693600063544851"><ele>1091.3333333333333</ele><time>2026-04-18T11:13:54Z</time></trkpt><trkpt lat="42.062122567679374" lon="13.693806569783977"><ele>1087.6666666666665</ele><time>2026-04-18T11:13:55Z</time></trkpt><trkpt lat="42.062203419134676" lon="13.694048307524014"><ele>1084.0</ele><time>2026-04-18T11:13:56Z</time></trkpt><trkpt lat="42.0622507393528" lon="13.69433313694382"><ele>1080.5</ele><time>2026-04-18T11:13:57Z</time></trkpt><trkpt lat="42.06225017096941" lon="13.694670572405121"><ele>1077.0</ele><time>2026-04-18T11:13:58Z</time></trkpt><trkpt lat="42.06226986558446" lon="13.695044665977298"><ele>1076.0</ele><time>2026-04-18T11:13:59Z</time></trkpt><trkpt lat="42.06229155780424" lon="13.695430382725204"><ele>1075.0</ele><time>2026-04-18T11:14:00Z</time></trkpt><trkpt lat="42.062313548002024" lon="13.695824001625173"><ele>1076.5</ele><time>2026-04-18T11:14:01Z</time></trkpt><trkpt lat="42.062340299942626" lon="13.696259311096506"><ele>1078.0</ele><time>2026-04-18T11:14:02Z</time></trkpt><trkpt lat="42.062366600808375" lon="13.696714538368434"><ele>1077.5</ele><time>2026-04-18T11:14:03Z</time></trkpt><trkpt lat="42.06239597738966" lon="13.697177566118313"><ele>1077.0</ele><time>2026-04-18T11:14:04Z</time></trkpt><trkpt lat="42.06242957275358" lon="13.6975888072603"><ele>1090.5</ele><time>2026-04-18T11:14:05Z</time></trkpt><trkpt lat="42.062455787320594" lon="13.697985731259845"><ele>1104.0</ele><time>2026-04-18T11:14:06Z</time></trkpt><trkpt lat="42.062468323887956" lon="13.698407368900437"><ele>1091.5</ele><time>2026-04-18T11:14:07Z</time></trkpt><trkpt lat="42.06242974810879" lon="13.698838547619589"><ele>1079.0</ele><time>2026-04-18T11:14:08Z</time></trkpt><trkpt lat="42.06241545920949" lon="13.699245203045129"><ele>1077.5</ele><time>2026-04-18T11:14:09Z</time></trkpt><trkpt lat="42.062446278488565" lon="13.699668805990582"><ele>1076.0</ele><time>2026-04-18T11:14:10Z</time></trkpt><trkpt lat="42.06246632185991" lon="13.700070586694206"><ele>1092.5</ele><time>2026-04-18T11:14:11Z</time></trkpt><trkpt lat="42.06246905491664" lon="13.700434583519744"><ele>1109.0</ele><time>2026-04-18T11:14:12Z</time></trkpt><trkpt lat="42.06246240626565" lon="13.700789696569679"><ele>1108.0</ele><time>2026-04-18T11:14:13Z</time></trkpt><trkpt lat="42.0624559338778" lon="13.701142949025753"><ele>1107.0</ele><time>2026-04-18T11:14:14Z</time></trkpt><trkpt lat="42.0624549916775" lon="13.701461601950198"><ele>1107.0</ele><time>2026-04-18T11:14:15Z</time></trkpt><trkpt lat="42.06245111958247" lon="13.701736843823515"><ele>1107.0</ele><time>2026-04-18T11:14:16Z</time></trkpt><trkpt lat="42.06244928945371" lon="13.70197657186164"><ele>1107.0</ele><time>2026-04-18T11:14:17Z</time></trkpt><trkpt lat="42.0624516975265" lon="13.702200612501695"><ele>1105.6666666666667</ele><time>2026-04-18T11:14:18Z</time></trkpt><trkpt lat="42.062461408891906" lon="13.702394567167486"><ele>1104.3333333333335</ele><time>2026-04-18T11:14:19Z</time></trkpt><trkpt lat="42.06249797890535" lon="13.702579957044057"><ele>1103.0</ele><time>2026-04-18T11:14:20Z</time></trkpt><trkpt lat="42.0625756143801" lon="13.702780990481406"><ele>1099.6666666666667</ele><time>2026-04-18T11:14:21Z</time></trkpt><trkpt lat="42.06270598358301" lon="13.702987990760127"><ele>1096.3333333333333</ele><time>2026-04-18T11:14:22Z</time></trkpt><trkpt lat="42.06286596808028" lon="13.70320438984676"><ele>1093.0</ele><time>2026-04-18T11:14:23Z</time></trkpt><trkpt lat="42.06298930638406" lon="13.703445203302541"><ele>1090.0</ele><time>2026-04-18T11:14:24Z</time></trkpt><trkpt lat="42.063058816509574" lon="13.703712228865902"><ele>1087.0</ele><time>2026-04-18T11:14:25Z</time></trkpt><trkpt lat="42.063095859138684" lon="13.703995450292892"><ele>1084.0</ele><time>2026-04-18T11:14:26Z</time></trkpt><trkpt lat="42.06313236491294" lon="13.704287637180382"><ele>1084.0</ele><time>2026-04-18T11:14:27Z</time></trkpt><trkpt lat="42.063171934176175" lon="13.704548172696756"><ele>1084.0</ele><time>2026-04-18T11:14:28Z</time></trkpt><trkpt lat="42.0632282163606" lon="13.704774643898887"><ele>1084.0</ele><time>2026-04-18T11:14:29Z</time></trkpt><trkpt lat="42.063334116711395" lon="13.704993319168432"><ele>1091.0</ele><time>2026-04-18T11:14:30Z</time></trkpt><trkpt lat="42.06347492940091" lon="13.705218921280906"><ele>1098.0</ele><time>2026-04-18T11:14:31Z</time></trkpt><trkpt lat="42.063610582911544" lon="13.705451608310975"><ele>1105.0</ele><time>2026-04-18T11:14:32Z</time></trkpt><trkpt lat="42.06374494871807" lon="13.705669338373717"><ele>1106.75</ele><time>2026-04-18T11:14:33Z</time></trkpt><trkpt lat="42.06386661273983" lon="13.705835501338825"><ele>1108.5</ele><time>2026-04-18T11:14:34Z</time></trkpt><trkpt lat="42.06396866774159" lon="13.705970880695181"><ele>1110.25</ele><time>2026-04-18T11:14:35Z</time></trkpt><trkpt lat="42.064068650497795" lon="13.70608145146848"><ele>1112.0</ele><time>2026-04-18T11:14:36Z</time></trkpt><trkpt lat="42.06420630437444" lon="13.706142413137725"><ele>1113.3333333333335</ele><time>2026-04-18T11:14:37Z</time></trkpt><trkpt lat="42.064394765347004" lon="13.706155535135675"><ele>1114.6666666666667</ele><time>2026-04-18T11:14:38Z</time></trkpt><trkpt lat="42.06461073615345" lon="13.706138023978884"><ele>1116.0</ele><time>2026-04-18T11:14:39Z</time></trkpt><trkpt lat="42.06485011408387" lon="13.706153611887565"><ele>1108.6666666666667</ele><time>2026-04-18T11:14:40Z</time></trkpt><trkpt lat="42.065065427744386" lon="13.706196198993796"><ele>1101.3333333333335</ele><time>2026-04-18T11:14:41Z</time></trkpt><trkpt lat="42.06526643162731" lon="13.706232596100852"><ele>1094.0</ele><time>2026-04-18T11:14:42Z</time></trkpt><trkpt lat="42.06545418504611" lon="13.706261429084082"><ele>1094.0</ele><time>2026-04-18T11:14:43Z</time></trkpt><trkpt lat="42.06564858800128" lon="13.706287350557641"><ele>1094.0</ele><time>2026-04-18T11:14:44Z</time></trkpt><trkpt lat="42.0658558390984" lon="13.706300356482743"><ele>1094.0</ele><time>2026-04-18T11:14:45Z</time></trkpt><trkpt lat="42.066069596912115" lon="13.706271238838372"><ele>1088.5</ele><time>2026-04-18T11:14:46Z</time></trkpt><trkpt lat="42.06633416345276" lon="13.706177826955363"><ele>1083.0</ele><time>2026-04-18T11:14:47Z</time></trkpt><trkpt lat="42.0665658508251" lon="13.706105332033948"><ele>1077.5</ele><time>2026-04-18T11:14:48Z</time></trkpt><trkpt lat="42.06682892321165" lon="13.706097330943942"><ele>1072.0</ele><time>2026-04-18T11:14:49Z</time></trkpt><trkpt lat="42.06709208585942" lon="13.706117353432454"><ele>1072.0</ele><time>2026-04-18T11:14:50Z</time></trkpt><trkpt lat="42.067320667849884" lon="13.706114060116395"><ele>1072.0</ele><time>2026-04-18T11:14:51Z</time></trkpt><trkpt lat="42.06758929844522" lon="13.706086281901843"><ele>1087.5</ele><time>2026-04-18T11:14:52Z</time></trkpt><trkpt lat="42.06785697903858" lon="13.7060350905208"><ele>1103.0</ele><time>2026-04-18T11:14:53Z</time></trkpt><trkpt lat="42.06812574922349" lon="13.705971987189788"><ele>1096.0</ele><time>2026-04-18T11:14:54Z</time></trkpt><trkpt lat="42.06836944461851" lon="13.705910178113543"><ele>1089.0</ele><time>2026-04-18T11:14:55Z</time></trkpt><trkpt lat="42.068597556411554" lon="13.705852571042005"><ele>1089.0</ele><time>2026-04-18T11:14:56Z</time></trkpt><trkpt lat="42.068808634706556" lon="13.705792102603798"><ele>1089.0</ele><time>2026-04-18T11:14:57Z</time></trkpt><trkpt lat="42.069017443481556" lon="13.705684618491489"><ele>1089.0</ele><time>2026-04-18T11:14:58Z</time></trkpt><trkpt lat="42.0692220106971" lon="13.70553819724026"><ele>1096.0</ele><time>2026-04-18T11:14:59Z</time></trkpt><trkpt lat="42.069415421211964" lon="13.705392337646828"><ele>1103.0</ele><time>2026-04-18T11:15:00Z</time></trkpt><trkpt lat="42.069599648806104" lon="13.705208155505616"><ele>1103.0</ele><time>2026-04-18T11:15:01Z</time></trkpt><trkpt lat="42.06976667751216" lon="13.704984550164014"><ele>1103.0</ele><time>2026-04-18T11:15:02Z</time></trkpt><trkpt lat="42.06991758441415" lon="13.704764971758962"><ele>1091.6666666666667</ele><time>2026-04-18T11:15:03Z</time></trkpt><trkpt lat="42.070049533249396" lon="13.704598354011141"><ele>1080.3333333333333</ele><time>2026-04-18T11:15:04Z</time></trkpt><trkpt lat="42.07018626127788" lon="13.704491039087983"><ele>1069.0</ele><time>2026-04-18T11:15:05Z</time></trkpt><trkpt lat="42.07032160668477" lon="13.704413184511969"><ele>1070.6666666666665</ele><time>2026-04-18T11:15:06Z</time></trkpt><trkpt lat="42.07048218273423" lon="13.704381560112141"><ele>1072.3333333333333</ele><time>2026-04-18T11:15:07Z</time></trkpt><trkpt lat="42.070653298495344" lon="13.704388980543612"><ele>1074.0</ele><time>2026-04-18T11:15:08Z</time></trkpt><trkpt lat="42.07086663842268" lon="13.704403980725939"><ele>1068.3333333333333</ele><time>2026-04-18T11:15:09Z</time></trkpt><trkpt lat="42.0710615884549" lon="13.704419848755835"><ele>1062.6666666666665</ele><time>2026-04-18T11:15:10Z</time></trkpt><trkpt lat="42.07123337663086" lon="13.70442829534503"><ele>1057.0</ele><time>2026-04-18T11:15:11Z</time></trkpt><trkpt lat="42.07138382343776" lon="13.70443324933801"><ele>1057.0</ele><time>2026-04-18T11:15:12Z</time></trkpt><trkpt lat="42.07152688319194" lon="13.70442350179943"><ele>1057.0</ele><time>2026-04-18T11:15:13Z</time></trkpt><trkpt lat="42.07167716094435" lon="13.704353557687297"><ele>1057.0</ele><time>2026-04-18T11:15:14Z</time></trkpt><trkpt lat="42.07181233299202" lon="13.704202002584683"><ele>1059.3333333333333</ele><time>2026-04-18T11:15:15Z</time></trkpt><trkpt lat="42.07197985950268" lon="13.704031899272238"><ele>1061.6666666666667</ele><time>2026-04-18T11:15:16Z</time></trkpt><trkpt lat="42.07213555779577" lon="13.703840011066589"><ele>1064.0</ele><time>2026-04-18T11:15:16.999Z</time></trkpt><trkpt lat="42.07226265142339" lon="13.703678681488524"><ele>1064.4</ele><time>2026-04-18T11:15:17.999Z</time></trkpt><trkpt lat="42.07236388476959" lon="13.703550178336744"><ele>1064.8000000000002</ele><time>2026-04-18T11:15:18.999Z</time></trkpt><trkpt lat="42.07244691607983" lon="13.703445815685612"><ele>1065.1999999999998</ele><time>2026-04-18T11:15:19.999Z</time></trkpt><trkpt lat="42.07251216466812" lon="13.703377762715375"><ele>1065.6</ele><time>2026-04-18T11:15:20.999Z</time></trkpt><trkpt lat="42.072622347856225" lon="13.703346730872859"><ele>1066.0</ele><time>2026-04-18T11:15:22.999Z</time></trkpt><trkpt lat="42.07264652524805" lon="13.703430004813683"><ele>1065.5</ele><time>2026-04-18T11:15:24.999Z</time></trkpt><trkpt lat="42.07263756262476" lon="13.703587554423565"><ele>1065.0</ele><time>2026-04-18T11:15:26.999Z</time></trkpt><trkpt lat="42.07255306042808" lon="13.703690596994"><ele>1064.5</ele><time>2026-04-18T11:15:27.999Z</time></trkpt><trkpt lat="42.07248407928877" lon="13.703849148097868"><ele>1064.0</ele><time>2026-04-18T11:15:28.999Z</time></trkpt><trkpt lat="42.07239468839821" lon="13.704016594621917"><ele>1064.0</ele><time>2026-04-18T11:15:29.999Z</time></trkpt><trkpt lat="42.07227797121539" lon="13.70421722386314"><ele>1064.0</ele><time>2026-04-18T11:15:30.999Z</time></trkpt><trkpt lat="42.072128758306384" lon="13.704400062668322"><ele>1064.0</ele><time>2026-04-18T11:15:31.999Z</time></trkpt><trkpt lat="42.07193782199007" lon="13.704597522878316"><ele>1061.6666666666667</ele><time>2026-04-18T11:15:32.999Z</time></trkpt><trkpt lat="42.071746963027515" lon="13.70476616061496"><ele>1059.3333333333333</ele><time>2026-04-18T11:15:34Z</time></trkpt><trkpt lat="42.071584004815854" lon="13.704941768785769"><ele>1057.0</ele><time>2026-04-18T11:15:35Z</time></trkpt><trkpt lat="42.07143210496354" lon="13.705114456173668"><ele>1051.6666666666665</ele><time>2026-04-18T11:15:36Z</time></trkpt><trkpt lat="42.071296248684966" lon="13.705256569356512"><ele>1046.3333333333333</ele><time>2026-04-18T11:15:37Z</time></trkpt><trkpt lat="42.071185598451414" lon="13.705442225551332"><ele>1041.0</ele><time>2026-04-18T11:15:38Z</time></trkpt><trkpt lat="42.071103636866404" lon="13.705610586346209"><ele>1041.0</ele><time>2026-04-18T11:15:39Z</time></trkpt><trkpt lat="42.07101627526042" lon="13.705746715437858"><ele>1041.0</ele><time>2026-04-18T11:15:40Z</time></trkpt><trkpt lat="42.07091069900766" lon="13.705847441517257"><ele>1041.0</ele><time>2026-04-18T11:15:41Z</time></trkpt><trkpt lat="42.07077020475493" lon="13.705836983740209"><ele>1041.0</ele><time>2026-04-18T11:15:42Z</time></trkpt><trkpt lat="42.07059678480811" lon="13.705830063739741"><ele>1042.5</ele><time>2026-04-18T11:15:43Z</time></trkpt><trkpt lat="42.070428405817566" lon="13.70582342791629"><ele>1044.0</ele><time>2026-04-18T11:15:44Z</time></trkpt><trkpt lat="42.070292565658946" lon="13.70583314514359"><ele>1045.5</ele><time>2026-04-18T11:15:45Z</time></trkpt><trkpt lat="42.07018885655728" lon="13.705835349926964"><ele>1047.0</ele><time>2026-04-18T11:15:46Z</time></trkpt><trkpt lat="42.070107161604994" lon="13.705957347489088"><ele>1043.2</ele><time>2026-04-18T11:15:48Z</time></trkpt><trkpt lat="42.07009809600461" lon="13.70608466634292"><ele>1039.4</ele><time>2026-04-18T11:15:49Z</time></trkpt><trkpt lat="42.070128805115644" lon="13.706202858912627"><ele>1035.6</ele><time>2026-04-18T11:15:50Z</time></trkpt><trkpt lat="42.07019421693474" lon="13.706318611172376"><ele>1031.8</ele><time>2026-04-18T11:15:51Z</time></trkpt><trkpt lat="42.070328644451166" lon="13.706356928572966"><ele>1028.0</ele><time>2026-04-18T11:15:52Z</time></trkpt><trkpt lat="42.07048771587495" lon="13.70635716670261"><ele>1028.0</ele><time>2026-04-18T11:15:53Z</time></trkpt><trkpt lat="42.070684056857424" lon="13.70636954258884"><ele>1028.0</ele><time>2026-04-18T11:15:54Z</time></trkpt><trkpt lat="42.07086729193392" lon="13.706337681792807"><ele>1028.0</ele><time>2026-04-18T11:15:55Z</time></trkpt><trkpt lat="42.07101952333309" lon="13.70626260934073"><ele>1026.3333333333335</ele><time>2026-04-18T11:15:56Z</time></trkpt><trkpt lat="42.07115249205972" lon="13.706181123468339"><ele>1024.6666666666667</ele><time>2026-04-18T11:15:57Z</time></trkpt><trkpt lat="42.0712789152254" lon="13.706051074656923"><ele>1023.0</ele><time>2026-04-18T11:15:58Z</time></trkpt><trkpt lat="42.071376420397016" lon="13.705857438352405"><ele>1023.5</ele><time>2026-04-18T11:15:59Z</time></trkpt><trkpt lat="42.07146859671538" lon="13.705699013795604"><ele>1024.0</ele><time>2026-04-18T11:16:00Z</time></trkpt><trkpt lat="42.071559928465085" lon="13.70557048233509"><ele>1024.5</ele><time>2026-04-18T11:16:01Z</time></trkpt><trkpt lat="42.07167700047978" lon="13.70546744533564"><ele>1025.0</ele><time>2026-04-18T11:16:02Z</time></trkpt><trkpt lat="42.07183928873572" lon="13.705393695306013"><ele>1025.0</ele><time>2026-04-18T11:16:03Z</time></trkpt><trkpt lat="42.07203368533441" lon="13.705365866987892"><ele>1025.0</ele><time>2026-04-18T11:16:04Z</time></trkpt><trkpt lat="42.072253726532836" lon="13.705346458674285"><ele>1025.0</ele><time>2026-04-18T11:16:05Z</time></trkpt><trkpt lat="42.072500667692566" lon="13.705310496505465"><ele>1021.3333333333334</ele><time>2026-04-18T11:16:06Z</time></trkpt><trkpt lat="42.072734798403665" lon="13.705306285344609"><ele>1017.6666666666667</ele><time>2026-04-18T11:16:07Z</time></trkpt><trkpt lat="42.07293350711688" lon="13.705287877395088"><ele>1014.0</ele><time>2026-04-18T11:16:08Z</time></trkpt><trkpt lat="42.0731101254254" lon="13.705269106371459"><ele>1014.0</ele><time>2026-04-18T11:16:09Z</time></trkpt><trkpt lat="42.07326998892008" lon="13.705247151021103"><ele>1014.0</ele><time>2026-04-18T11:16:10Z</time></trkpt><trkpt lat="42.07340180468033" lon="13.70523266992047"><ele>1014.0</ele><time>2026-04-18T11:16:11Z</time></trkpt><trkpt lat="42.0735028475133" lon="13.705229951199849"><ele>1014.0</ele><time>2026-04-18T11:16:12Z</time></trkpt><trkpt lat="42.073593378567715" lon="13.705266978047307"><ele>1014.0</ele><time>2026-04-18T11:16:13Z</time></trkpt><trkpt lat="42.073689381152505" lon="13.70540268515574"><ele>1014.0</ele><time>2026-04-18T11:16:14Z</time></trkpt><trkpt lat="42.07381891493981" lon="13.705592324849206"><ele>1014.0</ele><time>2026-04-18T11:16:15Z</time></trkpt><trkpt lat="42.073975350430516" lon="13.705782221120872"><ele>1018.5</ele><time>2026-04-18T11:16:16Z</time></trkpt><trkpt lat="42.074127538437956" lon="13.705998482651914"><ele>1023.0</ele><time>2026-04-18T11:16:17Z</time></trkpt><trkpt lat="42.07429062229103" lon="13.706222807501858"><ele>1013.0</ele><time>2026-04-18T11:16:18Z</time></trkpt><trkpt lat="42.07445006785964" lon="13.706444051766"><ele>1003.0</ele><time>2026-04-18T11:16:19Z</time></trkpt><trkpt lat="42.07461503697831" lon="13.706659881347809"><ele>1003.0</ele><time>2026-04-18T11:16:20Z</time></trkpt><trkpt lat="42.074795272357015" lon="13.70686626496151"><ele>1003.0</ele><time>2026-04-18T11:16:21Z</time></trkpt><trkpt lat="42.07497923723515" lon="13.707048582402125"><ele>1000.6666666666666</ele><time>2026-04-18T11:16:22Z</time></trkpt><trkpt lat="42.07514867356992" lon="13.707196866396917"><ele>998.3333333333333</ele><time>2026-04-18T11:16:23Z</time></trkpt><trkpt lat="42.07530677620393" lon="13.707337353660833"><ele>996.0</ele><time>2026-04-18T11:16:24Z</time></trkpt><trkpt lat="42.075471239253304" lon="13.707451973695676"><ele>996.0</ele><time>2026-04-18T11:16:25Z</time></trkpt><trkpt lat="42.075644468403745" lon="13.707572424584377"><ele>996.0</ele><time>2026-04-18T11:16:26Z</time></trkpt><trkpt lat="42.075846679877884" lon="13.707692208107218"><ele>996.0</ele><time>2026-04-18T11:16:27Z</time></trkpt><trkpt lat="42.07605981558266" lon="13.707754351071806"><ele>988.0</ele><time>2026-04-18T11:16:28Z</time></trkpt><trkpt lat="42.0764045691344" lon="13.707816080110604"><ele>980.0</ele><time>2026-04-18T11:16:29Z</time></trkpt><trkpt lat="42.07662097860511" lon="13.707888414456304"><ele>980.0</ele><time>2026-04-18T11:16:30Z</time></trkpt><trkpt lat="42.07683369058761" lon="13.707948433212293"><ele>980.0</ele><time>2026-04-18T11:16:31Z</time></trkpt><trkpt lat="42.0769956022795" lon="13.707991343795799"><ele>980.0</ele><time>2026-04-18T11:16:32Z</time></trkpt><trkpt lat="42.07711823904136" lon="13.708027313832924"><ele>980.0</ele><time>2026-04-18T11:16:33Z</time></trkpt><trkpt lat="42.07723936685018" lon="13.70806406358875"><ele>980.0</ele><time>2026-04-18T11:16:34Z</time></trkpt><trkpt lat="42.07732071054061" lon="13.70802457155809"><ele>980.0</ele><time>2026-04-18T11:16:35Z</time></trkpt><trkpt lat="42.07743466797702" lon="13.707973227831037"><ele>980.0</ele><time>2026-04-18T11:16:36Z</time></trkpt><trkpt lat="42.07752601973002" lon="13.707829625171698"><ele>987.0</ele><time>2026-04-18T11:16:37Z</time></trkpt><trkpt lat="42.07761754682564" lon="13.70764452379183"><ele>994.0</ele><time>2026-04-18T11:16:38Z</time></trkpt><trkpt lat="42.0777481555375" lon="13.707427764254655"><ele>1001.0</ele><time>2026-04-18T11:16:39Z</time></trkpt><trkpt lat="42.07786023825452" lon="13.70724856328519"><ele>1001.0</ele><time>2026-04-18T11:16:40Z</time></trkpt><trkpt lat="42.07796515437218" lon="13.707068572053954"><ele>1001.0</ele><time>2026-04-18T11:16:41Z</time></trkpt><trkpt lat="42.078053236996716" lon="13.706914693401236"><ele>1001.0</ele><time>2026-04-18T11:16:42Z</time></trkpt><trkpt lat="42.07811203656171" lon="13.706814006155483"><ele>1001.0</ele><time>2026-04-18T11:16:43Z</time></trkpt><trkpt lat="42.078167646048676" lon="13.70674788140835"><ele>1002.1999999999999</ele><time>2026-04-18T11:16:44Z</time></trkpt><trkpt lat="42.078236335202185" lon="13.706770219190474"><ele>1003.3999999999999</ele><time>2026-04-18T11:16:45Z</time></trkpt><trkpt lat="42.078318934418604" lon="13.706831599429892"><ele>1004.6</ele><time>2026-04-18T11:16:46Z</time></trkpt><trkpt lat="42.07838017476051" lon="13.706946480835724"><ele>1005.8</ele><time>2026-04-18T11:16:47Z</time></trkpt><trkpt lat="42.07837220254335" lon="13.707090424329142"><ele>1007.0</ele><time>2026-04-18T11:16:48Z</time></trkpt><trkpt lat="42.07840755979012" lon="13.707231583428497"><ele>1001.0</ele><time>2026-04-18T11:16:49Z</time></trkpt><trkpt lat="42.078449037594154" lon="13.707524106266506"><ele>995.0</ele><time>2026-04-18T11:16:50Z</time></trkpt><trkpt lat="42.07848442708629" lon="13.707765668565317"><ele>989.0</ele><time>2026-04-18T11:16:51Z</time></trkpt><trkpt lat="42.078530802650455" lon="13.708041410130683"><ele>984.3333333333334</ele><time>2026-04-18T11:16:52Z</time></trkpt><trkpt lat="42.0785861114273" lon="13.708318194769104"><ele>979.6666666666667</ele><time>2026-04-18T11:16:53Z</time></trkpt><trkpt lat="42.07865943764421" lon="13.708602539664726"><ele>975.0</ele><time>2026-04-18T11:16:54Z</time></trkpt><trkpt lat="42.07875974700583" lon="13.70887440631735"><ele>970.75</ele><time>2026-04-18T11:16:55Z</time></trkpt><trkpt lat="42.07880991219786" lon="13.709059001172191"><ele>966.5</ele><time>2026-04-18T11:16:56Z</time></trkpt><trkpt lat="42.07889725097534" lon="13.709235501297984"><ele>962.25</ele><time>2026-04-18T11:16:57Z</time></trkpt><trkpt lat="42.07898140500656" lon="13.709382829045106"><ele>958.0</ele><time>2026-04-18T11:16:58Z</time></trkpt><trkpt lat="42.079076674748784" lon="13.709500825356285"><ele>959.0</ele><time>2026-04-18T11:16:59Z</time></trkpt><trkpt lat="42.079179827030266" lon="13.709578517015126"><ele>960.0</ele><time>2026-04-18T11:17:00Z</time></trkpt><trkpt lat="42.07931553814419" lon="13.709609654032915"><ele>961.0</ele><time>2026-04-18T11:17:01Z</time></trkpt><trkpt lat="42.079452030552574" lon="13.709599042731837"><ele>962.0</ele><time>2026-04-18T11:17:02Z</time></trkpt><trkpt lat="42.07961305190179" lon="13.70953394865975"><ele>962.0</ele><time>2026-04-18T11:17:03Z</time></trkpt><trkpt lat="42.07979727253106" lon="13.709410428117044"><ele>962.0</ele><time>2026-04-18T11:17:04Z</time></trkpt><trkpt lat="42.08004087273896" lon="13.709225056462707"><ele>969.5</ele><time>2026-04-18T11:17:05Z</time></trkpt><trkpt lat="42.080239855021546" lon="13.709107715569552"><ele>977.0</ele><time>2026-04-18T11:17:06Z</time></trkpt><trkpt lat="42.080459929591285" lon="13.708977596647413"><ele>977.0</ele><time>2026-04-18T11:17:07Z</time></trkpt><trkpt lat="42.08069489945643" lon="13.708838640428475"><ele>977.0</ele><time>2026-04-18T11:17:08Z</time></trkpt><trkpt lat="42.08090286102037" lon="13.70871433414422"><ele>981.3333333333334</ele><time>2026-04-18T11:17:09Z</time></trkpt><trkpt lat="42.08109371301467" lon="13.70859957382249"><ele>985.6666666666667</ele><time>2026-04-18T11:17:10Z</time></trkpt><trkpt lat="42.081273463175215" lon="13.708487155338322"><ele>990.0</ele><time>2026-04-18T11:17:11Z</time></trkpt><trkpt lat="42.08143080857451" lon="13.708348597429927"><ele>990.0</ele><time>2026-04-18T11:17:12Z</time></trkpt><trkpt lat="42.08159093843698" lon="13.708182922933908"><ele>990.0</ele><time>2026-04-18T11:17:13Z</time></trkpt><trkpt lat="42.08176631868738" lon="13.707971777142316"><ele>990.0</ele><time>2026-04-18T11:17:14Z</time></trkpt><trkpt lat="42.08194204723605" lon="13.707724275301018"><ele>988.0</ele><time>2026-04-18T11:17:15Z</time></trkpt><trkpt lat="42.08211232566947" lon="13.70747071211363"><ele>986.0</ele><time>2026-04-18T11:17:16Z</time></trkpt><trkpt lat="42.08225766730272" lon="13.707241657420552"><ele>986.0</ele><time>2026-04-18T11:17:16.999Z</time></trkpt><trkpt lat="42.08238291238452" lon="13.707033353184318"><ele>986.0</ele><time>2026-04-18T11:17:17.999Z</time></trkpt><trkpt lat="42.082486524140904" lon="13.706848509684502"><ele>986.0</ele><time>2026-04-18T11:17:18.999Z</time></trkpt><trkpt lat="42.082571320414026" lon="13.706697085662398"><ele>982.5999999999999</ele><time>2026-04-18T11:17:19.999Z</time></trkpt><trkpt lat="42.08264689885379" lon="13.706569543506568"><ele>979.1999999999999</ele><time>2026-04-18T11:17:20.999Z</time></trkpt><trkpt lat="42.082719576718226" lon="13.706456693728498"><ele>975.8000000000001</ele><time>2026-04-18T11:17:21.999Z</time></trkpt><trkpt lat="42.082782306595035" lon="13.706374063354993"><ele>972.4000000000001</ele><time>2026-04-18T11:17:22.999Z</time></trkpt><trkpt lat="42.082874499011645" lon="13.70630969944059"><ele>969.0</ele><time>2026-04-18T11:17:24.999Z</time></trkpt><trkpt lat="42.08293359187802" lon="13.706359077966654"><ele>969.0</ele><time>2026-04-18T11:17:25.999Z</time></trkpt><trkpt lat="42.08297423538084" lon="13.706451788115956"><ele>969.0</ele><time>2026-04-18T11:17:26.999Z</time></trkpt><trkpt lat="42.08296585908176" lon="13.706619589399434"><ele>969.0</ele><time>2026-04-18T11:17:27.999Z</time></trkpt><trkpt lat="42.08291085218552" lon="13.706824447267241"><ele>969.0</ele><time>2026-04-18T11:17:28.999Z</time></trkpt><trkpt lat="42.08285064074661" lon="13.70704154726352"><ele>962.6666666666667</ele><time>2026-04-18T11:17:29.999Z</time></trkpt><trkpt lat="42.08278651758379" lon="13.707285598149094"><ele>956.3333333333334</ele><time>2026-04-18T11:17:30.999Z</time></trkpt><trkpt lat="42.082722599815725" lon="13.707564616413066"><ele>950.0</ele><time>2026-04-18T11:17:31.999Z</time></trkpt><trkpt lat="42.082659864147914" lon="13.707850250819964"><ele>947.3333333333334</ele><time>2026-04-18T11:17:32.999Z</time></trkpt><trkpt lat="42.08258719032536" lon="13.70812308809068"><ele>944.6666666666667</ele><time>2026-04-18T11:17:33.999Z</time></trkpt><trkpt lat="42.08249091624355" lon="13.70839453241699"><ele>942.0</ele><time>2026-04-18T11:17:34.999Z</time></trkpt><trkpt lat="42.08239313301617" lon="13.708665727807938"><ele>938.3333333333333</ele><time>2026-04-18T11:17:35.999Z</time></trkpt><trkpt lat="42.08237600373726" lon="13.708908689171762"><ele>934.6666666666666</ele><time>2026-04-18T11:17:36.999Z</time></trkpt><trkpt lat="42.08229515876481" lon="13.70919766821716"><ele>931.0</ele><time>2026-04-18T11:17:37.999Z</time></trkpt><trkpt lat="42.08220340369324" lon="13.709460790062833"><ele>928.3333333333333</ele><time>2026-04-18T11:17:38.999Z</time></trkpt><trkpt lat="42.082116888688844" lon="13.709704697167684"><ele>925.6666666666667</ele><time>2026-04-18T11:17:40Z</time></trkpt><trkpt lat="42.08201441441784" lon="13.709901069418096"><ele>923.0</ele><time>2026-04-18T11:17:41Z</time></trkpt><trkpt lat="42.08192630154385" lon="13.710056302488283"><ele>923.0</ele><time>2026-04-18T11:17:42Z</time></trkpt><trkpt lat="42.08184757881081" lon="13.71020416310631"><ele>923.0</ele><time>2026-04-18T11:17:43Z</time></trkpt><trkpt lat="42.08181017891979" lon="13.710388092791526"><ele>923.0</ele><time>2026-04-18T11:17:44Z</time></trkpt><trkpt lat="42.08181735258238" lon="13.710612556912338"><ele>923.0</ele><time>2026-04-18T11:17:45Z</time></trkpt><trkpt lat="42.08183649080426" lon="13.710823527337942"><ele>922.75</ele><time>2026-04-18T11:17:46Z</time></trkpt><trkpt lat="42.08183918457313" lon="13.710993427524617"><ele>922.5</ele><time>2026-04-18T11:17:47Z</time></trkpt><trkpt lat="42.081773396640436" lon="13.71114530123173"><ele>922.25</ele><time>2026-04-18T11:17:48Z</time></trkpt><trkpt lat="42.081703829454625" lon="13.711327085306149"><ele>922.0</ele><time>2026-04-18T11:17:49Z</time></trkpt><trkpt lat="42.08161810348276" lon="13.711468817268168"><ele>916.6</ele><time>2026-04-18T11:17:50Z</time></trkpt><trkpt lat="42.08155711024978" lon="13.711594808211416"><ele>911.2</ele><time>2026-04-18T11:17:51Z</time></trkpt><trkpt lat="42.08150759072722" lon="13.711716476823025"><ele>905.8</ele><time>2026-04-18T11:17:52Z</time></trkpt><trkpt lat="42.08148789381436" lon="13.711840334721693"><ele>900.4</ele><time>2026-04-18T11:17:53Z</time></trkpt><trkpt lat="42.08151345097195" lon="13.71196092061227"><ele>895.0</ele><time>2026-04-18T11:17:54Z</time></trkpt><trkpt lat="42.081574089081236" lon="13.71206480211828"><ele>899.75</ele><time>2026-04-18T11:17:55Z</time></trkpt><trkpt lat="42.0816650549181" lon="13.71213569444715"><ele>904.5</ele><time>2026-04-18T11:17:56Z</time></trkpt><trkpt lat="42.081781814330405" lon="13.712136877397219"><ele>909.25</ele><time>2026-04-18T11:17:57Z</time></trkpt><trkpt lat="42.08189815576586" lon="13.712086927358378"><ele>914.0</ele><time>2026-04-18T11:17:58Z</time></trkpt><trkpt lat="42.08205603906036" lon="13.711999109649247"><ele>914.0</ele><time>2026-04-18T11:17:59Z</time></trkpt><trkpt lat="42.08218806424453" lon="13.711996723122201"><ele>914.0</ele><time>2026-04-18T11:18:00Z</time></trkpt><trkpt lat="42.082343005511774" lon="13.712030150514911"><ele>914.0</ele><time>2026-04-18T11:18:01Z</time></trkpt><trkpt lat="42.08251975850428" lon="13.712062593563468"><ele>916.0</ele><time>2026-04-18T11:18:02Z</time></trkpt><trkpt lat="42.082709848371586" lon="13.712118360623483"><ele>918.0</ele><time>2026-04-18T11:18:03Z</time></trkpt><trkpt lat="42.082860573433585" lon="13.712190461376613"><ele>920.0</ele><time>2026-04-18T11:18:04Z</time></trkpt><trkpt lat="42.0829761109977" lon="13.712258350308115"><ele>920.0</ele><time>2026-04-18T11:18:05Z</time></trkpt><trkpt lat="42.08306123956959" lon="13.712333875912652"><ele>920.0</ele><time>2026-04-18T11:18:06Z</time></trkpt><trkpt lat="42.083120537712894" lon="13.712429784663518"><ele>920.0</ele><time>2026-04-18T11:18:07Z</time></trkpt><trkpt lat="42.083151223949116" lon="13.71253979454125"><ele>920.0</ele><time>2026-04-18T11:18:08Z</time></trkpt><trkpt lat="42.08315789408024" lon="13.712673437724112"><ele>920.0</ele><time>2026-04-18T11:18:09Z</time></trkpt><trkpt lat="42.08311692147691" lon="13.712846113669455"><ele>917.6666666666667</ele><time>2026-04-18T11:18:10Z</time></trkpt><trkpt lat="42.08306563009933" lon="13.713064917907193"><ele>915.3333333333333</ele><time>2026-04-18T11:18:11Z</time></trkpt><trkpt lat="42.08300298159078" lon="13.713298045375565"><ele>913.0</ele><time>2026-04-18T11:18:12Z</time></trkpt><trkpt lat="42.08295417615978" lon="13.713500466461795"><ele>911.0</ele><time>2026-04-18T11:18:13Z</time></trkpt><trkpt lat="42.082937084230586" lon="13.713666885298696"><ele>909.0</ele><time>2026-04-18T11:18:14Z</time></trkpt><trkpt lat="42.0829257268805" lon="13.71380468398283"><ele>907.0</ele><time>2026-04-18T11:18:15Z</time></trkpt><trkpt lat="42.08296140014839" lon="13.713939189229526"><ele>905.0</ele><time>2026-04-18T11:18:16Z</time></trkpt><trkpt lat="42.08303170991239" lon="13.714034218057208"><ele>903.0</ele><time>2026-04-18T11:18:17Z</time></trkpt><trkpt lat="42.08313586596191" lon="13.714082861469914"><ele>903.0</ele><time>2026-04-18T11:18:18Z</time></trkpt><trkpt lat="42.08321804262536" lon="13.71409945872212"><ele>903.0</ele><time>2026-04-18T11:18:19Z</time></trkpt><trkpt lat="42.08336621416618" lon="13.714039664605533"><ele>903.0</ele><time>2026-04-18T11:18:20Z</time></trkpt><trkpt lat="42.08358196136332" lon="13.71392096403821"><ele>903.0</ele><time>2026-04-18T11:18:21Z</time></trkpt><trkpt lat="42.08381362752876" lon="13.713835809904756"><ele>903.0</ele><time>2026-04-18T11:18:22Z</time></trkpt><trkpt lat="42.08399036076071" lon="13.713769040085994"><ele>903.0</ele><time>2026-04-18T11:18:23Z</time></trkpt><trkpt lat="42.0841521089467" lon="13.713700544953374"><ele>902.5999999999999</ele><time>2026-04-18T11:18:24Z</time></trkpt><trkpt lat="42.08428838462278" lon="13.713641004080271"><ele>902.1999999999999</ele><time>2026-04-18T11:18:25Z</time></trkpt><trkpt lat="42.0843955678917" lon="13.71364403472739"><ele>901.8</ele><time>2026-04-18T11:18:26Z</time></trkpt><trkpt lat="42.08449501526099" lon="13.713733890312334"><ele>901.4</ele><time>2026-04-18T11:18:27Z</time></trkpt><trkpt lat="42.08454249601812" lon="13.713810045935602"><ele>901.0</ele><time>2026-04-18T11:18:28Z</time></trkpt><trkpt lat="42.08456983660002" lon="13.713944927216657"><ele>901.0</ele><time>2026-04-18T11:18:29Z</time></trkpt><trkpt lat="42.08457935794774" lon="13.714089567460796"><ele>901.0</ele><time>2026-04-18T11:18:30Z</time></trkpt><trkpt lat="42.084599757545135" lon="13.71427074410183"><ele>901.0</ele><time>2026-04-18T11:18:31Z</time></trkpt><trkpt lat="42.08463666714104" lon="13.714432705518739"><ele>901.0</ele><time>2026-04-18T11:18:32Z</time></trkpt><trkpt lat="42.08471652504193" lon="13.714534551433365"><ele>897.3333333333333</ele><time>2026-04-18T11:18:33Z</time></trkpt><trkpt lat="42.08485340238364" lon="13.714551097158559"><ele>893.6666666666667</ele><time>2026-04-18T11:18:34Z</time></trkpt><trkpt lat="42.08498967143582" lon="13.71454596678158"><ele>890.0</ele><time>2026-04-18T11:18:35Z</time></trkpt><trkpt lat="42.08519263166067" lon="13.714541424995112"><ele>890.0</ele><time>2026-04-18T11:18:36Z</time></trkpt><trkpt lat="42.08539733638829" lon="13.714557989382673"><ele>890.0</ele><time>2026-04-18T11:18:37Z</time></trkpt><trkpt lat="42.085529913132426" lon="13.714569917615524"><ele>890.0</ele><time>2026-04-18T11:18:38Z</time></trkpt><trkpt lat="42.08567717490613" lon="13.714555840670991"><ele>890.0</ele><time>2026-04-18T11:18:39Z</time></trkpt><trkpt lat="42.08576100217563" lon="13.714589743392288"><ele>890.0</ele><time>2026-04-18T11:18:40Z</time></trkpt><trkpt lat="42.08583588170184" lon="13.714660074129604"><ele>890.0</ele><time>2026-04-18T11:18:41Z</time></trkpt><trkpt lat="42.08590140636264" lon="13.714787215044073"><ele>890.0</ele><time>2026-04-18T11:18:42Z</time></trkpt><trkpt lat="42.085955130700185" lon="13.714944581216544"><ele>890.0</ele><time>2026-04-18T11:18:43Z</time></trkpt><trkpt lat="42.086019034883826" lon="13.715097724112097"><ele>891.6666666666667</ele><time>2026-04-18T11:18:44Z</time></trkpt><trkpt lat="42.086157717395814" lon="13.715194747475149"><ele>893.3333333333333</ele><time>2026-04-18T11:18:45Z</time></trkpt><trkpt lat="42.08631636508267" lon="13.715249648913689"><ele>895.0</ele><time>2026-04-18T11:18:46Z</time></trkpt><trkpt lat="42.08649736978003" lon="13.71535418592901"><ele>895.3333333333333</ele><time>2026-04-18T11:18:47Z</time></trkpt><trkpt lat="42.086691253053445" lon="13.715471416790988"><ele>895.6666666666667</ele><time>2026-04-18T11:18:48Z</time></trkpt><trkpt lat="42.08684676529317" lon="13.71560877316567"><ele>896.0</ele><time>2026-04-18T11:18:49Z</time></trkpt><trkpt lat="42.08701002082491" lon="13.715766848955825"><ele>896.0</ele><time>2026-04-18T11:18:50Z</time></trkpt><trkpt lat="42.087179425716606" lon="13.715929557058267"><ele>896.0</ele><time>2026-04-18T11:18:51Z</time></trkpt><trkpt lat="42.08732967519679" lon="13.716072762263924"><ele>896.0</ele><time>2026-04-18T11:18:52Z</time></trkpt><trkpt lat="42.087436303632316" lon="13.716173602040687"><ele>896.0</ele><time>2026-04-18T11:18:53Z</time></trkpt><trkpt lat="42.08756593423222" lon="13.716307089974276"><ele>896.0</ele><time>2026-04-18T11:18:54Z</time></trkpt><trkpt lat="42.08766345957658" lon="13.716439279374521"><ele>896.0</ele><time>2026-04-18T11:18:55Z</time></trkpt><trkpt lat="42.08777705835629" lon="13.716650121315242"><ele>896.0</ele><time>2026-04-18T11:18:56Z</time></trkpt><trkpt lat="42.08790931313777" lon="13.716898675379381"><ele>896.0</ele><time>2026-04-18T11:18:57Z</time></trkpt><trkpt lat="42.08803760354814" lon="13.717139777747057"><ele>896.0</ele><time>2026-04-18T11:18:58Z</time></trkpt><trkpt lat="42.088175908066596" lon="13.717355042951146"><ele>894.6666666666667</ele><time>2026-04-18T11:18:59Z</time></trkpt><trkpt lat="42.08827980332696" lon="13.717570075481298"><ele>893.3333333333333</ele><time>2026-04-18T11:19:00Z</time></trkpt><trkpt lat="42.088417166288444" lon="13.717740781682217"><ele>892.0</ele><time>2026-04-18T11:19:01Z</time></trkpt><trkpt lat="42.08857127821078" lon="13.717893510790015"><ele>892.0</ele><time>2026-04-18T11:19:02Z</time></trkpt><trkpt lat="42.08875974868727" lon="13.71800758312239"><ele>892.0</ele><time>2026-04-18T11:19:03Z</time></trkpt><trkpt lat="42.08896452723308" lon="13.71808931194736"><ele>892.0</ele><time>2026-04-18T11:19:04Z</time></trkpt><trkpt lat="42.08916118818116" lon="13.718150145897713"><ele>888.0</ele><time>2026-04-18T11:19:05Z</time></trkpt><trkpt lat="42.089336742063374" lon="13.718204267360344"><ele>884.0</ele><time>2026-04-18T11:19:06Z</time></trkpt><trkpt lat="42.08949831849337" lon="13.71825806265959"><ele>880.0</ele><time>2026-04-18T11:19:07Z</time></trkpt><trkpt lat="42.08963008822331" lon="13.718361413290637"><ele>880.0</ele><time>2026-04-18T11:19:08Z</time></trkpt><trkpt lat="42.08975192008656" lon="13.718465364521968"><ele>880.0</ele><time>2026-04-18T11:19:09Z</time></trkpt><trkpt lat="42.0898804720323" lon="13.71861168580766"><ele>880.0</ele><time>2026-04-18T11:19:10Z</time></trkpt><trkpt lat="42.08999619579399" lon="13.718787053938955"><ele>880.3333333333333</ele><time>2026-04-18T11:19:11Z</time></trkpt><trkpt lat="42.09010730170448" lon="13.718998508157709"><ele>880.6666666666667</ele><time>2026-04-18T11:19:12Z</time></trkpt><trkpt lat="42.09021631448406" lon="13.719213805761912"><ele>881.0</ele><time>2026-04-18T11:19:13Z</time></trkpt><trkpt lat="42.09031928152472" lon="13.719391785139361"><ele>882.25</ele><time>2026-04-18T11:19:14Z</time></trkpt><trkpt lat="42.09039903269064" lon="13.719530023668444"><ele>883.5</ele><time>2026-04-18T11:19:15Z</time></trkpt><trkpt lat="42.09045615415042" lon="13.719652750503359"><ele>884.75</ele><time>2026-04-18T11:19:16Z</time></trkpt><trkpt lat="42.090480237367586" lon="13.719800013576258"><ele>886.0</ele><time>2026-04-18T11:19:17Z</time></trkpt><trkpt lat="42.09048444688142" lon="13.71998847406039"><ele>886.0</ele><time>2026-04-18T11:19:18Z</time></trkpt><trkpt lat="42.09048366273331" lon="13.720191835830011"><ele>886.0</ele><time>2026-04-18T11:19:19Z</time></trkpt><trkpt lat="42.090507434312656" lon="13.720363258873876"><ele>886.0</ele><time>2026-04-18T11:19:20Z</time></trkpt><trkpt lat="42.09053442633114" lon="13.720502633387241"><ele>886.0</ele><time>2026-04-18T11:19:21Z</time></trkpt><trkpt lat="42.09060294085314" lon="13.720600414751727"><ele>886.0</ele><time>2026-04-18T11:19:21.999Z</time></trkpt><trkpt lat="42.09073048596122" lon="13.720676916482146"><ele>886.0</ele><time>2026-04-18T11:19:22.999Z</time></trkpt><trkpt lat="42.090919806246994" lon="13.720730467772562"><ele>886.0</ele><time>2026-04-18T11:19:23.999Z</time></trkpt><trkpt lat="42.09114575829715" lon="13.720783293211632"><ele>879.3333333333333</ele><time>2026-04-18T11:19:24.999Z</time></trkpt><trkpt lat="42.09136697492538" lon="13.720846520789996"><ele>872.6666666666667</ele><time>2026-04-18T11:19:25.999Z</time></trkpt><trkpt lat="42.09158277675588" lon="13.720889750646323"><ele>866.0</ele><time>2026-04-18T11:19:26.999Z</time></trkpt><trkpt lat="42.091766869200555" lon="13.720865803751652"><ele>863.3333333333334</ele><time>2026-04-18T11:19:27.999Z</time></trkpt><trkpt lat="42.09197098161362" lon="13.72081015885828"><ele>860.6666666666667</ele><time>2026-04-18T11:19:28.999Z</time></trkpt><trkpt lat="42.09213903470415" lon="13.720809374760066"><ele>858.0</ele><time>2026-04-18T11:19:29.999Z</time></trkpt><trkpt lat="42.09227165350146" lon="13.720798224241918"><ele>858.0</ele><time>2026-04-18T11:19:30.999Z</time></trkpt><trkpt lat="42.0923892906048" lon="13.720803240267713"><ele>858.0</ele><time>2026-04-18T11:19:31.999Z</time></trkpt><trkpt lat="42.092502609282576" lon="13.720859483214099"><ele>858.0</ele><time>2026-04-18T11:19:32.999Z</time></trkpt><trkpt lat="42.092603314045476" lon="13.720955646634069"><ele>858.0</ele><time>2026-04-18T11:19:33.999Z</time></trkpt><trkpt lat="42.092673529997235" lon="13.721097577299329"><ele>858.3333333333333</ele><time>2026-04-18T11:19:34.999Z</time></trkpt><trkpt lat="42.09271322444981" lon="13.72128414377175"><ele>858.6666666666666</ele><time>2026-04-18T11:19:35.999Z</time></trkpt><trkpt lat="42.09275896592193" lon="13.721507232284658"><ele>859.0</ele><time>2026-04-18T11:19:36.999Z</time></trkpt><trkpt lat="42.092805420705666" lon="13.72176442034619"><ele>860.0</ele><time>2026-04-18T11:19:37.999Z</time></trkpt><trkpt lat="42.0928882884233" lon="13.721982189804207"><ele>861.0</ele><time>2026-04-18T11:19:38.999Z</time></trkpt><trkpt lat="42.09297546100173" lon="13.72216110739464"><ele>862.0</ele><time>2026-04-18T11:19:39.999Z</time></trkpt><trkpt lat="42.09303620800615" lon="13.72227025103689"><ele>863.0</ele><time>2026-04-18T11:19:40.999Z</time></trkpt><trkpt lat="42.09309778237888" lon="13.722404272695321"><ele>863.0</ele><time>2026-04-18T11:19:41.999Z</time></trkpt><trkpt lat="42.09312861283796" lon="13.722534540718051"><ele>863.0</ele><time>2026-04-18T11:19:42.999Z</time></trkpt><trkpt lat="42.09312726896051" lon="13.722685675440466"><ele>863.0</ele><time>2026-04-18T11:19:43.999Z</time></trkpt><trkpt lat="42.09308848451913" lon="13.72287679744708"><ele>863.0</ele><time>2026-04-18T11:19:44.999Z</time></trkpt><trkpt lat="42.09302683573927" lon="13.723074650101601"><ele>862.4</ele><time>2026-04-18T11:19:46Z</time></trkpt><trkpt lat="42.09297321859239" lon="13.723225547123052"><ele>861.8</ele><time>2026-04-18T11:19:47Z</time></trkpt><trkpt lat="42.09294420778502" lon="13.723355128584561"><ele>861.2</ele><time>2026-04-18T11:19:48Z</time></trkpt><trkpt lat="42.09296384556726" lon="13.723462959730265"><ele>860.6</ele><time>2026-04-18T11:19:49Z</time></trkpt><trkpt lat="42.09302695043574" lon="13.723542850057951"><ele>860.0</ele><time>2026-04-18T11:19:50Z</time></trkpt><trkpt lat="42.093128485700575" lon="13.72358338664233"><ele>859.6</ele><time>2026-04-18T11:19:51Z</time></trkpt><trkpt lat="42.093251197864234" lon="13.723584275645523"><ele>859.2</ele><time>2026-04-18T11:19:52Z</time></trkpt><trkpt lat="42.09334080938399" lon="13.72358561889225"><ele>858.8</ele><time>2026-04-18T11:19:53Z</time></trkpt><trkpt lat="42.09341464138799" lon="13.72364906295953"><ele>858.4</ele><time>2026-04-18T11:19:54Z</time></trkpt><trkpt lat="42.0934856699029" lon="13.723795159217618"><ele>858.0</ele><time>2026-04-18T11:19:55Z</time></trkpt><trkpt lat="42.09356456183" lon="13.72405604134104"><ele>855.0</ele><time>2026-04-18T11:19:56Z</time></trkpt><trkpt lat="42.09365375078316" lon="13.724236257375932"><ele>852.0</ele><time>2026-04-18T11:19:57Z</time></trkpt><trkpt lat="42.09376020468076" lon="13.72441766326968"><ele>849.0</ele><time>2026-04-18T11:19:58Z</time></trkpt><trkpt lat="42.09385776295854" lon="13.724630660479793"><ele>849.0</ele><time>2026-04-18T11:19:59Z</time></trkpt><trkpt lat="42.09391730334913" lon="13.72482713646448"><ele>849.0</ele><time>2026-04-18T11:20:00Z</time></trkpt><trkpt lat="42.093969121665914" lon="13.725013421451557"><ele>849.0</ele><time>2026-04-18T11:20:01Z</time></trkpt><trkpt lat="42.09401281318437" lon="13.72518456801745"><ele>849.0</ele><time>2026-04-18T11:20:02Z</time></trkpt><trkpt lat="42.09403326590246" lon="13.725315885750662"><ele>847.0</ele><time>2026-04-18T11:20:03Z</time></trkpt><trkpt lat="42.09401277199169" lon="13.725404047810729"><ele>845.0</ele><time>2026-04-18T11:20:04Z</time></trkpt><trkpt lat="42.09393732310194" lon="13.725505702960037"><ele>843.0</ele><time>2026-04-18T11:20:05Z</time></trkpt><trkpt lat="42.09380746859532" lon="13.72559871762173"><ele>841.0</ele><time>2026-04-18T11:20:06Z</time></trkpt><trkpt lat="42.09365685073503" lon="13.725703452973134"><ele>841.0</ele><time>2026-04-18T11:20:07Z</time></trkpt><trkpt lat="42.093529206641016" lon="13.725861894797069"><ele>841.0</ele><time>2026-04-18T11:20:08Z</time></trkpt><trkpt lat="42.09343097884284" lon="13.726059935852494"><ele>841.0</ele><time>2026-04-18T11:20:09Z</time></trkpt><trkpt lat="42.09337560166885" lon="13.72631990528"><ele>839.6666666666666</ele><time>2026-04-18T11:20:10Z</time></trkpt><trkpt lat="42.093330292605664" lon="13.72661866195891"><ele>838.3333333333333</ele><time>2026-04-18T11:20:11Z</time></trkpt><trkpt lat="42.09325363182512" lon="13.726888964446372"><ele>837.0</ele><time>2026-04-18T11:20:12Z</time></trkpt><trkpt lat="42.09317745390628" lon="13.727197079756294"><ele>837.0</ele><time>2026-04-18T11:20:13Z</time></trkpt><trkpt lat="42.093110355717755" lon="13.727456798346156"><ele>837.0</ele><time>2026-04-18T11:20:14Z</time></trkpt><trkpt lat="42.09301925191002" lon="13.72769858851306"><ele>837.0</ele><time>2026-04-18T11:20:15Z</time></trkpt><trkpt lat="42.09297117044521" lon="13.727848615706998"><ele>834.5</ele><time>2026-04-18T11:20:16Z</time></trkpt><trkpt lat="42.09291990658368" lon="13.727984476868103"><ele>832.0</ele><time>2026-04-18T11:20:17Z</time></trkpt><trkpt lat="42.092905308350254" lon="13.72812096134563"><ele>829.5</ele><time>2026-04-18T11:20:18Z</time></trkpt><trkpt lat="42.092945667324706" lon="13.728256661858357"><ele>827.0</ele><time>2026-04-18T11:20:19Z</time></trkpt><trkpt lat="42.093036175498945" lon="13.728379150248161"><ele>827.0</ele><time>2026-04-18T11:20:20Z</time></trkpt><trkpt lat="42.09315135886419" lon="13.728443858107632"><ele>827.0</ele><time>2026-04-18T11:20:21Z</time></trkpt><trkpt lat="42.09328094862947" lon="13.728442233761609"><ele>827.0</ele><time>2026-04-18T11:20:22Z</time></trkpt><trkpt lat="42.0934206865236" lon="13.728373241286924"><ele>827.0</ele><time>2026-04-18T11:20:23Z</time></trkpt><trkpt lat="42.093576075799376" lon="13.728253185162838"><ele>824.5</ele><time>2026-04-18T11:20:24Z</time></trkpt><trkpt lat="42.093736630550765" lon="13.728188730701566"><ele>822.0</ele><time>2026-04-18T11:20:25Z</time></trkpt><trkpt lat="42.09386620257683" lon="13.728141608319865"><ele>819.5</ele><time>2026-04-18T11:20:26Z</time></trkpt><trkpt lat="42.094007700217034" lon="13.7281247895649"><ele>817.0</ele><time>2026-04-18T11:20:27Z</time></trkpt><trkpt lat="42.094173944416866" lon="13.728165017635252"><ele>815.6666666666666</ele><time>2026-04-18T11:20:28Z</time></trkpt><trkpt lat="42.094360785329904" lon="13.728216058106167"><ele>814.3333333333333</ele><time>2026-04-18T11:20:29Z</time></trkpt><trkpt lat="42.09453239580866" lon="13.728263758255737"><ele>813.0</ele><time>2026-04-18T11:20:30Z</time></trkpt><trkpt lat="42.094715913983066" lon="13.72831536611285"><ele>813.0</ele><time>2026-04-18T11:20:31Z</time></trkpt><trkpt lat="42.09488959836417" lon="13.728363590908991"><ele>813.0</ele><time>2026-04-18T11:20:32Z</time></trkpt><trkpt lat="42.09504372030399" lon="13.728386982985274"><ele>813.0</ele><time>2026-04-18T11:20:33Z</time></trkpt><trkpt lat="42.09521764348275" lon="13.728347880876944"><ele>810.3333333333333</ele><time>2026-04-18T11:20:34Z</time></trkpt><trkpt lat="42.09539808092257" lon="13.728276302380404"><ele>807.6666666666666</ele><time>2026-04-18T11:20:35Z</time></trkpt><trkpt lat="42.0955465715063" lon="13.728204705593887"><ele>805.0</ele><time>2026-04-18T11:20:36Z</time></trkpt><trkpt lat="42.0956603883888" lon="13.728122345860275"><ele>802.6666666666666</ele><time>2026-04-18T11:20:37Z</time></trkpt><trkpt lat="42.0957698827002" lon="13.727992685490868"><ele>800.3333333333333</ele><time>2026-04-18T11:20:38Z</time></trkpt><trkpt lat="42.095860575847254" lon="13.72778797678817"><ele>798.0</ele><time>2026-04-18T11:20:39Z</time></trkpt><trkpt lat="42.0959263242938" lon="13.72754542013247"><ele>798.0</ele><time>2026-04-18T11:20:40Z</time></trkpt><trkpt lat="42.09595701267393" lon="13.72729314269971"><ele>798.0</ele><time>2026-04-18T11:20:41Z</time></trkpt><trkpt lat="42.095948905104265" lon="13.727049698477884"><ele>798.0</ele><time>2026-04-18T11:20:42Z</time></trkpt><trkpt lat="42.0959229421279" lon="13.726819196988412"><ele>797.0</ele><time>2026-04-18T11:20:43Z</time></trkpt><trkpt lat="42.0958362435485" lon="13.726530220712407"><ele>796.0</ele><time>2026-04-18T11:20:44Z</time></trkpt><trkpt lat="42.09573355192229" lon="13.726220695794224"><ele>794.3333333333333</ele><time>2026-04-18T11:20:45Z</time></trkpt><trkpt lat="42.09564326980699" lon="13.72593098671582"><ele>792.6666666666667</ele><time>2026-04-18T11:20:46Z</time></trkpt><trkpt lat="42.09556437593691" lon="13.725679109569624"><ele>791.0</ele><time>2026-04-18T11:20:47Z</time></trkpt><trkpt lat="42.09549666171418" lon="13.725446869130778"><ele>791.0</ele><time>2026-04-18T11:20:48Z</time></trkpt><trkpt lat="42.095440190942426" lon="13.725250465936503"><ele>791.0</ele><time>2026-04-18T11:20:49Z</time></trkpt><trkpt lat="42.09540456987737" lon="13.725080525054166"><ele>791.0</ele><time>2026-04-18T11:20:50Z</time></trkpt><trkpt lat="42.09541995999913" lon="13.724916837508994"><ele>791.0</ele><time>2026-04-18T11:20:51Z</time></trkpt><trkpt lat="42.09546593719823" lon="13.724765779634168"><ele>792.0</ele><time>2026-04-18T11:20:52Z</time></trkpt><trkpt lat="42.09554374213913" lon="13.72458336213141"><ele>793.0</ele><time>2026-04-18T11:20:53Z</time></trkpt><trkpt lat="42.095662864036676" lon="13.724367235788357"><ele>794.0</ele><time>2026-04-18T11:20:54Z</time></trkpt><trkpt lat="42.09578770520791" lon="13.724127974850473"><ele>792.0</ele><time>2026-04-18T11:20:55Z</time></trkpt><trkpt lat="42.095926067863786" lon="13.723921759762746"><ele>790.0</ele><time>2026-04-18T11:20:56Z</time></trkpt><trkpt lat="42.09605134132693" lon="13.723710108839239"><ele>788.0</ele><time>2026-04-18T11:20:57Z</time></trkpt><trkpt lat="42.09616366326291" lon="13.723523558275605"><ele>785.6666666666667</ele><time>2026-04-18T11:20:58Z</time></trkpt><trkpt lat="42.09626777575756" lon="13.723366228450589"><ele>783.3333333333333</ele><time>2026-04-18T11:20:59Z</time></trkpt><trkpt lat="42.096390284619915" lon="13.723234602827793"><ele>781.0</ele><time>2026-04-18T11:21:00Z</time></trkpt><trkpt lat="42.09655268387769" lon="13.72310483422383"><ele>781.6666666666666</ele><time>2026-04-18T11:21:01Z</time></trkpt><trkpt lat="42.09672459077444" lon="13.722955108267838"><ele>782.3333333333333</ele><time>2026-04-18T11:21:02Z</time></trkpt><trkpt lat="42.096902214033946" lon="13.722812367734658"><ele>783.0</ele><time>2026-04-18T11:21:03Z</time></trkpt><trkpt lat="42.09708652484804" lon="13.722661999843927"><ele>779.0</ele><time>2026-04-18T11:21:04Z</time></trkpt><trkpt lat="42.097277689730845" lon="13.722529277571166"><ele>775.0</ele><time>2026-04-18T11:21:05Z</time></trkpt><trkpt lat="42.09744927934323" lon="13.722391167096795"><ele>771.0</ele><time>2026-04-18T11:21:06Z</time></trkpt><trkpt lat="42.09758630785442" lon="13.72227942932863"><ele>771.0</ele><time>2026-04-18T11:21:07Z</time></trkpt><trkpt lat="42.09768925635487" lon="13.722197051958625"><ele>771.0</ele><time>2026-04-18T11:21:08Z</time></trkpt><trkpt lat="42.09778563859728" lon="13.722134110262266"><ele>771.0</ele><time>2026-04-18T11:21:09Z</time></trkpt><trkpt lat="42.09789096879951" lon="13.72210174045676"><ele>771.0</ele><time>2026-04-18T11:21:10Z</time></trkpt><trkpt lat="42.09800817803375" lon="13.722144121194399"><ele>771.0</ele><time>2026-04-18T11:21:11Z</time></trkpt><trkpt lat="42.09815244272318" lon="13.722213617208894"><ele>771.0</ele><time>2026-04-18T11:21:12Z</time></trkpt><trkpt lat="42.09829001529976" lon="13.72236292932574"><ele>771.0</ele><time>2026-04-18T11:21:13Z</time></trkpt><trkpt lat="42.09844349933069" lon="13.722522210535493"><ele>771.25</ele><time>2026-04-18T11:21:14Z</time></trkpt><trkpt lat="42.098580353306694" lon="13.722659891905023"><ele>771.5</ele><time>2026-04-18T11:21:15Z</time></trkpt><trkpt lat="42.098687853556434" lon="13.722772851181313"><ele>771.75</ele><time>2026-04-18T11:21:16Z</time></trkpt><trkpt lat="42.0987695791242" lon="13.722883512793887"><ele>772.0</ele><time>2026-04-18T11:21:17Z</time></trkpt><trkpt lat="42.09882545390519" lon="13.723033491770863"><ele>772.0</ele><time>2026-04-18T11:21:18Z</time></trkpt><trkpt lat="42.098870065934655" lon="13.72321535677707"><ele>772.0</ele><time>2026-04-18T11:21:19Z</time></trkpt><trkpt lat="42.09891626218094" lon="13.723420230850945"><ele>772.0</ele><time>2026-04-18T11:21:20Z</time></trkpt><trkpt lat="42.09892844352767" lon="13.723569176499081"><ele>772.0</ele><time>2026-04-18T11:21:21Z</time></trkpt><trkpt lat="42.09889295136013" lon="13.723749583440854"><ele>770.3333333333333</ele><time>2026-04-18T11:21:21.999Z</time></trkpt><trkpt lat="42.0988293313612" lon="13.723955194427486"><ele>768.6666666666666</ele><time>2026-04-18T11:21:22.999Z</time></trkpt><trkpt lat="42.09874301012721" lon="13.724197252192571"><ele>767.0</ele><time>2026-04-18T11:21:23.999Z</time></trkpt><trkpt lat="42.09866819542155" lon="13.724336349968162"><ele>762.0</ele><time>2026-04-18T11:21:24.999Z</time></trkpt><trkpt lat="42.09858226843813" lon="13.724408396229203"><ele>757.0</ele><time>2026-04-18T11:21:25.999Z</time></trkpt><trkpt lat="42.09842991837251" lon="13.724539409282078"><ele>752.0</ele><time>2026-04-18T11:21:26.999Z</time></trkpt><trkpt lat="42.09828735754427" lon="13.724695545922376"><ele>758.6666666666666</ele><time>2026-04-18T11:21:27.999Z</time></trkpt><trkpt lat="42.09818526260118" lon="13.724959776123873"><ele>765.3333333333333</ele><time>2026-04-18T11:21:28.999Z</time></trkpt><trkpt lat="42.098108488129014" lon="13.725200317632334"><ele>772.0</ele><time>2026-04-18T11:21:29.999Z</time></trkpt><trkpt lat="42.09806013605855" lon="13.72541366321508"><ele>772.0</ele><time>2026-04-18T11:21:30.999Z</time></trkpt><trkpt lat="42.09805066797798" lon="13.725623195795402"><ele>772.0</ele><time>2026-04-18T11:21:31.999Z</time></trkpt><trkpt lat="42.09807199609816" lon="13.725796424276226"><ele>772.0</ele><time>2026-04-18T11:21:32.999Z</time></trkpt><trkpt lat="42.09810285360814" lon="13.72597862516658"><ele>772.0</ele><time>2026-04-18T11:21:33.999Z</time></trkpt><trkpt lat="42.098085573220686" lon="13.726127275433463"><ele>770.25</ele><time>2026-04-18T11:21:34.999Z</time></trkpt><trkpt lat="42.09803792408492" lon="13.726231775519704"><ele>768.5</ele><time>2026-04-18T11:21:35.999Z</time></trkpt><trkpt lat="42.09793303915837" lon="13.726410777410834"><ele>766.75</ele><time>2026-04-18T11:21:36.999Z</time></trkpt><trkpt lat="42.09784319998631" lon="13.726625543185037"><ele>765.0</ele><time>2026-04-18T11:21:37.999Z</time></trkpt><trkpt lat="42.09777197718297" lon="13.726901094048298"><ele>761.3333333333334</ele><time>2026-04-18T11:21:38.999Z</time></trkpt><trkpt lat="42.09769908388114" lon="13.727183983631356"><ele>757.6666666666667</ele><time>2026-04-18T11:21:39.999Z</time></trkpt><trkpt lat="42.09765354546898" lon="13.727397788611134"><ele>754.0</ele><time>2026-04-18T11:21:40.999Z</time></trkpt><trkpt lat="42.09756251795434" lon="13.727620844993499"><ele>760.0</ele><time>2026-04-18T11:21:41.999Z</time></trkpt><trkpt lat="42.09745912868181" lon="13.727812765630771"><ele>766.0</ele><time>2026-04-18T11:21:42.999Z</time></trkpt><trkpt lat="42.09734791033952" lon="13.728015114755152"><ele>772.0</ele><time>2026-04-18T11:21:43.999Z</time></trkpt><trkpt lat="42.09722047937508" lon="13.72824127572014"><ele>772.0</ele><time>2026-04-18T11:21:44.999Z</time></trkpt><trkpt lat="42.097095715976145" lon="13.728474267617848"><ele>772.0</ele><time>2026-04-18T11:21:45.999Z</time></trkpt><trkpt lat="42.096993981530886" lon="13.728711071290762"><ele>772.0</ele><time>2026-04-18T11:21:46.999Z</time></trkpt><trkpt lat="42.096914943873095" lon="13.72892755299934"><ele>763.6666666666666</ele><time>2026-04-18T11:21:47.999Z</time></trkpt><trkpt lat="42.096840821746255" lon="13.729131516362822"><ele>755.3333333333333</ele><time>2026-04-18T11:21:48.999Z</time></trkpt><trkpt lat="42.09677195661987" lon="13.729312281367807"><ele>747.0</ele><time>2026-04-18T11:21:49.999Z</time></trkpt><trkpt lat="42.09667666923293" lon="13.729491019293699"><ele>752.3333333333334</ele><time>2026-04-18T11:21:50.999Z</time></trkpt><trkpt lat="42.096534260010685" lon="13.729681683581093"><ele>757.6666666666667</ele><time>2026-04-18T11:21:52Z</time></trkpt><trkpt lat="42.09638306448208" lon="13.729872866196095"><ele>763.0</ele><time>2026-04-18T11:21:53Z</time></trkpt><trkpt lat="42.096248622002484" lon="13.730118332252827"><ele>756.0</ele><time>2026-04-18T11:21:54Z</time></trkpt><trkpt lat="42.09610643583577" lon="13.730320376225597"><ele>749.0</ele><time>2026-04-18T11:21:55Z</time></trkpt><trkpt lat="42.09598051025375" lon="13.73056500853175"><ele>742.0</ele><time>2026-04-18T11:21:56Z</time></trkpt><trkpt lat="42.09585687480414" lon="13.730833024948648"><ele>753.0</ele><time>2026-04-18T11:21:57Z</time></trkpt><trkpt lat="42.095737494764734" lon="13.73114205202905"><ele>764.0</ele><time>2026-04-18T11:21:58Z</time></trkpt><trkpt lat="42.0956329629128" lon="13.731476976500929"><ele>764.0</ele><time>2026-04-18T11:21:59Z</time></trkpt><trkpt lat="42.0955503623792" lon="13.731788798884093"><ele>764.0</ele><time>2026-04-18T11:22:00Z</time></trkpt><trkpt lat="42.09545090183897" lon="13.732052569598457"><ele>755.0</ele><time>2026-04-18T11:22:01Z</time></trkpt><trkpt lat="42.095348174892756" lon="13.732290644847264"><ele>746.0</ele><time>2026-04-18T11:22:02Z</time></trkpt><trkpt lat="42.0952514473059" lon="13.732481208427101"><ele>737.0</ele><time>2026-04-18T11:22:03Z</time></trkpt><trkpt lat="42.095162885000285" lon="13.732660996796952"><ele>742.0</ele><time>2026-04-18T11:22:04Z</time></trkpt><trkpt lat="42.09506115237487" lon="13.732838503398803"><ele>747.0</ele><time>2026-04-18T11:22:05Z</time></trkpt><trkpt lat="42.094943741368596" lon="13.732982608461002"><ele>752.0</ele><time>2026-04-18T11:22:06Z</time></trkpt><trkpt lat="42.09482733616852" lon="13.733077223620697"><ele>752.0</ele><time>2026-04-18T11:22:07Z</time></trkpt><trkpt lat="42.094729450531496" lon="13.733161253654629"><ele>752.0</ele><time>2026-04-18T11:22:08Z</time></trkpt><trkpt lat="42.09465304434392" lon="13.733254137238657"><ele>752.0</ele><time>2026-04-18T11:22:09Z</time></trkpt><trkpt lat="42.09463486519882" lon="13.733384078408475"><ele>752.0</ele><time>2026-04-18T11:22:10Z</time></trkpt><trkpt lat="42.094674154284824" lon="13.73355180436527"><ele>752.0</ele><time>2026-04-18T11:22:11Z</time></trkpt><trkpt lat="42.0947338561684" lon="13.73373250935898"><ele>751.0</ele><time>2026-04-18T11:22:12Z</time></trkpt><trkpt lat="42.09480096885984" lon="13.73386169786596"><ele>750.0</ele><time>2026-04-18T11:22:13Z</time></trkpt><trkpt lat="42.09481844835344" lon="13.734003108543629"><ele>749.0</ele><time>2026-04-18T11:22:14Z</time></trkpt><trkpt lat="42.09480189343798" lon="13.734179371070013"><ele>748.0</ele><time>2026-04-18T11:22:15Z</time></trkpt><trkpt lat="42.09471919092876" lon="13.734350175772523"><ele>741.0</ele><time>2026-04-18T11:22:16Z</time></trkpt><trkpt lat="42.094616652073896" lon="13.7346363331504"><ele>734.0</ele><time>2026-04-18T11:22:17Z</time></trkpt><trkpt lat="42.094515371334005" lon="13.73491708433623"><ele>734.0</ele><time>2026-04-18T11:22:18Z</time></trkpt><trkpt lat="42.094410650046264" lon="13.73521260741605"><ele>734.0</ele><time>2026-04-18T11:22:19Z</time></trkpt><trkpt lat="42.094304092946594" lon="13.735541184572838"><ele>724.5</ele><time>2026-04-18T11:22:20Z</time></trkpt><trkpt lat="42.09419866475658" lon="13.735827062324375"><ele>715.0</ele><time>2026-04-18T11:22:21Z</time></trkpt><trkpt lat="42.094089126855714" lon="13.736118480155376"><ele>726.5</ele><time>2026-04-18T11:22:22Z</time></trkpt><trkpt lat="42.09399347239087" lon="13.736426724929885"><ele>738.0</ele><time>2026-04-18T11:22:23Z</time></trkpt><trkpt lat="42.09391163809378" lon="13.73675046056381"><ele>727.0</ele><time>2026-04-18T11:22:24Z</time></trkpt><trkpt lat="42.093823467589935" lon="13.73704748759425"><ele>716.0</ele><time>2026-04-18T11:22:25Z</time></trkpt><trkpt lat="42.093741418108856" lon="13.737328051977682"><ele>716.0</ele><time>2026-04-18T11:22:26Z</time></trkpt><trkpt lat="42.093656831497526" lon="13.737614061855103"><ele>716.0</ele><time>2026-04-18T11:22:27Z</time></trkpt><trkpt lat="42.09355617796489" lon="13.737892009387842"><ele>708.6666666666666</ele><time>2026-04-18T11:22:28Z</time></trkpt><trkpt lat="42.09346314043485" lon="13.738135346626127"><ele>701.3333333333334</ele><time>2026-04-18T11:22:29Z</time></trkpt><trkpt lat="42.093380754145024" lon="13.738318648108677"><ele>694.0</ele><time>2026-04-18T11:22:30Z</time></trkpt><trkpt lat="42.093271937574684" lon="13.738445844405224"><ele>693.0</ele><time>2026-04-18T11:22:31Z</time></trkpt><trkpt lat="42.09313275640117" lon="13.738542054210775"><ele>692.0</ele><time>2026-04-18T11:22:32Z</time></trkpt><trkpt lat="42.092957034676715" lon="13.738672867903304"><ele>691.0</ele><time>2026-04-18T11:22:33Z</time></trkpt><trkpt lat="42.09274449132748" lon="13.738779789138484"><ele>691.0</ele><time>2026-04-18T11:22:34Z</time></trkpt><trkpt lat="42.09256225172154" lon="13.738920303015426"><ele>691.0</ele><time>2026-04-18T11:22:35Z</time></trkpt><trkpt lat="42.09238408260442" lon="13.739103963305054"><ele>691.0</ele><time>2026-04-18T11:22:36Z</time></trkpt><trkpt lat="42.09221822959724" lon="13.739288615431537"><ele>687.3333333333334</ele><time>2026-04-18T11:22:37Z</time></trkpt><trkpt lat="42.09206619369524" lon="13.739455478820757"><ele>683.6666666666666</ele><time>2026-04-18T11:22:38Z</time></trkpt><trkpt lat="42.091913490169176" lon="13.739600365039324"><ele>680.0</ele><time>2026-04-18T11:22:39Z</time></trkpt><trkpt lat="42.09175608090579" lon="13.739746497849344"><ele>682.6666666666666</ele><time>2026-04-18T11:22:40Z</time></trkpt><trkpt lat="42.0915704974924" lon="13.73988097102447"><ele>685.3333333333334</ele><time>2026-04-18T11:22:41Z</time></trkpt><trkpt lat="42.09135293422901" lon="13.740006222395195"><ele>688.0</ele><time>2026-04-18T11:22:42Z</time></trkpt><trkpt lat="42.091134041542134" lon="13.74012122284463"><ele>685.6666666666667</ele><time>2026-04-18T11:22:43Z</time></trkpt><trkpt lat="42.090927542898946" lon="13.740236217116452"><ele>683.3333333333334</ele><time>2026-04-18T11:22:44Z</time></trkpt><trkpt lat="42.09077914181385" lon="13.740329662125436"><ele>681.0</ele><time>2026-04-18T11:22:45Z</time></trkpt><trkpt lat="42.090644786615556" lon="13.740413718503037"><ele>681.0</ele><time>2026-04-18T11:22:46Z</time></trkpt><trkpt lat="42.090536936025494" lon="13.740477463369336"><ele>681.0</ele><time>2026-04-18T11:22:47Z</time></trkpt><trkpt lat="42.09046812545354" lon="13.740540166487406"><ele>681.0</ele><time>2026-04-18T11:22:48Z</time></trkpt><trkpt lat="42.09042599480713" lon="13.740628505288624"><ele>681.0</ele><time>2026-04-18T11:22:49Z</time></trkpt><trkpt lat="42.0904442110581" lon="13.74073789361238"><ele>681.0</ele><time>2026-04-18T11:22:50Z</time></trkpt><trkpt lat="42.09052540898937" lon="13.7408457753259"><ele>681.0</ele><time>2026-04-18T11:22:51Z</time></trkpt><trkpt lat="42.090634085813136" lon="13.740897989579567"><ele>681.0</ele><time>2026-04-18T11:22:52Z</time></trkpt><trkpt lat="42.090783443619046" lon="13.740886288600164"><ele>681.0</ele><time>2026-04-18T11:22:53Z</time></trkpt><trkpt lat="42.09098618120594" lon="13.740893223177242"><ele>678.0</ele><time>2026-04-18T11:22:54Z</time></trkpt><trkpt lat="42.091214160205034" lon="13.740885460961904"><ele>675.0</ele><time>2026-04-18T11:22:55Z</time></trkpt><trkpt lat="42.09147625786016" lon="13.74088109460177"><ele>672.0</ele><time>2026-04-18T11:22:56Z</time></trkpt><trkpt lat="42.09172293692976" lon="13.740880189527944"><ele>669.0</ele><time>2026-04-18T11:22:57Z</time></trkpt><trkpt lat="42.0919313855256" lon="13.740879560008372"><ele>669.0</ele><time>2026-04-18T11:22:58Z</time></trkpt><trkpt lat="42.09212484229534" lon="13.740879560015083"><ele>669.0</ele><time>2026-04-18T11:22:59Z</time></trkpt><trkpt lat="42.09230394570092" lon="13.74087914249177"><ele>669.0</ele><time>2026-04-18T11:23:00Z</time></trkpt><trkpt lat="42.09247016569664" lon="13.74085942034995"><ele>667.0</ele><time>2026-04-18T11:23:01Z</time></trkpt><trkpt lat="42.09263566765371" lon="13.740772016727165"><ele>665.0</ele><time>2026-04-18T11:23:02Z</time></trkpt><trkpt lat="42.09279925163891" lon="13.740624156208876"><ele>663.0</ele><time>2026-04-18T11:23:03Z</time></trkpt><trkpt lat="42.092954590434616" lon="13.740504954561994"><ele>663.0</ele><time>2026-04-18T11:23:04Z</time></trkpt><trkpt lat="42.09309441582442" lon="13.740414860381087"><ele>663.0</ele><time>2026-04-18T11:23:05Z</time></trkpt><trkpt lat="42.09326242929184" lon="13.74037113579581"><ele>663.0</ele><time>2026-04-18T11:23:06Z</time></trkpt><trkpt lat="42.09341712434437" lon="13.740356263753796"><ele>664.0</ele><time>2026-04-18T11:23:07Z</time></trkpt><trkpt lat="42.09357110706671" lon="13.740327512985614"><ele>665.0</ele><time>2026-04-18T11:23:08Z</time></trkpt><trkpt lat="42.093733394650236" lon="13.740273525091673"><ele>666.0</ele><time>2026-04-18T11:23:09Z</time></trkpt><trkpt lat="42.09388301012885" lon="13.740144774223843"><ele>666.0</ele><time>2026-04-18T11:23:10Z</time></trkpt><trkpt lat="42.094034671732345" lon="13.739953641412354"><ele>666.0</ele><time>2026-04-18T11:23:11Z</time></trkpt><trkpt lat="42.09417977867474" lon="13.739740817594276"><ele>666.0</ele><time>2026-04-18T11:23:12Z</time></trkpt><trkpt lat="42.094311884988265" lon="13.739532183713571"><ele>664.5</ele><time>2026-04-18T11:23:13Z</time></trkpt><trkpt lat="42.09442997572213" lon="13.739293800899242"><ele>663.0</ele><time>2026-04-18T11:23:14Z</time></trkpt><trkpt lat="42.09451872238602" lon="13.73899080485858"><ele>663.0</ele><time>2026-04-18T11:23:15Z</time></trkpt><trkpt lat="42.09460893895706" lon="13.738675829389337"><ele>663.0</ele><time>2026-04-18T11:23:16Z</time></trkpt><trkpt lat="42.094700032467756" lon="13.738395287415083"><ele>665.6666666666666</ele><time>2026-04-18T11:23:17Z</time></trkpt><trkpt lat="42.09479195133649" lon="13.738169679777208"><ele>668.3333333333333</ele><time>2026-04-18T11:23:18Z</time></trkpt><trkpt lat="42.094883838716434" lon="13.737957234965505"><ele>671.0</ele><time>2026-04-18T11:23:19Z</time></trkpt><trkpt lat="42.09498101689827" lon="13.737753183297436"><ele>665.6666666666666</ele><time>2026-04-18T11:23:20Z</time></trkpt><trkpt lat="42.09509326603052" lon="13.737532623591552"><ele>660.3333333333334</ele><time>2026-04-18T11:23:21Z</time></trkpt><trkpt lat="42.09522116445544" lon="13.73730234234763"><ele>655.0</ele><time>2026-04-18T11:23:22Z</time></trkpt><trkpt lat="42.09536395365093" lon="13.737079030156272"><ele>661.0</ele><time>2026-04-18T11:23:23Z</time></trkpt><trkpt lat="42.09552483719605" lon="13.736859639191634"><ele>667.0</ele><time>2026-04-18T11:23:24Z</time></trkpt><trkpt lat="42.095700987150266" lon="13.736639241049188"><ele>653.5</ele><time>2026-04-18T11:23:25Z</time></trkpt><trkpt lat="42.09588912807318" lon="13.736409903568177"><ele>640.0</ele><time>2026-04-18T11:23:26Z</time></trkpt><trkpt lat="42.09605595845228" lon="13.73611725418991"><ele>645.5</ele><time>2026-04-18T11:23:26.999Z</time></trkpt><trkpt lat="42.096229553679414" lon="13.735860665604225"><ele>651.0</ele><time>2026-04-18T11:23:27.999Z</time></trkpt><trkpt lat="42.096372345934334" lon="13.735622448258201"><ele>651.0</ele><time>2026-04-18T11:23:28.999Z</time></trkpt><trkpt lat="42.096499971306606" lon="13.735438814222936"><ele>651.0</ele><time>2026-04-18T11:23:29.999Z</time></trkpt><trkpt lat="42.09663016726612" lon="13.735303901972943"><ele>651.0</ele><time>2026-04-18T11:23:30.999Z</time></trkpt><trkpt lat="42.0967895999709" lon="13.73517966055675"><ele>646.6666666666666</ele><time>2026-04-18T11:23:31.999Z</time></trkpt><trkpt lat="42.09696475440384" lon="13.735052678533721"><ele>642.3333333333333</ele><time>2026-04-18T11:23:32.999Z</time></trkpt><trkpt lat="42.097113382352475" lon="13.734927212086422"><ele>638.0</ele><time>2026-04-18T11:23:33.999Z</time></trkpt><trkpt lat="42.09724687286681" lon="13.734774131161222"><ele>638.0</ele><time>2026-04-18T11:23:34.999Z</time></trkpt><trkpt lat="42.097378127173165" lon="13.73456393408899"><ele>638.0</ele><time>2026-04-18T11:23:35.999Z</time></trkpt><trkpt lat="42.097492795355805" lon="13.734286884264433"><ele>638.0</ele><time>2026-04-18T11:23:36.999Z</time></trkpt><trkpt lat="42.09759768411335" lon="13.734026511258188"><ele>638.75</ele><time>2026-04-18T11:23:37.999Z</time></trkpt><trkpt lat="42.09768786879966" lon="13.733805420792622"><ele>639.5</ele><time>2026-04-18T11:23:38.999Z</time></trkpt><trkpt lat="42.09775918616439" lon="13.733658495639455"><ele>640.25</ele><time>2026-04-18T11:23:39.999Z</time></trkpt><trkpt lat="42.09784955953062" lon="13.733556392840793"><ele>641.0</ele><time>2026-04-18T11:23:40.999Z</time></trkpt><trkpt lat="42.0979833875626" lon="13.73347076666098"><ele>641.0</ele><time>2026-04-18T11:23:41.999Z</time></trkpt><trkpt lat="42.09813361712763" lon="13.733397243167893"><ele>641.0</ele><time>2026-04-18T11:23:42.999Z</time></trkpt><trkpt lat="42.098392069083545" lon="13.733270021023218"><ele>641.0</ele><time>2026-04-18T11:23:43.999Z</time></trkpt><trkpt lat="42.09854827445805" lon="13.733198905197193"><ele>637.5</ele><time>2026-04-18T11:23:44.999Z</time></trkpt><trkpt lat="42.09867748467007" lon="13.733182811271694"><ele>634.0</ele><time>2026-04-18T11:23:45.999Z</time></trkpt><trkpt lat="42.098820321698724" lon="13.733210855738642"><ele>630.5</ele><time>2026-04-18T11:23:46.999Z</time></trkpt><trkpt lat="42.098980608112534" lon="13.733243062874967"><ele>627.0</ele><time>2026-04-18T11:23:47.999Z</time></trkpt><trkpt lat="42.09914475418457" lon="13.733239206984795"><ele>624.0</ele><time>2026-04-18T11:23:48.999Z</time></trkpt><trkpt lat="42.09927206180566" lon="13.733212789626869"><ele>621.0</ele><time>2026-04-18T11:23:49.999Z</time></trkpt><trkpt lat="42.099397868958995" lon="13.733097818626728"><ele>618.0</ele><time>2026-04-18T11:23:50.999Z</time></trkpt><trkpt lat="42.099525047331994" lon="13.732902698178039"><ele>621.6666666666666</ele><time>2026-04-18T11:23:51.999Z</time></trkpt><trkpt lat="42.09967064665989" lon="13.732643010302661"><ele>625.3333333333333</ele><time>2026-04-18T11:23:52.999Z</time></trkpt><trkpt lat="42.09974497017055" lon="13.732394922522706"><ele>629.0</ele><time>2026-04-18T11:23:53.999Z</time></trkpt><trkpt lat="42.099782457913186" lon="13.732174389638342"><ele>629.0</ele><time>2026-04-18T11:23:54.999Z</time></trkpt><trkpt lat="42.09983142987924" lon="13.731984365826413"><ele>629.0</ele><time>2026-04-18T11:23:55.999Z</time></trkpt><trkpt lat="42.09986075065959" lon="13.731832456529697"><ele>629.0</ele><time>2026-04-18T11:23:56.999Z</time></trkpt><trkpt lat="42.099904660495014" lon="13.73174383630521"><ele>629.0</ele><time>2026-04-18T11:23:58Z</time></trkpt><trkpt lat="42.10001964215187" lon="13.731678430318361"><ele>625.6666666666666</ele><time>2026-04-18T11:23:59Z</time></trkpt><trkpt lat="42.10017224834249" lon="13.731672633844655"><ele>622.3333333333334</ele><time>2026-04-18T11:24:00Z</time></trkpt><trkpt lat="42.10036359373513" lon="13.731647161708715"><ele>619.0</ele><time>2026-04-18T11:24:01Z</time></trkpt><trkpt lat="42.10051161924164" lon="13.731613723320597"><ele>619.0</ele><time>2026-04-18T11:24:02Z</time></trkpt><trkpt lat="42.10071852456338" lon="13.731562542762685"><ele>619.0</ele><time>2026-04-18T11:24:03Z</time></trkpt><trkpt lat="42.10095945524752" lon="13.731450015930081"><ele>615.6666666666667</ele><time>2026-04-18T11:24:04Z</time></trkpt><trkpt lat="42.1011651457333" lon="13.731326988809442"><ele>612.3333333333334</ele><time>2026-04-18T11:24:05Z</time></trkpt><trkpt lat="42.10133196110424" lon="13.731225290084476"><ele>609.0</ele><time>2026-04-18T11:24:06Z</time></trkpt><trkpt lat="42.101491399550156" lon="13.731116001189672"><ele>609.0</ele><time>2026-04-18T11:24:07Z</time></trkpt><trkpt lat="42.10161338514938" lon="13.730998686841335"><ele>609.0</ele><time>2026-04-18T11:24:08Z</time></trkpt><trkpt lat="42.10173563165962" lon="13.730828969774718"><ele>609.0</ele><time>2026-04-18T11:24:09Z</time></trkpt><trkpt lat="42.101837200255055" lon="13.730652985918537"><ele>609.0</ele><time>2026-04-18T11:24:10Z</time></trkpt><trkpt lat="42.10191681526603" lon="13.730508197494142"><ele>609.0</ele><time>2026-04-18T11:24:11Z</time></trkpt><trkpt lat="42.10200942582842" lon="13.730409037912567"><ele>609.0</ele><time>2026-04-18T11:24:12Z</time></trkpt><trkpt lat="42.102123892015506" lon="13.730343498745059"><ele>609.0</ele><time>2026-04-18T11:24:13Z</time></trkpt><trkpt lat="42.10228229529061" lon="13.730245917776942"><ele>608.3333333333334</ele><time>2026-04-18T11:24:14Z</time></trkpt><trkpt lat="42.10244889812576" lon="13.730143285625934"><ele>607.6666666666667</ele><time>2026-04-18T11:24:15Z</time></trkpt><trkpt lat="42.10260832216118" lon="13.730032001871411"><ele>607.0</ele><time>2026-04-18T11:24:16Z</time></trkpt><trkpt lat="42.10272353263393" lon="13.729889087339098"><ele>607.0</ele><time>2026-04-18T11:24:17Z</time></trkpt><trkpt lat="42.102823183905734" lon="13.729713894436479"><ele>607.0</ele><time>2026-04-18T11:24:18Z</time></trkpt><trkpt lat="42.10295605053203" lon="13.729608934003352"><ele>607.0</ele><time>2026-04-18T11:24:19Z</time></trkpt><trkpt lat="42.10315096233593" lon="13.729543348656895"><ele>609.0</ele><time>2026-04-18T11:24:20Z</time></trkpt><trkpt lat="42.10334246124279" lon="13.729395542549868"><ele>611.0</ele><time>2026-04-18T11:24:21Z</time></trkpt><trkpt lat="42.103522449700286" lon="13.729243535954954"><ele>613.0</ele><time>2026-04-18T11:24:22Z</time></trkpt><trkpt lat="42.10375254602253" lon="13.729051699839422"><ele>613.0</ele><time>2026-04-18T11:24:23Z</time></trkpt><trkpt lat="42.103924523106144" lon="13.728905615372963"><ele>613.0</ele><time>2026-04-18T11:24:24Z</time></trkpt><trkpt lat="42.10408440252422" lon="13.728775345936864"><ele>613.0</ele><time>2026-04-18T11:24:25Z</time></trkpt><trkpt lat="42.104229048140986" lon="13.728680111936272"><ele>605.3333333333334</ele><time>2026-04-18T11:24:26Z</time></trkpt><trkpt lat="42.10437646886883" lon="13.728611702642377"><ele>597.6666666666666</ele><time>2026-04-18T11:24:27Z</time></trkpt><trkpt lat="42.104529241081806" lon="13.728579773166354"><ele>590.0</ele><time>2026-04-18T11:24:28Z</time></trkpt><trkpt lat="42.10468694158278" lon="13.728610623960401"><ele>590.0</ele><time>2026-04-18T11:24:29Z</time></trkpt><trkpt lat="42.10487354760214" lon="13.728683651819734"><ele>590.0</ele><time>2026-04-18T11:24:30Z</time></trkpt><trkpt lat="42.10502592417494" lon="13.728745770858941"><ele>590.0</ele><time>2026-04-18T11:24:31Z</time></trkpt><trkpt lat="42.10514496956524" lon="13.728823530734141"><ele>588.3333333333333</ele><time>2026-04-18T11:24:32Z</time></trkpt><trkpt lat="42.10526798238889" lon="13.728973474415335"><ele>586.6666666666666</ele><time>2026-04-18T11:24:33Z</time></trkpt><trkpt lat="42.1054281149393" lon="13.729189942287913"><ele>585.0</ele><time>2026-04-18T11:24:34Z</time></trkpt><trkpt lat="42.10558914785585" lon="13.729413577380097"><ele>583.0</ele><time>2026-04-18T11:24:35Z</time></trkpt><trkpt lat="42.105761838652704" lon="13.729653402280228"><ele>581.0</ele><time>2026-04-18T11:24:36Z</time></trkpt><trkpt lat="42.10595442529641" lon="13.729918739910897"><ele>581.0</ele><time>2026-04-18T11:24:37Z</time></trkpt><trkpt lat="42.10615111208606" lon="13.730188732930129"><ele>581.0</ele><time>2026-04-18T11:24:38Z</time></trkpt><trkpt lat="42.106319882362406" lon="13.730420404825537"><ele>580.0</ele><time>2026-04-18T11:24:39Z</time></trkpt><trkpt lat="42.1064735744628" lon="13.73063115188671"><ele>579.0</ele><time>2026-04-18T11:24:40Z</time></trkpt><trkpt lat="42.10662349963827" lon="13.730844617443456"><ele>578.0</ele><time>2026-04-18T11:24:41Z</time></trkpt><trkpt lat="42.106763774027165" lon="13.731067518096992"><ele>574.0</ele><time>2026-04-18T11:24:42Z</time></trkpt><trkpt lat="42.106906655947896" lon="13.731319373613648"><ele>570.0</ele><time>2026-04-18T11:24:43Z</time></trkpt><trkpt lat="42.10704152944824" lon="13.731559191906335"><ele>570.0</ele><time>2026-04-18T11:24:44Z</time></trkpt><trkpt lat="42.10716579099375" lon="13.73175791606547"><ele>570.0</ele><time>2026-04-18T11:24:45Z</time></trkpt><trkpt lat="42.107256871154775" lon="13.731948673946455"><ele>570.0</ele><time>2026-04-18T11:24:46Z</time></trkpt><trkpt lat="42.10732541642489" lon="13.732123895690851"><ele>568.0</ele><time>2026-04-18T11:24:47Z</time></trkpt><trkpt lat="42.10737880932917" lon="13.73234330202572"><ele>566.0</ele><time>2026-04-18T11:24:48Z</time></trkpt><trkpt lat="42.10737699915803" lon="13.732625015279218"><ele>564.0</ele><time>2026-04-18T11:24:49Z</time></trkpt><trkpt lat="42.10735172380045" lon="13.732904240165716"><ele>564.0</ele><time>2026-04-18T11:24:50Z</time></trkpt><trkpt lat="42.10734333780399" lon="13.73314928123979"><ele>564.0</ele><time>2026-04-18T11:24:51Z</time></trkpt><trkpt lat="42.107370684775844" lon="13.73339915346579"><ele>564.0</ele><time>2026-04-18T11:24:52Z</time></trkpt><trkpt lat="42.107459201656546" lon="13.733671005570306"><ele>564.0</ele><time>2026-04-18T11:24:53Z</time></trkpt><trkpt lat="42.107571549141234" lon="13.733948335640388"><ele>564.0</ele><time>2026-04-18T11:24:54Z</time></trkpt><trkpt lat="42.10767744243841" lon="13.734206582191582"><ele>562.3333333333334</ele><time>2026-04-18T11:24:55Z</time></trkpt><trkpt lat="42.10775278611646" lon="13.73442916596224"><ele>560.6666666666667</ele><time>2026-04-18T11:24:56Z</time></trkpt><trkpt lat="42.1078346044703" lon="13.734636980334265"><ele>559.0</ele><time>2026-04-18T11:24:57Z</time></trkpt><trkpt lat="42.10790414115577" lon="13.734827012020055"><ele>559.0</ele><time>2026-04-18T11:24:58Z</time></trkpt><trkpt lat="42.107985649783764" lon="13.734986900359544"><ele>559.0</ele><time>2026-04-18T11:24:59Z</time></trkpt><trkpt lat="42.108110915381815" lon="13.73512633968557"><ele>559.0</ele><time>2026-04-18T11:25:00Z</time></trkpt><trkpt lat="42.10828700891336" lon="13.73522273319826"><ele>557.0</ele><time>2026-04-18T11:25:01Z</time></trkpt><trkpt lat="42.10847047395708" lon="13.735299594054574"><ele>555.0</ele><time>2026-04-18T11:25:02Z</time></trkpt><trkpt lat="42.108615801497045" lon="13.735401412971262"><ele>553.0</ele><time>2026-04-18T11:25:03Z</time></trkpt><trkpt lat="42.10875810858799" lon="13.73549920181756"><ele>553.0</ele><time>2026-04-18T11:25:04Z</time></trkpt><trkpt lat="42.10888618814888" lon="13.735639992498648"><ele>553.0</ele><time>2026-04-18T11:25:05Z</time></trkpt><trkpt lat="42.108966996067885" lon="13.735804390783214"><ele>553.0</ele><time>2026-04-18T11:25:06Z</time></trkpt><trkpt lat="42.10903223114969" lon="13.736007327989897"><ele>553.0</ele><time>2026-04-18T11:25:07Z</time></trkpt><trkpt lat="42.1091110241914" lon="13.736251074455677"><ele>553.0</ele><time>2026-04-18T11:25:08Z</time></trkpt><trkpt lat="42.109176394265745" lon="13.736479105459054"><ele>553.0</ele><time>2026-04-18T11:25:09Z</time></trkpt><trkpt lat="42.10923997918919" lon="13.73667371916482"><ele>553.0</ele><time>2026-04-18T11:25:10Z</time></trkpt><trkpt lat="42.10932578040785" lon="13.736854772321184"><ele>553.0</ele><time>2026-04-18T11:25:11Z</time></trkpt><trkpt lat="42.109464220616765" lon="13.737024043247018"><ele>553.0</ele><time>2026-04-18T11:25:12Z</time></trkpt><trkpt lat="42.10964401942958" lon="13.737244089030948"><ele>552.5</ele><time>2026-04-18T11:25:13Z</time></trkpt><trkpt lat="42.10983993389251" lon="13.737458865242376"><ele>552.0</ele><time>2026-04-18T11:25:14Z</time></trkpt><trkpt lat="42.11002265832563" lon="13.737673154037974"><ele>549.3333333333334</ele><time>2026-04-18T11:25:15Z</time></trkpt><trkpt lat="42.11017111549748" lon="13.737873718394411"><ele>546.6666666666667</ele><time>2026-04-18T11:25:16Z</time></trkpt><trkpt lat="42.11029464579138" lon="13.73806995871744"><ele>544.0</ele><time>2026-04-18T11:25:17Z</time></trkpt><trkpt lat="42.11041321347671" lon="13.738246150287384"><ele>544.0</ele><time>2026-04-18T11:25:18Z</time></trkpt><trkpt lat="42.11051007180947" lon="13.738427958677569"><ele>544.0</ele><time>2026-04-18T11:25:19Z</time></trkpt><trkpt lat="42.11060761550182" lon="13.738587520640682"><ele>544.0</ele><time>2026-04-18T11:25:20Z</time></trkpt><trkpt lat="42.110704525975656" lon="13.7387217370635"><ele>544.0</ele><time>2026-04-18T11:25:21Z</time></trkpt><trkpt lat="42.11079413160114" lon="13.738834405908552"><ele>544.0</ele><time>2026-04-18T11:25:22Z</time></trkpt><trkpt lat="42.110882122553626" lon="13.738927203707952"><ele>544.0</ele><time>2026-04-18T11:25:23Z</time></trkpt><trkpt lat="42.11096301384614" lon="13.739004501792763"><ele>544.0</ele><time>2026-04-18T11:25:24Z</time></trkpt><trkpt lat="42.111023390863714" lon="13.739068259913193"><ele>544.0</ele><time>2026-04-18T11:25:25Z</time></trkpt><trkpt lat="42.11107800358385" lon="13.739133785803919"><ele>544.0</ele><time>2026-04-18T11:25:27Z</time></trkpt><trkpt lat="42.11100390903255" lon="13.739027374843884"><ele>544.0</ele><time>2026-04-18T11:26:33Z</time></trkpt><trkpt lat="42.11093891564281" lon="13.73897581667571"><ele>544.0</ele><time>2026-04-18T11:26:34Z</time></trkpt><trkpt lat="42.11089549228054" lon="13.738889903358077"><ele>544.0</ele><time>2026-04-18T11:26:35Z</time></trkpt><trkpt lat="42.11082847151171" lon="13.73881337205433"><ele>544.0</ele><time>2026-04-18T11:26:36Z</time></trkpt><trkpt lat="42.1107430022347" lon="13.738742201413721"><ele>544.0</ele><time>2026-04-18T11:26:37Z</time></trkpt><trkpt lat="42.11067060110565" lon="13.738638985115832"><ele>544.0</ele><time>2026-04-18T11:26:38Z</time></trkpt><trkpt lat="42.110593745099905" lon="13.738521076104414"><ele>544.0</ele><time>2026-04-18T11:26:39Z</time></trkpt><trkpt lat="42.110517870083946" lon="13.738387275441058"><ele>544.0</ele><time>2026-04-18T11:26:40Z</time></trkpt><trkpt lat="42.110436716731726" lon="13.738242736498078"><ele>544.0</ele><time>2026-04-18T11:26:41Z</time></trkpt><trkpt lat="42.11034527692411" lon="13.738076526604894"><ele>544.0</ele><time>2026-04-18T11:26:42Z</time></trkpt><trkpt lat="42.11024063765408" lon="13.737908646944877"><ele>544.0</ele><time>2026-04-18T11:26:43Z</time></trkpt><trkpt lat="42.11013132780015" lon="13.737735790658192"><ele>544.0</ele><time>2026-04-18T11:26:44Z</time></trkpt><trkpt lat="42.1100146791344" lon="13.737591395964456"><ele>545.0</ele><time>2026-04-18T11:26:45Z</time></trkpt><trkpt lat="42.10990433612946" lon="13.73746690830744"><ele>546.0</ele><time>2026-04-18T11:26:46Z</time></trkpt><trkpt lat="42.10978259112205" lon="13.73733294191948"><ele>547.0</ele><time>2026-04-18T11:26:47Z</time></trkpt><trkpt lat="42.109649300146685" lon="13.737192153122672"><ele>547.0</ele><time>2026-04-18T11:26:48Z</time></trkpt><trkpt lat="42.10951699346252" lon="13.737047237921875"><ele>547.0</ele><time>2026-04-18T11:26:49Z</time></trkpt><trkpt lat="42.10938961662231" lon="13.736889584259673"><ele>547.0</ele><time>2026-04-18T11:26:50Z</time></trkpt><trkpt lat="42.10928587611808" lon="13.736677938479344"><ele>550.0</ele><time>2026-04-18T11:26:51Z</time></trkpt><trkpt lat="42.109208999382524" lon="13.736401112666025"><ele>553.0</ele><time>2026-04-18T11:26:52Z</time></trkpt><trkpt lat="42.109110361934164" lon="13.73609290945908"><ele>553.0</ele><time>2026-04-18T11:26:53Z</time></trkpt><trkpt lat="42.10902008105395" lon="13.735827043683102"><ele>553.0</ele><time>2026-04-18T11:26:54Z</time></trkpt><trkpt lat="42.108929130122306" lon="13.735635267891386"><ele>553.0</ele><time>2026-04-18T11:26:55Z</time></trkpt><trkpt lat="42.10880997909528" lon="13.735489853108351"><ele>553.0</ele><time>2026-04-18T11:26:56Z</time></trkpt><trkpt lat="42.10864334780157" lon="13.735358814073908"><ele>553.0</ele><time>2026-04-18T11:26:57Z</time></trkpt><trkpt lat="42.10843928063751" lon="13.735247815791094"><ele>553.0</ele><time>2026-04-18T11:26:58Z</time></trkpt><trkpt lat="42.10827216739805" lon="13.735153867824598"><ele>554.5</ele><time>2026-04-18T11:26:59Z</time></trkpt><trkpt lat="42.10814019741679" lon="13.735060077220123"><ele>556.0</ele><time>2026-04-18T11:27:00Z</time></trkpt><trkpt lat="42.10803731771299" lon="13.734950171775024"><ele>557.5</ele><time>2026-04-18T11:27:01Z</time></trkpt><trkpt lat="42.107940038048994" lon="13.734787953083453"><ele>559.0</ele><time>2026-04-18T11:27:02Z</time></trkpt><trkpt lat="42.10785910679848" lon="13.73456824549942"><ele>560.6666666666667</ele><time>2026-04-18T11:27:03Z</time></trkpt><trkpt lat="42.10776446014205" lon="13.734333908999874"><ele>562.3333333333334</ele><time>2026-04-18T11:27:04Z</time></trkpt><trkpt lat="42.10766072334529" lon="13.734091601074539"><ele>564.0</ele><time>2026-04-18T11:27:05Z</time></trkpt><trkpt lat="42.10757120218503" lon="13.733850272345679"><ele>564.0</ele><time>2026-04-18T11:27:06Z</time></trkpt><trkpt lat="42.10749667218365" lon="13.733641652981435"><ele>564.0</ele><time>2026-04-18T11:27:07Z</time></trkpt><trkpt lat="42.10743582819782" lon="13.733440037067137"><ele>564.0</ele><time>2026-04-18T11:27:08Z</time></trkpt><trkpt lat="42.107393011714315" lon="13.733213910692726"><ele>562.3333333333334</ele><time>2026-04-18T11:27:09Z</time></trkpt><trkpt lat="42.10738904168911" lon="13.73296471471143"><ele>560.6666666666667</ele><time>2026-04-18T11:27:10Z</time></trkpt><trkpt lat="42.10741145202796" lon="13.732709353855341"><ele>559.0</ele><time>2026-04-18T11:27:11Z</time></trkpt><trkpt lat="42.10741240632335" lon="13.73245164062167"><ele>560.6666666666667</ele><time>2026-04-18T11:27:12Z</time></trkpt><trkpt lat="42.10738700877743" lon="13.732210706193321"><ele>562.3333333333334</ele><time>2026-04-18T11:27:13Z</time></trkpt><trkpt lat="42.10731410737446" lon="13.731969495309853"><ele>564.0</ele><time>2026-04-18T11:27:14Z</time></trkpt><trkpt lat="42.107182086164805" lon="13.731725252491026"><ele>567.0</ele><time>2026-04-18T11:27:15Z</time></trkpt><trkpt lat="42.10703366424199" lon="13.731448817945537"><ele>570.0</ele><time>2026-04-18T11:27:16Z</time></trkpt><trkpt lat="42.106869802756236" lon="13.731150796073758"><ele>570.5</ele><time>2026-04-18T11:27:17Z</time></trkpt><trkpt lat="42.10669256683637" lon="13.730868453834766"><ele>571.0</ele><time>2026-04-18T11:27:18Z</time></trkpt><trkpt lat="42.106505364471346" lon="13.730582087986209"><ele>571.0</ele><time>2026-04-18T11:27:19Z</time></trkpt><trkpt lat="42.106304727632704" lon="13.730300040979916"><ele>571.0</ele><time>2026-04-18T11:27:20Z</time></trkpt><trkpt lat="42.10610332969606" lon="13.730022717277215"><ele>576.0</ele><time>2026-04-18T11:27:21Z</time></trkpt><trkpt lat="42.10592674858279" lon="13.729768484844929"><ele>581.0</ele><time>2026-04-18T11:27:22Z</time></trkpt><trkpt lat="42.10574959970868" lon="13.729527932403224"><ele>582.3333333333333</ele><time>2026-04-18T11:27:23Z</time></trkpt><trkpt lat="42.10558810846992" lon="13.729314633677477"><ele>583.6666666666666</ele><time>2026-04-18T11:27:24Z</time></trkpt><trkpt lat="42.105439141563316" lon="13.7291126309464"><ele>585.0</ele><time>2026-04-18T11:27:25Z</time></trkpt><trkpt lat="42.105307177713755" lon="13.728931607721494"><ele>585.0</ele><time>2026-04-18T11:27:26Z</time></trkpt><trkpt lat="42.10517827537472" lon="13.728786001780655"><ele>585.0</ele><time>2026-04-18T11:27:27Z</time></trkpt><trkpt lat="42.10501389978195" lon="13.728675538761841"><ele>585.0</ele><time>2026-04-18T11:27:27.999Z</time></trkpt><trkpt lat="42.104819797499644" lon="13.728593481234714"><ele>586.6666666666666</ele><time>2026-04-18T11:27:28.999Z</time></trkpt><trkpt lat="42.10464536467804" lon="13.728535539463213"><ele>588.3333333333333</ele><time>2026-04-18T11:27:29.999Z</time></trkpt><trkpt lat="42.10448392223958" lon="13.728528796290906"><ele>590.0</ele><time>2026-04-18T11:27:30.999Z</time></trkpt><trkpt lat="42.10429909849166" lon="13.72858627778158"><ele>590.0</ele><time>2026-04-18T11:27:31.999Z</time></trkpt><trkpt lat="42.10410056294061" lon="13.728704561398125"><ele>590.0</ele><time>2026-04-18T11:27:32.999Z</time></trkpt><trkpt lat="42.10388535267644" lon="13.728883515579875"><ele>601.5</ele><time>2026-04-18T11:27:33.999Z</time></trkpt><trkpt lat="42.103665459332596" lon="13.729070475136343"><ele>613.0</ele><time>2026-04-18T11:27:34.999Z</time></trkpt><trkpt lat="42.103485576783555" lon="13.72923855447739"><ele>613.0</ele><time>2026-04-18T11:27:35.999Z</time></trkpt><trkpt lat="42.10331036905851" lon="13.729380783292827"><ele>613.0</ele><time>2026-04-18T11:27:36.999Z</time></trkpt><trkpt lat="42.10314479222049" lon="13.72949680287868"><ele>613.0</ele><time>2026-04-18T11:27:37.999Z</time></trkpt><trkpt lat="42.10298546894332" lon="13.729557000197934"><ele>611.0</ele><time>2026-04-18T11:27:38.999Z</time></trkpt><trkpt lat="42.10283656781096" lon="13.729626359835526"><ele>609.0</ele><time>2026-04-18T11:27:39.999Z</time></trkpt><trkpt lat="42.102728321022134" lon="13.729763297406747"><ele>607.0</ele><time>2026-04-18T11:27:40.999Z</time></trkpt><trkpt lat="42.102630007625784" lon="13.729929090267307"><ele>607.0</ele><time>2026-04-18T11:27:41.999Z</time></trkpt><trkpt lat="42.10249480556153" lon="13.730052232357302"><ele>607.0</ele><time>2026-04-18T11:27:42.999Z</time></trkpt><trkpt lat="42.1023107536274" lon="13.730145225813523"><ele>607.0</ele><time>2026-04-18T11:27:43.999Z</time></trkpt><trkpt lat="42.102150947381666" lon="13.730223322453167"><ele>607.6666666666667</ele><time>2026-04-18T11:27:44.999Z</time></trkpt><trkpt lat="42.10201760296339" lon="13.730306381507377"><ele>608.3333333333334</ele><time>2026-04-18T11:27:45.999Z</time></trkpt><trkpt lat="42.101895426268655" lon="13.73044217222928"><ele>609.0</ele><time>2026-04-18T11:27:46.999Z</time></trkpt><trkpt lat="42.101791785531724" lon="13.730632059815031"><ele>609.0</ele><time>2026-04-18T11:27:47.999Z</time></trkpt><trkpt lat="42.101683754872816" lon="13.730836503017926"><ele>609.0</ele><time>2026-04-18T11:27:48.999Z</time></trkpt><trkpt lat="42.101541580891954" lon="13.730999379358275"><ele>609.0</ele><time>2026-04-18T11:27:49.999Z</time></trkpt><trkpt lat="42.10135103289638" lon="13.731139953793608"><ele>609.0</ele><time>2026-04-18T11:27:50.999Z</time></trkpt><trkpt lat="42.10113620202508" lon="13.731280275923009"><ele>609.0</ele><time>2026-04-18T11:27:51.999Z</time></trkpt><trkpt lat="42.1009474242687" lon="13.73138424232049"><ele>609.0</ele><time>2026-04-18T11:27:52.999Z</time></trkpt><trkpt lat="42.1007709701077" lon="13.731470651280645"><ele>612.3333333333334</ele><time>2026-04-18T11:27:53.999Z</time></trkpt><trkpt lat="42.100576165502986" lon="13.73151159558341"><ele>615.6666666666667</ele><time>2026-04-18T11:27:54.999Z</time></trkpt><trkpt lat="42.10040259324213" lon="13.731534582996387"><ele>619.0</ele><time>2026-04-18T11:27:55.999Z</time></trkpt><trkpt lat="42.10023564193763" lon="13.731562712261345"><ele>619.0</ele><time>2026-04-18T11:27:56.999Z</time></trkpt><trkpt lat="42.100084119600936" lon="13.731597301111956"><ele>619.0</ele><time>2026-04-18T11:27:57.999Z</time></trkpt><trkpt lat="42.09995366876477" lon="13.731652918695621"><ele>619.0</ele><time>2026-04-18T11:27:58.999Z</time></trkpt><trkpt lat="42.09984847337618" lon="13.731773121726642"><ele>619.0</ele><time>2026-04-18T11:27:59.999Z</time></trkpt><trkpt lat="42.099771709252956" lon="13.73194659179884"><ele>622.3333333333334</ele><time>2026-04-18T11:28:00.999Z</time></trkpt><trkpt lat="42.09972134782949" lon="13.732166098998439"><ele>625.6666666666666</ele><time>2026-04-18T11:28:01.999Z</time></trkpt><trkpt lat="42.09966188334122" lon="13.732420423416517"><ele>629.0</ele><time>2026-04-18T11:28:02.999Z</time></trkpt><trkpt lat="42.099576775504964" lon="13.732646566843556"><ele>625.3333333333333</ele><time>2026-04-18T11:28:03.999Z</time></trkpt><trkpt lat="42.099474447873135" lon="13.732841061713742"><ele>621.6666666666666</ele><time>2026-04-18T11:28:04.999Z</time></trkpt><trkpt lat="42.0993744616927" lon="13.732989753965025"><ele>618.0</ele><time>2026-04-18T11:28:05.999Z</time></trkpt><trkpt lat="42.0992618545224" lon="13.733105691104281"><ele>618.0</ele><time>2026-04-18T11:28:06.999Z</time></trkpt><trkpt lat="42.099131677744026" lon="13.733166654705668"><ele>618.0</ele><time>2026-04-18T11:28:07.999Z</time></trkpt><trkpt lat="42.09897467869832" lon="13.733175268899117"><ele>618.0</ele><time>2026-04-18T11:28:08.999Z</time></trkpt><trkpt lat="42.09879274335059" lon="13.733127649555719"><ele>621.0</ele><time>2026-04-18T11:28:10Z</time></trkpt><trkpt lat="42.09859018223612" lon="13.733119930000472"><ele>624.0</ele><time>2026-04-18T11:28:11Z</time></trkpt><trkpt lat="42.098379259124464" lon="13.733198670826555"><ele>627.0</ele><time>2026-04-18T11:28:12Z</time></trkpt><trkpt lat="42.0981530305859" lon="13.733320063992926"><ele>628.3333333333334</ele><time>2026-04-18T11:28:13Z</time></trkpt><trkpt lat="42.09796944124538" lon="13.733433461648177"><ele>629.6666666666667</ele><time>2026-04-18T11:28:14Z</time></trkpt><trkpt lat="42.09783163021228" lon="13.733542289269817"><ele>631.0</ele><time>2026-04-18T11:28:15Z</time></trkpt><trkpt lat="42.09772782434232" lon="13.733675602998675"><ele>631.0</ele><time>2026-04-18T11:28:16Z</time></trkpt><trkpt lat="42.097626845564285" lon="13.733870185245536"><ele>631.0</ele><time>2026-04-18T11:28:17Z</time></trkpt><trkpt lat="42.09752073116201" lon="13.73409928199622"><ele>631.0</ele><time>2026-04-18T11:28:18Z</time></trkpt><trkpt lat="42.09743505734603" lon="13.734294431819404"><ele>633.3333333333334</ele><time>2026-04-18T11:28:19Z</time></trkpt><trkpt lat="42.097354250492664" lon="13.734483656344358"><ele>635.6666666666666</ele><time>2026-04-18T11:28:20Z</time></trkpt><trkpt lat="42.09725933332513" lon="13.734672726167542"><ele>638.0</ele><time>2026-04-18T11:28:21Z</time></trkpt><trkpt lat="42.097135804268014" lon="13.734832442364707"><ele>638.0</ele><time>2026-04-18T11:28:22Z</time></trkpt><trkpt lat="42.09697198689615" lon="13.734963533432632"><ele>638.0</ele><time>2026-04-18T11:28:23Z</time></trkpt><trkpt lat="42.09678098461561" lon="13.735096286643284"><ele>638.0</ele><time>2026-04-18T11:28:24Z</time></trkpt><trkpt lat="42.09659155949727" lon="13.735251455666065"><ele>644.5</ele><time>2026-04-18T11:28:25Z</time></trkpt><trkpt lat="42.09642870018308" lon="13.735459124967566"><ele>651.0</ele><time>2026-04-18T11:28:26Z</time></trkpt><trkpt lat="42.09626761670811" lon="13.735713178586817"><ele>651.0</ele><time>2026-04-18T11:28:27Z</time></trkpt><trkpt lat="42.096118138890986" lon="13.735979136359882"><ele>651.0</ele><time>2026-04-18T11:28:28Z</time></trkpt><trkpt lat="42.095951475007226" lon="13.736237560932636"><ele>645.5</ele><time>2026-04-18T11:28:29Z</time></trkpt><trkpt lat="42.09576429038312" lon="13.736477735295779"><ele>640.0</ele><time>2026-04-18T11:28:30Z</time></trkpt><trkpt lat="42.09558850817644" lon="13.736703663165004"><ele>647.5</ele><time>2026-04-18T11:28:31Z</time></trkpt><trkpt lat="42.095428789717424" lon="13.736939563469512"><ele>655.0</ele><time>2026-04-18T11:28:32Z</time></trkpt><trkpt lat="42.095266789012385" lon="13.737160924487052"><ele>655.0</ele><time>2026-04-18T11:28:33Z</time></trkpt><trkpt lat="42.09511225223762" lon="13.737390235108023"><ele>655.0</ele><time>2026-04-18T11:28:34Z</time></trkpt><trkpt lat="42.09497574448387" lon="13.737641238817588"><ele>663.0</ele><time>2026-04-18T11:28:35Z</time></trkpt><trkpt lat="42.094845474198024" lon="13.737894512625134"><ele>671.0</ele><time>2026-04-18T11:28:36Z</time></trkpt><trkpt lat="42.09472795661759" lon="13.738155787492596"><ele>671.0</ele><time>2026-04-18T11:28:37Z</time></trkpt><trkpt lat="42.09462562380827" lon="13.738393222317239"><ele>671.0</ele><time>2026-04-18T11:28:38Z</time></trkpt><trkpt lat="42.09455215746799" lon="13.738624888486664"><ele>671.0</ele><time>2026-04-18T11:28:39Z</time></trkpt><trkpt lat="42.09449476459499" lon="13.738823933565188"><ele>669.0</ele><time>2026-04-18T11:28:40Z</time></trkpt><trkpt lat="42.094447385437746" lon="13.739011569125337"><ele>667.0</ele><time>2026-04-18T11:28:41Z</time></trkpt><trkpt lat="42.0944014929667" lon="13.739177502266033"><ele>665.0</ele><time>2026-04-18T11:28:42Z</time></trkpt><trkpt lat="42.094348770176644" lon="13.739324660668707"><ele>663.0</ele><time>2026-04-18T11:28:43Z</time></trkpt><trkpt lat="42.09428508372852" lon="13.73945132016862"><ele>663.5</ele><time>2026-04-18T11:28:44Z</time></trkpt><trkpt lat="42.09422318972159" lon="13.73955092502685"><ele>664.0</ele><time>2026-04-18T11:28:45Z</time></trkpt><trkpt lat="42.09416861765501" lon="13.739630326566655"><ele>664.5</ele><time>2026-04-18T11:28:46Z</time></trkpt><trkpt lat="42.0941283493283" lon="13.739699831232517"><ele>665.0</ele><time>2026-04-18T11:28:47Z</time></trkpt><trkpt lat="42.09407921063381" lon="13.739776261352624"><ele>665.5</ele><time>2026-04-18T11:28:48Z</time></trkpt><trkpt lat="42.094028796682615" lon="13.739857297391241"><ele>666.0</ele><time>2026-04-18T11:28:49Z</time></trkpt><trkpt lat="42.09397948134038" lon="13.739939328054147"><ele>666.0</ele><time>2026-04-18T11:28:50Z</time></trkpt><trkpt lat="42.0939274147281" lon="13.740021756092023"><ele>666.0</ele><time>2026-04-18T11:28:51Z</time></trkpt><trkpt lat="42.0938744984761" lon="13.74008882278351"><ele>666.0</ele><time>2026-04-18T11:28:52Z</time></trkpt><trkpt lat="42.09381258585803" lon="13.740143224430291"><ele>666.0</ele><time>2026-04-18T11:28:53Z</time></trkpt><trkpt lat="42.09374999392423" lon="13.740194010358774"><ele>666.0</ele><time>2026-04-18T11:28:54Z</time></trkpt><trkpt lat="42.09368090280692" lon="13.740238975692112"><ele>666.0</ele><time>2026-04-18T11:28:55Z</time></trkpt><trkpt lat="42.09362032620009" lon="13.740268579694286"><ele>666.0</ele><time>2026-04-18T11:28:56Z</time></trkpt><trkpt lat="42.093557997695015" lon="13.740283535910503"><ele>665.5</ele><time>2026-04-18T11:28:57Z</time></trkpt><trkpt lat="42.09348131558546" lon="13.740284240573924"><ele>665.0</ele><time>2026-04-18T11:28:58Z</time></trkpt><trkpt lat="42.09339950026582" lon="13.740289138871887"><ele>664.5</ele><time>2026-04-18T11:28:59Z</time></trkpt><trkpt lat="42.09332607270358" lon="13.740295134037911"><ele>664.0</ele><time>2026-04-18T11:29:00Z</time></trkpt><trkpt lat="42.093252739310735" lon="13.74030691225001"><ele>663.5</ele><time>2026-04-18T11:29:01Z</time></trkpt><trkpt lat="42.09318321498275" lon="13.740325304644086"><ele>663.0</ele><time>2026-04-18T11:29:02Z</time></trkpt><trkpt lat="42.09310965887965" lon="13.74034932315062"><ele>663.0</ele><time>2026-04-18T11:29:03Z</time></trkpt><trkpt lat="42.093033257472584" lon="13.740386398827047"><ele>663.0</ele><time>2026-04-18T11:29:04Z</time></trkpt><trkpt lat="42.09295438881972" lon="13.74043289255872"><ele>663.0</ele><time>2026-04-18T11:29:05Z</time></trkpt><trkpt lat="42.092878326036" lon="13.740491405277835"><ele>663.0</ele><time>2026-04-18T11:29:06Z</time></trkpt><trkpt lat="42.092791976145534" lon="13.740556067979819"><ele>663.0</ele><time>2026-04-18T11:29:07Z</time></trkpt><trkpt lat="42.092709082186865" lon="13.74062245921107"><ele>663.0</ele><time>2026-04-18T11:29:08Z</time></trkpt><trkpt lat="42.09263127478201" lon="13.74069099011633"><ele>663.0</ele><time>2026-04-18T11:29:09Z</time></trkpt><trkpt lat="42.09254316470614" lon="13.740750540841027"><ele>663.0</ele><time>2026-04-18T11:29:10Z</time></trkpt><trkpt lat="42.09242461458948" lon="13.740795749435486"><ele>663.0</ele><time>2026-04-18T11:29:11Z</time></trkpt><trkpt lat="42.092278645781505" lon="13.740816434718278"><ele>665.0</ele><time>2026-04-18T11:29:12Z</time></trkpt><trkpt lat="42.092108603357936" lon="13.740826400560932"><ele>667.0</ele><time>2026-04-18T11:29:13Z</time></trkpt><trkpt lat="42.09193019245362" lon="13.740817877865188"><ele>669.0</ele><time>2026-04-18T11:29:14Z</time></trkpt><trkpt lat="42.091727466375616" lon="13.740816313742688"><ele>671.0</ele><time>2026-04-18T11:29:15Z</time></trkpt><trkpt lat="42.09151215631067" lon="13.740820510424186"><ele>673.0</ele><time>2026-04-18T11:29:16Z</time></trkpt><trkpt lat="42.09130435431115" lon="13.740824555415314"><ele>675.0</ele><time>2026-04-18T11:29:17Z</time></trkpt><trkpt lat="42.09111435445432" lon="13.740829655384234"><ele>675.0</ele><time>2026-04-18T11:29:18Z</time></trkpt><trkpt lat="42.09094709464062" lon="13.740840489257765"><ele>675.0</ele><time>2026-04-18T11:29:19Z</time></trkpt><trkpt lat="42.090803603936315" lon="13.740848462537015"><ele>675.0</ele><time>2026-04-18T11:29:20Z</time></trkpt><trkpt lat="42.09068092769006" lon="13.740853881675786"><ele>675.0</ele><time>2026-04-18T11:29:21Z</time></trkpt><trkpt lat="42.09058824462066" lon="13.74083620588356"><ele>676.2</ele><time>2026-04-18T11:29:22Z</time></trkpt><trkpt lat="42.09051969329258" lon="13.740774801933009"><ele>677.4</ele><time>2026-04-18T11:29:23Z</time></trkpt><trkpt lat="42.09048945096671" lon="13.740680338225467"><ele>678.5999999999999</ele><time>2026-04-18T11:29:24Z</time></trkpt><trkpt lat="42.090516814795286" lon="13.74056758698765"><ele>679.8</ele><time>2026-04-18T11:29:25Z</time></trkpt><trkpt lat="42.09060914023115" lon="13.740494383956653"><ele>681.0</ele><time>2026-04-18T11:29:26Z</time></trkpt><trkpt lat="42.09074696452108" lon="13.740424255191511"><ele>679.0</ele><time>2026-04-18T11:29:27Z</time></trkpt><trkpt lat="42.09092797067399" lon="13.740313794009046"><ele>677.0</ele><time>2026-04-18T11:29:28Z</time></trkpt><trkpt lat="42.0911191505436" lon="13.740198253003067"><ele>675.0</ele><time>2026-04-18T11:29:29Z</time></trkpt><trkpt lat="42.09132830659839" lon="13.740072058862987"><ele>677.5</ele><time>2026-04-18T11:29:29.999Z</time></trkpt><trkpt lat="42.091564355871775" lon="13.739929638728198"><ele>680.0</ele><time>2026-04-18T11:29:30.999Z</time></trkpt><trkpt lat="42.091789593993305" lon="13.739776140878375"><ele>680.0</ele><time>2026-04-18T11:29:31.999Z</time></trkpt><trkpt lat="42.09201461422522" lon="13.739569370998769"><ele>680.0</ele><time>2026-04-18T11:29:32.999Z</time></trkpt><trkpt lat="42.09224674765556" lon="13.739333235570328"><ele>685.5</ele><time>2026-04-18T11:29:33.999Z</time></trkpt><trkpt lat="42.092448573172526" lon="13.739126896787408"><ele>691.0</ele><time>2026-04-18T11:29:34.999Z</time></trkpt><trkpt lat="42.09262272805749" lon="13.738950745644818"><ele>691.0</ele><time>2026-04-18T11:29:35.999Z</time></trkpt><trkpt lat="42.09279807909979" lon="13.738806129469788"><ele>691.0</ele><time>2026-04-18T11:29:36.999Z</time></trkpt><trkpt lat="42.09296221378919" lon="13.738697985194099"><ele>691.0</ele><time>2026-04-18T11:29:37.999Z</time></trkpt><trkpt lat="42.09311147158927" lon="13.738605051070232"><ele>692.0</ele><time>2026-04-18T11:29:38.999Z</time></trkpt><trkpt lat="42.09324804448993" lon="13.738510050489392"><ele>693.0</ele><time>2026-04-18T11:29:39.999Z</time></trkpt><trkpt lat="42.093388241569684" lon="13.738359945688982"><ele>694.0</ele><time>2026-04-18T11:29:40.999Z</time></trkpt><trkpt lat="42.09350659870303" lon="13.738109336999518"><ele>694.0</ele><time>2026-04-18T11:29:41.999Z</time></trkpt><trkpt lat="42.093617042730756" lon="13.737842370233976"><ele>694.0</ele><time>2026-04-18T11:29:42.999Z</time></trkpt><trkpt lat="42.093724698146325" lon="13.737554389699593"><ele>705.0</ele><time>2026-04-18T11:29:43.999Z</time></trkpt><trkpt lat="42.09382109847313" lon="13.737255368352486"><ele>716.0</ele><time>2026-04-18T11:29:44.999Z</time></trkpt><trkpt lat="42.0939070408725" lon="13.73696161955144"><ele>707.5</ele><time>2026-04-18T11:29:45.999Z</time></trkpt><trkpt lat="42.09399683534974" lon="13.736654704550144"><ele>699.0</ele><time>2026-04-18T11:29:46.999Z</time></trkpt><trkpt lat="42.09409100522799" lon="13.736339339973753"><ele>707.0</ele><time>2026-04-18T11:29:47.999Z</time></trkpt><trkpt lat="42.09418892547857" lon="13.736015819142873"><ele>715.0</ele><time>2026-04-18T11:29:48.999Z</time></trkpt><trkpt lat="42.094292064773185" lon="13.735676590596901"><ele>715.0</ele><time>2026-04-18T11:29:49.999Z</time></trkpt><trkpt lat="42.094391454056534" lon="13.735372527676622"><ele>715.0</ele><time>2026-04-18T11:29:50.999Z</time></trkpt><trkpt lat="42.09448346495919" lon="13.735099284295611"><ele>721.3333333333334</ele><time>2026-04-18T11:29:51.999Z</time></trkpt><trkpt lat="42.09457026590318" lon="13.734856380761517"><ele>727.6666666666666</ele><time>2026-04-18T11:29:52.999Z</time></trkpt><trkpt lat="42.09465417327039" lon="13.734625710011187"><ele>734.0</ele><time>2026-04-18T11:29:53.999Z</time></trkpt><trkpt lat="42.094706700728864" lon="13.734435509726021"><ele>737.5</ele><time>2026-04-18T11:29:54.999Z</time></trkpt><trkpt lat="42.09478359750647" lon="13.734276875945033"><ele>741.0</ele><time>2026-04-18T11:29:55.999Z</time></trkpt><trkpt lat="42.094834942532515" lon="13.734118847940914"><ele>744.5</ele><time>2026-04-18T11:29:56.999Z</time></trkpt><trkpt lat="42.09484558512152" lon="13.733948243191422"><ele>748.0</ele><time>2026-04-18T11:29:57.999Z</time></trkpt><trkpt lat="42.09479529321543" lon="13.733778599567122"><ele>748.0</ele><time>2026-04-18T11:29:58.999Z</time></trkpt><trkpt lat="42.09474364146403" lon="13.73359456454984"><ele>748.0</ele><time>2026-04-18T11:29:59.999Z</time></trkpt><trkpt lat="42.094703831915545" lon="13.73345999980426"><ele>748.0</ele><time>2026-04-18T11:30:00.999Z</time></trkpt><trkpt lat="42.09470395352511" lon="13.7333393079405"><ele>748.0</ele><time>2026-04-18T11:30:01.999Z</time></trkpt><trkpt lat="42.094756921476815" lon="13.733206223812456"><ele>749.0</ele><time>2026-04-18T11:30:02.999Z</time></trkpt><trkpt lat="42.094852545382956" lon="13.733123163970086"><ele>750.0</ele><time>2026-04-18T11:30:03.999Z</time></trkpt><trkpt lat="42.09496771192133" lon="13.733022749438046"><ele>751.0</ele><time>2026-04-18T11:30:04.999Z</time></trkpt><trkpt lat="42.095097002497894" lon="13.732867316174211"><ele>752.0</ele><time>2026-04-18T11:30:05.999Z</time></trkpt><trkpt lat="42.09522844105627" lon="13.732650461684155"><ele>756.0</ele><time>2026-04-18T11:30:06.999Z</time></trkpt><trkpt lat="42.09533591760802" lon="13.732385320567232"><ele>760.0</ele><time>2026-04-18T11:30:07.999Z</time></trkpt><trkpt lat="42.095449091605325" lon="13.732142889893701"><ele>764.0</ele><time>2026-04-18T11:30:08.999Z</time></trkpt><trkpt lat="42.095567932200055" lon="13.731871113058048"><ele>764.0</ele><time>2026-04-18T11:30:09.999Z</time></trkpt><trkpt lat="42.09568393910774" lon="13.731578865928112"><ele>764.0</ele><time>2026-04-18T11:30:10.999Z</time></trkpt><trkpt lat="42.09576727201734" lon="13.731260758087185"><ele>753.0</ele><time>2026-04-18T11:30:11.999Z</time></trkpt><trkpt lat="42.09586903470119" lon="13.730961043822779"><ele>742.0</ele><time>2026-04-18T11:30:12.999Z</time></trkpt><trkpt lat="42.09598308062227" lon="13.730680179978906"><ele>742.0</ele><time>2026-04-18T11:30:13.999Z</time></trkpt><trkpt lat="42.096107392462926" lon="13.730408634536694"><ele>742.0</ele><time>2026-04-18T11:30:14.999Z</time></trkpt><trkpt lat="42.09624791572396" lon="13.73014216143573"><ele>736.6666666666667</ele><time>2026-04-18T11:30:16Z</time></trkpt><trkpt lat="42.096392254009466" lon="13.729912891176495"><ele>731.3333333333334</ele><time>2026-04-18T11:30:17Z</time></trkpt><trkpt lat="42.09654184022855" lon="13.72971628088102"><ele>726.0</ele><time>2026-04-18T11:30:18Z</time></trkpt><trkpt lat="42.09669425407046" lon="13.729517967610825"><ele>736.5</ele><time>2026-04-18T11:30:19Z</time></trkpt><trkpt lat="42.096823065571414" lon="13.729251442873714"><ele>747.0</ele><time>2026-04-18T11:30:20Z</time></trkpt><trkpt lat="42.096936630503286" lon="13.728938705023712"><ele>747.0</ele><time>2026-04-18T11:30:21Z</time></trkpt><trkpt lat="42.097048569315085" lon="13.72863844212513"><ele>747.0</ele><time>2026-04-18T11:30:22Z</time></trkpt><trkpt lat="42.09717706058086" lon="13.728374028446174"><ele>749.3333333333334</ele><time>2026-04-18T11:30:23Z</time></trkpt><trkpt lat="42.09731785281065" lon="13.728124234965495"><ele>751.6666666666667</ele><time>2026-04-18T11:30:24Z</time></trkpt><trkpt lat="42.09744665556405" lon="13.727908414701734"><ele>754.0</ele><time>2026-04-18T11:30:25Z</time></trkpt><trkpt lat="42.09756534953821" lon="13.727678964616885"><ele>754.0</ele><time>2026-04-18T11:30:26Z</time></trkpt><trkpt lat="42.09766915547983" lon="13.727418578537739"><ele>754.0</ele><time>2026-04-18T11:30:27Z</time></trkpt><trkpt lat="42.097754361639026" lon="13.727124532179982"><ele>757.6666666666667</ele><time>2026-04-18T11:30:28Z</time></trkpt><trkpt lat="42.097820354795964" lon="13.726837933632314"><ele>761.3333333333334</ele><time>2026-04-18T11:30:29Z</time></trkpt><trkpt lat="42.09788283940782" lon="13.726622407483463"><ele>765.0</ele><time>2026-04-18T11:30:30Z</time></trkpt><trkpt lat="42.097942248287595" lon="13.726460395792891"><ele>765.0</ele><time>2026-04-18T11:30:31Z</time></trkpt><trkpt lat="42.098027036005305" lon="13.726330863376177"><ele>765.0</ele><time>2026-04-18T11:30:32Z</time></trkpt><trkpt lat="42.098106339261186" lon="13.726223089783042"><ele>765.0</ele><time>2026-04-18T11:30:33Z</time></trkpt><trkpt lat="42.098149918893185" lon="13.726065351395746"><ele>765.0</ele><time>2026-04-18T11:30:34Z</time></trkpt><trkpt lat="42.09814384290555" lon="13.725867426013634"><ele>767.3333333333333</ele><time>2026-04-18T11:30:35Z</time></trkpt><trkpt lat="42.0980974820406" lon="13.725609256880594"><ele>769.6666666666666</ele><time>2026-04-18T11:30:36Z</time></trkpt><trkpt lat="42.09810737676809" lon="13.725358063953433"><ele>772.0</ele><time>2026-04-18T11:30:37Z</time></trkpt><trkpt lat="42.09817897682578" lon="13.725089372797656"><ele>765.3333333333333</ele><time>2026-04-18T11:30:38Z</time></trkpt><trkpt lat="42.098265163220844" lon="13.724842910099987"><ele>758.6666666666666</ele><time>2026-04-18T11:30:39Z</time></trkpt><trkpt lat="42.09836897238781" lon="13.724646916283916"><ele>752.0</ele><time>2026-04-18T11:30:40Z</time></trkpt><trkpt lat="42.09847025948412" lon="13.724557979099169"><ele>752.0</ele><time>2026-04-18T11:30:41Z</time></trkpt><trkpt lat="42.098598715598584" lon="13.724447451401339"><ele>752.0</ele><time>2026-04-18T11:30:42Z</time></trkpt><trkpt lat="42.098726526285745" lon="13.724306564164191"><ele>752.0</ele><time>2026-04-18T11:30:43Z</time></trkpt><trkpt lat="42.098819236254585" lon="13.724112686910281"><ele>757.0</ele><time>2026-04-18T11:30:44Z</time></trkpt><trkpt lat="42.09889929508349" lon="13.723844918414875"><ele>762.0</ele><time>2026-04-18T11:30:45Z</time></trkpt><trkpt lat="42.098960784766184" lon="13.723655186074739"><ele>767.0</ele><time>2026-04-18T11:30:46Z</time></trkpt><trkpt lat="42.09899688847128" lon="13.723453822072216"><ele>768.6666666666666</ele><time>2026-04-18T11:30:47Z</time></trkpt><trkpt lat="42.09895842261318" lon="13.72327144262244"><ele>770.3333333333333</ele><time>2026-04-18T11:30:48Z</time></trkpt><trkpt lat="42.0988950237614" lon="13.723046566219812"><ele>772.0</ele><time>2026-04-18T11:30:49Z</time></trkpt><trkpt lat="42.09882801858594" lon="13.72284639834598"><ele>770.0</ele><time>2026-04-18T11:30:50Z</time></trkpt><trkpt lat="42.098759027260435" lon="13.722705955697968"><ele>768.0</ele><time>2026-04-18T11:30:51Z</time></trkpt><trkpt lat="42.098594770887516" lon="13.722584780552161"><ele>766.0</ele><time>2026-04-18T11:30:52Z</time></trkpt><trkpt lat="42.09842529385612" lon="13.722432421376324"><ele>766.0</ele><time>2026-04-18T11:30:53Z</time></trkpt><trkpt lat="42.09828275231469" lon="13.72227175888936"><ele>766.0</ele><time>2026-04-18T11:30:54Z</time></trkpt><trkpt lat="42.09814819418457" lon="13.72215657032627"><ele>766.0</ele><time>2026-04-18T11:30:55Z</time></trkpt><trkpt lat="42.098034081893964" lon="13.722080978562394"><ele>767.6666666666667</ele><time>2026-04-18T11:30:56Z</time></trkpt><trkpt lat="42.09789580076325" lon="13.722064311198007"><ele>769.3333333333334</ele><time>2026-04-18T11:30:57Z</time></trkpt><trkpt lat="42.09774469534785" lon="13.722093980266045"><ele>771.0</ele><time>2026-04-18T11:30:58Z</time></trkpt><trkpt lat="42.09758005658563" lon="13.722203661642338"><ele>771.0</ele><time>2026-04-18T11:30:59Z</time></trkpt><trkpt lat="42.097423139943885" lon="13.722372577263705"><ele>771.0</ele><time>2026-04-18T11:31:00Z</time></trkpt><trkpt lat="42.09724280993313" lon="13.722523219747728"><ele>771.0</ele><time>2026-04-18T11:31:01Z</time></trkpt><trkpt lat="42.097021016161605" lon="13.72268437724289"><ele>777.0</ele><time>2026-04-18T11:31:02Z</time></trkpt><trkpt lat="42.096812085289734" lon="13.722837419317123"><ele>783.0</ele><time>2026-04-18T11:31:03Z</time></trkpt><trkpt lat="42.096626273600016" lon="13.722992388023439"><ele>782.3333333333333</ele><time>2026-04-18T11:31:04Z</time></trkpt><trkpt lat="42.096450726949115" lon="13.723121335112765"><ele>781.6666666666666</ele><time>2026-04-18T11:31:05Z</time></trkpt><trkpt lat="42.096300903335035" lon="13.723232010290067"><ele>781.0</ele><time>2026-04-18T11:31:06Z</time></trkpt><trkpt lat="42.09614412513555" lon="13.723401309050034"><ele>784.5</ele><time>2026-04-18T11:31:07Z</time></trkpt><trkpt lat="42.096025427223445" lon="13.723659958723957"><ele>788.0</ele><time>2026-04-18T11:31:08Z</time></trkpt><trkpt lat="42.095881830319" lon="13.723919797916933"><ele>791.0</ele><time>2026-04-18T11:31:09Z</time></trkpt><trkpt lat="42.09573435707547" lon="13.724178411251609"><ele>794.0</ele><time>2026-04-18T11:31:10Z</time></trkpt><trkpt lat="42.095596458865465" lon="13.724408509114724"><ele>794.0</ele><time>2026-04-18T11:31:11Z</time></trkpt><trkpt lat="42.09548739707586" lon="13.72460316656106"><ele>794.0</ele><time>2026-04-18T11:31:12Z</time></trkpt><trkpt lat="42.095415211596375" lon="13.72477802023226"><ele>794.0</ele><time>2026-04-18T11:31:13Z</time></trkpt><trkpt lat="42.09537663444507" lon="13.724953957672568"><ele>794.0</ele><time>2026-04-18T11:31:14Z</time></trkpt><trkpt lat="42.09538257213389" lon="13.725161461870043"><ele>794.0</ele><time>2026-04-18T11:31:15Z</time></trkpt><trkpt lat="42.09543616304407" lon="13.725402988284747"><ele>794.0</ele><time>2026-04-18T11:31:16Z</time></trkpt><trkpt lat="42.0955330709203" lon="13.72568253122574"><ele>793.5</ele><time>2026-04-18T11:31:17Z</time></trkpt><trkpt lat="42.09564426487175" lon="13.725995967231867"><ele>793.0</ele><time>2026-04-18T11:31:18Z</time></trkpt><trkpt lat="42.09572188656985" lon="13.72632028361635"><ele>794.0</ele><time>2026-04-18T11:31:19Z</time></trkpt><trkpt lat="42.09580084357738" lon="13.726590703241012"><ele>795.0</ele><time>2026-04-18T11:31:20Z</time></trkpt><trkpt lat="42.09585963635333" lon="13.726798042131623"><ele>796.0</ele><time>2026-04-18T11:31:21Z</time></trkpt><trkpt lat="42.09590046968169" lon="13.726985187002171"><ele>796.6666666666666</ele><time>2026-04-18T11:31:22Z</time></trkpt><trkpt lat="42.09591832346487" lon="13.727183205450551"><ele>797.3333333333333</ele><time>2026-04-18T11:31:23Z</time></trkpt><trkpt lat="42.09590333894359" lon="13.72742359360349"><ele>798.0</ele><time>2026-04-18T11:31:24Z</time></trkpt><trkpt lat="42.095866244190354" lon="13.72765637683791"><ele>797.6666666666667</ele><time>2026-04-18T11:31:25Z</time></trkpt><trkpt lat="42.09582147001139" lon="13.727849281336924"><ele>797.3333333333334</ele><time>2026-04-18T11:31:26Z</time></trkpt><trkpt lat="42.09572684878406" lon="13.728018390699471"><ele>797.0</ele><time>2026-04-18T11:31:27Z</time></trkpt><trkpt lat="42.095596180033795" lon="13.728157983757237"><ele>799.6666666666667</ele><time>2026-04-18T11:31:28Z</time></trkpt><trkpt lat="42.095432419180185" lon="13.728229078538027"><ele>802.3333333333333</ele><time>2026-04-18T11:31:29Z</time></trkpt><trkpt lat="42.095251303945005" lon="13.728303947749993"><ele>805.0</ele><time>2026-04-18T11:31:30Z</time></trkpt><trkpt lat="42.095085735845075" lon="13.728346256319409"><ele>805.0</ele><time>2026-04-18T11:31:31Z</time></trkpt><trkpt lat="42.09492387239026" lon="13.728346258862013"><ele>805.0</ele><time>2026-04-18T11:31:31.999Z</time></trkpt><trkpt lat="42.09473976411386" lon="13.728264400362548"><ele>805.0</ele><time>2026-04-18T11:31:32.999Z</time></trkpt><trkpt lat="42.09451516073229" lon="13.728186428106127"><ele>807.6666666666666</ele><time>2026-04-18T11:31:33.999Z</time></trkpt><trkpt lat="42.09432453027696" lon="13.728139400452081"><ele>810.3333333333333</ele><time>2026-04-18T11:31:34.999Z</time></trkpt><trkpt lat="42.0941574795558" lon="13.728093550689042"><ele>813.0</ele><time>2026-04-18T11:31:35.999Z</time></trkpt><trkpt lat="42.093995526065044" lon="13.728061281608545"><ele>814.3333333333333</ele><time>2026-04-18T11:31:36.999Z</time></trkpt><trkpt lat="42.093818923702614" lon="13.728072745394664"><ele>815.6666666666666</ele><time>2026-04-18T11:31:37.999Z</time></trkpt><trkpt lat="42.09363511140955" lon="13.728153182969939"><ele>817.0</ele><time>2026-04-18T11:31:38.999Z</time></trkpt><trkpt lat="42.09346902751639" lon="13.728268018073283"><ele>817.0</ele><time>2026-04-18T11:31:39.999Z</time></trkpt><trkpt lat="42.09335286723747" lon="13.728344650392998"><ele>817.0</ele><time>2026-04-18T11:31:40.999Z</time></trkpt><trkpt lat="42.093251357342574" lon="13.728378787270444"><ele>817.0</ele><time>2026-04-18T11:31:41.999Z</time></trkpt><trkpt lat="42.09315240149497" lon="13.728379602528962"><ele>817.0</ele><time>2026-04-18T11:31:42.999Z</time></trkpt><trkpt lat="42.093048403105925" lon="13.728316270498329"><ele>817.0</ele><time>2026-04-18T11:31:43.999Z</time></trkpt><trkpt lat="42.092974688265166" lon="13.728191037209935"><ele>819.5</ele><time>2026-04-18T11:31:44.999Z</time></trkpt><trkpt lat="42.092944994981146" lon="13.728024197794992"><ele>822.0</ele><time>2026-04-18T11:31:45.999Z</time></trkpt><trkpt lat="42.09299590518159" lon="13.727866730972746"><ele>824.5</ele><time>2026-04-18T11:31:46.999Z</time></trkpt><trkpt lat="42.09306053524734" lon="13.727683883296313"><ele>827.0</ele><time>2026-04-18T11:31:47.999Z</time></trkpt><trkpt lat="42.0931400671234" lon="13.727442631913762"><ele>827.0</ele><time>2026-04-18T11:31:48.999Z</time></trkpt><trkpt lat="42.0932292763236" lon="13.727179786358185"><ele>827.0</ele><time>2026-04-18T11:31:49.999Z</time></trkpt><trkpt lat="42.093306548556505" lon="13.72692258326733"><ele>827.0</ele><time>2026-04-18T11:31:50.999Z</time></trkpt><trkpt lat="42.09338412981506" lon="13.726638431207842"><ele>827.0</ele><time>2026-04-18T11:31:51.999Z</time></trkpt><trkpt lat="42.09343240891343" lon="13.726377448265216"><ele>827.0</ele><time>2026-04-18T11:31:52.999Z</time></trkpt><trkpt lat="42.09346347464256" lon="13.726152939591016"><ele>827.0</ele><time>2026-04-18T11:31:53.999Z</time></trkpt><trkpt lat="42.09353922012451" lon="13.725982601902798"><ele>831.6666666666667</ele><time>2026-04-18T11:31:54.999Z</time></trkpt><trkpt lat="42.09363564290706" lon="13.725835510477324"><ele>836.3333333333333</ele><time>2026-04-18T11:31:55.999Z</time></trkpt><trkpt lat="42.09376799554963" lon="13.725708456043293"><ele>841.0</ele><time>2026-04-18T11:31:56.999Z</time></trkpt><trkpt lat="42.093890782591984" lon="13.725599339983829"><ele>841.0</ele><time>2026-04-18T11:31:57.999Z</time></trkpt><trkpt lat="42.093981695466425" lon="13.725499681425005"><ele>841.0</ele><time>2026-04-18T11:31:58.999Z</time></trkpt><trkpt lat="42.09404035064878" lon="13.725407179584657"><ele>841.0</ele><time>2026-04-18T11:31:59.999Z</time></trkpt><trkpt lat="42.094058142287125" lon="13.725272914064599"><ele>841.0</ele><time>2026-04-18T11:32:00.999Z</time></trkpt><trkpt lat="42.09403035833894" lon="13.725083705555383"><ele>842.6666666666666</ele><time>2026-04-18T11:32:01.999Z</time></trkpt><trkpt lat="42.09396008143338" lon="13.724851694088553"><ele>844.3333333333333</ele><time>2026-04-18T11:32:02.999Z</time></trkpt><trkpt lat="42.09387009264719" lon="13.724610106521448"><ele>846.0</ele><time>2026-04-18T11:32:03.999Z</time></trkpt><trkpt lat="42.09376831272915" lon="13.724373587184951"><ele>846.0</ele><time>2026-04-18T11:32:04.999Z</time></trkpt><trkpt lat="42.09364508711952" lon="13.724136120120617"><ele>846.0</ele><time>2026-04-18T11:32:05.999Z</time></trkpt><trkpt lat="42.09354344257617" lon="13.723934072556522"><ele>846.0</ele><time>2026-04-18T11:32:06.999Z</time></trkpt><trkpt lat="42.093488238821784" lon="13.723761755033303"><ele>846.0</ele><time>2026-04-18T11:32:07.999Z</time></trkpt><trkpt lat="42.09344304737944" lon="13.723627381542467"><ele>846.0</ele><time>2026-04-18T11:32:08.999Z</time></trkpt><trkpt lat="42.09337384918787" lon="13.72353510454988"><ele>846.0</ele><time>2026-04-18T11:32:09.999Z</time></trkpt><trkpt lat="42.093239453859645" lon="13.723488680119384"><ele>846.0</ele><time>2026-04-18T11:32:10.999Z</time></trkpt><trkpt lat="42.09310150554537" lon="13.723477984716373"><ele>848.8</ele><time>2026-04-18T11:32:11.999Z</time></trkpt><trkpt lat="42.093011976097344" lon="13.723447985775698"><ele>851.5999999999999</ele><time>2026-04-18T11:32:12.999Z</time></trkpt><trkpt lat="42.092963538466364" lon="13.723363914148903"><ele>854.4</ele><time>2026-04-18T11:32:13.999Z</time></trkpt><trkpt lat="42.09298975300482" lon="13.723222108597902"><ele>857.2</ele><time>2026-04-18T11:32:14.999Z</time></trkpt><trkpt lat="42.093052212447795" lon="13.723075733343697"><ele>860.0</ele><time>2026-04-18T11:32:15.999Z</time></trkpt><trkpt lat="42.093110256474276" lon="13.722871508847895"><ele>860.75</ele><time>2026-04-18T11:32:16.999Z</time></trkpt><trkpt lat="42.09316049063601" lon="13.72265035391379"><ele>861.5</ele><time>2026-04-18T11:32:17.999Z</time></trkpt><trkpt lat="42.093161328966026" lon="13.722483372735326"><ele>862.25</ele><time>2026-04-18T11:32:18.999Z</time></trkpt><trkpt lat="42.09311995368089" lon="13.72230424484712"><ele>863.0</ele><time>2026-04-18T11:32:19.999Z</time></trkpt><trkpt lat="42.093034977215225" lon="13.722169860200946"><ele>863.0</ele><time>2026-04-18T11:32:20.999Z</time></trkpt><trkpt lat="42.092899724121864" lon="13.721920111047812"><ele>863.0</ele><time>2026-04-18T11:32:22Z</time></trkpt><trkpt lat="42.09281653133966" lon="13.721635503119584"><ele>861.6666666666667</ele><time>2026-04-18T11:32:23Z</time></trkpt><trkpt lat="42.09275736752435" lon="13.721349781202171"><ele>860.3333333333333</ele><time>2026-04-18T11:32:24Z</time></trkpt><trkpt lat="42.09271070673724" lon="13.72109456953137"><ele>859.0</ele><time>2026-04-18T11:32:25Z</time></trkpt><trkpt lat="42.092661288852675" lon="13.720910283095687"><ele>858.75</ele><time>2026-04-18T11:32:26Z</time></trkpt><trkpt lat="42.09260020265041" lon="13.720831808707064"><ele>858.5</ele><time>2026-04-18T11:32:27Z</time></trkpt><trkpt lat="42.09245131625893" lon="13.720749993871253"><ele>858.25</ele><time>2026-04-18T11:32:28Z</time></trkpt><trkpt lat="42.09228869144259" lon="13.72073945501719"><ele>858.0</ele><time>2026-04-18T11:32:29Z</time></trkpt><trkpt lat="42.092102986442825" lon="13.72077517921212"><ele>858.0</ele><time>2026-04-18T11:32:30Z</time></trkpt><trkpt lat="42.091885876070144" lon="13.720791123520536"><ele>858.0</ele><time>2026-04-18T11:32:31Z</time></trkpt><trkpt lat="42.09164266935225" lon="13.720812747479206"><ele>860.6666666666667</ele><time>2026-04-18T11:32:32Z</time></trkpt><trkpt lat="42.09143299817484" lon="13.720791864776134"><ele>863.3333333333334</ele><time>2026-04-18T11:32:33Z</time></trkpt><trkpt lat="42.091217251216825" lon="13.72073744070749"><ele>866.0</ele><time>2026-04-18T11:32:34Z</time></trkpt><trkpt lat="42.09100213473428" lon="13.720668873234274"><ele>866.0</ele><time>2026-04-18T11:32:35Z</time></trkpt><trkpt lat="42.09085239886544" lon="13.720627484339856"><ele>866.0</ele><time>2026-04-18T11:32:36Z</time></trkpt><trkpt lat="42.09069776112447" lon="13.720567966635745"><ele>866.0</ele><time>2026-04-18T11:32:37Z</time></trkpt><trkpt lat="42.09059542019752" lon="13.72051158475661"><ele>866.0</ele><time>2026-04-18T11:32:38Z</time></trkpt><trkpt lat="42.09052251192193" lon="13.720387841964458"><ele>871.0</ele><time>2026-04-18T11:32:39Z</time></trkpt><trkpt lat="42.09051101644483" lon="13.720223328832871"><ele>876.0</ele><time>2026-04-18T11:32:40Z</time></trkpt><trkpt lat="42.090517753128175" lon="13.72001004513859"><ele>881.0</ele><time>2026-04-18T11:32:41Z</time></trkpt><trkpt lat="42.09051216536285" lon="13.719795554154343"><ele>886.0</ele><time>2026-04-18T11:32:42Z</time></trkpt><trkpt lat="42.09046894383456" lon="13.719550806488067"><ele>884.3333333333333</ele><time>2026-04-18T11:32:43Z</time></trkpt><trkpt lat="42.09041038132883" lon="13.719374172168688"><ele>882.6666666666667</ele><time>2026-04-18T11:32:44Z</time></trkpt><trkpt lat="42.09024958245374" lon="13.719167826602858"><ele>881.0</ele><time>2026-04-18T11:32:45Z</time></trkpt><trkpt lat="42.090122957008205" lon="13.71892287784181"><ele>881.0</ele><time>2026-04-18T11:32:46Z</time></trkpt><trkpt lat="42.09002531775825" lon="13.71870051832798"><ele>881.0</ele><time>2026-04-18T11:32:47Z</time></trkpt><trkpt lat="42.08988963355197" lon="13.718508038602236"><ele>881.0</ele><time>2026-04-18T11:32:48Z</time></trkpt><trkpt lat="42.08972838085818" lon="13.718343053555207"><ele>880.5</ele><time>2026-04-18T11:32:49Z</time></trkpt><trkpt lat="42.089552531751835" lon="13.718214268488698"><ele>880.0</ele><time>2026-04-18T11:32:50Z</time></trkpt><trkpt lat="42.08930710420748" lon="13.718138712282673"><ele>886.0</ele><time>2026-04-18T11:32:51Z</time></trkpt><trkpt lat="42.089056313321294" lon="13.71806229979588"><ele>892.0</ele><time>2026-04-18T11:32:52Z</time></trkpt><trkpt lat="42.08881375744314" lon="13.717981382883028"><ele>892.0</ele><time>2026-04-18T11:32:53Z</time></trkpt><trkpt lat="42.088629808308966" lon="13.717870682676857"><ele>892.0</ele><time>2026-04-18T11:32:54Z</time></trkpt><trkpt lat="42.0884760143481" lon="13.717757502261584"><ele>892.0</ele><time>2026-04-18T11:32:55Z</time></trkpt><trkpt lat="42.08831809206339" lon="13.717564030641412"><ele>893.3333333333333</ele><time>2026-04-18T11:32:56Z</time></trkpt><trkpt lat="42.088175176139096" lon="13.717331343178182"><ele>894.6666666666667</ele><time>2026-04-18T11:32:57Z</time></trkpt><trkpt lat="42.08804909484169" lon="13.717087051734367"><ele>896.0</ele><time>2026-04-18T11:32:58Z</time></trkpt><trkpt lat="42.08790686993146" lon="13.716819751372332"><ele>896.0</ele><time>2026-04-18T11:32:59Z</time></trkpt><trkpt lat="42.08778091931869" lon="13.716577844814942"><ele>896.0</ele><time>2026-04-18T11:33:00Z</time></trkpt><trkpt lat="42.087687405138595" lon="13.716410380757441"><ele>896.0</ele><time>2026-04-18T11:33:01Z</time></trkpt><trkpt lat="42.08756308129871" lon="13.716208032556244"><ele>896.0</ele><time>2026-04-18T11:33:02Z</time></trkpt><trkpt lat="42.087405193587195" lon="13.7160508139393"><ele>896.0</ele><time>2026-04-18T11:33:03Z</time></trkpt><trkpt lat="42.087165494116014" lon="13.715821907017093"><ele>896.0</ele><time>2026-04-18T11:33:04Z</time></trkpt><trkpt lat="42.086942501544215" lon="13.715614957776992"><ele>896.0</ele><time>2026-04-18T11:33:05Z</time></trkpt><trkpt lat="42.0867417627949" lon="13.71543230236136"><ele>896.3333333333334</ele><time>2026-04-18T11:33:06Z</time></trkpt><trkpt lat="42.086538816320946" lon="13.715308234500563"><ele>896.6666666666667</ele><time>2026-04-18T11:33:07Z</time></trkpt><trkpt lat="42.08636239689241" lon="13.715230268863467"><ele>897.0</ele><time>2026-04-18T11:33:08Z</time></trkpt><trkpt lat="42.086221078895846" lon="13.715185149144752"><ele>896.5</ele><time>2026-04-18T11:33:09Z</time></trkpt><trkpt lat="42.08610841580658" lon="13.71512854322513"><ele>896.0</ele><time>2026-04-18T11:33:10Z</time></trkpt><trkpt lat="42.08601931637047" lon="13.71504538457763"><ele>895.5</ele><time>2026-04-18T11:33:11Z</time></trkpt><trkpt lat="42.08596989678815" lon="13.71488467678945"><ele>895.0</ele><time>2026-04-18T11:33:12Z</time></trkpt><trkpt lat="42.08589669506662" lon="13.714701095178057"><ele>895.0</ele><time>2026-04-18T11:33:13Z</time></trkpt><trkpt lat="42.085817726940896" lon="13.714569706352437"><ele>895.0</ele><time>2026-04-18T11:33:14Z</time></trkpt><trkpt lat="42.08571482236201" lon="13.714509333879779"><ele>895.0</ele><time>2026-04-18T11:33:15Z</time></trkpt><trkpt lat="42.08553037335545" lon="13.714506394925664"><ele>895.0</ele><time>2026-04-18T11:33:16Z</time></trkpt><trkpt lat="42.08533018785861" lon="13.71452755682749"><ele>893.3333333333333</ele><time>2026-04-18T11:33:17Z</time></trkpt><trkpt lat="42.08512973847314" lon="13.714515740580632"><ele>891.6666666666667</ele><time>2026-04-18T11:33:18Z</time></trkpt><trkpt lat="42.08496437271399" lon="13.714508618818767"><ele>890.0</ele><time>2026-04-18T11:33:19Z</time></trkpt><trkpt lat="42.084842350689556" lon="13.714500752548796"><ele>888.8</ele><time>2026-04-18T11:33:20Z</time></trkpt><trkpt lat="42.08474704001896" lon="13.714496159796548"><ele>887.6</ele><time>2026-04-18T11:33:21Z</time></trkpt><trkpt lat="42.084681192924066" lon="13.714438798617484"><ele>886.4000000000001</ele><time>2026-04-18T11:33:22Z</time></trkpt><trkpt lat="42.08462984415531" lon="13.714328902974485"><ele>885.2</ele><time>2026-04-18T11:33:23Z</time></trkpt><trkpt lat="42.084610283685585" lon="13.714153584196408"><ele>884.0</ele><time>2026-04-18T11:33:24Z</time></trkpt><trkpt lat="42.0846134746426" lon="13.71395022166904"><ele>888.25</ele><time>2026-04-18T11:33:25Z</time></trkpt><trkpt lat="42.08458598662238" lon="13.713769818492647"><ele>892.5</ele><time>2026-04-18T11:33:26Z</time></trkpt><trkpt lat="42.08450035754225" lon="13.71364619428615"><ele>896.75</ele><time>2026-04-18T11:33:27Z</time></trkpt><trkpt lat="42.084415401889586" lon="13.713555711369457"><ele>901.0</ele><time>2026-04-18T11:33:28Z</time></trkpt><trkpt lat="42.084270904358604" lon="13.71353928653893"><ele>901.0</ele><time>2026-04-18T11:33:29Z</time></trkpt><trkpt lat="42.08413196396951" lon="13.713581140755595"><ele>901.0</ele><time>2026-04-18T11:33:30Z</time></trkpt><trkpt lat="42.083907340384464" lon="13.71368900933398"><ele>901.0</ele><time>2026-04-18T11:33:31Z</time></trkpt><trkpt lat="42.08418308014364" lon="13.713565458179431"><ele>903.0</ele><time>2026-04-18T11:33:32Z</time></trkpt><trkpt lat="42.08356189803478" lon="13.713815714272126"><ele>903.0</ele><time>2026-04-18T11:33:33Z</time></trkpt><trkpt lat="42.083385439023026" lon="13.7139109476755"><ele>903.0</ele><time>2026-04-18T11:33:33.999Z</time></trkpt><trkpt lat="42.0832355879055" lon="13.713982837185158"><ele>903.0</ele><time>2026-04-18T11:33:34.999Z</time></trkpt><trkpt lat="42.08314339236654" lon="13.714006556766865"><ele>903.0</ele><time>2026-04-18T11:33:35.999Z</time></trkpt><trkpt lat="42.08301402120513" lon="13.713996036575804"><ele>903.0</ele><time>2026-04-18T11:33:36.999Z</time></trkpt><trkpt lat="42.08299191273545" lon="13.713906370496932"><ele>903.0</ele><time>2026-04-18T11:33:37.999Z</time></trkpt><trkpt lat="42.08295156270725" lon="13.713815972871682"><ele>903.0</ele><time>2026-04-18T11:33:38.999Z</time></trkpt><trkpt lat="42.08295751947096" lon="13.713659728261849"><ele>903.0</ele><time>2026-04-18T11:33:39.999Z</time></trkpt><trkpt lat="42.08300753926021" lon="13.71342771224951"><ele>903.0</ele><time>2026-04-18T11:33:40.999Z</time></trkpt><trkpt lat="42.08307213257416" lon="13.71318331854321"><ele>906.3333333333333</ele><time>2026-04-18T11:33:41.999Z</time></trkpt><trkpt lat="42.08314748813198" lon="13.712955847817069"><ele>909.6666666666666</ele><time>2026-04-18T11:33:42.999Z</time></trkpt><trkpt lat="42.08319380516199" lon="13.712730436304454"><ele>913.0</ele><time>2026-04-18T11:33:43.999Z</time></trkpt><trkpt lat="42.08319874437585" lon="13.71254992249459"><ele>914.75</ele><time>2026-04-18T11:33:44.999Z</time></trkpt><trkpt lat="42.083158944842324" lon="13.712436108933181"><ele>916.5</ele><time>2026-04-18T11:33:45.999Z</time></trkpt><trkpt lat="42.083085053053345" lon="13.712289600635593"><ele>918.25</ele><time>2026-04-18T11:33:46.999Z</time></trkpt><trkpt lat="42.08297607522123" lon="13.712179035266693"><ele>920.0</ele><time>2026-04-18T11:33:47.999Z</time></trkpt><trkpt lat="42.08283270585217" lon="13.712099046928095"><ele>920.0</ele><time>2026-04-18T11:33:48.999Z</time></trkpt><trkpt lat="42.08262592030015" lon="13.712030827434367"><ele>920.0</ele><time>2026-04-18T11:33:49.999Z</time></trkpt><trkpt lat="42.082389073015975" lon="13.711956907567394"><ele>918.0</ele><time>2026-04-18T11:33:50.999Z</time></trkpt><trkpt lat="42.08217460781725" lon="13.711940974825923"><ele>916.0</ele><time>2026-04-18T11:33:51.999Z</time></trkpt><trkpt lat="42.08199412175531" lon="13.711959363422226"><ele>914.0</ele><time>2026-04-18T11:33:52.999Z</time></trkpt><trkpt lat="42.08185519155078" lon="13.712014082610366"><ele>914.0</ele><time>2026-04-18T11:33:53.999Z</time></trkpt><trkpt lat="42.08177087144386" lon="13.712023609310688"><ele>914.0000000000001</ele><time>2026-04-18T11:33:54.999Z</time></trkpt><trkpt lat="42.08169862688566" lon="13.712041574909346"><ele>914.0000000000001</ele><time>2026-04-18T11:33:55.999Z</time></trkpt><trkpt lat="42.08161207164176" lon="13.712011360109255"><ele>914.0</ele><time>2026-04-18T11:33:56.999Z</time></trkpt><trkpt lat="42.081535495612165" lon="13.71185264048726"><ele>914.0</ele><time>2026-04-18T11:33:58.999Z</time></trkpt><trkpt lat="42.08154360094135" lon="13.711695380043073"><ele>916.6666666666667</ele><time>2026-04-18T11:33:59.999Z</time></trkpt><trkpt lat="42.08162553206763" lon="13.711540622070284"><ele>919.3333333333333</ele><time>2026-04-18T11:34:00.999Z</time></trkpt><trkpt lat="42.081721276770395" lon="13.711362174223424"><ele>922.0</ele><time>2026-04-18T11:34:01.999Z</time></trkpt><trkpt lat="42.081814114588106" lon="13.711179909320917"><ele>921.6666666666666</ele><time>2026-04-18T11:34:02.999Z</time></trkpt><trkpt lat="42.08193525237296" lon="13.710974231284984"><ele>921.3333333333333</ele><time>2026-04-18T11:34:03.999Z</time></trkpt><trkpt lat="42.081940444931966" lon="13.710766119880688"><ele>921.0</ele><time>2026-04-18T11:34:04.999Z</time></trkpt><trkpt lat="42.08191758281646" lon="13.710540784243213"><ele>921.0</ele><time>2026-04-18T11:34:05.999Z</time></trkpt><trkpt lat="42.081899763066254" lon="13.7103550762541"><ele>921.0</ele><time>2026-04-18T11:34:06.999Z</time></trkpt><trkpt lat="42.081927834753614" lon="13.710169695175297"><ele>921.0</ele><time>2026-04-18T11:34:07.999Z</time></trkpt><trkpt lat="42.08200825338564" lon="13.709973325598977"><ele>921.0</ele><time>2026-04-18T11:34:08.999Z</time></trkpt><trkpt lat="42.08215211699333" lon="13.709767818931473"><ele>921.6666666666667</ele><time>2026-04-18T11:34:09.999Z</time></trkpt><trkpt lat="42.082267413607724" lon="13.709551145201042"><ele>922.3333333333334</ele><time>2026-04-18T11:34:10.999Z</time></trkpt><trkpt lat="42.082353177027265" lon="13.70930229579305"><ele>923.0</ele><time>2026-04-18T11:34:11.999Z</time></trkpt><trkpt lat="42.08241909837124" lon="13.709027009708048"><ele>929.3333333333334</ele><time>2026-04-18T11:34:12.999Z</time></trkpt><trkpt lat="42.082490849451666" lon="13.708748571108158"><ele>935.6666666666667</ele><time>2026-04-18T11:34:13.999Z</time></trkpt><trkpt lat="42.08257284044123" lon="13.70847259083632"><ele>942.0</ele><time>2026-04-18T11:34:14.999Z</time></trkpt><trkpt lat="42.08264832811042" lon="13.708195609737988"><ele>942.0</ele><time>2026-04-18T11:34:15.999Z</time></trkpt><trkpt lat="42.08272521132598" lon="13.707916797592956"><ele>942.0</ele><time>2026-04-18T11:34:16.999Z</time></trkpt><trkpt lat="42.08280312476076" lon="13.707639442785322"><ele>942.0</ele><time>2026-04-18T11:34:17.999Z</time></trkpt><trkpt lat="42.082876353894484" lon="13.707372104736503"><ele>944.6666666666667</ele><time>2026-04-18T11:34:18.999Z</time></trkpt><trkpt lat="42.082939024114545" lon="13.707138159375146"><ele>947.3333333333334</ele><time>2026-04-18T11:34:19.999Z</time></trkpt><trkpt lat="42.08299310972861" lon="13.706938310323585"><ele>950.0</ele><time>2026-04-18T11:34:20.999Z</time></trkpt><trkpt lat="42.08302965585002" lon="13.70676996968255"><ele>953.8</ele><time>2026-04-18T11:34:21.999Z</time></trkpt><trkpt lat="42.08305267117495" lon="13.706627229095435"><ele>957.6</ele><time>2026-04-18T11:34:22.999Z</time></trkpt><trkpt lat="42.08305614589721" lon="13.706508530220262"><ele>961.4000000000001</ele><time>2026-04-18T11:34:23.999Z</time></trkpt><trkpt lat="42.08304278581762" lon="13.706397911597218"><ele>965.2</ele><time>2026-04-18T11:34:24.999Z</time></trkpt><trkpt lat="42.082942713676715" lon="13.706310806079127"><ele>969.0</ele><time>2026-04-18T11:34:25.999Z</time></trkpt><trkpt lat="42.082849847374064" lon="13.70627221303196"><ele>969.0</ele><time>2026-04-18T11:34:26.999Z</time></trkpt><trkpt lat="42.08273567854496" lon="13.706323606372969"><ele>969.0</ele><time>2026-04-18T11:34:28Z</time></trkpt><trkpt lat="42.08265223684993" lon="13.706506148198002"><ele>969.0</ele><time>2026-04-18T11:34:29Z</time></trkpt><trkpt lat="42.08253702083048" lon="13.706702332065078"><ele>974.6666666666667</ele><time>2026-04-18T11:34:30Z</time></trkpt><trkpt lat="42.082416085635806" lon="13.706899812043519"><ele>980.3333333333334</ele><time>2026-04-18T11:34:31Z</time></trkpt><trkpt lat="42.082297426259544" lon="13.707104896194886"><ele>986.0</ele><time>2026-04-18T11:34:32Z</time></trkpt><trkpt lat="42.08217014859317" lon="13.707311556144939"><ele>986.0</ele><time>2026-04-18T11:34:33Z</time></trkpt><trkpt lat="42.08203703343662" lon="13.707518662594303"><ele>986.0</ele><time>2026-04-18T11:34:34Z</time></trkpt><trkpt lat="42.08188891517538" lon="13.707734509841591"><ele>986.0</ele><time>2026-04-18T11:34:35Z</time></trkpt><trkpt lat="42.08173820056262" lon="13.70794657244825"><ele>987.3333333333334</ele><time>2026-04-18T11:34:36Z</time></trkpt><trkpt lat="42.08160316509715" lon="13.708132227406658"><ele>988.6666666666667</ele><time>2026-04-18T11:34:37Z</time></trkpt><trkpt lat="42.08148010978443" lon="13.708277198979134"><ele>990.0</ele><time>2026-04-18T11:34:38Z</time></trkpt><trkpt lat="42.08134261110372" lon="13.708393820256346"><ele>990.0</ele><time>2026-04-18T11:34:39Z</time></trkpt><trkpt lat="42.08117628519717" lon="13.708499415462342"><ele>990.0</ele><time>2026-04-18T11:34:40Z</time></trkpt><trkpt lat="42.08099009021948" lon="13.708628045161474"><ele>990.0</ele><time>2026-04-18T11:34:41Z</time></trkpt><trkpt lat="42.0808004098738" lon="13.70874297743874"><ele>985.6666666666667</ele><time>2026-04-18T11:34:42Z</time></trkpt><trkpt lat="42.080606863697255" lon="13.708857482799644"><ele>981.3333333333334</ele><time>2026-04-18T11:34:43Z</time></trkpt><trkpt lat="42.080406945951495" lon="13.708969469969848"><ele>977.0</ele><time>2026-04-18T11:34:44Z</time></trkpt><trkpt lat="42.080192941682135" lon="13.709085743303913"><ele>977.0</ele><time>2026-04-18T11:34:45Z</time></trkpt><trkpt lat="42.08001102829537" lon="13.709209494982378"><ele>977.0</ele><time>2026-04-18T11:34:46Z</time></trkpt><trkpt lat="42.079837470174695" lon="13.70931780875321"><ele>977.0</ele><time>2026-04-18T11:34:47Z</time></trkpt><trkpt lat="42.079688918180146" lon="13.709403952447829"><ele>973.25</ele><time>2026-04-18T11:34:48Z</time></trkpt><trkpt lat="42.079563715645314" lon="13.709472262295328"><ele>969.5</ele><time>2026-04-18T11:34:49Z</time></trkpt><trkpt lat="42.079441848383546" lon="13.709517552494313"><ele>965.75</ele><time>2026-04-18T11:34:50Z</time></trkpt><trkpt lat="42.07930059858879" lon="13.709519890842033"><ele>962.0</ele><time>2026-04-18T11:34:51Z</time></trkpt><trkpt lat="42.07916609923675" lon="13.70947476668692"><ele>961.0</ele><time>2026-04-18T11:34:52Z</time></trkpt><trkpt lat="42.07905917874894" lon="13.709382075104026"><ele>960.0</ele><time>2026-04-18T11:34:53Z</time></trkpt><trkpt lat="42.07896606286365" lon="13.709236081122652"><ele>959.0</ele><time>2026-04-18T11:34:54Z</time></trkpt><trkpt lat="42.07886605711276" lon="13.709059023965162"><ele>958.0</ele><time>2026-04-18T11:34:55Z</time></trkpt><trkpt lat="42.07878703034004" lon="13.708804469208129"><ele>963.6666666666666</ele><time>2026-04-18T11:34:56Z</time></trkpt><trkpt lat="42.07871314812911" lon="13.70855334889374"><ele>969.3333333333333</ele><time>2026-04-18T11:34:57Z</time></trkpt><trkpt lat="42.07864535618633" lon="13.708296098925723"><ele>975.0</ele><time>2026-04-18T11:34:58Z</time></trkpt><trkpt lat="42.07859318052731" lon="13.708034821554381"><ele>979.6666666666667</ele><time>2026-04-18T11:34:59Z</time></trkpt><trkpt lat="42.078550886048795" lon="13.707743031151118"><ele>984.3333333333334</ele><time>2026-04-18T11:35:00Z</time></trkpt><trkpt lat="42.07850589695924" lon="13.707449503449398"><ele>989.0</ele><time>2026-04-18T11:35:01Z</time></trkpt><trkpt lat="42.078464446589955" lon="13.707225418665063"><ele>989.0</ele><time>2026-04-18T11:35:02Z</time></trkpt><trkpt lat="42.07843323856717" lon="13.707046337421442"><ele>989.0000000000001</ele><time>2026-04-18T11:35:03Z</time></trkpt><trkpt lat="42.07841310589842" lon="13.706921275653796"><ele>989.0000000000001</ele><time>2026-04-18T11:35:04Z</time></trkpt><trkpt lat="42.078398380401275" lon="13.706836011907894"><ele>989.0</ele><time>2026-04-18T11:35:05Z</time></trkpt><trkpt lat="42.078305308458404" lon="13.706751998290692"><ele>989.0</ele><time>2026-04-18T11:35:06Z</time></trkpt><trkpt lat="42.07820029345356" lon="13.706723415682758"><ele>992.0</ele><time>2026-04-18T11:35:07Z</time></trkpt><trkpt lat="42.078092713135604" lon="13.706775120963883"><ele>995.0</ele><time>2026-04-18T11:35:08Z</time></trkpt><trkpt lat="42.07799246183801" lon="13.70691744083971"><ele>998.0</ele><time>2026-04-18T11:35:09Z</time></trkpt><trkpt lat="42.07788662888826" lon="13.707121560667009"><ele>1001.0</ele><time>2026-04-18T11:35:10Z</time></trkpt><trkpt lat="42.07775538578368" lon="13.707318591422295"><ele>1001.0</ele><time>2026-04-18T11:35:11Z</time></trkpt><trkpt lat="42.077625822612994" lon="13.707534605020578"><ele>1001.0</ele><time>2026-04-18T11:35:12Z</time></trkpt><trkpt lat="42.077511217292866" lon="13.70772180495222"><ele>1001.0</ele><time>2026-04-18T11:35:13Z</time></trkpt><trkpt lat="42.077419623803806" lon="13.707857705569364"><ele>995.75</ele><time>2026-04-18T11:35:14Z</time></trkpt><trkpt lat="42.077340366673894" lon="13.707973282939815"><ele>990.5</ele><time>2026-04-18T11:35:15Z</time></trkpt><trkpt lat="42.0772224391236" lon="13.708029388697131"><ele>985.25</ele><time>2026-04-18T11:35:16Z</time></trkpt><trkpt lat="42.07707893458373" lon="13.707974503649313"><ele>980.0</ele><time>2026-04-18T11:35:17Z</time></trkpt><trkpt lat="42.07689900141477" lon="13.707919009439358"><ele>980.0</ele><time>2026-04-18T11:35:18Z</time></trkpt><trkpt lat="42.07669848166319" lon="13.70785748703755"><ele>980.0</ele><time>2026-04-18T11:35:19Z</time></trkpt><trkpt lat="42.07649797248296" lon="13.707799383582197"><ele>980.0</ele><time>2026-04-18T11:35:20Z</time></trkpt><trkpt lat="42.0762920170386" lon="13.70775015594782"><ele>985.3333333333334</ele><time>2026-04-18T11:35:21Z</time></trkpt><trkpt lat="42.07608491774912" lon="13.707679874736328"><ele>990.6666666666667</ele><time>2026-04-18T11:35:22Z</time></trkpt><trkpt lat="42.07591747510531" lon="13.707604647734332"><ele>996.0</ele><time>2026-04-18T11:35:23Z</time></trkpt><trkpt lat="42.075761141721706" lon="13.707582147237336"><ele>996.0</ele><time>2026-04-18T11:35:24Z</time></trkpt><trkpt lat="42.075604700227" lon="13.707525462421263"><ele>996.0</ele><time>2026-04-18T11:35:25Z</time></trkpt><trkpt lat="42.07544574283248" lon="13.7074200737802"><ele>996.0</ele><time>2026-04-18T11:35:26Z</time></trkpt><trkpt lat="42.07528987736581" lon="13.707268053765485"><ele>996.0</ele><time>2026-04-18T11:35:27Z</time></trkpt><trkpt lat="42.075135338667316" lon="13.707112554425109"><ele>996.0</ele><time>2026-04-18T11:35:28Z</time></trkpt><trkpt lat="42.07496723851746" lon="13.706968651069552"><ele>996.0</ele><time>2026-04-18T11:35:29Z</time></trkpt><trkpt lat="42.07481642978077" lon="13.706827771830996"><ele>998.3333333333333</ele><time>2026-04-18T11:35:30Z</time></trkpt><trkpt lat="42.07466283062122" lon="13.70665312410868"><ele>1000.6666666666666</ele><time>2026-04-18T11:35:31Z</time></trkpt><trkpt lat="42.074521913637426" lon="13.70645860495721"><ele>1003.0</ele><time>2026-04-18T11:35:32Z</time></trkpt><trkpt lat="42.07437765093006" lon="13.706257018416117"><ele>1006.6666666666666</ele><time>2026-04-18T11:35:33Z</time></trkpt><trkpt lat="42.07423102944834" lon="13.706065468508426"><ele>1010.3333333333333</ele><time>2026-04-18T11:35:34Z</time></trkpt><trkpt lat="42.07407508332793" lon="13.705831874459054"><ele>1014.0</ele><time>2026-04-18T11:35:35Z</time></trkpt><trkpt lat="42.073910651885136" lon="13.705595698565471"><ele>1014.0</ele><time>2026-04-18T11:35:36Z</time></trkpt><trkpt lat="42.07376922617477" lon="13.70539442598466"><ele>1014.0</ele><time>2026-04-18T11:35:37Z</time></trkpt><trkpt lat="42.07366634135916" lon="13.705263818259484"><ele>1014.0</ele><time>2026-04-18T11:35:38Z</time></trkpt><trkpt lat="42.07357267698539" lon="13.70518281366685"><ele>1019.3333333333333</ele><time>2026-04-18T11:35:38.999Z</time></trkpt><trkpt lat="42.073450684933476" lon="13.705159308304369"><ele>1024.6666666666665</ele><time>2026-04-18T11:35:39.999Z</time></trkpt><trkpt lat="42.07324634817765" lon="13.705191670389707"><ele>1030.0</ele><time>2026-04-18T11:35:40.999Z</time></trkpt><trkpt lat="42.07302240319917" lon="13.705218991800765"><ele>1032.0</ele><time>2026-04-18T11:35:41.999Z</time></trkpt><trkpt lat="42.072764104044325" lon="13.705222423109092"><ele>1034.0</ele><time>2026-04-18T11:35:42.999Z</time></trkpt><trkpt lat="42.07253218006509" lon="13.705260126150248"><ele>1029.5</ele><time>2026-04-18T11:35:43.999Z</time></trkpt><trkpt lat="42.07226485154374" lon="13.705276082098427"><ele>1025.0</ele><time>2026-04-18T11:35:44.999Z</time></trkpt><trkpt lat="42.07202405893339" lon="13.705300687634685"><ele>1025.0</ele><time>2026-04-18T11:35:45.999Z</time></trkpt><trkpt lat="42.071831365296866" lon="13.705331486956087"><ele>1025.0</ele><time>2026-04-18T11:35:46.999Z</time></trkpt><trkpt lat="42.07167169983127" lon="13.705406017732221"><ele>1025.0</ele><time>2026-04-18T11:35:47.999Z</time></trkpt><trkpt lat="42.07153204137431" lon="13.705541483353885"><ele>1024.3333333333335</ele><time>2026-04-18T11:35:48.999Z</time></trkpt><trkpt lat="42.07141591845455" lon="13.705719530941504"><ele>1023.6666666666667</ele><time>2026-04-18T11:35:49.999Z</time></trkpt><trkpt lat="42.07131631984074" lon="13.705918021075721"><ele>1023.0</ele><time>2026-04-18T11:35:50.999Z</time></trkpt><trkpt lat="42.07121400039286" lon="13.706084527693607"><ele>1023.0</ele><time>2026-04-18T11:35:51.999Z</time></trkpt><trkpt lat="42.071092335415464" lon="13.706203021692435"><ele>1023.0</ele><time>2026-04-18T11:35:52.999Z</time></trkpt><trkpt lat="42.07094257129129" lon="13.706266117122418"><ele>1023.0</ele><time>2026-04-18T11:35:53.999Z</time></trkpt><trkpt lat="42.070751453770576" lon="13.706340689236272"><ele>1024.6666666666667</ele><time>2026-04-18T11:35:54.999Z</time></trkpt><trkpt lat="42.070551724398214" lon="13.706342303038063"><ele>1026.3333333333335</ele><time>2026-04-18T11:35:55.999Z</time></trkpt><trkpt lat="42.07039907136924" lon="13.70633672168962"><ele>1028.0</ele><time>2026-04-18T11:35:56.999Z</time></trkpt><trkpt lat="42.07029250440379" lon="13.706318979815006"><ele>1028.0</ele><time>2026-04-18T11:35:57.999Z</time></trkpt><trkpt lat="42.07020770447794" lon="13.706272442158513"><ele>1028.0</ele><time>2026-04-18T11:35:58.999Z</time></trkpt><trkpt lat="42.07015030858659" lon="13.706184720063462"><ele>1028.0</ele><time>2026-04-18T11:35:59.999Z</time></trkpt><trkpt lat="42.070134903675076" lon="13.706053562974734"><ele>1028.0</ele><time>2026-04-18T11:36:00.999Z</time></trkpt><trkpt lat="42.07016709405172" lon="13.705937836593723"><ele>1028.0</ele><time>2026-04-18T11:36:01.999Z</time></trkpt><trkpt lat="42.070257587554536" lon="13.70585629096692"><ele>1034.3333333333335</ele><time>2026-04-18T11:36:02.999Z</time></trkpt><trkpt lat="42.0704013411391" lon="13.705867715680366"><ele>1040.6666666666667</ele><time>2026-04-18T11:36:03.999Z</time></trkpt><trkpt lat="42.070561323260925" lon="13.705868172876109"><ele>1047.0</ele><time>2026-04-18T11:36:04.999Z</time></trkpt><trkpt lat="42.07074724930503" lon="13.705908553795641"><ele>1045.0</ele><time>2026-04-18T11:36:05.999Z</time></trkpt><trkpt lat="42.07091834823533" lon="13.70589078014226"><ele>1043.0</ele><time>2026-04-18T11:36:06.999Z</time></trkpt><trkpt lat="42.07104421343039" lon="13.705821898847507"><ele>1041.0</ele><time>2026-04-18T11:36:07.999Z</time></trkpt><trkpt lat="42.071156285539764" lon="13.705679057259204"><ele>1041.0</ele><time>2026-04-18T11:36:08.999Z</time></trkpt><trkpt lat="42.071270012248014" lon="13.705466671998973"><ele>1041.0</ele><time>2026-04-18T11:36:09.999Z</time></trkpt><trkpt lat="42.07139018260107" lon="13.705264236043446"><ele>1041.0</ele><time>2026-04-18T11:36:10.999Z</time></trkpt><trkpt lat="42.07159943420262" lon="13.705042169065255"><ele>1043.5</ele><time>2026-04-18T11:36:11.999Z</time></trkpt><trkpt lat="42.071793121899724" lon="13.704857810534586"><ele>1046.0</ele><time>2026-04-18T11:36:12.999Z</time></trkpt><trkpt lat="42.071991219298376" lon="13.70465403486511"><ele>1046.0</ele><time>2026-04-18T11:36:13.999Z</time></trkpt><trkpt lat="42.07216234582551" lon="13.704507517566421"><ele>1046.0</ele><time>2026-04-18T11:36:14.999Z</time></trkpt><trkpt lat="42.072293329998146" lon="13.704372835485811"><ele>1046.0</ele><time>2026-04-18T11:36:15.999Z</time></trkpt><trkpt lat="42.07242269089743" lon="13.70420978570354"><ele>1048.0</ele><time>2026-04-18T11:36:16.999Z</time></trkpt><trkpt lat="42.072530787220785" lon="13.703995074330583"><ele>1050.0</ele><time>2026-04-18T11:36:17.999Z</time></trkpt><trkpt lat="42.0726297647255" lon="13.703821714294271"><ele>1052.0</ele><time>2026-04-18T11:36:18.999Z</time></trkpt><trkpt lat="42.07270954432551" lon="13.703677099411395"><ele>1054.8</ele><time>2026-04-18T11:36:19.999Z</time></trkpt><trkpt lat="42.072758766240895" lon="13.70355851402579"><ele>1057.6</ele><time>2026-04-18T11:36:20.999Z</time></trkpt><trkpt lat="42.07276855183109" lon="13.703420649566661"><ele>1060.3999999999999</ele><time>2026-04-18T11:36:21.999Z</time></trkpt><trkpt lat="42.0727286089138" lon="13.703341309441882"><ele>1063.2</ele><time>2026-04-18T11:36:22.999Z</time></trkpt><trkpt lat="42.07266122242222" lon="13.703302376855323"><ele>1066.0</ele><time>2026-04-18T11:36:23.999Z</time></trkpt><trkpt lat="42.07255980356516" lon="13.703305494233138"><ele>1066.0</ele><time>2026-04-18T11:36:24.999Z</time></trkpt><trkpt lat="42.072453756457364" lon="13.703368919798507"><ele>1066.0</ele><time>2026-04-18T11:36:25.999Z</time></trkpt><trkpt lat="42.07234834365613" lon="13.70349082642934"><ele>1066.0</ele><time>2026-04-18T11:36:26.999Z</time></trkpt><trkpt lat="42.07222354177685" lon="13.703664440442797"><ele>1066.0</ele><time>2026-04-18T11:36:27.999Z</time></trkpt><trkpt lat="42.07210837376688" lon="13.70382730996006"><ele>1065.3333333333333</ele><time>2026-04-18T11:36:28.999Z</time></trkpt><trkpt lat="42.07199230211181" lon="13.703956797622784"><ele>1064.6666666666667</ele><time>2026-04-18T11:36:29.999Z</time></trkpt><trkpt lat="42.071877067941514" lon="13.704092390083975"><ele>1064.0</ele><time>2026-04-18T11:36:30.999Z</time></trkpt><trkpt lat="42.07173283946514" lon="13.704244336181107"><ele>1067.3333333333335</ele><time>2026-04-18T11:36:31.999Z</time></trkpt><trkpt lat="42.071606175667526" lon="13.704349141302155"><ele>1070.6666666666667</ele><time>2026-04-18T11:36:32.999Z</time></trkpt><trkpt lat="42.07147456458813" lon="13.704395369718178"><ele>1074.0</ele><time>2026-04-18T11:36:34Z</time></trkpt><trkpt lat="42.07128128564269" lon="13.704385322033405"><ele>1074.0</ele><time>2026-04-18T11:36:35Z</time></trkpt><trkpt lat="42.07108034788059" lon="13.704376121547114"><ele>1074.0</ele><time>2026-04-18T11:36:36Z</time></trkpt><trkpt lat="42.07085375351897" lon="13.704358150334086"><ele>1074.0</ele><time>2026-04-18T11:36:37Z</time></trkpt><trkpt lat="42.07063410939901" lon="13.704357664338149"><ele>1072.3333333333333</ele><time>2026-04-18T11:36:38Z</time></trkpt><trkpt lat="42.070444184825526" lon="13.704356560903387"><ele>1070.6666666666665</ele><time>2026-04-18T11:36:39Z</time></trkpt><trkpt lat="42.07028482291759" lon="13.704405108495441"><ele>1069.0</ele><time>2026-04-18T11:36:40Z</time></trkpt><trkpt lat="42.070101022006384" lon="13.704510905111702"><ele>1069.0</ele><time>2026-04-18T11:36:41Z</time></trkpt><trkpt lat="42.069945478521284" lon="13.704691173638626"><ele>1069.0</ele><time>2026-04-18T11:36:42Z</time></trkpt><trkpt lat="42.069779144136575" lon="13.704894613678038"><ele>1069.0</ele><time>2026-04-18T11:36:43Z</time></trkpt><trkpt lat="42.06962012654633" lon="13.705080300988207"><ele>1070.0</ele><time>2026-04-18T11:36:44Z</time></trkpt><trkpt lat="42.069424548699885" lon="13.705319952095467"><ele>1071.0</ele><time>2026-04-18T11:36:45Z</time></trkpt><trkpt lat="42.069252110213505" lon="13.70547723402517"><ele>1077.0</ele><time>2026-04-18T11:36:46Z</time></trkpt><trkpt lat="42.069075825895844" lon="13.705572873028279"><ele>1083.0</ele><time>2026-04-18T11:36:47Z</time></trkpt><trkpt lat="42.06887036969707" lon="13.705692319136988"><ele>1089.0</ele><time>2026-04-18T11:36:48Z</time></trkpt><trkpt lat="42.06865561697273" lon="13.705787435509572"><ele>1089.0</ele><time>2026-04-18T11:36:49Z</time></trkpt><trkpt lat="42.0684158313732" lon="13.705855414614618"><ele>1089.0</ele><time>2026-04-18T11:36:50Z</time></trkpt><trkpt lat="42.068163857269475" lon="13.705911912459891"><ele>1096.0</ele><time>2026-04-18T11:36:51Z</time></trkpt><trkpt lat="42.067900374602374" lon="13.705969017366643"><ele>1103.0</ele><time>2026-04-18T11:36:52Z</time></trkpt><trkpt lat="42.0676581406912" lon="13.706019070998956"><ele>1106.0</ele><time>2026-04-18T11:36:53Z</time></trkpt><trkpt lat="42.067413227687645" lon="13.706049633087696"><ele>1109.0</ele><time>2026-04-18T11:36:54Z</time></trkpt><trkpt lat="42.067168932597916" lon="13.706068439153666"><ele>1109.0</ele><time>2026-04-18T11:36:55Z</time></trkpt><trkpt lat="42.06692937585983" lon="13.70606948977168"><ele>1109.0</ele><time>2026-04-18T11:36:56Z</time></trkpt><trkpt lat="42.06668409339588" lon="13.706067187194275"><ele>1096.0</ele><time>2026-04-18T11:36:57Z</time></trkpt><trkpt lat="42.06644137349553" lon="13.706084269739291"><ele>1083.0</ele><time>2026-04-18T11:36:58Z</time></trkpt><trkpt lat="42.06620447531541" lon="13.706139663712708"><ele>1083.0</ele><time>2026-04-18T11:36:59Z</time></trkpt><trkpt lat="42.06598432085933" lon="13.706211437231884"><ele>1083.0</ele><time>2026-04-18T11:37:00Z</time></trkpt><trkpt lat="42.065780780025044" lon="13.706257055528026"><ele>1083.0</ele><time>2026-04-18T11:37:01Z</time></trkpt><trkpt lat="42.06555483521855" lon="13.706241403138872"><ele>1088.5</ele><time>2026-04-18T11:37:02Z</time></trkpt><trkpt lat="42.065332841100165" lon="13.706225113332922"><ele>1094.0</ele><time>2026-04-18T11:37:03Z</time></trkpt><trkpt lat="42.06510190452056" lon="13.706167759436756"><ele>1101.3333333333335</ele><time>2026-04-18T11:37:04Z</time></trkpt><trkpt lat="42.06486553777274" lon="13.706146500847689"><ele>1108.6666666666667</ele><time>2026-04-18T11:37:05Z</time></trkpt><trkpt lat="42.06465408541103" lon="13.706134074091404"><ele>1116.0</ele><time>2026-04-18T11:37:06Z</time></trkpt><trkpt lat="42.06447009091382" lon="13.706132959495386"><ele>1116.0</ele><time>2026-04-18T11:37:07Z</time></trkpt><trkpt lat="42.06431287340892" lon="13.706133049392536"><ele>1116.0</ele><time>2026-04-18T11:37:08Z</time></trkpt><trkpt lat="42.06417491095415" lon="13.706109569556904"><ele>1116.0</ele><time>2026-04-18T11:37:09Z</time></trkpt><trkpt lat="42.06405698192173" lon="13.706030644187424"><ele>1116.0</ele><time>2026-04-18T11:37:10Z</time></trkpt><trkpt lat="42.06393951334368" lon="13.705886429414324"><ele>1114.6666666666667</ele><time>2026-04-18T11:37:11Z</time></trkpt><trkpt lat="42.063815443396194" lon="13.705695263584937"><ele>1113.3333333333335</ele><time>2026-04-18T11:37:12Z</time></trkpt><trkpt lat="42.06368758276101" lon="13.70548303345997"><ele>1112.0</ele><time>2026-04-18T11:37:13Z</time></trkpt><trkpt lat="42.06355132038101" lon="13.705272900713666"><ele>1109.6666666666667</ele><time>2026-04-18T11:37:14Z</time></trkpt><trkpt lat="42.063436250340246" lon="13.705080569010741"><ele>1107.3333333333333</ele><time>2026-04-18T11:37:15Z</time></trkpt><trkpt lat="42.06334032178325" lon="13.704904340851817"><ele>1105.0</ele><time>2026-04-18T11:37:16Z</time></trkpt><trkpt lat="42.06326320390498" lon="13.704728487831332"><ele>1098.0</ele><time>2026-04-18T11:37:17Z</time></trkpt><trkpt lat="42.06320917218114" lon="13.704505190756944"><ele>1091.0</ele><time>2026-04-18T11:37:18Z</time></trkpt><trkpt lat="42.06317666386133" lon="13.70423031875272"><ele>1084.0</ele><time>2026-04-18T11:37:19Z</time></trkpt><trkpt lat="42.06313815659346" lon="13.703944349567749"><ele>1084.0</ele><time>2026-04-18T11:37:20Z</time></trkpt><trkpt lat="42.063085175250116" lon="13.703666935907226"><ele>1084.0</ele><time>2026-04-18T11:37:21Z</time></trkpt><trkpt lat="42.06301309832173" lon="13.703426611349716"><ele>1084.0</ele><time>2026-04-18T11:37:22Z</time></trkpt><trkpt lat="42.06291269991487" lon="13.703203570336225"><ele>1087.0</ele><time>2026-04-18T11:37:23Z</time></trkpt><trkpt lat="42.062786269018844" lon="13.702996086340105"><ele>1090.0</ele><time>2026-04-18T11:37:24Z</time></trkpt><trkpt lat="42.062665277796896" lon="13.70282931225805"><ele>1093.0</ele><time>2026-04-18T11:37:25Z</time></trkpt><trkpt lat="42.06257563896922" lon="13.702686940686247"><ele>1096.3333333333333</ele><time>2026-04-18T11:37:26Z</time></trkpt><trkpt lat="42.062517141006566" lon="13.702517409491596"><ele>1099.6666666666667</ele><time>2026-04-18T11:37:27Z</time></trkpt><trkpt lat="42.06248802943518" lon="13.702308760052889"><ele>1103.0</ele><time>2026-04-18T11:37:28Z</time></trkpt><trkpt lat="42.062483998117806" lon="13.702048835332658"><ele>1104.3333333333335</ele><time>2026-04-18T11:37:29Z</time></trkpt><trkpt lat="42.06250121571542" lon="13.701772469013163"><ele>1105.6666666666667</ele><time>2026-04-18T11:37:30Z</time></trkpt><trkpt lat="42.06250900969344" lon="13.701477197538862"><ele>1107.0</ele><time>2026-04-18T11:37:31Z</time></trkpt><trkpt lat="42.06251176722715" lon="13.70113659148479"><ele>1108.0</ele><time>2026-04-18T11:37:32Z</time></trkpt><trkpt lat="42.062510420419244" lon="13.700757187239665"><ele>1109.0</ele><time>2026-04-18T11:37:33Z</time></trkpt><trkpt lat="42.06250759965823" lon="13.700370061997873"><ele>1109.5</ele><time>2026-04-18T11:37:34Z</time></trkpt><trkpt lat="42.06250406290694" lon="13.699951508429855"><ele>1110.0</ele><time>2026-04-18T11:37:35Z</time></trkpt><trkpt lat="42.062486237276545" lon="13.69950822396107"><ele>1108.5</ele><time>2026-04-18T11:37:36Z</time></trkpt><trkpt lat="42.062463913102214" lon="13.69906637299507"><ele>1107.0</ele><time>2026-04-18T11:37:37Z</time></trkpt><trkpt lat="42.06247128376753" lon="13.698651273115022"><ele>1105.5</ele><time>2026-04-18T11:37:38Z</time></trkpt><trkpt lat="42.062509065820564" lon="13.698233485563017"><ele>1104.0</ele><time>2026-04-18T11:37:39Z</time></trkpt><trkpt lat="42.06251518523529" lon="13.697797438918984"><ele>1103.0</ele><time>2026-04-18T11:37:40Z</time></trkpt><trkpt lat="42.062485831811834" lon="13.697332488426104"><ele>1102.0</ele><time>2026-04-18T11:37:41Z</time></trkpt><trkpt lat="42.06243909941696" lon="13.696842116829105"><ele>1090.0</ele><time>2026-04-18T11:37:42Z</time></trkpt><trkpt lat="42.062406750870615" lon="13.69635474840474"><ele>1078.0</ele><time>2026-04-18T11:37:42.999Z</time></trkpt><trkpt lat="42.062382547198204" lon="13.695921360473692"><ele>1077.5</ele><time>2026-04-18T11:37:43.999Z</time></trkpt><trkpt lat="42.06235962383297" lon="13.695543064452986"><ele>1077.0</ele><time>2026-04-18T11:37:44.999Z</time></trkpt><trkpt lat="42.062336112258976" lon="13.695206331934052"><ele>1077.0</ele><time>2026-04-18T11:37:45.999Z</time></trkpt><trkpt lat="42.062319960758344" lon="13.694900606605882"><ele>1077.0</ele><time>2026-04-18T11:37:46.999Z</time></trkpt><trkpt lat="42.06230411863022" lon="13.694617602898477"><ele>1077.0</ele><time>2026-04-18T11:37:47.999Z</time></trkpt><trkpt lat="42.06228848641501" lon="13.694377003297852"><ele>1079.3333333333333</ele><time>2026-04-18T11:37:48.999Z</time></trkpt><trkpt lat="42.06226866609471" lon="13.694159163508468"><ele>1081.6666666666665</ele><time>2026-04-18T11:37:49.999Z</time></trkpt><trkpt lat="42.062231908159376" lon="13.69394134866404"><ele>1084.0</ele><time>2026-04-18T11:37:50.999Z</time></trkpt><trkpt lat="42.0621566188672" lon="13.693712640261639"><ele>1087.6666666666665</ele><time>2026-04-18T11:37:51.999Z</time></trkpt><trkpt lat="42.06205815299744" lon="13.693511308125753"><ele>1091.3333333333333</ele><time>2026-04-18T11:37:52.999Z</time></trkpt><trkpt lat="42.061961619628576" lon="13.693349486184836"><ele>1095.0</ele><time>2026-04-18T11:37:53.999Z</time></trkpt><trkpt lat="42.06189173438192" lon="13.693207955979469"><ele>1095.0</ele><time>2026-04-18T11:37:54.999Z</time></trkpt><trkpt lat="42.06186453801935" lon="13.693063104385299"><ele>1095.0</ele><time>2026-04-18T11:37:55.999Z</time></trkpt><trkpt lat="42.06189401991401" lon="13.692911193581786"><ele>1095.0</ele><time>2026-04-18T11:37:56.999Z</time></trkpt><trkpt lat="42.06198317595168" lon="13.692747925101502"><ele>1095.0</ele><time>2026-04-18T11:37:57.999Z</time></trkpt><trkpt lat="42.06210426503395" lon="13.692539608465284"><ele>1095.0</ele><time>2026-04-18T11:37:58.999Z</time></trkpt><trkpt lat="42.062234589663056" lon="13.692284517224532"><ele>1095.0</ele><time>2026-04-18T11:37:59.999Z</time></trkpt><trkpt lat="42.06238077608822" lon="13.692054340623612"><ele>1091.5</ele><time>2026-04-18T11:38:00.999Z</time></trkpt><trkpt lat="42.06254139936913" lon="13.691797781626446"><ele>1088.0</ele><time>2026-04-18T11:38:01.999Z</time></trkpt><trkpt lat="42.06269807823936" lon="13.691541437091677"><ele>1088.0</ele><time>2026-04-18T11:38:02.999Z</time></trkpt><trkpt lat="42.06286768834003" lon="13.691260162171373"><ele>1088.0</ele><time>2026-04-18T11:38:03.999Z</time></trkpt><trkpt lat="42.06302237322063" lon="13.690950105146097"><ele>1091.0</ele><time>2026-04-18T11:38:04.999Z</time></trkpt><trkpt lat="42.06316309851427" lon="13.690613426625564"><ele>1094.0</ele><time>2026-04-18T11:38:05.999Z</time></trkpt><trkpt lat="42.06329672980651" lon="13.69027641966596"><ele>1089.5</ele><time>2026-04-18T11:38:06.999Z</time></trkpt><trkpt lat="42.06342991550561" lon="13.689967592716698"><ele>1085.0</ele><time>2026-04-18T11:38:07.999Z</time></trkpt><trkpt lat="42.06355396481866" lon="13.689685093314544"><ele>1081.6666666666667</ele><time>2026-04-18T11:38:08.999Z</time></trkpt><trkpt lat="42.06366768579136" lon="13.689418113778713"><ele>1078.3333333333333</ele><time>2026-04-18T11:38:09.999Z</time></trkpt><trkpt lat="42.06377386216264" lon="13.689165995671868"><ele>1075.0</ele><time>2026-04-18T11:38:10.999Z</time></trkpt><trkpt lat="42.06386276591449" lon="13.688937213194368"><ele>1075.0</ele><time>2026-04-18T11:38:11.999Z</time></trkpt><trkpt lat="42.0639591085941" lon="13.688748892215534"><ele>1075.0</ele><time>2026-04-18T11:38:12.999Z</time></trkpt><trkpt lat="42.06403424294819" lon="13.68857002254434"><ele>1075.0</ele><time>2026-04-18T11:38:13.999Z</time></trkpt><trkpt lat="42.0639461431461" lon="13.688287608594159"><ele>1073.0</ele><time>2026-04-18T11:38:14.999Z</time></trkpt><trkpt lat="42.063889211574775" lon="13.688019676737454"><ele>1071.0</ele><time>2026-04-18T11:38:15.999Z</time></trkpt><trkpt lat="42.063844038680024" lon="13.687777614286476"><ele>1069.0</ele><time>2026-04-18T11:38:16.999Z</time></trkpt><trkpt lat="42.0638339445883" lon="13.687553622743039"><ele>1068.3333333333333</ele><time>2026-04-18T11:38:17.999Z</time></trkpt><trkpt lat="42.06385327794613" lon="13.687304956669259"><ele>1067.6666666666667</ele><time>2026-04-18T11:38:18.999Z</time></trkpt><trkpt lat="42.06390220258788" lon="13.687037292990812"><ele>1067.0</ele><time>2026-04-18T11:38:19.999Z</time></trkpt><trkpt lat="42.063970815349315" lon="13.686755702657337"><ele>1066.6666666666667</ele><time>2026-04-18T11:38:20.999Z</time></trkpt><trkpt lat="42.064046635474526" lon="13.686483118147066"><ele>1066.3333333333333</ele><time>2026-04-18T11:38:21.999Z</time></trkpt><trkpt lat="42.06411851804098" lon="13.68624488968158"><ele>1066.0</ele><time>2026-04-18T11:38:22.999Z</time></trkpt><trkpt lat="42.06418065835565" lon="13.686020905070512"><ele>1067.3333333333333</ele><time>2026-04-18T11:38:23.999Z</time></trkpt><trkpt lat="42.06421937718484" lon="13.68579981458336"><ele>1068.6666666666667</ele><time>2026-04-18T11:38:24.999Z</time></trkpt><trkpt lat="42.064213351015916" lon="13.68557356690805"><ele>1070.0</ele><time>2026-04-18T11:38:25.999Z</time></trkpt><trkpt lat="42.064153720411106" lon="13.685327333180194"><ele>1065.0</ele><time>2026-04-18T11:38:26.999Z</time></trkpt><trkpt lat="42.064048428920294" lon="13.68506132526785"><ele>1060.0</ele><time>2026-04-18T11:38:27.999Z</time></trkpt><trkpt lat="42.06394007296611" lon="13.684775893922561"><ele>1060.0</ele><time>2026-04-18T11:38:28.999Z</time></trkpt><trkpt lat="42.06384099774082" lon="13.684507604338885"><ele>1060.0</ele><time>2026-04-18T11:38:29.999Z</time></trkpt><trkpt lat="42.06375519616448" lon="13.684275071821514"><ele>1060.0</ele><time>2026-04-18T11:38:30.999Z</time></trkpt><trkpt lat="42.06366825764856" lon="13.68406704391117"><ele>1060.0</ele><time>2026-04-18T11:38:31.999Z</time></trkpt><trkpt lat="42.06353116747746" lon="13.683864300417207"><ele>1060.0</ele><time>2026-04-18T11:38:32.999Z</time></trkpt><trkpt lat="42.06333398225749" lon="13.683666796708005"><ele>1060.0</ele><time>2026-04-18T11:38:33.999Z</time></trkpt><trkpt lat="42.06309375199479" lon="13.683446466310212"><ele>1059.5</ele><time>2026-04-18T11:38:34.999Z</time></trkpt><trkpt lat="42.06283450725865" lon="13.683207355437435"><ele>1059.0</ele><time>2026-04-18T11:38:35.999Z</time></trkpt><trkpt lat="42.062568686784765" lon="13.682951571694579"><ele>1059.0</ele><time>2026-04-18T11:38:36.999Z</time></trkpt><trkpt lat="42.06229306425351" lon="13.682692997058973"><ele>1059.0</ele><time>2026-04-18T11:38:37.999Z</time></trkpt><trkpt lat="42.06201037015244" lon="13.682420073738804"><ele>1059.0</ele><time>2026-04-18T11:38:38.999Z</time></trkpt><trkpt lat="42.061727677453696" lon="13.682160651491094"><ele>1059.0</ele><time>2026-04-18T11:38:40Z</time></trkpt><trkpt lat="42.06146966228447" lon="13.681920093251028"><ele>1060.0</ele><time>2026-04-18T11:38:41Z</time></trkpt><trkpt lat="42.06121948231392" lon="13.681685432714122"><ele>1061.0</ele><time>2026-04-18T11:38:42Z</time></trkpt><trkpt lat="42.060966602397016" lon="13.681443997387294"><ele>1062.5</ele><time>2026-04-18T11:38:43Z</time></trkpt><trkpt lat="42.060719595572124" lon="13.681205232040087"><ele>1064.0</ele><time>2026-04-18T11:38:44Z</time></trkpt><trkpt lat="42.06046995836596" lon="13.680961203323248"><ele>1064.5</ele><time>2026-04-18T11:38:45Z</time></trkpt><trkpt lat="42.06021852396811" lon="13.680713753734656"><ele>1065.0</ele><time>2026-04-18T11:38:46Z</time></trkpt><trkpt lat="42.05997959372402" lon="13.680470588883354"><ele>1066.0</ele><time>2026-04-18T11:38:47Z</time></trkpt><trkpt lat="42.05975219635355" lon="13.680218874217376"><ele>1067.0</ele><time>2026-04-18T11:38:48Z</time></trkpt><trkpt lat="42.05953568245919" lon="13.679962364374532"><ele>1067.0</ele><time>2026-04-18T11:38:49Z</time></trkpt><trkpt lat="42.05933019408363" lon="13.679734293128114"><ele>1067.0</ele><time>2026-04-18T11:38:50Z</time></trkpt><trkpt lat="42.05914336936933" lon="13.679545505632671"><ele>1068.3333333333335</ele><time>2026-04-18T11:38:51Z</time></trkpt><trkpt lat="42.05897152481025" lon="13.679384942846632"><ele>1069.6666666666667</ele><time>2026-04-18T11:38:52Z</time></trkpt><trkpt lat="42.05881776589646" lon="13.679264224279533"><ele>1071.0</ele><time>2026-04-18T11:38:53Z</time></trkpt><trkpt lat="42.05867386710488" lon="13.679175477429627"><ele>1071.0</ele><time>2026-04-18T11:38:54Z</time></trkpt><trkpt lat="42.05854466479316" lon="13.67908388907055"><ele>1071.0</ele><time>2026-04-18T11:38:55Z</time></trkpt><trkpt lat="42.05842982854724" lon="13.678941186212873"><ele>1071.0</ele><time>2026-04-18T11:38:56Z</time></trkpt><trkpt lat="42.05833363711468" lon="13.678719006660675"><ele>1071.6666666666667</ele><time>2026-04-18T11:38:57Z</time></trkpt><trkpt lat="42.05826987991351" lon="13.678423835131595"><ele>1072.3333333333335</ele><time>2026-04-18T11:38:58Z</time></trkpt><trkpt lat="42.05821518230274" lon="13.678201177925981"><ele>1073.0</ele><time>2026-04-18T11:38:59Z</time></trkpt><trkpt lat="42.058185490524274" lon="13.678000277448644"><ele>1073.0</ele><time>2026-04-18T11:39:00Z</time></trkpt><trkpt lat="42.058195868857396" lon="13.677818194419368"><ele>1073.0</ele><time>2026-04-18T11:39:01Z</time></trkpt><trkpt lat="42.05826224331462" lon="13.677631812153736"><ele>1073.0</ele><time>2026-04-18T11:39:02Z</time></trkpt><trkpt lat="42.058379546697246" lon="13.677440701679108"><ele>1075.0</ele><time>2026-04-18T11:39:03Z</time></trkpt><trkpt lat="42.05854495898387" lon="13.677242156758133"><ele>1077.0</ele><time>2026-04-18T11:39:04Z</time></trkpt><trkpt lat="42.058698977597594" lon="13.677014656304815"><ele>1075.5</ele><time>2026-04-18T11:39:05Z</time></trkpt><trkpt lat="42.05881171445486" lon="13.676726679289608"><ele>1074.0</ele><time>2026-04-18T11:39:06Z</time></trkpt><trkpt lat="42.058929087439815" lon="13.676374444980864"><ele>1074.5</ele><time>2026-04-18T11:39:07Z</time></trkpt><trkpt lat="42.05905761700823" lon="13.676016865991263"><ele>1075.0</ele><time>2026-04-18T11:39:08Z</time></trkpt><trkpt lat="42.05918296754739" lon="13.675687027407278"><ele>1075.0</ele><time>2026-04-18T11:39:09Z</time></trkpt><trkpt lat="42.05929366789811" lon="13.675375673536799"><ele>1075.0</ele><time>2026-04-18T11:39:10Z</time></trkpt><trkpt lat="42.05940034216593" lon="13.675080350723576"><ele>1072.5</ele><time>2026-04-18T11:39:11Z</time></trkpt><trkpt lat="42.05950869441165" lon="13.674795818281508"><ele>1070.0</ele><time>2026-04-18T11:39:12Z</time></trkpt><trkpt lat="42.05964920188456" lon="13.674510661765613"><ele>1071.0</ele><time>2026-04-18T11:39:13Z</time></trkpt><trkpt lat="42.05979766929764" lon="13.674230720626888"><ele>1072.0</ele><time>2026-04-18T11:39:14Z</time></trkpt><trkpt lat="42.059951776615975" lon="13.673949139773171"><ele>1072.0</ele><time>2026-04-18T11:39:15Z</time></trkpt><trkpt lat="42.06010626260001" lon="13.673665125666393"><ele>1072.0</ele><time>2026-04-18T11:39:16Z</time></trkpt><trkpt lat="42.060260613037016" lon="13.673377083950797"><ele>1066.0</ele><time>2026-04-18T11:39:17Z</time></trkpt><trkpt lat="42.06041462239266" lon="13.673083421099134"><ele>1060.0</ele><time>2026-04-18T11:39:18Z</time></trkpt><trkpt lat="42.06057071919825" lon="13.672795103648006"><ele>1061.5</ele><time>2026-04-18T11:39:19Z</time></trkpt><trkpt lat="42.060748879835465" lon="13.672528748047295"><ele>1063.0</ele><time>2026-04-18T11:39:20Z</time></trkpt><trkpt lat="42.06087944728323" lon="13.672215005551493"><ele>1058.5</ele><time>2026-04-18T11:39:21Z</time></trkpt><trkpt lat="42.060991260656515" lon="13.671913688458847"><ele>1054.0</ele><time>2026-04-18T11:39:22Z</time></trkpt><trkpt lat="42.06109411027738" lon="13.671640211754651"><ele>1054.0</ele><time>2026-04-18T11:39:23Z</time></trkpt><trkpt lat="42.06118138446448" lon="13.671401910670149"><ele>1054.0</ele><time>2026-04-18T11:39:24Z</time></trkpt><trkpt lat="42.06124226062788" lon="13.671166333298135"><ele>1054.0</ele><time>2026-04-18T11:39:25Z</time></trkpt><trkpt lat="42.06127965126428" lon="13.670946096113633"><ele>1053.3333333333333</ele><time>2026-04-18T11:39:26Z</time></trkpt><trkpt lat="42.06132758518515" lon="13.670745878331518"><ele>1052.6666666666667</ele><time>2026-04-18T11:39:27Z</time></trkpt><trkpt lat="42.0614257125323" lon="13.67055281993335"><ele>1052.0</ele><time>2026-04-18T11:39:28Z</time></trkpt><trkpt lat="42.06157182575563" lon="13.670345828839341"><ele>1052.0</ele><time>2026-04-18T11:39:29Z</time></trkpt><trkpt lat="42.06171906740636" lon="13.670121018918234"><ele>1052.0</ele><time>2026-04-18T11:39:30Z</time></trkpt><trkpt lat="42.0618512184978" lon="13.669877802872762"><ele>1052.0</ele><time>2026-04-18T11:39:31Z</time></trkpt><trkpt lat="42.06197543501851" lon="13.669627174208712"><ele>1047.6666666666667</ele><time>2026-04-18T11:39:32Z</time></trkpt><trkpt lat="42.062100724840114" lon="13.669374122206806"><ele>1043.3333333333333</ele><time>2026-04-18T11:39:33Z</time></trkpt><trkpt lat="42.06221487707357" lon="13.669143644846917"><ele>1039.0</ele><time>2026-04-18T11:39:34Z</time></trkpt><trkpt lat="42.06233853474463" lon="13.668947452834749"><ele>1039.6666666666665</ele><time>2026-04-18T11:39:35Z</time></trkpt><trkpt lat="42.06248205506866" lon="13.668791813358535"><ele>1040.3333333333333</ele><time>2026-04-18T11:39:36Z</time></trkpt><trkpt lat="42.062623908975866" lon="13.668632697186975"><ele>1041.0</ele><time>2026-04-18T11:39:37Z</time></trkpt><trkpt lat="42.062741757907595" lon="13.668404608872091"><ele>1041.0</ele><time>2026-04-18T11:39:38Z</time></trkpt><trkpt lat="42.062830522493066" lon="13.668198964975357"><ele>1041.0</ele><time>2026-04-18T11:39:39Z</time></trkpt><trkpt lat="42.062923946491445" lon="13.668024575553552"><ele>1041.0</ele><time>2026-04-18T11:39:40Z</time></trkpt><trkpt lat="42.06301294881643" lon="13.667857383042557"><ele>1038.0</ele><time>2026-04-18T11:39:41Z</time></trkpt><trkpt lat="42.06309037162978" lon="13.667678319496678"><ele>1035.0</ele><time>2026-04-18T11:39:42Z</time></trkpt><trkpt lat="42.06312097245245" lon="13.667444171705274"><ele>1032.0</ele><time>2026-04-18T11:39:43Z</time></trkpt><trkpt lat="42.06308540523191" lon="13.667194338782021"><ele>1030.6666666666667</ele><time>2026-04-18T11:39:44Z</time></trkpt><trkpt lat="42.06306377223209" lon="13.666909894327706"><ele>1029.3333333333335</ele><time>2026-04-18T11:39:45Z</time></trkpt><trkpt lat="42.063027496294794" lon="13.666631729247849"><ele>1028.0</ele><time>2026-04-18T11:39:46Z</time></trkpt><trkpt lat="42.06298294021161" lon="13.666386461539386"><ele>1028.0</ele><time>2026-04-18T11:39:46.999Z</time></trkpt><trkpt lat="42.062930286702574" lon="13.666160844849701"><ele>1028.0</ele><time>2026-04-18T11:39:47.999Z</time></trkpt><trkpt lat="42.06282832036474" lon="13.66594790588137"><ele>1028.0</ele><time>2026-04-18T11:39:48.999Z</time></trkpt><trkpt lat="42.06269835901566" lon="13.665733835359932"><ele>1028.6666666666667</ele><time>2026-04-18T11:39:49.999Z</time></trkpt><trkpt lat="42.06257988886367" lon="13.66553524949229"><ele>1029.3333333333333</ele><time>2026-04-18T11:39:50.999Z</time></trkpt><trkpt lat="42.062469655138955" lon="13.665367942894191"><ele>1030.0</ele><time>2026-04-18T11:39:51.999Z</time></trkpt><trkpt lat="42.06238431132304" lon="13.665229862744873"><ele>1027.75</ele><time>2026-04-18T11:39:52.999Z</time></trkpt><trkpt lat="42.062320829301164" lon="13.665099494242313"><ele>1025.5</ele><time>2026-04-18T11:39:53.999Z</time></trkpt><trkpt lat="42.06229161211658" lon="13.664961356720617"><ele>1023.25</ele><time>2026-04-18T11:39:54.999Z</time></trkpt><trkpt lat="42.06232402261625" lon="13.66479748994524"><ele>1021.0</ele><time>2026-04-18T11:39:55.999Z</time></trkpt><trkpt lat="42.06239550561071" lon="13.664615105878166"><ele>1022.6666666666666</ele><time>2026-04-18T11:39:56.999Z</time></trkpt><trkpt lat="42.062496268239926" lon="13.664400692231323"><ele>1024.3333333333333</ele><time>2026-04-18T11:39:57.999Z</time></trkpt><trkpt lat="42.06259940000956" lon="13.664180530371658"><ele>1026.0</ele><time>2026-04-18T11:39:58.999Z</time></trkpt><trkpt lat="42.062709562289946" lon="13.663944972314784"><ele>1026.0</ele><time>2026-04-18T11:39:59.999Z</time></trkpt><trkpt lat="42.06281475983554" lon="13.663721036506754"><ele>1026.0</ele><time>2026-04-18T11:40:00.999Z</time></trkpt><trkpt lat="42.062908966667216" lon="13.663514467533298"><ele>1026.0</ele><time>2026-04-18T11:40:01.999Z</time></trkpt><trkpt lat="42.063017161369096" lon="13.663317648600257"><ele>1027.3333333333333</ele><time>2026-04-18T11:40:02.999Z</time></trkpt><trkpt lat="42.06316235617141" lon="13.663138975331938"><ele>1028.6666666666665</ele><time>2026-04-18T11:40:03.999Z</time></trkpt><trkpt lat="42.06332840762495" lon="13.662958426881898"><ele>1030.0</ele><time>2026-04-18T11:40:04.999Z</time></trkpt><trkpt lat="42.063496240593786" lon="13.662807694749837"><ele>1026.3333333333333</ele><time>2026-04-18T11:40:05.999Z</time></trkpt><trkpt lat="42.06365225951195" lon="13.662672371457665"><ele>1022.6666666666667</ele><time>2026-04-18T11:40:06.999Z</time></trkpt><trkpt lat="42.06379660828672" lon="13.662534700242354"><ele>1019.0</ele><time>2026-04-18T11:40:07.999Z</time></trkpt><trkpt lat="42.06393960193246" lon="13.662425652786311"><ele>1019.0</ele><time>2026-04-18T11:40:08.999Z</time></trkpt><trkpt lat="42.0640580618374" lon="13.662286567834169"><ele>1019.0</ele><time>2026-04-18T11:40:09.999Z</time></trkpt><trkpt lat="42.064157651061336" lon="13.662101363213845"><ele>1019.0</ele><time>2026-04-18T11:40:10.999Z</time></trkpt><trkpt lat="42.06421219927142" lon="13.66188476562066"><ele>1018.6666666666667</ele><time>2026-04-18T11:40:11.999Z</time></trkpt><trkpt lat="42.064243676489156" lon="13.661676795472577"><ele>1018.3333333333333</ele><time>2026-04-18T11:40:12.999Z</time></trkpt><trkpt lat="42.064228928127335" lon="13.661444739186509"><ele>1018.0</ele><time>2026-04-18T11:40:13.999Z</time></trkpt><trkpt lat="42.06417506683646" lon="13.661191339838917"><ele>1013.5</ele><time>2026-04-18T11:40:14.999Z</time></trkpt><trkpt lat="42.0640759841235" lon="13.660910092470518"><ele>1009.0</ele><time>2026-04-18T11:40:15.999Z</time></trkpt><trkpt lat="42.06395547765682" lon="13.66064391670095"><ele>1009.0</ele><time>2026-04-18T11:40:16.999Z</time></trkpt><trkpt lat="42.06386079217092" lon="13.660380375231446"><ele>1009.0</ele><time>2026-04-18T11:40:17.999Z</time></trkpt><trkpt lat="42.06378100998915" lon="13.660101555635814"><ele>1009.0</ele><time>2026-04-18T11:40:18.999Z</time></trkpt><trkpt lat="42.06374656503802" lon="13.659777592109519"><ele>1007.0</ele><time>2026-04-18T11:40:19.999Z</time></trkpt><trkpt lat="42.06369954112163" lon="13.659425437806263"><ele>1005.0</ele><time>2026-04-18T11:40:20.999Z</time></trkpt><trkpt lat="42.06364570423818" lon="13.659061373553415"><ele>1005.0</ele><time>2026-04-18T11:40:21.999Z</time></trkpt><trkpt lat="42.06357186386972" lon="13.65871374263645"><ele>1005.0</ele><time>2026-04-18T11:40:22.999Z</time></trkpt><trkpt lat="42.06350498368723" lon="13.658364199333802"><ele>1005.0</ele><time>2026-04-18T11:40:23.999Z</time></trkpt><trkpt lat="42.06344095748766" lon="13.658038845451202"><ele>1005.0</ele><time>2026-04-18T11:40:24.999Z</time></trkpt><trkpt lat="42.06337754787066" lon="13.657721925011355"><ele>1003.5</ele><time>2026-04-18T11:40:25.999Z</time></trkpt><trkpt lat="42.06332961116893" lon="13.657392876882362"><ele>1002.0</ele><time>2026-04-18T11:40:26.999Z</time></trkpt><trkpt lat="42.06324920870184" lon="13.657073272411353"><ele>999.5</ele><time>2026-04-18T11:40:27.999Z</time></trkpt><trkpt lat="42.063188032522646" lon="13.656752989266428"><ele>997.0</ele><time>2026-04-18T11:40:28.999Z</time></trkpt><trkpt lat="42.06313498686515" lon="13.656451708036032"><ele>997.0</ele><time>2026-04-18T11:40:29.999Z</time></trkpt><trkpt lat="42.06310764366372" lon="13.6561795807873"><ele>997.0</ele><time>2026-04-18T11:40:30.999Z</time></trkpt><trkpt lat="42.06311981329529" lon="13.65592568953087"><ele>997.0</ele><time>2026-04-18T11:40:31.999Z</time></trkpt><trkpt lat="42.06310053514834" lon="13.65565423375259"><ele>994.5</ele><time>2026-04-18T11:40:32.999Z</time></trkpt><trkpt lat="42.063044855621435" lon="13.65533817329017"><ele>992.0</ele><time>2026-04-18T11:40:33.999Z</time></trkpt><trkpt lat="42.062973686127314" lon="13.655012880435226"><ele>991.0</ele><time>2026-04-18T11:40:34.999Z</time></trkpt><trkpt lat="42.06291340370183" lon="13.65469769279342"><ele>990.0</ele><time>2026-04-18T11:40:35.999Z</time></trkpt><trkpt lat="42.062859280839945" lon="13.65439992394907"><ele>988.5</ele><time>2026-04-18T11:40:36.999Z</time></trkpt><trkpt lat="42.06280290184406" lon="13.654104573068786"><ele>987.0</ele><time>2026-04-18T11:40:37.999Z</time></trkpt><trkpt lat="42.062741739446324" lon="13.653794790824989"><ele>984.0</ele><time>2026-04-18T11:40:38.999Z</time></trkpt><trkpt lat="42.06268078519565" lon="13.653477662970019"><ele>981.0</ele><time>2026-04-18T11:40:39.999Z</time></trkpt><trkpt lat="42.06262543628215" lon="13.6531699341179"><ele>981.0</ele><time>2026-04-18T11:40:40.999Z</time></trkpt><trkpt lat="42.062571964771784" lon="13.652879373900998"><ele>981.0</ele><time>2026-04-18T11:40:41.999Z</time></trkpt><trkpt lat="42.06251203091101" lon="13.652600985899955"><ele>981.0</ele><time>2026-04-18T11:40:42.999Z</time></trkpt><trkpt lat="42.062435834498615" lon="13.652340551785997"><ele>980.0</ele><time>2026-04-18T11:40:43.999Z</time></trkpt><trkpt lat="42.0623344893883" lon="13.652086125622377"><ele>979.0</ele><time>2026-04-18T11:40:44.999Z</time></trkpt><trkpt lat="42.06222471671202" lon="13.651845445496301"><ele>978.0</ele><time>2026-04-18T11:40:46Z</time></trkpt><trkpt lat="42.06212867036608" lon="13.651625337127792"><ele>976.0</ele><time>2026-04-18T11:40:47Z</time></trkpt><trkpt lat="42.06204688837508" lon="13.651435069786466"><ele>974.0</ele><time>2026-04-18T11:40:48Z</time></trkpt><trkpt lat="42.061975366660846" lon="13.651261969584171"><ele>972.0</ele><time>2026-04-18T11:40:49Z</time></trkpt><trkpt lat="42.06192246309121" lon="13.651113004701543"><ele>970.0</ele><time>2026-04-18T11:40:50Z</time></trkpt><trkpt lat="42.06189610776819" lon="13.650970782644098"><ele>968.75</ele><time>2026-04-18T11:40:51Z</time></trkpt><trkpt lat="42.061904658169354" lon="13.650827950272035"><ele>967.5</ele><time>2026-04-18T11:40:52Z</time></trkpt><trkpt lat="42.06195423285287" lon="13.650685120735124"><ele>966.25</ele><time>2026-04-18T11:40:53Z</time></trkpt><trkpt lat="42.06205527686711" lon="13.650525255634749"><ele>965.0</ele><time>2026-04-18T11:40:54Z</time></trkpt><trkpt lat="42.062195867927585" lon="13.650357101131936"><ele>966.0</ele><time>2026-04-18T11:40:55Z</time></trkpt><trkpt lat="42.0623215054124" lon="13.650220488029605"><ele>967.0</ele><time>2026-04-18T11:40:56Z</time></trkpt><trkpt lat="42.06241457263087" lon="13.65008311070866"><ele>968.0</ele><time>2026-04-18T11:40:57Z</time></trkpt><trkpt lat="42.06250520868899" lon="13.649913100053706"><ele>968.0</ele><time>2026-04-18T11:40:58Z</time></trkpt><trkpt lat="42.0625390576101" lon="13.64967690125462"><ele>968.0</ele><time>2026-04-18T11:40:59Z</time></trkpt><trkpt lat="42.06254542800127" lon="13.649444066244547"><ele>968.0</ele><time>2026-04-18T11:41:00Z</time></trkpt><trkpt lat="42.062554117340994" lon="13.649255467707876"><ele>966.5</ele><time>2026-04-18T11:41:01Z</time></trkpt><trkpt lat="42.06258607554996" lon="13.649082700713587"><ele>965.0</ele><time>2026-04-18T11:41:02Z</time></trkpt><trkpt lat="42.06265165195582" lon="13.648910930000492"><ele>963.5</ele><time>2026-04-18T11:41:03Z</time></trkpt><trkpt lat="42.06275528626222" lon="13.648767753699042"><ele>962.0</ele><time>2026-04-18T11:41:04Z</time></trkpt><trkpt lat="42.0628613171591" lon="13.64865297587745"><ele>960.0</ele><time>2026-04-18T11:41:05Z</time></trkpt><trkpt lat="42.062981193990545" lon="13.648586571512698"><ele>958.0</ele><time>2026-04-18T11:41:06Z</time></trkpt><trkpt lat="42.06310594408421" lon="13.648581565200043"><ele>956.0</ele><time>2026-04-18T11:41:07Z</time></trkpt><trkpt lat="42.06320889019144" lon="13.648599518871666"><ele>954.0</ele><time>2026-04-18T11:41:08Z</time></trkpt><trkpt lat="42.06332054411822" lon="13.648571839779537"><ele>954.0</ele><time>2026-04-18T11:41:09Z</time></trkpt><trkpt lat="42.06343370073949" lon="13.648490288946105"><ele>954.0</ele><time>2026-04-18T11:41:10Z</time></trkpt><trkpt lat="42.06353112341215" lon="13.648346519525893"><ele>954.0</ele><time>2026-04-18T11:41:11Z</time></trkpt><trkpt lat="42.063588406077876" lon="13.648178628567441"><ele>954.0</ele><time>2026-04-18T11:41:12Z</time></trkpt><trkpt lat="42.063595488467186" lon="13.647974474094276"><ele>952.0</ele><time>2026-04-18T11:41:13Z</time></trkpt><trkpt lat="42.06356290452894" lon="13.647748719008241"><ele>950.0</ele><time>2026-04-18T11:41:14Z</time></trkpt><trkpt lat="42.0635199892528" lon="13.647547714461192"><ele>948.0</ele><time>2026-04-18T11:41:15Z</time></trkpt><trkpt lat="42.06350223027649" lon="13.647386804990129"><ele>946.0</ele><time>2026-04-18T11:41:16Z</time></trkpt><trkpt lat="42.06354551368204" lon="13.647237396529412"><ele>946.0</ele><time>2026-04-18T11:41:17Z</time></trkpt><trkpt lat="42.063588916975085" lon="13.647065648521838"><ele>946.0</ele><time>2026-04-18T11:41:18Z</time></trkpt><trkpt lat="42.06372317056019" lon="13.646914904390155"><ele>946.0</ele><time>2026-04-18T11:41:19Z</time></trkpt><trkpt lat="42.06386355105873" lon="13.646719807465619"><ele>947.0</ele><time>2026-04-18T11:41:20Z</time></trkpt><trkpt lat="42.06401397176746" lon="13.646525643070275"><ele>948.0</ele><time>2026-04-18T11:41:21Z</time></trkpt><trkpt lat="42.064163858920885" lon="13.64637051642671"><ele>949.0</ele><time>2026-04-18T11:41:22Z</time></trkpt><trkpt lat="42.0642955993654" lon="13.64621954088478"><ele>945.3333333333333</ele><time>2026-04-18T11:41:23Z</time></trkpt><trkpt lat="42.06442778290296" lon="13.646103319824771"><ele>941.6666666666667</ele><time>2026-04-18T11:41:24Z</time></trkpt><trkpt lat="42.064565378019324" lon="13.646010417591848"><ele>938.0</ele><time>2026-04-18T11:41:25Z</time></trkpt><trkpt lat="42.06468831585354" lon="13.6459098808544"><ele>938.0</ele><time>2026-04-18T11:41:26Z</time></trkpt><trkpt lat="42.064800315390876" lon="13.645822575446584"><ele>938.0</ele><time>2026-04-18T11:41:27Z</time></trkpt><trkpt lat="42.06487711617111" lon="13.645684156262423"><ele>938.0</ele><time>2026-04-18T11:41:28Z</time></trkpt><trkpt lat="42.06493102343646" lon="13.645498095755748"><ele>938.0</ele><time>2026-04-18T11:41:29Z</time></trkpt><trkpt lat="42.06494385957337" lon="13.64527159982484"><ele>936.3333333333334</ele><time>2026-04-18T11:41:30Z</time></trkpt><trkpt lat="42.064923583826086" lon="13.645020202410482"><ele>934.6666666666667</ele><time>2026-04-18T11:41:31Z</time></trkpt><trkpt lat="42.06490089112622" lon="13.644790299028278"><ele>933.0</ele><time>2026-04-18T11:41:32Z</time></trkpt><trkpt lat="42.064883908509934" lon="13.644585179493026"><ele>933.5</ele><time>2026-04-18T11:41:33Z</time></trkpt><trkpt lat="42.064880706257476" lon="13.644421104028236"><ele>934.0</ele><time>2026-04-18T11:41:34Z</time></trkpt><trkpt lat="42.06489189553691" lon="13.644252770691594"><ele>934.5</ele><time>2026-04-18T11:41:35Z</time></trkpt><trkpt lat="42.06494736205142" lon="13.644111141766333"><ele>935.0</ele><time>2026-04-18T11:41:36Z</time></trkpt><trkpt lat="42.06502341680352" lon="13.64397475880598"><ele>935.0</ele><time>2026-04-18T11:41:37Z</time></trkpt><trkpt lat="42.06516064822651" lon="13.643874674187094"><ele>935.0</ele><time>2026-04-18T11:41:38Z</time></trkpt><trkpt lat="42.065324441098404" lon="13.643758600191005"><ele>935.0</ele><time>2026-04-18T11:41:39Z</time></trkpt><trkpt lat="42.06547136964775" lon="13.643620159663195"><ele>932.6666666666667</ele><time>2026-04-18T11:41:40Z</time></trkpt><trkpt lat="42.065590951468955" lon="13.643434784812342"><ele>930.3333333333333</ele><time>2026-04-18T11:41:41Z</time></trkpt><trkpt lat="42.065680294831836" lon="13.64321296821371"><ele>928.0</ele><time>2026-04-18T11:41:42Z</time></trkpt><trkpt lat="42.06577855875654" lon="13.642958971874831"><ele>926.5</ele><time>2026-04-18T11:41:43Z</time></trkpt><trkpt lat="42.06593916973397" lon="13.642731027922258"><ele>925.0</ele><time>2026-04-18T11:41:44Z</time></trkpt><trkpt lat="42.06609669662741" lon="13.642479559864299"><ele>925.0</ele><time>2026-04-18T11:41:45Z</time></trkpt><trkpt lat="42.06626423265851" lon="13.642248427064029"><ele>925.0</ele><time>2026-04-18T11:41:46Z</time></trkpt><trkpt lat="42.06641899671034" lon="13.64201198347937"><ele>924.0</ele><time>2026-04-18T11:41:47Z</time></trkpt><trkpt lat="42.06657737815036" lon="13.64177830980513"><ele>923.0</ele><time>2026-04-18T11:41:47.999Z</time></trkpt><trkpt lat="42.066736632837696" lon="13.641553816977503"><ele>923.0</ele><time>2026-04-18T11:41:48.999Z</time></trkpt><trkpt lat="42.066893087619064" lon="13.641327087903512"><ele>923.0</ele><time>2026-04-18T11:41:49.999Z</time></trkpt><trkpt lat="42.06704672580221" lon="13.641099379555845"><ele>922.6666666666667</ele><time>2026-04-18T11:41:50.999Z</time></trkpt><trkpt lat="42.06720008121517" lon="13.640867906895943"><ele>922.3333333333333</ele><time>2026-04-18T11:41:51.999Z</time></trkpt><trkpt lat="42.0673479909389" lon="13.640651358867974"><ele>922.0</ele><time>2026-04-18T11:41:52.999Z</time></trkpt><trkpt lat="42.06749080957703" lon="13.640436498659108"><ele>918.0</ele><time>2026-04-18T11:41:53.999Z</time></trkpt><trkpt lat="42.06763293260905" lon="13.640199788373891"><ele>914.0</ele><time>2026-04-18T11:41:54.999Z</time></trkpt><trkpt lat="42.06776265730913" lon="13.639935323054832"><ele>914.0</ele><time>2026-04-18T11:41:55.999Z</time></trkpt><trkpt lat="42.06787255820835" lon="13.63967009978683"><ele>914.0</ele><time>2026-04-18T11:41:56.999Z</time></trkpt><trkpt lat="42.06797579132957" lon="13.639390305002756"><ele>909.5</ele><time>2026-04-18T11:41:57.999Z</time></trkpt><trkpt lat="42.06806182576226" lon="13.639060613827889"><ele>905.0</ele><time>2026-04-18T11:41:58.999Z</time></trkpt><trkpt lat="42.068121227284244" lon="13.63869726523714"><ele>901.0</ele><time>2026-04-18T11:41:59.999Z</time></trkpt><trkpt lat="42.06816509586838" lon="13.638370966830667"><ele>897.0</ele><time>2026-04-18T11:42:00.999Z</time></trkpt><trkpt lat="42.068217855068184" lon="13.6380681867611"><ele>895.3333333333333</ele><time>2026-04-18T11:42:01.999Z</time></trkpt><trkpt lat="42.068267627467016" lon="13.637779304720722"><ele>893.6666666666666</ele><time>2026-04-18T11:42:02.999Z</time></trkpt><trkpt lat="42.068331524243916" lon="13.637491357242073"><ele>892.0</ele><time>2026-04-18T11:42:03.999Z</time></trkpt><trkpt lat="42.06842685749552" lon="13.6372005016394"><ele>893.5</ele><time>2026-04-18T11:42:04.999Z</time></trkpt><trkpt lat="42.06854144258996" lon="13.636904788092583"><ele>895.0</ele><time>2026-04-18T11:42:05.999Z</time></trkpt><trkpt lat="42.0686533684169" lon="13.636593836669745"><ele>895.0</ele><time>2026-04-18T11:42:06.999Z</time></trkpt><trkpt lat="42.068759778755535" lon="13.63629994909958"><ele>895.0</ele><time>2026-04-18T11:42:07.999Z</time></trkpt><trkpt lat="42.06885764580664" lon="13.636030387690099"><ele>892.3333333333333</ele><time>2026-04-18T11:42:08.999Z</time></trkpt><trkpt lat="42.06894209479347" lon="13.635789114281335"><ele>889.6666666666667</ele><time>2026-04-18T11:42:09.999Z</time></trkpt><trkpt lat="42.069018484101896" lon="13.635558536510434"><ele>887.0</ele><time>2026-04-18T11:42:10.999Z</time></trkpt><trkpt lat="42.06909284266379" lon="13.635339554413417"><ele>888.6666666666667</ele><time>2026-04-18T11:42:11.999Z</time></trkpt><trkpt lat="42.06917062577002" lon="13.635140659831158"><ele>890.3333333333333</ele><time>2026-04-18T11:42:12.999Z</time></trkpt><trkpt lat="42.06926673260453" lon="13.634972070001238"><ele>892.0</ele><time>2026-04-18T11:42:13.999Z</time></trkpt><trkpt lat="42.06937208073801" lon="13.63483027652771"><ele>892.0</ele><time>2026-04-18T11:42:14.999Z</time></trkpt><trkpt lat="42.069465842521446" lon="13.634707781269856"><ele>892.0</ele><time>2026-04-18T11:42:15.999Z</time></trkpt><trkpt lat="42.06953445749852" lon="13.634597547234272"><ele>892.0</ele><time>2026-04-18T11:42:16.999Z</time></trkpt><trkpt lat="42.06959581892733" lon="13.634504997286959"><ele>892.0</ele><time>2026-04-18T11:42:17.999Z</time></trkpt><trkpt lat="42.069638604808844" lon="13.634434549760039"><ele>892.0</ele><time>2026-04-18T11:42:18.999Z</time></trkpt><trkpt lat="42.06968438283538" lon="13.634349723692367"><ele>891.2</ele><time>2026-04-18T11:42:20.999Z</time></trkpt><trkpt lat="42.06973489188728" lon="13.634275768234001"><ele>890.4000000000001</ele><time>2026-04-18T11:42:25.999Z</time></trkpt><trkpt lat="42.06971840667693" lon="13.634145211098401"><ele>889.5999999999999</ele><time>2026-04-18T11:42:49.999Z</time></trkpt><trkpt lat="42.06969618956853" lon="13.634016151994633"><ele>888.8</ele><time>2026-04-18T11:42:50.999Z</time></trkpt><trkpt lat="42.06968907984985" lon="13.633867050970709"><ele>888.0</ele><time>2026-04-18T11:42:52Z</time></trkpt><trkpt lat="42.069672979925635" lon="13.633704950728793"><ele>887.0</ele><time>2026-04-18T11:42:53Z</time></trkpt><trkpt lat="42.06965017418961" lon="13.633540716076855"><ele>886.0</ele><time>2026-04-18T11:42:54Z</time></trkpt><trkpt lat="42.0696232350243" lon="13.633356240280273"><ele>885.0</ele><time>2026-04-18T11:42:55Z</time></trkpt><trkpt lat="42.069582165943714" lon="13.633154704741987"><ele>884.0</ele><time>2026-04-18T11:42:56Z</time></trkpt><trkpt lat="42.06953270986307" lon="13.632967824757523"><ele>884.0</ele><time>2026-04-18T11:42:57Z</time></trkpt><trkpt lat="42.069487590247284" lon="13.632810721942981"><ele>884.0</ele><time>2026-04-18T11:42:58Z</time></trkpt><trkpt lat="42.06944258409472" lon="13.63266932447164"><ele>884.0</ele><time>2026-04-18T11:42:59Z</time></trkpt><trkpt lat="42.06940859866369" lon="13.632497518767316"><ele>884.0</ele><time>2026-04-18T11:43:00Z</time></trkpt><trkpt lat="42.06935285682588" lon="13.632302820689388"><ele>882.5</ele><time>2026-04-18T11:43:01Z</time></trkpt><trkpt lat="42.069303420127106" lon="13.632100767112178"><ele>881.0</ele><time>2026-04-18T11:43:02Z</time></trkpt><trkpt lat="42.06925419975981" lon="13.63191503612476"><ele>879.5</ele><time>2026-04-18T11:43:03Z</time></trkpt><trkpt lat="42.069208310259775" lon="13.631745163549475"><ele>878.0</ele><time>2026-04-18T11:43:04Z</time></trkpt><trkpt lat="42.06916814417821" lon="13.631587642268807"><ele>877.2</ele><time>2026-04-18T11:43:05Z</time></trkpt><trkpt lat="42.06912809279532" lon="13.631443164538451"><ele>876.4</ele><time>2026-04-18T11:43:06Z</time></trkpt><trkpt lat="42.06909257017573" lon="13.631311739285387"><ele>875.6000000000001</ele><time>2026-04-18T11:43:07Z</time></trkpt><trkpt lat="42.06905153810055" lon="13.63119750676705"><ele>874.8000000000001</ele><time>2026-04-18T11:43:08Z</time></trkpt><trkpt lat="42.06898693859483" lon="13.631093947750506"><ele>874.0</ele><time>2026-04-18T11:43:09Z</time></trkpt><trkpt lat="42.06890560620469" lon="13.6310078953722"><ele>872.25</ele><time>2026-04-18T11:43:10Z</time></trkpt><trkpt lat="42.06880688863205" lon="13.630944370755946"><ele>870.5</ele><time>2026-04-18T11:43:11Z</time></trkpt><trkpt lat="42.068700901960504" lon="13.630892161998874"><ele>868.75</ele><time>2026-04-18T11:43:12Z</time></trkpt><trkpt lat="42.06858097651259" lon="13.630861386095669"><ele>867.0</ele><time>2026-04-18T11:43:13Z</time></trkpt><trkpt lat="42.06846489523265" lon="13.63086630242105"><ele>867.0</ele><time>2026-04-18T11:43:14Z</time></trkpt><trkpt lat="42.06834331405683" lon="13.630911929193962"><ele>867.0</ele><time>2026-04-18T11:43:15Z</time></trkpt><trkpt lat="42.06821267715287" lon="13.631004821916049"><ele>867.0</ele><time>2026-04-18T11:43:16Z</time></trkpt><trkpt lat="42.06806800321962" lon="13.631127887409106"><ele>867.0</ele><time>2026-04-18T11:43:17Z</time></trkpt><trkpt lat="42.06790747565092" lon="13.631241598713869"><ele>867.6666666666667</ele><time>2026-04-18T11:43:18Z</time></trkpt><trkpt lat="42.067723530722695" lon="13.631306525192286"><ele>868.3333333333334</ele><time>2026-04-18T11:43:19Z</time></trkpt><trkpt lat="42.06752449856541" lon="13.63139116297963"><ele>869.0</ele><time>2026-04-18T11:43:20Z</time></trkpt><trkpt lat="42.067297355585794" lon="13.631438717197483"><ele>867.3333333333334</ele><time>2026-04-18T11:43:21Z</time></trkpt><trkpt lat="42.06710269887832" lon="13.63149709489491"><ele>865.6666666666667</ele><time>2026-04-18T11:43:22Z</time></trkpt><trkpt lat="42.066922429129974" lon="13.631567081555717"><ele>864.0</ele><time>2026-04-18T11:43:23Z</time></trkpt><trkpt lat="42.06674705047892" lon="13.631623151437504"><ele>862.75</ele><time>2026-04-18T11:43:24Z</time></trkpt><trkpt lat="42.06659452120376" lon="13.63167247356742"><ele>861.5</ele><time>2026-04-18T11:43:25Z</time></trkpt><trkpt lat="42.066466773019684" lon="13.63171191292248"><ele>860.25</ele><time>2026-04-18T11:43:26Z</time></trkpt><trkpt lat="42.06634102541485" lon="13.631743047974899"><ele>859.0</ele><time>2026-04-18T11:43:27Z</time></trkpt><trkpt lat="42.06622784153974" lon="13.631734740497247"><ele>859.0</ele><time>2026-04-18T11:43:28Z</time></trkpt><trkpt lat="42.066119226099524" lon="13.631667235652314"><ele>859.0</ele><time>2026-04-18T11:43:29Z</time></trkpt><trkpt lat="42.06601262810642" lon="13.631531111347627"><ele>859.0</ele><time>2026-04-18T11:43:30Z</time></trkpt><trkpt lat="42.06591130407706" lon="13.631366805592757"><ele>859.0</ele><time>2026-04-18T11:43:31Z</time></trkpt><trkpt lat="42.065820408684324" lon="13.63120556887441"><ele>855.6666666666666</ele><time>2026-04-18T11:43:32Z</time></trkpt><trkpt lat="42.06571363398871" lon="13.631009254884779"><ele>852.3333333333333</ele><time>2026-04-18T11:43:33Z</time></trkpt><trkpt lat="42.06560877699846" lon="13.63078028154578"><ele>849.0</ele><time>2026-04-18T11:43:34Z</time></trkpt><trkpt lat="42.06549356772448" lon="13.630544867461566"><ele>849.0</ele><time>2026-04-18T11:43:35Z</time></trkpt><trkpt lat="42.065377851418134" lon="13.630310492946032"><ele>849.0</ele><time>2026-04-18T11:43:36Z</time></trkpt><trkpt lat="42.06526079430473" lon="13.630082852146725"><ele>849.0</ele><time>2026-04-18T11:43:37Z</time></trkpt><trkpt lat="42.06514947101974" lon="13.629851152093156"><ele>848.6666666666667</ele><time>2026-04-18T11:43:38Z</time></trkpt><trkpt lat="42.06503635476456" lon="13.629621767371347"><ele>848.3333333333334</ele><time>2026-04-18T11:43:39Z</time></trkpt><trkpt lat="42.064931864494106" lon="13.62940334191743"><ele>848.0</ele><time>2026-04-18T11:43:40Z</time></trkpt><trkpt lat="42.06482412799031" lon="13.629189606734755"><ele>847.0</ele><time>2026-04-18T11:43:41Z</time></trkpt><trkpt lat="42.06472485006121" lon="13.628998303185135"><ele>846.0</ele><time>2026-04-18T11:43:42Z</time></trkpt><trkpt lat="42.06463044999732" lon="13.628818060644818"><ele>845.0</ele><time>2026-04-18T11:43:42.999Z</time></trkpt><trkpt lat="42.06454418683448" lon="13.628658278210924"><ele>845.3333333333334</ele><time>2026-04-18T11:43:43.999Z</time></trkpt><trkpt lat="42.06445172994676" lon="13.628522569668023"><ele>845.6666666666667</ele><time>2026-04-18T11:43:44.999Z</time></trkpt><trkpt lat="42.064326312459315" lon="13.628406805407685"><ele>846.0</ele><time>2026-04-18T11:43:45.999Z</time></trkpt><trkpt lat="42.064174760752415" lon="13.628320784975598"><ele>845.5</ele><time>2026-04-18T11:43:46.999Z</time></trkpt><trkpt lat="42.064026267672105" lon="13.628279484780936"><ele>845.0</ele><time>2026-04-18T11:43:47.999Z</time></trkpt><trkpt lat="42.06389277188171" lon="13.628234008782053"><ele>844.5</ele><time>2026-04-18T11:43:48.999Z</time></trkpt><trkpt lat="42.06375868560349" lon="13.628172030765029"><ele>844.0</ele><time>2026-04-18T11:43:49.999Z</time></trkpt><trkpt lat="42.06362052234223" lon="13.628115101078834"><ele>844.0</ele><time>2026-04-18T11:43:50.999Z</time></trkpt><trkpt lat="42.06348406313277" lon="13.62805782437122"><ele>844.0</ele><time>2026-04-18T11:43:51.999Z</time></trkpt><trkpt lat="42.06335584381833" lon="13.628005757399258"><ele>844.0</ele><time>2026-04-18T11:43:52.999Z</time></trkpt><trkpt lat="42.06322738197277" lon="13.627949298484234"><ele>844.0</ele><time>2026-04-18T11:43:53.999Z</time></trkpt><trkpt lat="42.06310036596497" lon="13.627881403028901"><ele>843.75</ele><time>2026-04-18T11:43:54.999Z</time></trkpt><trkpt lat="42.062966882889945" lon="13.627808284021732"><ele>843.5</ele><time>2026-04-18T11:43:55.999Z</time></trkpt><trkpt lat="42.062824591711546" lon="13.627735499477515"><ele>843.25</ele><time>2026-04-18T11:43:56.999Z</time></trkpt><trkpt lat="42.06269013442864" lon="13.62766808443888"><ele>843.0</ele><time>2026-04-18T11:43:57.999Z</time></trkpt><trkpt lat="42.06254752885081" lon="13.62759982897089"><ele>842.5</ele><time>2026-04-18T11:43:58.999Z</time></trkpt><trkpt lat="42.0623976325958" lon="13.627529176905982"><ele>842.0</ele><time>2026-04-18T11:43:59.999Z</time></trkpt><trkpt lat="42.06226107638688" lon="13.627464216027557"><ele>841.5</ele><time>2026-04-18T11:44:00.999Z</time></trkpt><trkpt lat="42.062137960502284" lon="13.627408899349671"><ele>841.0</ele><time>2026-04-18T11:44:01.999Z</time></trkpt><trkpt lat="42.06202514330146" lon="13.627352020671424"><ele>841.0</ele><time>2026-04-18T11:44:02.999Z</time></trkpt><trkpt lat="42.06192618490245" lon="13.627298669717863"><ele>841.0</ele><time>2026-04-18T11:44:03.999Z</time></trkpt><trkpt lat="42.06183123679724" lon="13.62725108422774"><ele>841.0</ele><time>2026-04-18T11:44:04.999Z</time></trkpt><trkpt lat="42.061750319145396" lon="13.62720462068293"><ele>841.0</ele><time>2026-04-18T11:44:05.999Z</time></trkpt><trkpt lat="42.061683352584495" lon="13.627164984981167"><ele>841.0</ele><time>2026-04-18T11:44:06.999Z</time></trkpt><trkpt lat="42.06159910525349" lon="13.62715824881"><ele>840.5999999999999</ele><time>2026-04-18T11:44:08.999Z</time></trkpt><trkpt lat="42.061498684600636" lon="13.627258564520497"><ele>840.2</ele><time>2026-04-18T11:44:10.999Z</time></trkpt><trkpt lat="42.06144155952938" lon="13.627360685285197"><ele>839.8</ele><time>2026-04-18T11:44:11.999Z</time></trkpt><trkpt lat="42.06136297934039" lon="13.62745855671752"><ele>839.4000000000001</ele><time>2026-04-18T11:44:12.999Z</time></trkpt><trkpt lat="42.06127504413788" lon="13.627571121962434"><ele>839.0</ele><time>2026-04-18T11:44:13.999Z</time></trkpt><trkpt lat="42.06118424417351" lon="13.627687518431745"><ele>839.0</ele><time>2026-04-18T11:44:14.999Z</time></trkpt><trkpt lat="42.06109071981317" lon="13.627808928385848"><ele>839.0</ele><time>2026-04-18T11:44:15.999Z</time></trkpt><trkpt lat="42.06099419904999" lon="13.627934691256772"><ele>839.0</ele><time>2026-04-18T11:44:16.999Z</time></trkpt><trkpt lat="42.060903330752325" lon="13.628080348661987"><ele>839.0</ele><time>2026-04-18T11:44:17.999Z</time></trkpt><trkpt lat="42.060801810436736" lon="13.628210820967597"><ele>837.0</ele><time>2026-04-18T11:44:18.999Z</time></trkpt><trkpt lat="42.060696802477054" lon="13.628334416498262"><ele>835.0</ele><time>2026-04-18T11:44:19.999Z</time></trkpt><trkpt lat="42.060598593294436" lon="13.628454322180302"><ele>833.0</ele><time>2026-04-18T11:44:20.999Z</time></trkpt><trkpt lat="42.06050390262037" lon="13.628568177339416"><ele>831.0</ele><time>2026-04-18T11:44:21.999Z</time></trkpt><trkpt lat="42.06042282825031" lon="13.628667782116208"><ele>830.8</ele><time>2026-04-18T11:44:22.999Z</time></trkpt><trkpt lat="42.06035060038356" lon="13.628764261188968"><ele>830.5999999999999</ele><time>2026-04-18T11:44:23.999Z</time></trkpt><trkpt lat="42.0602794233473" lon="13.628840714586834"><ele>830.4</ele><time>2026-04-18T11:44:24.999Z</time></trkpt><trkpt lat="42.06021984135799" lon="13.628917119497856"><ele>830.2</ele><time>2026-04-18T11:44:25.999Z</time></trkpt><trkpt lat="42.06014494537038" lon="13.629005422132597"><ele>830.0</ele><time>2026-04-18T11:44:26.999Z</time></trkpt><trkpt lat="42.06008788297288" lon="13.62908623234443"><ele>830.0</ele><time>2026-04-18T11:44:27.999Z</time></trkpt><trkpt lat="42.060021287856266" lon="13.629179497025188"><ele>830.0</ele><time>2026-04-18T11:44:28.999Z</time></trkpt><trkpt lat="42.05993881204099" lon="13.629269214399029"><ele>830.0</ele><time>2026-04-18T11:44:29.999Z</time></trkpt><trkpt lat="42.05985189494956" lon="13.629349009524914"><ele>830.0</ele><time>2026-04-18T11:44:30.999Z</time></trkpt><trkpt lat="42.059757842981604" lon="13.629399536878179"><ele>830.0</ele><time>2026-04-18T11:44:31.999Z</time></trkpt><trkpt lat="42.059658840002825" lon="13.629407449054632"><ele>829.0</ele><time>2026-04-18T11:44:32.999Z</time></trkpt><trkpt lat="42.059561563112126" lon="13.62941476633431"><ele>828.0</ele><time>2026-04-18T11:44:33.999Z</time></trkpt><trkpt lat="42.05948212811097" lon="13.629420077682406"><ele>827.0</ele><time>2026-04-18T11:44:34.999Z</time></trkpt><trkpt lat="42.05936719455145" lon="13.629318979131401"><ele>826.0</ele><time>2026-04-18T11:44:36.999Z</time></trkpt><trkpt lat="42.059298335535225" lon="13.629259930140263"><ele>825.0</ele><time>2026-04-18T11:44:37.999Z</time></trkpt><trkpt lat="42.05923428389098" lon="13.62920354594497"><ele>825.0</ele><time>2026-04-18T11:44:38.999Z</time></trkpt><trkpt lat="42.059167030929665" lon="13.629173000895806"><ele>825.0</ele><time>2026-04-18T11:44:39.999Z</time></trkpt><trkpt lat="42.05910587643404" lon="13.629118158814178"><ele>825.0</ele><time>2026-04-18T11:44:40.999Z</time></trkpt><trkpt lat="42.05904474406914" lon="13.629068955195828"><ele>825.0</ele><time>2026-04-18T11:44:41.999Z</time></trkpt><trkpt lat="42.05898254420085" lon="13.629012297858733"><ele>825.0</ele><time>2026-04-18T11:44:42.999Z</time></trkpt><trkpt lat="42.05891101570782" lon="13.628957949316277"><ele>825.0</ele><time>2026-04-18T11:44:43.999Z</time></trkpt><trkpt lat="42.058836447732574" lon="13.628914856103217"><ele>823.3333333333334</ele><time>2026-04-18T11:44:44.999Z</time></trkpt><trkpt lat="42.05875269614838" lon="13.628879434261101"><ele>821.6666666666667</ele><time>2026-04-18T11:44:45.999Z</time></trkpt><trkpt lat="42.05866748703388" lon="13.628848400575993"><ele>820.0</ele><time>2026-04-18T11:44:46.999Z</time></trkpt><trkpt lat="42.05858711664001" lon="13.62882570060167"><ele>818.3333333333334</ele><time>2026-04-18T11:44:47.999Z</time></trkpt><trkpt lat="42.05851295436968" lon="13.628806925524398"><ele>816.6666666666667</ele><time>2026-04-18T11:44:48.999Z</time></trkpt><trkpt lat="42.05844906697505" lon="13.628776679642728"><ele>815.0</ele><time>2026-04-18T11:44:49.999Z</time></trkpt><trkpt lat="42.05838859374064" lon="13.628748990064837"><ele>815.0000000000001</ele><time>2026-04-18T11:44:50.999Z</time></trkpt><trkpt lat="42.0583186354949" lon="13.628714951067025"><ele>815.0</ele><time>2026-04-18T11:44:51.999Z</time></trkpt><trkpt lat="42.05825560540541" lon="13.628682618145266"><ele>815.0</ele><time>2026-04-18T11:44:52.999Z</time></trkpt><trkpt lat="42.05818547714859" lon="13.62864556521464"><ele>815.0</ele><time>2026-04-18T11:44:53.999Z</time></trkpt><trkpt lat="42.058101731296574" lon="13.628608464185328"><ele>815.0000000000001</ele><time>2026-04-18T11:44:54.999Z</time></trkpt><trkpt lat="42.05803403040971" lon="13.62858386059404"><ele>815.0</ele><time>2026-04-18T11:44:55.999Z</time></trkpt><trkpt lat="42.0579633431361" lon="13.628538734841582"><ele>813.6</ele><time>2026-04-18T11:44:56.999Z</time></trkpt><trkpt lat="42.057881327043" lon="13.628488760232951"><ele>812.2</ele><time>2026-04-18T11:44:58Z</time></trkpt><trkpt lat="42.05777492830841" lon="13.628484351383655"><ele>810.8</ele><time>2026-04-18T11:44:59Z</time></trkpt><trkpt lat="42.05769996365008" lon="13.628494071744214"><ele>809.4</ele><time>2026-04-18T11:45:00Z</time></trkpt><trkpt lat="42.05762366268751" lon="13.628519298327335"><ele>808.0</ele><time>2026-04-18T11:45:01Z</time></trkpt><trkpt lat="42.0575108506268" lon="13.628553913398925"><ele>807.5</ele><time>2026-04-18T11:45:02Z</time></trkpt><trkpt lat="42.057366810615" lon="13.628607728938112"><ele>807.0</ele><time>2026-04-18T11:45:03Z</time></trkpt><trkpt lat="42.05724715012649" lon="13.62864809486212"><ele>806.5</ele><time>2026-04-18T11:45:04Z</time></trkpt><trkpt lat="42.057143421760685" lon="13.628684360074562"><ele>806.0</ele><time>2026-04-18T11:45:05Z</time></trkpt><trkpt lat="42.05705249417283" lon="13.628703340602828"><ele>803.5999999999999</ele><time>2026-04-18T11:45:06Z</time></trkpt><trkpt lat="42.05695682064859" lon="13.628737424177311"><ele>801.2</ele><time>2026-04-18T11:45:07Z</time></trkpt><trkpt lat="42.05685050048378" lon="13.628769323212307"><ele>798.8</ele><time>2026-04-18T11:45:08Z</time></trkpt><trkpt lat="42.05673432008321" lon="13.628804440020225"><ele>796.4000000000001</ele><time>2026-04-18T11:45:09Z</time></trkpt><trkpt lat="42.05661924715119" lon="13.628844885810768"><ele>794.0</ele><time>2026-04-18T11:45:10Z</time></trkpt><trkpt lat="42.05649676177681" lon="13.628889786186841"><ele>793.6</ele><time>2026-04-18T11:45:11Z</time></trkpt><trkpt lat="42.05638716271844" lon="13.628927092239836"><ele>793.2</ele><time>2026-04-18T11:45:12Z</time></trkpt><trkpt lat="42.05627954650225" lon="13.628968106968438"><ele>792.8000000000001</ele><time>2026-04-18T11:45:13Z</time></trkpt><trkpt lat="42.056176359148104" lon="13.629008210376067"><ele>792.4000000000001</ele><time>2026-04-18T11:45:14Z</time></trkpt><trkpt lat="42.05607698082167" lon="13.629044711889795"><ele>792.0</ele><time>2026-04-18T11:45:15Z</time></trkpt><trkpt lat="42.05598490206324" lon="13.629074430924547"><ele>792.0</ele><time>2026-04-18T11:45:16Z</time></trkpt><trkpt lat="42.05589683729465" lon="13.62909386123955"><ele>792.0</ele><time>2026-04-18T11:45:17Z</time></trkpt><trkpt lat="42.055811742630574" lon="13.62910177386369"><ele>792.0</ele><time>2026-04-18T11:45:18Z</time></trkpt><trkpt lat="42.055735097884885" lon="13.629096615906947"><ele>792.0</ele><time>2026-04-18T11:45:19Z</time></trkpt><trkpt lat="42.05560672405841" lon="13.62905426409998"><ele>792.0</ele><time>2026-04-18T11:45:21Z</time></trkpt><trkpt lat="42.05553893107165" lon="13.62901991376018"><ele>788.5</ele><time>2026-04-18T11:45:22Z</time></trkpt><trkpt lat="42.05545682450685" lon="13.628976851110956"><ele>785.0</ele><time>2026-04-18T11:45:23Z</time></trkpt><trkpt lat="42.055338223026304" lon="13.628907506702701"><ele>781.5</ele><time>2026-04-18T11:45:24Z</time></trkpt><trkpt lat="42.055194652714" lon="13.628799160010093"><ele>778.0</ele><time>2026-04-18T11:45:25Z</time></trkpt><trkpt lat="42.05505290363024" lon="13.628699218787233"><ele>776.25</ele><time>2026-04-18T11:45:26Z</time></trkpt><trkpt lat="42.05492648645511" lon="13.62860739705698"><ele>774.5</ele><time>2026-04-18T11:45:27Z</time></trkpt><trkpt lat="42.05483708303582" lon="13.628504269275881"><ele>772.75</ele><time>2026-04-18T11:45:28Z</time></trkpt><trkpt lat="42.054768715689995" lon="13.62835755327369"><ele>771.0</ele><time>2026-04-18T11:45:29Z</time></trkpt><trkpt lat="42.05470595930977" lon="13.628146957668845"><ele>771.0</ele><time>2026-04-18T11:45:30Z</time></trkpt><trkpt lat="42.0546567697715" lon="13.627910520671215"><ele>771.0</ele><time>2026-04-18T11:45:31Z</time></trkpt><trkpt lat="42.05461150498443" lon="13.627673331443935"><ele>771.0</ele><time>2026-04-18T11:45:32Z</time></trkpt><trkpt lat="42.05455806348509" lon="13.627464139037258"><ele>772.5</ele><time>2026-04-18T11:45:33Z</time></trkpt><trkpt lat="42.05450629777458" lon="13.627306546985524"><ele>774.0</ele><time>2026-04-18T11:45:34Z</time></trkpt><trkpt lat="42.05444185429531" lon="13.627185511493842"><ele>775.5</ele><time>2026-04-18T11:45:35Z</time></trkpt><trkpt lat="42.05435088875618" lon="13.627114074360357"><ele>777.0</ele><time>2026-04-18T11:45:36Z</time></trkpt><trkpt lat="42.054241353199004" lon="13.627091359505553"><ele>777.0</ele><time>2026-04-18T11:45:37Z</time></trkpt><trkpt lat="42.054125036131154" lon="13.627121003936505"><ele>777.0</ele><time>2026-04-18T11:45:38Z</time></trkpt><trkpt lat="42.05401661539953" lon="13.627237602204618"><ele>777.0</ele><time>2026-04-18T11:45:39Z</time></trkpt><trkpt lat="42.053900501547" lon="13.627423283602207"><ele>777.0</ele><time>2026-04-18T11:45:40Z</time></trkpt><trkpt lat="42.05377484912082" lon="13.627646484438523"><ele>774.6666666666667</ele><time>2026-04-18T11:45:41Z</time></trkpt><trkpt lat="42.05365083292501" lon="13.62784175752684"><ele>772.3333333333334</ele><time>2026-04-18T11:45:42Z</time></trkpt><trkpt lat="42.053554583524665" lon="13.62799515660074"><ele>770.0</ele><time>2026-04-18T11:45:43Z</time></trkpt><trkpt lat="42.05345216344102" lon="13.62810689981184"><ele>770.0</ele><time>2026-04-18T11:45:44Z</time></trkpt><trkpt lat="42.053330361566175" lon="13.628207489869531"><ele>770.0</ele><time>2026-04-18T11:45:45Z</time></trkpt><trkpt lat="42.05316493880869" lon="13.628260716229594"><ele>770.0</ele><time>2026-04-18T11:45:46Z</time></trkpt><trkpt lat="42.05297027107286" lon="13.6283284514217"><ele>771.5</ele><time>2026-04-18T11:45:47Z</time></trkpt><trkpt lat="42.05276332972864" lon="13.628405018493952"><ele>773.0</ele><time>2026-04-18T11:45:47.999Z</time></trkpt><trkpt lat="42.05253092476047" lon="13.628493481441465"><ele>770.5</ele><time>2026-04-18T11:45:48.999Z</time></trkpt><trkpt lat="42.052286076983606" lon="13.628601635135581"><ele>768.0</ele><time>2026-04-18T11:45:49.999Z</time></trkpt><trkpt lat="42.05204151663668" lon="13.628683267539422"><ele>761.0</ele><time>2026-04-18T11:45:50.999Z</time></trkpt><trkpt lat="42.05182046554051" lon="13.62876690664484"><ele>754.0</ele><time>2026-04-18T11:45:51.999Z</time></trkpt><trkpt lat="42.0516064344289" lon="13.628838773383865"><ele>752.3333333333334</ele><time>2026-04-18T11:45:52.999Z</time></trkpt><trkpt lat="42.05139677157661" lon="13.628882953662183"><ele>750.6666666666666</ele><time>2026-04-18T11:45:53.999Z</time></trkpt><trkpt lat="42.051185692633176" lon="13.628918419139962"><ele>749.0</ele><time>2026-04-18T11:45:54.999Z</time></trkpt><trkpt lat="42.050974211301806" lon="13.628936319547714"><ele>746.6666666666666</ele><time>2026-04-18T11:45:55.999Z</time></trkpt><trkpt lat="42.05077856207719" lon="13.628926098490904"><ele>744.3333333333334</ele><time>2026-04-18T11:45:56.999Z</time></trkpt><trkpt lat="42.05060950918929" lon="13.628892363700203"><ele>742.0</ele><time>2026-04-18T11:45:57.999Z</time></trkpt><trkpt lat="42.05045795992897" lon="13.628826656756603"><ele>742.0</ele><time>2026-04-18T11:45:58.999Z</time></trkpt><trkpt lat="42.05031947062736" lon="13.628719718492276"><ele>742.0</ele><time>2026-04-18T11:45:59.999Z</time></trkpt><trkpt lat="42.05016767541893" lon="13.628551991463308"><ele>742.0</ele><time>2026-04-18T11:46:00.999Z</time></trkpt><trkpt lat="42.04999494728878" lon="13.628364125930323"><ele>740.6666666666667</ele><time>2026-04-18T11:46:01.999Z</time></trkpt><trkpt lat="42.04981455662139" lon="13.62819446529487"><ele>739.3333333333334</ele><time>2026-04-18T11:46:02.999Z</time></trkpt><trkpt lat="42.04960624170413" lon="13.62810475833986"><ele>738.0</ele><time>2026-04-18T11:46:03.999Z</time></trkpt><trkpt lat="42.049380768434986" lon="13.628048142941331"><ele>738.0</ele><time>2026-04-18T11:46:04.999Z</time></trkpt><trkpt lat="42.04915538049962" lon="13.62797973095023"><ele>738.0</ele><time>2026-04-18T11:46:05.999Z</time></trkpt><trkpt lat="42.04895014116758" lon="13.62792561958822"><ele>738.0</ele><time>2026-04-18T11:46:06.999Z</time></trkpt><trkpt lat="42.0487707226347" lon="13.6278581906594"><ele>737.0</ele><time>2026-04-18T11:46:07.999Z</time></trkpt><trkpt lat="42.04860280856657" lon="13.627765752657288"><ele>736.0</ele><time>2026-04-18T11:46:08.999Z</time></trkpt><trkpt lat="42.04843599618427" lon="13.627627694002065"><ele>735.0</ele><time>2026-04-18T11:46:09.999Z</time></trkpt><trkpt lat="42.04826788889698" lon="13.627461548854406"><ele>732.0</ele><time>2026-04-18T11:46:10.999Z</time></trkpt><trkpt lat="42.04807397780119" lon="13.627264300928541"><ele>729.0</ele><time>2026-04-18T11:46:11.999Z</time></trkpt><trkpt lat="42.04784634451435" lon="13.62702344699765"><ele>730.5</ele><time>2026-04-18T11:46:12.999Z</time></trkpt><trkpt lat="42.047580903709665" lon="13.626781447759928"><ele>732.0</ele><time>2026-04-18T11:46:13.999Z</time></trkpt><trkpt lat="42.04728723153255" lon="13.62650530730893"><ele>728.5</ele><time>2026-04-18T11:46:14.999Z</time></trkpt><trkpt lat="42.04699291968098" lon="13.626223435202121"><ele>725.0</ele><time>2026-04-18T11:46:15.999Z</time></trkpt><trkpt lat="42.04674550318648" lon="13.62595927636927"><ele>721.0</ele><time>2026-04-18T11:46:16.999Z</time></trkpt><trkpt lat="42.046510258150235" lon="13.625736972156487"><ele>717.0</ele><time>2026-04-18T11:46:17.999Z</time></trkpt><trkpt lat="42.04629001765529" lon="13.62553236478082"><ele>717.0</ele><time>2026-04-18T11:46:18.999Z</time></trkpt><trkpt lat="42.04608219798752" lon="13.625333616579551"><ele>717.0</ele><time>2026-04-18T11:46:19.999Z</time></trkpt><trkpt lat="42.04588332728244" lon="13.625143349343677"><ele>717.0</ele><time>2026-04-18T11:46:20.999Z</time></trkpt><trkpt lat="42.04570246630742" lon="13.624960793902025"><ele>717.0</ele><time>2026-04-18T11:46:21.999Z</time></trkpt><trkpt lat="42.0455357513735" lon="13.624795891494074"><ele>717.0</ele><time>2026-04-18T11:46:22.999Z</time></trkpt><trkpt lat="42.045391674025524" lon="13.62465908570195"><ele>717.0</ele><time>2026-04-18T11:46:23.999Z</time></trkpt><trkpt lat="42.04527126678702" lon="13.62454509246275"><ele>717.0</ele><time>2026-04-18T11:46:24.999Z</time></trkpt><trkpt lat="42.045174244488365" lon="13.624453615435892"><ele>717.0</ele><time>2026-04-18T11:46:25.999Z</time></trkpt><trkpt lat="42.04509995593021" lon="13.624380946628188"><ele>717.0</ele><time>2026-04-18T11:46:26.999Z</time></trkpt><trkpt lat="42.045042557647015" lon="13.624317827689872"><ele>717.0</ele><time>2026-04-18T11:46:27.999Z</time></trkpt><trkpt lat="42.04497164921678" lon="13.624221890066329"><ele>715.8</ele><time>2026-04-18T11:46:29.999Z</time></trkpt><trkpt lat="42.044926364805356" lon="13.624137489110835"><ele>714.6</ele><time>2026-04-18T11:46:31.999Z</time></trkpt><trkpt lat="42.04487497543104" lon="13.624087171705552"><ele>713.4</ele><time>2026-04-18T11:46:36.999Z</time></trkpt><trkpt lat="42.04475233418621" lon="13.624144088621756"><ele>712.1999999999999</ele><time>2026-04-18T11:46:38.999Z</time></trkpt><trkpt lat="42.04467995690014" lon="13.624274845077442"><ele>711.0</ele><time>2026-04-18T11:46:39.999Z</time></trkpt><trkpt lat="42.04459372243149" lon="13.624392675593597"><ele>711.3333333333334</ele><time>2026-04-18T11:46:40.999Z</time></trkpt><trkpt lat="42.044508038267566" lon="13.624526684508643"><ele>711.6666666666667</ele><time>2026-04-18T11:46:41.999Z</time></trkpt><trkpt lat="42.044400681606824" lon="13.624694588950357"><ele>712.0</ele><time>2026-04-18T11:46:42.999Z</time></trkpt><trkpt lat="42.04428129606342" lon="13.624881306447284"><ele>712.0</ele><time>2026-04-18T11:46:43.999Z</time></trkpt><trkpt lat="42.04417925138636" lon="13.625072528711108"><ele>712.0</ele><time>2026-04-18T11:46:44.999Z</time></trkpt><trkpt lat="42.04405286323922" lon="13.625238572412416"><ele>712.0</ele><time>2026-04-18T11:46:45.999Z</time></trkpt><trkpt lat="42.04393785070226" lon="13.625418450574392"><ele>712.0</ele><time>2026-04-18T11:46:46.999Z</time></trkpt><trkpt lat="42.04381666359962" lon="13.625607985618323"><ele>712.0</ele><time>2026-04-18T11:46:47.999Z</time></trkpt><trkpt lat="42.04369388529271" lon="13.625800453376995"><ele>712.0</ele><time>2026-04-18T11:46:48.999Z</time></trkpt><trkpt lat="42.043581744702735" lon="13.626013081901942"><ele>712.6666666666667</ele><time>2026-04-18T11:46:49.999Z</time></trkpt><trkpt lat="42.04344717531535" lon="13.626215612790329"><ele>713.3333333333334</ele><time>2026-04-18T11:46:50.999Z</time></trkpt><trkpt lat="42.043319072369556" lon="13.626415228851775"><ele>714.0</ele><time>2026-04-18T11:46:51.999Z</time></trkpt><trkpt lat="42.0431835301126" lon="13.626619540897076"><ele>713.6666666666666</ele><time>2026-04-18T11:46:52.999Z</time></trkpt><trkpt lat="42.04305232052077" lon="13.62683006927496"><ele>713.3333333333333</ele><time>2026-04-18T11:46:53.999Z</time></trkpt><trkpt lat="42.0429187572794" lon="13.627036729463056"><ele>713.0</ele><time>2026-04-18T11:46:54.999Z</time></trkpt><trkpt lat="42.04278638267169" lon="13.627236495649251"><ele>713.0</ele><time>2026-04-18T11:46:55.999Z</time></trkpt><trkpt lat="42.04267318680782" lon="13.62742375335191"><ele>713.0</ele><time>2026-04-18T11:46:56.999Z</time></trkpt><trkpt lat="42.042572905025565" lon="13.627579560292977"><ele>713.0</ele><time>2026-04-18T11:46:57.999Z</time></trkpt><trkpt lat="42.04248598082958" lon="13.627715956631794"><ele>713.2</ele><time>2026-04-18T11:46:58.999Z</time></trkpt><trkpt lat="42.042392890271" lon="13.627829107131046"><ele>713.4</ele><time>2026-04-18T11:46:59.999Z</time></trkpt><trkpt lat="42.042318628637915" lon="13.627945284837184"><ele>713.6</ele><time>2026-04-18T11:47:00.999Z</time></trkpt><trkpt lat="42.04226264995762" lon="13.628065492392045"><ele>713.8000000000001</ele><time>2026-04-18T11:47:01.999Z</time></trkpt><trkpt lat="42.04218492805048" lon="13.62815445110011"><ele>714.0</ele><time>2026-04-18T11:47:03Z</time></trkpt><trkpt lat="42.04213213179001" lon="13.628270938366388"><ele>714.0</ele><time>2026-04-18T11:47:04Z</time></trkpt><trkpt lat="42.042048727935054" lon="13.628366563889726"><ele>714.0</ele><time>2026-04-18T11:47:05Z</time></trkpt><trkpt lat="42.041986669931184" lon="13.628492055328085"><ele>714.0</ele><time>2026-04-18T11:47:06Z</time></trkpt><trkpt lat="42.04191215716053" lon="13.628611021521861"><ele>714.0</ele><time>2026-04-18T11:47:07Z</time></trkpt><trkpt lat="42.041820691761956" lon="13.628721250584702"><ele>713.75</ele><time>2026-04-18T11:47:08Z</time></trkpt><trkpt lat="42.041736045936" lon="13.628854859977892"><ele>713.5</ele><time>2026-04-18T11:47:09Z</time></trkpt><trkpt lat="42.04164488322306" lon="13.62899875590987"><ele>713.25</ele><time>2026-04-18T11:47:10Z</time></trkpt><trkpt lat="42.04154843813063" lon="13.629155329185174"><ele>713.0</ele><time>2026-04-18T11:47:11Z</time></trkpt><trkpt lat="42.04144445931749" lon="13.629327835257195"><ele>713.6666666666666</ele><time>2026-04-18T11:47:12Z</time></trkpt><trkpt lat="42.04133095092464" lon="13.629516454817598"><ele>714.3333333333334</ele><time>2026-04-18T11:47:13Z</time></trkpt><trkpt lat="42.04121068225596" lon="13.629716308089186"><ele>715.0</ele><time>2026-04-18T11:47:14Z</time></trkpt><trkpt lat="42.041095465902245" lon="13.629908050704177"><ele>715.0</ele><time>2026-04-18T11:47:15Z</time></trkpt><trkpt lat="42.040990051363444" lon="13.630084395148218"><ele>715.0</ele><time>2026-04-18T11:47:16Z</time></trkpt><trkpt lat="42.040887130397955" lon="13.630256568168948"><ele>715.0</ele><time>2026-04-18T11:47:17Z</time></trkpt><trkpt lat="42.040786245536566" lon="13.630425335153701"><ele>714.6666666666667</ele><time>2026-04-18T11:47:18Z</time></trkpt><trkpt lat="42.04068329114238" lon="13.630596827594962"><ele>714.3333333333334</ele><time>2026-04-18T11:47:19Z</time></trkpt><trkpt lat="42.0405785360532" lon="13.63077099941902"><ele>714.0</ele><time>2026-04-18T11:47:20Z</time></trkpt><trkpt lat="42.040472723124886" lon="13.63094687693034"><ele>714.0</ele><time>2026-04-18T11:47:21Z</time></trkpt><trkpt lat="42.04036479270674" lon="13.631126268510412"><ele>714.0</ele><time>2026-04-18T11:47:22Z</time></trkpt><trkpt lat="42.04025544734972" lon="13.631310384078146"><ele>714.0</ele><time>2026-04-18T11:47:23Z</time></trkpt><trkpt lat="42.040144825331375" lon="13.631494061535356"><ele>714.0</ele><time>2026-04-18T11:47:24Z</time></trkpt><trkpt lat="42.04003782837942" lon="13.631673212499157"><ele>714.0</ele><time>2026-04-18T11:47:25Z</time></trkpt><trkpt lat="42.039937589162754" lon="13.631876034995738"><ele>714.0</ele><time>2026-04-18T11:47:26Z</time></trkpt><trkpt lat="42.039817580207945" lon="13.632069715920284"><ele>714.0</ele><time>2026-04-18T11:47:27Z</time></trkpt><trkpt lat="42.03969489914234" lon="13.63227676062659"><ele>714.0</ele><time>2026-04-18T11:47:28Z</time></trkpt><trkpt lat="42.039558427587615" lon="13.632487396957185"><ele>714.0</ele><time>2026-04-18T11:47:29Z</time></trkpt><trkpt lat="42.03945281090615" lon="13.632733747076921"><ele>714.0</ele><time>2026-04-18T11:47:30Z</time></trkpt><trkpt lat="42.03933818946555" lon="13.63297815597328"><ele>714.0</ele><time>2026-04-18T11:47:31Z</time></trkpt><trkpt lat="42.03922819920658" lon="13.63322939041358"><ele>714.0</ele><time>2026-04-18T11:47:32Z</time></trkpt><trkpt lat="42.039122832721915" lon="13.633483246523575"><ele>715.0</ele><time>2026-04-18T11:47:33Z</time></trkpt><trkpt lat="42.039020229145514" lon="13.633738505528045"><ele>716.0</ele><time>2026-04-18T11:47:34Z</time></trkpt><trkpt lat="42.03891437124991" lon="13.633989425757207"><ele>717.0</ele><time>2026-04-18T11:47:35Z</time></trkpt><trkpt lat="42.03881037232434" lon="13.634242948921921"><ele>718.0</ele><time>2026-04-18T11:47:36Z</time></trkpt><trkpt lat="42.03870951282859" lon="13.634495026449539"><ele>719.0</ele><time>2026-04-18T11:47:37Z</time></trkpt><trkpt lat="42.03860873405083" lon="13.63474329540533"><ele>720.0</ele><time>2026-04-18T11:47:38Z</time></trkpt><trkpt lat="42.038510539183896" lon="13.634985910565998"><ele>720.0</ele><time>2026-04-18T11:47:39Z</time></trkpt><trkpt lat="42.03841120214438" lon="13.635222251826725"><ele>720.0</ele><time>2026-04-18T11:47:40Z</time></trkpt><trkpt lat="42.03830723307202" lon="13.635457521469004"><ele>720.0</ele><time>2026-04-18T11:47:41Z</time></trkpt><trkpt lat="42.03818672888089" lon="13.635680900451703"><ele>720.6666666666666</ele><time>2026-04-18T11:47:42Z</time></trkpt><trkpt lat="42.03805638934198" lon="13.63589666721007"><ele>721.3333333333333</ele><time>2026-04-18T11:47:43Z</time></trkpt><trkpt lat="42.037923790080036" lon="13.636110251329995"><ele>722.0</ele><time>2026-04-18T11:47:44Z</time></trkpt><trkpt lat="42.037792882869006" lon="13.636326214338782"><ele>722.0</ele><time>2026-04-18T11:47:45Z</time></trkpt><trkpt lat="42.03765963085612" lon="13.636538906738949"><ele>722.0</ele><time>2026-04-18T11:47:46Z</time></trkpt><trkpt lat="42.037516583875195" lon="13.63673340349031"><ele>722.0</ele><time>2026-04-18T11:47:47Z</time></trkpt><trkpt lat="42.03736044855572" lon="13.636909147310302"><ele>724.0</ele><time>2026-04-18T11:47:48Z</time></trkpt><trkpt lat="42.037189208705236" lon="13.637064006615509"><ele>726.0</ele><time>2026-04-18T11:47:49Z</time></trkpt><trkpt lat="42.037008663125455" lon="13.637217270678645"><ele>728.0</ele><time>2026-04-18T11:47:50Z</time></trkpt><trkpt lat="42.03683710011385" lon="13.63737977854564"><ele>728.0</ele><time>2026-04-18T11:47:50.999Z</time></trkpt><trkpt lat="42.03667569797998" lon="13.63756267767049"><ele>728.0</ele><time>2026-04-18T11:47:51.999Z</time></trkpt><trkpt lat="42.03652825806013" lon="13.637776538229405"><ele>728.0</ele><time>2026-04-18T11:47:52.999Z</time></trkpt><trkpt lat="42.03639000387465" lon="13.638010003957822"><ele>726.5</ele><time>2026-04-18T11:47:53.999Z</time></trkpt><trkpt lat="42.03625261074604" lon="13.63824964816773"><ele>725.0</ele><time>2026-04-18T11:47:54.999Z</time></trkpt><trkpt lat="42.03611583259623" lon="13.63849043235762"><ele>727.5</ele><time>2026-04-18T11:47:55.999Z</time></trkpt><trkpt lat="42.03597766166074" lon="13.638733672456375"><ele>730.0</ele><time>2026-04-18T11:47:56.999Z</time></trkpt><trkpt lat="42.03583383218722" lon="13.638969968415166"><ele>726.5</ele><time>2026-04-18T11:47:57.999Z</time></trkpt><trkpt lat="42.03568592432593" lon="13.639199113910234"><ele>723.0</ele><time>2026-04-18T11:47:58.999Z</time></trkpt><trkpt lat="42.03552341513106" lon="13.639414137418598"><ele>725.0</ele><time>2026-04-18T11:47:59.999Z</time></trkpt><trkpt lat="42.03534388918634" lon="13.63960914351917"><ele>727.0</ele><time>2026-04-18T11:48:00.999Z</time></trkpt><trkpt lat="42.035154370848886" lon="13.639783249712726"><ele>725.0</ele><time>2026-04-18T11:48:01.999Z</time></trkpt><trkpt lat="42.03496478337044" lon="13.639955338223423"><ele>723.0</ele><time>2026-04-18T11:48:02.999Z</time></trkpt><trkpt lat="42.034773175616415" lon="13.640124105223588"><ele>723.0</ele><time>2026-04-18T11:48:03.999Z</time></trkpt><trkpt lat="42.03457535994227" lon="13.64029272961337"><ele>723.0</ele><time>2026-04-18T11:48:04.999Z</time></trkpt><trkpt lat="42.03437411768182" lon="13.640464022416053"><ele>723.5</ele><time>2026-04-18T11:48:05.999Z</time></trkpt><trkpt lat="42.03417362232685" lon="13.640636776365476"><ele>724.0</ele><time>2026-04-18T11:48:06.999Z</time></trkpt><trkpt lat="42.03397199019113" lon="13.640807912965938"><ele>724.0</ele><time>2026-04-18T11:48:07.999Z</time></trkpt><trkpt lat="42.03377009600948" lon="13.640973776898846"><ele>724.0</ele><time>2026-04-18T11:48:08.999Z</time></trkpt><trkpt lat="42.03357434163826" lon="13.641138607553735"><ele>723.6666666666667</ele><time>2026-04-18T11:48:09.999Z</time></trkpt><trkpt lat="42.03338630625413" lon="13.641298992516464"><ele>723.3333333333334</ele><time>2026-04-18T11:48:10.999Z</time></trkpt><trkpt lat="42.033199262328914" lon="13.641457207976677"><ele>723.0</ele><time>2026-04-18T11:48:11.999Z</time></trkpt><trkpt lat="42.03301496757127" lon="13.641614874242807"><ele>723.0</ele><time>2026-04-18T11:48:12.999Z</time></trkpt><trkpt lat="42.03283094169408" lon="13.641769409776604"><ele>723.0</ele><time>2026-04-18T11:48:13.999Z</time></trkpt><trkpt lat="42.03264763697136" lon="13.641926456386491"><ele>723.0</ele><time>2026-04-18T11:48:14.999Z</time></trkpt><trkpt lat="42.03246283198659" lon="13.64208661341076"><ele>723.3333333333334</ele><time>2026-04-18T11:48:15.999Z</time></trkpt><trkpt lat="42.03227966670654" lon="13.642247793776336"><ele>723.6666666666667</ele><time>2026-04-18T11:48:16.999Z</time></trkpt><trkpt lat="42.03211673536349" lon="13.642412152644756"><ele>724.0</ele><time>2026-04-18T11:48:17.999Z</time></trkpt><trkpt lat="42.03197264369443" lon="13.642594243820122"><ele>723.3333333333334</ele><time>2026-04-18T11:48:18.999Z</time></trkpt><trkpt lat="42.03184259799556" lon="13.642813089474526"><ele>722.6666666666666</ele><time>2026-04-18T11:48:19.999Z</time></trkpt><trkpt lat="42.03172534214454" lon="13.643051287196748"><ele>722.0</ele><time>2026-04-18T11:48:20.999Z</time></trkpt><trkpt lat="42.0316128047908" lon="13.643308443416599"><ele>722.0</ele><time>2026-04-18T11:48:21.999Z</time></trkpt><trkpt lat="42.03149369538813" lon="13.6435700852756"><ele>722.0</ele><time>2026-04-18T11:48:22.999Z</time></trkpt><trkpt lat="42.03135336880159" lon="13.643832564064143"><ele>723.5</ele><time>2026-04-18T11:48:23.999Z</time></trkpt><trkpt lat="42.031195871140476" lon="13.64409236187321"><ele>725.0</ele><time>2026-04-18T11:48:24.999Z</time></trkpt><trkpt lat="42.031012698086776" lon="13.644329429081534"><ele>726.5</ele><time>2026-04-18T11:48:25.999Z</time></trkpt><trkpt lat="42.03082118966629" lon="13.64455909255728"><ele>728.0</ele><time>2026-04-18T11:48:26.999Z</time></trkpt><trkpt lat="42.03060429459635" lon="13.644778788109654"><ele>728.0</ele><time>2026-04-18T11:48:27.999Z</time></trkpt><trkpt lat="42.030350194672074" lon="13.64498012973665"><ele>728.0</ele><time>2026-04-18T11:48:28.999Z</time></trkpt><trkpt lat="42.03006836729346" lon="13.645144995116365"><ele>728.5</ele><time>2026-04-18T11:48:29.999Z</time></trkpt><trkpt lat="42.029820837130444" lon="13.64525711379912"><ele>729.0</ele><time>2026-04-18T11:48:30.999Z</time></trkpt><trkpt lat="42.02960390026252" lon="13.645332056321767"><ele>729.0</ele><time>2026-04-18T11:48:31.999Z</time></trkpt><trkpt lat="42.02942216379024" lon="13.645404755274187"><ele>729.0</ele><time>2026-04-18T11:48:32.999Z</time></trkpt><trkpt lat="42.029263956369135" lon="13.64548731065313"><ele>729.0</ele><time>2026-04-18T11:48:33.999Z</time></trkpt><trkpt lat="42.029118842242305" lon="13.645561626242198"><ele>727.0</ele><time>2026-04-18T11:48:34.999Z</time></trkpt><trkpt lat="42.02898024043003" lon="13.645648532532851"><ele>725.0</ele><time>2026-04-18T11:48:35.999Z</time></trkpt><trkpt lat="42.0287959995305" lon="13.645799036519957"><ele>723.0</ele><time>2026-04-18T11:48:36.999Z</time></trkpt><trkpt lat="42.02869142837315" lon="13.645896130283854"><ele>723.0</ele><time>2026-04-18T11:48:37.999Z</time></trkpt><trkpt lat="42.02864270995018" lon="13.64605355362081"><ele>723.0</ele><time>2026-04-18T11:48:38.999Z</time></trkpt><trkpt lat="42.02858251196794" lon="13.646172673392233"><ele>723.0</ele><time>2026-04-18T11:48:39.999Z</time></trkpt><trkpt lat="42.02851992016402" lon="13.6462865503332"><ele>723.0</ele><time>2026-04-18T11:48:40.999Z</time></trkpt><trkpt lat="42.0284355598515" lon="13.646397876041389"><ele>722.5999999999999</ele><time>2026-04-18T11:48:41.999Z</time></trkpt><trkpt lat="42.02834737504135" lon="13.646512598773835"><ele>722.1999999999999</ele><time>2026-04-18T11:48:42.999Z</time></trkpt><trkpt lat="42.028275278613954" lon="13.646611280917478"><ele>721.8</ele><time>2026-04-18T11:48:43.999Z</time></trkpt><trkpt lat="42.0282026473344" lon="13.646687774470683"><ele>721.4</ele><time>2026-04-18T11:48:44.999Z</time></trkpt><trkpt lat="42.028150477811764" lon="13.646750138209812"><ele>721.0</ele><time>2026-04-18T11:48:45.999Z</time></trkpt><trkpt lat="42.02810516892943" lon="13.646814846398357"><ele>721.0</ele><time>2026-04-18T11:48:46.999Z</time></trkpt><trkpt lat="42.02800990608608" lon="13.646931840073458"><ele>721.0</ele><time>2026-04-18T11:48:48.999Z</time></trkpt><trkpt lat="42.02795521672812" lon="13.646996707033793"><ele>721.0</ele><time>2026-04-18T11:48:49.999Z</time></trkpt><trkpt lat="42.027896697998806" lon="13.647070222822821"><ele>721.0</ele><time>2026-04-18T11:48:50.999Z</time></trkpt><trkpt lat="42.02783337765886" lon="13.647150038349242"><ele>721.0</ele><time>2026-04-18T11:48:51.999Z</time></trkpt><trkpt lat="42.02776622202904" lon="13.647243972280005"><ele>721.1999999999999</ele><time>2026-04-18T11:48:52.999Z</time></trkpt><trkpt lat="42.02769670715285" lon="13.647345158383484"><ele>721.4</ele><time>2026-04-18T11:48:53.999Z</time></trkpt><trkpt lat="42.02762458207991" lon="13.647443284523728"><ele>721.6</ele><time>2026-04-18T11:48:54.999Z</time></trkpt><trkpt lat="42.027552468625295" lon="13.647560302565708"><ele>721.8</ele><time>2026-04-18T11:48:55.999Z</time></trkpt><trkpt lat="42.02748994585615" lon="13.647662722938078"><ele>722.0</ele><time>2026-04-18T11:48:56.999Z</time></trkpt><trkpt lat="42.02743275734359" lon="13.647748130030415"><ele>722.8333333333333</ele><time>2026-04-18T11:48:57.999Z</time></trkpt><trkpt lat="42.02738194684782" lon="13.647819224453983"><ele>723.6666666666666</ele><time>2026-04-18T11:48:58.999Z</time></trkpt><trkpt lat="42.02733303104515" lon="13.64788469059777"><ele>724.5</ele><time>2026-04-18T11:48:59.999Z</time></trkpt><trkpt lat="42.02727612993139" lon="13.64796304346971"><ele>725.3333333333334</ele><time>2026-04-18T11:49:00.999Z</time></trkpt><trkpt lat="42.02721833220361" lon="13.64804763541864"><ele>726.1666666666667</ele><time>2026-04-18T11:49:01.999Z</time></trkpt><trkpt lat="42.027155315400606" lon="13.648122866652503"><ele>727.0</ele><time>2026-04-18T11:49:02.999Z</time></trkpt><trkpt lat="42.02709324973682" lon="13.648198921080052"><ele>727.0</ele><time>2026-04-18T11:49:03.999Z</time></trkpt><trkpt lat="42.02702685623732" lon="13.64827693096742"><ele>727.0</ele><time>2026-04-18T11:49:04.999Z</time></trkpt><trkpt lat="42.02695311646559" lon="13.648362210476952"><ele>727.0</ele><time>2026-04-18T11:49:05.999Z</time></trkpt><trkpt lat="42.02687284593165" lon="13.64845159116171"><ele>727.0</ele><time>2026-04-18T11:49:06.999Z</time></trkpt><trkpt lat="42.02679209050801" lon="13.648542921749716"><ele>727.0</ele><time>2026-04-18T11:49:08Z</time></trkpt><trkpt lat="42.02670545573173" lon="13.648631123782975"><ele>726.4000000000001</ele><time>2026-04-18T11:49:09Z</time></trkpt><trkpt lat="42.026616850855376" lon="13.648712581781924"><ele>725.8000000000001</ele><time>2026-04-18T11:49:10Z</time></trkpt><trkpt lat="42.0265358426645" lon="13.648800766637208"><ele>725.2</ele><time>2026-04-18T11:49:11Z</time></trkpt><trkpt lat="42.02645050706147" lon="13.648899923623175"><ele>724.6</ele><time>2026-04-18T11:49:12Z</time></trkpt><trkpt lat="42.02636401502742" lon="13.64901074325086"><ele>724.0</ele><time>2026-04-18T11:49:13Z</time></trkpt><trkpt lat="42.02627593703791" lon="13.649131351905227"><ele>724.0</ele><time>2026-04-18T11:49:14Z</time></trkpt><trkpt lat="42.026184999002645" lon="13.649261735345046"><ele>724.0</ele><time>2026-04-18T11:49:15Z</time></trkpt><trkpt lat="42.02609644049942" lon="13.649410968318438"><ele>724.0</ele><time>2026-04-18T11:49:16Z</time></trkpt><trkpt lat="42.02600219240634" lon="13.64956196679394"><ele>724.0</ele><time>2026-04-18T11:49:17Z</time></trkpt><trkpt lat="42.025909663491" lon="13.64971160020944"><ele>723.75</ele><time>2026-04-18T11:49:18Z</time></trkpt><trkpt lat="42.025828182105" lon="13.649842724045552"><ele>723.5</ele><time>2026-04-18T11:49:19Z</time></trkpt><trkpt lat="42.02575829777922" lon="13.64996416545636"><ele>723.25</ele><time>2026-04-18T11:49:20Z</time></trkpt><trkpt lat="42.02569350609542" lon="13.650079110507905"><ele>723.0</ele><time>2026-04-18T11:49:21Z</time></trkpt><trkpt lat="42.025628673123684" lon="13.650201125068877"><ele>724.75</ele><time>2026-04-18T11:49:22Z</time></trkpt><trkpt lat="42.02555716618368" lon="13.65031995190087"><ele>726.5</ele><time>2026-04-18T11:49:23Z</time></trkpt><trkpt lat="42.02548312833364" lon="13.650442436897192"><ele>728.25</ele><time>2026-04-18T11:49:24Z</time></trkpt><trkpt lat="42.02540329896922" lon="13.650562925375565"><ele>730.0</ele><time>2026-04-18T11:49:25Z</time></trkpt><trkpt lat="42.025319291871355" lon="13.650682911243162"><ele>730.0</ele><time>2026-04-18T11:49:26Z</time></trkpt><trkpt lat="42.02522812811962" lon="13.650806234216025"><ele>730.0</ele><time>2026-04-18T11:49:27Z</time></trkpt><trkpt lat="42.02513747886933" lon="13.650926985006937"><ele>730.0</ele><time>2026-04-18T11:49:28Z</time></trkpt><trkpt lat="42.025040213321134" lon="13.651046798722065"><ele>730.0</ele><time>2026-04-18T11:49:29Z</time></trkpt><trkpt lat="42.024941751423405" lon="13.651162945651784"><ele>729.75</ele><time>2026-04-18T11:49:30Z</time></trkpt><trkpt lat="42.02483865433526" lon="13.651284906184493"><ele>729.5</ele><time>2026-04-18T11:49:31Z</time></trkpt><trkpt lat="42.02475383476318" lon="13.65140966191051"><ele>729.25</ele><time>2026-04-18T11:49:32Z</time></trkpt><trkpt lat="42.024647381786565" lon="13.651534587180517"><ele>729.0</ele><time>2026-04-18T11:49:33Z</time></trkpt><trkpt lat="42.02453616865126" lon="13.65165454522269"><ele>729.0</ele><time>2026-04-18T11:49:34Z</time></trkpt><trkpt lat="42.02444303544953" lon="13.65178925539804"><ele>729.0</ele><time>2026-04-18T11:49:35Z</time></trkpt><trkpt lat="42.02436733109216" lon="13.651940747354821"><ele>729.0</ele><time>2026-04-18T11:49:36Z</time></trkpt><trkpt lat="42.0243017622269" lon="13.652074999078701"><ele>729.0</ele><time>2026-04-18T11:49:37Z</time></trkpt><trkpt lat="42.02424379241092" lon="13.652191293762417"><ele>730.0</ele><time>2026-04-18T11:49:38Z</time></trkpt><trkpt lat="42.02419567673721" lon="13.652309895906477"><ele>731.0</ele><time>2026-04-18T11:49:39Z</time></trkpt><trkpt lat="42.024162506608796" lon="13.652438721654718"><ele>732.0</ele><time>2026-04-18T11:49:40Z</time></trkpt><trkpt lat="42.02415675850383" lon="13.652585656052981"><ele>733.0</ele><time>2026-04-18T11:49:41Z</time></trkpt><trkpt lat="42.024171963109154" lon="13.65274460589975"><ele>734.0</ele><time>2026-04-18T11:49:42Z</time></trkpt><trkpt lat="42.024204171165366" lon="13.652908820871572"><ele>734.0</ele><time>2026-04-18T11:49:43Z</time></trkpt><trkpt lat="42.02423398754524" lon="13.653082492443206"><ele>734.0</ele><time>2026-04-18T11:49:44Z</time></trkpt><trkpt lat="42.02425734427498" lon="13.653261523939122"><ele>734.0</ele><time>2026-04-18T11:49:45Z</time></trkpt><trkpt lat="42.024287663139" lon="13.653450029739867"><ele>734.0</ele><time>2026-04-18T11:49:46Z</time></trkpt><trkpt lat="42.0243293918078" lon="13.653637567031115"><ele>733.0</ele><time>2026-04-18T11:49:47Z</time></trkpt><trkpt lat="42.0243701066615" lon="13.653822368074211"><ele>732.0</ele><time>2026-04-18T11:49:48Z</time></trkpt><trkpt lat="42.02442021198652" lon="13.653992249777085"><ele>731.0</ele><time>2026-04-18T11:49:49Z</time></trkpt><trkpt lat="42.024462175914394" lon="13.654141436743428"><ele>730.0</ele><time>2026-04-18T11:49:50Z</time></trkpt><trkpt lat="42.02449476014292" lon="13.654282582143349"><ele>730.0</ele><time>2026-04-18T11:49:51Z</time></trkpt><trkpt lat="42.024516419977765" lon="13.654433614647358"><ele>730.0</ele><time>2026-04-18T11:49:52Z</time></trkpt><trkpt lat="42.024544198405145" lon="13.654593671116158"><ele>730.0</ele><time>2026-04-18T11:49:52.999Z</time></trkpt><trkpt lat="42.02457151851133" lon="13.654755105776848"><ele>730.0</ele><time>2026-04-18T11:49:53.999Z</time></trkpt><trkpt lat="42.024599396295606" lon="13.654912204574499"><ele>729.0</ele><time>2026-04-18T11:49:54.999Z</time></trkpt><trkpt lat="42.02463998843344" lon="13.655057330946118"><ele>728.0</ele><time>2026-04-18T11:49:55.999Z</time></trkpt><trkpt lat="42.024701755156094" lon="13.655185855900811"><ele>727.0</ele><time>2026-04-18T11:49:56.999Z</time></trkpt><trkpt lat="42.024774827572166" lon="13.655298604046012"><ele>726.0</ele><time>2026-04-18T11:49:57.999Z</time></trkpt><trkpt lat="42.02484005457482" lon="13.655418834404477"><ele>725.25</ele><time>2026-04-18T11:49:58.999Z</time></trkpt><trkpt lat="42.024902708992855" lon="13.655543642287062"><ele>724.5</ele><time>2026-04-18T11:49:59.999Z</time></trkpt><trkpt lat="42.02497318599973" lon="13.655666178552355"><ele>723.75</ele><time>2026-04-18T11:50:00.999Z</time></trkpt><trkpt lat="42.02503800440733" lon="13.655794267652784"><ele>723.0</ele><time>2026-04-18T11:50:01.999Z</time></trkpt><trkpt lat="42.02510763069052" lon="13.655930420016917"><ele>724.5</ele><time>2026-04-18T11:50:02.999Z</time></trkpt><trkpt lat="42.025180468278755" lon="13.656067387976313"><ele>726.0</ele><time>2026-04-18T11:50:03.999Z</time></trkpt><trkpt lat="42.0252435292592" lon="13.656215439893302"><ele>727.5</ele><time>2026-04-18T11:50:04.999Z</time></trkpt><trkpt lat="42.02529778882497" lon="13.65637088809138"><ele>729.0</ele><time>2026-04-18T11:50:05.999Z</time></trkpt><trkpt lat="42.025329538467275" lon="13.656534816011254"><ele>729.0</ele><time>2026-04-18T11:50:06.999Z</time></trkpt><trkpt lat="42.025359450437406" lon="13.656697765819196"><ele>729.0</ele><time>2026-04-18T11:50:07.999Z</time></trkpt><trkpt lat="42.025399050197834" lon="13.656855253146817"><ele>729.0</ele><time>2026-04-18T11:50:08.999Z</time></trkpt><trkpt lat="42.02544462529138" lon="13.657008853153217"><ele>729.0</ele><time>2026-04-18T11:50:09.999Z</time></trkpt><trkpt lat="42.0255174388331" lon="13.657137167825285"><ele>730.0</ele><time>2026-04-18T11:50:10.999Z</time></trkpt><trkpt lat="42.025615712170314" lon="13.65724260734675"><ele>731.0</ele><time>2026-04-18T11:50:11.999Z</time></trkpt><trkpt lat="42.025720416719324" lon="13.657337162365163"><ele>732.0</ele><time>2026-04-18T11:50:12.999Z</time></trkpt><trkpt lat="42.025826379621094" lon="13.657429215541589"><ele>733.0</ele><time>2026-04-18T11:50:13.999Z</time></trkpt><trkpt lat="42.025916785620005" lon="13.657548015955326"><ele>733.0</ele><time>2026-04-18T11:50:14.999Z</time></trkpt><trkpt lat="42.02599350594204" lon="13.657668400785195"><ele>733.0</ele><time>2026-04-18T11:50:15.999Z</time></trkpt><trkpt lat="42.02608078048845" lon="13.657782031849592"><ele>733.0</ele><time>2026-04-18T11:50:16.999Z</time></trkpt><trkpt lat="42.02616294834808" lon="13.657908004898108"><ele>733.0</ele><time>2026-04-18T11:50:17.999Z</time></trkpt><trkpt lat="42.026237442669036" lon="13.658033682605376"><ele>731.5</ele><time>2026-04-18T11:50:18.999Z</time></trkpt><trkpt lat="42.02628520309448" lon="13.65818842383159"><ele>730.0</ele><time>2026-04-18T11:50:19.999Z</time></trkpt><trkpt lat="42.026324298877995" lon="13.658332894288785"><ele>728.5</ele><time>2026-04-18T11:50:20.999Z</time></trkpt><trkpt lat="42.02633843728044" lon="13.658472236158264"><ele>727.0</ele><time>2026-04-18T11:50:21.999Z</time></trkpt><trkpt lat="42.026326361319434" lon="13.658615185938785"><ele>726.25</ele><time>2026-04-18T11:50:22.999Z</time></trkpt><trkpt lat="42.02627867167315" lon="13.658762348577042"><ele>725.5</ele><time>2026-04-18T11:50:23.999Z</time></trkpt><trkpt lat="42.026226989110924" lon="13.658932578224803"><ele>724.75</ele><time>2026-04-18T11:50:24.999Z</time></trkpt><trkpt lat="42.02618924980623" lon="13.659104865215854"><ele>724.0</ele><time>2026-04-18T11:50:25.999Z</time></trkpt><trkpt lat="42.026188636624894" lon="13.65927102369038"><ele>724.0</ele><time>2026-04-18T11:50:26.999Z</time></trkpt><trkpt lat="42.02618733677286" lon="13.65940267672317"><ele>724.0</ele><time>2026-04-18T11:50:27.999Z</time></trkpt><trkpt lat="42.02625499142536" lon="13.659539946913489"><ele>724.0</ele><time>2026-04-18T11:50:28.999Z</time></trkpt><trkpt lat="42.02625491745432" lon="13.659656709246242"><ele>724.0</ele><time>2026-04-18T11:50:29.999Z</time></trkpt><trkpt lat="42.02624953391005" lon="13.65976207480707"><ele>724.0</ele><time>2026-04-18T11:50:30.999Z</time></trkpt><trkpt lat="42.02619676836866" lon="13.659863887010061"><ele>724.8000000000001</ele><time>2026-04-18T11:50:31.999Z</time></trkpt><trkpt lat="42.02612333417319" lon="13.659955030293968"><ele>725.6</ele><time>2026-04-18T11:50:32.999Z</time></trkpt><trkpt lat="42.02602974335637" lon="13.66002096337333"><ele>726.4</ele><time>2026-04-18T11:50:33.999Z</time></trkpt><trkpt lat="42.02591885313144" lon="13.660036926072202"><ele>727.2</ele><time>2026-04-18T11:50:34.999Z</time></trkpt><trkpt lat="42.02580059474572" lon="13.660007590991642"><ele>728.0</ele><time>2026-04-18T11:50:35.999Z</time></trkpt><trkpt lat="42.025681964171376" lon="13.659936739415558"><ele>729.0</ele><time>2026-04-18T11:50:36.999Z</time></trkpt><trkpt lat="42.02555569940291" lon="13.659849833623802"><ele>730.0</ele><time>2026-04-18T11:50:37.999Z</time></trkpt><trkpt lat="42.02542592802169" lon="13.659761208722129"><ele>731.0</ele><time>2026-04-18T11:50:38.999Z</time></trkpt><trkpt lat="42.02529289690387" lon="13.659671170106092"><ele>732.0</ele><time>2026-04-18T11:50:39.999Z</time></trkpt><trkpt lat="42.025162111397584" lon="13.659578474271688"><ele>732.0</ele><time>2026-04-18T11:50:40.999Z</time></trkpt><trkpt lat="42.02502900146988" lon="13.659485214268985"><ele>732.0</ele><time>2026-04-18T11:50:41.999Z</time></trkpt><trkpt lat="42.0249115674721" lon="13.659384637607943"><ele>732.0</ele><time>2026-04-18T11:50:42.999Z</time></trkpt><trkpt lat="42.02480194471956" lon="13.65928611978547"><ele>732.0</ele><time>2026-04-18T11:50:43.999Z</time></trkpt><trkpt lat="42.02469419637284" lon="13.659187060049431"><ele>732.0</ele><time>2026-04-18T11:50:44.999Z</time></trkpt><trkpt lat="42.02460642815701" lon="13.659053302196925"><ele>732.0</ele><time>2026-04-18T11:50:45.999Z</time></trkpt><trkpt lat="42.024512936359685" lon="13.658939939171562"><ele>732.0</ele><time>2026-04-18T11:50:46.999Z</time></trkpt><trkpt lat="42.02441652484743" lon="13.658787725260778"><ele>732.0</ele><time>2026-04-18T11:50:47.999Z</time></trkpt><trkpt lat="42.02431352905869" lon="13.65863774547873"><ele>733.0</ele><time>2026-04-18T11:50:48.999Z</time></trkpt><trkpt lat="42.02419533479924" lon="13.65848483469022"><ele>734.0</ele><time>2026-04-18T11:50:49.999Z</time></trkpt><trkpt lat="42.024090924223835" lon="13.658343217623816"><ele>735.0</ele><time>2026-04-18T11:50:50.999Z</time></trkpt><trkpt lat="42.023994615605815" lon="13.658196077651892"><ele>735.0</ele><time>2026-04-18T11:50:51.999Z</time></trkpt><trkpt lat="42.02388920852804" lon="13.658052180280665"><ele>735.0</ele><time>2026-04-18T11:50:52.999Z</time></trkpt><trkpt lat="42.02381172482371" lon="13.657906214643758"><ele>735.0</ele><time>2026-04-18T11:50:53.999Z</time></trkpt><trkpt lat="42.023739346341685" lon="13.657774636349876"><ele>735.0</ele><time>2026-04-18T11:50:54.999Z</time></trkpt><trkpt lat="42.02366062370663" lon="13.657657712081983"><ele>733.0</ele><time>2026-04-18T11:50:55.999Z</time></trkpt><trkpt lat="42.02357750221419" lon="13.65752807393765"><ele>731.0</ele><time>2026-04-18T11:50:56.999Z</time></trkpt><trkpt lat="42.023496359477534" lon="13.657396259964214"><ele>729.0</ele><time>2026-04-18T11:50:57.999Z</time></trkpt><trkpt lat="42.02341314093068" lon="13.65725827147507"><ele>727.0</ele><time>2026-04-18T11:50:58.999Z</time></trkpt><trkpt lat="42.02333422848676" lon="13.657123207411841"><ele>728.25</ele><time>2026-04-18T11:50:59.999Z</time></trkpt><trkpt lat="42.02324839035148" lon="13.656982154285291"><ele>729.5</ele><time>2026-04-18T11:51:00.999Z</time></trkpt><trkpt lat="42.02316661480931" lon="13.656829223141486"><ele>730.75</ele><time>2026-04-18T11:51:01.999Z</time></trkpt><trkpt lat="42.023103186286946" lon="13.65666493445114"><ele>732.0</ele><time>2026-04-18T11:51:02.999Z</time></trkpt><trkpt lat="42.023034987342676" lon="13.656496918016977"><ele>732.0</ele><time>2026-04-18T11:51:03.999Z</time></trkpt><trkpt lat="42.022975566858115" lon="13.65632608395299"><ele>732.0</ele><time>2026-04-18T11:51:04.999Z</time></trkpt><trkpt lat="42.02291208447227" lon="13.656156816186877"><ele>732.0</ele><time>2026-04-18T11:51:05.999Z</time></trkpt><trkpt lat="42.02284553629609" lon="13.655988210625443"><ele>732.0</ele><time>2026-04-18T11:51:06.999Z</time></trkpt><trkpt lat="42.02276913976783" lon="13.655822001945566"><ele>731.75</ele><time>2026-04-18T11:51:07.999Z</time></trkpt><trkpt lat="42.02268464124883" lon="13.655675690657795"><ele>731.5</ele><time>2026-04-18T11:51:08.999Z</time></trkpt><trkpt lat="42.02258278063395" lon="13.655539357240604"><ele>731.25</ele><time>2026-04-18T11:51:09.999Z</time></trkpt><trkpt lat="42.02246939179441" lon="13.655406968383481"><ele>731.0</ele><time>2026-04-18T11:51:10.999Z</time></trkpt><trkpt lat="42.022346519874226" lon="13.655280555939086"><ele>728.6666666666666</ele><time>2026-04-18T11:51:11.999Z</time></trkpt><trkpt lat="42.02221586159794" lon="13.655162586752486"><ele>726.3333333333334</ele><time>2026-04-18T11:51:12.999Z</time></trkpt><trkpt lat="42.02207805661214" lon="13.655046648723966"><ele>724.0</ele><time>2026-04-18T11:51:14Z</time></trkpt><trkpt lat="42.02194737565999" lon="13.654926123064662"><ele>724.0</ele><time>2026-04-18T11:51:15Z</time></trkpt><trkpt lat="42.02181467337879" lon="13.654804128508756"><ele>724.0</ele><time>2026-04-18T11:51:16Z</time></trkpt><trkpt lat="42.02167806683119" lon="13.654685801757642"><ele>724.0</ele><time>2026-04-18T11:51:17Z</time></trkpt><trkpt lat="42.02153897788069" lon="13.654574096220063"><ele>724.0</ele><time>2026-04-18T11:51:18Z</time></trkpt><trkpt lat="42.021400178435556" lon="13.654457502324352"><ele>724.0</ele><time>2026-04-18T11:51:19Z</time></trkpt><trkpt lat="42.02126374044989" lon="13.654344280771436"><ele>724.0</ele><time>2026-04-18T11:51:20Z</time></trkpt><trkpt lat="42.0211256956148" lon="13.654236562555377"><ele>722.0</ele><time>2026-04-18T11:51:21Z</time></trkpt><trkpt lat="42.02097485531995" lon="13.654161554115607"><ele>720.0</ele><time>2026-04-18T11:51:22Z</time></trkpt><trkpt lat="42.020810028864915" lon="13.6541178988148"><ele>718.0</ele><time>2026-04-18T11:51:23Z</time></trkpt><trkpt lat="42.02063129123952" lon="13.654108470984703"><ele>716.3333333333334</ele><time>2026-04-18T11:51:24Z</time></trkpt><trkpt lat="42.020426093214176" lon="13.65413878801887"><ele>714.6666666666666</ele><time>2026-04-18T11:51:25Z</time></trkpt><trkpt lat="42.02025188910414" lon="13.654171959748439"><ele>713.0</ele><time>2026-04-18T11:51:26Z</time></trkpt><trkpt lat="42.02009037606572" lon="13.654189187576574"><ele>712.75</ele><time>2026-04-18T11:51:27Z</time></trkpt><trkpt lat="42.01996035884538" lon="13.654182913766173"><ele>712.5</ele><time>2026-04-18T11:51:28Z</time></trkpt><trkpt lat="42.019827117976355" lon="13.654151387746715"><ele>712.25</ele><time>2026-04-18T11:51:29Z</time></trkpt><trkpt lat="42.0197060616553" lon="13.654123628705094"><ele>712.0</ele><time>2026-04-18T11:51:30Z</time></trkpt><trkpt lat="42.01959100743184" lon="13.6541032592322"><ele>712.0</ele><time>2026-04-18T11:51:31Z</time></trkpt><trkpt lat="42.01946959774058" lon="13.654073090856697"><ele>712.0</ele><time>2026-04-18T11:51:32Z</time></trkpt><trkpt lat="42.01935474456401" lon="13.654037685548998"><ele>712.0</ele><time>2026-04-18T11:51:33Z</time></trkpt><trkpt lat="42.01924321674509" lon="13.653994655094662"><ele>712.0</ele><time>2026-04-18T11:51:34Z</time></trkpt><trkpt lat="42.0191325227298" lon="13.653934221336398"><ele>711.5</ele><time>2026-04-18T11:51:35Z</time></trkpt><trkpt lat="42.01901753245367" lon="13.653854732991105"><ele>711.0</ele><time>2026-04-18T11:51:36Z</time></trkpt><trkpt lat="42.01889867110674" lon="13.65377079428759"><ele>710.5</ele><time>2026-04-18T11:51:37Z</time></trkpt><trkpt lat="42.018776180544045" lon="13.653686464393227"><ele>710.0</ele><time>2026-04-18T11:51:38Z</time></trkpt><trkpt lat="42.01865178158161" lon="13.65359804912915"><ele>709.0</ele><time>2026-04-18T11:51:39Z</time></trkpt><trkpt lat="42.0185268060139" lon="13.653506743511908"><ele>708.0</ele><time>2026-04-18T11:51:40Z</time></trkpt><trkpt lat="42.018397094502234" lon="13.65342099673219"><ele>707.0</ele><time>2026-04-18T11:51:41Z</time></trkpt><trkpt lat="42.018269407926816" lon="13.65333504077578"><ele>706.0</ele><time>2026-04-18T11:51:42Z</time></trkpt><trkpt lat="42.01813839534584" lon="13.65324486764084"><ele>706.0</ele><time>2026-04-18T11:51:43Z</time></trkpt><trkpt lat="42.01800421233386" lon="13.653146840481181"><ele>706.0</ele><time>2026-04-18T11:51:44Z</time></trkpt><trkpt lat="42.01786601969351" lon="13.653050332197074"><ele>706.0</ele><time>2026-04-18T11:51:45Z</time></trkpt><trkpt lat="42.017725823491396" lon="13.652962367033556"><ele>706.0</ele><time>2026-04-18T11:51:46Z</time></trkpt><trkpt lat="42.017579635889604" lon="13.652891157009723"><ele>706.0</ele><time>2026-04-18T11:51:47Z</time></trkpt><trkpt lat="42.01741943757238" lon="13.652848811574506"><ele>706.0</ele><time>2026-04-18T11:51:48Z</time></trkpt><trkpt lat="42.01724512981102" lon="13.652814932919963"><ele>705.6666666666667</ele><time>2026-04-18T11:51:49Z</time></trkpt><trkpt lat="42.01706008858721" lon="13.652777772249587"><ele>705.3333333333334</ele><time>2026-04-18T11:51:50Z</time></trkpt><trkpt lat="42.01686325398408" lon="13.652736574710149"><ele>705.0</ele><time>2026-04-18T11:51:51Z</time></trkpt><trkpt lat="42.01667132563423" lon="13.652681238291411"><ele>705.0</ele><time>2026-04-18T11:51:52Z</time></trkpt><trkpt lat="42.01647909086179" lon="13.65260523281987"><ele>705.0</ele><time>2026-04-18T11:51:53Z</time></trkpt><trkpt lat="42.01628231484114" lon="13.652523627208092"><ele>705.0</ele><time>2026-04-18T11:51:54Z</time></trkpt><trkpt lat="42.0160831903881" lon="13.652443481744056"><ele>705.0</ele><time>2026-04-18T11:51:54.999Z</time></trkpt><trkpt lat="42.015883311270585" lon="13.65235667078645"><ele>705.0</ele><time>2026-04-18T11:51:55.999Z</time></trkpt><trkpt lat="42.01568068027836" lon="13.652263787723768"><ele>705.0</ele><time>2026-04-18T11:51:56.999Z</time></trkpt><trkpt lat="42.015477365708726" lon="13.652165163766355"><ele>705.0</ele><time>2026-04-18T11:51:57.999Z</time></trkpt><trkpt lat="42.015273438721415" lon="13.652059083117257"><ele>705.0</ele><time>2026-04-18T11:51:58.999Z</time></trkpt><trkpt lat="42.01506036284831" lon="13.651950229116366"><ele>705.0</ele><time>2026-04-18T11:51:59.999Z</time></trkpt><trkpt lat="42.01483865636879" lon="13.651837095159985"><ele>703.5</ele><time>2026-04-18T11:52:00.999Z</time></trkpt><trkpt lat="42.01461078434319" lon="13.651722432001486"><ele>702.0</ele><time>2026-04-18T11:52:01.999Z</time></trkpt><trkpt lat="42.01437572498219" lon="13.651604149342665"><ele>702.5</ele><time>2026-04-18T11:52:02.999Z</time></trkpt><trkpt lat="42.014140908940966" lon="13.651488025731519"><ele>703.0</ele><time>2026-04-18T11:52:03.999Z</time></trkpt><trkpt lat="42.01390061517741" lon="13.651378695954127"><ele>703.0</ele><time>2026-04-18T11:52:04.999Z</time></trkpt><trkpt lat="42.01366310715935" lon="13.65128022645721"><ele>703.0</ele><time>2026-04-18T11:52:05.999Z</time></trkpt><trkpt lat="42.01344303096079" lon="13.651191543848618"><ele>703.0</ele><time>2026-04-18T11:52:06.999Z</time></trkpt><trkpt lat="42.01323304483131" lon="13.651112506143289"><ele>703.0</ele><time>2026-04-18T11:52:07.999Z</time></trkpt><trkpt lat="42.0130269660618" lon="13.651034044047032"><ele>703.0</ele><time>2026-04-18T11:52:08.999Z</time></trkpt><trkpt lat="42.012813448284135" lon="13.650974599247894"><ele>703.0</ele><time>2026-04-18T11:52:09.999Z</time></trkpt><trkpt lat="42.012597513933784" lon="13.65093897860818"><ele>703.0</ele><time>2026-04-18T11:52:10.999Z</time></trkpt><trkpt lat="42.01237784288085" lon="13.65091970063434"><ele>703.0</ele><time>2026-04-18T11:52:11.999Z</time></trkpt><trkpt lat="42.0121598637188" lon="13.650898802344537"><ele>703.0</ele><time>2026-04-18T11:52:12.999Z</time></trkpt><trkpt lat="42.01194489292844" lon="13.650869769635479"><ele>703.0</ele><time>2026-04-18T11:52:13.999Z</time></trkpt><trkpt lat="42.0117352554535" lon="13.650828326224467"><ele>703.0</ele><time>2026-04-18T11:52:14.999Z</time></trkpt><trkpt lat="42.01152414725515" lon="13.650785057560947"><ele>703.0</ele><time>2026-04-18T11:52:15.999Z</time></trkpt><trkpt lat="42.01131113928391" lon="13.650742632576437"><ele>703.0</ele><time>2026-04-18T11:52:16.999Z</time></trkpt><trkpt lat="42.01109791836833" lon="13.650708123997276"><ele>703.0</ele><time>2026-04-18T11:52:17.999Z</time></trkpt><trkpt lat="42.01088380019878" lon="13.650677106478117"><ele>702.3333333333334</ele><time>2026-04-18T11:52:18.999Z</time></trkpt><trkpt lat="42.01066313368526" lon="13.650657896498481"><ele>701.6666666666666</ele><time>2026-04-18T11:52:19.999Z</time></trkpt><trkpt lat="42.0104438279916" lon="13.650642823625176"><ele>701.0</ele><time>2026-04-18T11:52:20.999Z</time></trkpt><trkpt lat="42.01023895579002" lon="13.65062777123108"><ele>701.0</ele><time>2026-04-18T11:52:21.999Z</time></trkpt><trkpt lat="42.01003091939627" lon="13.650604570772522"><ele>701.0</ele><time>2026-04-18T11:52:22.999Z</time></trkpt><trkpt lat="42.009819854272614" lon="13.650545025688125"><ele>701.0</ele><time>2026-04-18T11:52:23.999Z</time></trkpt><trkpt lat="42.00960649203924" lon="13.650428634925888"><ele>701.5</ele><time>2026-04-18T11:52:24.999Z</time></trkpt><trkpt lat="42.009388779491495" lon="13.650279841038277"><ele>702.0</ele><time>2026-04-18T11:52:25.999Z</time></trkpt><trkpt lat="42.00915123946239" lon="13.650121392196073"><ele>703.0</ele><time>2026-04-18T11:52:26.999Z</time></trkpt><trkpt lat="42.00890583321973" lon="13.649983160437158"><ele>704.0</ele><time>2026-04-18T11:52:27.999Z</time></trkpt><trkpt lat="42.00865970174845" lon="13.649842506060489"><ele>704.0</ele><time>2026-04-18T11:52:28.999Z</time></trkpt><trkpt lat="42.00842732121455" lon="13.649710314219814"><ele>704.0</ele><time>2026-04-18T11:52:29.999Z</time></trkpt><trkpt lat="42.00818824246041" lon="13.649572408074977"><ele>703.0</ele><time>2026-04-18T11:52:30.999Z</time></trkpt><trkpt lat="42.00795093645056" lon="13.649413782338714"><ele>702.0</ele><time>2026-04-18T11:52:31.999Z</time></trkpt><trkpt lat="42.00771090129183" lon="13.649231845641683"><ele>703.0</ele><time>2026-04-18T11:52:32.999Z</time></trkpt><trkpt lat="42.00746565819916" lon="13.649036139600337"><ele>704.0</ele><time>2026-04-18T11:52:33.999Z</time></trkpt><trkpt lat="42.00721760878284" lon="13.64881436441375"><ele>704.0</ele><time>2026-04-18T11:52:34.999Z</time></trkpt><trkpt lat="42.006958375450445" lon="13.648589073661348"><ele>704.0</ele><time>2026-04-18T11:52:35.999Z</time></trkpt><trkpt lat="42.00668621703712" lon="13.648356969424857"><ele>705.0</ele><time>2026-04-18T11:52:36.999Z</time></trkpt><trkpt lat="42.00640236428168" lon="13.648114095646607"><ele>706.0</ele><time>2026-04-18T11:52:37.999Z</time></trkpt><trkpt lat="42.006099438035776" lon="13.647865799036875"><ele>705.5</ele><time>2026-04-18T11:52:38.999Z</time></trkpt><trkpt lat="42.00581940896859" lon="13.64763692967509"><ele>705.0</ele><time>2026-04-18T11:52:39.999Z</time></trkpt><trkpt lat="42.00556057347165" lon="13.647426771571627"><ele>705.0</ele><time>2026-04-18T11:52:40.999Z</time></trkpt><trkpt lat="42.00531437174842" lon="13.64722289818737"><ele>705.0</ele><time>2026-04-18T11:52:41.999Z</time></trkpt><trkpt lat="42.005083334687875" lon="13.647033351740232"><ele>704.5</ele><time>2026-04-18T11:52:42.999Z</time></trkpt><trkpt lat="42.004867561461204" lon="13.646850128127443"><ele>704.0</ele><time>2026-04-18T11:52:43.999Z</time></trkpt><trkpt lat="42.004649823635205" lon="13.646659590806571"><ele>704.0</ele><time>2026-04-18T11:52:44.999Z</time></trkpt><trkpt lat="42.00443234049565" lon="13.646466949794426"><ele>704.0</ele><time>2026-04-18T11:52:45.999Z</time></trkpt><trkpt lat="42.00420855373787" lon="13.64628864901608"><ele>702.0</ele><time>2026-04-18T11:52:46.999Z</time></trkpt><trkpt lat="42.00397814327631" lon="13.646127792372612"><ele>700.0</ele><time>2026-04-18T11:52:47.999Z</time></trkpt><trkpt lat="42.00374232532239" lon="13.645983740239583"><ele>700.0</ele><time>2026-04-18T11:52:48.999Z</time></trkpt><trkpt lat="42.00349853568113" lon="13.645862435958488"><ele>700.0</ele><time>2026-04-18T11:52:49.999Z</time></trkpt><trkpt lat="42.00325375725609" lon="13.64575408898513"><ele>700.0</ele><time>2026-04-18T11:52:50.999Z</time></trkpt><trkpt lat="42.00300182285923" lon="13.645666049754015"><ele>700.0</ele><time>2026-04-18T11:52:51.999Z</time></trkpt><trkpt lat="42.00274158049736" lon="13.645598373348236"><ele>699.5</ele><time>2026-04-18T11:52:52.999Z</time></trkpt><trkpt lat="42.00247759320902" lon="13.645534109152148"><ele>699.0</ele><time>2026-04-18T11:52:53.999Z</time></trkpt><trkpt lat="42.002218836545076" lon="13.645463354885612"><ele>699.0</ele><time>2026-04-18T11:52:54.999Z</time></trkpt><trkpt lat="42.00195933499858" lon="13.645394160241867"><ele>699.0</ele><time>2026-04-18T11:52:55.999Z</time></trkpt><trkpt lat="42.00170295042202" lon="13.645319763772687"><ele>698.5</ele><time>2026-04-18T11:52:56.999Z</time></trkpt><trkpt lat="42.00145116557633" lon="13.645233692233836"><ele>698.0</ele><time>2026-04-18T11:52:57.999Z</time></trkpt><trkpt lat="42.001203168414776" lon="13.645118793823135"><ele>698.0</ele><time>2026-04-18T11:52:58.999Z</time></trkpt><trkpt lat="42.00095168181039" lon="13.644983478794357"><ele>698.0</ele><time>2026-04-18T11:52:59.999Z</time></trkpt><trkpt lat="42.00071175056122" lon="13.644854481410231"><ele>698.0</ele><time>2026-04-18T11:53:00.999Z</time></trkpt><trkpt lat="42.000478869386214" lon="13.644736598954692"><ele>698.0</ele><time>2026-04-18T11:53:01.999Z</time></trkpt><trkpt lat="42.000258173931655" lon="13.644633457565462"><ele>698.0</ele><time>2026-04-18T11:53:02.999Z</time></trkpt><trkpt lat="42.00005453468191" lon="13.644552988220845"><ele>698.0</ele><time>2026-04-18T11:53:03.999Z</time></trkpt><trkpt lat="41.99985426665119" lon="13.644512252646807"><ele>698.0</ele><time>2026-04-18T11:53:04.999Z</time></trkpt><trkpt lat="41.99963561559876" lon="13.644524329434775"><ele>698.0</ele><time>2026-04-18T11:53:05.999Z</time></trkpt><trkpt lat="41.999403514413125" lon="13.64456829744415"><ele>698.0</ele><time>2026-04-18T11:53:06.999Z</time></trkpt><trkpt lat="41.99918563229725" lon="13.644612077678625"><ele>698.0</ele><time>2026-04-18T11:53:07.999Z</time></trkpt><trkpt lat="41.998980157612635" lon="13.644643223382687"><ele>698.0</ele><time>2026-04-18T11:53:08.999Z</time></trkpt><trkpt lat="41.998768947669085" lon="13.64460415745445"><ele>698.0</ele><time>2026-04-18T11:53:09.999Z</time></trkpt><trkpt lat="41.998549864274" lon="13.644538660067349"><ele>698.0</ele><time>2026-04-18T11:53:10.999Z</time></trkpt><trkpt lat="41.99831691013969" lon="13.644481365743575"><ele>698.0</ele><time>2026-04-18T11:53:11.999Z</time></trkpt><trkpt lat="41.99807895590507" lon="13.64443365679396"><ele>694.0</ele><time>2026-04-18T11:53:12.999Z</time></trkpt><trkpt lat="41.997836217529105" lon="13.644383344916223"><ele>690.0</ele><time>2026-04-18T11:53:13.999Z</time></trkpt><trkpt lat="41.997583764586146" lon="13.644335798399101"><ele>689.0</ele><time>2026-04-18T11:53:14.999Z</time></trkpt><trkpt lat="41.997319215246854" lon="13.644313386520606"><ele>688.0</ele><time>2026-04-18T11:53:15.999Z</time></trkpt><trkpt lat="41.997054079664665" lon="13.64430283026531"><ele>688.0</ele><time>2026-04-18T11:53:16.999Z</time></trkpt><trkpt lat="41.99679516637152" lon="13.644289037169859"><ele>688.0</ele><time>2026-04-18T11:53:17.999Z</time></trkpt><trkpt lat="41.99653481833147" lon="13.64426859834513"><ele>688.5</ele><time>2026-04-18T11:53:18.999Z</time></trkpt><trkpt lat="41.996294134411706" lon="13.64424807676266"><ele>689.0</ele><time>2026-04-18T11:53:20Z</time></trkpt><trkpt lat="41.99607012200928" lon="13.644239237584104"><ele>689.0</ele><time>2026-04-18T11:53:21Z</time></trkpt><trkpt lat="41.995860504601204" lon="13.644232592344457"><ele>689.0</ele><time>2026-04-18T11:53:22Z</time></trkpt><trkpt lat="41.99564566134536" lon="13.644250054605891"><ele>689.0</ele><time>2026-04-18T11:53:23Z</time></trkpt><trkpt lat="41.99542609512058" lon="13.644320739766853"><ele>689.5</ele><time>2026-04-18T11:53:24Z</time></trkpt><trkpt lat="41.99520037815121" lon="13.644440381453068"><ele>690.0</ele><time>2026-04-18T11:53:25Z</time></trkpt><trkpt lat="41.994978130065135" lon="13.644602963282745"><ele>693.0</ele><time>2026-04-18T11:53:26Z</time></trkpt><trkpt lat="41.9947748473233" lon="13.644781144805501"><ele>696.0</ele><time>2026-04-18T11:53:27Z</time></trkpt><trkpt lat="41.994584027795625" lon="13.644930200239406"><ele>696.0</ele><time>2026-04-18T11:53:28Z</time></trkpt><trkpt lat="41.994369029893825" lon="13.64505025279325"><ele>696.0</ele><time>2026-04-18T11:53:29Z</time></trkpt><trkpt lat="41.994140828654984" lon="13.645142557778097"><ele>697.0</ele><time>2026-04-18T11:53:30Z</time></trkpt><trkpt lat="41.99392686339909" lon="13.645269284114983"><ele>698.0</ele><time>2026-04-18T11:53:31Z</time></trkpt><trkpt lat="41.99373265901503" lon="13.645407371162907"><ele>698.0</ele><time>2026-04-18T11:53:32Z</time></trkpt><trkpt lat="41.99355237519626" lon="13.645531032865994"><ele>698.0</ele><time>2026-04-18T11:53:33Z</time></trkpt><trkpt lat="41.993374376115085" lon="13.645634545789905"><ele>698.0</ele><time>2026-04-18T11:53:34Z</time></trkpt><trkpt lat="41.99318701725155" lon="13.645696699644054"><ele>695.6666666666666</ele><time>2026-04-18T11:53:35Z</time></trkpt><trkpt lat="41.99298779077958" lon="13.64571025891377"><ele>693.3333333333334</ele><time>2026-04-18T11:53:36Z</time></trkpt><trkpt lat="41.99279747971315" lon="13.645691925462033"><ele>691.0</ele><time>2026-04-18T11:53:37Z</time></trkpt><trkpt lat="41.99261645056549" lon="13.645646941189236"><ele>690.6666666666667</ele><time>2026-04-18T11:53:38Z</time></trkpt><trkpt lat="41.99245265717587" lon="13.645592432058091"><ele>690.3333333333334</ele><time>2026-04-18T11:53:39Z</time></trkpt><trkpt lat="41.99227901695475" lon="13.645568116810065"><ele>690.0</ele><time>2026-04-18T11:53:40Z</time></trkpt><trkpt lat="41.99210551464852" lon="13.645580930328672"><ele>690.0</ele><time>2026-04-18T11:53:41Z</time></trkpt><trkpt lat="41.99193127967842" lon="13.645610696721384"><ele>690.0</ele><time>2026-04-18T11:53:42Z</time></trkpt><trkpt lat="41.99176558461878" lon="13.645663165475833"><ele>690.0</ele><time>2026-04-18T11:53:43Z</time></trkpt><trkpt lat="41.99161536725162" lon="13.64571362940421"><ele>690.0</ele><time>2026-04-18T11:53:44Z</time></trkpt><trkpt lat="41.99146819787357" lon="13.64573005902983"><ele>690.0</ele><time>2026-04-18T11:53:45Z</time></trkpt><trkpt lat="41.99131250017058" lon="13.645708097553657"><ele>690.0</ele><time>2026-04-18T11:53:46Z</time></trkpt><trkpt lat="41.99115636360599" lon="13.64563098938879"><ele>690.0</ele><time>2026-04-18T11:53:47Z</time></trkpt><trkpt lat="41.9910058190255" lon="13.645564899091651"><ele>690.0</ele><time>2026-04-18T11:53:48Z</time></trkpt><trkpt lat="41.99086825214091" lon="13.645535753408735"><ele>690.0</ele><time>2026-04-18T11:53:49Z</time></trkpt><trkpt lat="41.99074132682251" lon="13.64553052683785"><ele>690.0</ele><time>2026-04-18T11:53:50Z</time></trkpt><trkpt lat="41.99061535112812" lon="13.645579418000974"><ele>690.25</ele><time>2026-04-18T11:53:51Z</time></trkpt><trkpt lat="41.9904820074855" lon="13.64566764485152"><ele>690.5</ele><time>2026-04-18T11:53:52Z</time></trkpt><trkpt lat="41.990353996186876" lon="13.645753866867194"><ele>690.75</ele><time>2026-04-18T11:53:53Z</time></trkpt><trkpt lat="41.99023213327189" lon="13.6458289302936"><ele>691.0</ele><time>2026-04-18T11:53:54Z</time></trkpt><trkpt lat="41.99011362844102" lon="13.645907707926119"><ele>689.3333333333334</ele><time>2026-04-18T11:53:55Z</time></trkpt><trkpt lat="41.989972994588996" lon="13.64596731133852"><ele>687.6666666666666</ele><time>2026-04-18T11:53:56Z</time></trkpt><trkpt lat="41.98981909188099" lon="13.646020635110727"><ele>686.0</ele><time>2026-04-18T11:53:57Z</time></trkpt><trkpt lat="41.98965776797295" lon="13.646073023275356"><ele>686.0</ele><time>2026-04-18T11:53:58Z</time></trkpt><trkpt lat="41.98951330882148" lon="13.646118336264944"><ele>686.0</ele><time>2026-04-18T11:53:58.999Z</time></trkpt><trkpt lat="41.98937996044841" lon="13.646142045464586"><ele>686.0</ele><time>2026-04-18T11:53:59.999Z</time></trkpt><trkpt lat="41.989263686879724" lon="13.64615563473048"><ele>686.0</ele><time>2026-04-18T11:54:00.999Z</time></trkpt><trkpt lat="41.9891596204196" lon="13.646167844757452"><ele>687.1666666666666</ele><time>2026-04-18T11:54:01.999Z</time></trkpt><trkpt lat="41.98906776813774" lon="13.646182770927195"><ele>688.3333333333333</ele><time>2026-04-18T11:54:02.999Z</time></trkpt><trkpt lat="41.9889837748219" lon="13.646198097488057"><ele>689.5</ele><time>2026-04-18T11:54:03.999Z</time></trkpt><trkpt lat="41.988909525559414" lon="13.646209260394315"><ele>690.6666666666666</ele><time>2026-04-18T11:54:04.999Z</time></trkpt><trkpt lat="41.98884664028837" lon="13.646219161859586"><ele>691.8333333333334</ele><time>2026-04-18T11:54:05.999Z</time></trkpt><trkpt lat="41.988755471964794" lon="13.646250157532522"><ele>693.0</ele><time>2026-04-18T11:54:07.999Z</time></trkpt><trkpt lat="41.98870673365849" lon="13.646316975334956"><ele>693.0</ele><time>2026-04-18T11:54:09.999Z</time></trkpt><trkpt lat="41.988652366361215" lon="13.646369339120985"><ele>693.0</ele><time>2026-04-18T11:54:12.999Z</time></trkpt><trkpt lat="41.988603921932686" lon="13.64630539718691"><ele>693.0</ele><time>2026-04-18T11:57:57Z</time></trkpt><trkpt lat="41.988529413632655" lon="13.646237252244678"><ele>693.0</ele><time>2026-04-18T11:58:00Z</time></trkpt><trkpt lat="41.98845197434334" lon="13.646234460740354"><ele>693.0</ele><time>2026-04-18T11:58:00.999Z</time></trkpt><trkpt lat="41.98835341263821" lon="13.646259968048017"><ele>693.0</ele><time>2026-04-18T11:58:01.999Z</time></trkpt><trkpt lat="41.98825793206302" lon="13.646280459515586"><ele>692.5999999999999</ele><time>2026-04-18T11:58:02.999Z</time></trkpt><trkpt lat="41.988160482420405" lon="13.646298681924234"><ele>692.1999999999999</ele><time>2026-04-18T11:58:03.999Z</time></trkpt><trkpt lat="41.988060777486815" lon="13.646316846692278"><ele>691.8</ele><time>2026-04-18T11:58:04.999Z</time></trkpt><trkpt lat="41.987948949353" lon="13.646331901087356"><ele>691.4</ele><time>2026-04-18T11:58:05.999Z</time></trkpt><trkpt lat="41.98782709071052" lon="13.646346996234357"><ele>691.0</ele><time>2026-04-18T11:58:06.999Z</time></trkpt><trkpt lat="41.987698379343904" lon="13.646361640467857"><ele>691.0</ele><time>2026-04-18T11:58:07.999Z</time></trkpt><trkpt lat="41.98756573717307" lon="13.646361140966972"><ele>691.0</ele><time>2026-04-18T11:58:08.999Z</time></trkpt><trkpt lat="41.98744927843855" lon="13.64635694069948"><ele>691.0</ele><time>2026-04-18T11:58:09.999Z</time></trkpt><trkpt lat="41.987350512983554" lon="13.646361952990638"><ele>691.0</ele><time>2026-04-18T11:58:10.999Z</time></trkpt><trkpt lat="41.98724080549939" lon="13.646383423612996"><ele>689.3333333333334</ele><time>2026-04-18T11:58:11.999Z</time></trkpt><trkpt lat="41.987095945088505" lon="13.646442785891093"><ele>687.6666666666666</ele><time>2026-04-18T11:58:12.999Z</time></trkpt><trkpt lat="41.98692163768056" lon="13.646538767695453"><ele>686.0</ele><time>2026-04-18T11:58:13.999Z</time></trkpt><trkpt lat="41.98675341545595" lon="13.646648299235594"><ele>683.6666666666666</ele><time>2026-04-18T11:58:14.999Z</time></trkpt><trkpt lat="41.98655368186328" lon="13.646726697582954"><ele>681.3333333333334</ele><time>2026-04-18T11:58:15.999Z</time></trkpt><trkpt lat="41.986360325147515" lon="13.646822270707208"><ele>679.0</ele><time>2026-04-18T11:58:16.999Z</time></trkpt><trkpt lat="41.986175719626154" lon="13.64695154546414"><ele>680.6666666666667</ele><time>2026-04-18T11:58:17.999Z</time></trkpt><trkpt lat="41.98600366482213" lon="13.647105277867281"><ele>682.3333333333334</ele><time>2026-04-18T11:58:18.999Z</time></trkpt><trkpt lat="41.98583780531387" lon="13.647265099975202"><ele>684.0</ele><time>2026-04-18T11:58:19.999Z</time></trkpt><trkpt lat="41.985684086303536" lon="13.647404099855835"><ele>684.0</ele><time>2026-04-18T11:58:20.999Z</time></trkpt><trkpt lat="41.985535370701776" lon="13.647513047732481"><ele>684.0</ele><time>2026-04-18T11:58:21.999Z</time></trkpt><trkpt lat="41.98536519008834" lon="13.647586628107925"><ele>684.0</ele><time>2026-04-18T11:58:22.999Z</time></trkpt><trkpt lat="41.985162483726704" lon="13.64760617685944"><ele>683.3333333333334</ele><time>2026-04-18T11:58:23.999Z</time></trkpt><trkpt lat="41.984953399014806" lon="13.647609227596034"><ele>682.6666666666667</ele><time>2026-04-18T11:58:24.999Z</time></trkpt><trkpt lat="41.984721350495356" lon="13.647624548496045"><ele>682.0</ele><time>2026-04-18T11:58:25.999Z</time></trkpt><trkpt lat="41.984485024106995" lon="13.647687940017835"><ele>682.0</ele><time>2026-04-18T11:58:26.999Z</time></trkpt><trkpt lat="41.98427244152155" lon="13.647782235771212"><ele>682.0</ele><time>2026-04-18T11:58:27.999Z</time></trkpt><trkpt lat="41.98408547275273" lon="13.647895420960479"><ele>682.0</ele><time>2026-04-18T11:58:28.999Z</time></trkpt><trkpt lat="41.98390731602088" lon="13.64803613074802"><ele>683.6666666666667</ele><time>2026-04-18T11:58:29.999Z</time></trkpt><trkpt lat="41.98373037279463" lon="13.648212638494583"><ele>685.3333333333334</ele><time>2026-04-18T11:58:30.999Z</time></trkpt><trkpt lat="41.98356904865297" lon="13.648388441863197"><ele>687.0</ele><time>2026-04-18T11:58:31.999Z</time></trkpt><trkpt lat="41.98343786222758" lon="13.648536380954164"><ele>689.0</ele><time>2026-04-18T11:58:32.999Z</time></trkpt><trkpt lat="41.98335207538643" lon="13.648690271655212"><ele>691.0</ele><time>2026-04-18T11:58:33.999Z</time></trkpt><trkpt lat="41.98327471734102" lon="13.648900596852767"><ele>693.0</ele><time>2026-04-18T11:58:34.999Z</time></trkpt><trkpt lat="41.98321806244875" lon="13.649163197703336"><ele>690.3333333333334</ele><time>2026-04-18T11:58:35.999Z</time></trkpt><trkpt lat="41.98316018488821" lon="13.649456756387297"><ele>687.6666666666667</ele><time>2026-04-18T11:58:36.999Z</time></trkpt><trkpt lat="41.983108973945825" lon="13.649718131541432"><ele>685.0</ele><time>2026-04-18T11:58:37.999Z</time></trkpt><trkpt lat="41.983058681069096" lon="13.649951519002618"><ele>685.0</ele><time>2026-04-18T11:58:38.999Z</time></trkpt><trkpt lat="41.98300203017787" lon="13.650154590948771"><ele>685.0</ele><time>2026-04-18T11:58:39.999Z</time></trkpt><trkpt lat="41.98291144136234" lon="13.650351062668761"><ele>685.0</ele><time>2026-04-18T11:58:40.999Z</time></trkpt><trkpt lat="41.98278047065973" lon="13.650536709924083"><ele>683.5</ele><time>2026-04-18T11:58:41.999Z</time></trkpt><trkpt lat="41.98259807160567" lon="13.650716204199158"><ele>682.0</ele><time>2026-04-18T11:58:42.999Z</time></trkpt><trkpt lat="41.98240864505818" lon="13.650894040363388"><ele>682.0</ele><time>2026-04-18T11:58:43.999Z</time></trkpt><trkpt lat="41.98224104953537" lon="13.651081070867853"><ele>682.0</ele><time>2026-04-18T11:58:44.999Z</time></trkpt><trkpt lat="41.98207749588172" lon="13.651255504957978"><ele>682.0</ele><time>2026-04-18T11:58:45.999Z</time></trkpt><trkpt lat="41.98191305651386" lon="13.651444868647324"><ele>681.0</ele><time>2026-04-18T11:58:46.999Z</time></trkpt><trkpt lat="41.98174202916372" lon="13.651613626863284"><ele>680.0</ele><time>2026-04-18T11:58:47.999Z</time></trkpt><trkpt lat="41.98154460007" lon="13.651756772704832"><ele>679.0</ele><time>2026-04-18T11:58:48.999Z</time></trkpt><trkpt lat="41.98130678748181" lon="13.6518747136116"><ele>680.0</ele><time>2026-04-18T11:58:49.999Z</time></trkpt><trkpt lat="41.98104735119396" lon="13.651984173769861"><ele>681.0</ele><time>2026-04-18T11:58:50.999Z</time></trkpt><trkpt lat="41.98076440001223" lon="13.652109105335652"><ele>681.0</ele><time>2026-04-18T11:58:51.999Z</time></trkpt><trkpt lat="41.98048697940644" lon="13.652252824668368"><ele>681.0</ele><time>2026-04-18T11:58:52.999Z</time></trkpt><trkpt lat="41.98021460133768" lon="13.652384389932843"><ele>680.0</ele><time>2026-04-18T11:58:53.999Z</time></trkpt><trkpt lat="41.979943126769086" lon="13.652517252357061"><ele>679.0</ele><time>2026-04-18T11:58:54.999Z</time></trkpt><trkpt lat="41.979664511050096" lon="13.652646863471631"><ele>679.0</ele><time>2026-04-18T11:58:55.999Z</time></trkpt><trkpt lat="41.9793776388407" lon="13.652785556021472"><ele>679.0</ele><time>2026-04-18T11:58:56.999Z</time></trkpt><trkpt lat="41.979074250751985" lon="13.652928786437124"><ele>680.5</ele><time>2026-04-18T11:58:57.999Z</time></trkpt><trkpt lat="41.97875083721654" lon="13.65308582892897"><ele>682.0</ele><time>2026-04-18T11:58:58.999Z</time></trkpt><trkpt lat="41.978424918111365" lon="13.653248449228798"><ele>680.5</ele><time>2026-04-18T11:58:59.999Z</time></trkpt><trkpt lat="41.978134560101005" lon="13.653391018523727"><ele>679.0</ele><time>2026-04-18T11:59:00.999Z</time></trkpt><trkpt lat="41.97786925442226" lon="13.653522311376701"><ele>680.5</ele><time>2026-04-18T11:59:01.999Z</time></trkpt><trkpt lat="41.97761397921297" lon="13.653650150965017"><ele>682.0</ele><time>2026-04-18T11:59:02.999Z</time></trkpt><trkpt lat="41.977350905776376" lon="13.653799762851444"><ele>682.0</ele><time>2026-04-18T11:59:03.999Z</time></trkpt><trkpt lat="41.97708407476408" lon="13.653986264451596"><ele>682.0</ele><time>2026-04-18T11:59:04.999Z</time></trkpt><trkpt lat="41.97681527705206" lon="13.654205538316786"><ele>685.5</ele><time>2026-04-18T11:59:05.999Z</time></trkpt><trkpt lat="41.976556935464565" lon="13.654425519837437"><ele>689.0</ele><time>2026-04-18T11:59:06.999Z</time></trkpt><trkpt lat="41.9763094655937" lon="13.654642602146712"><ele>689.0</ele><time>2026-04-18T11:59:07.999Z</time></trkpt><trkpt lat="41.976058498776176" lon="13.654870270621748"><ele>689.0</ele><time>2026-04-18T11:59:08.999Z</time></trkpt><trkpt lat="41.97579746854233" lon="13.655116074334067"><ele>690.5</ele><time>2026-04-18T11:59:09.999Z</time></trkpt><trkpt lat="41.97552826855839" lon="13.655373227176156"><ele>692.0</ele><time>2026-04-18T11:59:10.999Z</time></trkpt><trkpt lat="41.975272090840264" lon="13.65562567815694"><ele>692.0</ele><time>2026-04-18T11:59:11.999Z</time></trkpt><trkpt lat="41.975032907799154" lon="13.65586269953125"><ele>692.0</ele><time>2026-04-18T11:59:12.999Z</time></trkpt><trkpt lat="41.97480420693076" lon="13.656082244898037"><ele>693.0</ele><time>2026-04-18T11:59:13.999Z</time></trkpt><trkpt lat="41.974573179406214" lon="13.656282995124062"><ele>694.0</ele><time>2026-04-18T11:59:14.999Z</time></trkpt><trkpt lat="41.97434026899457" lon="13.656473314625693"><ele>685.5</ele><time>2026-04-18T11:59:15.999Z</time></trkpt><trkpt lat="41.9741043601333" lon="13.656665872499511"><ele>677.0</ele><time>2026-04-18T11:59:16.999Z</time></trkpt><trkpt lat="41.97386744957858" lon="13.656883812711813"><ele>683.0</ele><time>2026-04-18T11:59:17.999Z</time></trkpt><trkpt lat="41.97362751967572" lon="13.65711991897673"><ele>689.0</ele><time>2026-04-18T11:59:18.999Z</time></trkpt><trkpt lat="41.97340796887732" lon="13.657333746860385"><ele>682.5</ele><time>2026-04-18T11:59:19.999Z</time></trkpt><trkpt lat="41.97320652193661" lon="13.657529605450657"><ele>676.0</ele><time>2026-04-18T11:59:20.999Z</time></trkpt><trkpt lat="41.9730258359785" lon="13.657711017297942"><ele>679.3333333333334</ele><time>2026-04-18T11:59:21.999Z</time></trkpt><trkpt lat="41.97286042053859" lon="13.657881743193604"><ele>682.6666666666666</ele><time>2026-04-18T11:59:22.999Z</time></trkpt><trkpt lat="41.97270726920981" lon="13.658084271791223"><ele>686.0</ele><time>2026-04-18T11:59:23.999Z</time></trkpt><trkpt lat="41.972572888665574" lon="13.658341885006827"><ele>684.0</ele><time>2026-04-18T11:59:24.999Z</time></trkpt><trkpt lat="41.97244309377969" lon="13.65861161697681"><ele>682.0</ele><time>2026-04-18T11:59:25.999Z</time></trkpt><trkpt lat="41.97231887836415" lon="13.658851969381537"><ele>682.0</ele><time>2026-04-18T11:59:26.999Z</time></trkpt><trkpt lat="41.97217529920447" lon="13.65907463317846"><ele>682.0</ele><time>2026-04-18T11:59:27.999Z</time></trkpt><trkpt lat="41.97198676709607" lon="13.659276714825854"><ele>679.5</ele><time>2026-04-18T11:59:28.999Z</time></trkpt><trkpt lat="41.97178410621052" lon="13.659477755218179"><ele>677.0</ele><time>2026-04-18T11:59:29.999Z</time></trkpt><trkpt lat="41.971570658624955" lon="13.65969858242504"><ele>677.0</ele><time>2026-04-18T11:59:30.999Z</time></trkpt><trkpt lat="41.97133776072619" lon="13.659946133434586"><ele>677.0</ele><time>2026-04-18T11:59:31.999Z</time></trkpt><trkpt lat="41.97110107711663" lon="13.660200825382825"><ele>677.5</ele><time>2026-04-18T11:59:32.999Z</time></trkpt><trkpt lat="41.97089120895134" lon="13.660425855048546"><ele>678.0</ele><time>2026-04-18T11:59:33.999Z</time></trkpt><trkpt lat="41.970690951944675" lon="13.660629221270309"><ele>678.0</ele><time>2026-04-18T11:59:34.999Z</time></trkpt><trkpt lat="41.97048488525381" lon="13.660842006528615"><ele>678.0</ele><time>2026-04-18T11:59:35.999Z</time></trkpt><trkpt lat="41.97028556655887" lon="13.661060402654963"><ele>678.0</ele><time>2026-04-18T11:59:36.999Z</time></trkpt><trkpt lat="41.97008488142197" lon="13.6612746002259"><ele>678.0</ele><time>2026-04-18T11:59:38Z</time></trkpt><trkpt lat="41.96988534488266" lon="13.661500313201485"><ele>678.0</ele><time>2026-04-18T11:59:39Z</time></trkpt><trkpt lat="41.96969008366882" lon="13.661766380045052"><ele>678.0</ele><time>2026-04-18T11:59:40Z</time></trkpt><trkpt lat="41.96948888873142" lon="13.662070966755016"><ele>677.0</ele><time>2026-04-18T11:59:41Z</time></trkpt><trkpt lat="41.96927459743545" lon="13.6623912978216"><ele>676.0</ele><time>2026-04-18T11:59:42Z</time></trkpt><trkpt lat="41.96906199714364" lon="13.662718994539718"><ele>676.5</ele><time>2026-04-18T11:59:43Z</time></trkpt><trkpt lat="41.968852379980056" lon="13.663031001147898"><ele>677.0</ele><time>2026-04-18T11:59:44Z</time></trkpt><trkpt lat="41.968660195968205" lon="13.663324526286965"><ele>677.0</ele><time>2026-04-18T11:59:45Z</time></trkpt><trkpt lat="41.96848789118456" lon="13.663607775082745"><ele>677.0</ele><time>2026-04-18T11:59:46Z</time></trkpt><trkpt lat="41.96832832293243" lon="13.66388783082138"><ele>676.0</ele><time>2026-04-18T11:59:47Z</time></trkpt><trkpt lat="41.96817977209722" lon="13.664166480985998"><ele>675.0</ele><time>2026-04-18T11:59:48Z</time></trkpt><trkpt lat="41.96802486208083" lon="13.664440871634426"><ele>677.0</ele><time>2026-04-18T11:59:49Z</time></trkpt><trkpt lat="41.96787064597632" lon="13.664712620806965"><ele>679.0</ele><time>2026-04-18T11:59:50Z</time></trkpt><trkpt lat="41.96771937693158" lon="13.664992844210504"><ele>679.0</ele><time>2026-04-18T11:59:51Z</time></trkpt><trkpt lat="41.96755507021647" lon="13.665289519461322"><ele>679.0</ele><time>2026-04-18T11:59:52Z</time></trkpt><trkpt lat="41.96736243076008" lon="13.665595605535298"><ele>679.0</ele><time>2026-04-18T11:59:53Z</time></trkpt><trkpt lat="41.96718427503368" lon="13.665852268830463"><ele>679.0</ele><time>2026-04-18T11:59:54Z</time></trkpt><trkpt lat="41.96701244499025" lon="13.666085533059587"><ele>678.5</ele><time>2026-04-18T11:59:55Z</time></trkpt><trkpt lat="41.966853122459064" lon="13.666306392763664"><ele>678.0</ele><time>2026-04-18T11:59:56Z</time></trkpt><trkpt lat="41.9666830872096" lon="13.666530602247443"><ele>678.0</ele><time>2026-04-18T11:59:57Z</time></trkpt><trkpt lat="41.966493668206105" lon="13.666752144589728"><ele>678.0</ele><time>2026-04-18T11:59:58Z</time></trkpt><trkpt lat="41.96628106201191" lon="13.66696276947796"><ele>678.0</ele><time>2026-04-18T11:59:59Z</time></trkpt><trkpt lat="41.96606198389319" lon="13.667165183354953"><ele>678.0</ele><time>2026-04-18T12:00:00Z</time></trkpt><trkpt lat="41.96584072871543" lon="13.667363883952834"><ele>678.0</ele><time>2026-04-18T12:00:01Z</time></trkpt><trkpt lat="41.965617900475706" lon="13.667567552338502"><ele>678.0</ele><time>2026-04-18T12:00:02Z</time></trkpt><trkpt lat="41.96540062246856" lon="13.667771151199169"><ele>678.5</ele><time>2026-04-18T12:00:02.999Z</time></trkpt><trkpt lat="41.96518667116938" lon="13.667970585670949"><ele>679.0</ele><time>2026-04-18T12:00:03.999Z</time></trkpt><trkpt lat="41.964976652573526" lon="13.668170085832761"><ele>679.0</ele><time>2026-04-18T12:00:04.999Z</time></trkpt><trkpt lat="41.96476602007811" lon="13.668386563161917"><ele>679.0</ele><time>2026-04-18T12:00:05.999Z</time></trkpt><trkpt lat="41.96456209356277" lon="13.668643832873649"><ele>679.0</ele><time>2026-04-18T12:00:06.999Z</time></trkpt><trkpt lat="41.96436002346704" lon="13.668948268161284"><ele>679.0</ele><time>2026-04-18T12:00:07.999Z</time></trkpt><trkpt lat="41.96414935486178" lon="13.669252534355106"><ele>677.5</ele><time>2026-04-18T12:00:08.999Z</time></trkpt><trkpt lat="41.963922008059704" lon="13.669591180849853"><ele>676.0</ele><time>2026-04-18T12:00:09.999Z</time></trkpt><trkpt lat="41.963679846267794" lon="13.669945191764915"><ele>676.0</ele><time>2026-04-18T12:00:10.999Z</time></trkpt><trkpt lat="41.96342232013672" lon="13.670315618978087"><ele>676.0</ele><time>2026-04-18T12:00:11.999Z</time></trkpt><trkpt lat="41.96316470552516" lon="13.67069625195865"><ele>676.5</ele><time>2026-04-18T12:00:12.999Z</time></trkpt><trkpt lat="41.96292741265295" lon="13.671050661415885"><ele>677.0</ele><time>2026-04-18T12:00:13.999Z</time></trkpt><trkpt lat="41.962713017099986" lon="13.67136848277118"><ele>677.0</ele><time>2026-04-18T12:00:14.999Z</time></trkpt><trkpt lat="41.96250006367654" lon="13.671685924499581"><ele>677.0</ele><time>2026-04-18T12:00:15.999Z</time></trkpt><trkpt lat="41.962279185847926" lon="13.672015102084526"><ele>676.5</ele><time>2026-04-18T12:00:16.999Z</time></trkpt><trkpt lat="41.962048366373686" lon="13.672356539493492"><ele>676.0</ele><time>2026-04-18T12:00:17.999Z</time></trkpt><trkpt lat="41.96180618211302" lon="13.67271169588229"><ele>675.5</ele><time>2026-04-18T12:00:18.999Z</time></trkpt><trkpt lat="41.96155749423594" lon="13.673083346185866"><ele>675.0</ele><time>2026-04-18T12:00:19.999Z</time></trkpt><trkpt lat="41.961293428702724" lon="13.673465290033167"><ele>675.0</ele><time>2026-04-18T12:00:20.999Z</time></trkpt><trkpt lat="41.96102146835991" lon="13.673860242370031"><ele>675.0</ele><time>2026-04-18T12:00:21.999Z</time></trkpt><trkpt lat="41.9607727650048" lon="13.67422658898254"><ele>674.5</ele><time>2026-04-18T12:00:22.999Z</time></trkpt><trkpt lat="41.96054528034994" lon="13.674563934272099"><ele>674.0</ele><time>2026-04-18T12:00:23.999Z</time></trkpt><trkpt lat="41.96032611095063" lon="13.674890531991116"><ele>674.0</ele><time>2026-04-18T12:00:24.999Z</time></trkpt><trkpt lat="41.96010687390714" lon="13.675216583340081"><ele>674.0</ele><time>2026-04-18T12:00:25.999Z</time></trkpt><trkpt lat="41.959889189863986" lon="13.675543342376"><ele>674.0</ele><time>2026-04-18T12:00:26.999Z</time></trkpt><trkpt lat="41.95966841475738" lon="13.675876924476885"><ele>674.0</ele><time>2026-04-18T12:00:27.999Z</time></trkpt><trkpt lat="41.95944998171153" lon="13.676229587658248"><ele>674.0</ele><time>2026-04-18T12:00:28.999Z</time></trkpt><trkpt lat="41.959232208792734" lon="13.67660855456335"><ele>674.0</ele><time>2026-04-18T12:00:29.999Z</time></trkpt><trkpt lat="41.95902788061684" lon="13.67695686434708"><ele>674.5</ele><time>2026-04-18T12:00:30.999Z</time></trkpt><trkpt lat="41.958844197850034" lon="13.677282839735899"><ele>675.0</ele><time>2026-04-18T12:00:31.999Z</time></trkpt><trkpt lat="41.958665525402" lon="13.677600481151318"><ele>675.0</ele><time>2026-04-18T12:00:32.999Z</time></trkpt><trkpt lat="41.958500938847266" lon="13.677902309859347"><ele>675.0</ele><time>2026-04-18T12:00:33.999Z</time></trkpt><trkpt lat="41.9583409578672" lon="13.678212996532869"><ele>675.5</ele><time>2026-04-18T12:00:34.999Z</time></trkpt><trkpt lat="41.958193261417726" lon="13.678539657263462"><ele>676.0</ele><time>2026-04-18T12:00:35.999Z</time></trkpt><trkpt lat="41.95805238362143" lon="13.678872315745375"><ele>676.0</ele><time>2026-04-18T12:00:36.999Z</time></trkpt><trkpt lat="41.95791252117489" lon="13.679194312068358"><ele>676.0</ele><time>2026-04-18T12:00:37.999Z</time></trkpt><trkpt lat="41.95777909422295" lon="13.67951146432293"><ele>675.5</ele><time>2026-04-18T12:00:38.999Z</time></trkpt><trkpt lat="41.957652089343554" lon="13.679826009842987"><ele>675.0</ele><time>2026-04-18T12:00:39.999Z</time></trkpt><trkpt lat="41.95753698228543" lon="13.680148647108865"><ele>675.5</ele><time>2026-04-18T12:00:40.999Z</time></trkpt><trkpt lat="41.957443055103376" lon="13.68049061275279"><ele>676.0</ele><time>2026-04-18T12:00:41.999Z</time></trkpt><trkpt lat="41.95736211555417" lon="13.680837630440088"><ele>675.5</ele><time>2026-04-18T12:00:42.999Z</time></trkpt><trkpt lat="41.95729961477893" lon="13.68114361448623"><ele>675.0</ele><time>2026-04-18T12:00:43.999Z</time></trkpt><trkpt lat="41.957238750633394" lon="13.681435553606917"><ele>675.0</ele><time>2026-04-18T12:00:44.999Z</time></trkpt><trkpt lat="41.957140766644414" lon="13.681744266228613"><ele>675.0</ele><time>2026-04-18T12:00:45.999Z</time></trkpt><trkpt lat="41.95701336508482" lon="13.682049966614034"><ele>675.5</ele><time>2026-04-18T12:00:46.999Z</time></trkpt><trkpt lat="41.95687602020098" lon="13.682366921770694"><ele>676.0</ele><time>2026-04-18T12:00:47.999Z</time></trkpt><trkpt lat="41.9567321827723" lon="13.682691876909956"><ele>676.5</ele><time>2026-04-18T12:00:48.999Z</time></trkpt><trkpt lat="41.95658313273087" lon="13.683022532436059"><ele>677.0</ele><time>2026-04-18T12:00:49.999Z</time></trkpt><trkpt lat="41.95644572746456" lon="13.683341428404955"><ele>677.0</ele><time>2026-04-18T12:00:50.999Z</time></trkpt><trkpt lat="41.956320822081665" lon="13.6836456340818"><ele>677.0</ele><time>2026-04-18T12:00:51.999Z</time></trkpt><trkpt lat="41.95619864983179" lon="13.683951175013148"><ele>677.0</ele><time>2026-04-18T12:00:52.999Z</time></trkpt><trkpt lat="41.95609914885214" lon="13.684243704926056"><ele>677.0</ele><time>2026-04-18T12:00:53.999Z</time></trkpt><trkpt lat="41.956017955048175" lon="13.684525512228852"><ele>676.6666666666666</ele><time>2026-04-18T12:00:54.999Z</time></trkpt><trkpt lat="41.95594290635476" lon="13.684799664980536"><ele>676.3333333333334</ele><time>2026-04-18T12:00:55.999Z</time></trkpt><trkpt lat="41.9558659957532" lon="13.685059929247382"><ele>676.0</ele><time>2026-04-18T12:00:56.999Z</time></trkpt><trkpt lat="41.955793094978716" lon="13.685301069050276"><ele>676.75</ele><time>2026-04-18T12:00:57.999Z</time></trkpt><trkpt lat="41.95573124885246" lon="13.685516995213371"><ele>677.5</ele><time>2026-04-18T12:00:58.999Z</time></trkpt><trkpt lat="41.955681295314946" lon="13.685696102824476"><ele>678.25</ele><time>2026-04-18T12:00:59.999Z</time></trkpt><trkpt lat="41.95563476764378" lon="13.685855256292053"><ele>679.0</ele><time>2026-04-18T12:01:00.999Z</time></trkpt><trkpt lat="41.955595816382896" lon="13.685991421577619"><ele>679.5</ele><time>2026-04-18T12:01:01.999Z</time></trkpt><trkpt lat="41.95556671900792" lon="13.686101413623511"><ele>680.0</ele><time>2026-04-18T12:01:02.999Z</time></trkpt><trkpt lat="41.955536060472845" lon="13.686222080901812"><ele>680.5</ele><time>2026-04-18T12:01:04.999Z</time></trkpt><trkpt lat="41.95551934888595" lon="13.686313576186015"><ele>681.0</ele><time>2026-04-18T12:01:16.999Z</time></trkpt><trkpt lat="41.95549003852568" lon="13.686466264087398"><ele>681.5</ele><time>2026-04-18T12:01:18.999Z</time></trkpt><trkpt lat="41.95547179307801" lon="13.686571001289638"><ele>682.0</ele><time>2026-04-18T12:01:19.999Z</time></trkpt><trkpt lat="41.955451715250746" lon="13.686679742233546"><ele>682.0</ele><time>2026-04-18T12:01:20.999Z</time></trkpt><trkpt lat="41.95542827069972" lon="13.686806504827704"><ele>682.0</ele><time>2026-04-18T12:01:21.999Z</time></trkpt><trkpt lat="41.95540758992498" lon="13.686937479835287"><ele>682.0</ele><time>2026-04-18T12:01:22.999Z</time></trkpt><trkpt lat="41.955384808455214" lon="13.68707623807044"><ele>682.0</ele><time>2026-04-18T12:01:23.999Z</time></trkpt><trkpt lat="41.95535080574041" lon="13.687238969924426"><ele>682.0</ele><time>2026-04-18T12:01:24.999Z</time></trkpt><trkpt lat="41.955318479589984" lon="13.687405408430301"><ele>682.5</ele><time>2026-04-18T12:01:25.999Z</time></trkpt><trkpt lat="41.955287045187205" lon="13.68757791997119"><ele>683.0</ele><time>2026-04-18T12:01:26.999Z</time></trkpt><trkpt lat="41.9552580934274" lon="13.687755100872986"><ele>683.5</ele><time>2026-04-18T12:01:27.999Z</time></trkpt><trkpt lat="41.95523433195813" lon="13.687939207945758"><ele>684.0</ele><time>2026-04-18T12:01:28.999Z</time></trkpt><trkpt lat="41.95521412126244" lon="13.688132472687704"><ele>684.6666666666666</ele><time>2026-04-18T12:01:29.999Z</time></trkpt><trkpt lat="41.95519495877779" lon="13.688342428716773"><ele>685.3333333333333</ele><time>2026-04-18T12:01:30.999Z</time></trkpt><trkpt lat="41.955181779529404" lon="13.688562580176239"><ele>686.0</ele><time>2026-04-18T12:01:31.999Z</time></trkpt><trkpt lat="41.955170973993205" lon="13.688788682705823"><ele>687.6666666666666</ele><time>2026-04-18T12:01:32.999Z</time></trkpt><trkpt lat="41.95516594280159" lon="13.689019622292811"><ele>689.3333333333334</ele><time>2026-04-18T12:01:33.999Z</time></trkpt><trkpt lat="41.95516465503206" lon="13.689255614794732"><ele>691.0</ele><time>2026-04-18T12:01:34.999Z</time></trkpt><trkpt lat="41.95516537570017" lon="13.689494047130976"><ele>692.6666666666667</ele><time>2026-04-18T12:01:35.999Z</time></trkpt><trkpt lat="41.95517101924651" lon="13.68973622725139"><ele>694.3333333333334</ele><time>2026-04-18T12:01:36.999Z</time></trkpt><trkpt lat="41.95517339734391" lon="13.68997955011323"><ele>696.0</ele><time>2026-04-18T12:01:37.999Z</time></trkpt><trkpt lat="41.95517760970741" lon="13.690221504661947"><ele>697.3333333333334</ele><time>2026-04-18T12:01:38.999Z</time></trkpt><trkpt lat="41.95518222460732" lon="13.69045928828835"><ele>698.6666666666667</ele><time>2026-04-18T12:01:39.999Z</time></trkpt><trkpt lat="41.955187162351145" lon="13.690690342687088"><ele>700.0</ele><time>2026-04-18T12:01:40.999Z</time></trkpt><trkpt lat="41.95518088195757" lon="13.690919994167198"><ele>700.6666666666667</ele><time>2026-04-18T12:01:41.999Z</time></trkpt><trkpt lat="41.955164255102616" lon="13.691143173360842"><ele>701.3333333333334</ele><time>2026-04-18T12:01:42.999Z</time></trkpt><trkpt lat="41.95512243767812" lon="13.691366536278583"><ele>702.0</ele><time>2026-04-18T12:01:44Z</time></trkpt><trkpt lat="41.95507527618724" lon="13.69158941533503"><ele>702.0</ele><time>2026-04-18T12:01:45Z</time></trkpt><trkpt lat="41.9550380765616" lon="13.69181948506107"><ele>702.0</ele><time>2026-04-18T12:01:46Z</time></trkpt><trkpt lat="41.954998962541545" lon="13.69204829811596"><ele>702.0</ele><time>2026-04-18T12:01:47Z</time></trkpt><trkpt lat="41.95495501380557" lon="13.692275785857749"><ele>704.6666666666666</ele><time>2026-04-18T12:01:48Z</time></trkpt><trkpt lat="41.95491291459795" lon="13.692499229781316"><ele>707.3333333333333</ele><time>2026-04-18T12:01:49Z</time></trkpt><trkpt lat="41.954872881704404" lon="13.692712840494032"><ele>710.0</ele><time>2026-04-18T12:01:50Z</time></trkpt><trkpt lat="41.9548368887815" lon="13.692895682737436"><ele>710.75</ele><time>2026-04-18T12:01:51Z</time></trkpt><trkpt lat="41.954805112058075" lon="13.693058136548762"><ele>711.5</ele><time>2026-04-18T12:01:52Z</time></trkpt><trkpt lat="41.95479231086268" lon="13.693226574393899"><ele>712.25</ele><time>2026-04-18T12:01:53Z</time></trkpt><trkpt lat="41.95480893985396" lon="13.693405625816062"><ele>713.0</ele><time>2026-04-18T12:01:54Z</time></trkpt><trkpt lat="41.95483534444718" lon="13.693585508092497"><ele>713.25</ele><time>2026-04-18T12:01:55Z</time></trkpt><trkpt lat="41.954864819518036" lon="13.693750689485933"><ele>713.5</ele><time>2026-04-18T12:01:56Z</time></trkpt><trkpt lat="41.954894416112225" lon="13.693916946983116"><ele>713.75</ele><time>2026-04-18T12:01:57Z</time></trkpt><trkpt lat="41.95492312925714" lon="13.694095720695312"><ele>714.0</ele><time>2026-04-18T12:01:58Z</time></trkpt><trkpt lat="41.954949372859915" lon="13.694277852152693"><ele>714.0</ele><time>2026-04-18T12:01:59Z</time></trkpt><trkpt lat="41.954962804368314" lon="13.694442746138742"><ele>714.0</ele><time>2026-04-18T12:02:00Z</time></trkpt><trkpt lat="41.95494935236445" lon="13.694593060251623"><ele>714.0</ele><time>2026-04-18T12:02:01Z</time></trkpt><trkpt lat="41.954899811050225" lon="13.69474794667122"><ele>714.0</ele><time>2026-04-18T12:02:02Z</time></trkpt><trkpt lat="41.95480625820209" lon="13.694906752001163"><ele>714.0</ele><time>2026-04-18T12:02:03Z</time></trkpt><trkpt lat="41.95468089326785" lon="13.695085809537135"><ele>714.0</ele><time>2026-04-18T12:02:04Z</time></trkpt><trkpt lat="41.954536723974265" lon="13.695300661594977"><ele>714.0</ele><time>2026-04-18T12:02:04.999Z</time></trkpt><trkpt lat="41.954397229033795" lon="13.695524702508328"><ele>714.0</ele><time>2026-04-18T12:02:05.999Z</time></trkpt><trkpt lat="41.95425698142355" lon="13.695717881478508"><ele>714.0</ele><time>2026-04-18T12:02:06.999Z</time></trkpt><trkpt lat="41.95414016763155" lon="13.695895156639873"><ele>714.0</ele><time>2026-04-18T12:02:07.999Z</time></trkpt><trkpt lat="41.95404406049909" lon="13.696045532084987"><ele>715.2</ele><time>2026-04-18T12:02:08.999Z</time></trkpt><trkpt lat="41.95397039825498" lon="13.696155200467171"><ele>716.4000000000001</ele><time>2026-04-18T12:02:09.999Z</time></trkpt><trkpt lat="41.9539177480893" lon="13.69622671999193"><ele>717.6</ele><time>2026-04-18T12:02:10.999Z</time></trkpt><trkpt lat="41.95386079850439" lon="13.696308725573402"><ele>718.8</ele><time>2026-04-18T12:02:11.999Z</time></trkpt><trkpt lat="41.95377594888973" lon="13.69644609570627"><ele>720.0</ele><time>2026-04-18T12:02:12.999Z</time></trkpt><trkpt lat="41.953649949703326" lon="13.696602051164922"><ele>720.0</ele><time>2026-04-18T12:02:13.999Z</time></trkpt><trkpt lat="41.95352439097521" lon="13.696781542548655"><ele>720.0</ele><time>2026-04-18T12:02:14.999Z</time></trkpt><trkpt lat="41.95339200602531" lon="13.696989231324409"><ele>720.0</ele><time>2026-04-18T12:02:15.999Z</time></trkpt><trkpt lat="41.95325012854636" lon="13.697204131216434"><ele>720.0</ele><time>2026-04-18T12:02:16.999Z</time></trkpt><trkpt lat="41.953099884641695" lon="13.697427491707511"><ele>720.0</ele><time>2026-04-18T12:02:17.999Z</time></trkpt><trkpt lat="41.952946507936666" lon="13.697655385487469"><ele>723.0</ele><time>2026-04-18T12:02:18.999Z</time></trkpt><trkpt lat="41.95279374172473" lon="13.69789114735916"><ele>726.0</ele><time>2026-04-18T12:02:19.999Z</time></trkpt><trkpt lat="41.952638305937185" lon="13.698117298621781"><ele>721.5</ele><time>2026-04-18T12:02:20.999Z</time></trkpt><trkpt lat="41.95249375054198" lon="13.698357074046932"><ele>717.0</ele><time>2026-04-18T12:02:21.999Z</time></trkpt><trkpt lat="41.95233418657337" lon="13.698579928957379"><ele>720.0</ele><time>2026-04-18T12:02:22.999Z</time></trkpt><trkpt lat="41.95218195832413" lon="13.698822884600796"><ele>723.0</ele><time>2026-04-18T12:02:23.999Z</time></trkpt><trkpt lat="41.95201640291396" lon="13.699052382171136"><ele>723.0</ele><time>2026-04-18T12:02:24.999Z</time></trkpt><trkpt lat="41.95186466947438" lon="13.699295125040893"><ele>723.0</ele><time>2026-04-18T12:02:25.999Z</time></trkpt><trkpt lat="41.951701532962815" lon="13.699535152729823"><ele>722.0</ele><time>2026-04-18T12:02:26.999Z</time></trkpt><trkpt lat="41.95153279709437" lon="13.699781361967831"><ele>721.0</ele><time>2026-04-18T12:02:27.999Z</time></trkpt><trkpt lat="41.95136115241158" lon="13.700052604493742"><ele>722.0</ele><time>2026-04-18T12:02:28.999Z</time></trkpt><trkpt lat="41.95116977256655" lon="13.700342575729422"><ele>723.0</ele><time>2026-04-18T12:02:29.999Z</time></trkpt><trkpt lat="41.950975333665575" lon="13.700626058747297"><ele>723.0</ele><time>2026-04-18T12:02:30.999Z</time></trkpt><trkpt lat="41.950809814143135" lon="13.700877007643752"><ele>723.0</ele><time>2026-04-18T12:02:31.999Z</time></trkpt><trkpt lat="41.95065444942157" lon="13.701106145420605"><ele>725.0</ele><time>2026-04-18T12:02:32.999Z</time></trkpt><trkpt lat="41.95050487802479" lon="13.701331742540836"><ele>727.0</ele><time>2026-04-18T12:02:33.999Z</time></trkpt><trkpt lat="41.95035392861939" lon="13.701558748727036"><ele>727.0</ele><time>2026-04-18T12:02:34.999Z</time></trkpt><trkpt lat="41.950210787278436" lon="13.701768325318916"><ele>727.0</ele><time>2026-04-18T12:02:35.999Z</time></trkpt><trkpt lat="41.95007509456809" lon="13.701972776285402"><ele>727.0</ele><time>2026-04-18T12:02:36.999Z</time></trkpt><trkpt lat="41.949938183432685" lon="13.702182523358706"><ele>728.3333333333334</ele><time>2026-04-18T12:02:37.999Z</time></trkpt><trkpt lat="41.94980146572863" lon="13.702386004743179"><ele>729.6666666666666</ele><time>2026-04-18T12:02:38.999Z</time></trkpt><trkpt lat="41.9496788843375" lon="13.702569197828836"><ele>731.0</ele><time>2026-04-18T12:02:39.999Z</time></trkpt><trkpt lat="41.949558531347975" lon="13.702720287996348"><ele>732.6666666666666</ele><time>2026-04-18T12:02:40.999Z</time></trkpt><trkpt lat="41.94942897554946" lon="13.702831768925815"><ele>734.3333333333334</ele><time>2026-04-18T12:02:41.999Z</time></trkpt><trkpt lat="41.94928710160966" lon="13.702896245115298"><ele>736.0</ele><time>2026-04-18T12:02:42.999Z</time></trkpt><trkpt lat="41.949140997645166" lon="13.702906450142153"><ele>736.0</ele><time>2026-04-18T12:02:43.999Z</time></trkpt><trkpt lat="41.948994952586474" lon="13.702853374075104"><ele>736.0</ele><time>2026-04-18T12:02:44.999Z</time></trkpt><trkpt lat="41.9488467496304" lon="13.702759976256472"><ele>736.0</ele><time>2026-04-18T12:02:45.999Z</time></trkpt><trkpt lat="41.948702930099195" lon="13.702616351269157"><ele>736.0</ele><time>2026-04-18T12:02:46.999Z</time></trkpt><trkpt lat="41.94857277766529" lon="13.702433927270873"><ele>736.0</ele><time>2026-04-18T12:02:47.999Z</time></trkpt><trkpt lat="41.94842811699215" lon="13.702276342907478"><ele>736.0</ele><time>2026-04-18T12:02:48.999Z</time></trkpt><trkpt lat="41.94825949090554" lon="13.702154627120695"><ele>736.0</ele><time>2026-04-18T12:02:49.999Z</time></trkpt><trkpt lat="41.94806405960851" lon="13.702067248251513"><ele>736.0</ele><time>2026-04-18T12:02:50.999Z</time></trkpt><trkpt lat="41.947850612104524" lon="13.701981825355018"><ele>736.0</ele><time>2026-04-18T12:02:51.999Z</time></trkpt><trkpt lat="41.94763438068724" lon="13.701869080358763"><ele>735.5</ele><time>2026-04-18T12:02:52.999Z</time></trkpt><trkpt lat="41.947416954965256" lon="13.701760170465471"><ele>735.0</ele><time>2026-04-18T12:02:53.999Z</time></trkpt><trkpt lat="41.94719218803903" lon="13.701651985086484"><ele>735.0</ele><time>2026-04-18T12:02:54.999Z</time></trkpt><trkpt lat="41.94695797607322" lon="13.701543476915694"><ele>735.0</ele><time>2026-04-18T12:02:55.999Z</time></trkpt><trkpt lat="41.94671810587226" lon="13.701439878197478"><ele>735.5</ele><time>2026-04-18T12:02:56.999Z</time></trkpt><trkpt lat="41.946471648616296" lon="13.701333189167945"><ele>736.0</ele><time>2026-04-18T12:02:57.999Z</time></trkpt><trkpt lat="41.94621733723079" lon="13.701223899190207"><ele>736.0</ele><time>2026-04-18T12:02:58.999Z</time></trkpt><trkpt lat="41.94598770266459" lon="13.701127701870028"><ele>736.0</ele><time>2026-04-18T12:02:59.999Z</time></trkpt><trkpt lat="41.94576361719868" lon="13.70103791980109"><ele>735.5</ele><time>2026-04-18T12:03:00.999Z</time></trkpt><trkpt lat="41.94554077198515" lon="13.70094411874666"><ele>735.0</ele><time>2026-04-18T12:03:01.999Z</time></trkpt><trkpt lat="41.94531253229081" lon="13.700869001529734"><ele>735.0</ele><time>2026-04-18T12:03:02.999Z</time></trkpt><trkpt lat="41.945065926464665" lon="13.700839108648255"><ele>735.0</ele><time>2026-04-18T12:03:03.999Z</time></trkpt><trkpt lat="41.944809074913934" lon="13.700832577592964"><ele>738.5</ele><time>2026-04-18T12:03:04.999Z</time></trkpt><trkpt lat="41.944556291184014" lon="13.700812964749698"><ele>742.0</ele><time>2026-04-18T12:03:05.999Z</time></trkpt><trkpt lat="41.94433278913921" lon="13.700782910071913"><ele>744.6666666666667</ele><time>2026-04-18T12:03:06.999Z</time></trkpt><trkpt lat="41.94412234931659" lon="13.70075831964626"><ele>747.3333333333334</ele><time>2026-04-18T12:03:07.999Z</time></trkpt><trkpt lat="41.943903557567005" lon="13.700770283986024"><ele>750.0</ele><time>2026-04-18T12:03:08.999Z</time></trkpt><trkpt lat="41.943682294019794" lon="13.700823523585703"><ele>750.0</ele><time>2026-04-18T12:03:09.999Z</time></trkpt><trkpt lat="41.94346740915344" lon="13.700895481082943"><ele>750.0</ele><time>2026-04-18T12:03:10.999Z</time></trkpt><trkpt lat="41.943267502782895" lon="13.700991790619915"><ele>750.0</ele><time>2026-04-18T12:03:11.999Z</time></trkpt><trkpt lat="41.94310101709625" lon="13.701109469522605"><ele>757.0</ele><time>2026-04-18T12:03:12.999Z</time></trkpt><trkpt lat="41.942962143645126" lon="13.701257944362807"><ele>764.0</ele><time>2026-04-18T12:03:13.999Z</time></trkpt><trkpt lat="41.94284706584655" lon="13.70144623747602"><ele>771.0</ele><time>2026-04-18T12:03:14.999Z</time></trkpt><trkpt lat="41.94274107446971" lon="13.701665158638356"><ele>771.0</ele><time>2026-04-18T12:03:15.999Z</time></trkpt><trkpt lat="41.942653193373594" lon="13.701904375724185"><ele>771.0</ele><time>2026-04-18T12:03:16.999Z</time></trkpt><trkpt lat="41.942591751523835" lon="13.702171799302032"><ele>771.0</ele><time>2026-04-18T12:03:17.999Z</time></trkpt><trkpt lat="41.94254193154415" lon="13.70245826203623"><ele>770.0</ele><time>2026-04-18T12:03:18.999Z</time></trkpt><trkpt lat="41.94249878618013" lon="13.702740926309632"><ele>769.0</ele><time>2026-04-18T12:03:19.999Z</time></trkpt><trkpt lat="41.94246202727415" lon="13.702990788536052"><ele>768.0</ele><time>2026-04-18T12:03:20.999Z</time></trkpt><trkpt lat="41.942407367310295" lon="13.70321617259752"><ele>771.0</ele><time>2026-04-18T12:03:21.999Z</time></trkpt><trkpt lat="41.94234078099868" lon="13.703415678816757"><ele>774.0</ele><time>2026-04-18T12:03:22.999Z</time></trkpt><trkpt lat="41.94228302941179" lon="13.703607276638902"><ele>777.0</ele><time>2026-04-18T12:03:23.999Z</time></trkpt><trkpt lat="41.94226328927392" lon="13.703824848856124"><ele>778.0</ele><time>2026-04-18T12:03:24.999Z</time></trkpt><trkpt lat="41.94230146256027" lon="13.704065880265057"><ele>779.0</ele><time>2026-04-18T12:03:25.999Z</time></trkpt><trkpt lat="41.94236159797614" lon="13.70426495776607"><ele>780.0</ele><time>2026-04-18T12:03:26.999Z</time></trkpt><trkpt lat="41.942458708426734" lon="13.704448057304102"><ele>783.25</ele><time>2026-04-18T12:03:27.999Z</time></trkpt><trkpt lat="41.942564554591115" lon="13.704609750013988"><ele>786.5</ele><time>2026-04-18T12:03:28.999Z</time></trkpt><trkpt lat="41.9426486368044" lon="13.704740174048027"><ele>789.75</ele><time>2026-04-18T12:03:29.999Z</time></trkpt><trkpt lat="41.94265643590887" lon="13.704830442663335"><ele>793.0</ele><time>2026-04-18T12:03:30.999Z</time></trkpt><trkpt lat="41.94266415377471" lon="13.704985079570527"><ele>793.0</ele><time>2026-04-18T12:03:31.999Z</time></trkpt><trkpt lat="41.94263305824232" lon="13.7051979736868"><ele>793.0</ele><time>2026-04-18T12:03:32.999Z</time></trkpt><trkpt lat="41.94257099719114" lon="13.705418836791186"><ele>793.0</ele><time>2026-04-18T12:03:33.999Z</time></trkpt><trkpt lat="41.94248556246684" lon="13.705636293833335"><ele>794.3333333333333</ele><time>2026-04-18T12:03:34.999Z</time></trkpt><trkpt lat="41.94237338093361" lon="13.705857770467757"><ele>795.6666666666667</ele><time>2026-04-18T12:03:35.999Z</time></trkpt><trkpt lat="41.94227056322831" lon="13.706059589076915"><ele>797.0</ele><time>2026-04-18T12:03:36.999Z</time></trkpt><trkpt lat="41.942189611710795" lon="13.706211317549622"><ele>797.0</ele><time>2026-04-18T12:03:37.999Z</time></trkpt><trkpt lat="41.94209381730971" lon="13.706315899802567"><ele>797.0</ele><time>2026-04-18T12:03:38.999Z</time></trkpt><trkpt lat="41.941948778950774" lon="13.706347009488672"><ele>797.0</ele><time>2026-04-18T12:03:39.999Z</time></trkpt><trkpt lat="41.94179980287907" lon="13.706338376628555"><ele>797.0</ele><time>2026-04-18T12:03:40.999Z</time></trkpt><trkpt lat="41.94168265746899" lon="13.706242756748681"><ele>794.6666666666667</ele><time>2026-04-18T12:03:41.999Z</time></trkpt><trkpt lat="41.94152751166871" lon="13.7061226546063"><ele>792.3333333333333</ele><time>2026-04-18T12:03:42.999Z</time></trkpt><trkpt lat="41.9413432100806" lon="13.705972277324111"><ele>790.0</ele><time>2026-04-18T12:03:43.999Z</time></trkpt><trkpt lat="41.941157823117" lon="13.705823693089918"><ele>790.0</ele><time>2026-04-18T12:03:44.999Z</time></trkpt><trkpt lat="41.941025601978176" lon="13.705699879427419"><ele>790.0</ele><time>2026-04-18T12:03:45.999Z</time></trkpt><trkpt lat="41.94091485118053" lon="13.70563879840617"><ele>790.0</ele><time>2026-04-18T12:03:46.999Z</time></trkpt><trkpt lat="41.94080079328539" lon="13.705620482794071"><ele>790.0</ele><time>2026-04-18T12:03:47.999Z</time></trkpt><trkpt lat="41.94061803524984" lon="13.705797654184009"><ele>792.75</ele><time>2026-04-18T12:03:48.999Z</time></trkpt><trkpt lat="41.94047420991945" lon="13.705934368408599"><ele>795.5</ele><time>2026-04-18T12:03:50Z</time></trkpt><trkpt lat="41.94034117791504" lon="13.706072196163877"><ele>798.25</ele><time>2026-04-18T12:03:51Z</time></trkpt><trkpt lat="41.94024504813255" lon="13.706124197769483"><ele>801.0</ele><time>2026-04-18T12:03:52Z</time></trkpt><trkpt lat="41.940035828154215" lon="13.706089008581127"><ele>802.0</ele><time>2026-04-18T12:03:53Z</time></trkpt><trkpt lat="41.93988592480574" lon="13.705973955205138"><ele>803.0</ele><time>2026-04-18T12:03:54Z</time></trkpt><trkpt lat="41.93973474634193" lon="13.70586128777053"><ele>804.0</ele><time>2026-04-18T12:03:55Z</time></trkpt><trkpt lat="41.9395812698662" lon="13.70576497035823"><ele>804.0</ele><time>2026-04-18T12:03:56Z</time></trkpt><trkpt lat="41.939477378869576" lon="13.705731460950284"><ele>804.0</ele><time>2026-04-18T12:03:57Z</time></trkpt><trkpt lat="41.93938163289679" lon="13.705776103450392"><ele>804.0</ele><time>2026-04-18T12:03:58Z</time></trkpt><trkpt lat="41.939271923730196" lon="13.705899692702909"><ele>804.0</ele><time>2026-04-18T12:03:59Z</time></trkpt><trkpt lat="41.93916401649905" lon="13.706091183837042"><ele>810.25</ele><time>2026-04-18T12:04:00Z</time></trkpt><trkpt lat="41.93907608926295" lon="13.706241826926492"><ele>816.5</ele><time>2026-04-18T12:04:01Z</time></trkpt><trkpt lat="41.938981630374855" lon="13.70632216498039"><ele>822.75</ele><time>2026-04-18T12:04:02Z</time></trkpt><trkpt lat="41.93885004687399" lon="13.70634831163722"><ele>829.0</ele><time>2026-04-18T12:04:03Z</time></trkpt><trkpt lat="41.93868582839581" lon="13.706319880264635"><ele>829.0</ele><time>2026-04-18T12:04:04Z</time></trkpt><trkpt lat="41.938502374440105" lon="13.70629031764078"><ele>829.0</ele><time>2026-04-18T12:04:05Z</time></trkpt><trkpt lat="41.93835205084593" lon="13.706366370100598"><ele>829.0</ele><time>2026-04-18T12:04:06Z</time></trkpt><trkpt lat="41.938163302776324" lon="13.706556382590849"><ele>828.6666666666666</ele><time>2026-04-18T12:04:07Z</time></trkpt><trkpt lat="41.93797317260097" lon="13.706599217234611"><ele>828.3333333333333</ele><time>2026-04-18T12:04:07.999Z</time></trkpt><trkpt lat="41.937809721082985" lon="13.706621567454107"><ele>828.0</ele><time>2026-04-18T12:04:08.999Z</time></trkpt><trkpt lat="41.937697567717336" lon="13.706639216049552"><ele>828.0</ele><time>2026-04-18T12:04:09.999Z</time></trkpt><trkpt lat="41.93756519372463" lon="13.706514248488617"><ele>828.0</ele><time>2026-04-18T12:04:11.999Z</time></trkpt><trkpt lat="41.93752296254061" lon="13.706384301498485"><ele>828.0</ele><time>2026-04-18T12:04:12.999Z</time></trkpt><trkpt lat="41.93756463886804" lon="13.706225066020236"><ele>828.0</ele><time>2026-04-18T12:04:13.999Z</time></trkpt><trkpt lat="41.9376190416001" lon="13.706074774842135"><ele>825.3333333333333</ele><time>2026-04-18T12:04:14.999Z</time></trkpt><trkpt lat="41.93766245077288" lon="13.705830065054524"><ele>822.6666666666666</ele><time>2026-04-18T12:04:15.999Z</time></trkpt><trkpt lat="41.9376447913901" lon="13.705577705285403"><ele>820.0</ele><time>2026-04-18T12:04:16.999Z</time></trkpt><trkpt lat="41.93758985976913" lon="13.7053563892392"><ele>825.6666666666666</ele><time>2026-04-18T12:04:17.999Z</time></trkpt><trkpt lat="41.93750998979316" lon="13.705118759972315"><ele>831.3333333333333</ele><time>2026-04-18T12:04:18.999Z</time></trkpt><trkpt lat="41.937423975347265" lon="13.704829955853747"><ele>837.0</ele><time>2026-04-18T12:04:19.999Z</time></trkpt><trkpt lat="41.93739302562337" lon="13.704548633631624"><ele>837.6666666666667</ele><time>2026-04-18T12:04:20.999Z</time></trkpt><trkpt lat="41.937392521560255" lon="13.70426223931028"><ele>838.3333333333334</ele><time>2026-04-18T12:04:21.999Z</time></trkpt><trkpt lat="41.937378919481574" lon="13.70398663484679"><ele>839.0</ele><time>2026-04-18T12:04:22.999Z</time></trkpt><trkpt lat="41.93736662000746" lon="13.703786148563522"><ele>839.0</ele><time>2026-04-18T12:04:23.999Z</time></trkpt><trkpt lat="41.937338293660936" lon="13.703611120922066"><ele>839.0</ele><time>2026-04-18T12:04:24.999Z</time></trkpt><trkpt lat="41.93724863631438" lon="13.70343800234155"><ele>839.0</ele><time>2026-04-18T12:04:25.999Z</time></trkpt><trkpt lat="41.93712374215995" lon="13.70327695294258"><ele>839.3333333333334</ele><time>2026-04-18T12:04:26.999Z</time></trkpt><trkpt lat="41.93697321124879" lon="13.70315590588648"><ele>839.6666666666667</ele><time>2026-04-18T12:04:27.999Z</time></trkpt><trkpt lat="41.93677424508706" lon="13.703034364117878"><ele>840.0</ele><time>2026-04-18T12:04:28.999Z</time></trkpt><trkpt lat="41.936570512124824" lon="13.702850325336934"><ele>842.6666666666667</ele><time>2026-04-18T12:04:29.999Z</time></trkpt><trkpt lat="41.936390538016724" lon="13.702652229791621"><ele>845.3333333333334</ele><time>2026-04-18T12:04:30.999Z</time></trkpt><trkpt lat="41.93625139766129" lon="13.702446906943921"><ele>848.0</ele><time>2026-04-18T12:04:31.999Z</time></trkpt><trkpt lat="41.936123239619896" lon="13.702336547223494"><ele>848.0</ele><time>2026-04-18T12:04:32.999Z</time></trkpt><trkpt lat="41.93603592202981" lon="13.702185594022529"><ele>848.0</ele><time>2026-04-18T12:04:33.999Z</time></trkpt><trkpt lat="41.935967443068265" lon="13.702112764897985"><ele>848.0</ele><time>2026-04-18T12:04:34.999Z</time></trkpt><trkpt lat="41.93580599276575" lon="13.702164988017401"><ele>848.0</ele><time>2026-04-18T12:04:36.999Z</time></trkpt><trkpt lat="41.935745622688465" lon="13.70223405776255"><ele>848.0</ele><time>2026-04-18T12:04:37.999Z</time></trkpt><trkpt lat="41.93572142783478" lon="13.70235606520996"><ele>848.0</ele><time>2026-04-18T12:04:38.999Z</time></trkpt><trkpt lat="41.93578571243603" lon="13.702509448249906"><ele>848.0</ele><time>2026-04-18T12:04:39.999Z</time></trkpt><trkpt lat="41.93592120622082" lon="13.702596550662708"><ele>848.0</ele><time>2026-04-18T12:04:40.999Z</time></trkpt><trkpt lat="41.93604866758888" lon="13.702718243487734"><ele>849.5</ele><time>2026-04-18T12:04:41.999Z</time></trkpt><trkpt lat="41.936122201028994" lon="13.702835726228903"><ele>851.0</ele><time>2026-04-18T12:04:42.999Z</time></trkpt><trkpt lat="41.93612941624166" lon="13.702986844018302"><ele>852.5</ele><time>2026-04-18T12:04:43.999Z</time></trkpt><trkpt lat="41.936116428956005" lon="13.703152932495508"><ele>854.0</ele><time>2026-04-18T12:04:44.999Z</time></trkpt><trkpt lat="41.93610453378927" lon="13.703435825953648"><ele>854.75</ele><time>2026-04-18T12:04:45.999Z</time></trkpt><trkpt lat="41.93607179908455" lon="13.70364481265703"><ele>855.5</ele><time>2026-04-18T12:04:46.999Z</time></trkpt><trkpt lat="41.93602936341419" lon="13.703788176535413"><ele>856.25</ele><time>2026-04-18T12:04:47.999Z</time></trkpt><trkpt lat="41.935929602849946" lon="13.703925020488878"><ele>857.0</ele><time>2026-04-18T12:04:48.999Z</time></trkpt><trkpt lat="41.9358572716631" lon="13.70409902569559"><ele>857.3333333333334</ele><time>2026-04-18T12:04:49.999Z</time></trkpt><trkpt lat="41.93582521861931" lon="13.704256773111085"><ele>857.6666666666667</ele><time>2026-04-18T12:04:50.999Z</time></trkpt><trkpt lat="41.935900138507634" lon="13.704469793276681"><ele>858.0</ele><time>2026-04-18T12:04:51.999Z</time></trkpt><trkpt lat="41.93597958858809" lon="13.704675140719031"><ele>858.0</ele><time>2026-04-18T12:04:52.999Z</time></trkpt><trkpt lat="41.936073322794385" lon="13.704892780926293"><ele>858.0</ele><time>2026-04-18T12:04:53.999Z</time></trkpt><trkpt lat="41.93614379497465" lon="13.705078475363289"><ele>858.0</ele><time>2026-04-18T12:04:54.999Z</time></trkpt><trkpt lat="41.93613543170198" lon="13.705240899245778"><ele>858.0</ele><time>2026-04-18T12:04:55.999Z</time></trkpt><trkpt lat="41.93609676342617" lon="13.705452420636076"><ele>858.0</ele><time>2026-04-18T12:04:56.999Z</time></trkpt><trkpt lat="41.93605806484855" lon="13.705670810012265"><ele>858.0</ele><time>2026-04-18T12:04:57.999Z</time></trkpt><trkpt lat="41.93601495160403" lon="13.705977943471972"><ele>858.0</ele><time>2026-04-18T12:04:58.999Z</time></trkpt><trkpt lat="41.93601768230523" lon="13.706250351008977"><ele>858.0</ele><time>2026-04-18T12:04:59.999Z</time></trkpt><trkpt lat="41.936026806514434" lon="13.706548402639038"><ele>858.0</ele><time>2026-04-18T12:05:00.999Z</time></trkpt><trkpt lat="41.93603244643662" lon="13.70679063813228"><ele>859.0</ele><time>2026-04-18T12:05:01.999Z</time></trkpt><trkpt lat="41.93602103643656" lon="13.70698291736493"><ele>860.0</ele><time>2026-04-18T12:05:02.999Z</time></trkpt><trkpt lat="41.935995882118256" lon="13.707154431362556"><ele>861.0</ele><time>2026-04-18T12:05:03.999Z</time></trkpt><trkpt lat="41.93591104574876" lon="13.707350243065228"><ele>862.0</ele><time>2026-04-18T12:05:04.999Z</time></trkpt><trkpt lat="41.935784572690665" lon="13.707573257154385"><ele>869.6666666666666</ele><time>2026-04-18T12:05:05.999Z</time></trkpt><trkpt lat="41.93566266342683" lon="13.707806210046678"><ele>877.3333333333333</ele><time>2026-04-18T12:05:06.999Z</time></trkpt><trkpt lat="41.935525853861535" lon="13.70801728512561"><ele>885.0</ele><time>2026-04-18T12:05:07.999Z</time></trkpt><trkpt lat="41.93539778038908" lon="13.708208916140336"><ele>885.0</ele><time>2026-04-18T12:05:08.999Z</time></trkpt><trkpt lat="41.93526729080317" lon="13.708320851665361"><ele>885.0</ele><time>2026-04-18T12:05:09.999Z</time></trkpt><trkpt lat="41.93519478653155" lon="13.708395039695391"><ele>885.0</ele><time>2026-04-18T12:05:10.999Z</time></trkpt><trkpt lat="41.93510018763588" lon="13.708503373797782"><ele>885.0</ele><time>2026-04-18T12:05:11.999Z</time></trkpt><trkpt lat="41.9350490133588" lon="13.708600172256908"><ele>892.25</ele><time>2026-04-18T12:05:12.999Z</time></trkpt><trkpt lat="41.93506692663577" lon="13.708716439922572"><ele>899.5</ele><time>2026-04-18T12:05:13.999Z</time></trkpt><trkpt lat="41.93513517403555" lon="13.708816177054583"><ele>906.75</ele><time>2026-04-18T12:05:14.999Z</time></trkpt><trkpt lat="41.935245420890254" lon="13.708874273827119"><ele>914.0</ele><time>2026-04-18T12:05:15.999Z</time></trkpt><trkpt lat="41.935387544396335" lon="13.708880941052334"><ele>914.0</ele><time>2026-04-18T12:05:16.999Z</time></trkpt><trkpt lat="41.935558436987485" lon="13.708834608210895"><ele>914.0</ele><time>2026-04-18T12:05:17.999Z</time></trkpt><trkpt lat="41.93574992426307" lon="13.70882741068362"><ele>914.0</ele><time>2026-04-18T12:05:18.999Z</time></trkpt><trkpt lat="41.93599200856011" lon="13.708812175029813"><ele>918.5</ele><time>2026-04-18T12:05:19.999Z</time></trkpt><trkpt lat="41.936248927711816" lon="13.708774303349303"><ele>923.0</ele><time>2026-04-18T12:05:20.999Z</time></trkpt><trkpt lat="41.93653582666363" lon="13.708664297578146"><ele>920.3333333333334</ele><time>2026-04-18T12:05:21.999Z</time></trkpt><trkpt lat="41.9367691125096" lon="13.708579592364703"><ele>917.6666666666667</ele><time>2026-04-18T12:05:22.999Z</time></trkpt><trkpt lat="41.93696219010649" lon="13.708498336994117"><ele>915.0</ele><time>2026-04-18T12:05:23.999Z</time></trkpt><trkpt lat="41.937105576818425" lon="13.708439285098994"><ele>915.0</ele><time>2026-04-18T12:05:24.999Z</time></trkpt><trkpt lat="41.937218527310144" lon="13.708404609698352"><ele>915.0</ele><time>2026-04-18T12:05:25.999Z</time></trkpt><trkpt lat="41.9373327896452" lon="13.708423605576831"><ele>915.0</ele><time>2026-04-18T12:05:26.999Z</time></trkpt><trkpt lat="41.937428456754944" lon="13.708563408175102"><ele>915.0</ele><time>2026-04-18T12:05:27.999Z</time></trkpt><trkpt lat="41.93753251838746" lon="13.708732725552345"><ele>909.6666666666667</ele><time>2026-04-18T12:05:28.999Z</time></trkpt><trkpt lat="41.93763632556513" lon="13.708962744077374"><ele>904.3333333333334</ele><time>2026-04-18T12:05:29.999Z</time></trkpt><trkpt lat="41.93770849427332" lon="13.70918736544771"><ele>899.0</ele><time>2026-04-18T12:05:30.999Z</time></trkpt><trkpt lat="41.93773376588344" lon="13.70944418623959"><ele>899.0</ele><time>2026-04-18T12:05:31.999Z</time></trkpt><trkpt lat="41.93774177182963" lon="13.70968303325915"><ele>899.0</ele><time>2026-04-18T12:05:32.999Z</time></trkpt><trkpt lat="41.9377974825931" lon="13.709893438746832"><ele>899.0</ele><time>2026-04-18T12:05:33.999Z</time></trkpt><trkpt lat="41.93789925932489" lon="13.710046351509973"><ele>899.0</ele><time>2026-04-18T12:05:34.999Z</time></trkpt><trkpt lat="41.93797068005214" lon="13.710205889390577"><ele>899.0</ele><time>2026-04-18T12:05:35.999Z</time></trkpt><trkpt lat="41.93794492635833" lon="13.710362951372357"><ele>899.0</ele><time>2026-04-18T12:05:36.999Z</time></trkpt><trkpt lat="41.93796185472958" lon="13.710598968367442"><ele>899.0</ele><time>2026-04-18T12:05:37.999Z</time></trkpt><trkpt lat="41.93797814628553" lon="13.710963787483486"><ele>907.75</ele><time>2026-04-18T12:05:38.999Z</time></trkpt><trkpt lat="41.93802352709659" lon="13.71121534085767"><ele>916.5</ele><time>2026-04-18T12:05:39.999Z</time></trkpt><trkpt lat="41.9380416787215" lon="13.711388796798207"><ele>925.25</ele><time>2026-04-18T12:05:40.999Z</time></trkpt><trkpt lat="41.938071094930265" lon="13.711553699006659"><ele>934.0</ele><time>2026-04-18T12:05:41.999Z</time></trkpt><trkpt lat="41.93811269305237" lon="13.711617678070803"><ele>934.0</ele><time>2026-04-18T12:05:42.999Z</time></trkpt><trkpt lat="41.9382002767897" lon="13.711634248059557"><ele>934.0</ele><time>2026-04-18T12:05:43.999Z</time></trkpt><trkpt lat="41.93832154604991" lon="13.711583780358877"><ele>934.0</ele><time>2026-04-18T12:05:44.999Z</time></trkpt><trkpt lat="41.93848067253962" lon="13.711458139598431"><ele>934.0</ele><time>2026-04-18T12:05:45.999Z</time></trkpt><trkpt lat="41.93860942187675" lon="13.71124907202"><ele>934.3333333333333</ele><time>2026-04-18T12:05:46.999Z</time></trkpt><trkpt lat="41.93872104623108" lon="13.71105240756975"><ele>934.6666666666667</ele><time>2026-04-18T12:05:47.999Z</time></trkpt><trkpt lat="41.938852582482205" lon="13.71081752368486"><ele>935.0</ele><time>2026-04-18T12:05:48.999Z</time></trkpt><trkpt lat="41.93899931560745" lon="13.710634684860086"><ele>935.0</ele><time>2026-04-18T12:05:49.999Z</time></trkpt><trkpt lat="41.93914856057878" lon="13.710513653586304"><ele>935.0</ele><time>2026-04-18T12:05:50.999Z</time></trkpt><trkpt lat="41.93933888851773" lon="13.710388674468998"><ele>935.0</ele><time>2026-04-18T12:05:51.999Z</time></trkpt><trkpt lat="41.93955030114294" lon="13.710269789463151"><ele>933.0</ele><time>2026-04-18T12:05:52.999Z</time></trkpt><trkpt lat="41.939742379229" lon="13.710174549434827"><ele>931.0</ele><time>2026-04-18T12:05:53.999Z</time></trkpt><trkpt lat="41.939901746895686" lon="13.71011497848173"><ele>929.0</ele><time>2026-04-18T12:05:54.999Z</time></trkpt><trkpt lat="41.939976762231225" lon="13.710093763488633"><ele>927.0</ele><time>2026-04-18T12:05:56Z</time></trkpt><trkpt lat="41.940084534081265" lon="13.710084631951043"><ele>929.8</ele><time>2026-04-18T12:05:57Z</time></trkpt><trkpt lat="41.94010615012363" lon="13.710242732066588"><ele>932.6</ele><time>2026-04-18T12:05:59Z</time></trkpt><trkpt lat="41.94007035128669" lon="13.710312547488757"><ele>935.3999999999999</ele><time>2026-04-18T12:06:00Z</time></trkpt><trkpt lat="41.939966851463595" lon="13.710303235017024"><ele>938.1999999999999</ele><time>2026-04-18T12:06:01Z</time></trkpt><trkpt lat="41.939878804977205" lon="13.710296097671874"><ele>941.0</ele><time>2026-04-18T12:06:02Z</time></trkpt><trkpt lat="41.93968585947396" lon="13.71036392249666"><ele>941.0</ele><time>2026-04-18T12:06:03Z</time></trkpt><trkpt lat="41.93946876664562" lon="13.71049662744459"><ele>941.0</ele><time>2026-04-18T12:06:04Z</time></trkpt><trkpt lat="41.93931148298708" lon="13.710650130739586"><ele>941.0</ele><time>2026-04-18T12:06:05Z</time></trkpt><trkpt lat="41.9391494449019" lon="13.710792944594754"><ele>939.0</ele><time>2026-04-18T12:06:06Z</time></trkpt><trkpt lat="41.939003270485316" lon="13.710996745440006"><ele>937.0</ele><time>2026-04-18T12:06:07Z</time></trkpt><trkpt lat="41.938886742481685" lon="13.711250487096212"><ele>935.0</ele><time>2026-04-18T12:06:08Z</time></trkpt><trkpt lat="41.93874956817587" lon="13.711520739562674"><ele>941.6666666666667</ele><time>2026-04-18T12:06:09Z</time></trkpt><trkpt lat="41.93863581343585" lon="13.711752837409177"><ele>948.3333333333333</ele><time>2026-04-18T12:06:10Z</time></trkpt><trkpt lat="41.93853696319506" lon="13.71191652627934"><ele>955.0</ele><time>2026-04-18T12:06:11Z</time></trkpt><trkpt lat="41.93842274500387" lon="13.712053727659718"><ele>958.3333333333333</ele><time>2026-04-18T12:06:11.999Z</time></trkpt><trkpt lat="41.93827193410307" lon="13.71215992321286"><ele>961.6666666666667</ele><time>2026-04-18T12:06:12.999Z</time></trkpt><trkpt lat="41.938086986430626" lon="13.712287756576918"><ele>965.0</ele><time>2026-04-18T12:06:13.999Z</time></trkpt><trkpt lat="41.93789759565196" lon="13.71237942851036"><ele>965.0</ele><time>2026-04-18T12:06:14.999Z</time></trkpt><trkpt lat="41.93771427599384" lon="13.712468330391285"><ele>965.0</ele><time>2026-04-18T12:06:15.999Z</time></trkpt><trkpt lat="41.937584328038696" lon="13.712534189804465"><ele>965.0</ele><time>2026-04-18T12:06:16.999Z</time></trkpt><trkpt lat="41.93750420168978" lon="13.712567912668488"><ele>965.0</ele><time>2026-04-18T12:06:17.999Z</time></trkpt><trkpt lat="41.937409057795534" lon="13.712472145939017"><ele>965.5</ele><time>2026-04-18T12:06:19.999Z</time></trkpt><trkpt lat="41.9373933468907" lon="13.71236527516608"><ele>966.0</ele><time>2026-04-18T12:06:20.999Z</time></trkpt><trkpt lat="41.937413540265226" lon="13.712219775283149"><ele>966.5</ele><time>2026-04-18T12:06:21.999Z</time></trkpt><trkpt lat="41.93742944556244" lon="13.711956739301717"><ele>967.0</ele><time>2026-04-18T12:06:22.999Z</time></trkpt><trkpt lat="41.93744592389233" lon="13.711638582362795"><ele>962.3333333333333</ele><time>2026-04-18T12:06:23.999Z</time></trkpt><trkpt lat="41.9374263409833" lon="13.711385202059166"><ele>957.6666666666667</ele><time>2026-04-18T12:06:24.999Z</time></trkpt><trkpt lat="41.93740441012823" lon="13.71112834875574"><ele>953.0</ele><time>2026-04-18T12:06:25.999Z</time></trkpt><trkpt lat="41.93734308566279" lon="13.7108856531838"><ele>950.6666666666667</ele><time>2026-04-18T12:06:26.999Z</time></trkpt><trkpt lat="41.9372670254261" lon="13.710678084352843"><ele>948.3333333333333</ele><time>2026-04-18T12:06:27.999Z</time></trkpt><trkpt lat="41.937159725090254" lon="13.710544948544308"><ele>946.0</ele><time>2026-04-18T12:06:28.999Z</time></trkpt><trkpt lat="41.9370186325391" lon="13.710424616334402"><ele>946.0</ele><time>2026-04-18T12:06:29.999Z</time></trkpt><trkpt lat="41.93687087969494" lon="13.710362374852135"><ele>946.0</ele><time>2026-04-18T12:06:30.999Z</time></trkpt><trkpt lat="41.93668711812886" lon="13.7103198990805"><ele>946.0</ele><time>2026-04-18T12:06:31.999Z</time></trkpt><trkpt lat="41.93650166621795" lon="13.710348917096908"><ele>954.3333333333333</ele><time>2026-04-18T12:06:33Z</time></trkpt><trkpt lat="41.93632203083191" lon="13.710419623625613"><ele>962.6666666666667</ele><time>2026-04-18T12:06:34Z</time></trkpt><trkpt lat="41.9361745857763" lon="13.710559942487773"><ele>971.0</ele><time>2026-04-18T12:06:35Z</time></trkpt><trkpt lat="41.93606189016215" lon="13.7107505137625"><ele>971.0</ele><time>2026-04-18T12:06:36Z</time></trkpt><trkpt lat="41.93595614125491" lon="13.710991180657345"><ele>971.0</ele><time>2026-04-18T12:06:37Z</time></trkpt><trkpt lat="41.93580615231556" lon="13.711222904916962"><ele>971.0</ele><time>2026-04-18T12:06:38Z</time></trkpt><trkpt lat="41.935627925309255" lon="13.71143851748432"><ele>975.5</ele><time>2026-04-18T12:06:39Z</time></trkpt><trkpt lat="41.93543498742882" lon="13.711636230199376"><ele>980.0</ele><time>2026-04-18T12:06:40Z</time></trkpt><trkpt lat="41.935244347317465" lon="13.711814247544963"><ele>987.0</ele><time>2026-04-18T12:06:41Z</time></trkpt><trkpt lat="41.935042890047235" lon="13.711953334793112"><ele>994.0</ele><time>2026-04-18T12:06:42Z</time></trkpt><trkpt lat="41.93482732804315" lon="13.712093998553433"><ele>994.0</ele><time>2026-04-18T12:06:43Z</time></trkpt><trkpt lat="41.93458311561093" lon="13.712208799910053"><ele>994.0</ele><time>2026-04-18T12:06:44Z</time></trkpt><trkpt lat="41.93436804312806" lon="13.712305742615618"><ele>991.6666666666666</ele><time>2026-04-18T12:06:45Z</time></trkpt><trkpt lat="41.93419896400451" lon="13.71238333663901"><ele>989.3333333333333</ele><time>2026-04-18T12:06:46Z</time></trkpt><trkpt lat="41.93404064244688" lon="13.712382063675975"><ele>987.0</ele><time>2026-04-18T12:06:47Z</time></trkpt><trkpt lat="41.933843859147935" lon="13.71234802340409"><ele>987.0</ele><time>2026-04-18T12:06:48Z</time></trkpt><trkpt lat="41.93361382977736" lon="13.712323906973682"><ele>987.0</ele><time>2026-04-18T12:06:49Z</time></trkpt><trkpt lat="41.933427967551594" lon="13.712308980594328"><ele>987.0</ele><time>2026-04-18T12:06:50Z</time></trkpt><trkpt lat="41.93327692407479" lon="13.712278412466786"><ele>987.0</ele><time>2026-04-18T12:06:51Z</time></trkpt><trkpt lat="41.93316714354617" lon="13.71217883486783"><ele>987.0</ele><time>2026-04-18T12:06:52Z</time></trkpt><trkpt lat="41.93309240120173" lon="13.712077214988105"><ele>987.0</ele><time>2026-04-18T12:06:53Z</time></trkpt><trkpt lat="41.93307194241378" lon="13.711944851717076"><ele>987.0</ele><time>2026-04-18T12:06:54Z</time></trkpt><trkpt lat="41.93305341768204" lon="13.711767056583419"><ele>987.0</ele><time>2026-04-18T12:06:55Z</time></trkpt><trkpt lat="41.93306051080052" lon="13.711605651652926"><ele>987.0</ele><time>2026-04-18T12:06:56Z</time></trkpt><trkpt lat="41.93309985845969" lon="13.711409057777441"><ele>987.0</ele><time>2026-04-18T12:06:57Z</time></trkpt><trkpt lat="41.93318399861443" lon="13.711174096221347"><ele>987.0</ele><time>2026-04-18T12:06:58Z</time></trkpt><trkpt lat="41.93322554036186" lon="13.710990714132812"><ele>987.0</ele><time>2026-04-18T12:06:59Z</time></trkpt><trkpt lat="41.93318171856936" lon="13.710810052625503"><ele>987.0</ele><time>2026-04-18T12:07:00Z</time></trkpt><trkpt lat="41.933119441041505" lon="13.710627285984195"><ele>987.0</ele><time>2026-04-18T12:07:01Z</time></trkpt><trkpt lat="41.93299657988438" lon="13.710462207200846"><ele>987.0</ele><time>2026-04-18T12:07:02Z</time></trkpt><trkpt lat="41.93284618396782" lon="13.710311130944437"><ele>987.0</ele><time>2026-04-18T12:07:03Z</time></trkpt><trkpt lat="41.932698536008886" lon="13.710161553255443"><ele>987.0</ele><time>2026-04-18T12:07:04Z</time></trkpt><trkpt lat="41.932655835357046" lon="13.709902815121238"><ele>988.3333333333333</ele><time>2026-04-18T12:07:05Z</time></trkpt><trkpt lat="41.93256838554978" lon="13.709635760072388"><ele>989.6666666666666</ele><time>2026-04-18T12:07:06Z</time></trkpt><trkpt lat="41.93248634629031" lon="13.709391106893971"><ele>991.0</ele><time>2026-04-18T12:07:07Z</time></trkpt><trkpt lat="41.93235777065503" lon="13.709188589291537"><ele>991.0</ele><time>2026-04-18T12:07:08Z</time></trkpt><trkpt lat="41.93218448002577" lon="13.709045741320255"><ele>991.0</ele><time>2026-04-18T12:07:09Z</time></trkpt><trkpt lat="41.93201712132265" lon="13.708949913943135"><ele>991.0</ele><time>2026-04-18T12:07:10Z</time></trkpt><trkpt lat="41.9318173684078" lon="13.708868274642793"><ele>993.3333333333333</ele><time>2026-04-18T12:07:11Z</time></trkpt><trkpt lat="41.93169694879915" lon="13.708734191784298"><ele>995.6666666666667</ele><time>2026-04-18T12:07:12Z</time></trkpt><trkpt lat="41.93162271506888" lon="13.70854438557458"><ele>998.0</ele><time>2026-04-18T12:07:13Z</time></trkpt><trkpt lat="41.931480443823716" lon="13.708408846243271"><ele>998.0</ele><time>2026-04-18T12:07:14Z</time></trkpt><trkpt lat="41.931375695664606" lon="13.708443804608926"><ele>998.0</ele><time>2026-04-18T12:07:16Z</time></trkpt><trkpt lat="41.93122429137305" lon="13.708526184831594"><ele>998.0</ele><time>2026-04-18T12:07:17Z</time></trkpt><trkpt lat="41.93103118224704" lon="13.708635883986048"><ele>1003.0</ele><time>2026-04-18T12:07:18Z</time></trkpt><trkpt lat="41.930929323469606" lon="13.7087849863348"><ele>1008.0</ele><time>2026-04-18T12:07:19Z</time></trkpt><trkpt lat="41.930840706520705" lon="13.708982504868057"><ele>1013.0</ele><time>2026-04-18T12:07:20Z</time></trkpt><trkpt lat="41.930705894651666" lon="13.709113658728578"><ele>1014.0</ele><time>2026-04-18T12:07:21Z</time></trkpt><trkpt lat="41.93056906295786" lon="13.709184651970979"><ele>1015.0</ele><time>2026-04-18T12:07:22Z</time></trkpt><trkpt lat="41.93045232499833" lon="13.709225590277876"><ele>1016.0</ele><time>2026-04-18T12:07:23Z</time></trkpt><trkpt lat="41.93038132458456" lon="13.709184162887622"><ele>1017.0</ele><time>2026-04-18T12:07:24Z</time></trkpt><trkpt lat="41.930294946926395" lon="13.70909269236688"><ele>1017.0</ele><time>2026-04-18T12:07:25Z</time></trkpt><trkpt lat="41.93029569066935" lon="13.708945902252667"><ele>1017.0</ele><time>2026-04-18T12:07:26Z</time></trkpt><trkpt lat="41.930292694919046" lon="13.708780558572618"><ele>1017.0</ele><time>2026-04-18T12:07:28Z</time></trkpt><trkpt lat="41.93023575809579" lon="13.708693559909955"><ele>1017.0</ele><time>2026-04-18T12:07:30Z</time></trkpt><trkpt lat="41.93017580579634" lon="13.708660688023494"><ele>1017.0</ele><time>2026-04-18T12:07:50Z</time></trkpt><trkpt lat="41.93009301696527" lon="13.708620209982652"><ele>1016.8</ele><time>2026-04-18T12:07:52Z</time></trkpt><trkpt lat="41.930028927157025" lon="13.708579052215443"><ele>1016.6</ele><time>2026-04-18T12:07:53Z</time></trkpt><trkpt lat="41.929906879800534" lon="13.708523831203252"><ele>1016.3999999999999</ele><time>2026-04-18T12:07:54Z</time></trkpt><trkpt lat="41.92980343566778" lon="13.708483966194258"><ele>1016.1999999999999</ele><time>2026-04-18T12:07:55Z</time></trkpt><trkpt lat="41.929697626678255" lon="13.70844250581611"><ele>1016.0</ele><time>2026-04-18T12:07:56Z</time></trkpt><trkpt lat="41.929565623680546" lon="13.708410560117274"><ele>1016.0</ele><time>2026-04-18T12:07:57Z</time></trkpt><trkpt lat="41.92940239629911" lon="13.708385696994586"><ele>1016.0</ele><time>2026-04-18T12:07:58Z</time></trkpt><trkpt lat="41.92921355665921" lon="13.708349881816837"><ele>1016.0</ele><time>2026-04-18T12:07:59Z</time></trkpt><trkpt lat="41.92904886312394" lon="13.708317087535049"><ele>1018.5999999999999</ele><time>2026-04-18T12:08:00Z</time></trkpt><trkpt lat="41.92889604424435" lon="13.70828759159732"><ele>1021.1999999999999</ele><time>2026-04-18T12:08:01Z</time></trkpt><trkpt lat="41.928806762157336" lon="13.70820175890595"><ele>1023.8000000000001</ele><time>2026-04-18T12:08:02Z</time></trkpt><trkpt lat="41.92875916972365" lon="13.708103834870945"><ele>1026.4</ele><time>2026-04-18T12:08:03Z</time></trkpt><trkpt lat="41.92874709466794" lon="13.70800206589842"><ele>1029.0</ele><time>2026-04-18T12:08:04Z</time></trkpt><trkpt lat="41.92878009863228" lon="13.707887106522694"><ele>1029.0</ele><time>2026-04-18T12:08:05Z</time></trkpt><trkpt lat="41.92887970247331" lon="13.707787214738948"><ele>1029.0</ele><time>2026-04-18T12:08:06Z</time></trkpt><trkpt lat="41.92897580890689" lon="13.707626143793245"><ele>1029.0</ele><time>2026-04-18T12:08:07Z</time></trkpt><trkpt lat="41.92900834748682" lon="13.7074670862182"><ele>1029.0</ele><time>2026-04-18T12:08:08Z</time></trkpt><trkpt lat="41.928958848061995" lon="13.707303442160315"><ele>1028.75</ele><time>2026-04-18T12:08:09Z</time></trkpt><trkpt lat="41.92892303981537" lon="13.707144255430558"><ele>1028.5</ele><time>2026-04-18T12:08:10Z</time></trkpt><trkpt lat="41.92880735087551" lon="13.70703123429256"><ele>1028.25</ele><time>2026-04-18T12:08:11Z</time></trkpt><trkpt lat="41.928701765271875" lon="13.706869793926886"><ele>1028.0</ele><time>2026-04-18T12:08:12Z</time></trkpt><trkpt lat="41.92867223920971" lon="13.706793839731608"><ele>1030.0</ele><time>2026-04-18T12:08:13Z</time></trkpt><trkpt lat="41.92868451052511" lon="13.706664755340633"><ele>1032.0</ele><time>2026-04-18T12:08:14Z</time></trkpt><trkpt lat="41.92875371899567" lon="13.706563269363176"><ele>1034.0</ele><time>2026-04-18T12:08:15Z</time></trkpt><trkpt lat="41.928877340738275" lon="13.706525453336047"><ele>1036.0</ele><time>2026-04-18T12:08:16Z</time></trkpt><trkpt lat="41.929032856892825" lon="13.706508588896655"><ele>1032.3333333333333</ele><time>2026-04-18T12:08:17Z</time></trkpt><trkpt lat="41.92925051852205" lon="13.706461522299517"><ele>1028.6666666666667</ele><time>2026-04-18T12:08:18Z</time></trkpt><trkpt lat="41.92942546763748" lon="13.706379355438377"><ele>1025.0</ele><time>2026-04-18T12:08:19Z</time></trkpt><trkpt lat="41.92950514500601" lon="13.706266558671718"><ele>1025.0</ele><time>2026-04-18T12:08:20Z</time></trkpt><trkpt lat="41.92957250329558" lon="13.706096676480445"><ele>1025.0</ele><time>2026-04-18T12:08:21Z</time></trkpt><trkpt lat="41.929653218945866" lon="13.705877949062604"><ele>1025.0</ele><time>2026-04-18T12:08:22Z</time></trkpt><trkpt lat="41.92973421116294" lon="13.705746605641929"><ele>1027.0</ele><time>2026-04-18T12:08:23Z</time></trkpt><trkpt lat="41.92984809749028" lon="13.705639142024282"><ele>1029.0</ele><time>2026-04-18T12:08:24Z</time></trkpt><trkpt lat="41.92988788290445" lon="13.705509767789492"><ele>1031.0</ele><time>2026-04-18T12:08:25Z</time></trkpt><trkpt lat="41.92990616796153" lon="13.705332306743278"><ele>1033.0</ele><time>2026-04-18T12:08:26Z</time></trkpt><trkpt lat="41.92982553610668" lon="13.7051637639019"><ele>1033.0</ele><time>2026-04-18T12:08:27Z</time></trkpt><trkpt lat="41.92969121225997" lon="13.705001403326664"><ele>1033.0</ele><time>2026-04-18T12:08:28Z</time></trkpt><trkpt lat="41.92949679860339" lon="13.704848418933398"><ele>1033.0</ele><time>2026-04-18T12:08:29Z</time></trkpt><trkpt lat="41.92932799032857" lon="13.704712879119516"><ele>1042.5</ele><time>2026-04-18T12:08:30Z</time></trkpt><trkpt lat="41.92910513528165" lon="13.704584570939657"><ele>1052.0</ele><time>2026-04-18T12:08:31Z</time></trkpt><trkpt lat="41.92888360544271" lon="13.70452202570603"><ele>1052.0</ele><time>2026-04-18T12:08:32Z</time></trkpt><trkpt lat="41.92863597503777" lon="13.70448304788723"><ele>1052.0</ele><time>2026-04-18T12:08:33Z</time></trkpt><trkpt lat="41.92842229088562" lon="13.704372373164702"><ele>1051.6666666666667</ele><time>2026-04-18T12:08:34Z</time></trkpt><trkpt lat="41.92820810436571" lon="13.704240398066368"><ele>1051.3333333333333</ele><time>2026-04-18T12:08:35Z</time></trkpt><trkpt lat="41.92801007323352" lon="13.704133208939721"><ele>1051.0</ele><time>2026-04-18T12:08:36Z</time></trkpt><trkpt lat="41.92784077822018" lon="13.703988240583643"><ele>1051.0</ele><time>2026-04-18T12:08:37Z</time></trkpt><trkpt lat="41.92776533969797" lon="13.703855035223611"><ele>1051.0</ele><time>2026-04-18T12:08:38Z</time></trkpt><trkpt lat="41.92770199423761" lon="13.703650007345361"><ele>1051.0</ele><time>2026-04-18T12:08:39Z</time></trkpt><trkpt lat="41.92765751860656" lon="13.703414607011258"><ele>1054.6666666666665</ele><time>2026-04-18T12:08:40Z</time></trkpt><trkpt lat="41.92760129641999" lon="13.70318687713894"><ele>1058.3333333333333</ele><time>2026-04-18T12:08:41Z</time></trkpt><trkpt lat="41.92753010061259" lon="13.703046074978554"><ele>1062.0</ele><time>2026-04-18T12:08:42Z</time></trkpt><trkpt lat="41.92740151975953" lon="13.702945241101053"><ele>1062.0</ele><time>2026-04-18T12:08:43Z</time></trkpt><trkpt lat="41.927257786155394" lon="13.702852587106763"><ele>1062.0</ele><time>2026-04-18T12:08:44Z</time></trkpt><trkpt lat="41.92705917909947" lon="13.702806461662503"><ele>1062.0</ele><time>2026-04-18T12:08:45Z</time></trkpt><trkpt lat="41.926836260353426" lon="13.702734368968976"><ele>1058.6666666666667</ele><time>2026-04-18T12:08:46Z</time></trkpt><trkpt lat="41.9266271325157" lon="13.7027079523474"><ele>1055.3333333333335</ele><time>2026-04-18T12:08:47Z</time></trkpt><trkpt lat="41.92643986738928" lon="13.702765930968518"><ele>1052.0</ele><time>2026-04-18T12:08:48Z</time></trkpt><trkpt lat="41.92624974881937" lon="13.702845669053225"><ele>1058.0</ele><time>2026-04-18T12:08:49Z</time></trkpt><trkpt lat="41.92606235683138" lon="13.70296982084355"><ele>1064.0</ele><time>2026-04-18T12:08:50Z</time></trkpt><trkpt lat="41.92586330133421" lon="13.703115637211564"><ele>1070.0</ele><time>2026-04-18T12:08:51Z</time></trkpt><trkpt lat="41.92566170279888" lon="13.703273509658123"><ele>1070.0</ele><time>2026-04-18T12:08:52Z</time></trkpt><trkpt lat="41.92545940748477" lon="13.703495682823798"><ele>1070.0</ele><time>2026-04-18T12:08:53Z</time></trkpt><trkpt lat="41.925269622377826" lon="13.70374017737629"><ele>1076.5</ele><time>2026-04-18T12:08:54Z</time></trkpt><trkpt lat="41.92507451413792" lon="13.703955956372"><ele>1083.0</ele><time>2026-04-18T12:08:55Z</time></trkpt><trkpt lat="41.92486367204003" lon="13.704133957581224"><ele>1083.0</ele><time>2026-04-18T12:08:56Z</time></trkpt><trkpt lat="41.924628598858504" lon="13.704241337294311"><ele>1083.0</ele><time>2026-04-18T12:08:57Z</time></trkpt><trkpt lat="41.924415109906725" lon="13.704369821619604"><ele>1086.0</ele><time>2026-04-18T12:08:58Z</time></trkpt><trkpt lat="41.92419259965197" lon="13.704497796557915"><ele>1089.0</ele><time>2026-04-18T12:08:59Z</time></trkpt><trkpt lat="41.92400662422267" lon="13.70472218165553"><ele>1089.0</ele><time>2026-04-18T12:09:00Z</time></trkpt><trkpt lat="41.92378761156651" lon="13.704965175723945"><ele>1089.0</ele><time>2026-04-18T12:09:01Z</time></trkpt><trkpt lat="41.923559647919035" lon="13.705218327987964"><ele>1088.6666666666667</ele><time>2026-04-18T12:09:02Z</time></trkpt><trkpt lat="41.92338775968174" lon="13.70540599575975"><ele>1088.3333333333335</ele><time>2026-04-18T12:09:03Z</time></trkpt><trkpt lat="41.92320142454655" lon="13.70551732063297"><ele>1088.0</ele><time>2026-04-18T12:09:04Z</time></trkpt><trkpt lat="41.92310265376983" lon="13.705660917650462"><ele>1088.0</ele><time>2026-04-18T12:09:05Z</time></trkpt><trkpt lat="41.9230057808703" lon="13.705842516602742"><ele>1088.0</ele><time>2026-04-18T12:09:06Z</time></trkpt><trkpt lat="41.92294917005631" lon="13.706124854475263"><ele>1088.0</ele><time>2026-04-18T12:09:07Z</time></trkpt><trkpt lat="41.92289839320265" lon="13.706410521338361"><ele>1094.0</ele><time>2026-04-18T12:09:08Z</time></trkpt><trkpt lat="41.92282963058331" lon="13.706771938344303"><ele>1100.0</ele><time>2026-04-18T12:09:09Z</time></trkpt><trkpt lat="41.922762941509596" lon="13.707098561529042"><ele>1106.5</ele><time>2026-04-18T12:09:10Z</time></trkpt><trkpt lat="41.9226866933342" lon="13.707429772460067"><ele>1113.0</ele><time>2026-04-18T12:09:11Z</time></trkpt><trkpt lat="41.92261662812675" lon="13.70773497340415"><ele>1104.3333333333333</ele><time>2026-04-18T12:09:12Z</time></trkpt><trkpt lat="41.92255738655054" lon="13.707988658160003"><ele>1095.6666666666665</ele><time>2026-04-18T12:09:13Z</time></trkpt><trkpt lat="41.92251463352545" lon="13.708207385394877"><ele>1087.0</ele><time>2026-04-18T12:09:14Z</time></trkpt><trkpt lat="41.92250537758078" lon="13.708456981357532"><ele>1090.0</ele><time>2026-04-18T12:09:15Z</time></trkpt><trkpt lat="41.92254279571175" lon="13.708754179125197"><ele>1093.0</ele><time>2026-04-18T12:09:16Z</time></trkpt><trkpt lat="41.92258176984563" lon="13.709043945936081"><ele>1096.0</ele><time>2026-04-18T12:09:17Z</time></trkpt><trkpt lat="41.92260185153812" lon="13.709286459076974"><ele>1100.3333333333333</ele><time>2026-04-18T12:09:18Z</time></trkpt><trkpt lat="41.92260122793543" lon="13.709493960625304"><ele>1104.6666666666667</ele><time>2026-04-18T12:09:19Z</time></trkpt><trkpt lat="41.92257116863376" lon="13.709687627935022"><ele>1109.0</ele><time>2026-04-18T12:09:20Z</time></trkpt><trkpt lat="41.92248506412913" lon="13.709869591100453"><ele>1109.0</ele><time>2026-04-18T12:09:21Z</time></trkpt><trkpt lat="41.922396378014625" lon="13.71007797808543"><ele>1109.0</ele><time>2026-04-18T12:09:22Z</time></trkpt><trkpt lat="41.922360851033226" lon="13.710333590670105"><ele>1109.0</ele><time>2026-04-18T12:09:23Z</time></trkpt><trkpt lat="41.9223211470446" lon="13.710604954768382"><ele>1116.0</ele><time>2026-04-18T12:09:24Z</time></trkpt><trkpt lat="41.9222217875219" lon="13.710869720906468"><ele>1123.0</ele><time>2026-04-18T12:09:25Z</time></trkpt><trkpt lat="41.922043236671875" lon="13.711124992863814"><ele>1123.0</ele><time>2026-04-18T12:09:26Z</time></trkpt><trkpt lat="41.921896196779066" lon="13.711390679478518"><ele>1123.0</ele><time>2026-04-18T12:09:27Z</time></trkpt><trkpt lat="41.92178766813773" lon="13.711611941558079"><ele>1123.0</ele><time>2026-04-18T12:09:28Z</time></trkpt><trkpt lat="41.921715441297465" lon="13.711794222163554"><ele>1123.3333333333333</ele><time>2026-04-18T12:09:29Z</time></trkpt><trkpt lat="41.921687639410514" lon="13.71199379900912"><ele>1123.6666666666667</ele><time>2026-04-18T12:09:30Z</time></trkpt><trkpt lat="41.92170505232944" lon="13.712258783175711"><ele>1124.0</ele><time>2026-04-18T12:09:31Z</time></trkpt><trkpt lat="41.92173939415018" lon="13.712556170369206"><ele>1130.0</ele><time>2026-04-18T12:09:32Z</time></trkpt><trkpt lat="41.921793628299724" lon="13.712870781955733"><ele>1136.0</ele><time>2026-04-18T12:09:33Z</time></trkpt><trkpt lat="41.921867952119946" lon="13.713199899659745"><ele>1136.0</ele><time>2026-04-18T12:09:34Z</time></trkpt><trkpt lat="41.92194284685729" lon="13.713527436851116"><ele>1136.0</ele><time>2026-04-18T12:09:35Z</time></trkpt><trkpt lat="41.92200535374504" lon="13.713832889220713"><ele>1134.6666666666667</ele><time>2026-04-18T12:09:36Z</time></trkpt><trkpt lat="41.922037008678565" lon="13.714095109924243"><ele>1133.3333333333333</ele><time>2026-04-18T12:09:37Z</time></trkpt><trkpt lat="41.922066120748944" lon="13.714335625250664"><ele>1132.0</ele><time>2026-04-18T12:09:38Z</time></trkpt><trkpt lat="41.92208882684515" lon="13.714545114423723"><ele>1131.2</ele><time>2026-04-18T12:09:39Z</time></trkpt><trkpt lat="41.92211158746644" lon="13.714704738801222"><ele>1130.4</ele><time>2026-04-18T12:09:40Z</time></trkpt><trkpt lat="41.9221516844683" lon="13.714822634367692"><ele>1129.6</ele><time>2026-04-18T12:09:41Z</time></trkpt><trkpt lat="41.92222897689002" lon="13.714884306432507"><ele>1128.8</ele><time>2026-04-18T12:09:42Z</time></trkpt><trkpt lat="41.92234805687028" lon="13.71488036795838"><ele>1128.0</ele><time>2026-04-18T12:09:43Z</time></trkpt><trkpt lat="41.9224923351631" lon="13.714809284727009"><ele>1128.6666666666667</ele><time>2026-04-18T12:09:44Z</time></trkpt><trkpt lat="41.92265729524606" lon="13.714695281347398"><ele>1129.3333333333335</ele><time>2026-04-18T12:09:45Z</time></trkpt><trkpt lat="41.92278850698864" lon="13.714591922375304"><ele>1130.0</ele><time>2026-04-18T12:09:46Z</time></trkpt><trkpt lat="41.92286238264232" lon="13.714460536605701"><ele>1131.0</ele><time>2026-04-18T12:09:47Z</time></trkpt><trkpt lat="41.922913721467346" lon="13.714220784645494"><ele>1132.0</ele><time>2026-04-18T12:09:48Z</time></trkpt><trkpt lat="41.922952981966716" lon="13.713930206091804"><ele>1133.0</ele><time>2026-04-18T12:09:49Z</time></trkpt><trkpt lat="41.92300781503191" lon="13.713651827480591"><ele>1134.0</ele><time>2026-04-18T12:09:50Z</time></trkpt><trkpt lat="41.92304856633098" lon="13.713363383363161"><ele>1135.0</ele><time>2026-04-18T12:09:51Z</time></trkpt><trkpt lat="41.92308112918345" lon="13.71309582608575"><ele>1136.0</ele><time>2026-04-18T12:09:52Z</time></trkpt><trkpt lat="41.92310420155308" lon="13.71288688798554"><ele>1136.0</ele><time>2026-04-18T12:09:53Z</time></trkpt><trkpt lat="41.92313315979404" lon="13.712745124600849"><ele>1136.0</ele><time>2026-04-18T12:09:54Z</time></trkpt><trkpt lat="41.92318771699042" lon="13.712622880964815"><ele>1136.0</ele><time>2026-04-18T12:09:55Z</time></trkpt><trkpt lat="41.923312193208154" lon="13.712553772288809"><ele>1136.0</ele><time>2026-04-18T12:09:56Z</time></trkpt><trkpt lat="41.92347453195027" lon="13.71256917762439"><ele>1138.6666666666667</ele><time>2026-04-18T12:09:57Z</time></trkpt><trkpt lat="41.92366976442694" lon="13.712539264405034"><ele>1141.3333333333333</ele><time>2026-04-18T12:09:58Z</time></trkpt><trkpt lat="41.92384415300023" lon="13.712499323067068"><ele>1144.0</ele><time>2026-04-18T12:09:59Z</time></trkpt><trkpt lat="41.92400404322312" lon="13.71242070913005"><ele>1144.0</ele><time>2026-04-18T12:10:00Z</time></trkpt><trkpt lat="41.92416876362744" lon="13.712335274924733"><ele>1144.0</ele><time>2026-04-18T12:10:01Z</time></trkpt><trkpt lat="41.924341357051375" lon="13.712259420988676"><ele>1144.0</ele><time>2026-04-18T12:10:02Z</time></trkpt><trkpt lat="41.92451400585811" lon="13.712176999284674"><ele>1147.3333333333333</ele><time>2026-04-18T12:10:03Z</time></trkpt><trkpt lat="41.92469968030143" lon="13.712118816894591"><ele>1150.6666666666667</ele><time>2026-04-18T12:10:04Z</time></trkpt><trkpt lat="41.92488569494279" lon="13.712046107722715"><ele>1154.0</ele><time>2026-04-18T12:10:05Z</time></trkpt><trkpt lat="41.925079355387425" lon="13.71199453751528"><ele>1154.0</ele><time>2026-04-18T12:10:06Z</time></trkpt><trkpt lat="41.92527065669999" lon="13.7119604969588"><ele>1154.0</ele><time>2026-04-18T12:10:07Z</time></trkpt><trkpt lat="41.92544027391678" lon="13.711954057534252"><ele>1154.0</ele><time>2026-04-18T12:10:08Z</time></trkpt><trkpt lat="41.92555582274824" lon="13.711986257451764"><ele>1154.0</ele><time>2026-04-18T12:10:09Z</time></trkpt><trkpt lat="41.92565333911333" lon="13.712058666282449"><ele>1154.0</ele><time>2026-04-18T12:10:10Z</time></trkpt><trkpt lat="41.9257446242953" lon="13.712149855864304"><ele>1154.0</ele><time>2026-04-18T12:10:11Z</time></trkpt><trkpt lat="41.92577457998379" lon="13.712318364438302"><ele>1154.0</ele><time>2026-04-18T12:10:12Z</time></trkpt><trkpt lat="41.925791047364314" lon="13.712542930305071"><ele>1151.0</ele><time>2026-04-18T12:10:13Z</time></trkpt><trkpt lat="41.925813992796" lon="13.712792615748313"><ele>1148.0</ele><time>2026-04-18T12:10:14Z</time></trkpt><trkpt lat="41.92588908178974" lon="13.713021262198579"><ele>1145.0</ele><time>2026-04-18T12:10:15Z</time></trkpt><trkpt lat="41.92599040020228" lon="13.713215649626399"><ele>1145.0</ele><time>2026-04-18T12:10:16Z</time></trkpt><trkpt lat="41.9260636904927" lon="13.713372368822023"><ele>1145.0</ele><time>2026-04-18T12:10:17Z</time></trkpt><trkpt lat="41.92605673673807" lon="13.713562709847825"><ele>1145.0</ele><time>2026-04-18T12:10:18Z</time></trkpt><trkpt lat="41.926073550711756" lon="13.713777084806226"><ele>1145.0</ele><time>2026-04-18T12:10:19Z</time></trkpt><trkpt lat="41.9261227366505" lon="13.713998355975994"><ele>1145.6666666666667</ele><time>2026-04-18T12:10:20Z</time></trkpt><trkpt lat="41.926201689038884" lon="13.714200861026843"><ele>1146.3333333333333</ele><time>2026-04-18T12:10:21Z</time></trkpt><trkpt lat="41.92622231452445" lon="13.714404999660104"><ele>1147.0</ele><time>2026-04-18T12:10:22Z</time></trkpt><trkpt lat="41.92624770973703" lon="13.714640093055138"><ele>1149.3333333333333</ele><time>2026-04-18T12:10:23Z</time></trkpt><trkpt lat="41.92629457388523" lon="13.714919725922151"><ele>1151.6666666666667</ele><time>2026-04-18T12:10:24Z</time></trkpt><trkpt lat="41.92631744287626" lon="13.715186499317095"><ele>1154.0</ele><time>2026-04-18T12:10:25Z</time></trkpt><trkpt lat="41.92635875055442" lon="13.715394438659299"><ele>1156.3333333333335</ele><time>2026-04-18T12:10:26Z</time></trkpt><trkpt lat="41.92639291000386" lon="13.715573941403784"><ele>1158.6666666666667</ele><time>2026-04-18T12:10:27Z</time></trkpt><trkpt lat="41.9263722419202" lon="13.715780803642861"><ele>1161.0</ele><time>2026-04-18T12:10:28Z</time></trkpt><trkpt lat="41.92635559417688" lon="13.716016587608308"><ele>1164.0</ele><time>2026-04-18T12:10:29Z</time></trkpt><trkpt lat="41.92630679404884" lon="13.716220025715012"><ele>1167.0</ele><time>2026-04-18T12:10:30Z</time></trkpt><trkpt lat="41.92625798882906" lon="13.716382728826925"><ele>1170.0</ele><time>2026-04-18T12:10:31Z</time></trkpt><trkpt lat="41.92616132771856" lon="13.71652715386373"><ele>1173.0</ele><time>2026-04-18T12:10:32Z</time></trkpt><trkpt lat="41.926011894606546" lon="13.716638527295052"><ele>1175.6666666666667</ele><time>2026-04-18T12:10:33Z</time></trkpt><trkpt lat="41.92585083230908" lon="13.716752343414928"><ele>1178.3333333333335</ele><time>2026-04-18T12:10:34Z</time></trkpt><trkpt lat="41.925668574080305" lon="13.716892651275012"><ele>1181.0</ele><time>2026-04-18T12:10:35Z</time></trkpt><trkpt lat="41.925515823989976" lon="13.717019855187642"><ele>1181.25</ele><time>2026-04-18T12:10:36Z</time></trkpt><trkpt lat="41.9254443844292" lon="13.717080855265879"><ele>1181.5</ele><time>2026-04-18T12:10:37Z</time></trkpt><trkpt lat="41.92533170500912" lon="13.717073530744457"><ele>1181.75</ele><time>2026-04-18T12:10:38Z</time></trkpt><trkpt lat="41.92517495491763" lon="13.71697498190611"><ele>1182.0</ele><time>2026-04-18T12:10:39Z</time></trkpt><trkpt lat="41.92504084406824" lon="13.71683011534134"><ele>1182.0</ele><time>2026-04-18T12:10:40Z</time></trkpt><trkpt lat="41.924905248554566" lon="13.716717028079671"><ele>1182.0</ele><time>2026-04-18T12:10:41Z</time></trkpt><trkpt lat="41.92487496826762" lon="13.716904170607819"><ele>1182.0</ele><time>2026-04-18T12:10:42Z</time></trkpt><trkpt lat="41.92478898403384" lon="13.717062906282969"><ele>1182.0</ele><time>2026-04-18T12:10:43Z</time></trkpt><trkpt lat="41.92467545458263" lon="13.717168848959755"><ele>1192.0</ele><time>2026-04-18T12:10:44Z</time></trkpt><trkpt lat="41.924538524806735" lon="13.717351868195104"><ele>1202.0</ele><time>2026-04-18T12:10:45Z</time></trkpt><trkpt lat="41.92436559919932" lon="13.717615358468066"><ele>1205.3333333333335</ele><time>2026-04-18T12:10:46Z</time></trkpt><trkpt lat="41.92422297204589" lon="13.717824459905355"><ele>1208.6666666666667</ele><time>2026-04-18T12:10:47Z</time></trkpt><trkpt lat="41.92403532858957" lon="13.717978901659656"><ele>1212.0</ele><time>2026-04-18T12:10:48Z</time></trkpt><trkpt lat="41.923818349897054" lon="13.71812666736571"><ele>1212.0</ele><time>2026-04-18T12:10:49Z</time></trkpt><trkpt lat="41.923594151843155" lon="13.718280694033401"><ele>1212.0</ele><time>2026-04-18T12:10:50Z</time></trkpt><trkpt lat="41.92338128111866" lon="13.71845081399488"><ele>1219.5</ele><time>2026-04-18T12:10:51Z</time></trkpt><trkpt lat="41.92317477031395" lon="13.718616581495118"><ele>1227.0</ele><time>2026-04-18T12:10:52Z</time></trkpt><trkpt lat="41.922966501333136" lon="13.718777645507604"><ele>1227.0</ele><time>2026-04-18T12:10:53Z</time></trkpt><trkpt lat="41.92275130133569" lon="13.718926291669888"><ele>1227.0</ele><time>2026-04-18T12:10:54Z</time></trkpt><trkpt lat="41.92253107036617" lon="13.719066097774665"><ele>1217.5</ele><time>2026-04-18T12:10:55Z</time></trkpt><trkpt lat="41.92230026580343" lon="13.719211304387112"><ele>1208.0</ele><time>2026-04-18T12:10:56Z</time></trkpt><trkpt lat="41.922079138021694" lon="13.719351281510798"><ele>1215.5</ele><time>2026-04-18T12:10:57Z</time></trkpt><trkpt lat="41.92187230276319" lon="13.7194843033782"><ele>1223.0</ele><time>2026-04-18T12:10:58Z</time></trkpt><trkpt lat="41.92167757421605" lon="13.719631906875883"><ele>1223.0</ele><time>2026-04-18T12:10:59Z</time></trkpt><trkpt lat="41.92149602585396" lon="13.71975893212414"><ele>1223.0</ele><time>2026-04-18T12:11:00Z</time></trkpt><trkpt lat="41.921304539243486" lon="13.719917695903991"><ele>1223.0</ele><time>2026-04-18T12:11:01Z</time></trkpt><trkpt lat="41.92108358394236" lon="13.720116292801116"><ele>1225.5</ele><time>2026-04-18T12:11:02Z</time></trkpt><trkpt lat="41.920883750617854" lon="13.720371528208478"><ele>1228.0</ele><time>2026-04-18T12:11:03Z</time></trkpt><trkpt lat="41.9206857403884" lon="13.720656283170666"><ele>1228.0</ele><time>2026-04-18T12:11:04Z</time></trkpt><trkpt lat="41.92049945421382" lon="13.72091108280888"><ele>1228.0</ele><time>2026-04-18T12:11:05Z</time></trkpt><trkpt lat="41.92033646273651" lon="13.721127192890329"><ele>1226.0</ele><time>2026-04-18T12:11:06Z</time></trkpt><trkpt lat="41.92019024244742" lon="13.721322447705102"><ele>1224.0</ele><time>2026-04-18T12:11:07Z</time></trkpt><trkpt lat="41.92008553530964" lon="13.721518224713385"><ele>1222.0</ele><time>2026-04-18T12:11:08Z</time></trkpt><trkpt lat="41.920005825725646" lon="13.721721757548744"><ele>1229.3333333333333</ele><time>2026-04-18T12:11:09Z</time></trkpt><trkpt lat="41.91993464228023" lon="13.721965107603136"><ele>1236.6666666666667</ele><time>2026-04-18T12:11:10Z</time></trkpt><trkpt lat="41.919859702282096" lon="13.722203764711127"><ele>1244.0</ele><time>2026-04-18T12:11:11Z</time></trkpt><trkpt lat="41.919819323425855" lon="13.722341994058276"><ele>1244.0</ele><time>2026-04-18T12:11:12Z</time></trkpt><trkpt lat="41.91978383438392" lon="13.722438156654526"><ele>1244.0</ele><time>2026-04-18T12:11:13Z</time></trkpt><trkpt lat="41.91972465948033" lon="13.722490409155194"><ele>1244.0</ele><time>2026-04-18T12:11:14Z</time></trkpt><trkpt lat="41.91963790139419" lon="13.722481800048737"><ele>1244.0</ele><time>2026-04-18T12:11:15Z</time></trkpt><trkpt lat="41.91956259341819" lon="13.72233969585185"><ele>1244.0</ele><time>2026-04-18T12:11:16Z</time></trkpt><trkpt lat="41.91944497255398" lon="13.722209891015439"><ele>1244.0</ele><time>2026-04-18T12:11:17Z</time></trkpt><trkpt lat="41.91928972083978" lon="13.722122290017571"><ele>1244.0</ele><time>2026-04-18T12:11:18Z</time></trkpt><trkpt lat="41.919115146068656" lon="13.72206193141145"><ele>1244.0</ele><time>2026-04-18T12:11:19Z</time></trkpt><trkpt lat="41.918970168516864" lon="13.72204929525302"><ele>1244.3333333333335</ele><time>2026-04-18T12:11:20Z</time></trkpt><trkpt lat="41.91882940967925" lon="13.722084393220063"><ele>1244.6666666666667</ele><time>2026-04-18T12:11:21Z</time></trkpt><trkpt lat="41.91863988941627" lon="13.722211004020798"><ele>1245.0</ele><time>2026-04-18T12:11:22Z</time></trkpt><trkpt lat="41.91849139542287" lon="13.72231266627073"><ele>1241.0</ele><time>2026-04-18T12:11:23Z</time></trkpt><trkpt lat="41.918231044908836" lon="13.72252026276502"><ele>1237.0</ele><time>2026-04-18T12:11:24Z</time></trkpt><trkpt lat="41.91802141618048" lon="13.722617811818136"><ele>1237.0</ele><time>2026-04-18T12:11:25Z</time></trkpt><trkpt lat="41.91781903681588" lon="13.72272530088478"><ele>1237.0</ele><time>2026-04-18T12:11:26Z</time></trkpt><trkpt lat="41.91763491802477" lon="13.72288849413751"><ele>1237.0</ele><time>2026-04-18T12:11:27Z</time></trkpt><trkpt lat="41.9174635388994" lon="13.723071828428303"><ele>1241.3333333333333</ele><time>2026-04-18T12:11:28Z</time></trkpt><trkpt lat="41.91732478808532" lon="13.723275535356082"><ele>1245.6666666666667</ele><time>2026-04-18T12:11:29Z</time></trkpt><trkpt lat="41.91718885213539" lon="13.72338069743435"><ele>1250.0</ele><time>2026-04-18T12:11:30Z</time></trkpt><trkpt lat="41.91701695864901" lon="13.723448915149822"><ele>1250.0</ele><time>2026-04-18T12:11:31Z</time></trkpt><trkpt lat="41.91682273265252" lon="13.723539783986928"><ele>1250.0</ele><time>2026-04-18T12:11:32Z</time></trkpt><trkpt lat="41.91661957128166" lon="13.7236332620778"><ele>1250.0</ele><time>2026-04-18T12:11:33Z</time></trkpt><trkpt lat="41.91639791994606" lon="13.723723252806378"><ele>1254.3333333333335</ele><time>2026-04-18T12:11:34Z</time></trkpt><trkpt lat="41.91617627096969" lon="13.723724330836657"><ele>1258.6666666666667</ele><time>2026-04-18T12:11:35Z</time></trkpt><trkpt lat="41.91597790680569" lon="13.72376070875647"><ele>1263.0</ele><time>2026-04-18T12:11:36Z</time></trkpt><trkpt lat="41.91579078449506" lon="13.723840367608597"><ele>1263.0</ele><time>2026-04-18T12:11:37Z</time></trkpt><trkpt lat="41.915635336685824" lon="13.723925215530743"><ele>1263.0</ele><time>2026-04-18T12:11:38Z</time></trkpt><trkpt lat="41.91548914891751" lon="13.723944549020903"><ele>1263.0</ele><time>2026-04-18T12:11:39Z</time></trkpt><trkpt lat="41.91530529445119" lon="13.723894342101813"><ele>1263.0</ele><time>2026-04-18T12:11:40Z</time></trkpt><trkpt lat="41.91518832262528" lon="13.723835697742475"><ele>1263.0</ele><time>2026-04-18T12:11:41Z</time></trkpt><trkpt lat="41.91510809558608" lon="13.723700233733073"><ele>1263.0</ele><time>2026-04-18T12:11:42Z</time></trkpt><trkpt lat="41.9150552864794" lon="13.723526014221129"><ele>1263.0</ele><time>2026-04-18T12:11:43Z</time></trkpt><trkpt lat="41.915029476338844" lon="13.723302781703303"><ele>1265.0</ele><time>2026-04-18T12:11:44Z</time></trkpt><trkpt lat="41.915051153233996" lon="13.723092130328707"><ele>1267.0</ele><time>2026-04-18T12:11:45Z</time></trkpt><trkpt lat="41.91511028637745" lon="13.722940490615658"><ele>1269.0</ele><time>2026-04-18T12:11:46Z</time></trkpt><trkpt lat="41.915194212601996" lon="13.722821388865908"><ele>1271.0</ele><time>2026-04-18T12:11:47Z</time></trkpt><trkpt lat="41.91530047011983" lon="13.722779548424887"><ele>1268.6</ele><time>2026-04-18T12:11:48Z</time></trkpt><trkpt lat="41.9154130486217" lon="13.722828696193904"><ele>1266.1999999999998</ele><time>2026-04-18T12:11:49Z</time></trkpt><trkpt lat="41.91551411528407" lon="13.72281221245007"><ele>1263.8000000000002</ele><time>2026-04-18T12:11:50Z</time></trkpt><trkpt lat="41.91559504875186" lon="13.722799523651942"><ele>1261.4</ele><time>2026-04-18T12:11:51Z</time></trkpt><trkpt lat="41.9156645901179" lon="13.7226981897553"><ele>1259.0</ele><time>2026-04-18T12:11:52Z</time></trkpt><trkpt lat="41.91567579903804" lon="13.722490561017118"><ele>1259.0</ele><time>2026-04-18T12:11:53Z</time></trkpt><trkpt lat="41.91566801213155" lon="13.72223449484555"><ele>1259.0</ele><time>2026-04-18T12:11:54Z</time></trkpt><trkpt lat="41.91564050456497" lon="13.721948401338096"><ele>1259.0</ele><time>2026-04-18T12:11:55Z</time></trkpt><trkpt lat="41.91561295041969" lon="13.721654992156958"><ele>1260.6666666666667</ele><time>2026-04-18T12:11:56Z</time></trkpt><trkpt lat="41.915563585567156" lon="13.721416030246436"><ele>1262.3333333333333</ele><time>2026-04-18T12:11:57Z</time></trkpt><trkpt lat="41.915493632031016" lon="13.721230002040057"><ele>1264.0</ele><time>2026-04-18T12:11:58Z</time></trkpt><trkpt lat="41.91544391342612" lon="13.721072245541269"><ele>1266.25</ele><time>2026-04-18T12:11:59Z</time></trkpt><trkpt lat="41.91545078038847" lon="13.720921088765875"><ele>1268.5</ele><time>2026-04-18T12:12:00Z</time></trkpt><trkpt lat="41.91551097096972" lon="13.720792291954316"><ele>1270.75</ele><time>2026-04-18T12:12:01Z</time></trkpt><trkpt lat="41.91560649350655" lon="13.72070771254009"><ele>1273.0</ele><time>2026-04-18T12:12:02Z</time></trkpt><trkpt lat="41.91571710022654" lon="13.72070607275095"><ele>1273.0</ele><time>2026-04-18T12:12:03Z</time></trkpt><trkpt lat="41.91584122637186" lon="13.720767000903777"><ele>1273.0</ele><time>2026-04-18T12:12:04Z</time></trkpt><trkpt lat="41.915975048221185" lon="13.720822021274017"><ele>1273.0</ele><time>2026-04-18T12:12:05Z</time></trkpt><trkpt lat="41.9160866472667" lon="13.720758024804185"><ele>1273.0</ele><time>2026-04-18T12:12:06Z</time></trkpt><trkpt lat="41.916147757850794" lon="13.720593123948847"><ele>1266.3333333333333</ele><time>2026-04-18T12:12:07Z</time></trkpt><trkpt lat="41.916174660257056" lon="13.720378088837858"><ele>1259.6666666666667</ele><time>2026-04-18T12:12:08Z</time></trkpt><trkpt lat="41.91618863825232" lon="13.720102413368847"><ele>1253.0</ele><time>2026-04-18T12:12:09Z</time></trkpt><trkpt lat="41.91618743670343" lon="13.719802020336852"><ele>1253.0</ele><time>2026-04-18T12:12:10Z</time></trkpt><trkpt lat="41.91618163630183" lon="13.71952808714561"><ele>1253.0</ele><time>2026-04-18T12:12:11Z</time></trkpt><trkpt lat="41.91612537846136" lon="13.71924074622056"><ele>1253.0</ele><time>2026-04-18T12:12:12Z</time></trkpt><trkpt lat="41.91603938849796" lon="13.718921958982046"><ele>1254.0</ele><time>2026-04-18T12:12:13Z</time></trkpt><trkpt lat="41.91596024722524" lon="13.718624555564974"><ele>1255.0</ele><time>2026-04-18T12:12:14Z</time></trkpt><trkpt lat="41.915897858797706" lon="13.718366359380079"><ele>1256.0</ele><time>2026-04-18T12:12:15Z</time></trkpt><trkpt lat="41.91582038507904" lon="13.718101837562168"><ele>1263.0</ele><time>2026-04-18T12:12:16Z</time></trkpt><trkpt lat="41.91570540145826" lon="13.717865203015021"><ele>1270.0</ele><time>2026-04-18T12:12:17Z</time></trkpt><trkpt lat="41.91558434576742" lon="13.717657549795202"><ele>1277.0</ele><time>2026-04-18T12:12:18Z</time></trkpt><trkpt lat="41.915532550006894" lon="13.717453431321557"><ele>1277.0</ele><time>2026-04-18T12:12:19Z</time></trkpt><trkpt lat="41.91550783128644" lon="13.717254525117365"><ele>1277.0</ele><time>2026-04-18T12:12:20Z</time></trkpt><trkpt lat="41.91550936548007" lon="13.7169828509975"><ele>1277.0</ele><time>2026-04-18T12:12:21Z</time></trkpt><trkpt lat="41.91554047755374" lon="13.716783760929573"><ele>1276.75</ele><time>2026-04-18T12:12:22Z</time></trkpt><trkpt lat="41.915549405473136" lon="13.716629799884256"><ele>1276.5</ele><time>2026-04-18T12:12:23Z</time></trkpt><trkpt lat="41.91551049767603" lon="13.716505829530387"><ele>1276.25</ele><time>2026-04-18T12:12:24Z</time></trkpt><trkpt lat="41.915402308651636" lon="13.716404698972765"><ele>1276.0</ele><time>2026-04-18T12:12:25Z</time></trkpt><trkpt lat="41.91526069345568" lon="13.71635072871888"><ele>1276.0</ele><time>2026-04-18T12:12:26Z</time></trkpt><trkpt lat="41.91508353278583" lon="13.716351106053883"><ele>1276.0</ele><time>2026-04-18T12:12:27Z</time></trkpt><trkpt lat="41.91487567843903" lon="13.716370728936548"><ele>1276.0</ele><time>2026-04-18T12:12:28Z</time></trkpt><trkpt lat="41.91465449336986" lon="13.716389409413702"><ele>1281.6666666666665</ele><time>2026-04-18T12:12:29Z</time></trkpt><trkpt lat="41.914475184731465" lon="13.716402761174981"><ele>1287.3333333333333</ele><time>2026-04-18T12:12:30Z</time></trkpt><trkpt lat="41.91433980964386" lon="13.71642108908688"><ele>1293.0</ele><time>2026-04-18T12:12:31Z</time></trkpt><trkpt lat="41.91420726508317" lon="13.716487907858856"><ele>1294.3333333333333</ele><time>2026-04-18T12:12:32Z</time></trkpt><trkpt lat="41.91406932271759" lon="13.716644139476838"><ele>1295.6666666666665</ele><time>2026-04-18T12:12:33Z</time></trkpt><trkpt lat="41.91393578426573" lon="13.716865890906963"><ele>1297.0</ele><time>2026-04-18T12:12:34Z</time></trkpt><trkpt lat="41.913821057713115" lon="13.717084173000547"><ele>1299.6666666666665</ele><time>2026-04-18T12:12:35Z</time></trkpt><trkpt lat="41.91367962213777" lon="13.71725199672351"><ele>1302.3333333333333</ele><time>2026-04-18T12:12:36Z</time></trkpt><trkpt lat="41.913551299106764" lon="13.717362280808668"><ele>1305.0</ele><time>2026-04-18T12:12:37Z</time></trkpt><trkpt lat="41.913399073296425" lon="13.71742173096246"><ele>1305.0</ele><time>2026-04-18T12:12:38Z</time></trkpt><trkpt lat="41.91320535656712" lon="13.717457490215985"><ele>1305.0</ele><time>2026-04-18T12:12:39Z</time></trkpt><trkpt lat="41.91301440343557" lon="13.717435861180196"><ele>1305.0</ele><time>2026-04-18T12:12:40Z</time></trkpt><trkpt lat="41.912840556737436" lon="13.717403406087953"><ele>1305.0</ele><time>2026-04-18T12:12:41Z</time></trkpt><trkpt lat="41.91269018746837" lon="13.717392068237306"><ele>1305.0</ele><time>2026-04-18T12:12:42Z</time></trkpt><trkpt lat="41.91257092224557" lon="13.71747098208593"><ele>1305.0</ele><time>2026-04-18T12:12:43Z</time></trkpt><trkpt lat="41.912453490165476" lon="13.717605384210959"><ele>1305.0</ele><time>2026-04-18T12:12:44Z</time></trkpt><trkpt lat="41.91238911088196" lon="13.717810091068229"><ele>1308.3333333333333</ele><time>2026-04-18T12:12:45Z</time></trkpt><trkpt lat="41.9123647534758" lon="13.718060473215585"><ele>1311.6666666666665</ele><time>2026-04-18T12:12:46Z</time></trkpt><trkpt lat="41.912325037601754" lon="13.718332549738498"><ele>1315.0</ele><time>2026-04-18T12:12:47Z</time></trkpt><trkpt lat="41.912228980452575" lon="13.718626011224519"><ele>1318.3333333333333</ele><time>2026-04-18T12:12:48Z</time></trkpt><trkpt lat="41.91210814604401" lon="13.718885090823306"><ele>1321.6666666666667</ele><time>2026-04-18T12:12:49Z</time></trkpt><trkpt lat="41.912085960608294" lon="13.719089969330255"><ele>1325.0</ele><time>2026-04-18T12:12:50Z</time></trkpt><trkpt lat="41.912058228899205" lon="13.719232178435673"><ele>1325.0</ele><time>2026-04-18T12:12:51Z</time></trkpt><trkpt lat="41.912007026005035" lon="13.719319982165276"><ele>1325.0</ele><time>2026-04-18T12:12:52Z</time></trkpt><trkpt lat="41.911893446464546" lon="13.71941565263984"><ele>1325.0</ele><time>2026-04-18T12:12:53Z</time></trkpt><trkpt lat="41.911757719117894" lon="13.719422997509508"><ele>1325.0</ele><time>2026-04-18T12:12:54Z</time></trkpt><trkpt lat="41.91160425989444" lon="13.719346806423914"><ele>1323.5</ele><time>2026-04-18T12:12:55Z</time></trkpt><trkpt lat="41.91145578168718" lon="13.719210787628308"><ele>1322.0</ele><time>2026-04-18T12:12:56Z</time></trkpt><trkpt lat="41.91135615869666" lon="13.719110136226856"><ele>1320.5</ele><time>2026-04-18T12:12:57Z</time></trkpt><trkpt lat="41.91126330679385" lon="13.719093302486078"><ele>1319.0</ele><time>2026-04-18T12:12:58Z</time></trkpt><trkpt lat="41.91108570378114" lon="13.719252887129791"><ele>1322.5</ele><time>2026-04-18T12:12:59Z</time></trkpt><trkpt lat="41.91091593548112" lon="13.719490484087416"><ele>1326.0</ele><time>2026-04-18T12:13:00Z</time></trkpt><trkpt lat="41.910786169253626" lon="13.719744728404677"><ele>1326.0</ele><time>2026-04-18T12:13:01Z</time></trkpt><trkpt lat="41.910612217964434" lon="13.720012197056258"><ele>1326.0</ele><time>2026-04-18T12:13:02Z</time></trkpt><trkpt lat="41.91043817817519" lon="13.720280032874447"><ele>1330.5</ele><time>2026-04-18T12:13:03Z</time></trkpt><trkpt lat="41.91027526121117" lon="13.720525805382026"><ele>1335.0</ele><time>2026-04-18T12:13:04Z</time></trkpt><trkpt lat="41.91011541447647" lon="13.72078705646982"><ele>1332.5</ele><time>2026-04-18T12:13:05Z</time></trkpt><trkpt lat="41.909976784548284" lon="13.7210715150793"><ele>1330.0</ele><time>2026-04-18T12:13:06Z</time></trkpt><trkpt lat="41.90984491461339" lon="13.72142691078273"><ele>1330.0</ele><time>2026-04-18T12:13:07Z</time></trkpt><trkpt lat="41.90970949035974" lon="13.721800305562688"><ele>1330.0</ele><time>2026-04-18T12:13:08Z</time></trkpt><trkpt lat="41.90958070265572" lon="13.722166916848893"><ele>1332.0</ele><time>2026-04-18T12:13:09Z</time></trkpt><trkpt lat="41.909441136963814" lon="13.72250714783296"><ele>1334.0</ele><time>2026-04-18T12:13:10Z</time></trkpt><trkpt lat="41.90932050755584" lon="13.722808221334818"><ele>1334.3333333333335</ele><time>2026-04-18T12:13:11Z</time></trkpt><trkpt lat="41.90924231894738" lon="13.72306925871541"><ele>1334.6666666666667</ele><time>2026-04-18T12:13:12Z</time></trkpt><trkpt lat="41.90918060104087" lon="13.723277688527592"><ele>1335.0</ele><time>2026-04-18T12:13:13Z</time></trkpt><trkpt lat="41.909134841131525" lon="13.72346639440933"><ele>1333.75</ele><time>2026-04-18T12:13:14Z</time></trkpt><trkpt lat="41.90911907825009" lon="13.723668070251783"><ele>1332.5</ele><time>2026-04-18T12:13:15Z</time></trkpt><trkpt lat="41.90916532829574" lon="13.723819724218227"><ele>1331.25</ele><time>2026-04-18T12:13:16Z</time></trkpt><trkpt lat="41.909203470193155" lon="13.724036399191116"><ele>1330.0</ele><time>2026-04-18T12:13:17Z</time></trkpt><trkpt lat="41.909222121141966" lon="13.724290052365703"><ele>1332.5</ele><time>2026-04-18T12:13:18Z</time></trkpt><trkpt lat="41.9092075659655" lon="13.724487267712115"><ele>1335.0</ele><time>2026-04-18T12:13:19Z</time></trkpt><trkpt lat="41.90911849125866" lon="13.724596044628264"><ele>1337.5</ele><time>2026-04-18T12:13:20Z</time></trkpt><trkpt lat="41.909010582116764" lon="13.724739867515272"><ele>1340.0</ele><time>2026-04-18T12:13:21Z</time></trkpt><trkpt lat="41.908892554888936" lon="13.724982810260862"><ele>1340.0</ele><time>2026-04-18T12:13:22Z</time></trkpt><trkpt lat="41.90877464538042" lon="13.72522898746334"><ele>1340.0</ele><time>2026-04-18T12:13:23Z</time></trkpt><trkpt lat="41.908666967713216" lon="13.7255026838989"><ele>1340.0</ele><time>2026-04-18T12:13:24Z</time></trkpt><trkpt lat="41.90855124261874" lon="13.725787904218539"><ele>1342.6666666666667</ele><time>2026-04-18T12:13:25Z</time></trkpt><trkpt lat="41.90843687180514" lon="13.726043367806446"><ele>1345.3333333333333</ele><time>2026-04-18T12:13:26Z</time></trkpt><trkpt lat="41.90833165172303" lon="13.726293252916523"><ele>1348.0</ele><time>2026-04-18T12:13:27Z</time></trkpt><trkpt lat="41.9082120319659" lon="13.726506186469136"><ele>1348.0</ele><time>2026-04-18T12:13:28Z</time></trkpt><trkpt lat="41.908047183388426" lon="13.726732623746612"><ele>1348.0</ele><time>2026-04-18T12:13:29Z</time></trkpt><trkpt lat="41.90787519776741" lon="13.726991983220868"><ele>1355.5</ele><time>2026-04-18T12:13:30Z</time></trkpt><trkpt lat="41.90774749536703" lon="13.727283608715807"><ele>1363.0</ele><time>2026-04-18T12:13:31Z</time></trkpt><trkpt lat="41.90761647975225" lon="13.727565245057692"><ele>1359.5</ele><time>2026-04-18T12:13:32Z</time></trkpt><trkpt lat="41.90747488403015" lon="13.727837442672127"><ele>1356.0</ele><time>2026-04-18T12:13:33Z</time></trkpt><trkpt lat="41.907325951189925" lon="13.728128294434889"><ele>1356.0</ele><time>2026-04-18T12:13:34Z</time></trkpt><trkpt lat="41.90720281506284" lon="13.728409742853176"><ele>1356.0</ele><time>2026-04-18T12:13:35Z</time></trkpt><trkpt lat="41.90710574399098" lon="13.728653888571564"><ele>1356.0</ele><time>2026-04-18T12:13:36Z</time></trkpt><trkpt lat="41.906993592388524" lon="13.728873855196507"><ele>1359.6666666666667</ele><time>2026-04-18T12:13:37Z</time></trkpt><trkpt lat="41.906936192942275" lon="13.729089653688199"><ele>1363.3333333333335</ele><time>2026-04-18T12:13:38Z</time></trkpt><trkpt lat="41.90692262430149" lon="13.729310382710125"><ele>1367.0</ele><time>2026-04-18T12:13:39Z</time></trkpt><trkpt lat="41.90687892630344" lon="13.72956739863167"><ele>1368.3333333333335</ele><time>2026-04-18T12:13:40Z</time></trkpt><trkpt lat="41.906851922356516" lon="13.729823094749397"><ele>1369.6666666666667</ele><time>2026-04-18T12:13:41Z</time></trkpt><trkpt lat="41.90667019847404" lon="13.730038328792208"><ele>1371.0</ele><time>2026-04-18T12:13:42Z</time></trkpt><trkpt lat="41.906581001778505" lon="13.730256095462005"><ele>1371.0</ele><time>2026-04-18T12:13:43Z</time></trkpt><trkpt lat="41.9064800615132" lon="13.730458374101575"><ele>1371.0</ele><time>2026-04-18T12:13:44Z</time></trkpt><trkpt lat="41.90621389852897" lon="13.73045549784598"><ele>1371.0</ele><time>2026-04-18T12:13:45Z</time></trkpt><trkpt lat="41.90611032496757" lon="13.73061498517964"><ele>1371.0</ele><time>2026-04-18T12:13:46Z</time></trkpt><trkpt lat="41.90599332628289" lon="13.730805534968399"><ele>1371.0</ele><time>2026-04-18T12:13:47Z</time></trkpt><trkpt lat="41.90597635648045" lon="13.731129634064123"><ele>1371.0</ele><time>2026-04-18T12:13:48Z</time></trkpt><trkpt lat="41.90588212118455" lon="13.731345294796993"><ele>1370.3333333333333</ele><time>2026-04-18T12:13:49Z</time></trkpt><trkpt lat="41.90579999250855" lon="13.731514087604564"><ele>1369.6666666666665</ele><time>2026-04-18T12:13:50Z</time></trkpt><trkpt lat="41.905699602128884" lon="13.731636182587076"><ele>1369.0</ele><time>2026-04-18T12:13:51Z</time></trkpt><trkpt lat="41.90552547332388" lon="13.731734982945946"><ele>1369.0</ele><time>2026-04-18T12:13:52Z</time></trkpt><trkpt lat="41.90536329648097" lon="13.731869113453412"><ele>1369.0</ele><time>2026-04-18T12:13:53Z</time></trkpt><trkpt lat="41.905138749008195" lon="13.731933436049301"><ele>1369.0</ele><time>2026-04-18T12:13:54Z</time></trkpt><trkpt lat="41.90490455122159" lon="13.731963989066859"><ele>1374.3333333333333</ele><time>2026-04-18T12:13:55Z</time></trkpt><trkpt lat="41.90472704635368" lon="13.732030354448463"><ele>1379.6666666666667</ele><time>2026-04-18T12:13:56Z</time></trkpt><trkpt lat="41.90454892872421" lon="13.73206710820179"><ele>1385.0</ele><time>2026-04-18T12:13:57Z</time></trkpt><trkpt lat="41.904397557275345" lon="13.73209572902114"><ele>1385.0</ele><time>2026-04-18T12:13:58Z</time></trkpt><trkpt lat="41.90426945498193" lon="13.732119720580105"><ele>1385.0</ele><time>2026-04-18T12:13:59Z</time></trkpt><trkpt lat="41.90418471958294" lon="13.732172457213924"><ele>1385.0</ele><time>2026-04-18T12:14:00Z</time></trkpt><trkpt lat="41.9041314376427" lon="13.73227251817962"><ele>1385.0</ele><time>2026-04-18T12:14:01Z</time></trkpt><trkpt lat="41.90410852797849" lon="13.732360157793257"><ele>1385.0</ele><time>2026-04-18T12:14:02Z</time></trkpt><trkpt lat="41.90401200156321" lon="13.732908020660746"><ele>1383.3333333333335</ele><time>2026-04-18T12:14:03Z</time></trkpt><trkpt lat="41.903935562860305" lon="13.733129750576504"><ele>1381.6666666666667</ele><time>2026-04-18T12:14:04Z</time></trkpt><trkpt lat="41.90385282416266" lon="13.733328026875691"><ele>1380.0</ele><time>2026-04-18T12:14:05Z</time></trkpt><trkpt lat="41.903791543950575" lon="13.733480785766556"><ele>1382.0</ele><time>2026-04-18T12:14:06Z</time></trkpt><trkpt lat="41.90373188016778" lon="13.733599670348582"><ele>1384.0</ele><time>2026-04-18T12:14:07Z</time></trkpt><trkpt lat="41.90366536105468" lon="13.7336748843111"><ele>1386.0</ele><time>2026-04-18T12:14:08Z</time></trkpt><trkpt lat="41.903587023993474" lon="13.733713961909734"><ele>1388.0</ele><time>2026-04-18T12:14:09Z</time></trkpt><trkpt lat="41.903454255830894" lon="13.73371833497047"><ele>1390.0</ele><time>2026-04-18T12:14:10Z</time></trkpt><trkpt lat="41.90331199778776" lon="13.733659289637023"><ele>1380.0</ele><time>2026-04-18T12:14:11Z</time></trkpt><trkpt lat="41.903158743853" lon="13.733539048518155"><ele>1370.0</ele><time>2026-04-18T12:14:12Z</time></trkpt><trkpt lat="41.90287107457672" lon="13.733372044262351"><ele>1370.0</ele><time>2026-04-18T12:14:13Z</time></trkpt><trkpt lat="41.90267586110007" lon="13.733345347122903"><ele>1370.0</ele><time>2026-04-18T12:14:14Z</time></trkpt><trkpt lat="41.902428444541165" lon="13.733367011807303"><ele>1370.0</ele><time>2026-04-18T12:14:15Z</time></trkpt><trkpt lat="41.90218765046533" lon="13.733412157538016"><ele>1375.5</ele><time>2026-04-18T12:14:16Z</time></trkpt><trkpt lat="41.90192828259595" lon="13.733409507025574"><ele>1381.0</ele><time>2026-04-18T12:14:17Z</time></trkpt><trkpt lat="41.90169305914015" lon="13.733403261296516"><ele>1381.5</ele><time>2026-04-18T12:14:18Z</time></trkpt><trkpt lat="41.901468647726404" lon="13.733422801384258"><ele>1382.0</ele><time>2026-04-18T12:14:19Z</time></trkpt><trkpt lat="41.901244050016366" lon="13.733448586520966"><ele>1382.0</ele><time>2026-04-18T12:14:20Z</time></trkpt><trkpt lat="41.90101934446634" lon="13.733474260123055"><ele>1382.0</ele><time>2026-04-18T12:14:21Z</time></trkpt><trkpt lat="41.900806920410986" lon="13.733521288535355"><ele>1382.0</ele><time>2026-04-18T12:14:22Z</time></trkpt><trkpt lat="41.90061801029427" lon="13.733557693560163"><ele>1384.3333333333335</ele><time>2026-04-18T12:14:23Z</time></trkpt><trkpt lat="41.900434130096215" lon="13.733616146384792"><ele>1386.6666666666667</ele><time>2026-04-18T12:14:24Z</time></trkpt><trkpt lat="41.90023155052914" lon="13.733678435669553"><ele>1389.0</ele><time>2026-04-18T12:14:25Z</time></trkpt><trkpt lat="41.900008567588394" lon="13.733817901889704"><ele>1389.0</ele><time>2026-04-18T12:14:26Z</time></trkpt><trkpt lat="41.89976364298635" lon="13.733971649808032"><ele>1389.0</ele><time>2026-04-18T12:14:27Z</time></trkpt><trkpt lat="41.89950694459686" lon="13.734144420383302"><ele>1389.0</ele><time>2026-04-18T12:14:28Z</time></trkpt><trkpt lat="41.89926718000436" lon="13.734293078776831"><ele>1389.0</ele><time>2026-04-18T12:14:29Z</time></trkpt><trkpt lat="41.89905066053698" lon="13.734427732119343"><ele>1391.0</ele><time>2026-04-18T12:14:30Z</time></trkpt><trkpt lat="41.898848435875955" lon="13.734559895517805"><ele>1393.0</ele><time>2026-04-18T12:14:31Z</time></trkpt><trkpt lat="41.89866888483675" lon="13.734659951924742"><ele>1395.0</ele><time>2026-04-18T12:14:32Z</time></trkpt><trkpt lat="41.89850630341437" lon="13.734759759572063"><ele>1389.6666666666667</ele><time>2026-04-18T12:14:33Z</time></trkpt><trkpt lat="41.8983976044987" lon="13.734914204805794"><ele>1384.3333333333335</ele><time>2026-04-18T12:14:34Z</time></trkpt><trkpt lat="41.89829395875361" lon="13.73508883405981"><ele>1379.0</ele><time>2026-04-18T12:14:35Z</time></trkpt><trkpt lat="41.89820589545773" lon="13.735249648231587"><ele>1389.6666666666667</ele><time>2026-04-18T12:14:36Z</time></trkpt><trkpt lat="41.898097524608296" lon="13.735360140412924"><ele>1400.3333333333333</ele><time>2026-04-18T12:14:37Z</time></trkpt><trkpt lat="41.89792688228484" lon="13.735391766244117"><ele>1411.0</ele><time>2026-04-18T12:14:38Z</time></trkpt><trkpt lat="41.89772733721137" lon="13.735394358409732"><ele>1406.0</ele><time>2026-04-18T12:14:39Z</time></trkpt><trkpt lat="41.89751308784004" lon="13.735422449578559"><ele>1401.0</ele><time>2026-04-18T12:14:40Z</time></trkpt><trkpt lat="41.8972992238708" lon="13.73554016806378"><ele>1396.0</ele><time>2026-04-18T12:14:41Z</time></trkpt><trkpt lat="41.89707976673867" lon="13.73567327312419"><ele>1396.0</ele><time>2026-04-18T12:14:42Z</time></trkpt><trkpt lat="41.89685033632528" lon="13.735770459818175"><ele>1396.0</ele><time>2026-04-18T12:14:43Z</time></trkpt><trkpt lat="41.89661554713167" lon="13.735812171519314"><ele>1389.5</ele><time>2026-04-18T12:14:44Z</time></trkpt><trkpt lat="41.89638312483864" lon="13.735845399290307"><ele>1383.0</ele><time>2026-04-18T12:14:45Z</time></trkpt><trkpt lat="41.8961615193362" lon="13.735886062066319"><ele>1383.0</ele><time>2026-04-18T12:14:46Z</time></trkpt><trkpt lat="41.89594526759767" lon="13.735908144653806"><ele>1383.0</ele><time>2026-04-18T12:14:47Z</time></trkpt><trkpt lat="41.895741391684744" lon="13.735923511291395"><ele>1383.0</ele><time>2026-04-18T12:14:48Z</time></trkpt><trkpt lat="41.895548098254075" lon="13.735940456112425"><ele>1386.0</ele><time>2026-04-18T12:14:49Z</time></trkpt><trkpt lat="41.89536608849175" lon="13.735968445861753"><ele>1389.0</ele><time>2026-04-18T12:14:50Z</time></trkpt><trkpt lat="41.89517797707022" lon="13.736040212281774"><ele>1392.0</ele><time>2026-04-18T12:14:51Z</time></trkpt><trkpt lat="41.894991187920795" lon="13.736177735712394"><ele>1392.0</ele><time>2026-04-18T12:14:52Z</time></trkpt><trkpt lat="41.89481633005458" lon="13.736324771965194"><ele>1392.0</ele><time>2026-04-18T12:14:53Z</time></trkpt><trkpt lat="41.894663711222094" lon="13.736448910874786"><ele>1392.0</ele><time>2026-04-18T12:14:54Z</time></trkpt><trkpt lat="41.894523778665764" lon="13.73655292963113"><ele>1392.0</ele><time>2026-04-18T12:14:55Z</time></trkpt><trkpt lat="41.894383626224496" lon="13.736641418803014"><ele>1392.0</ele><time>2026-04-18T12:14:56Z</time></trkpt><trkpt lat="41.89422898166803" lon="13.736723789266168"><ele>1392.0</ele><time>2026-04-18T12:14:57Z</time></trkpt><trkpt lat="41.89403292346336" lon="13.736743647731672"><ele>1386.6666666666667</ele><time>2026-04-18T12:14:58Z</time></trkpt><trkpt lat="41.89384178561301" lon="13.736779016308182"><ele>1381.3333333333335</ele><time>2026-04-18T12:14:59Z</time></trkpt><trkpt lat="41.893645338667824" lon="13.73684566450635"><ele>1376.0</ele><time>2026-04-18T12:15:00Z</time></trkpt><trkpt lat="41.893454540196096" lon="13.736964751933844"><ele>1380.0</ele><time>2026-04-18T12:15:01Z</time></trkpt><trkpt lat="41.89326831150591" lon="13.737099698425055"><ele>1384.0</ele><time>2026-04-18T12:15:02Z</time></trkpt><trkpt lat="41.89306749023519" lon="13.737169293103104"><ele>1388.0</ele><time>2026-04-18T12:15:03Z</time></trkpt><trkpt lat="41.892876646650194" lon="13.737197660411406"><ele>1388.0</ele><time>2026-04-18T12:15:04Z</time></trkpt><trkpt lat="41.89269845058282" lon="13.737264139192133"><ele>1388.0</ele><time>2026-04-18T12:15:05Z</time></trkpt><trkpt lat="41.892510129153926" lon="13.737427647335801"><ele>1388.0</ele><time>2026-04-18T12:15:06Z</time></trkpt><trkpt lat="41.89231983178559" lon="13.737568715750555"><ele>1390.0</ele><time>2026-04-18T12:15:07Z</time></trkpt><trkpt lat="41.89214934577624" lon="13.737695652537873"><ele>1392.0</ele><time>2026-04-18T12:15:08Z</time></trkpt><trkpt lat="41.89199558305565" lon="13.737815940668197"><ele>1394.0</ele><time>2026-04-18T12:15:09Z</time></trkpt><trkpt lat="41.89185725025752" lon="13.737964173161634"><ele>1386.6666666666667</ele><time>2026-04-18T12:15:10Z</time></trkpt><trkpt lat="41.89173731667988" lon="13.738161998852961"><ele>1379.3333333333333</ele><time>2026-04-18T12:15:11Z</time></trkpt><trkpt lat="41.89161277376398" lon="13.738356374785912"><ele>1372.0</ele><time>2026-04-18T12:15:12Z</time></trkpt><trkpt lat="41.891456204924815" lon="13.738505065434701"><ele>1377.3333333333333</ele><time>2026-04-18T12:15:13Z</time></trkpt><trkpt lat="41.891261289143294" lon="13.73861313196355"><ele>1382.6666666666667</ele><time>2026-04-18T12:15:14Z</time></trkpt><trkpt lat="41.891057211225935" lon="13.738706085354512"><ele>1388.0</ele><time>2026-04-18T12:15:15Z</time></trkpt><trkpt lat="41.89084462045234" lon="13.738765127971307"><ele>1388.0</ele><time>2026-04-18T12:15:16Z</time></trkpt><trkpt lat="41.89062402402099" lon="13.738769052705774"><ele>1388.0</ele><time>2026-04-18T12:15:17Z</time></trkpt><trkpt lat="41.89039796005889" lon="13.738774794481552"><ele>1388.0</ele><time>2026-04-18T12:15:18Z</time></trkpt><trkpt lat="41.89017470138514" lon="13.738822208657567"><ele>1383.5</ele><time>2026-04-18T12:15:19Z</time></trkpt><trkpt lat="41.88994927612979" lon="13.73889460552913"><ele>1379.0</ele><time>2026-04-18T12:15:20Z</time></trkpt><trkpt lat="41.88972241748169" lon="13.738952801547983"><ele>1379.0</ele><time>2026-04-18T12:15:21Z</time></trkpt><trkpt lat="41.88951367887562" lon="13.738999878052011"><ele>1379.0</ele><time>2026-04-18T12:15:22Z</time></trkpt><trkpt lat="41.88933258225354" lon="13.739035622726538"><ele>1379.0</ele><time>2026-04-18T12:15:23Z</time></trkpt><trkpt lat="41.889176302121086" lon="13.739052790210609"><ele>1376.0</ele><time>2026-04-18T12:15:24Z</time></trkpt><trkpt lat="41.8890324614914" lon="13.739070491632713"><ele>1373.0</ele><time>2026-04-18T12:15:25Z</time></trkpt><trkpt lat="41.888888616774125" lon="13.73915286566135"><ele>1370.0</ele><time>2026-04-18T12:15:26Z</time></trkpt><trkpt lat="41.88874845911484" lon="13.739322166843019"><ele>1372.6666666666667</ele><time>2026-04-18T12:15:27Z</time></trkpt><trkpt lat="41.888578748736954" lon="13.739506047968423"><ele>1375.3333333333333</ele><time>2026-04-18T12:15:28Z</time></trkpt><trkpt lat="41.888390897023825" lon="13.739680208962868"><ele>1378.0</ele><time>2026-04-18T12:15:29Z</time></trkpt><trkpt lat="41.88820850779242" lon="13.73982115768478"><ele>1378.0</ele><time>2026-04-18T12:15:30Z</time></trkpt><trkpt lat="41.88803536336296" lon="13.740005238894879"><ele>1378.0</ele><time>2026-04-18T12:15:31Z</time></trkpt><trkpt lat="41.88784683268782" lon="13.74022783106368"><ele>1375.0</ele><time>2026-04-18T12:15:32Z</time></trkpt><trkpt lat="41.887705226776674" lon="13.740479617192612"><ele>1372.0</ele><time>2026-04-18T12:15:33Z</time></trkpt><trkpt lat="41.88755877892097" lon="13.740770592652128"><ele>1380.0</ele><time>2026-04-18T12:15:34Z</time></trkpt><trkpt lat="41.88742408342507" lon="13.74107666283072"><ele>1388.0</ele><time>2026-04-18T12:15:35Z</time></trkpt><trkpt lat="41.88726791357652" lon="13.741364290477147"><ele>1388.0</ele><time>2026-04-18T12:15:36Z</time></trkpt><trkpt lat="41.887102981642634" lon="13.741610169093512"><ele>1388.0</ele><time>2026-04-18T12:15:37Z</time></trkpt><trkpt lat="41.886941675646796" lon="13.741811989547472"><ele>1386.6666666666667</ele><time>2026-04-18T12:15:38Z</time></trkpt><trkpt lat="41.886800381559326" lon="13.74201067434195"><ele>1385.3333333333333</ele><time>2026-04-18T12:15:39Z</time></trkpt><trkpt lat="41.88665157135863" lon="13.742196198361642"><ele>1384.0</ele><time>2026-04-18T12:15:40Z</time></trkpt><trkpt lat="41.886466317494005" lon="13.74235064845579"><ele>1384.0</ele><time>2026-04-18T12:15:41Z</time></trkpt><trkpt lat="41.88623871736933" lon="13.742466871471017"><ele>1384.0</ele><time>2026-04-18T12:15:42Z</time></trkpt><trkpt lat="41.885986623000974" lon="13.742570010157735"><ele>1387.5</ele><time>2026-04-18T12:15:43Z</time></trkpt><trkpt lat="41.88574384525407" lon="13.74269726363434"><ele>1391.0</ele><time>2026-04-18T12:15:44Z</time></trkpt><trkpt lat="41.885510330444156" lon="13.742832863742056"><ele>1391.0</ele><time>2026-04-18T12:15:45Z</time></trkpt><trkpt lat="41.88527966918754" lon="13.74298813599344"><ele>1391.0</ele><time>2026-04-18T12:15:46Z</time></trkpt><trkpt lat="41.88505645062963" lon="13.743184130046705"><ele>1394.5</ele><time>2026-04-18T12:15:47Z</time></trkpt><trkpt lat="41.8848515450688" lon="13.74338672709873"><ele>1398.0</ele><time>2026-04-18T12:15:48Z</time></trkpt><trkpt lat="41.88465453946933" lon="13.743581106180965"><ele>1398.0</ele><time>2026-04-18T12:15:49Z</time></trkpt><trkpt lat="41.884460772630156" lon="13.74378046173709"><ele>1398.0</ele><time>2026-04-18T12:15:50Z</time></trkpt><trkpt lat="41.88429463169841" lon="13.744002860494705"><ele>1396.3333333333333</ele><time>2026-04-18T12:15:51Z</time></trkpt><trkpt lat="41.884149942646125" lon="13.74423270509292"><ele>1394.6666666666665</ele><time>2026-04-18T12:15:52Z</time></trkpt><trkpt lat="41.88402211378061" lon="13.744436753617443"><ele>1393.0</ele><time>2026-04-18T12:15:53Z</time></trkpt><trkpt lat="41.88388979085713" lon="13.744600284574215"><ele>1393.0</ele><time>2026-04-18T12:15:54Z</time></trkpt><trkpt lat="41.88372887210786" lon="13.744722379015942"><ele>1393.0</ele><time>2026-04-18T12:15:55Z</time></trkpt><trkpt lat="41.88353694745166" lon="13.744791219527883"><ele>1393.0</ele><time>2026-04-18T12:15:56Z</time></trkpt><trkpt lat="41.88332089743941" lon="13.744798932322912"><ele>1390.0</ele><time>2026-04-18T12:15:57Z</time></trkpt><trkpt lat="41.883087072506044" lon="13.744781834687013"><ele>1387.0</ele><time>2026-04-18T12:15:58Z</time></trkpt><trkpt lat="41.88287370497606" lon="13.744773071588403"><ele>1384.0</ele><time>2026-04-18T12:15:59Z</time></trkpt><trkpt lat="41.88270560797048" lon="13.744784332626967"><ele>1383.6666666666665</ele><time>2026-04-18T12:16:00Z</time></trkpt><trkpt lat="41.88255876665571" lon="13.744823990339274"><ele>1383.3333333333333</ele><time>2026-04-18T12:16:01Z</time></trkpt><trkpt lat="41.88241346375018" lon="13.74493049966627"><ele>1383.0</ele><time>2026-04-18T12:16:02Z</time></trkpt><trkpt lat="41.8822801698742" lon="13.745109414010269"><ele>1387.0</ele><time>2026-04-18T12:16:03Z</time></trkpt><trkpt lat="41.882153871243354" lon="13.745309883182292"><ele>1391.0</ele><time>2026-04-18T12:16:04Z</time></trkpt><trkpt lat="41.88203519225989" lon="13.74545249591644"><ele>1395.0</ele><time>2026-04-18T12:16:05Z</time></trkpt><trkpt lat="41.881885853563006" lon="13.745529044805341"><ele>1393.3333333333333</ele><time>2026-04-18T12:16:06Z</time></trkpt><trkpt lat="41.881682565615364" lon="13.745535692738388"><ele>1391.6666666666665</ele><time>2026-04-18T12:16:07Z</time></trkpt><trkpt lat="41.88146124969096" lon="13.745540928178059"><ele>1390.0</ele><time>2026-04-18T12:16:08Z</time></trkpt><trkpt lat="41.88122989398921" lon="13.745618609900038"><ele>1390.0</ele><time>2026-04-18T12:16:09Z</time></trkpt><trkpt lat="41.88100456751207" lon="13.745732358492738"><ele>1390.0</ele><time>2026-04-18T12:16:10Z</time></trkpt><trkpt lat="41.88078769017721" lon="13.745835783974252"><ele>1389.6666666666665</ele><time>2026-04-18T12:16:11Z</time></trkpt><trkpt lat="41.880594270190024" lon="13.745913773422844"><ele>1389.3333333333333</ele><time>2026-04-18T12:16:12Z</time></trkpt><trkpt lat="41.88041058852888" lon="13.74594739325767"><ele>1389.0</ele><time>2026-04-18T12:16:13Z</time></trkpt><trkpt lat="41.88023785035373" lon="13.745933648583787"><ele>1388.6666666666667</ele><time>2026-04-18T12:16:14Z</time></trkpt><trkpt lat="41.880063469513146" lon="13.745895837988952"><ele>1388.3333333333335</ele><time>2026-04-18T12:16:15Z</time></trkpt><trkpt lat="41.879875566896295" lon="13.745903962516472"><ele>1388.0</ele><time>2026-04-18T12:16:16Z</time></trkpt><trkpt lat="41.8796966924736" lon="13.746004400740981"><ele>1390.6666666666667</ele><time>2026-04-18T12:16:17Z</time></trkpt><trkpt lat="41.87952219442558" lon="13.746170680434664"><ele>1393.3333333333333</ele><time>2026-04-18T12:16:18Z</time></trkpt><trkpt lat="41.87934276203424" lon="13.74636007842594"><ele>1396.0</ele><time>2026-04-18T12:16:19Z</time></trkpt><trkpt lat="41.87917951697992" lon="13.746502999462441"><ele>1396.0</ele><time>2026-04-18T12:16:20Z</time></trkpt><trkpt lat="41.879021349393234" lon="13.746615118767382"><ele>1396.0</ele><time>2026-04-18T12:16:21Z</time></trkpt><trkpt lat="41.87883893462478" lon="13.746679732663829"><ele>1396.0</ele><time>2026-04-18T12:16:22Z</time></trkpt><trkpt lat="41.87863887701927" lon="13.746689470840089"><ele>1396.0</ele><time>2026-04-18T12:16:23Z</time></trkpt><trkpt lat="41.87844735357073" lon="13.746692196688544"><ele>1396.0</ele><time>2026-04-18T12:16:24Z</time></trkpt><trkpt lat="41.87827097640182" lon="13.746756682229721"><ele>1396.0</ele><time>2026-04-18T12:16:25Z</time></trkpt><trkpt lat="41.87810256461004" lon="13.746870428296502"><ele>1395.3333333333333</ele><time>2026-04-18T12:16:26Z</time></trkpt><trkpt lat="41.877956071329656" lon="13.74694206022599"><ele>1394.6666666666667</ele><time>2026-04-18T12:16:27Z</time></trkpt><trkpt lat="41.87780045732927" lon="13.746947800626442"><ele>1394.0</ele><time>2026-04-18T12:16:28Z</time></trkpt><trkpt lat="41.87762209854648" lon="13.746863226963983"><ele>1396.0</ele><time>2026-04-18T12:16:29Z</time></trkpt><trkpt lat="41.87743064234714" lon="13.746720347653532"><ele>1398.0</ele><time>2026-04-18T12:16:30Z</time></trkpt><trkpt lat="41.87722175864845" lon="13.746556641824984"><ele>1398.0</ele><time>2026-04-18T12:16:31Z</time></trkpt><trkpt lat="41.87701081462586" lon="13.746417117686825"><ele>1398.0</ele><time>2026-04-18T12:16:32Z</time></trkpt><trkpt lat="41.87684763940666" lon="13.74627553201557"><ele>1398.0</ele><time>2026-04-18T12:16:33Z</time></trkpt><trkpt lat="41.8767217842322" lon="13.746146279669045"><ele>1398.6666666666667</ele><time>2026-04-18T12:16:34Z</time></trkpt><trkpt lat="41.87655910746437" lon="13.746057963705761"><ele>1399.3333333333335</ele><time>2026-04-18T12:16:35Z</time></trkpt><trkpt lat="41.87637746237429" lon="13.74604425795371"><ele>1400.0</ele><time>2026-04-18T12:16:36Z</time></trkpt><trkpt lat="41.876168252249954" lon="13.746048307652757"><ele>1400.0</ele><time>2026-04-18T12:16:37Z</time></trkpt><trkpt lat="41.875954348296595" lon="13.746044893148214"><ele>1400.0</ele><time>2026-04-18T12:16:38Z</time></trkpt><trkpt lat="41.87575933895135" lon="13.7460982388987"><ele>1400.0</ele><time>2026-04-18T12:16:39Z</time></trkpt><trkpt lat="41.875539860213685" lon="13.746203433867567"><ele>1402.5</ele><time>2026-04-18T12:16:40Z</time></trkpt><trkpt lat="41.87531380097142" lon="13.746320093452281"><ele>1405.0</ele><time>2026-04-18T12:16:41Z</time></trkpt><trkpt lat="41.87508820582975" lon="13.746435526706296"><ele>1399.5</ele><time>2026-04-18T12:16:42Z</time></trkpt><trkpt lat="41.874857156867705" lon="13.746546024977498"><ele>1394.0</ele><time>2026-04-18T12:16:43Z</time></trkpt><trkpt lat="41.87463123327965" lon="13.746672088133382"><ele>1394.0</ele><time>2026-04-18T12:16:44Z</time></trkpt><trkpt lat="41.87440149578756" lon="13.746798982690235"><ele>1394.0</ele><time>2026-04-18T12:16:45Z</time></trkpt><trkpt lat="41.874168666990755" lon="13.746924829774535"><ele>1392.0</ele><time>2026-04-18T12:16:46Z</time></trkpt><trkpt lat="41.87393495129703" lon="13.747054556575925"><ele>1390.0</ele><time>2026-04-18T12:16:47Z</time></trkpt><trkpt lat="41.87370794662518" lon="13.747181152656879"><ele>1390.0</ele><time>2026-04-18T12:16:48Z</time></trkpt><trkpt lat="41.87350301694881" lon="13.747302119485468"><ele>1390.0</ele><time>2026-04-18T12:16:49Z</time></trkpt><trkpt lat="41.873307707550595" lon="13.747402945524861"><ele>1390.0</ele><time>2026-04-18T12:16:50Z</time></trkpt><trkpt lat="41.87311775613762" lon="13.747460814004151"><ele>1387.6666666666665</ele><time>2026-04-18T12:16:51Z</time></trkpt><trkpt lat="41.87294963681283" lon="13.747497272802685"><ele>1385.3333333333333</ele><time>2026-04-18T12:16:52Z</time></trkpt><trkpt lat="41.872795389678274" lon="13.747535499878417"><ele>1383.0</ele><time>2026-04-18T12:16:53Z</time></trkpt><trkpt lat="41.87266454442962" lon="13.747582128117628"><ele>1381.6666666666667</ele><time>2026-04-18T12:16:54Z</time></trkpt><trkpt lat="41.87254676951182" lon="13.747665471092434"><ele>1380.3333333333335</ele><time>2026-04-18T12:16:55Z</time></trkpt><trkpt lat="41.87245077454874" lon="13.747809706055188"><ele>1379.0</ele><time>2026-04-18T12:16:56Z</time></trkpt><trkpt lat="41.87238310281301" lon="13.748026597813565"><ele>1379.0</ele><time>2026-04-18T12:16:57Z</time></trkpt><trkpt lat="41.87231921369212" lon="13.74826779287401"><ele>1379.0</ele><time>2026-04-18T12:16:58Z</time></trkpt><trkpt lat="41.87221203879829" lon="13.74844456312928"><ele>1379.0</ele><time>2026-04-18T12:16:59Z</time></trkpt><trkpt lat="41.87207109410068" lon="13.748586388465368"><ele>1376.6666666666667</ele><time>2026-04-18T12:17:00Z</time></trkpt><trkpt lat="41.87192597377488" lon="13.748723895252416"><ele>1374.3333333333333</ele><time>2026-04-18T12:17:01Z</time></trkpt><trkpt lat="41.87181678187986" lon="13.748922320639306"><ele>1372.0</ele><time>2026-04-18T12:17:02Z</time></trkpt><trkpt lat="41.87173407592422" lon="13.7491772149181"><ele>1374.0</ele><time>2026-04-18T12:17:03Z</time></trkpt><trkpt lat="41.87164712751238" lon="13.7494524279544"><ele>1376.0</ele><time>2026-04-18T12:17:04Z</time></trkpt><trkpt lat="41.871552725633094" lon="13.749688279923607"><ele>1378.0</ele><time>2026-04-18T12:17:05Z</time></trkpt><trkpt lat="41.87141882831221" lon="13.749894902177381"><ele>1378.0</ele><time>2026-04-18T12:17:06Z</time></trkpt><trkpt lat="41.87123295285669" lon="13.750069716199484"><ele>1378.0</ele><time>2026-04-18T12:17:07Z</time></trkpt><trkpt lat="41.87099922155117" lon="13.750223086337831"><ele>1375.5</ele><time>2026-04-18T12:17:08Z</time></trkpt><trkpt lat="41.87073653024512" lon="13.750403990687358"><ele>1373.0</ele><time>2026-04-18T12:17:09Z</time></trkpt><trkpt lat="41.87046514596309" lon="13.750615940847355"><ele>1373.0</ele><time>2026-04-18T12:17:10Z</time></trkpt><trkpt lat="41.87017270226093" lon="13.75083327601505"><ele>1373.0</ele><time>2026-04-18T12:17:11Z</time></trkpt><trkpt lat="41.8699071722939" lon="13.751021142663575"><ele>1369.5</ele><time>2026-04-18T12:17:12Z</time></trkpt><trkpt lat="41.869661950042115" lon="13.751195618535796"><ele>1366.0</ele><time>2026-04-18T12:17:13Z</time></trkpt><trkpt lat="41.869442752225766" lon="13.751359518294466"><ele>1361.0</ele><time>2026-04-18T12:17:14Z</time></trkpt><trkpt lat="41.8692327730497" lon="13.751511023510005"><ele>1356.0</ele><time>2026-04-18T12:17:15Z</time></trkpt><trkpt lat="41.86902676213723" lon="13.751664566133003"><ele>1356.0</ele><time>2026-04-18T12:17:16Z</time></trkpt><trkpt lat="41.86881855501139" lon="13.751843966823445"><ele>1356.0</ele><time>2026-04-18T12:17:17Z</time></trkpt><trkpt lat="41.86861578141236" lon="13.752074714370266"><ele>1353.5</ele><time>2026-04-18T12:17:18Z</time></trkpt><trkpt lat="41.86840907295441" lon="13.75232878042575"><ele>1351.0</ele><time>2026-04-18T12:17:19Z</time></trkpt><trkpt lat="41.86819805330725" lon="13.752580578333017"><ele>1355.0</ele><time>2026-04-18T12:17:20Z</time></trkpt><trkpt lat="41.86798391741058" lon="13.752828796473537"><ele>1359.0</ele><time>2026-04-18T12:17:21Z</time></trkpt><trkpt lat="41.8677799772781" lon="13.753064743950658"><ele>1354.0</ele><time>2026-04-18T12:17:22Z</time></trkpt><trkpt lat="41.86758813588383" lon="13.75328520223954"><ele>1349.0</ele><time>2026-04-18T12:17:23Z</time></trkpt><trkpt lat="41.86741815404718" lon="13.753482064205137"><ele>1350.3333333333335</ele><time>2026-04-18T12:17:24Z</time></trkpt><trkpt lat="41.867267112747946" lon="13.753691043550198"><ele>1351.6666666666667</ele><time>2026-04-18T12:17:25Z</time></trkpt><trkpt lat="41.86713183554888" lon="13.753940986300297"><ele>1353.0</ele><time>2026-04-18T12:17:26Z</time></trkpt><trkpt lat="41.86702048211145" lon="13.754223296089135"><ele>1355.5</ele><time>2026-04-18T12:17:27Z</time></trkpt><trkpt lat="41.86690586780617" lon="13.75450791867939"><ele>1358.0</ele><time>2026-04-18T12:17:28Z</time></trkpt><trkpt lat="41.866761523362854" lon="13.754742257587667"><ele>1354.0</ele><time>2026-04-18T12:17:29Z</time></trkpt><trkpt lat="41.866597269284746" lon="13.754940599683689"><ele>1350.0</ele><time>2026-04-18T12:17:30Z</time></trkpt><trkpt lat="41.866414383601885" lon="13.755104014612202"><ele>1346.0</ele><time>2026-04-18T12:17:31Z</time></trkpt><trkpt lat="41.866254204444054" lon="13.755283643222151"><ele>1346.0</ele><time>2026-04-18T12:17:32Z</time></trkpt><trkpt lat="41.86611705425974" lon="13.755485474890953"><ele>1346.0</ele><time>2026-04-18T12:17:33Z</time></trkpt><trkpt lat="41.86599573687907" lon="13.755744345808218"><ele>1346.0</ele><time>2026-04-18T12:17:34Z</time></trkpt><trkpt lat="41.86587337043621" lon="13.756051209804696"><ele>1337.5</ele><time>2026-04-18T12:17:35Z</time></trkpt><trkpt lat="41.865757831978684" lon="13.75634808659457"><ele>1329.0</ele><time>2026-04-18T12:17:36Z</time></trkpt><trkpt lat="41.865647205525484" lon="13.756608617122222"><ele>1329.0</ele><time>2026-04-18T12:17:37Z</time></trkpt><trkpt lat="41.86554696870834" lon="13.756834220348567"><ele>1329.0</ele><time>2026-04-18T12:17:38Z</time></trkpt><trkpt lat="41.86543431670783" lon="13.757031759268111"><ele>1329.0</ele><time>2026-04-18T12:17:39Z</time></trkpt><trkpt lat="41.865305844223585" lon="13.757195619409957"><ele>1329.6666666666667</ele><time>2026-04-18T12:17:40Z</time></trkpt><trkpt lat="41.865191677359896" lon="13.757386513224281"><ele>1330.3333333333335</ele><time>2026-04-18T12:17:41Z</time></trkpt><trkpt lat="41.86510296070301" lon="13.757562488839893"><ele>1331.0</ele><time>2026-04-18T12:17:42Z</time></trkpt><trkpt lat="41.86503718053355" lon="13.757728167677312"><ele>1327.3333333333335</ele><time>2026-04-18T12:17:43Z</time></trkpt><trkpt lat="41.86501245674966" lon="13.757920593670718"><ele>1323.6666666666667</ele><time>2026-04-18T12:17:44Z</time></trkpt><trkpt lat="41.86503802480345" lon="13.758133912675447"><ele>1320.0</ele><time>2026-04-18T12:17:45Z</time></trkpt><trkpt lat="41.865103005204986" lon="13.758363657558789"><ele>1326.0</ele><time>2026-04-18T12:17:46Z</time></trkpt><trkpt lat="41.86515417487833" lon="13.758578404840488"><ele>1332.0</ele><time>2026-04-18T12:17:47Z</time></trkpt><trkpt lat="41.86517618053318" lon="13.758781651128213"><ele>1338.0</ele><time>2026-04-18T12:17:48Z</time></trkpt><trkpt lat="41.86515701385176" lon="13.759001487933624"><ele>1331.3333333333333</ele><time>2026-04-18T12:17:49Z</time></trkpt><trkpt lat="41.865092309662806" lon="13.75922489230664"><ele>1324.6666666666665</ele><time>2026-04-18T12:17:50Z</time></trkpt><trkpt lat="41.86499293881033" lon="13.759401326255878"><ele>1318.0</ele><time>2026-04-18T12:17:51Z</time></trkpt><trkpt lat="41.86486295259135" lon="13.759528878356418"><ele>1318.0</ele><time>2026-04-18T12:17:52Z</time></trkpt><trkpt lat="41.864724691243985" lon="13.759616281839385"><ele>1318.0</ele><time>2026-04-18T12:17:53Z</time></trkpt><trkpt lat="41.86461987377852" lon="13.759691206144133"><ele>1318.0</ele><time>2026-04-18T12:17:54Z</time></trkpt><trkpt lat="41.864561731640876" lon="13.759799632938797"><ele>1318.0</ele><time>2026-04-18T12:17:55Z</time></trkpt><trkpt lat="41.86454361015535" lon="13.75996384476811"><ele>1318.0</ele><time>2026-04-18T12:17:56Z</time></trkpt><trkpt lat="41.86454043319857" lon="13.760175636345853"><ele>1318.0</ele><time>2026-04-18T12:17:57Z</time></trkpt><trkpt lat="41.86449354539787" lon="13.760383161386914"><ele>1318.0</ele><time>2026-04-18T12:17:58Z</time></trkpt><trkpt lat="41.86441024712228" lon="13.760565757326898"><ele>1318.5</ele><time>2026-04-18T12:17:59Z</time></trkpt><trkpt lat="41.864308378270614" lon="13.7607038128767"><ele>1319.0</ele><time>2026-04-18T12:18:00Z</time></trkpt><trkpt lat="41.86423204025964" lon="13.760858627397557"><ele>1319.5</ele><time>2026-04-18T12:18:01Z</time></trkpt><trkpt lat="41.86421403038118" lon="13.761024727358684"><ele>1320.0</ele><time>2026-04-18T12:18:02Z</time></trkpt><trkpt lat="41.86423795594046" lon="13.761199820810706"><ele>1314.6666666666667</ele><time>2026-04-18T12:18:03Z</time></trkpt><trkpt lat="41.86426585256735" lon="13.761396650616069"><ele>1309.3333333333335</ele><time>2026-04-18T12:18:04Z</time></trkpt><trkpt lat="41.86423379681626" lon="13.761620076479232"><ele>1304.0</ele><time>2026-04-18T12:18:05Z</time></trkpt><trkpt lat="41.86417123117325" lon="13.761852856881067"><ele>1305.0</ele><time>2026-04-18T12:18:06Z</time></trkpt><trkpt lat="41.86409161860813" lon="13.76207181841172"><ele>1306.0</ele><time>2026-04-18T12:18:07Z</time></trkpt><trkpt lat="41.864009058738695" lon="13.7623101613133"><ele>1307.0</ele><time>2026-04-18T12:18:08Z</time></trkpt><trkpt lat="41.86392327197857" lon="13.762557235191565"><ele>1306.6666666666667</ele><time>2026-04-18T12:18:09Z</time></trkpt><trkpt lat="41.8638487567607" lon="13.762799780421604"><ele>1306.3333333333333</ele><time>2026-04-18T12:18:10Z</time></trkpt><trkpt lat="41.863801377706054" lon="13.763049820039743"><ele>1306.0</ele><time>2026-04-18T12:18:11Z</time></trkpt><trkpt lat="41.8637966120838" lon="13.76332232117941"><ele>1307.3333333333333</ele><time>2026-04-18T12:18:12Z</time></trkpt><trkpt lat="41.86382991758116" lon="13.763609315189676"><ele>1308.6666666666667</ele><time>2026-04-18T12:18:13Z</time></trkpt><trkpt lat="41.863859156648104" lon="13.763896145436702"><ele>1310.0</ele><time>2026-04-18T12:18:14Z</time></trkpt><trkpt lat="41.8638714805756" lon="13.764153636890898"><ele>1311.6666666666667</ele><time>2026-04-18T12:18:15Z</time></trkpt><trkpt lat="41.863851837865596" lon="13.764393056073153"><ele>1313.3333333333333</ele><time>2026-04-18T12:18:16Z</time></trkpt><trkpt lat="41.86379226773162" lon="13.76463919225294"><ele>1315.0</ele><time>2026-04-18T12:18:17Z</time></trkpt><trkpt lat="41.86370881309578" lon="13.764900312053138"><ele>1315.0</ele><time>2026-04-18T12:18:18Z</time></trkpt><trkpt lat="41.863631390300164" lon="13.765168198660936"><ele>1315.0</ele><time>2026-04-18T12:18:19Z</time></trkpt><trkpt lat="41.86354107615167" lon="13.765415108597814"><ele>1315.0</ele><time>2026-04-18T12:18:20Z</time></trkpt><trkpt lat="41.86340862589391" lon="13.765645592589266"><ele>1309.0</ele><time>2026-04-18T12:18:21Z</time></trkpt><trkpt lat="41.863275955420036" lon="13.765848094714862"><ele>1303.0</ele><time>2026-04-18T12:18:22Z</time></trkpt><trkpt lat="41.863167794273785" lon="13.76600840706139"><ele>1297.0</ele><time>2026-04-18T12:18:23Z</time></trkpt><trkpt lat="41.86304348232393" lon="13.766127858071323"><ele>1297.0</ele><time>2026-04-18T12:18:24Z</time></trkpt><trkpt lat="41.862877790587284" lon="13.766198730127632"><ele>1297.0</ele><time>2026-04-18T12:18:25Z</time></trkpt><trkpt lat="41.862712598745894" lon="13.766344183652608"><ele>1297.0</ele><time>2026-04-18T12:18:26Z</time></trkpt><trkpt lat="41.86258422659228" lon="13.76655385183036"><ele>1294.0</ele><time>2026-04-18T12:18:27Z</time></trkpt><trkpt lat="41.86250222219525" lon="13.766791789744648"><ele>1291.0</ele><time>2026-04-18T12:18:28Z</time></trkpt><trkpt lat="41.86239513571411" lon="13.766981704610615"><ele>1288.0</ele><time>2026-04-18T12:18:29Z</time></trkpt><trkpt lat="41.862264117446735" lon="13.7671370619631"><ele>1288.0</ele><time>2026-04-18T12:18:30Z</time></trkpt><trkpt lat="41.86213044552194" lon="13.767269864966757"><ele>1288.0</ele><time>2026-04-18T12:18:31Z</time></trkpt><trkpt lat="41.86202053686797" lon="13.767407276634257"><ele>1288.0</ele><time>2026-04-18T12:18:32Z</time></trkpt><trkpt lat="41.86192368724695" lon="13.767620377917565"><ele>1291.6666666666665</ele><time>2026-04-18T12:18:33Z</time></trkpt><trkpt lat="41.8618454462396" lon="13.767877257595948"><ele>1295.3333333333333</ele><time>2026-04-18T12:18:34Z</time></trkpt><trkpt lat="41.86179738038699" lon="13.76811065134105"><ele>1299.0</ele><time>2026-04-18T12:18:35Z</time></trkpt><trkpt lat="41.861743433700994" lon="13.768325982543644"><ele>1295.3333333333333</ele><time>2026-04-18T12:18:36Z</time></trkpt><trkpt lat="41.861665176236826" lon="13.768517388036557"><ele>1291.6666666666665</ele><time>2026-04-18T12:18:37Z</time></trkpt><trkpt lat="41.86155311550496" lon="13.768695240604359"><ele>1288.0</ele><time>2026-04-18T12:18:38Z</time></trkpt><trkpt lat="41.86143073271073" lon="13.768868479242808"><ele>1288.0</ele><time>2026-04-18T12:18:39Z</time></trkpt><trkpt lat="41.86130860743731" lon="13.769025362470973"><ele>1288.0</ele><time>2026-04-18T12:18:40Z</time></trkpt><trkpt lat="41.86120522006376" lon="13.769157198165086"><ele>1288.0</ele><time>2026-04-18T12:18:41Z</time></trkpt><trkpt lat="41.861102123004315" lon="13.769250594411073"><ele>1288.0</ele><time>2026-04-18T12:18:42Z</time></trkpt><trkpt lat="41.860980003916346" lon="13.769294773993792"><ele>1283.0</ele><time>2026-04-18T12:18:43Z</time></trkpt><trkpt lat="41.86083490711037" lon="13.769279079837824"><ele>1278.0</ele><time>2026-04-18T12:18:44Z</time></trkpt><trkpt lat="41.860679087759884" lon="13.769252791879657"><ele>1273.0</ele><time>2026-04-18T12:18:45Z</time></trkpt><trkpt lat="41.860558350984896" lon="13.769244781664016"><ele>1268.0</ele><time>2026-04-18T12:18:46Z</time></trkpt><trkpt lat="41.86044467578943" lon="13.769257631217032"><ele>1268.0</ele><time>2026-04-18T12:18:47Z</time></trkpt><trkpt lat="41.860344425430654" lon="13.769298641160448"><ele>1268.0</ele><time>2026-04-18T12:18:48Z</time></trkpt><trkpt lat="41.860257661283626" lon="13.7693645464058"><ele>1268.0</ele><time>2026-04-18T12:18:49Z</time></trkpt><trkpt lat="41.860169179882554" lon="13.76952286292679"><ele>1268.0</ele><time>2026-04-18T12:18:50Z</time></trkpt><trkpt lat="41.86009476153431" lon="13.769799908658815"><ele>1268.6666666666667</ele><time>2026-04-18T12:18:51Z</time></trkpt><trkpt lat="41.85999428077685" lon="13.77003559719076"><ele>1269.3333333333333</ele><time>2026-04-18T12:18:52Z</time></trkpt><trkpt lat="41.85989088508316" lon="13.770237845061166"><ele>1270.0</ele><time>2026-04-18T12:18:53Z</time></trkpt><trkpt lat="41.859728888990084" lon="13.770428163198403"><ele>1270.0</ele><time>2026-04-18T12:18:54Z</time></trkpt><trkpt lat="41.85954361919215" lon="13.77060777946348"><ele>1270.0</ele><time>2026-04-18T12:18:55Z</time></trkpt><trkpt lat="41.859354033294636" lon="13.770793613240315"><ele>1266.0</ele><time>2026-04-18T12:18:56Z</time></trkpt><trkpt lat="41.859189414370576" lon="13.771011719392474"><ele>1262.0</ele><time>2026-04-18T12:18:57Z</time></trkpt><trkpt lat="41.85905447765861" lon="13.771222584704262"><ele>1258.0</ele><time>2026-04-18T12:18:58Z</time></trkpt><trkpt lat="41.858947071642206" lon="13.771405197087018"><ele>1258.0</ele><time>2026-04-18T12:18:59Z</time></trkpt><trkpt lat="41.858850850688405" lon="13.771548289040458"><ele>1258.0</ele><time>2026-04-18T12:19:00Z</time></trkpt><trkpt lat="41.858758493742975" lon="13.771662218821332"><ele>1258.0</ele><time>2026-04-18T12:19:01Z</time></trkpt><trkpt lat="41.85866827686571" lon="13.771734247133148"><ele>1258.0</ele><time>2026-04-18T12:19:02Z</time></trkpt><trkpt lat="41.858558017981224" lon="13.771755717114347"><ele>1255.6666666666665</ele><time>2026-04-18T12:19:03Z</time></trkpt><trkpt lat="41.858410872071936" lon="13.771755859799184"><ele>1253.3333333333333</ele><time>2026-04-18T12:19:04Z</time></trkpt><trkpt lat="41.85824609276724" lon="13.77166879746678"><ele>1251.0</ele><time>2026-04-18T12:19:05Z</time></trkpt><trkpt lat="41.858062081770655" lon="13.771570139715905"><ele>1251.0</ele><time>2026-04-18T12:19:06Z</time></trkpt><trkpt lat="41.85788880463686" lon="13.771500191690226"><ele>1251.0</ele><time>2026-04-18T12:19:07Z</time></trkpt><trkpt lat="41.85770337574826" lon="13.77149411259949"><ele>1251.0</ele><time>2026-04-18T12:19:08Z</time></trkpt><trkpt lat="41.85750323942415" lon="13.77156448848178"><ele>1250.0</ele><time>2026-04-18T12:19:09Z</time></trkpt><trkpt lat="41.85730755671086" lon="13.77167250032715"><ele>1249.0</ele><time>2026-04-18T12:19:10Z</time></trkpt><trkpt lat="41.857147428813576" lon="13.771809083766357"><ele>1248.0</ele><time>2026-04-18T12:19:11Z</time></trkpt><trkpt lat="41.8569976702003" lon="13.772003002814335"><ele>1248.6666666666667</ele><time>2026-04-18T12:19:12Z</time></trkpt><trkpt lat="41.85684772880929" lon="13.772229989544075"><ele>1249.3333333333335</ele><time>2026-04-18T12:19:13Z</time></trkpt><trkpt lat="41.856693964578824" lon="13.772434972764033"><ele>1250.0</ele><time>2026-04-18T12:19:14Z</time></trkpt><trkpt lat="41.85654616220717" lon="13.772575669609806"><ele>1250.0</ele><time>2026-04-18T12:19:15Z</time></trkpt><trkpt lat="41.85641082535523" lon="13.772641949641228"><ele>1250.0</ele><time>2026-04-18T12:19:16Z</time></trkpt><trkpt lat="41.85628917919306" lon="13.772668429473004"><ele>1250.0</ele><time>2026-04-18T12:19:17Z</time></trkpt><trkpt lat="41.85615117625305" lon="13.772636085087358"><ele>1250.0</ele><time>2026-04-18T12:19:18Z</time></trkpt><trkpt lat="41.855999523817275" lon="13.772559564611138"><ele>1247.3333333333335</ele><time>2026-04-18T12:19:19Z</time></trkpt><trkpt lat="41.855865602515905" lon="13.772510154767218"><ele>1244.6666666666667</ele><time>2026-04-18T12:19:20Z</time></trkpt><trkpt lat="41.85573432401192" lon="13.772561120729812"><ele>1242.0</ele><time>2026-04-18T12:19:21Z</time></trkpt><trkpt lat="41.855579290429056" lon="13.772711788507237"><ele>1252.0</ele><time>2026-04-18T12:19:22Z</time></trkpt><trkpt lat="41.85539598398872" lon="13.77290180300956"><ele>1262.0</ele><time>2026-04-18T12:19:23Z</time></trkpt><trkpt lat="41.8551912605933" lon="13.773077313412266"><ele>1255.6666666666667</ele><time>2026-04-18T12:19:24Z</time></trkpt><trkpt lat="41.85501306021038" lon="13.77321401335287"><ele>1249.3333333333333</ele><time>2026-04-18T12:19:25Z</time></trkpt><trkpt lat="41.85484504655827" lon="13.773349295928947"><ele>1243.0</ele><time>2026-04-18T12:19:26Z</time></trkpt><trkpt lat="41.85469330886344" lon="13.773478930552569"><ele>1242.6666666666665</ele><time>2026-04-18T12:19:27Z</time></trkpt><trkpt lat="41.85454932877034" lon="13.773596465203191"><ele>1242.3333333333333</ele><time>2026-04-18T12:19:28Z</time></trkpt><trkpt lat="41.854399989587336" lon="13.773702363124167"><ele>1242.0</ele><time>2026-04-18T12:19:29Z</time></trkpt><trkpt lat="41.854240452256896" lon="13.773814708612031"><ele>1242.0</ele><time>2026-04-18T12:19:30Z</time></trkpt><trkpt lat="41.854093121047086" lon="13.773948009033377"><ele>1242.0</ele><time>2026-04-18T12:19:31Z</time></trkpt><trkpt lat="41.853958759640726" lon="13.774106326968754"><ele>1242.0</ele><time>2026-04-18T12:19:32Z</time></trkpt><trkpt lat="41.85384037787911" lon="13.774297240680436"><ele>1248.0</ele><time>2026-04-18T12:19:33Z</time></trkpt><trkpt lat="41.8537278388573" lon="13.774508906142797"><ele>1254.0</ele><time>2026-04-18T12:19:34Z</time></trkpt><trkpt lat="41.85361402242196" lon="13.774707380951536"><ele>1260.0</ele><time>2026-04-18T12:19:35Z</time></trkpt><trkpt lat="41.85345715237019" lon="13.774897272271682"><ele>1257.3333333333333</ele><time>2026-04-18T12:19:36Z</time></trkpt><trkpt lat="41.85329589671401" lon="13.775064104323599"><ele>1254.6666666666665</ele><time>2026-04-18T12:19:37Z</time></trkpt><trkpt lat="41.853117804082395" lon="13.775216955463586"><ele>1252.0</ele><time>2026-04-18T12:19:38Z</time></trkpt><trkpt lat="41.852950222032796" lon="13.775362829931202"><ele>1252.0</ele><time>2026-04-18T12:19:39Z</time></trkpt><trkpt lat="41.85278675096405" lon="13.775530075139455"><ele>1252.0</ele><time>2026-04-18T12:19:40Z</time></trkpt><trkpt lat="41.8526351728357" lon="13.775729279022187"><ele>1252.0</ele><time>2026-04-18T12:19:41Z</time></trkpt><trkpt lat="41.85250577774004" lon="13.775954168538448"><ele>1247.3333333333333</ele><time>2026-04-18T12:19:42Z</time></trkpt><trkpt lat="41.85240734471659" lon="13.776208869652873"><ele>1242.6666666666667</ele><time>2026-04-18T12:19:43Z</time></trkpt><trkpt lat="41.85233809486999" lon="13.776464010064933"><ele>1238.0</ele><time>2026-04-18T12:19:44Z</time></trkpt><trkpt lat="41.85227784980519" lon="13.776664790127429"><ele>1238.0</ele><time>2026-04-18T12:19:45Z</time></trkpt><trkpt lat="41.852217503539435" lon="13.776834480569443"><ele>1238.0</ele><time>2026-04-18T12:19:46Z</time></trkpt><trkpt lat="41.85211850792581" lon="13.776965567134733"><ele>1238.0</ele><time>2026-04-18T12:19:47Z</time></trkpt><trkpt lat="41.85197744064402" lon="13.777088108064785"><ele>1238.0</ele><time>2026-04-18T12:19:48Z</time></trkpt><trkpt lat="41.85183270832974" lon="13.777180034811968"><ele>1235.4</ele><time>2026-04-18T12:19:49Z</time></trkpt><trkpt lat="41.85171200171043" lon="13.777243855254762"><ele>1232.8</ele><time>2026-04-18T12:19:50Z</time></trkpt><trkpt lat="41.851622370257196" lon="13.77729648323535"><ele>1230.2</ele><time>2026-04-18T12:19:51Z</time></trkpt><trkpt lat="41.85154496823331" lon="13.777340472192774"><ele>1227.6</ele><time>2026-04-18T12:19:52Z</time></trkpt><trkpt lat="41.851466137527424" lon="13.777392572175055"><ele>1225.0</ele><time>2026-04-18T12:19:54Z</time></trkpt><trkpt lat="41.851381102119625" lon="13.777468514616073"><ele>1225.0</ele><time>2026-04-18T12:20:24Z</time></trkpt><trkpt lat="41.851271923254274" lon="13.777545726323465"><ele>1225.0</ele><time>2026-04-18T12:20:26Z</time></trkpt><trkpt lat="41.85120143642223" lon="13.777590755758286"><ele>1225.0</ele><time>2026-04-18T12:20:27Z</time></trkpt><trkpt lat="41.85112183198821" lon="13.77764319470669"><ele>1225.0</ele><time>2026-04-18T12:20:28Z</time></trkpt><trkpt lat="41.85102797279316" lon="13.777702378698658"><ele>1225.0</ele><time>2026-04-18T12:20:29Z</time></trkpt><trkpt lat="41.850919598166335" lon="13.777772370725911"><ele>1224.25</ele><time>2026-04-18T12:20:30Z</time></trkpt><trkpt lat="41.85079415314829" lon="13.777850808600205"><ele>1223.5</ele><time>2026-04-18T12:20:31Z</time></trkpt><trkpt lat="41.850664660985096" lon="13.777933980946653"><ele>1222.75</ele><time>2026-04-18T12:20:32Z</time></trkpt><trkpt lat="41.85053061793418" lon="13.778017797209506"><ele>1222.0</ele><time>2026-04-18T12:20:33Z</time></trkpt><trkpt lat="41.85039292055855" lon="13.778113455169994"><ele>1222.0</ele><time>2026-04-18T12:20:34Z</time></trkpt><trkpt lat="41.85024546246709" lon="13.77820354653469"><ele>1222.0</ele><time>2026-04-18T12:20:35Z</time></trkpt><trkpt lat="41.85008972634007" lon="13.778298778083748"><ele>1222.0</ele><time>2026-04-18T12:20:36Z</time></trkpt><trkpt lat="41.84993066994472" lon="13.778399040762949"><ele>1222.6666666666665</ele><time>2026-04-18T12:20:37Z</time></trkpt><trkpt lat="41.849769088785024" lon="13.778513767469853"><ele>1223.3333333333333</ele><time>2026-04-18T12:20:38Z</time></trkpt><trkpt lat="41.84961769301144" lon="13.778651072905133"><ele>1224.0</ele><time>2026-04-18T12:20:39Z</time></trkpt><trkpt lat="41.84947871735798" lon="13.778809708987323"><ele>1224.6666666666667</ele><time>2026-04-18T12:20:40Z</time></trkpt><trkpt lat="41.849359991613014" lon="13.778966295876726"><ele>1225.3333333333335</ele><time>2026-04-18T12:20:41Z</time></trkpt><trkpt lat="41.84925214954103" lon="13.779116507449526"><ele>1226.0</ele><time>2026-04-18T12:20:42Z</time></trkpt><trkpt lat="41.84914481570605" lon="13.779247414139121"><ele>1224.0</ele><time>2026-04-18T12:20:43Z</time></trkpt><trkpt lat="41.849044734313345" lon="13.779370741569021"><ele>1222.0</ele><time>2026-04-18T12:20:44Z</time></trkpt><trkpt lat="41.8489481062067" lon="13.779482132839867"><ele>1220.0</ele><time>2026-04-18T12:20:45Z</time></trkpt><trkpt lat="41.84884174941731" lon="13.77958285763087"><ele>1218.0</ele><time>2026-04-18T12:20:46Z</time></trkpt><trkpt lat="41.84872339404817" lon="13.779674027537764"><ele>1218.0</ele><time>2026-04-18T12:20:47Z</time></trkpt><trkpt lat="41.84859480521609" lon="13.779755481828493"><ele>1218.0</ele><time>2026-04-18T12:20:48Z</time></trkpt><trkpt lat="41.848474605732996" lon="13.779825185374577"><ele>1218.0</ele><time>2026-04-18T12:20:49Z</time></trkpt><trkpt lat="41.84836427429339" lon="13.779891774607552"><ele>1218.0</ele><time>2026-04-18T12:20:50Z</time></trkpt><trkpt lat="41.848255713912074" lon="13.779954305185973"><ele>1218.5</ele><time>2026-04-18T12:20:51Z</time></trkpt><trkpt lat="41.84814251799437" lon="13.780015295944127"><ele>1219.0</ele><time>2026-04-18T12:20:52Z</time></trkpt><trkpt lat="41.84801949756806" lon="13.780077063287642"><ele>1219.5</ele><time>2026-04-18T12:20:53Z</time></trkpt><trkpt lat="41.84789173622819" lon="13.780140536810553"><ele>1220.0</ele><time>2026-04-18T12:20:54Z</time></trkpt><trkpt lat="41.847759171388475" lon="13.780203707458782"><ele>1219.25</ele><time>2026-04-18T12:20:55Z</time></trkpt><trkpt lat="41.847624654625406" lon="13.780272307562798"><ele>1218.5</ele><time>2026-04-18T12:20:56Z</time></trkpt><trkpt lat="41.84748555391047" lon="13.780344647608835"><ele>1217.75</ele><time>2026-04-18T12:20:57Z</time></trkpt><trkpt lat="41.8473439802082" lon="13.780417406530205"><ele>1217.0</ele><time>2026-04-18T12:20:58Z</time></trkpt><trkpt lat="41.84719778848036" lon="13.780484942378655"><ele>1217.0</ele><time>2026-04-18T12:20:59Z</time></trkpt><trkpt lat="41.847052004567914" lon="13.78055281433944"><ele>1217.0</ele><time>2026-04-18T12:21:00Z</time></trkpt><trkpt lat="41.846909251970565" lon="13.780626037969412"><ele>1217.0</ele><time>2026-04-18T12:21:01Z</time></trkpt><trkpt lat="41.84676689794215" lon="13.780717672733706"><ele>1217.6666666666667</ele><time>2026-04-18T12:21:02Z</time></trkpt><trkpt lat="41.84662430393402" lon="13.78083444846658"><ele>1218.3333333333333</ele><time>2026-04-18T12:21:03Z</time></trkpt><trkpt lat="41.846479630280754" lon="13.780957152166994"><ele>1219.0</ele><time>2026-04-18T12:21:04Z</time></trkpt><trkpt lat="41.846330954202095" lon="13.781082521918604"><ele>1218.6666666666665</ele><time>2026-04-18T12:21:05Z</time></trkpt><trkpt lat="41.84618098878309" lon="13.781216077942636"><ele>1218.3333333333333</ele><time>2026-04-18T12:21:06Z</time></trkpt><trkpt lat="41.84602646122816" lon="13.78135012785557"><ele>1218.0</ele><time>2026-04-18T12:21:07Z</time></trkpt><trkpt lat="41.84586977445611" lon="13.781486755337639"><ele>1218.0</ele><time>2026-04-18T12:21:08Z</time></trkpt><trkpt lat="41.84571128761213" lon="13.781626954559387"><ele>1218.0</ele><time>2026-04-18T12:21:09Z</time></trkpt><trkpt lat="41.845549349268914" lon="13.78176919925906"><ele>1218.0</ele><time>2026-04-18T12:21:10Z</time></trkpt><trkpt lat="41.84538147685009" lon="13.781914416047435"><ele>1217.6666666666667</ele><time>2026-04-18T12:21:11Z</time></trkpt><trkpt lat="41.84521294498524" lon="13.782060977212675"><ele>1217.3333333333335</ele><time>2026-04-18T12:21:12Z</time></trkpt><trkpt lat="41.84503415261574" lon="13.782215691340156"><ele>1217.0</ele><time>2026-04-18T12:21:13Z</time></trkpt><trkpt lat="41.84484228032838" lon="13.782379969394533"><ele>1217.0</ele><time>2026-04-18T12:21:14Z</time></trkpt><trkpt lat="41.84463498775593" lon="13.782565856228807"><ele>1217.0</ele><time>2026-04-18T12:21:15Z</time></trkpt><trkpt lat="41.84441311188506" lon="13.782788315886771"><ele>1217.5</ele><time>2026-04-18T12:21:16Z</time></trkpt><trkpt lat="41.84418156054203" lon="13.78304447635186"><ele>1218.0</ele><time>2026-04-18T12:21:17Z</time></trkpt><trkpt lat="41.84396759668212" lon="13.78328231310161"><ele>1218.0</ele><time>2026-04-18T12:21:18Z</time></trkpt><trkpt lat="41.843771141765785" lon="13.783497840527001"><ele>1218.0</ele><time>2026-04-18T12:21:19Z</time></trkpt><trkpt lat="41.84358626136303" lon="13.783702026333122"><ele>1217.5</ele><time>2026-04-18T12:21:20Z</time></trkpt><trkpt lat="41.8434078765767" lon="13.783912857344971"><ele>1217.0</ele><time>2026-04-18T12:21:21Z</time></trkpt><trkpt lat="41.8432230464689" lon="13.784113746869023"><ele>1217.0</ele><time>2026-04-18T12:21:22Z</time></trkpt><trkpt lat="41.84302207673481" lon="13.784289933037154"><ele>1217.0</ele><time>2026-04-18T12:21:23Z</time></trkpt><trkpt lat="41.84280284980802" lon="13.784439993175972"><ele>1215.0</ele><time>2026-04-18T12:21:24Z</time></trkpt><trkpt lat="41.84256698402262" lon="13.784577060119874"><ele>1213.0</ele><time>2026-04-18T12:21:25Z</time></trkpt><trkpt lat="41.84232077232456" lon="13.784707952314475"><ele>1213.0</ele><time>2026-04-18T12:21:26Z</time></trkpt><trkpt lat="41.84207176818506" lon="13.784840883527313"><ele>1213.0</ele><time>2026-04-18T12:21:27Z</time></trkpt><trkpt lat="41.84182781159467" lon="13.784977122203536"><ele>1213.5</ele><time>2026-04-18T12:21:28Z</time></trkpt><trkpt lat="41.84158866728804" lon="13.785111252644603"><ele>1214.0</ele><time>2026-04-18T12:21:29Z</time></trkpt><trkpt lat="41.84135493367543" lon="13.785242251086233"><ele>1212.3333333333335</ele><time>2026-04-18T12:21:30Z</time></trkpt><trkpt lat="41.841143352192766" lon="13.785357388397358"><ele>1210.6666666666667</ele><time>2026-04-18T12:21:31Z</time></trkpt><trkpt lat="41.84095135414485" lon="13.785458735939015"><ele>1209.0</ele><time>2026-04-18T12:21:32Z</time></trkpt><trkpt lat="41.840742777433576" lon="13.785534172894973"><ele>1209.0</ele><time>2026-04-18T12:21:33Z</time></trkpt><trkpt lat="41.8405052445601" lon="13.785561541156214"><ele>1209.0</ele><time>2026-04-18T12:21:34Z</time></trkpt><trkpt lat="41.84024845276133" lon="13.78557290224963"><ele>1206.5</ele><time>2026-04-18T12:21:35Z</time></trkpt><trkpt lat="41.83998926688131" lon="13.785616147461068"><ele>1204.0</ele><time>2026-04-18T12:21:36Z</time></trkpt><trkpt lat="41.839735113131326" lon="13.785679955605072"><ele>1204.0</ele><time>2026-04-18T12:21:37Z</time></trkpt><trkpt lat="41.83947550251826" lon="13.785756026975521"><ele>1204.0</ele><time>2026-04-18T12:21:38Z</time></trkpt><trkpt lat="41.839209404015335" lon="13.785830126379093"><ele>1204.0</ele><time>2026-04-18T12:21:39Z</time></trkpt><trkpt lat="41.8389367551308" lon="13.785903462853376"><ele>1204.0</ele><time>2026-04-18T12:21:40Z</time></trkpt><trkpt lat="41.8386596525528" lon="13.785981053824454"><ele>1202.5</ele><time>2026-04-18T12:21:41Z</time></trkpt><trkpt lat="41.83837335177884" lon="13.786063028675759"><ele>1201.0</ele><time>2026-04-18T12:21:42Z</time></trkpt><trkpt lat="41.838073678282505" lon="13.786157257253796"><ele>1201.0</ele><time>2026-04-18T12:21:43Z</time></trkpt><trkpt lat="41.83775674626571" lon="13.786259021691647"><ele>1201.0</ele><time>2026-04-18T12:21:44Z</time></trkpt><trkpt lat="41.83745124658357" lon="13.786358687651894"><ele>1201.0</ele><time>2026-04-18T12:21:45Z</time></trkpt><trkpt lat="41.83716570645252" lon="13.78645437471349"><ele>1201.0</ele><time>2026-04-18T12:21:46Z</time></trkpt><trkpt lat="41.83687979669975" lon="13.786551255488794"><ele>1201.0</ele><time>2026-04-18T12:21:47Z</time></trkpt><trkpt lat="41.83659806013305" lon="13.786647247101149"><ele>1201.0</ele><time>2026-04-18T12:21:48Z</time></trkpt><trkpt lat="41.83632179797324" lon="13.786740523898878"><ele>1201.0</ele><time>2026-04-18T12:21:49Z</time></trkpt><trkpt lat="41.836062884272806" lon="13.786829766570314"><ele>1201.0</ele><time>2026-04-18T12:21:50Z</time></trkpt><trkpt lat="41.83580565470801" lon="13.78691436551787"><ele>1198.5</ele><time>2026-04-18T12:21:51Z</time></trkpt><trkpt lat="41.83553945760267" lon="13.78698373042904"><ele>1196.0</ele><time>2026-04-18T12:21:52Z</time></trkpt><trkpt lat="41.83526813916602" lon="13.787035390113688"><ele>1195.5</ele><time>2026-04-18T12:21:53Z</time></trkpt><trkpt lat="41.83499216348436" lon="13.78708367110285"><ele>1195.0</ele><time>2026-04-18T12:21:54Z</time></trkpt><trkpt lat="41.834716782138216" lon="13.787141730902405"><ele>1195.0</ele><time>2026-04-18T12:21:55Z</time></trkpt><trkpt lat="41.8344421753499" lon="13.787204356995508"><ele>1195.0</ele><time>2026-04-18T12:21:56Z</time></trkpt><trkpt lat="41.83416810615766" lon="13.787268016974796"><ele>1194.0</ele><time>2026-04-18T12:21:57Z</time></trkpt><trkpt lat="41.83389622200657" lon="13.787330800782337"><ele>1193.0</ele><time>2026-04-18T12:21:58Z</time></trkpt><trkpt lat="41.83362695069698" lon="13.787390634368677"><ele>1193.0</ele><time>2026-04-18T12:21:59Z</time></trkpt><trkpt lat="41.833359998123626" lon="13.787447762107833"><ele>1193.0</ele><time>2026-04-18T12:22:00Z</time></trkpt><trkpt lat="41.83309681685637" lon="13.787505920713233"><ele>1193.0</ele><time>2026-04-18T12:22:01Z</time></trkpt><trkpt lat="41.83283947164215" lon="13.787568161016027"><ele>1193.0</ele><time>2026-04-18T12:22:02Z</time></trkpt><trkpt lat="41.832583058888446" lon="13.787627597160062"><ele>1191.0</ele><time>2026-04-18T12:22:03Z</time></trkpt><trkpt lat="41.832326727640776" lon="13.787690910799252"><ele>1189.0</ele><time>2026-04-18T12:22:04Z</time></trkpt><trkpt lat="41.83207229737575" lon="13.787759925595692"><ele>1189.0</ele><time>2026-04-18T12:22:05Z</time></trkpt><trkpt lat="41.83181920069558" lon="13.78783459971846"><ele>1189.0</ele><time>2026-04-18T12:22:06Z</time></trkpt><trkpt lat="41.831562798274426" lon="13.787905694270655"><ele>1189.0</ele><time>2026-04-18T12:22:07Z</time></trkpt><trkpt lat="41.8313027060303" lon="13.787979616675434"><ele>1189.0</ele><time>2026-04-18T12:22:08Z</time></trkpt><trkpt lat="41.8310356181662" lon="13.788053522695277"><ele>1189.0</ele><time>2026-04-18T12:22:09Z</time></trkpt><trkpt lat="41.83076831581286" lon="13.788127165632558"><ele>1189.0</ele><time>2026-04-18T12:22:10Z</time></trkpt><trkpt lat="41.83049480948817" lon="13.788204099606624"><ele>1189.0</ele><time>2026-04-18T12:22:11Z</time></trkpt><trkpt lat="41.83021297333908" lon="13.788286801147493"><ele>1189.0</ele><time>2026-04-18T12:22:12Z</time></trkpt><trkpt lat="41.829918704011654" lon="13.788372744136765"><ele>1188.5</ele><time>2026-04-18T12:22:13Z</time></trkpt><trkpt lat="41.829608794887776" lon="13.788456273146771"><ele>1188.0</ele><time>2026-04-18T12:22:14Z</time></trkpt><trkpt lat="41.829281654343895" lon="13.788541003074775"><ele>1186.5</ele><time>2026-04-18T12:22:15Z</time></trkpt><trkpt lat="41.82898170533233" lon="13.78862177209058"><ele>1185.0</ele><time>2026-04-18T12:22:16Z</time></trkpt><trkpt lat="41.82870023618967" lon="13.788697875738443"><ele>1186.0</ele><time>2026-04-18T12:22:17Z</time></trkpt><trkpt lat="41.82842123698729" lon="13.788779298932212"><ele>1187.0</ele><time>2026-04-18T12:22:18Z</time></trkpt><trkpt lat="41.828141530718156" lon="13.788852695582596"><ele>1187.0</ele><time>2026-04-18T12:22:19Z</time></trkpt><trkpt lat="41.82786825009061" lon="13.788925204393271"><ele>1187.0</ele><time>2026-04-18T12:22:20Z</time></trkpt><trkpt lat="41.82759957283365" lon="13.788995045448015"><ele>1188.0</ele><time>2026-04-18T12:22:21Z</time></trkpt><trkpt lat="41.827332234508816" lon="13.789063877924562"><ele>1189.0</ele><time>2026-04-18T12:22:22Z</time></trkpt><trkpt lat="41.8270651121665" lon="13.789131952566363"><ele>1188.0</ele><time>2026-04-18T12:22:23Z</time></trkpt><trkpt lat="41.826796615727766" lon="13.789200720215808"><ele>1187.0</ele><time>2026-04-18T12:22:24Z</time></trkpt><trkpt lat="41.8265274602597" lon="13.789271272938475"><ele>1184.0</ele><time>2026-04-18T12:22:25Z</time></trkpt><trkpt lat="41.82625840376758" lon="13.789343591546018"><ele>1181.0</ele><time>2026-04-18T12:22:26Z</time></trkpt><trkpt lat="41.82598985971725" lon="13.789418305904963"><ele>1181.0</ele><time>2026-04-18T12:22:27Z</time></trkpt><trkpt lat="41.82572216853691" lon="13.78949004670476"><ele>1181.0</ele><time>2026-04-18T12:22:28Z</time></trkpt><trkpt lat="41.82546210677093" lon="13.789556188125733"><ele>1181.0</ele><time>2026-04-18T12:22:29Z</time></trkpt><trkpt lat="41.82522835649364" lon="13.789616699874179"><ele>1181.0</ele><time>2026-04-18T12:22:30Z</time></trkpt><trkpt lat="41.82502679096931" lon="13.789669728378671"><ele>1181.0</ele><time>2026-04-18T12:22:31Z</time></trkpt><trkpt lat="41.824848335387316" lon="13.789713530471348"><ele>1180.6666666666667</ele><time>2026-04-18T12:22:32Z</time></trkpt><trkpt lat="41.824675970581374" lon="13.78973241261616"><ele>1180.3333333333333</ele><time>2026-04-18T12:22:33Z</time></trkpt><trkpt lat="41.8244940395541" lon="13.789702205791027"><ele>1180.0</ele><time>2026-04-18T12:22:34Z</time></trkpt><trkpt lat="41.82430620417912" lon="13.789615227648788"><ele>1179.0</ele><time>2026-04-18T12:22:35Z</time></trkpt><trkpt lat="41.82410206024645" lon="13.78958503455796"><ele>1178.0</ele><time>2026-04-18T12:22:36Z</time></trkpt><trkpt lat="41.82389197854392" lon="13.789591613155029"><ele>1177.0</ele><time>2026-04-18T12:22:37Z</time></trkpt><trkpt lat="41.823671977308756" lon="13.789628969013625"><ele>1177.3333333333333</ele><time>2026-04-18T12:22:38Z</time></trkpt><trkpt lat="41.823464766851295" lon="13.789658650462293"><ele>1177.6666666666667</ele><time>2026-04-18T12:22:39Z</time></trkpt><trkpt lat="41.82327629282408" lon="13.789687336242679"><ele>1178.0</ele><time>2026-04-18T12:22:40Z</time></trkpt><trkpt lat="41.823102590425684" lon="13.789721384349491"><ele>1178.0</ele><time>2026-04-18T12:22:41Z</time></trkpt><trkpt lat="41.822944961365735" lon="13.789781069604041"><ele>1178.0</ele><time>2026-04-18T12:22:42Z</time></trkpt><trkpt lat="41.82279012475631" lon="13.789864886405027"><ele>1178.0</ele><time>2026-04-18T12:22:43Z</time></trkpt><trkpt lat="41.82264346547713" lon="13.789941932643591"><ele>1177.6666666666667</ele><time>2026-04-18T12:22:44Z</time></trkpt><trkpt lat="41.822477412510345" lon="13.789958243494889"><ele>1177.3333333333333</ele><time>2026-04-18T12:22:45Z</time></trkpt><trkpt lat="41.82229416184532" lon="13.789913478570377"><ele>1177.0</ele><time>2026-04-18T12:22:46Z</time></trkpt><trkpt lat="41.82210580060865" lon="13.789859120403408"><ele>1177.0</ele><time>2026-04-18T12:22:47Z</time></trkpt><trkpt lat="41.821908434928304" lon="13.789858754899075"><ele>1177.0</ele><time>2026-04-18T12:22:48Z</time></trkpt><trkpt lat="41.82170304094649" lon="13.789921513153717"><ele>1177.0</ele><time>2026-04-18T12:22:49Z</time></trkpt><trkpt lat="41.8215005100623" lon="13.789992229045822"><ele>1177.3333333333333</ele><time>2026-04-18T12:22:50Z</time></trkpt><trkpt lat="41.82131101200384" lon="13.790048135020413"><ele>1177.6666666666667</ele><time>2026-04-18T12:22:51Z</time></trkpt><trkpt lat="41.82113402482438" lon="13.790092545193064"><ele>1178.0</ele><time>2026-04-18T12:22:52Z</time></trkpt><trkpt lat="41.82097552174264" lon="13.790137805521109"><ele>1178.25</ele><time>2026-04-18T12:22:53Z</time></trkpt><trkpt lat="41.82083464404444" lon="13.790151758791698"><ele>1178.5</ele><time>2026-04-18T12:22:54Z</time></trkpt><trkpt lat="41.82069579597909" lon="13.790133110014164"><ele>1178.75</ele><time>2026-04-18T12:22:55Z</time></trkpt><trkpt lat="41.82055181935372" lon="13.790063965028265"><ele>1179.0</ele><time>2026-04-18T12:22:56Z</time></trkpt><trkpt lat="41.82040531477496" lon="13.789947979567026"><ele>1179.0</ele><time>2026-04-18T12:22:57Z</time></trkpt><trkpt lat="41.820263574580075" lon="13.78980732208132"><ele>1179.0</ele><time>2026-04-18T12:22:58Z</time></trkpt><trkpt lat="41.820118437578" lon="13.789702399876045"><ele>1179.0</ele><time>2026-04-18T12:22:59Z</time></trkpt><trkpt lat="41.81994845850508" lon="13.78967085116937"><ele>1178.0</ele><time>2026-04-18T12:23:00Z</time></trkpt><trkpt lat="41.81974989135938" lon="13.789703147538548"><ele>1177.0</ele><time>2026-04-18T12:23:01Z</time></trkpt><trkpt lat="41.819539306556685" lon="13.789735034803423"><ele>1176.0</ele><time>2026-04-18T12:23:02Z</time></trkpt><trkpt lat="41.81933646132971" lon="13.789735229015228"><ele>1174.3333333333333</ele><time>2026-04-18T12:23:03Z</time></trkpt><trkpt lat="41.819146032048465" lon="13.789710036703736"><ele>1172.6666666666665</ele><time>2026-04-18T12:23:04Z</time></trkpt><trkpt lat="41.81897148756381" lon="13.789692100369606"><ele>1171.0</ele><time>2026-04-18T12:23:05Z</time></trkpt><trkpt lat="41.81881321875248" lon="13.789682056425525"><ele>1171.0</ele><time>2026-04-18T12:23:06Z</time></trkpt><trkpt lat="41.81865956181465" lon="13.789685195480397"><ele>1171.0</ele><time>2026-04-18T12:23:07Z</time></trkpt><trkpt lat="41.818502421036825" lon="13.789723033409397"><ele>1171.0</ele><time>2026-04-18T12:23:08Z</time></trkpt><trkpt lat="41.81834246781631" lon="13.789811779538436"><ele>1171.0</ele><time>2026-04-18T12:23:09Z</time></trkpt><trkpt lat="41.81820833953924" lon="13.789960417273264"><ele>1171.0</ele><time>2026-04-18T12:23:10Z</time></trkpt><trkpt lat="41.81807716553901" lon="13.79008851720768"><ele>1171.0</ele><time>2026-04-18T12:23:11Z</time></trkpt><trkpt lat="41.81795683991336" lon="13.790176343571288"><ele>1171.0</ele><time>2026-04-18T12:23:12Z</time></trkpt><trkpt lat="41.81782632584432" lon="13.790200104729143"><ele>1171.0</ele><time>2026-04-18T12:23:13Z</time></trkpt><trkpt lat="41.817672153849365" lon="13.790243496754755"><ele>1171.0</ele><time>2026-04-18T12:23:14Z</time></trkpt><trkpt lat="41.81750832184901" lon="13.790267380513717"><ele>1170.6666666666665</ele><time>2026-04-18T12:23:15Z</time></trkpt><trkpt lat="41.81732096883303" lon="13.790304835064765"><ele>1170.3333333333333</ele><time>2026-04-18T12:23:16Z</time></trkpt><trkpt lat="41.81711463805806" lon="13.790344686233343"><ele>1170.0</ele><time>2026-04-18T12:23:17Z</time></trkpt><trkpt lat="41.816897165943594" lon="13.790366043814169"><ele>1167.5</ele><time>2026-04-18T12:23:18Z</time></trkpt><trkpt lat="41.816678281315696" lon="13.790428520013363"><ele>1165.0</ele><time>2026-04-18T12:23:19Z</time></trkpt><trkpt lat="41.81644863262352" lon="13.790458657151891"><ele>1165.0</ele><time>2026-04-18T12:23:20Z</time></trkpt><trkpt lat="41.8162118889003" lon="13.790495775373119"><ele>1165.0</ele><time>2026-04-18T12:23:21Z</time></trkpt><trkpt lat="41.815966314981395" lon="13.79053339179213"><ele>1165.0</ele><time>2026-04-18T12:23:22Z</time></trkpt><trkpt lat="41.8157170420269" lon="13.790577302951107"><ele>1165.0</ele><time>2026-04-18T12:23:23Z</time></trkpt><trkpt lat="41.81546231399786" lon="13.790623435084095"><ele>1165.0</ele><time>2026-04-18T12:23:24Z</time></trkpt><trkpt lat="41.815203624128635" lon="13.79066477804778"><ele>1165.0</ele><time>2026-04-18T12:23:25Z</time></trkpt><trkpt lat="41.814947204048636" lon="13.790712814609345"><ele>1166.5</ele><time>2026-04-18T12:23:26Z</time></trkpt><trkpt lat="41.814691240967356" lon="13.79076221415985"><ele>1168.0</ele><time>2026-04-18T12:23:27Z</time></trkpt><trkpt lat="41.81444110150745" lon="13.79081255711367"><ele>1170.0</ele><time>2026-04-18T12:23:28Z</time></trkpt><trkpt lat="41.81421190793596" lon="13.790850985067076"><ele>1172.0</ele><time>2026-04-18T12:23:29Z</time></trkpt><trkpt lat="41.81399417823786" lon="13.79088503485228"><ele>1172.0</ele><time>2026-04-18T12:23:30Z</time></trkpt><trkpt lat="41.81378066366403" lon="13.790924683096991"><ele>1172.0</ele><time>2026-04-18T12:23:31Z</time></trkpt><trkpt lat="41.81356637099852" lon="13.790960898786942"><ele>1172.0</ele><time>2026-04-18T12:23:32Z</time></trkpt><trkpt lat="41.81335168514412" lon="13.791000997110316"><ele>1168.0</ele><time>2026-04-18T12:23:33Z</time></trkpt><trkpt lat="41.813144435941986" lon="13.79104344522156"><ele>1164.0</ele><time>2026-04-18T12:23:34Z</time></trkpt><trkpt lat="41.81294636843735" lon="13.791081673394931"><ele>1160.0</ele><time>2026-04-18T12:23:35Z</time></trkpt><trkpt lat="41.81277191615315" lon="13.79111100305952"><ele>1160.0</ele><time>2026-04-18T12:23:36Z</time></trkpt><trkpt lat="41.81260848212277" lon="13.791139708425996"><ele>1160.0</ele><time>2026-04-18T12:23:37Z</time></trkpt><trkpt lat="41.8124528430095" lon="13.791170646688947"><ele>1160.0</ele><time>2026-04-18T12:23:38Z</time></trkpt><trkpt lat="41.8123053118853" lon="13.791197502809739"><ele>1160.0</ele><time>2026-04-18T12:23:39Z</time></trkpt><trkpt lat="41.812165165341106" lon="13.791219973774616"><ele>1160.0</ele><time>2026-04-18T12:23:40Z</time></trkpt><trkpt lat="41.81203170693852" lon="13.791232222097111"><ele>1160.0</ele><time>2026-04-18T12:23:41Z</time></trkpt><trkpt lat="41.81190587262553" lon="13.791236338140193"><ele>1160.0</ele><time>2026-04-18T12:23:42Z</time></trkpt><trkpt lat="41.811788348427754" lon="13.791240684181686"><ele>1160.0</ele><time>2026-04-18T12:23:43Z</time></trkpt><trkpt lat="41.81168764267231" lon="13.791243955722031"><ele>1160.0</ele><time>2026-04-18T12:23:44Z</time></trkpt><trkpt lat="41.811595109341674" lon="13.791246242389628"><ele>1160.0</ele><time>2026-04-18T12:23:45Z</time></trkpt><trkpt lat="41.81150974893569" lon="13.791243542378028"><ele>1160.0</ele><time>2026-04-18T12:23:46Z</time></trkpt><trkpt lat="41.81143710307474" lon="13.791236630999943"><ele>1160.0</ele><time>2026-04-18T12:23:47Z</time></trkpt><trkpt lat="41.811372551670026" lon="13.791225638903192"><ele>1160.0</ele><time>2026-04-18T12:23:48Z</time></trkpt><trkpt lat="41.811309456582876" lon="13.791218317470381"><ele>1160.0</ele><time>2026-04-18T12:23:49Z</time></trkpt><trkpt lat="41.811227424905276" lon="13.791197587337697"><ele>1160.0</ele><time>2026-04-18T12:23:50Z</time></trkpt><trkpt lat="41.811150423077194" lon="13.791160986933667"><ele>1160.0</ele><time>2026-04-18T12:23:51Z</time></trkpt><trkpt lat="41.811069288287165" lon="13.791146285943821"><ele>1160.0</ele><time>2026-04-18T12:23:52Z</time></trkpt><trkpt lat="41.810991995159974" lon="13.791125889764304"><ele>1160.0</ele><time>2026-04-18T12:23:53Z</time></trkpt><trkpt lat="41.81092401508827" lon="13.791110707125233"><ele>1160.0</ele><time>2026-04-18T12:23:54Z</time></trkpt><trkpt lat="41.81085766073877" lon="13.79109944884661"><ele>1159.7142857142858</ele><time>2026-04-18T12:23:55Z</time></trkpt><trkpt lat="41.81079368797144" lon="13.79107959080459"><ele>1159.4285714285716</ele><time>2026-04-18T12:23:56Z</time></trkpt><trkpt lat="41.81072316587248" lon="13.791067448521622"><ele>1159.142857142857</ele><time>2026-04-18T12:23:57Z</time></trkpt><trkpt lat="41.810655485977655" lon="13.791049098463537"><ele>1158.857142857143</ele><time>2026-04-18T12:23:58Z</time></trkpt><trkpt lat="41.810580264305415" lon="13.791027258933132"><ele>1158.5714285714284</ele><time>2026-04-18T12:23:59Z</time></trkpt><trkpt lat="41.810506808966224" lon="13.790999851324612"><ele>1158.2857142857142</ele><time>2026-04-18T12:24:00Z</time></trkpt><trkpt lat="41.81043191694992" lon="13.790977396289431"><ele>1158.0</ele><time>2026-04-18T12:24:01Z</time></trkpt><trkpt lat="41.81035852048006" lon="13.790949986206044"><ele>1158.0</ele><time>2026-04-18T12:24:02Z</time></trkpt><trkpt lat="41.810292663256" lon="13.790899082426007"><ele>1158.0</ele><time>2026-04-18T12:24:03Z</time></trkpt><trkpt lat="41.81020582147874" lon="13.790879104740556"><ele>1158.0</ele><time>2026-04-18T12:24:04Z</time></trkpt><trkpt lat="41.810120392809495" lon="13.790845743284876"><ele>1158.0</ele><time>2026-04-18T12:24:05Z</time></trkpt><trkpt lat="41.81003247133525" lon="13.790879982884857"><ele>1158.0</ele><time>2026-04-18T12:24:06Z</time></trkpt><trkpt lat="41.809957817247174" lon="13.790864726477915"><ele>1158.0</ele><time>2026-04-18T12:24:07Z</time></trkpt><trkpt lat="41.80988155844616" lon="13.790867955210313"><ele>1157.6</ele><time>2026-04-18T12:24:08Z</time></trkpt><trkpt lat="41.809730512197376" lon="13.79083770517685"><ele>1157.1999999999998</ele><time>2026-04-18T12:24:10Z</time></trkpt><trkpt lat="41.80965558831576" lon="13.790825853412583"><ele>1156.8</ele><time>2026-04-18T12:24:11Z</time></trkpt><trkpt lat="41.809586956729675" lon="13.790799302948393"><ele>1156.3999999999999</ele><time>2026-04-18T12:24:12Z</time></trkpt><trkpt lat="41.809480525893015" lon="13.79077855338002"><ele>1156.0</ele><time>2026-04-18T12:24:14Z</time></trkpt><trkpt lat="41.80938259050325" lon="13.790742475048674"><ele>1155.8333333333333</ele><time>2026-04-18T12:24:16Z</time></trkpt><trkpt lat="41.80929487780085" lon="13.7907193892288"><ele>1155.6666666666665</ele><time>2026-04-18T12:24:18Z</time></trkpt><trkpt lat="41.80919354418145" lon="13.790703914435483"><ele>1155.5</ele><time>2026-04-18T12:24:20Z</time></trkpt><trkpt lat="41.80914639677547" lon="13.790623008942307"><ele>1155.3333333333333</ele><time>2026-04-18T12:24:28Z</time></trkpt><trkpt lat="41.8091076737397" lon="13.790509890874583"><ele>1155.1666666666667</ele><time>2026-04-18T12:24:30Z</time></trkpt><trkpt lat="41.80907121642775" lon="13.790435434632823"><ele>1155.0</ele><time>2026-04-18T12:24:31Z</time></trkpt><trkpt lat="41.80903604585922" lon="13.790363018909462"><ele>1155.0</ele><time>2026-04-18T12:24:32Z</time></trkpt><trkpt lat="41.80897638763448" lon="13.790247678737414"><ele>1155.0</ele><time>2026-04-18T12:24:34Z</time></trkpt><trkpt lat="41.80891980786214" lon="13.790124951040607"><ele>1155.0</ele><time>2026-04-18T12:24:36Z</time></trkpt><trkpt lat="41.80886592027922" lon="13.790004595997441"><ele>1155.0</ele><time>2026-04-18T12:24:38Z</time></trkpt><trkpt lat="41.80881044518342" lon="13.789886755314209"><ele>1155.0</ele><time>2026-04-18T12:24:40Z</time></trkpt><trkpt lat="41.80875275367146" lon="13.789764215359261"><ele>1155.2</ele><time>2026-04-18T12:24:42Z</time></trkpt><trkpt lat="41.80868510188553" lon="13.78962110461118"><ele>1155.4</ele><time>2026-04-18T12:24:44Z</time></trkpt><trkpt lat="41.80864654473923" lon="13.789534382418344"><ele>1155.6</ele><time>2026-04-18T12:24:45Z</time></trkpt><trkpt lat="41.8086045358829" lon="13.789426483720106"><ele>1155.8</ele><time>2026-04-18T12:24:46Z</time></trkpt><trkpt lat="41.80855283584481" lon="13.789307630343536"><ele>1156.0</ele><time>2026-04-18T12:24:47Z</time></trkpt><trkpt lat="41.80848177247546" lon="13.789196603767982"><ele>1155.5</ele><time>2026-04-18T12:24:48Z</time></trkpt><trkpt lat="41.80841687117494" lon="13.789114276767743"><ele>1155.0</ele><time>2026-04-18T12:24:49Z</time></trkpt><trkpt lat="41.808340457177636" lon="13.789041907118811"><ele>1154.5</ele><time>2026-04-18T12:24:50Z</time></trkpt><trkpt lat="41.80822656713159" lon="13.788980276784853"><ele>1154.0</ele><time>2026-04-18T12:24:51Z</time></trkpt><trkpt lat="41.80807506897334" lon="13.788922678403177"><ele>1154.0</ele><time>2026-04-18T12:24:52Z</time></trkpt><trkpt lat="41.807934129862026" lon="13.788864167881284"><ele>1154.0</ele><time>2026-04-18T12:24:53Z</time></trkpt><trkpt lat="41.80780027085481" lon="13.788796333622079"><ele>1154.0</ele><time>2026-04-18T12:24:54Z</time></trkpt><trkpt lat="41.80766504574743" lon="13.788739401676553"><ele>1154.0</ele><time>2026-04-18T12:24:55Z</time></trkpt><trkpt lat="41.80752491976828" lon="13.78868171220866"><ele>1153.75</ele><time>2026-04-18T12:24:56Z</time></trkpt><trkpt lat="41.80738316577646" lon="13.788628378415623"><ele>1153.5</ele><time>2026-04-18T12:24:57Z</time></trkpt><trkpt lat="41.80725821131082" lon="13.788578650753049"><ele>1153.25</ele><time>2026-04-18T12:24:58Z</time></trkpt><trkpt lat="41.80714631864789" lon="13.788531772109419"><ele>1153.0</ele><time>2026-04-18T12:24:59Z</time></trkpt><trkpt lat="41.807037889350916" lon="13.78848996501752"><ele>1153.0</ele><time>2026-04-18T12:25:00Z</time></trkpt><trkpt lat="41.806929171821174" lon="13.78844929892343"><ele>1153.0</ele><time>2026-04-18T12:25:01Z</time></trkpt><trkpt lat="41.806799160812695" lon="13.788401132048191"><ele>1153.0</ele><time>2026-04-18T12:25:02Z</time></trkpt><trkpt lat="41.8066617265046" lon="13.788339243855956"><ele>1153.0</ele><time>2026-04-18T12:25:03Z</time></trkpt><trkpt lat="41.80651863662452" lon="13.788270602142443"><ele>1153.0</ele><time>2026-04-18T12:25:04Z</time></trkpt><trkpt lat="41.80637282253004" lon="13.78822002553565"><ele>1153.0</ele><time>2026-04-18T12:25:05Z</time></trkpt><trkpt lat="41.80622212773651" lon="13.78816927820292"><ele>1153.0</ele><time>2026-04-18T12:25:06Z</time></trkpt><trkpt lat="41.80607319834902" lon="13.788129436380428"><ele>1152.6666666666665</ele><time>2026-04-18T12:25:07Z</time></trkpt><trkpt lat="41.80592139354143" lon="13.78809202126969"><ele>1152.3333333333333</ele><time>2026-04-18T12:25:08Z</time></trkpt><trkpt lat="41.805762211903044" lon="13.788048970693659"><ele>1152.0</ele><time>2026-04-18T12:25:09Z</time></trkpt><trkpt lat="41.805601747426934" lon="13.788006888371708"><ele>1152.0</ele><time>2026-04-18T12:25:10Z</time></trkpt><trkpt lat="41.805432944138374" lon="13.787968287562691"><ele>1152.0</ele><time>2026-04-18T12:25:11Z</time></trkpt><trkpt lat="41.805262641259475" lon="13.787925356831781"><ele>1152.0</ele><time>2026-04-18T12:25:12Z</time></trkpt><trkpt lat="41.805095975033176" lon="13.787879959002613"><ele>1152.0</ele><time>2026-04-18T12:25:13Z</time></trkpt><trkpt lat="41.80492694159996" lon="13.787831685695442"><ele>1152.0</ele><time>2026-04-18T12:25:14Z</time></trkpt><trkpt lat="41.80475324446807" lon="13.787779107896242"><ele>1152.0</ele><time>2026-04-18T12:25:15Z</time></trkpt><trkpt lat="41.80458486163148" lon="13.787729260406666"><ele>1152.0</ele><time>2026-04-18T12:25:16Z</time></trkpt><trkpt lat="41.80443217065492" lon="13.787687179930511"><ele>1152.0</ele><time>2026-04-18T12:25:17Z</time></trkpt><trkpt lat="41.80428716966943" lon="13.78764627712151"><ele>1152.0</ele><time>2026-04-18T12:25:18Z</time></trkpt><trkpt lat="41.804149983095826" lon="13.787607959725905"><ele>1152.0</ele><time>2026-04-18T12:25:19Z</time></trkpt><trkpt lat="41.80402060820182" lon="13.787573796509466"><ele>1152.0</ele><time>2026-04-18T12:25:20Z</time></trkpt><trkpt lat="41.803896395617905" lon="13.78754139338029"><ele>1152.0</ele><time>2026-04-18T12:25:21Z</time></trkpt><trkpt lat="41.80378485797436" lon="13.787515868909908"><ele>1152.0</ele><time>2026-04-18T12:25:22Z</time></trkpt><trkpt lat="41.80368443494753" lon="13.787500159868584"><ele>1152.0</ele><time>2026-04-18T12:25:23Z</time></trkpt><trkpt lat="41.80359683408665" lon="13.787483598941934"><ele>1152.0</ele><time>2026-04-18T12:25:24Z</time></trkpt><trkpt lat="41.80351855307762" lon="13.787457566923111"><ele>1151.8</ele><time>2026-04-18T12:25:25Z</time></trkpt><trkpt lat="41.803444778340726" lon="13.787422961352176"><ele>1151.6</ele><time>2026-04-18T12:25:26Z</time></trkpt><trkpt lat="41.803362618079" lon="13.78741370924039"><ele>1151.3999999999999</ele><time>2026-04-18T12:25:27Z</time></trkpt><trkpt lat="41.80327911413729" lon="13.787452673362337"><ele>1151.2</ele><time>2026-04-18T12:25:28Z</time></trkpt><trkpt lat="41.80321941455562" lon="13.787542551101494"><ele>1151.0</ele><time>2026-04-18T12:25:29Z</time></trkpt><trkpt lat="41.8031548927878" lon="13.787669313436155"><ele>1150.25</ele><time>2026-04-18T12:25:30Z</time></trkpt><trkpt lat="41.803036836491266" lon="13.787757644656605"><ele>1149.5</ele><time>2026-04-18T12:25:31Z</time></trkpt><trkpt lat="41.80292717418114" lon="13.787870973846777"><ele>1148.75</ele><time>2026-04-18T12:25:32Z</time></trkpt><trkpt lat="41.80281981785601" lon="13.78799447216839"><ele>1148.0</ele><time>2026-04-18T12:25:33Z</time></trkpt><trkpt lat="41.80270661751968" lon="13.788129081726266"><ele>1148.0</ele><time>2026-04-18T12:25:34Z</time></trkpt><trkpt lat="41.802586011200454" lon="13.78827079651284"><ele>1148.0</ele><time>2026-04-18T12:25:35Z</time></trkpt><trkpt lat="41.80245951696613" lon="13.788417647602351"><ele>1148.0</ele><time>2026-04-18T12:25:36Z</time></trkpt><trkpt lat="41.802329199888256" lon="13.788568936853354"><ele>1146.6666666666667</ele><time>2026-04-18T12:25:37Z</time></trkpt><trkpt lat="41.80219575275004" lon="13.788723859874038"><ele>1145.3333333333333</ele><time>2026-04-18T12:25:38Z</time></trkpt><trkpt lat="41.80207095137177" lon="13.78889414116673"><ele>1144.0</ele><time>2026-04-18T12:25:39Z</time></trkpt><trkpt lat="41.801936365868215" lon="13.789053201554843"><ele>1144.0</ele><time>2026-04-18T12:25:40Z</time></trkpt><trkpt lat="41.80180500628943" lon="13.789206584350847"><ele>1144.0</ele><time>2026-04-18T12:25:41Z</time></trkpt><trkpt lat="41.801677740138025" lon="13.789359822252763"><ele>1144.0</ele><time>2026-04-18T12:25:42Z</time></trkpt><trkpt lat="41.80155222553444" lon="13.789526670130146"><ele>1144.0</ele><time>2026-04-18T12:25:43Z</time></trkpt><trkpt lat="41.80143771952669" lon="13.78971255018005"><ele>1144.0</ele><time>2026-04-18T12:25:44Z</time></trkpt><trkpt lat="41.80133421010834" lon="13.789909319878024"><ele>1144.0</ele><time>2026-04-18T12:25:45Z</time></trkpt><trkpt lat="41.80122947728338" lon="13.790074227697067"><ele>1144.0</ele><time>2026-04-18T12:25:46Z</time></trkpt><trkpt lat="41.80114835899888" lon="13.790225857888615"><ele>1144.0</ele><time>2026-04-18T12:25:47Z</time></trkpt><trkpt lat="41.801073144276664" lon="13.790365039904385"><ele>1144.0</ele><time>2026-04-18T12:25:48Z</time></trkpt><trkpt lat="41.8010028142565" lon="13.7904951830586"><ele>1144.0</ele><time>2026-04-18T12:25:49Z</time></trkpt><trkpt lat="41.800936245262754" lon="13.790618579732236"><ele>1144.0</ele><time>2026-04-18T12:25:50Z</time></trkpt><trkpt lat="41.80086258562736" lon="13.790755310539556"><ele>1144.0</ele><time>2026-04-18T12:25:51Z</time></trkpt><trkpt lat="41.80078926351405" lon="13.790898827839374"><ele>1144.0</ele><time>2026-04-18T12:25:52Z</time></trkpt><trkpt lat="41.80072928985322" lon="13.791052698846599"><ele>1144.0</ele><time>2026-04-18T12:25:53Z</time></trkpt><trkpt lat="41.80065361043715" lon="13.791178806973395"><ele>1144.0</ele><time>2026-04-18T12:25:54Z</time></trkpt><trkpt lat="41.80056555218859" lon="13.79130231125074"><ele>1144.0</ele><time>2026-04-18T12:25:55Z</time></trkpt><trkpt lat="41.80046006407367" lon="13.791418746983377"><ele>1144.0</ele><time>2026-04-18T12:25:56Z</time></trkpt><trkpt lat="41.80034443143009" lon="13.79152613736212"><ele>1144.0</ele><time>2026-04-18T12:25:57Z</time></trkpt><trkpt lat="41.80020703662617" lon="13.79162112509712"><ele>1143.3333333333333</ele><time>2026-04-18T12:25:58Z</time></trkpt><trkpt lat="41.80004302886582" lon="13.791716639233291"><ele>1142.6666666666667</ele><time>2026-04-18T12:25:59Z</time></trkpt><trkpt lat="41.79984740337953" lon="13.79180683682205"><ele>1142.0</ele><time>2026-04-18T12:26:00Z</time></trkpt><trkpt lat="41.79964730618976" lon="13.791910821422796"><ele>1141.0</ele><time>2026-04-18T12:26:01Z</time></trkpt><trkpt lat="41.79945037586729" lon="13.79202231470678"><ele>1140.0</ele><time>2026-04-18T12:26:02Z</time></trkpt><trkpt lat="41.799239897201254" lon="13.792128838182357"><ele>1139.0</ele><time>2026-04-18T12:26:03Z</time></trkpt><trkpt lat="41.79901787953724" lon="13.792235329890687"><ele>1139.0</ele><time>2026-04-18T12:26:04Z</time></trkpt><trkpt lat="41.79878850750461" lon="13.79234921933794"><ele>1139.0</ele><time>2026-04-18T12:26:05Z</time></trkpt><trkpt lat="41.79855588798805" lon="13.792463555105332"><ele>1139.5</ele><time>2026-04-18T12:26:06Z</time></trkpt><trkpt lat="41.79832282680049" lon="13.792584728144197"><ele>1140.0</ele><time>2026-04-18T12:26:07Z</time></trkpt><trkpt lat="41.79809309825634" lon="13.792705084553242"><ele>1140.0</ele><time>2026-04-18T12:26:08Z</time></trkpt><trkpt lat="41.797879170074815" lon="13.792815673633934"><ele>1140.0</ele><time>2026-04-18T12:26:09Z</time></trkpt><trkpt lat="41.7976748268683" lon="13.79292484402792"><ele>1140.0</ele><time>2026-04-18T12:26:10Z</time></trkpt><trkpt lat="41.79746748377204" lon="13.793034219956844"><ele>1139.3333333333333</ele><time>2026-04-18T12:26:11Z</time></trkpt><trkpt lat="41.79726605239851" lon="13.793151534709574"><ele>1138.6666666666665</ele><time>2026-04-18T12:26:12Z</time></trkpt><trkpt lat="41.79708288045895" lon="13.793271189753508"><ele>1138.0</ele><time>2026-04-18T12:26:13Z</time></trkpt><trkpt lat="41.79691691313634" lon="13.793394695158272"><ele>1138.5</ele><time>2026-04-18T12:26:14Z</time></trkpt><trkpt lat="41.79677421856314" lon="13.793510591736515"><ele>1139.0</ele><time>2026-04-18T12:26:15Z</time></trkpt><trkpt lat="41.79665841001026" lon="13.793605861395383"><ele>1139.5</ele><time>2026-04-18T12:26:16Z</time></trkpt><trkpt lat="41.79654753473982" lon="13.79369329458863"><ele>1140.0</ele><time>2026-04-18T12:26:17Z</time></trkpt><trkpt lat="41.79644087126359" lon="13.793773557853097"><ele>1140.0</ele><time>2026-04-18T12:26:18Z</time></trkpt><trkpt lat="41.79633747293592" lon="13.793847903029272"><ele>1140.0</ele><time>2026-04-18T12:26:19Z</time></trkpt><trkpt lat="41.79623398014822" lon="13.793928259672901"><ele>1140.0</ele><time>2026-04-18T12:26:20Z</time></trkpt><trkpt lat="41.79612730696667" lon="13.79401782157053"><ele>1140.0</ele><time>2026-04-18T12:26:21Z</time></trkpt><trkpt lat="41.7960066238835" lon="13.794114005870377"><ele>1139.3333333333333</ele><time>2026-04-18T12:26:22Z</time></trkpt><trkpt lat="41.79586418658144" lon="13.79421672611386"><ele>1138.6666666666665</ele><time>2026-04-18T12:26:23Z</time></trkpt><trkpt lat="41.795705394336345" lon="13.794325348339248"><ele>1138.0</ele><time>2026-04-18T12:26:24Z</time></trkpt><trkpt lat="41.79554446337402" lon="13.794444866483474"><ele>1137.3333333333333</ele><time>2026-04-18T12:26:25Z</time></trkpt><trkpt lat="41.795387730708164" lon="13.794561707453783"><ele>1136.6666666666667</ele><time>2026-04-18T12:26:26Z</time></trkpt><trkpt lat="41.79523593421822" lon="13.794670876736587"><ele>1136.0</ele><time>2026-04-18T12:26:27Z</time></trkpt><trkpt lat="41.79509122357143" lon="13.79477797804687"><ele>1136.0</ele><time>2026-04-18T12:26:28Z</time></trkpt><trkpt lat="41.79495453952284" lon="13.794879675052238"><ele>1136.0</ele><time>2026-04-18T12:26:29Z</time></trkpt><trkpt lat="41.79482362654269" lon="13.794986937178175"><ele>1136.0</ele><time>2026-04-18T12:26:30Z</time></trkpt><trkpt lat="41.794688588826666" lon="13.795087662094407"><ele>1137.25</ele><time>2026-04-18T12:26:31Z</time></trkpt><trkpt lat="41.79456307139461" lon="13.795187482751308"><ele>1138.5</ele><time>2026-04-18T12:26:32Z</time></trkpt><trkpt lat="41.79444228483472" lon="13.795291483914008"><ele>1139.75</ele><time>2026-04-18T12:26:33Z</time></trkpt><trkpt lat="41.79433028011458" lon="13.795406739065195"><ele>1141.0</ele><time>2026-04-18T12:26:34Z</time></trkpt><trkpt lat="41.79422351738472" lon="13.795536020200585"><ele>1141.0</ele><time>2026-04-18T12:26:35Z</time></trkpt><trkpt lat="41.79411608099834" lon="13.795687917519203"><ele>1141.0</ele><time>2026-04-18T12:26:36Z</time></trkpt><trkpt lat="41.794013906733475" lon="13.795847710224436"><ele>1141.0</ele><time>2026-04-18T12:26:37Z</time></trkpt><trkpt lat="41.793906131591655" lon="13.796009141467495"><ele>1144.0</ele><time>2026-04-18T12:26:38Z</time></trkpt><trkpt lat="41.793818990182515" lon="13.79617850119929"><ele>1147.0</ele><time>2026-04-18T12:26:39Z</time></trkpt><trkpt lat="41.793750701312725" lon="13.79634738587333"><ele>1150.0</ele><time>2026-04-18T12:26:40Z</time></trkpt><trkpt lat="41.79369254533552" lon="13.796518637609628"><ele>1153.0</ele><time>2026-04-18T12:26:41Z</time></trkpt><trkpt lat="41.79363800659382" lon="13.796704918730413"><ele>1156.6666666666665</ele><time>2026-04-18T12:26:42Z</time></trkpt><trkpt lat="41.79358917924331" lon="13.796916654392923"><ele>1160.3333333333333</ele><time>2026-04-18T12:26:43Z</time></trkpt><trkpt lat="41.793541452270105" lon="13.797152591869521"><ele>1164.0</ele><time>2026-04-18T12:26:44Z</time></trkpt><trkpt lat="41.793485675247624" lon="13.797407909694543"><ele>1154.6666666666667</ele><time>2026-04-18T12:26:45Z</time></trkpt><trkpt lat="41.793432071242535" lon="13.79766911576421"><ele>1145.3333333333335</ele><time>2026-04-18T12:26:46Z</time></trkpt><trkpt lat="41.79337232381114" lon="13.797941519269617"><ele>1136.0</ele><time>2026-04-18T12:26:47Z</time></trkpt><trkpt lat="41.79330156468889" lon="13.798217199872614"><ele>1137.5</ele><time>2026-04-18T12:26:48Z</time></trkpt><trkpt lat="41.793228284645544" lon="13.798506110947567"><ele>1139.0</ele><time>2026-04-18T12:26:49Z</time></trkpt><trkpt lat="41.793163486211476" lon="13.798798258410034"><ele>1139.0</ele><time>2026-04-18T12:26:50Z</time></trkpt><trkpt lat="41.793099305958656" lon="13.799089952461232"><ele>1139.0</ele><time>2026-04-18T12:26:51Z</time></trkpt><trkpt lat="41.79303625540098" lon="13.79938607351772"><ele>1140.5</ele><time>2026-04-18T12:26:52Z</time></trkpt><trkpt lat="41.79297521489096" lon="13.799684899036606"><ele>1142.0</ele><time>2026-04-18T12:26:53Z</time></trkpt><trkpt lat="41.79291118077279" lon="13.79998315513848"><ele>1140.5</ele><time>2026-04-18T12:26:54Z</time></trkpt><trkpt lat="41.79284587660148" lon="13.80027749407364"><ele>1139.0</ele><time>2026-04-18T12:26:55Z</time></trkpt><trkpt lat="41.792778049716645" lon="13.800575864885975"><ele>1139.0</ele><time>2026-04-18T12:26:56Z</time></trkpt><trkpt lat="41.79270806138598" lon="13.800874839767078"><ele>1139.0</ele><time>2026-04-18T12:26:57Z</time></trkpt><trkpt lat="41.792640925174446" lon="13.80117359407243"><ele>1134.0</ele><time>2026-04-18T12:26:58Z</time></trkpt><trkpt lat="41.79257481861094" lon="13.801472918388313"><ele>1129.0</ele><time>2026-04-18T12:26:59Z</time></trkpt><trkpt lat="41.79251069565219" lon="13.801771507247901"><ele>1131.0</ele><time>2026-04-18T12:27:00Z</time></trkpt><trkpt lat="41.79244551182327" lon="13.802069419006143"><ele>1133.0</ele><time>2026-04-18T12:27:01Z</time></trkpt><trkpt lat="41.79237510923212" lon="13.802364674950395"><ele>1133.0</ele><time>2026-04-18T12:27:02Z</time></trkpt><trkpt lat="41.79229990516975" lon="13.802658210466394"><ele>1133.0</ele><time>2026-04-18T12:27:03Z</time></trkpt><trkpt lat="41.792215661992806" lon="13.802951429463185"><ele>1138.5</ele><time>2026-04-18T12:27:04Z</time></trkpt><trkpt lat="41.79212241211644" lon="13.80324325230117"><ele>1144.0</ele><time>2026-04-18T12:27:05Z</time></trkpt><trkpt lat="41.79202731824126" lon="13.803539327954372"><ele>1147.5</ele><time>2026-04-18T12:27:06Z</time></trkpt><trkpt lat="41.79193504872245" lon="13.803840479133006"><ele>1151.0</ele><time>2026-04-18T12:27:07Z</time></trkpt><trkpt lat="41.791842264568295" lon="13.804143469824915"><ele>1140.0</ele><time>2026-04-18T12:27:08Z</time></trkpt><trkpt lat="41.791748952119235" lon="13.804435157518304"><ele>1129.0</ele><time>2026-04-18T12:27:09Z</time></trkpt><trkpt lat="41.791654722028525" lon="13.804718602545387"><ele>1129.0</ele><time>2026-04-18T12:27:10Z</time></trkpt><trkpt lat="41.79155021502802" lon="13.804999634758643"><ele>1129.0</ele><time>2026-04-18T12:27:11Z</time></trkpt><trkpt lat="41.79143017029287" lon="13.805280567083988"><ele>1133.5</ele><time>2026-04-18T12:27:12Z</time></trkpt><trkpt lat="41.79130255424794" lon="13.805562785708432"><ele>1138.0</ele><time>2026-04-18T12:27:13Z</time></trkpt><trkpt lat="41.791166821066696" lon="13.805845291633812"><ele>1133.5</ele><time>2026-04-18T12:27:14Z</time></trkpt><trkpt lat="41.79102853975089" lon="13.806129340340728"><ele>1129.0</ele><time>2026-04-18T12:27:15Z</time></trkpt><trkpt lat="41.79089205212441" lon="13.806418246625174"><ele>1129.0</ele><time>2026-04-18T12:27:16Z</time></trkpt><trkpt lat="41.79075360765291" lon="13.806706525973198"><ele>1129.0</ele><time>2026-04-18T12:27:17Z</time></trkpt><trkpt lat="41.790618400426744" lon="13.806994287037108"><ele>1133.5</ele><time>2026-04-18T12:27:18Z</time></trkpt><trkpt lat="41.790488578262334" lon="13.807267392747352"><ele>1138.0</ele><time>2026-04-18T12:27:19Z</time></trkpt><trkpt lat="41.79036371399591" lon="13.807537105248578"><ele>1142.5</ele><time>2026-04-18T12:27:20Z</time></trkpt><trkpt lat="41.79024221078295" lon="13.807814718362861"><ele>1147.0</ele><time>2026-04-18T12:27:21Z</time></trkpt><trkpt lat="41.79013711971615" lon="13.80810956656996"><ele>1137.0</ele><time>2026-04-18T12:27:22Z</time></trkpt><trkpt lat="41.79004166536417" lon="13.808415968788122"><ele>1127.0</ele><time>2026-04-18T12:27:23Z</time></trkpt><trkpt lat="41.78994482374454" lon="13.808725515806183"><ele>1127.0</ele><time>2026-04-18T12:27:24Z</time></trkpt><trkpt lat="41.78984539993364" lon="13.809038108176592"><ele>1127.0</ele><time>2026-04-18T12:27:25Z</time></trkpt><trkpt lat="41.78974199789991" lon="13.809354876041112"><ele>1129.0</ele><time>2026-04-18T12:27:26Z</time></trkpt><trkpt lat="41.789638436455334" lon="13.809677101887168"><ele>1131.0</ele><time>2026-04-18T12:27:27Z</time></trkpt><trkpt lat="41.7895347981799" lon="13.810001707906768"><ele>1135.0</ele><time>2026-04-18T12:27:28Z</time></trkpt><trkpt lat="41.789432100387955" lon="13.810324587687633"><ele>1139.0</ele><time>2026-04-18T12:27:29Z</time></trkpt><trkpt lat="41.78933318050597" lon="13.810644506297992"><ele>1131.0</ele><time>2026-04-18T12:27:30Z</time></trkpt><trkpt lat="41.789253868623526" lon="13.810974179007607"><ele>1123.0</ele><time>2026-04-18T12:27:31Z</time></trkpt><trkpt lat="41.78919069661309" lon="13.811307114256065"><ele>1123.0</ele><time>2026-04-18T12:27:32Z</time></trkpt><trkpt lat="41.789141992265456" lon="13.811651385513096"><ele>1123.0</ele><time>2026-04-18T12:27:33Z</time></trkpt><trkpt lat="41.78908916490437" lon="13.81198484103575"><ele>1125.0</ele><time>2026-04-18T12:27:34Z</time></trkpt><trkpt lat="41.78903745384788" lon="13.812309920497293"><ele>1127.0</ele><time>2026-04-18T12:27:35Z</time></trkpt><trkpt lat="41.78898642504207" lon="13.812622045564888"><ele>1127.6666666666667</ele><time>2026-04-18T12:27:36Z</time></trkpt><trkpt lat="41.7889366681537" lon="13.81291020625359"><ele>1128.3333333333333</ele><time>2026-04-18T12:27:37Z</time></trkpt><trkpt lat="41.78889111512193" lon="13.813181670987305"><ele>1129.0</ele><time>2026-04-18T12:27:38Z</time></trkpt><trkpt lat="41.78885501799169" lon="13.813440120093516"><ele>1128.6666666666665</ele><time>2026-04-18T12:27:39Z</time></trkpt><trkpt lat="41.788849598706705" lon="13.813700520018154"><ele>1128.3333333333333</ele><time>2026-04-18T12:27:40Z</time></trkpt><trkpt lat="41.78887705130383" lon="13.813967001243569"><ele>1128.0</ele><time>2026-04-18T12:27:41Z</time></trkpt><trkpt lat="41.78891378484876" lon="13.814218953266687"><ele>1126.3333333333333</ele><time>2026-04-18T12:27:42Z</time></trkpt><trkpt lat="41.78893559285961" lon="13.814448123181357"><ele>1124.6666666666665</ele><time>2026-04-18T12:27:43Z</time></trkpt><trkpt lat="41.7889263980526" lon="13.814671005216002"><ele>1123.0</ele><time>2026-04-18T12:27:44Z</time></trkpt><trkpt lat="41.78889105672205" lon="13.814884118573126"><ele>1123.0</ele><time>2026-04-18T12:27:45Z</time></trkpt><trkpt lat="41.788821016751996" lon="13.815095573623841"><ele>1123.0</ele><time>2026-04-18T12:27:46Z</time></trkpt><trkpt lat="41.788726618785375" lon="13.815304775036966"><ele>1123.0</ele><time>2026-04-18T12:27:47Z</time></trkpt><trkpt lat="41.78863048516883" lon="13.815525875206053"><ele>1122.3333333333333</ele><time>2026-04-18T12:27:48Z</time></trkpt><trkpt lat="41.78853307875145" lon="13.81575488991145"><ele>1121.6666666666667</ele><time>2026-04-18T12:27:49Z</time></trkpt><trkpt lat="41.78843199009463" lon="13.815986355365814"><ele>1121.0</ele><time>2026-04-18T12:27:50Z</time></trkpt><trkpt lat="41.78831655655531" lon="13.816210096256727"><ele>1121.0</ele><time>2026-04-18T12:27:51Z</time></trkpt><trkpt lat="41.78818723250099" lon="13.816425661179787"><ele>1121.0</ele><time>2026-04-18T12:27:52Z</time></trkpt><trkpt lat="41.78804301890045" lon="13.816634719556287"><ele>1121.0</ele><time>2026-04-18T12:27:53Z</time></trkpt><trkpt lat="41.7878877141964" lon="13.81684939684821"><ele>1120.5</ele><time>2026-04-18T12:27:54Z</time></trkpt><trkpt lat="41.787728610257986" lon="13.817072683550565"><ele>1120.0</ele><time>2026-04-18T12:27:55Z</time></trkpt><trkpt lat="41.78756331704219" lon="13.817296042909376"><ele>1120.0</ele><time>2026-04-18T12:27:56Z</time></trkpt><trkpt lat="41.787396746956155" lon="13.817513508273914"><ele>1120.0</ele><time>2026-04-18T12:27:57Z</time></trkpt><trkpt lat="41.78722605513892" lon="13.817734341558719"><ele>1127.5</ele><time>2026-04-18T12:27:58Z</time></trkpt><trkpt lat="41.78705321485428" lon="13.81795639765719"><ele>1135.0</ele><time>2026-04-18T12:27:59Z</time></trkpt><trkpt lat="41.78687961592091" lon="13.8181846333966"><ele>1133.0</ele><time>2026-04-18T12:28:00Z</time></trkpt><trkpt lat="41.786707407415676" lon="13.818409550732408"><ele>1131.0</ele><time>2026-04-18T12:28:01Z</time></trkpt><trkpt lat="41.78653280487406" lon="13.818633338468036"><ele>1131.0</ele><time>2026-04-18T12:28:02Z</time></trkpt><trkpt lat="41.786361163171364" lon="13.818850820245812"><ele>1131.0</ele><time>2026-04-18T12:28:03Z</time></trkpt><trkpt lat="41.78620868681955" lon="13.819058742930416"><ele>1131.0</ele><time>2026-04-18T12:28:04Z</time></trkpt><trkpt lat="41.78606383034433" lon="13.819256941961417"><ele>1131.0</ele><time>2026-04-18T12:28:05Z</time></trkpt><trkpt lat="41.78592519882989" lon="13.81945891640885"><ele>1131.0</ele><time>2026-04-18T12:28:06Z</time></trkpt><trkpt lat="41.78579245568446" lon="13.819677715081475"><ele>1131.0</ele><time>2026-04-18T12:28:07Z</time></trkpt><trkpt lat="41.785675143900804" lon="13.819921630714203"><ele>1131.0</ele><time>2026-04-18T12:28:08Z</time></trkpt><trkpt lat="41.78557318554864" lon="13.820200300467814"><ele>1131.0</ele><time>2026-04-18T12:28:09Z</time></trkpt><trkpt lat="41.78548270113912" lon="13.820493429241255"><ele>1131.0</ele><time>2026-04-18T12:28:10Z</time></trkpt><trkpt lat="41.785381913829625" lon="13.82078344868607"><ele>1131.0</ele><time>2026-04-18T12:28:11Z</time></trkpt><trkpt lat="41.78527119680451" lon="13.821072069505632"><ele>1123.0</ele><time>2026-04-18T12:28:12Z</time></trkpt><trkpt lat="41.78514962927871" lon="13.821353557444603"><ele>1115.0</ele><time>2026-04-18T12:28:13Z</time></trkpt><trkpt lat="41.78501483308582" lon="13.821626624095126"><ele>1123.0</ele><time>2026-04-18T12:28:14Z</time></trkpt><trkpt lat="41.78487694642176" lon="13.821896831347274"><ele>1131.0</ele><time>2026-04-18T12:28:15Z</time></trkpt><trkpt lat="41.78474125554639" lon="13.82217118855462"><ele>1131.0</ele><time>2026-04-18T12:28:16Z</time></trkpt><trkpt lat="41.784608388537535" lon="13.822444117515648"><ele>1131.0</ele><time>2026-04-18T12:28:17Z</time></trkpt><trkpt lat="41.78447719089837" lon="13.822712727222392"><ele>1124.5</ele><time>2026-04-18T12:28:18Z</time></trkpt><trkpt lat="41.784349375381545" lon="13.82297771177881"><ele>1118.0</ele><time>2026-04-18T12:28:19Z</time></trkpt><trkpt lat="41.78422545053561" lon="13.82324417325058"><ele>1124.0</ele><time>2026-04-18T12:28:20Z</time></trkpt><trkpt lat="41.7841021508278" lon="13.823510261540793"><ele>1130.0</ele><time>2026-04-18T12:28:21Z</time></trkpt><trkpt lat="41.78398088921443" lon="13.823780498490922"><ele>1130.0</ele><time>2026-04-18T12:28:22Z</time></trkpt><trkpt lat="41.7838580364524" lon="13.824050413102997"><ele>1130.0</ele><time>2026-04-18T12:28:23Z</time></trkpt><trkpt lat="41.783736777749404" lon="13.82432304514661"><ele>1141.5</ele><time>2026-04-18T12:28:24Z</time></trkpt><trkpt lat="41.783618589108805" lon="13.82459791297097"><ele>1153.0</ele><time>2026-04-18T12:28:25Z</time></trkpt><trkpt lat="41.78351385365477" lon="13.824857665072651"><ele>1143.3333333333333</ele><time>2026-04-18T12:28:26Z</time></trkpt><trkpt lat="41.78341828293417" lon="13.825104483318368"><ele>1133.6666666666667</ele><time>2026-04-18T12:28:27Z</time></trkpt><trkpt lat="41.783336651115214" lon="13.825344893998457"><ele>1124.0</ele><time>2026-04-18T12:28:28Z</time></trkpt><trkpt lat="41.783266027038195" lon="13.82556622510897"><ele>1124.0</ele><time>2026-04-18T12:28:29Z</time></trkpt><trkpt lat="41.78320268856127" lon="13.82576973893776"><ele>1124.0</ele><time>2026-04-18T12:28:30Z</time></trkpt><trkpt lat="41.783136957071655" lon="13.82596230989747"><ele>1124.0</ele><time>2026-04-18T12:28:31Z</time></trkpt><trkpt lat="41.78306340542692" lon="13.826132357356933"><ele>1122.75</ele><time>2026-04-18T12:28:32Z</time></trkpt><trkpt lat="41.78298672559109" lon="13.826257490540817"><ele>1121.5</ele><time>2026-04-18T12:28:33Z</time></trkpt><trkpt lat="41.782899476813874" lon="13.826345882416646"><ele>1120.25</ele><time>2026-04-18T12:28:34Z</time></trkpt><trkpt lat="41.78278613451365" lon="13.82639191756999"><ele>1119.0</ele><time>2026-04-18T12:28:35Z</time></trkpt><trkpt lat="41.78265150023722" lon="13.826402638129036"><ele>1119.0</ele><time>2026-04-18T12:28:36Z</time></trkpt><trkpt lat="41.782508601444675" lon="13.826408616499009"><ele>1119.0</ele><time>2026-04-18T12:28:37Z</time></trkpt><trkpt lat="41.782358217785266" lon="13.826429013970131"><ele>1119.0</ele><time>2026-04-18T12:28:38Z</time></trkpt><trkpt lat="41.78219994286244" lon="13.826462395467864"><ele>1119.0</ele><time>2026-04-18T12:28:39Z</time></trkpt><trkpt lat="41.78202477625566" lon="13.826489719494154"><ele>1119.0</ele><time>2026-04-18T12:28:40Z</time></trkpt><trkpt lat="41.78184785087621" lon="13.826520966910765"><ele>1119.0</ele><time>2026-04-18T12:28:41Z</time></trkpt><trkpt lat="41.781667272185764" lon="13.826554896072128"><ele>1119.0</ele><time>2026-04-18T12:28:42Z</time></trkpt><trkpt lat="41.78148093879943" lon="13.826593904974487"><ele>1119.0</ele><time>2026-04-18T12:28:43Z</time></trkpt><trkpt lat="41.78130005255385" lon="13.826647831240036"><ele>1119.0</ele><time>2026-04-18T12:28:44Z</time></trkpt><trkpt lat="41.781115957573554" lon="13.82670778024194"><ele>1118.3333333333333</ele><time>2026-04-18T12:28:45Z</time></trkpt><trkpt lat="41.780935158183404" lon="13.826781475343005"><ele>1117.6666666666665</ele><time>2026-04-18T12:28:46Z</time></trkpt><trkpt lat="41.78075413461319" lon="13.826850719802659"><ele>1117.0</ele><time>2026-04-18T12:28:47Z</time></trkpt><trkpt lat="41.780570811435986" lon="13.82691995740699"><ele>1122.0</ele><time>2026-04-18T12:28:48Z</time></trkpt><trkpt lat="41.78039135368388" lon="13.827017865588648"><ele>1127.0</ele><time>2026-04-18T12:28:49Z</time></trkpt><trkpt lat="41.780211741047694" lon="13.827148055132772"><ele>1132.0</ele><time>2026-04-18T12:28:50Z</time></trkpt><trkpt lat="41.780028450951825" lon="13.827290453252239"><ele>1132.0</ele><time>2026-04-18T12:28:51Z</time></trkpt><trkpt lat="41.77983226321749" lon="13.827435772863778"><ele>1132.0</ele><time>2026-04-18T12:28:52Z</time></trkpt><trkpt lat="41.77962863661839" lon="13.827581762868274"><ele>1134.0</ele><time>2026-04-18T12:28:53Z</time></trkpt><trkpt lat="41.77942836492444" lon="13.827727794074423"><ele>1136.0</ele><time>2026-04-18T12:28:54Z</time></trkpt><trkpt lat="41.779228833074164" lon="13.827873236342464"><ele>1136.0</ele><time>2026-04-18T12:28:55Z</time></trkpt><trkpt lat="41.77903000495918" lon="13.828014693229692"><ele>1136.0</ele><time>2026-04-18T12:28:56Z</time></trkpt><trkpt lat="41.77883187791089" lon="13.828150428547087"><ele>1136.0</ele><time>2026-04-18T12:28:57Z</time></trkpt><trkpt lat="41.7786319100281" lon="13.828273609898206"><ele>1132.6666666666667</ele><time>2026-04-18T12:28:58Z</time></trkpt><trkpt lat="41.77843398620253" lon="13.82839084577147"><ele>1129.3333333333333</ele><time>2026-04-18T12:28:59Z</time></trkpt><trkpt lat="41.778245437886746" lon="13.828507577988953"><ele>1126.0</ele><time>2026-04-18T12:29:00Z</time></trkpt><trkpt lat="41.778064916459854" lon="13.828620267727212"><ele>1129.6666666666665</ele><time>2026-04-18T12:29:01Z</time></trkpt><trkpt lat="41.77788694456677" lon="13.828727480335132"><ele>1133.3333333333333</ele><time>2026-04-18T12:29:02Z</time></trkpt><trkpt lat="41.77771223577405" lon="13.828836063966653"><ele>1137.0</ele><time>2026-04-18T12:29:03Z</time></trkpt><trkpt lat="41.77753738684765" lon="13.828939331495942"><ele>1137.0</ele><time>2026-04-18T12:29:04Z</time></trkpt><trkpt lat="41.777360417989215" lon="13.829035360297407"><ele>1137.0</ele><time>2026-04-18T12:29:05Z</time></trkpt><trkpt lat="41.77718569436672" lon="13.829127173045423"><ele>1137.0</ele><time>2026-04-18T12:29:06Z</time></trkpt><trkpt lat="41.77701221193625" lon="13.829211365291963"><ele>1135.0</ele><time>2026-04-18T12:29:07Z</time></trkpt><trkpt lat="41.776836952213486" lon="13.82928606913711"><ele>1133.0</ele><time>2026-04-18T12:29:08Z</time></trkpt><trkpt lat="41.776664732812655" lon="13.82935727859814"><ele>1131.0</ele><time>2026-04-18T12:29:09Z</time></trkpt><trkpt lat="41.77649906359848" lon="13.829424404105886"><ele>1133.5</ele><time>2026-04-18T12:29:10Z</time></trkpt><trkpt lat="41.77634051766771" lon="13.829479386313446"><ele>1136.0</ele><time>2026-04-18T12:29:11Z</time></trkpt><trkpt lat="41.77619931880234" lon="13.829528703132816"><ele>1138.5</ele><time>2026-04-18T12:29:12Z</time></trkpt><trkpt lat="41.77606995294029" lon="13.82957881241717"><ele>1141.0</ele><time>2026-04-18T12:29:13Z</time></trkpt><trkpt lat="41.77594950093593" lon="13.829623093233334"><ele>1141.0</ele><time>2026-04-18T12:29:14Z</time></trkpt><trkpt lat="41.775839646965736" lon="13.829662693315724"><ele>1141.0</ele><time>2026-04-18T12:29:15Z</time></trkpt><trkpt lat="41.77574549890004" lon="13.82969728257173"><ele>1141.0</ele><time>2026-04-18T12:29:16Z</time></trkpt><trkpt lat="41.775673780260895" lon="13.829725238684711"><ele>1141.0</ele><time>2026-04-18T12:29:17Z</time></trkpt><trkpt lat="41.77561077206324" lon="13.82975266676871"><ele>1141.0</ele><time>2026-04-18T12:29:18Z</time></trkpt><trkpt lat="41.775502974382775" lon="13.829775233418141"><ele>1141.0</ele><time>2026-04-18T12:29:20Z</time></trkpt><trkpt lat="41.77541334115755" lon="13.829767771264626"><ele>1141.0</ele><time>2026-04-18T12:29:22Z</time></trkpt><trkpt lat="41.77533246948887" lon="13.82976887981112"><ele>1141.0</ele><time>2026-04-18T12:29:25Z</time></trkpt><trkpt lat="41.77528458876633" lon="13.829835600010112"><ele>1141.0</ele><time>2026-04-18T12:29:27Z</time></trkpt><trkpt lat="41.77526765751456" lon="13.829926859308815"><ele>1141.0</ele><time>2026-04-18T12:29:29Z</time></trkpt><trkpt lat="41.77520751422253" lon="13.829998343735651"><ele>1141.0</ele><time>2026-04-18T12:29:45Z</time></trkpt><trkpt lat="41.77527851425" lon="13.829994114221327"><ele>1141.0</ele><time>2026-04-18T12:31:06Z</time></trkpt><trkpt lat="41.775275587316294" lon="13.829905126670603"><ele>1141.0</ele><time>2026-04-18T12:31:13Z</time></trkpt><trkpt lat="41.775198472934626" lon="13.82987590309132"><ele>1141.0</ele><time>2026-04-18T12:31:56Z</time></trkpt><trkpt lat="41.77514566254237" lon="13.829823313807536"><ele>1141.0</ele><time>2026-04-18T12:32:07Z</time></trkpt><trkpt lat="41.775226839802635" lon="13.829788249524709"><ele>1141.0</ele><time>2026-04-18T12:32:24Z</time></trkpt><trkpt lat="41.7751795870451" lon="13.82988777274116"><ele>1141.0</ele><time>2026-04-18T12:32:35Z</time></trkpt><trkpt lat="41.77513487313085" lon="13.82982776633727"><ele>1141.0</ele><time>2026-04-18T12:32:38Z</time></trkpt><trkpt lat="41.775139667668135" lon="13.829735096454366"><ele>1141.0</ele><time>2026-04-18T12:32:39Z</time></trkpt><trkpt lat="41.77522439254428" lon="13.829719243780398"><ele>1141.0</ele><time>2026-04-18T12:33:15Z</time></trkpt><trkpt lat="41.775163377732945" lon="13.829765711269992"><ele>1141.0</ele><time>2026-04-18T12:33:33Z</time></trkpt><trkpt lat="41.77512188890804" lon="13.829832132830598"><ele>1141.0</ele><time>2026-04-18T12:34:36Z</time></trkpt><trkpt lat="41.77518220392735" lon="13.82977079239607"><ele>1141.0</ele><time>2026-04-18T12:35:12Z</time></trkpt><trkpt lat="41.77496662444711" lon="13.829909018152414"><ele>1141.0</ele><time>2026-04-18T12:35:38.033Z</time></trkpt><trkpt lat="41.77516223750159" lon="13.829830695065947"><ele>1141.0</ele><time>2026-04-18T12:35:40.034Z</time></trkpt><trkpt lat="41.775094015759294" lon="13.829763721204554"><ele>1141.0</ele><time>2026-04-18T12:38:15.018Z</time></trkpt><trkpt lat="41.77529442294125" lon="13.829886732154144"><ele>1141.0</ele><time>2026-04-18T12:38:42.356Z</time></trkpt><trkpt lat="41.77534612184781" lon="13.829793608640404"><ele>1141.0</ele><time>2026-04-18T12:43:45.014Z</time></trkpt><trkpt lat="41.77541874906913" lon="13.829778070375099"><ele>1141.0</ele><time>2026-04-18T12:43:57.013Z</time></trkpt><trkpt lat="41.77544932493165" lon="13.82989308339422"><ele>1141.0</ele><time>2026-04-18T12:45:43.831Z</time></trkpt><trkpt lat="41.775392855689795" lon="13.829806428954486"><ele>1141.0</ele><time>2026-04-18T12:46:25.013Z</time></trkpt><trkpt lat="41.77538421775539" lon="13.82970213470957"><ele>1141.0</ele><time>2026-04-18T12:46:34.013Z</time></trkpt><trkpt lat="41.775323359244425" lon="13.829647771806842"><ele>1141.0</ele><time>2026-04-18T12:46:48.015Z</time></trkpt><trkpt lat="41.7751969844003" lon="13.829734545890247"><ele>1141.0</ele><time>2026-04-18T12:46:58.013Z</time></trkpt><trkpt lat="41.775086993764035" lon="13.829756665362057"><ele>1141.0</ele><time>2026-04-18T12:47:07.015Z</time></trkpt><trkpt lat="41.775019017530155" lon="13.829726715001978"><ele>1141.0</ele><time>2026-04-18T12:47:13.013Z</time></trkpt><trkpt lat="41.77508888903063" lon="13.829767948608442"><ele>1141.0</ele><time>2026-04-18T12:47:15.013Z</time></trkpt><trkpt lat="41.77517215351717" lon="13.829772859416554"><ele>1141.0</ele><time>2026-04-18T12:47:29.013Z</time></trkpt><trkpt lat="41.775242875753875" lon="13.829805196312625"><ele>1141.0</ele><time>2026-04-18T12:47:31.013Z</time></trkpt><trkpt lat="41.77531430521684" lon="13.829877192795784"><ele>1141.0</ele><time>2026-04-18T12:47:49.015Z</time></trkpt><trkpt lat="41.7752614550749" lon="13.829829859069207"><ele>1141.0</ele><time>2026-04-18T12:48:01.016Z</time></trkpt><trkpt lat="41.775306753925356" lon="13.829771063509972"><ele>1141.0</ele><time>2026-04-18T12:48:48.014Z</time></trkpt><trkpt lat="41.77536852738133" lon="13.829797865339412"><ele>1141.0</ele><time>2026-04-18T12:48:52.014Z</time></trkpt><trkpt lat="41.77528779650087" lon="13.829730667996905"><ele>1141.0</ele><time>2026-04-18T12:48:59.017Z</time></trkpt><trkpt lat="41.775230040449976" lon="13.82965480763659"><ele>1141.0</ele><time>2026-04-18T12:49:03.014Z</time></trkpt><trkpt lat="41.775252646432406" lon="13.829749570366104"><ele>1141.0</ele><time>2026-04-18T12:49:14.014Z</time></trkpt><trkpt lat="41.775240302414566" lon="13.829884841961256"><ele>1141.0</ele><time>2026-04-18T13:00:04Z</time></trkpt><trkpt lat="41.775156908641414" lon="13.829797443439446"><ele>1141.0</ele><time>2026-04-18T13:00:40Z</time></trkpt><trkpt lat="41.77510336429776" lon="13.829739423701458"><ele>1141.0</ele><time>2026-04-18T13:00:45Z</time></trkpt><trkpt lat="41.77515945637513" lon="13.829674581866497"><ele>1141.0</ele><time>2026-04-18T13:00:48Z</time></trkpt><trkpt lat="41.775226850596674" lon="13.829688699906228"><ele>1141.0</ele><time>2026-04-18T13:00:54Z</time></trkpt><trkpt lat="41.77528253009269" lon="13.829767927879606"><ele>1141.0</ele><time>2026-04-18T13:00:59Z</time></trkpt><trkpt lat="41.77534249506667" lon="13.829804267285322"><ele>1141.0</ele><time>2026-04-18T13:01:01Z</time></trkpt><trkpt lat="41.775406482901886" lon="13.829787456371916"><ele>1141.0</ele><time>2026-04-18T13:01:33Z</time></trkpt><trkpt lat="41.775527136265914" lon="13.82984534483755"><ele>1141.0</ele><time>2026-04-18T13:02:49Z</time></trkpt><trkpt lat="41.77537802506459" lon="13.82991546895315"><ele>1141.0</ele><time>2026-04-18T13:03:18Z</time></trkpt><trkpt lat="41.77541079453675" lon="13.829991002034479"><ele>1141.0</ele><time>2026-04-18T13:04:16.048Z</time></trkpt><trkpt lat="41.77546289924661" lon="13.82992146980286"><ele>1141.0</ele><time>2026-04-18T14:01:27.981Z</time></trkpt><trkpt lat="41.77525601073468" lon="13.829828949681792"><ele>1141.0</ele><time>2026-04-18T14:01:29.981Z</time></trkpt><trkpt lat="41.775192841079935" lon="13.829841341893388"><ele>1141.0</ele><time>2026-04-18T14:02:53Z</time></trkpt><trkpt lat="41.77513200089246" lon="13.829800386935242"><ele>1141.0</ele><time>2026-04-18T14:06:56Z</time></trkpt><trkpt lat="41.77518410442962" lon="13.829742259940847"><ele>1141.0</ele><time>2026-04-18T14:07:04Z</time></trkpt><trkpt lat="41.77513126090063" lon="13.829801982785657"><ele>1141.0</ele><time>2026-04-18T14:08:55Z</time></trkpt><trkpt lat="41.77527756965899" lon="13.829886258862103"><ele>1141.0</ele><time>2026-04-18T14:09:53Z</time></trkpt><trkpt lat="41.77525896007248" lon="13.829984685191514"><ele>1141.0</ele><time>2026-04-18T14:10:17Z</time></trkpt><trkpt lat="41.77520704895286" lon="13.830037024203813"><ele>1141.0</ele><time>2026-04-18T14:10:25Z</time></trkpt><trkpt lat="41.77533251221073" lon="13.830000616580687"><ele>1141.0</ele><time>2026-04-18T14:18:30Z</time></trkpt><trkpt lat="41.77539825415486" lon="13.830040338172632"><ele>1141.0</ele><time>2026-04-18T14:18:32Z</time></trkpt><trkpt lat="41.77545790555777" lon="13.830010117497944"><ele>1141.0</ele><time>2026-04-18T14:18:35Z</time></trkpt><trkpt lat="41.775439502908064" lon="13.829926730575595"><ele>1141.0</ele><time>2026-04-18T14:18:37Z</time></trkpt><trkpt lat="41.77540856341281" lon="13.829849497679364"><ele>1141.0</ele><time>2026-04-18T14:18:39Z</time></trkpt><trkpt lat="41.77538019669434" lon="13.829733463314415"><ele>1141.0</ele><time>2026-04-18T14:18:41Z</time></trkpt><trkpt lat="41.775343254927236" lon="13.829653218537128"><ele>1141.0</ele><time>2026-04-18T14:18:45Z</time></trkpt><trkpt lat="41.77529143470523" lon="13.829545023996147"><ele>1141.0</ele><time>2026-04-18T14:19:13Z</time></trkpt><trkpt lat="41.77525623117236" lon="13.82942311906683"><ele>1141.0</ele><time>2026-04-18T14:19:15Z</time></trkpt><trkpt lat="41.775239215853496" lon="13.829329684193906"><ele>1141.0</ele><time>2026-04-18T14:19:16Z</time></trkpt><trkpt lat="41.77521746893063" lon="13.829225645900646"><ele>1141.0</ele><time>2026-04-18T14:19:17Z</time></trkpt><trkpt lat="41.7751953045563" lon="13.829127906844784"><ele>1141.0</ele><time>2026-04-18T14:19:18Z</time></trkpt><trkpt lat="41.77517524274561" lon="13.82902067637721"><ele>1141.0</ele><time>2026-04-18T14:19:19Z</time></trkpt><trkpt lat="41.775156444921" lon="13.828905511018393"><ele>1141.2</ele><time>2026-04-18T14:19:20Z</time></trkpt><trkpt lat="41.775156731615425" lon="13.8287759328017"><ele>1141.3999999999999</ele><time>2026-04-18T14:19:21Z</time></trkpt><trkpt lat="41.7751775321076" lon="13.828636600209578"><ele>1141.6</ele><time>2026-04-18T14:19:22Z</time></trkpt><trkpt lat="41.77523092525011" lon="13.82850392566605"><ele>1141.8</ele><time>2026-04-18T14:19:23Z</time></trkpt><trkpt lat="41.77529936090597" lon="13.82837501753865"><ele>1142.0</ele><time>2026-04-18T14:19:24Z</time></trkpt><trkpt lat="41.77536977120535" lon="13.82823743857895"><ele>1142.0</ele><time>2026-04-18T14:19:25Z</time></trkpt><trkpt lat="41.77544767293697" lon="13.828081968992569"><ele>1142.0</ele><time>2026-04-18T14:19:26Z</time></trkpt><trkpt lat="41.775508238176805" lon="13.827932962437067"><ele>1142.0</ele><time>2026-04-18T14:19:27Z</time></trkpt><trkpt lat="41.775576401360844" lon="13.827769284882196"><ele>1142.0</ele><time>2026-04-18T14:19:28Z</time></trkpt><trkpt lat="41.775650154633794" lon="13.827599471459562"><ele>1142.0</ele><time>2026-04-18T14:19:29Z</time></trkpt><trkpt lat="41.77572295349724" lon="13.827439338613676"><ele>1142.0</ele><time>2026-04-18T14:19:30Z</time></trkpt><trkpt lat="41.77579815898903" lon="13.827272571277899"><ele>1142.0</ele><time>2026-04-18T14:19:31Z</time></trkpt><trkpt lat="41.775874846362" lon="13.827111114013258"><ele>1142.0</ele><time>2026-04-18T14:19:32Z</time></trkpt><trkpt lat="41.77594685967126" lon="13.82694446635872"><ele>1140.0</ele><time>2026-04-18T14:19:33Z</time></trkpt><trkpt lat="41.77601794315407" lon="13.826778428991318"><ele>1138.0</ele><time>2026-04-18T14:19:34Z</time></trkpt><trkpt lat="41.776091609469624" lon="13.82661554595215"><ele>1136.0</ele><time>2026-04-18T14:19:35Z</time></trkpt><trkpt lat="41.77617316140646" lon="13.82644986019674"><ele>1134.0</ele><time>2026-04-18T14:19:36Z</time></trkpt><trkpt lat="41.776255129661685" lon="13.826271649264333"><ele>1134.0</ele><time>2026-04-18T14:19:37Z</time></trkpt><trkpt lat="41.77633743606325" lon="13.826084675292371"><ele>1134.0</ele><time>2026-04-18T14:19:38Z</time></trkpt><trkpt lat="41.77642501886194" lon="13.825900598347324"><ele>1134.0</ele><time>2026-04-18T14:19:39Z</time></trkpt><trkpt lat="41.77651428075226" lon="13.825717434189919"><ele>1139.0</ele><time>2026-04-18T14:19:40Z</time></trkpt><trkpt lat="41.77661765577363" lon="13.825546631483327"><ele>1144.0</ele><time>2026-04-18T14:19:41Z</time></trkpt><trkpt lat="41.77672886546631" lon="13.82538249051448"><ele>1149.0</ele><time>2026-04-18T14:19:42Z</time></trkpt><trkpt lat="41.77684525310339" lon="13.82522685398181"><ele>1147.3333333333333</ele><time>2026-04-18T14:19:43Z</time></trkpt><trkpt lat="41.77696161735162" lon="13.825070302852575"><ele>1145.6666666666665</ele><time>2026-04-18T14:19:44Z</time></trkpt><trkpt lat="41.7770721376811" lon="13.824905987431135"><ele>1144.0</ele><time>2026-04-18T14:19:45Z</time></trkpt><trkpt lat="41.77717468281012" lon="13.824735644986434"><ele>1144.0</ele><time>2026-04-18T14:19:46Z</time></trkpt><trkpt lat="41.77726961426419" lon="13.824557858334071"><ele>1144.0</ele><time>2026-04-18T14:19:47Z</time></trkpt><trkpt lat="41.77735415827312" lon="13.824374581559878"><ele>1144.0</ele><time>2026-04-18T14:19:48Z</time></trkpt><trkpt lat="41.77743410934315" lon="13.824192664576858"><ele>1142.5</ele><time>2026-04-18T14:19:49Z</time></trkpt><trkpt lat="41.77751777693731" lon="13.824012979628764"><ele>1141.0</ele><time>2026-04-18T14:19:50Z</time></trkpt><trkpt lat="41.7775929569771" lon="13.823853940753203"><ele>1139.5</ele><time>2026-04-18T14:19:51Z</time></trkpt><trkpt lat="41.77766725348693" lon="13.823702817059326"><ele>1138.0</ele><time>2026-04-18T14:19:52Z</time></trkpt><trkpt lat="41.77775068276725" lon="13.823554323234841"><ele>1145.0</ele><time>2026-04-18T14:19:53Z</time></trkpt><trkpt lat="41.77785499067823" lon="13.8234123261366"><ele>1152.0</ele><time>2026-04-18T14:19:54Z</time></trkpt><trkpt lat="41.7779708183905" lon="13.823269320557872"><ele>1159.0</ele><time>2026-04-18T14:19:55Z</time></trkpt><trkpt lat="41.77808523970017" lon="13.823117367118305"><ele>1159.0</ele><time>2026-04-18T14:19:56Z</time></trkpt><trkpt lat="41.77820094102947" lon="13.822964453696777"><ele>1159.0</ele><time>2026-04-18T14:19:57Z</time></trkpt><trkpt lat="41.77831657156152" lon="13.822808459020369"><ele>1159.0</ele><time>2026-04-18T14:19:58Z</time></trkpt><trkpt lat="41.778432927994785" lon="13.822656358363487"><ele>1155.6666666666665</ele><time>2026-04-18T14:19:59Z</time></trkpt><trkpt lat="41.77854611442827" lon="13.822491067278388"><ele>1152.3333333333333</ele><time>2026-04-18T14:20:00Z</time></trkpt><trkpt lat="41.778661463263546" lon="13.82230399580904"><ele>1149.0</ele><time>2026-04-18T14:20:01Z</time></trkpt><trkpt lat="41.77876538906277" lon="13.822114753930885"><ele>1149.0</ele><time>2026-04-18T14:20:02Z</time></trkpt><trkpt lat="41.77885116710086" lon="13.82194685745685"><ele>1149.0</ele><time>2026-04-18T14:20:03Z</time></trkpt><trkpt lat="41.778927120668946" lon="13.821791620672919"><ele>1149.0</ele><time>2026-04-18T14:20:04Z</time></trkpt><trkpt lat="41.77900593955801" lon="13.821633829588125"><ele>1149.0</ele><time>2026-04-18T14:20:05Z</time></trkpt><trkpt lat="41.77907820162811" lon="13.82148725014222"><ele>1148.0</ele><time>2026-04-18T14:20:06Z</time></trkpt><trkpt lat="41.779146402810596" lon="13.821366571240194"><ele>1147.0</ele><time>2026-04-18T14:20:07Z</time></trkpt><trkpt lat="41.779214402482616" lon="13.82128356317837"><ele>1146.0</ele><time>2026-04-18T14:20:08Z</time></trkpt><trkpt lat="41.77928190911658" lon="13.821222469674879"><ele>1145.0</ele><time>2026-04-18T14:20:09Z</time></trkpt><trkpt lat="41.77934706401548" lon="13.821162002891604"><ele>1144.0</ele><time>2026-04-18T14:20:10Z</time></trkpt><trkpt lat="41.77939598865233" lon="13.821108706661354"><ele>1143.0</ele><time>2026-04-18T14:20:11Z</time></trkpt><trkpt lat="41.77944503931028" lon="13.820985631716109"><ele>1145.6</ele><time>2026-04-18T14:20:13Z</time></trkpt><trkpt lat="41.779450075378094" lon="13.820901181077215"><ele>1148.1999999999998</ele><time>2026-04-18T14:20:14Z</time></trkpt><trkpt lat="41.77937157111187" lon="13.820776260429978"><ele>1150.8</ele><time>2026-04-18T14:20:16Z</time></trkpt><trkpt lat="41.77925123123332" lon="13.82077000699965"><ele>1153.3999999999999</ele><time>2026-04-18T14:20:18Z</time></trkpt><trkpt lat="41.779179394424666" lon="13.820806029366818"><ele>1156.0</ele><time>2026-04-18T14:20:19Z</time></trkpt><trkpt lat="41.77913574614011" lon="13.82089532711013"><ele>1159.0</ele><time>2026-04-18T14:20:20Z</time></trkpt><trkpt lat="41.77906417046566" lon="13.821038332372634"><ele>1162.0</ele><time>2026-04-18T14:20:22Z</time></trkpt><trkpt lat="41.77901396974167" lon="13.821142244277167"><ele>1165.0</ele><time>2026-04-18T14:20:23Z</time></trkpt><trkpt lat="41.77895732601288" lon="13.821260964471655"><ele>1168.0</ele><time>2026-04-18T14:20:24Z</time></trkpt><trkpt lat="41.77889717748987" lon="13.821386810490523"><ele>1171.0</ele><time>2026-04-18T14:20:25Z</time></trkpt><trkpt lat="41.778829646097876" lon="13.821525071965265"><ele>1171.0</ele><time>2026-04-18T14:20:26Z</time></trkpt><trkpt lat="41.778756239706546" lon="13.821690419856843"><ele>1171.0</ele><time>2026-04-18T14:20:27Z</time></trkpt><trkpt lat="41.778641571482524" lon="13.821834745306623"><ele>1171.0</ele><time>2026-04-18T14:20:28Z</time></trkpt><trkpt lat="41.778523271039774" lon="13.821974963401368"><ele>1176.3333333333333</ele><time>2026-04-18T14:20:29Z</time></trkpt><trkpt lat="41.778392984917964" lon="13.822116421975895"><ele>1181.6666666666667</ele><time>2026-04-18T14:20:30Z</time></trkpt><trkpt lat="41.778276085325615" lon="13.822291143771853"><ele>1187.0</ele><time>2026-04-18T14:20:31Z</time></trkpt><trkpt lat="41.77813900619929" lon="13.822478731519267"><ele>1189.3333333333335</ele><time>2026-04-18T14:20:32Z</time></trkpt><trkpt lat="41.77799477882776" lon="13.822669276141097"><ele>1191.6666666666667</ele><time>2026-04-18T14:20:33Z</time></trkpt><trkpt lat="41.77783347820237" lon="13.822833878526955"><ele>1194.0</ele><time>2026-04-18T14:20:34Z</time></trkpt><trkpt lat="41.777664378557716" lon="13.822990724268841"><ele>1194.0</ele><time>2026-04-18T14:20:35Z</time></trkpt><trkpt lat="41.77749141966827" lon="13.82314220455889"><ele>1194.0</ele><time>2026-04-18T14:20:36Z</time></trkpt><trkpt lat="41.77733325432102" lon="13.823279911149024"><ele>1194.0</ele><time>2026-04-18T14:20:37Z</time></trkpt><trkpt lat="41.7772213767805" lon="13.823368984876513"><ele>1194.0</ele><time>2026-04-18T14:20:38Z</time></trkpt><trkpt lat="41.777107524277916" lon="13.823448985798498"><ele>1194.0</ele><time>2026-04-18T14:20:39Z</time></trkpt><trkpt lat="41.77699295712872" lon="13.823525254251056"><ele>1194.0</ele><time>2026-04-18T14:20:40Z</time></trkpt><trkpt lat="41.776891927155226" lon="13.823600921955096"><ele>1194.0</ele><time>2026-04-18T14:20:41Z</time></trkpt><trkpt lat="41.77681897869003" lon="13.823705037356147"><ele>1197.75</ele><time>2026-04-18T14:20:42Z</time></trkpt><trkpt lat="41.77676263957837" lon="13.823868505183265"><ele>1201.5</ele><time>2026-04-18T14:20:43Z</time></trkpt><trkpt lat="41.77670299788169" lon="13.82405290240201"><ele>1205.25</ele><time>2026-04-18T14:20:44Z</time></trkpt><trkpt lat="41.776611223437015" lon="13.824203574649662"><ele>1209.0</ele><time>2026-04-18T14:20:45Z</time></trkpt><trkpt lat="41.77652071332055" lon="13.824345323183136"><ele>1200.75</ele><time>2026-04-18T14:20:46Z</time></trkpt><trkpt lat="41.77642730424952" lon="13.824479034433772"><ele>1192.5</ele><time>2026-04-18T14:20:47Z</time></trkpt><trkpt lat="41.77631909714728" lon="13.824589758564777"><ele>1184.25</ele><time>2026-04-18T14:20:48Z</time></trkpt><trkpt lat="41.776194702967125" lon="13.824692439785975"><ele>1176.0</ele><time>2026-04-18T14:20:49Z</time></trkpt><trkpt lat="41.77605837798811" lon="13.824806673646584"><ele>1177.0</ele><time>2026-04-18T14:20:50Z</time></trkpt><trkpt lat="41.7758931212179" lon="13.824881524921564"><ele>1178.0</ele><time>2026-04-18T14:20:51Z</time></trkpt><trkpt lat="41.77575582340079" lon="13.824995942049448"><ele>1179.0</ele><time>2026-04-18T14:20:52Z</time></trkpt><trkpt lat="41.77560844352679" lon="13.82514990621704"><ele>1179.0</ele><time>2026-04-18T14:20:53Z</time></trkpt><trkpt lat="41.775470120756" lon="13.825312031909124"><ele>1179.0</ele><time>2026-04-18T14:20:54Z</time></trkpt><trkpt lat="41.77532197671847" lon="13.825437525035598"><ele>1179.0</ele><time>2026-04-18T14:20:55Z</time></trkpt><trkpt lat="41.775169532056985" lon="13.825532535080589"><ele>1186.5</ele><time>2026-04-18T14:20:56Z</time></trkpt><trkpt lat="41.77501119957921" lon="13.825570800463812"><ele>1194.0</ele><time>2026-04-18T14:20:57Z</time></trkpt><trkpt lat="41.77489240678874" lon="13.825627693712384"><ele>1201.5</ele><time>2026-04-18T14:20:58Z</time></trkpt><trkpt lat="41.77479314251167" lon="13.825709609243638"><ele>1209.0</ele><time>2026-04-18T14:20:59Z</time></trkpt><trkpt lat="41.774694975553636" lon="13.825834749717254"><ele>1201.0</ele><time>2026-04-18T14:21:00Z</time></trkpt><trkpt lat="41.774601601747314" lon="13.82599665229753"><ele>1193.0</ele><time>2026-04-18T14:21:01Z</time></trkpt><trkpt lat="41.77454391872633" lon="13.826196141127388"><ele>1185.0</ele><time>2026-04-18T14:21:02Z</time></trkpt><trkpt lat="41.77445887997448" lon="13.826383639235768"><ele>1185.0</ele><time>2026-04-18T14:21:03Z</time></trkpt><trkpt lat="41.774390428262286" lon="13.826559464660134"><ele>1185.0</ele><time>2026-04-18T14:21:04Z</time></trkpt><trkpt lat="41.77431474168664" lon="13.826711008761627"><ele>1185.0</ele><time>2026-04-18T14:21:05Z</time></trkpt><trkpt lat="41.774225801639766" lon="13.826860264115767"><ele>1185.0</ele><time>2026-04-18T14:21:06Z</time></trkpt><trkpt lat="41.774089252136314" lon="13.826975723710374"><ele>1190.0</ele><time>2026-04-18T14:21:07Z</time></trkpt><trkpt lat="41.77394792849925" lon="13.827084309745857"><ele>1195.0</ele><time>2026-04-18T14:21:08Z</time></trkpt><trkpt lat="41.773793503863416" lon="13.82719372287129"><ele>1200.0</ele><time>2026-04-18T14:21:09Z</time></trkpt><trkpt lat="41.773634468387314" lon="13.82731998658515"><ele>1205.3333333333333</ele><time>2026-04-18T14:21:10Z</time></trkpt><trkpt lat="41.77346492651789" lon="13.827467401784508"><ele>1210.6666666666665</ele><time>2026-04-18T14:21:11Z</time></trkpt><trkpt lat="41.7733195587695" lon="13.827627383287926"><ele>1216.0</ele><time>2026-04-18T14:21:12Z</time></trkpt><trkpt lat="41.773205509934556" lon="13.827775251553701"><ele>1216.0</ele><time>2026-04-18T14:21:13Z</time></trkpt><trkpt lat="41.77310392539048" lon="13.82789742400145"><ele>1216.0</ele><time>2026-04-18T14:21:14Z</time></trkpt><trkpt lat="41.773009237471996" lon="13.828008159268187"><ele>1216.0</ele><time>2026-04-18T14:21:15Z</time></trkpt><trkpt lat="41.7729181612387" lon="13.828125241290874"><ele>1216.0</ele><time>2026-04-18T14:21:16Z</time></trkpt><trkpt lat="41.77285136322787" lon="13.828264719999716"><ele>1216.0</ele><time>2026-04-18T14:21:17Z</time></trkpt><trkpt lat="41.77281101869657" lon="13.8284268686797"><ele>1216.0</ele><time>2026-04-18T14:21:18Z</time></trkpt><trkpt lat="41.772801334319915" lon="13.828621047826836"><ele>1216.0</ele><time>2026-04-18T14:21:19Z</time></trkpt><trkpt lat="41.77281570517961" lon="13.828857446789124"><ele>1216.0</ele><time>2026-04-18T14:21:20Z</time></trkpt><trkpt lat="41.77280310301496" lon="13.829115747897008"><ele>1211.3333333333333</ele><time>2026-04-18T14:21:21Z</time></trkpt><trkpt lat="41.772801683839766" lon="13.829368432794913"><ele>1206.6666666666667</ele><time>2026-04-18T14:21:22Z</time></trkpt><trkpt lat="41.77279845802624" lon="13.82962968425493"><ele>1202.0</ele><time>2026-04-18T14:21:23Z</time></trkpt><trkpt lat="41.77279304202258" lon="13.82988688464631"><ele>1201.6666666666667</ele><time>2026-04-18T14:21:24Z</time></trkpt><trkpt lat="41.77278355649138" lon="13.8301432568824"><ele>1201.3333333333333</ele><time>2026-04-18T14:21:25Z</time></trkpt><trkpt lat="41.77276478570557" lon="13.830394209785771"><ele>1201.0</ele><time>2026-04-18T14:21:26Z</time></trkpt><trkpt lat="41.772736059489866" lon="13.83063485243022"><ele>1201.0</ele><time>2026-04-18T14:21:27Z</time></trkpt><trkpt lat="41.77269539487308" lon="13.8308444036962"><ele>1201.0</ele><time>2026-04-18T14:21:28Z</time></trkpt><trkpt lat="41.77264887166926" lon="13.831028165895354"><ele>1201.0</ele><time>2026-04-18T14:21:29Z</time></trkpt><trkpt lat="41.772595697799964" lon="13.83119817082785"><ele>1201.0</ele><time>2026-04-18T14:21:30Z</time></trkpt><trkpt lat="41.772521853567675" lon="13.831362195097972"><ele>1208.25</ele><time>2026-04-18T14:21:31Z</time></trkpt><trkpt lat="41.77241877150581" lon="13.83149270511661"><ele>1215.5</ele><time>2026-04-18T14:21:32Z</time></trkpt><trkpt lat="41.7723025361812" lon="13.831601260546611"><ele>1222.75</ele><time>2026-04-18T14:21:33Z</time></trkpt><trkpt lat="41.772156243222824" lon="13.831648444429133"><ele>1230.0</ele><time>2026-04-18T14:21:34Z</time></trkpt><trkpt lat="41.77199300607554" lon="13.83167968253295"><ele>1236.0</ele><time>2026-04-18T14:21:35Z</time></trkpt><trkpt lat="41.77180333615603" lon="13.831713014672175"><ele>1242.0</ele><time>2026-04-18T14:21:36Z</time></trkpt><trkpt lat="41.77163291501344" lon="13.831735263361155"><ele>1248.0</ele><time>2026-04-18T14:21:37Z</time></trkpt><trkpt lat="41.77148243030773" lon="13.831738355364395"><ele>1248.0</ele><time>2026-04-18T14:21:38Z</time></trkpt><trkpt lat="41.77133810673283" lon="13.831727109833459"><ele>1248.0</ele><time>2026-04-18T14:21:39Z</time></trkpt><trkpt lat="41.771194272050124" lon="13.83171360490089"><ele>1248.0</ele><time>2026-04-18T14:21:40Z</time></trkpt><trkpt lat="41.77105675834562" lon="13.831698930324103"><ele>1248.0</ele><time>2026-04-18T14:21:41Z</time></trkpt><trkpt lat="41.770934563076814" lon="13.831702019862467"><ele>1249.6</ele><time>2026-04-18T14:21:42Z</time></trkpt><trkpt lat="41.77083630765572" lon="13.831727047464705"><ele>1251.1999999999998</ele><time>2026-04-18T14:21:43Z</time></trkpt><trkpt lat="41.77075601258942" lon="13.831794835832936"><ele>1252.8</ele><time>2026-04-18T14:21:44Z</time></trkpt><trkpt lat="41.77070059496532" lon="13.831905146090762"><ele>1254.3999999999999</ele><time>2026-04-18T14:21:45Z</time></trkpt><trkpt lat="41.77064470801994" lon="13.832033260451793"><ele>1256.0</ele><time>2026-04-18T14:21:46Z</time></trkpt><trkpt lat="41.770658888990866" lon="13.832205394556174"><ele>1256.0</ele><time>2026-04-18T14:21:47Z</time></trkpt><trkpt lat="41.77068314737332" lon="13.832391528624859"><ele>1256.0</ele><time>2026-04-18T14:21:48Z</time></trkpt><trkpt lat="41.77070734560709" lon="13.832609512293208"><ele>1256.0</ele><time>2026-04-18T14:21:49Z</time></trkpt><trkpt lat="41.77073479834686" lon="13.832816782953554"><ele>1257.75</ele><time>2026-04-18T14:21:50Z</time></trkpt><trkpt lat="41.770730795664186" lon="13.833016987619489"><ele>1259.5</ele><time>2026-04-18T14:21:51Z</time></trkpt><trkpt lat="41.77074243239342" lon="13.833212775119453"><ele>1261.25</ele><time>2026-04-18T14:21:52Z</time></trkpt><trkpt lat="41.77073499934856" lon="13.83339101226183"><ele>1263.0</ele><time>2026-04-18T14:21:53Z</time></trkpt><trkpt lat="41.770755251946596" lon="13.833577073484873"><ele>1268.6666666666667</ele><time>2026-04-18T14:21:54Z</time></trkpt><trkpt lat="41.77078748519206" lon="13.833774475556499"><ele>1274.3333333333335</ele><time>2026-04-18T14:21:55Z</time></trkpt><trkpt lat="41.77087382016296" lon="13.83398746027223"><ele>1280.0</ele><time>2026-04-18T14:21:56Z</time></trkpt><trkpt lat="41.77098142814518" lon="13.83420813923811"><ele>1272.6666666666667</ele><time>2026-04-18T14:21:57Z</time></trkpt><trkpt lat="41.77112056768012" lon="13.83445033872618"><ele>1265.3333333333333</ele><time>2026-04-18T14:21:58Z</time></trkpt><trkpt lat="41.771232061665394" lon="13.834702307895235"><ele>1258.0</ele><time>2026-04-18T14:21:59Z</time></trkpt><trkpt lat="41.7713706458614" lon="13.834949635035981"><ele>1271.5</ele><time>2026-04-18T14:22:00Z</time></trkpt><trkpt lat="41.77149263238136" lon="13.835242302662133"><ele>1285.0</ele><time>2026-04-18T14:22:01Z</time></trkpt><trkpt lat="41.77161484760719" lon="13.835565289034884"><ele>1285.0</ele><time>2026-04-18T14:22:02Z</time></trkpt><trkpt lat="41.7717406119257" lon="13.835905826374459"><ele>1285.0</ele><time>2026-04-18T14:22:03Z</time></trkpt><trkpt lat="41.77186053362119" lon="13.83623519330606"><ele>1284.0</ele><time>2026-04-18T14:22:04Z</time></trkpt><trkpt lat="41.77195569178753" lon="13.836504600801534"><ele>1283.0</ele><time>2026-04-18T14:22:05Z</time></trkpt><trkpt lat="41.772064509594045" lon="13.836751893794418"><ele>1282.0</ele><time>2026-04-18T14:22:06Z</time></trkpt><trkpt lat="41.77221027962927" lon="13.83700425619732"><ele>1282.0</ele><time>2026-04-18T14:22:07Z</time></trkpt><trkpt lat="41.77236154146916" lon="13.837258366512012"><ele>1282.0</ele><time>2026-04-18T14:22:08Z</time></trkpt><trkpt lat="41.772491423776394" lon="13.837458505063712"><ele>1282.0</ele><time>2026-04-18T14:22:09Z</time></trkpt><trkpt lat="41.77259315313229" lon="13.837626081792989"><ele>1284.5</ele><time>2026-04-18T14:22:10Z</time></trkpt><trkpt lat="41.77267320149764" lon="13.837771732335339"><ele>1287.0</ele><time>2026-04-18T14:22:11Z</time></trkpt><trkpt lat="41.772725100639434" lon="13.837913436105433"><ele>1289.5</ele><time>2026-04-18T14:22:12Z</time></trkpt><trkpt lat="41.77274015294473" lon="13.838081146448976"><ele>1292.0</ele><time>2026-04-18T14:22:13Z</time></trkpt><trkpt lat="41.77271775459452" lon="13.838241825812792"><ele>1292.0</ele><time>2026-04-18T14:22:14Z</time></trkpt><trkpt lat="41.772659710758234" lon="13.838389747721722"><ele>1292.0</ele><time>2026-04-18T14:22:15Z</time></trkpt><trkpt lat="41.77256142683076" lon="13.838559831345709"><ele>1292.0</ele><time>2026-04-18T14:22:16Z</time></trkpt><trkpt lat="41.77250053040295" lon="13.838754364015283"><ele>1292.0</ele><time>2026-04-18T14:22:17Z</time></trkpt><trkpt lat="41.77245695993361" lon="13.838938858948351"><ele>1287.75</ele><time>2026-04-18T14:22:18Z</time></trkpt><trkpt lat="41.77238983440979" lon="13.839081419267547"><ele>1283.5</ele><time>2026-04-18T14:22:19Z</time></trkpt><trkpt lat="41.77227250319212" lon="13.83921593936078"><ele>1279.25</ele><time>2026-04-18T14:22:20Z</time></trkpt><trkpt lat="41.77215767161733" lon="13.839375743153324"><ele>1275.0</ele><time>2026-04-18T14:22:21Z</time></trkpt><trkpt lat="41.77205086706089" lon="13.83952979217435"><ele>1277.0</ele><time>2026-04-18T14:22:22Z</time></trkpt><trkpt lat="41.77195523212102" lon="13.83964410176571"><ele>1279.0</ele><time>2026-04-18T14:22:23Z</time></trkpt><trkpt lat="41.771844980778" lon="13.839703495261828"><ele>1281.0</ele><time>2026-04-18T14:22:24Z</time></trkpt><trkpt lat="41.771714046434866" lon="13.839717863634117"><ele>1283.0</ele><time>2026-04-18T14:22:25Z</time></trkpt><trkpt lat="41.77156640760077" lon="13.839674079772347"><ele>1283.0</ele><time>2026-04-18T14:22:26Z</time></trkpt><trkpt lat="41.77143824184437" lon="13.839610152660383"><ele>1283.0</ele><time>2026-04-18T14:22:27Z</time></trkpt><trkpt lat="41.77134915705433" lon="13.839576212383129"><ele>1283.0</ele><time>2026-04-18T14:22:28Z</time></trkpt><trkpt lat="41.771260957775134" lon="13.839608785410325"><ele>1283.0</ele><time>2026-04-18T14:22:29Z</time></trkpt><trkpt lat="41.77118344044709" lon="13.839692738132475"><ele>1283.0</ele><time>2026-04-18T14:22:30Z</time></trkpt><trkpt lat="41.77113760253269" lon="13.839814325704292"><ele>1283.0</ele><time>2026-04-18T14:22:31Z</time></trkpt><trkpt lat="41.771125294446676" lon="13.839955358206804"><ele>1283.0</ele><time>2026-04-18T14:22:32Z</time></trkpt><trkpt lat="41.77114667162618" lon="13.840111091728215"><ele>1283.0</ele><time>2026-04-18T14:22:33Z</time></trkpt><trkpt lat="41.771162216434185" lon="13.840252198139467"><ele>1283.0</ele><time>2026-04-18T14:22:34Z</time></trkpt><trkpt lat="41.77114458259771" lon="13.84035934027134"><ele>1283.0</ele><time>2026-04-18T14:22:35Z</time></trkpt><trkpt lat="41.77109194783955" lon="13.84044315792547"><ele>1281.75</ele><time>2026-04-18T14:22:36Z</time></trkpt><trkpt lat="41.770992356394245" lon="13.840478606918186"><ele>1280.5</ele><time>2026-04-18T14:22:37Z</time></trkpt><trkpt lat="41.7708804682127" lon="13.840457535916284"><ele>1279.25</ele><time>2026-04-18T14:22:38Z</time></trkpt><trkpt lat="41.77073086318713" lon="13.840321535751196"><ele>1278.0</ele><time>2026-04-18T14:22:39Z</time></trkpt><trkpt lat="41.77057128172335" lon="13.84019871572138"><ele>1284.3333333333333</ele><time>2026-04-18T14:22:40Z</time></trkpt><trkpt lat="41.770398162908705" lon="13.840073900770543"><ele>1290.6666666666665</ele><time>2026-04-18T14:22:41Z</time></trkpt><trkpt lat="41.770205088967806" lon="13.839932971259147"><ele>1297.0</ele><time>2026-04-18T14:22:42Z</time></trkpt><trkpt lat="41.77001281797194" lon="13.839790234039917"><ele>1297.0</ele><time>2026-04-18T14:22:43Z</time></trkpt><trkpt lat="41.76981352583683" lon="13.83964889047455"><ele>1297.0</ele><time>2026-04-18T14:22:44Z</time></trkpt><trkpt lat="41.769613152093235" lon="13.839492304197439"><ele>1297.0</ele><time>2026-04-18T14:22:45Z</time></trkpt><trkpt lat="41.769404564705766" lon="13.839315155603092"><ele>1297.0</ele><time>2026-04-18T14:22:46Z</time></trkpt><trkpt lat="41.769177093225416" lon="13.83914054688189"><ele>1303.5</ele><time>2026-04-18T14:22:47Z</time></trkpt><trkpt lat="41.76893390728151" lon="13.838976218976804"><ele>1310.0</ele><time>2026-04-18T14:22:48Z</time></trkpt><trkpt lat="41.76873151122529" lon="13.838843728807587"><ele>1310.0</ele><time>2026-04-18T14:22:49Z</time></trkpt><trkpt lat="41.76856431476242" lon="13.838739555538304"><ele>1310.0</ele><time>2026-04-18T14:22:50Z</time></trkpt><trkpt lat="41.7684177890467" lon="13.838608159351203"><ele>1310.0</ele><time>2026-04-18T14:22:51Z</time></trkpt><trkpt lat="41.76828081849111" lon="13.838412508824627"><ele>1314.0</ele><time>2026-04-18T14:22:52Z</time></trkpt><trkpt lat="41.76813862243226" lon="13.838187043903725"><ele>1318.0</ele><time>2026-04-18T14:22:53Z</time></trkpt><trkpt lat="41.7679899449984" lon="13.837948840398026"><ele>1318.0</ele><time>2026-04-18T14:22:54Z</time></trkpt><trkpt lat="41.767843057860865" lon="13.837709967914881"><ele>1318.0</ele><time>2026-04-18T14:22:55Z</time></trkpt><trkpt lat="41.767683014805804" lon="13.837471549345484"><ele>1316.5</ele><time>2026-04-18T14:22:56Z</time></trkpt><trkpt lat="41.767514918366565" lon="13.837248572013277"><ele>1315.0</ele><time>2026-04-18T14:22:57Z</time></trkpt><trkpt lat="41.7673164182913" lon="13.83703757789149"><ele>1315.0</ele><time>2026-04-18T14:22:58Z</time></trkpt><trkpt lat="41.76709381474165" lon="13.836827743772359"><ele>1315.0</ele><time>2026-04-18T14:22:59Z</time></trkpt><trkpt lat="41.76687484136706" lon="13.836621920234117"><ele>1316.6666666666665</ele><time>2026-04-18T14:23:00Z</time></trkpt><trkpt lat="41.766683412494416" lon="13.836432093126222"><ele>1318.3333333333333</ele><time>2026-04-18T14:23:01Z</time></trkpt><trkpt lat="41.76650808750253" lon="13.836281917911986"><ele>1320.0</ele><time>2026-04-18T14:23:02Z</time></trkpt><trkpt lat="41.76631057696194" lon="13.83614998188266"><ele>1320.0</ele><time>2026-04-18T14:23:03Z</time></trkpt><trkpt lat="41.7660842375253" lon="13.836032969289237"><ele>1320.0</ele><time>2026-04-18T14:23:04Z</time></trkpt><trkpt lat="41.76585563427629" lon="13.835930723204797"><ele>1326.3333333333333</ele><time>2026-04-18T14:23:05Z</time></trkpt><trkpt lat="41.765643132065506" lon="13.835854893329964"><ele>1332.6666666666665</ele><time>2026-04-18T14:23:06Z</time></trkpt><trkpt lat="41.7654568498092" lon="13.835780128519458"><ele>1339.0</ele><time>2026-04-18T14:23:07Z</time></trkpt><trkpt lat="41.76529058595675" lon="13.835690365350267"><ele>1337.0</ele><time>2026-04-18T14:23:08Z</time></trkpt><trkpt lat="41.765131863991904" lon="13.835598858352318"><ele>1335.0</ele><time>2026-04-18T14:23:09Z</time></trkpt><trkpt lat="41.76494703507098" lon="13.835544686136727"><ele>1333.0</ele><time>2026-04-18T14:23:10Z</time></trkpt><trkpt lat="41.76471635412827" lon="13.835540707925885"><ele>1333.0</ele><time>2026-04-18T14:23:11Z</time></trkpt><trkpt lat="41.76445631271721" lon="13.835553503019861"><ele>1333.0</ele><time>2026-04-18T14:23:12Z</time></trkpt><trkpt lat="41.764190810359246" lon="13.835549308558042"><ele>1331.3333333333333</ele><time>2026-04-18T14:23:13Z</time></trkpt><trkpt lat="41.76395345030158" lon="13.835532069599516"><ele>1329.6666666666667</ele><time>2026-04-18T14:23:14Z</time></trkpt><trkpt lat="41.763750955837864" lon="13.835526455401714"><ele>1328.0</ele><time>2026-04-18T14:23:15Z</time></trkpt><trkpt lat="41.763549307237625" lon="13.835501842205947"><ele>1328.6666666666667</ele><time>2026-04-18T14:23:16Z</time></trkpt><trkpt lat="41.763337874237166" lon="13.835429070239757"><ele>1329.3333333333333</ele><time>2026-04-18T14:23:17Z</time></trkpt><trkpt lat="41.763120107595945" lon="13.83532819903244"><ele>1330.0</ele><time>2026-04-18T14:23:18Z</time></trkpt><trkpt lat="41.76290210509256" lon="13.835253686513695"><ele>1330.0</ele><time>2026-04-18T14:23:19Z</time></trkpt><trkpt lat="41.762662199669656" lon="13.835201854436985"><ele>1330.0</ele><time>2026-04-18T14:23:20Z</time></trkpt><trkpt lat="41.76241053690055" lon="13.835174728771403"><ele>1347.0</ele><time>2026-04-18T14:23:21Z</time></trkpt><trkpt lat="41.76216138869769" lon="13.835130986214477"><ele>1364.0</ele><time>2026-04-18T14:23:22Z</time></trkpt><trkpt lat="41.76190473597448" lon="13.835071386688377"><ele>1362.5</ele><time>2026-04-18T14:23:23Z</time></trkpt><trkpt lat="41.76162879171843" lon="13.835000955044784"><ele>1361.0</ele><time>2026-04-18T14:23:24Z</time></trkpt><trkpt lat="41.76133985308703" lon="13.834933492829876"><ele>1361.0</ele><time>2026-04-18T14:23:25Z</time></trkpt><trkpt lat="41.761051711649245" lon="13.834879718594642"><ele>1361.0</ele><time>2026-04-18T14:23:26Z</time></trkpt><trkpt lat="41.76079593212145" lon="13.834845681049387"><ele>1359.0</ele><time>2026-04-18T14:23:27Z</time></trkpt><trkpt lat="41.760574528000994" lon="13.834822719892305"><ele>1357.0</ele><time>2026-04-18T14:23:28Z</time></trkpt><trkpt lat="41.76034569481713" lon="13.834800914863402"><ele>1358.0</ele><time>2026-04-18T14:23:29Z</time></trkpt><trkpt lat="41.76010120416724" lon="13.834797738474691"><ele>1359.0</ele><time>2026-04-18T14:23:30Z</time></trkpt><trkpt lat="41.759858825823535" lon="13.83481699377947"><ele>1359.0</ele><time>2026-04-18T14:23:31Z</time></trkpt><trkpt lat="41.759628331255165" lon="13.83484561734945"><ele>1359.0</ele><time>2026-04-18T14:23:32Z</time></trkpt><trkpt lat="41.759428767624065" lon="13.83485670512342"><ele>1359.0</ele><time>2026-04-18T14:23:33Z</time></trkpt><trkpt lat="41.759236820413314" lon="13.834861847096713"><ele>1359.3333333333333</ele><time>2026-04-18T14:23:34Z</time></trkpt><trkpt lat="41.75905072166867" lon="13.834859601110766"><ele>1359.6666666666665</ele><time>2026-04-18T14:23:35Z</time></trkpt><trkpt lat="41.75885910284375" lon="13.834824633270287"><ele>1360.0</ele><time>2026-04-18T14:23:36Z</time></trkpt><trkpt lat="41.75866398844489" lon="13.834771239602924"><ele>1362.3333333333333</ele><time>2026-04-18T14:23:37Z</time></trkpt><trkpt lat="41.758471577526606" lon="13.834698264510871"><ele>1364.6666666666667</ele><time>2026-04-18T14:23:38Z</time></trkpt><trkpt lat="41.75829665176122" lon="13.83463214415345"><ele>1367.0</ele><time>2026-04-18T14:23:39Z</time></trkpt><trkpt lat="41.75815437806957" lon="13.834565800371767"><ele>1367.0</ele><time>2026-04-18T14:23:40Z</time></trkpt><trkpt lat="41.75801549452229" lon="13.83451990344892"><ele>1367.0</ele><time>2026-04-18T14:23:41Z</time></trkpt><trkpt lat="41.75786016254687" lon="13.834520585832983"><ele>1367.0</ele><time>2026-04-18T14:23:42Z</time></trkpt><trkpt lat="41.75768918774276" lon="13.83456930331128"><ele>1370.0</ele><time>2026-04-18T14:23:43Z</time></trkpt><trkpt lat="41.75750691917863" lon="13.834630722169907"><ele>1373.0</ele><time>2026-04-18T14:23:44Z</time></trkpt><trkpt lat="41.75732308440609" lon="13.834681357650247"><ele>1376.0</ele><time>2026-04-18T14:23:45Z</time></trkpt><trkpt lat="41.75715453087868" lon="13.834721642190443"><ele>1376.0</ele><time>2026-04-18T14:23:46Z</time></trkpt><trkpt lat="41.7569820405941" lon="13.834751284866622"><ele>1376.0</ele><time>2026-04-18T14:23:47Z</time></trkpt><trkpt lat="41.75679197154089" lon="13.834763411060333"><ele>1376.0</ele><time>2026-04-18T14:23:48Z</time></trkpt><trkpt lat="41.756607600050266" lon="13.834763581251902"><ele>1377.3333333333335</ele><time>2026-04-18T14:23:49Z</time></trkpt><trkpt lat="41.7564071693578" lon="13.834775404878197"><ele>1378.6666666666667</ele><time>2026-04-18T14:23:50Z</time></trkpt><trkpt lat="41.756207821467" lon="13.834782888020358"><ele>1380.0</ele><time>2026-04-18T14:23:51Z</time></trkpt><trkpt lat="41.75601348196346" lon="13.834784148379962"><ele>1381.3333333333333</ele><time>2026-04-18T14:23:52Z</time></trkpt><trkpt lat="41.755840884808705" lon="13.834785027788627"><ele>1382.6666666666665</ele><time>2026-04-18T14:23:53Z</time></trkpt><trkpt lat="41.755671376375005" lon="13.834785951754329"><ele>1384.0</ele><time>2026-04-18T14:23:54Z</time></trkpt><trkpt lat="41.755510941139136" lon="13.834796517861312"><ele>1384.0</ele><time>2026-04-18T14:23:55Z</time></trkpt><trkpt lat="41.755355578947245" lon="13.834843417747699"><ele>1384.0</ele><time>2026-04-18T14:23:56Z</time></trkpt><trkpt lat="41.755201192712086" lon="13.834899457612908"><ele>1384.0</ele><time>2026-04-18T14:23:57Z</time></trkpt><trkpt lat="41.75506099703728" lon="13.834935220553296"><ele>1386.0</ele><time>2026-04-18T14:23:58Z</time></trkpt><trkpt lat="41.75495685482333" lon="13.834970581914824"><ele>1388.0</ele><time>2026-04-18T14:23:59Z</time></trkpt><trkpt lat="41.75486283387345" lon="13.83502019751611"><ele>1390.0</ele><time>2026-04-18T14:24:00Z</time></trkpt><trkpt lat="41.75478182275095" lon="13.835072141057953"><ele>1392.0</ele><time>2026-04-18T14:24:01Z</time></trkpt><trkpt lat="41.754708669447986" lon="13.835088430003431"><ele>1394.0</ele><time>2026-04-18T14:24:02Z</time></trkpt><trkpt lat="41.754647624816506" lon="13.835057615620155"><ele>1396.0</ele><time>2026-04-18T14:24:03Z</time></trkpt><trkpt lat="41.754607845137734" lon="13.83498462002821"><ele>1396.0</ele><time>2026-04-18T14:24:04Z</time></trkpt><trkpt lat="41.75460587509534" lon="13.834894226571015"><ele>1396.0</ele><time>2026-04-18T14:24:05Z</time></trkpt><trkpt lat="41.75464875823293" lon="13.834829660500153"><ele>1396.0</ele><time>2026-04-18T14:24:06Z</time></trkpt><trkpt lat="41.754733177055435" lon="13.834794604866063"><ele>1396.0</ele><time>2026-04-18T14:24:07Z</time></trkpt><trkpt lat="41.75483352289688" lon="13.83478779117015"><ele>1396.0</ele><time>2026-04-18T14:24:08Z</time></trkpt><trkpt lat="41.75495398083361" lon="13.834779547878203"><ele>1396.0</ele><time>2026-04-18T14:24:09Z</time></trkpt><trkpt lat="41.75509333021709" lon="13.83475113811447"><ele>1392.0</ele><time>2026-04-18T14:24:10Z</time></trkpt><trkpt lat="41.755235472805296" lon="13.834688471066185"><ele>1388.0</ele><time>2026-04-18T14:24:11Z</time></trkpt><trkpt lat="41.75539272968387" lon="13.834592759667546"><ele>1384.0</ele><time>2026-04-18T14:24:12Z</time></trkpt><trkpt lat="41.75553130542002" lon="13.834508371855827"><ele>1384.0</ele><time>2026-04-18T14:24:13Z</time></trkpt><trkpt lat="41.75566546807123" lon="13.834470487907556"><ele>1384.0</ele><time>2026-04-18T14:24:14Z</time></trkpt><trkpt lat="41.75579721625716" lon="13.834471827858785"><ele>1384.0</ele><time>2026-04-18T14:24:15Z</time></trkpt><trkpt lat="41.7559363919459" lon="13.834496059586831"><ele>1384.0</ele><time>2026-04-18T14:24:16Z</time></trkpt><trkpt lat="41.75609459506921" lon="13.834449240928436"><ele>1382.6666666666665</ele><time>2026-04-18T14:24:17Z</time></trkpt><trkpt lat="41.75626927878756" lon="13.834346779275643"><ele>1381.3333333333333</ele><time>2026-04-18T14:24:18Z</time></trkpt><trkpt lat="41.75645575562946" lon="13.834214524545883"><ele>1380.0</ele><time>2026-04-18T14:24:19Z</time></trkpt><trkpt lat="41.75664652107235" lon="13.834098202137957"><ele>1386.6666666666667</ele><time>2026-04-18T14:24:20Z</time></trkpt><trkpt lat="41.75684886960001" lon="13.83398571676589"><ele>1393.3333333333335</ele><time>2026-04-18T14:24:21Z</time></trkpt><trkpt lat="41.75705201611737" lon="13.833896979784814"><ele>1400.0</ele><time>2026-04-18T14:24:22Z</time></trkpt><trkpt lat="41.75725171370143" lon="13.833832619597597"><ele>1400.0</ele><time>2026-04-18T14:24:23Z</time></trkpt><trkpt lat="41.75744547824485" lon="13.833780905049487"><ele>1400.0</ele><time>2026-04-18T14:24:24Z</time></trkpt><trkpt lat="41.75763178325738" lon="13.83373206417188"><ele>1400.0</ele><time>2026-04-18T14:24:25Z</time></trkpt><trkpt lat="41.757812785754155" lon="13.833684775580023"><ele>1398.3333333333335</ele><time>2026-04-18T14:24:26Z</time></trkpt><trkpt lat="41.75799105379273" lon="13.833658057287092"><ele>1396.6666666666667</ele><time>2026-04-18T14:24:27Z</time></trkpt><trkpt lat="41.75815682033461" lon="13.833659213847321"><ele>1395.0</ele><time>2026-04-18T14:24:28Z</time></trkpt><trkpt lat="41.75830838677013" lon="13.83366154305618"><ele>1395.0</ele><time>2026-04-18T14:24:29Z</time></trkpt><trkpt lat="41.758422195812535" lon="13.83368740687041"><ele>1395.0</ele><time>2026-04-18T14:24:30Z</time></trkpt><trkpt lat="41.75851688647781" lon="13.83370799278842"><ele>1395.0</ele><time>2026-04-18T14:24:31Z</time></trkpt><trkpt lat="41.75860020737347" lon="13.833743689620002"><ele>1395.0</ele><time>2026-04-18T14:24:32Z</time></trkpt><trkpt lat="41.75867960169295" lon="13.833804889967626"><ele>1395.0</ele><time>2026-04-18T14:24:33Z</time></trkpt><trkpt lat="41.75875578066874" lon="13.83385286690709"><ele>1396.2</ele><time>2026-04-18T14:24:34Z</time></trkpt><trkpt lat="41.75884037101399" lon="13.83388944237701"><ele>1397.4</ele><time>2026-04-18T14:24:35Z</time></trkpt><trkpt lat="41.75893461418982" lon="13.833899226381352"><ele>1398.6</ele><time>2026-04-18T14:24:36Z</time></trkpt><trkpt lat="41.759052740160406" lon="13.83387527252411"><ele>1399.8</ele><time>2026-04-18T14:24:37Z</time></trkpt><trkpt lat="41.759172870287486" lon="13.833827177273678"><ele>1401.0</ele><time>2026-04-18T14:24:38Z</time></trkpt><trkpt lat="41.759309947541645" lon="13.833759477453455"><ele>1399.3333333333333</ele><time>2026-04-18T14:24:39Z</time></trkpt><trkpt lat="41.75945122727288" lon="13.833687772047336"><ele>1397.6666666666665</ele><time>2026-04-18T14:24:40Z</time></trkpt><trkpt lat="41.759585647154516" lon="13.833629684539645"><ele>1396.0</ele><time>2026-04-18T14:24:41Z</time></trkpt><trkpt lat="41.759739022125366" lon="13.833570147897593"><ele>1396.0</ele><time>2026-04-18T14:24:42Z</time></trkpt><trkpt lat="41.75993627516778" lon="13.833503119203753"><ele>1396.0</ele><time>2026-04-18T14:24:43Z</time></trkpt><trkpt lat="41.76014679337681" lon="13.833467189954826"><ele>1396.0</ele><time>2026-04-18T14:24:44Z</time></trkpt><trkpt lat="41.76035555181353" lon="13.833407606098824"><ele>1407.3333333333333</ele><time>2026-04-18T14:24:45Z</time></trkpt><trkpt lat="41.760564459884996" lon="13.83334755777746"><ele>1418.6666666666667</ele><time>2026-04-18T14:24:46Z</time></trkpt><trkpt lat="41.76072884222839" lon="13.833313260540088"><ele>1430.0</ele><time>2026-04-18T14:24:47Z</time></trkpt><trkpt lat="41.76088453281979" lon="13.833304435905662"><ele>1430.6666666666667</ele><time>2026-04-18T14:24:48Z</time></trkpt><trkpt lat="41.76104311827119" lon="13.833317544777623"><ele>1431.3333333333333</ele><time>2026-04-18T14:24:49Z</time></trkpt><trkpt lat="41.76122161856573" lon="13.833301413314876"><ele>1432.0</ele><time>2026-04-18T14:24:50Z</time></trkpt><trkpt lat="41.76140329810201" lon="13.833261110399786"><ele>1432.0</ele><time>2026-04-18T14:24:51Z</time></trkpt><trkpt lat="41.76158913354196" lon="13.833202226425064"><ele>1432.0</ele><time>2026-04-18T14:24:52Z</time></trkpt><trkpt lat="41.76178439875747" lon="13.83312600947216"><ele>1432.0</ele><time>2026-04-18T14:24:53Z</time></trkpt><trkpt lat="41.761969929912595" lon="13.833092068541822"><ele>1431.3333333333333</ele><time>2026-04-18T14:24:54Z</time></trkpt><trkpt lat="41.76215788788265" lon="13.833119460371798"><ele>1430.6666666666667</ele><time>2026-04-18T14:24:55Z</time></trkpt><trkpt lat="41.762334960691" lon="13.833133371864148"><ele>1430.0</ele><time>2026-04-18T14:24:56Z</time></trkpt><trkpt lat="41.76249941900514" lon="13.833116535404919"><ele>1430.0</ele><time>2026-04-18T14:24:57Z</time></trkpt><trkpt lat="41.762668864502935" lon="13.833085128433009"><ele>1430.0</ele><time>2026-04-18T14:24:58Z</time></trkpt><trkpt lat="41.762810629474686" lon="13.833083646322832"><ele>1430.0</ele><time>2026-04-18T14:24:59Z</time></trkpt><trkpt lat="41.7629589829952" lon="13.83310970302151"><ele>1430.75</ele><time>2026-04-18T14:25:00Z</time></trkpt><trkpt lat="41.76309725407523" lon="13.833175784179813"><ele>1431.5</ele><time>2026-04-18T14:25:01Z</time></trkpt><trkpt lat="41.76324388124916" lon="13.833179910059124"><ele>1432.25</ele><time>2026-04-18T14:25:02Z</time></trkpt><trkpt lat="41.763392350902606" lon="13.833140411679613"><ele>1433.0</ele><time>2026-04-18T14:25:03Z</time></trkpt><trkpt lat="41.76354269134508" lon="13.833063922391784"><ele>1433.0</ele><time>2026-04-18T14:25:04Z</time></trkpt><trkpt lat="41.76370109549202" lon="13.833011106675489"><ele>1433.0</ele><time>2026-04-18T14:25:05Z</time></trkpt><trkpt lat="41.76386600398846" lon="13.83302105841175"><ele>1433.0</ele><time>2026-04-18T14:25:06Z</time></trkpt><trkpt lat="41.7640489818532" lon="13.833080090923955"><ele>1433.0</ele><time>2026-04-18T14:25:07Z</time></trkpt><trkpt lat="41.764216666692086" lon="13.833117994903887"><ele>1433.0</ele><time>2026-04-18T14:25:08Z</time></trkpt><trkpt lat="41.764377519405144" lon="13.833095750777566"><ele>1433.0</ele><time>2026-04-18T14:25:09Z</time></trkpt><trkpt lat="41.764525972849114" lon="13.83301207863616"><ele>1433.8000000000002</ele><time>2026-04-18T14:25:10Z</time></trkpt><trkpt lat="41.76464793306824" lon="13.832926815602297"><ele>1434.6</ele><time>2026-04-18T14:25:11Z</time></trkpt><trkpt lat="41.76474123410873" lon="13.83289626871378"><ele>1435.4</ele><time>2026-04-18T14:25:12Z</time></trkpt><trkpt lat="41.764828199118604" lon="13.832956022206254"><ele>1436.1999999999998</ele><time>2026-04-18T14:25:13Z</time></trkpt><trkpt lat="41.764924734074015" lon="13.833010555875525"><ele>1437.0</ele><time>2026-04-18T14:25:14Z</time></trkpt><trkpt lat="41.765097564085984" lon="13.833118418411916"><ele>1436.75</ele><time>2026-04-18T14:25:15Z</time></trkpt><trkpt lat="41.765240039122276" lon="13.833149576646571"><ele>1436.5</ele><time>2026-04-18T14:25:16Z</time></trkpt><trkpt lat="41.7653671011284" lon="13.833123570753102"><ele>1436.25</ele><time>2026-04-18T14:25:17Z</time></trkpt><trkpt lat="41.76549683516817" lon="13.833038173478645"><ele>1436.0</ele><time>2026-04-18T14:25:18Z</time></trkpt><trkpt lat="41.765626775187606" lon="13.832913697248193"><ele>1436.0</ele><time>2026-04-18T14:25:19Z</time></trkpt><trkpt lat="41.76575908933655" lon="13.832805484314225"><ele>1436.0</ele><time>2026-04-18T14:25:20Z</time></trkpt><trkpt lat="41.76590773554853" lon="13.832707646864037"><ele>1436.0</ele><time>2026-04-18T14:25:21Z</time></trkpt><trkpt lat="41.76609105730498" lon="13.832656374231858"><ele>1438.1999999999998</ele><time>2026-04-18T14:25:22Z</time></trkpt><trkpt lat="41.766254076757654" lon="13.832623138959091"><ele>1440.3999999999999</ele><time>2026-04-18T14:25:23Z</time></trkpt><trkpt lat="41.766360399263846" lon="13.832619012574373"><ele>1442.6</ele><time>2026-04-18T14:25:24Z</time></trkpt><trkpt lat="41.766435457277176" lon="13.83264963920056"><ele>1444.8</ele><time>2026-04-18T14:25:25Z</time></trkpt><trkpt lat="41.766526374976166" lon="13.832701537408294"><ele>1447.0</ele><time>2026-04-18T14:25:26Z</time></trkpt><trkpt lat="41.76663181551075" lon="13.832809671283886"><ele>1447.0</ele><time>2026-04-18T14:25:27Z</time></trkpt><trkpt lat="41.76676970707814" lon="13.83296545019912"><ele>1447.0</ele><time>2026-04-18T14:25:28Z</time></trkpt><trkpt lat="41.76691569210016" lon="13.833104123989033"><ele>1447.0</ele><time>2026-04-18T14:25:29Z</time></trkpt><trkpt lat="41.76706780224147" lon="13.833177307477158"><ele>1448.6</ele><time>2026-04-18T14:25:30Z</time></trkpt><trkpt lat="41.767181856466436" lon="13.833245254073411"><ele>1450.1999999999998</ele><time>2026-04-18T14:25:31Z</time></trkpt><trkpt lat="41.76728888345946" lon="13.833305128465899"><ele>1451.8</ele><time>2026-04-18T14:25:32Z</time></trkpt><trkpt lat="41.76738874530548" lon="13.833366513013535"><ele>1453.4</ele><time>2026-04-18T14:25:33Z</time></trkpt><trkpt lat="41.76746264094919" lon="13.833392796995422"><ele>1455.0</ele><time>2026-04-18T14:25:34Z</time></trkpt><trkpt lat="41.767529211729304" lon="13.833377558182843"><ele>1455.0</ele><time>2026-04-18T14:25:35Z</time></trkpt><trkpt lat="41.76758416361809" lon="13.833306888406144"><ele>1455.0</ele><time>2026-04-18T14:25:36Z</time></trkpt><trkpt lat="41.76760575404691" lon="13.833193147760793"><ele>1455.0</ele><time>2026-04-18T14:25:37Z</time></trkpt><trkpt lat="41.7675841590357" lon="13.833089307494271"><ele>1455.0</ele><time>2026-04-18T14:25:38Z</time></trkpt><trkpt lat="41.76750587824815" lon="13.83302383554219"><ele>1455.0</ele><time>2026-04-18T14:25:39Z</time></trkpt><trkpt lat="41.76740421308454" lon="13.833006304652143"><ele>1455.0</ele><time>2026-04-18T14:25:40Z</time></trkpt><trkpt lat="41.7672599847513" lon="13.833013193722358"><ele>1455.0</ele><time>2026-04-18T14:25:41Z</time></trkpt><trkpt lat="41.767136169589826" lon="13.832960350532796"><ele>1455.0</ele><time>2026-04-18T14:25:42Z</time></trkpt><trkpt lat="41.76703780656537" lon="13.832890771304282"><ele>1455.0</ele><time>2026-04-18T14:25:43Z</time></trkpt><trkpt lat="41.76693605603807" lon="13.832770549932269"><ele>1455.0</ele><time>2026-04-18T14:25:44Z</time></trkpt><trkpt lat="41.76681707916685" lon="13.832613147231706"><ele>1458.75</ele><time>2026-04-18T14:25:45Z</time></trkpt><trkpt lat="41.766720507960635" lon="13.832454020464867"><ele>1462.5</ele><time>2026-04-18T14:25:46Z</time></trkpt><trkpt lat="41.76663117619315" lon="13.832329267776736"><ele>1466.25</ele><time>2026-04-18T14:25:47Z</time></trkpt><trkpt lat="41.766546604591774" lon="13.832245147820526"><ele>1470.0</ele><time>2026-04-18T14:25:48Z</time></trkpt><trkpt lat="41.766440688021" lon="13.832196382496079"><ele>1470.0</ele><time>2026-04-18T14:25:49Z</time></trkpt><trkpt lat="41.76628609824727" lon="13.832204232009863"><ele>1470.0</ele><time>2026-04-18T14:25:50Z</time></trkpt><trkpt lat="41.7661176064803" lon="13.832211614415561"><ele>1470.0</ele><time>2026-04-18T14:25:51Z</time></trkpt><trkpt lat="41.76595875489038" lon="13.832240745920082"><ele>1470.5</ele><time>2026-04-18T14:25:52Z</time></trkpt><trkpt lat="41.76580633900131" lon="13.832257377924044"><ele>1471.0</ele><time>2026-04-18T14:25:53Z</time></trkpt><trkpt lat="41.7656627041874" lon="13.83230184626626"><ele>1471.5</ele><time>2026-04-18T14:25:54Z</time></trkpt><trkpt lat="41.76555801685151" lon="13.832371553881055"><ele>1472.0</ele><time>2026-04-18T14:25:55Z</time></trkpt><trkpt lat="41.76545464491298" lon="13.832455358172995"><ele>1472.0</ele><time>2026-04-18T14:25:56Z</time></trkpt><trkpt lat="41.76536848153149" lon="13.83252748591924"><ele>1472.0</ele><time>2026-04-18T14:25:57Z</time></trkpt><trkpt lat="41.765281735584004" lon="13.832530556293152"><ele>1472.0</ele><time>2026-04-18T14:25:58Z</time></trkpt><trkpt lat="41.765179062314616" lon="13.832464613353075"><ele>1472.0</ele><time>2026-04-18T14:25:59Z</time></trkpt><trkpt lat="41.76507807816653" lon="13.832324754961808"><ele>1472.0</ele><time>2026-04-18T14:26:00Z</time></trkpt><trkpt lat="41.764940482071125" lon="13.832194300429128"><ele>1474.6666666666667</ele><time>2026-04-18T14:26:01Z</time></trkpt><trkpt lat="41.764825206140934" lon="13.832122320692418"><ele>1477.3333333333333</ele><time>2026-04-18T14:26:02Z</time></trkpt><trkpt lat="41.764689432417335" lon="13.832090383444925"><ele>1480.0</ele><time>2026-04-18T14:26:03Z</time></trkpt><trkpt lat="41.764502289796674" lon="13.832146575842215"><ele>1478.0</ele><time>2026-04-18T14:26:04Z</time></trkpt><trkpt lat="41.76434947534495" lon="13.832177105545814"><ele>1476.0</ele><time>2026-04-18T14:26:05Z</time></trkpt><trkpt lat="41.76417122876759" lon="13.83217982229591"><ele>1474.0</ele><time>2026-04-18T14:26:06Z</time></trkpt><trkpt lat="41.76401533686131" lon="13.83216707643072"><ele>1474.0</ele><time>2026-04-18T14:26:07Z</time></trkpt><trkpt lat="41.763885542026955" lon="13.83216287328024"><ele>1474.0</ele><time>2026-04-18T14:26:08Z</time></trkpt><trkpt lat="41.763770180639725" lon="13.832105711088419"><ele>1474.0</ele><time>2026-04-18T14:26:09Z</time></trkpt><trkpt lat="41.76368284642285" lon="13.832023339578805"><ele>1474.0</ele><time>2026-04-18T14:26:10Z</time></trkpt><trkpt lat="41.76361420848473" lon="13.831840161758235"><ele>1478.6666666666665</ele><time>2026-04-18T14:26:11Z</time></trkpt><trkpt lat="41.76348764318268" lon="13.831598798236147"><ele>1483.3333333333333</ele><time>2026-04-18T14:26:12Z</time></trkpt><trkpt lat="41.76337623688991" lon="13.831400590873438"><ele>1488.0</ele><time>2026-04-18T14:26:13Z</time></trkpt><trkpt lat="41.76329137569455" lon="13.83123212152349"><ele>1488.0</ele><time>2026-04-18T14:26:14Z</time></trkpt><trkpt lat="41.76322551661865" lon="13.831058766913129"><ele>1488.0</ele><time>2026-04-18T14:26:15Z</time></trkpt><trkpt lat="41.76319509818627" lon="13.830887813561407"><ele>1488.0</ele><time>2026-04-18T14:26:16Z</time></trkpt><trkpt lat="41.7631685742111" lon="13.830705692717556"><ele>1488.0</ele><time>2026-04-18T14:26:17Z</time></trkpt><trkpt lat="41.76312186180455" lon="13.830565089483683"><ele>1489.25</ele><time>2026-04-18T14:26:18Z</time></trkpt><trkpt lat="41.76304485312257" lon="13.830513144031247"><ele>1490.5</ele><time>2026-04-18T14:26:19Z</time></trkpt><trkpt lat="41.76290196151279" lon="13.830478090970685"><ele>1491.75</ele><time>2026-04-18T14:26:20Z</time></trkpt><trkpt lat="41.76272914326037" lon="13.830506488178838"><ele>1493.0</ele><time>2026-04-18T14:26:21Z</time></trkpt><trkpt lat="41.762533467995866" lon="13.830533141075067"><ele>1493.0</ele><time>2026-04-18T14:26:22Z</time></trkpt><trkpt lat="41.76232120665151" lon="13.830456505389867"><ele>1493.0</ele><time>2026-04-18T14:26:23Z</time></trkpt><trkpt lat="41.76210516060764" lon="13.830385828166257"><ele>1493.0</ele><time>2026-04-18T14:26:24Z</time></trkpt><trkpt lat="41.761871562193946" lon="13.830322094214463"><ele>1493.3333333333335</ele><time>2026-04-18T14:26:25Z</time></trkpt><trkpt lat="41.76165418313151" lon="13.830304748032868"><ele>1493.6666666666667</ele><time>2026-04-18T14:26:26Z</time></trkpt><trkpt lat="41.76145792186583" lon="13.83031013683844"><ele>1494.0</ele><time>2026-04-18T14:26:27Z</time></trkpt><trkpt lat="41.761260626890994" lon="13.830332495580992"><ele>1494.0</ele><time>2026-04-18T14:26:28Z</time></trkpt><trkpt lat="41.76108301654972" lon="13.830364217273171"><ele>1494.0</ele><time>2026-04-18T14:26:29Z</time></trkpt><trkpt lat="41.76092443106187" lon="13.830381104778361"><ele>1494.0</ele><time>2026-04-18T14:26:30Z</time></trkpt><trkpt lat="41.760798512191805" lon="13.830378125958056"><ele>1492.5</ele><time>2026-04-18T14:26:31Z</time></trkpt><trkpt lat="41.760700177984305" lon="13.830354945960586"><ele>1491.0</ele><time>2026-04-18T14:26:32Z</time></trkpt><trkpt lat="41.7606094785788" lon="13.83025281413459"><ele>1489.5</ele><time>2026-04-18T14:26:33Z</time></trkpt><trkpt lat="41.760537442658304" lon="13.83008019962935"><ele>1488.0</ele><time>2026-04-18T14:26:34Z</time></trkpt><trkpt lat="41.760473918885076" lon="13.829833186224398"><ele>1492.0</ele><time>2026-04-18T14:26:35Z</time></trkpt><trkpt lat="41.76038183807526" lon="13.829580686654422"><ele>1496.0</ele><time>2026-04-18T14:26:36Z</time></trkpt><trkpt lat="41.760258221570254" lon="13.829368028134953"><ele>1500.0</ele><time>2026-04-18T14:26:37Z</time></trkpt><trkpt lat="41.76010667122058" lon="13.829145340156371"><ele>1500.0</ele><time>2026-04-18T14:26:38Z</time></trkpt><trkpt lat="41.759982321259656" lon="13.828915686125793"><ele>1500.0</ele><time>2026-04-18T14:26:39Z</time></trkpt><trkpt lat="41.75990270896811" lon="13.828694783876172"><ele>1500.0</ele><time>2026-04-18T14:26:40Z</time></trkpt><trkpt lat="41.759838866226595" lon="13.828486330698254"><ele>1506.3333333333333</ele><time>2026-04-18T14:26:41Z</time></trkpt><trkpt lat="41.75977024585983" lon="13.828289981897958"><ele>1512.6666666666665</ele><time>2026-04-18T14:26:42Z</time></trkpt><trkpt lat="41.75968636213648" lon="13.828114320203648"><ele>1519.0</ele><time>2026-04-18T14:26:43Z</time></trkpt><trkpt lat="41.75960496684292" lon="13.827942278337824"><ele>1519.0</ele><time>2026-04-18T14:26:44Z</time></trkpt><trkpt lat="41.75943752188501" lon="13.827845483214912"><ele>1519.0</ele><time>2026-04-18T14:26:45Z</time></trkpt><trkpt lat="41.75926729403102" lon="13.827750999681971"><ele>1519.0</ele><time>2026-04-18T14:26:46Z</time></trkpt><trkpt lat="41.759085385282546" lon="13.827659815623825"><ele>1517.0</ele><time>2026-04-18T14:26:47Z</time></trkpt><trkpt lat="41.7589274984016" lon="13.82757271447149"><ele>1515.0</ele><time>2026-04-18T14:26:48Z</time></trkpt><trkpt lat="41.7588031300334" lon="13.827505866225474"><ele>1513.0</ele><time>2026-04-18T14:26:49Z</time></trkpt><trkpt lat="41.75870712913212" lon="13.827489275611239"><ele>1511.0</ele><time>2026-04-18T14:26:50Z</time></trkpt><trkpt lat="41.75862512016713" lon="13.827452912561569"><ele>1511.0</ele><time>2026-04-18T14:26:51Z</time></trkpt><trkpt lat="41.758554257265644" lon="13.82737322029885"><ele>1511.0</ele><time>2026-04-18T14:26:52Z</time></trkpt><trkpt lat="41.75855458315911" lon="13.827217264968693"><ele>1511.0</ele><time>2026-04-18T14:26:53Z</time></trkpt><trkpt lat="41.758577725138956" lon="13.827040814418625"><ele>1511.0</ele><time>2026-04-18T14:26:54Z</time></trkpt><trkpt lat="41.75860647549077" lon="13.826839519625358"><ele>1509.0</ele><time>2026-04-18T14:26:55Z</time></trkpt><trkpt lat="41.758633883957884" lon="13.826628859278786"><ele>1507.0</ele><time>2026-04-18T14:26:56Z</time></trkpt><trkpt lat="41.75862178091678" lon="13.826421748193347"><ele>1505.0</ele><time>2026-04-18T14:26:57Z</time></trkpt><trkpt lat="41.758554969886546" lon="13.826198881836161"><ele>1510.3333333333335</ele><time>2026-04-18T14:26:58Z</time></trkpt><trkpt lat="41.75847011804103" lon="13.825966579747531"><ele>1515.6666666666667</ele><time>2026-04-18T14:26:59Z</time></trkpt><trkpt lat="41.75841564184379" lon="13.825748758470533"><ele>1521.0</ele><time>2026-04-18T14:27:00Z</time></trkpt><trkpt lat="41.758368881189845" lon="13.82551127379225"><ele>1521.0</ele><time>2026-04-18T14:27:01Z</time></trkpt><trkpt lat="41.758331487455095" lon="13.825304256118917"><ele>1521.0</ele><time>2026-04-18T14:27:02Z</time></trkpt><trkpt lat="41.75828926861056" lon="13.825122107917768"><ele>1521.0</ele><time>2026-04-18T14:27:03Z</time></trkpt><trkpt lat="41.75824404033215" lon="13.824966147675095"><ele>1521.0</ele><time>2026-04-18T14:27:04Z</time></trkpt><trkpt lat="41.758198721407304" lon="13.824839890345157"><ele>1519.6</ele><time>2026-04-18T14:27:05Z</time></trkpt><trkpt lat="41.75814915045499" lon="13.824729122642504"><ele>1518.1999999999998</ele><time>2026-04-18T14:27:06Z</time></trkpt><trkpt lat="41.75806844033754" lon="13.824646101616374"><ele>1516.8000000000002</ele><time>2026-04-18T14:27:07Z</time></trkpt><trkpt lat="41.757975202849344" lon="13.824619046562017"><ele>1515.4</ele><time>2026-04-18T14:27:08Z</time></trkpt><trkpt lat="41.75786911732098" lon="13.824639452238765"><ele>1514.0</ele><time>2026-04-18T14:27:09Z</time></trkpt><trkpt lat="41.75776363939754" lon="13.824645769443652"><ele>1518.5</ele><time>2026-04-18T14:27:10Z</time></trkpt><trkpt lat="41.75768089039638" lon="13.824648865459414"><ele>1523.0</ele><time>2026-04-18T14:27:11Z</time></trkpt><trkpt lat="41.75760729434473" lon="13.824502477396068"><ele>1527.5</ele><time>2026-04-18T14:27:13Z</time></trkpt><trkpt lat="41.75761697096097" lon="13.824358200954338"><ele>1532.0</ele><time>2026-04-18T14:27:14Z</time></trkpt><trkpt lat="41.75768306954518" lon="13.824211360652928"><ele>1526.75</ele><time>2026-04-18T14:27:15Z</time></trkpt><trkpt lat="41.75775742415021" lon="13.82402729230836"><ele>1521.5</ele><time>2026-04-18T14:27:16Z</time></trkpt><trkpt lat="41.757867237356194" lon="13.823906155154116"><ele>1516.25</ele><time>2026-04-18T14:27:17Z</time></trkpt><trkpt lat="41.757963851659184" lon="13.823801429013807"><ele>1511.0</ele><time>2026-04-18T14:27:18Z</time></trkpt><trkpt lat="41.75800109136097" lon="13.823649841052942"><ele>1511.6666666666667</ele><time>2026-04-18T14:27:19Z</time></trkpt><trkpt lat="41.758002056795725" lon="13.823443800039362"><ele>1512.3333333333333</ele><time>2026-04-18T14:27:20Z</time></trkpt><trkpt lat="41.757995932738154" lon="13.823213936818203"><ele>1513.0</ele><time>2026-04-18T14:27:21Z</time></trkpt><trkpt lat="41.757984338002224" lon="13.822972420474345"><ele>1513.0</ele><time>2026-04-18T14:27:22Z</time></trkpt><trkpt lat="41.7579921273915" lon="13.822740883298644"><ele>1513.0</ele><time>2026-04-18T14:27:23Z</time></trkpt><trkpt lat="41.75800669281911" lon="13.822533326124743"><ele>1513.0</ele><time>2026-04-18T14:27:24Z</time></trkpt><trkpt lat="41.75803200732997" lon="13.822365626857179"><ele>1513.5</ele><time>2026-04-18T14:27:25Z</time></trkpt><trkpt lat="41.758068216935435" lon="13.822224192211527"><ele>1514.0</ele><time>2026-04-18T14:27:26Z</time></trkpt><trkpt lat="41.758086236387435" lon="13.8221099726979"><ele>1514.5</ele><time>2026-04-18T14:27:27Z</time></trkpt><trkpt lat="41.75809172922222" lon="13.822017098281247"><ele>1515.0</ele><time>2026-04-18T14:27:28Z</time></trkpt><trkpt lat="41.75809014568251" lon="13.821923434142862"><ele>1515.5</ele><time>2026-04-18T14:27:29Z</time></trkpt><trkpt lat="41.75804600286202" lon="13.821838876838148"><ele>1516.0</ele><time>2026-04-18T14:27:30Z</time></trkpt><trkpt lat="41.7579764804678" lon="13.82178272058013"><ele>1514.8</ele><time>2026-04-18T14:27:31Z</time></trkpt><trkpt lat="41.75789494279659" lon="13.82176983774318"><ele>1513.6</ele><time>2026-04-18T14:27:32Z</time></trkpt><trkpt lat="41.757797134080114" lon="13.82177727039312"><ele>1512.4</ele><time>2026-04-18T14:27:33Z</time></trkpt><trkpt lat="41.75769814086064" lon="13.821839416042769"><ele>1511.2</ele><time>2026-04-18T14:27:34Z</time></trkpt><trkpt lat="41.757584261013626" lon="13.821908123498128"><ele>1510.0</ele><time>2026-04-18T14:27:35Z</time></trkpt><trkpt lat="41.757473716062826" lon="13.82194438845337"><ele>1514.8</ele><time>2026-04-18T14:27:36Z</time></trkpt><trkpt lat="41.75736284939355" lon="13.821969885995985"><ele>1519.6</ele><time>2026-04-18T14:27:37Z</time></trkpt><trkpt lat="41.757268230812414" lon="13.822008215896066"><ele>1524.4</ele><time>2026-04-18T14:27:38Z</time></trkpt><trkpt lat="41.757179053460426" lon="13.82199641593115"><ele>1529.2</ele><time>2026-04-18T14:27:39Z</time></trkpt><trkpt lat="41.75710476242021" lon="13.821951621224795"><ele>1534.0</ele><time>2026-04-18T14:27:40Z</time></trkpt><trkpt lat="41.75704089553353" lon="13.8218881827099"><ele>1534.6666666666665</ele><time>2026-04-18T14:27:41Z</time></trkpt><trkpt lat="41.75700466579153" lon="13.821776407021312"><ele>1535.3333333333333</ele><time>2026-04-18T14:27:42Z</time></trkpt><trkpt lat="41.756972678712756" lon="13.82167659657015"><ele>1536.0</ele><time>2026-04-18T14:27:43Z</time></trkpt><trkpt lat="41.75694525116125" lon="13.821577253305879"><ele>1536.6666666666665</ele><time>2026-04-18T14:27:44Z</time></trkpt><trkpt lat="41.756881928604194" lon="13.821442415960464"><ele>1537.3333333333333</ele><time>2026-04-18T14:27:46Z</time></trkpt><trkpt lat="41.75680634201294" lon="13.821428005896614"><ele>1538.0</ele><time>2026-04-18T14:27:47Z</time></trkpt><trkpt lat="41.75671407462226" lon="13.821430259550342"><ele>1537.9999999999998</ele><time>2026-04-18T14:27:48Z</time></trkpt><trkpt lat="41.75663368765655" lon="13.82141472589408"><ele>1538.0</ele><time>2026-04-18T14:27:49Z</time></trkpt><trkpt lat="41.756571478909436" lon="13.821351348116135"><ele>1538.0</ele><time>2026-04-18T14:27:50Z</time></trkpt><trkpt lat="41.75652551541912" lon="13.82126435726281"><ele>1538.0</ele><time>2026-04-18T14:27:51Z</time></trkpt><trkpt lat="41.756494595303174" lon="13.821153697067295"><ele>1537.9999999999998</ele><time>2026-04-18T14:27:52Z</time></trkpt><trkpt lat="41.756494172959535" lon="13.821047397983776"><ele>1538.0</ele><time>2026-04-18T14:27:53Z</time></trkpt><trkpt lat="41.75651392854186" lon="13.820938316499424"><ele>1534.5</ele><time>2026-04-18T14:27:54Z</time></trkpt><trkpt lat="41.75651489576267" lon="13.820829937297765"><ele>1531.0</ele><time>2026-04-18T14:27:55Z</time></trkpt><trkpt lat="41.75643969654946" lon="13.820714355769477"><ele>1527.5</ele><time>2026-04-18T14:27:57Z</time></trkpt><trkpt lat="41.756225120567485" lon="13.820696455003711"><ele>1524.0</ele><time>2026-04-18T14:27:59Z</time></trkpt><trkpt lat="41.75612517631418" lon="13.820721956978415"><ele>1526.6666666666667</ele><time>2026-04-18T14:28:00Z</time></trkpt><trkpt lat="41.7560233132878" lon="13.820671891610395"><ele>1529.3333333333335</ele><time>2026-04-18T14:28:02Z</time></trkpt><trkpt lat="41.75600736394728" lon="13.820585228202109"><ele>1532.0</ele><time>2026-04-18T14:28:03Z</time></trkpt><trkpt lat="41.756009044551085" lon="13.820478563649628"><ele>1534.6666666666667</ele><time>2026-04-18T14:28:04Z</time></trkpt><trkpt lat="41.755994002478765" lon="13.820385014285188"><ele>1537.3333333333335</ele><time>2026-04-18T14:28:05Z</time></trkpt><trkpt lat="41.75597541072186" lon="13.820295826657688"><ele>1540.0</ele><time>2026-04-18T14:28:06Z</time></trkpt><trkpt lat="41.755912008746364" lon="13.82022165652558"><ele>1540.0</ele><time>2026-04-18T14:28:07Z</time></trkpt><trkpt lat="41.755824077244334" lon="13.820177682830806"><ele>1540.0</ele><time>2026-04-18T14:28:08Z</time></trkpt><trkpt lat="41.755717425635375" lon="13.820163169596428"><ele>1540.0</ele><time>2026-04-18T14:28:09Z</time></trkpt><trkpt lat="41.755599022004084" lon="13.820187924910403"><ele>1540.0</ele><time>2026-04-18T14:28:10Z</time></trkpt><trkpt lat="41.75548989189711" lon="13.82022544762665"><ele>1540.0</ele><time>2026-04-18T14:28:11Z</time></trkpt><trkpt lat="41.75538886568221" lon="13.820266989365662"><ele>1540.0000000000002</ele><time>2026-04-18T14:28:12Z</time></trkpt><trkpt lat="41.755303933846264" lon="13.820309394457102"><ele>1540.0</ele><time>2026-04-18T14:28:13Z</time></trkpt><trkpt lat="41.755220667415855" lon="13.820348683745909"><ele>1540.0</ele><time>2026-04-18T14:28:14Z</time></trkpt><trkpt lat="41.755130062410906" lon="13.82038281133636"><ele>1540.0</ele><time>2026-04-18T14:28:15Z</time></trkpt><trkpt lat="41.75506330865346" lon="13.820369615438697"><ele>1540.0000000000002</ele><time>2026-04-18T14:28:16Z</time></trkpt><trkpt lat="41.75500250963785" lon="13.820325515041667"><ele>1540.0</ele><time>2026-04-18T14:28:17Z</time></trkpt><trkpt lat="41.75490118545777" lon="13.820101421209458"><ele>1537.6666666666667</ele><time>2026-04-18T14:28:19Z</time></trkpt><trkpt lat="41.75474769007997" lon="13.819922590076038"><ele>1535.3333333333335</ele><time>2026-04-18T14:28:20Z</time></trkpt><trkpt lat="41.754639809712955" lon="13.819799847855865"><ele>1533.0</ele><time>2026-04-18T14:28:21Z</time></trkpt><trkpt lat="41.75447937180887" lon="13.819617878995926"><ele>1533.3333333333333</ele><time>2026-04-18T14:28:22Z</time></trkpt><trkpt lat="41.75427731404468" lon="13.819466289228947"><ele>1533.6666666666665</ele><time>2026-04-18T14:28:23Z</time></trkpt><trkpt lat="41.754121281321204" lon="13.819323214620743"><ele>1534.0</ele><time>2026-04-18T14:28:24Z</time></trkpt><trkpt lat="41.754010977792724" lon="13.819236623218279"><ele>1534.0</ele><time>2026-04-18T14:28:25Z</time></trkpt><trkpt lat="41.75398436331179" lon="13.8191430555208"><ele>1534.0</ele><time>2026-04-18T14:28:26Z</time></trkpt><trkpt lat="41.753987105229804" lon="13.819001413247436"><ele>1534.0</ele><time>2026-04-18T14:28:27Z</time></trkpt><trkpt lat="41.75399345124903" lon="13.818873371644493"><ele>1534.0</ele><time>2026-04-18T14:28:28Z</time></trkpt><trkpt lat="41.75394701403565" lon="13.818753393636396"><ele>1534.0</ele><time>2026-04-18T14:28:29Z</time></trkpt><trkpt lat="41.75386600992836" lon="13.818715409994624"><ele>1534.0</ele><time>2026-04-18T14:28:30Z</time></trkpt><trkpt lat="41.75373260920935" lon="13.818677752236423"><ele>1534.0</ele><time>2026-04-18T14:28:31Z</time></trkpt><trkpt lat="41.75355552899898" lon="13.818697997514501"><ele>1534.0</ele><time>2026-04-18T14:28:32Z</time></trkpt><trkpt lat="41.75339719873539" lon="13.818674541041776"><ele>1534.5</ele><time>2026-04-18T14:28:33Z</time></trkpt><trkpt lat="41.753265166703244" lon="13.818584648213928"><ele>1535.0</ele><time>2026-04-18T14:28:34Z</time></trkpt><trkpt lat="41.75318147711702" lon="13.818488011019108"><ele>1535.5</ele><time>2026-04-18T14:28:35Z</time></trkpt><trkpt lat="41.75310102159501" lon="13.81829928518288"><ele>1536.0</ele><time>2026-04-18T14:28:36Z</time></trkpt><trkpt lat="41.753019155521876" lon="13.818113048264806"><ele>1536.0</ele><time>2026-04-18T14:28:37Z</time></trkpt><trkpt lat="41.75295859399215" lon="13.81797101463562"><ele>1536.0</ele><time>2026-04-18T14:28:38Z</time></trkpt><trkpt lat="41.752890968162006" lon="13.817936763071476"><ele>1536.0</ele><time>2026-04-18T14:28:39Z</time></trkpt><trkpt lat="41.75278836285941" lon="13.817949412556448"><ele>1536.0</ele><time>2026-04-18T14:28:40Z</time></trkpt><trkpt lat="41.752691811747276" lon="13.817962315797574"><ele>1536.0</ele><time>2026-04-18T14:28:41Z</time></trkpt><trkpt lat="41.75256805160515" lon="13.817943850621324"><ele>1535.75</ele><time>2026-04-18T14:28:42Z</time></trkpt><trkpt lat="41.752508204378444" lon="13.817855626220148"><ele>1535.5</ele><time>2026-04-18T14:28:43Z</time></trkpt><trkpt lat="41.75242028504181" lon="13.81769108631804"><ele>1535.25</ele><time>2026-04-18T14:28:44Z</time></trkpt><trkpt lat="41.752368456842056" lon="13.81750130826433"><ele>1535.0</ele><time>2026-04-18T14:28:45Z</time></trkpt><trkpt lat="41.75229595860686" lon="13.81726181467927"><ele>1535.0</ele><time>2026-04-18T14:28:46Z</time></trkpt><trkpt lat="41.75215342173857" lon="13.817094543363345"><ele>1535.0</ele><time>2026-04-18T14:28:47Z</time></trkpt><trkpt lat="41.752034511796836" lon="13.81691739530422"><ele>1535.0</ele><time>2026-04-18T14:28:48Z</time></trkpt><trkpt lat="41.75193004552893" lon="13.816755884016576"><ele>1533.25</ele><time>2026-04-18T14:28:49Z</time></trkpt><trkpt lat="41.75187700149108" lon="13.816643964890925"><ele>1531.5</ele><time>2026-04-18T14:28:50Z</time></trkpt><trkpt lat="41.75187846181245" lon="13.816523242652291"><ele>1529.75</ele><time>2026-04-18T14:28:51Z</time></trkpt><trkpt lat="41.75186681390048" lon="13.816330685283111"><ele>1528.0</ele><time>2026-04-18T14:28:52Z</time></trkpt><trkpt lat="41.75186191874409" lon="13.816166061828934"><ele>1529.8000000000002</ele><time>2026-04-18T14:28:53Z</time></trkpt><trkpt lat="41.751851276483244" lon="13.816000144463187"><ele>1531.6</ele><time>2026-04-18T14:28:54Z</time></trkpt><trkpt lat="41.751835810359196" lon="13.815870442716243"><ele>1533.4</ele><time>2026-04-18T14:28:55Z</time></trkpt><trkpt lat="41.75177248456629" lon="13.815757013932485"><ele>1535.1999999999998</ele><time>2026-04-18T14:28:56Z</time></trkpt><trkpt lat="41.7517016066528" lon="13.815683989182002"><ele>1537.0</ele><time>2026-04-18T14:28:57Z</time></trkpt><trkpt lat="41.75161175747756" lon="13.815608964665167"><ele>1537.0</ele><time>2026-04-18T14:28:58Z</time></trkpt><trkpt lat="41.75145504553498" lon="13.81557333864627"><ele>1537.0</ele><time>2026-04-18T14:28:59Z</time></trkpt><trkpt lat="41.75117746300041" lon="13.815512530237351"><ele>1537.0</ele><time>2026-04-18T14:29:00Z</time></trkpt><trkpt lat="41.75102488492748" lon="13.81547387100484"><ele>1540.3333333333335</ele><time>2026-04-18T14:29:01Z</time></trkpt><trkpt lat="41.750852536882185" lon="13.815404132651869"><ele>1543.6666666666665</ele><time>2026-04-18T14:29:02Z</time></trkpt><trkpt lat="41.75070839120235" lon="13.815280693203519"><ele>1547.0</ele><time>2026-04-18T14:29:03Z</time></trkpt><trkpt lat="41.75059270940855" lon="13.815182843981761"><ele>1548.0</ele><time>2026-04-18T14:29:04Z</time></trkpt><trkpt lat="41.7504765826735" lon="13.815116530135647"><ele>1549.0</ele><time>2026-04-18T14:29:05Z</time></trkpt><trkpt lat="41.75030563711933" lon="13.815153195234581"><ele>1550.0</ele><time>2026-04-18T14:29:06Z</time></trkpt><trkpt lat="41.750127542096386" lon="13.81519185213788"><ele>1540.6666666666665</ele><time>2026-04-18T14:29:07Z</time></trkpt><trkpt lat="41.74996189138111" lon="13.815148288163659"><ele>1531.3333333333333</ele><time>2026-04-18T14:29:08Z</time></trkpt><trkpt lat="41.74981642933007" lon="13.81502980643073"><ele>1522.0</ele><time>2026-04-18T14:29:09Z</time></trkpt><trkpt lat="41.74968995833222" lon="13.814908613698755"><ele>1522.0</ele><time>2026-04-18T14:29:10Z</time></trkpt><trkpt lat="41.74955960816182" lon="13.814801487240587"><ele>1522.0</ele><time>2026-04-18T14:29:11Z</time></trkpt><trkpt lat="41.74945962710585" lon="13.814687818871597"><ele>1522.0</ele><time>2026-04-18T14:29:12Z</time></trkpt><trkpt lat="41.74936959387244" lon="13.814593316366642"><ele>1522.0</ele><time>2026-04-18T14:29:13Z</time></trkpt><trkpt lat="41.7492887428299" lon="13.814517886562367"><ele>1523.3333333333333</ele><time>2026-04-18T14:29:14Z</time></trkpt><trkpt lat="41.7492159743756" lon="13.814443460425405"><ele>1524.6666666666665</ele><time>2026-04-18T14:29:15Z</time></trkpt><trkpt lat="41.7491439278094" lon="13.814374668233684"><ele>1526.0</ele><time>2026-04-18T14:29:16Z</time></trkpt><trkpt lat="41.74907847715114" lon="13.814313419499493"><ele>1527.3333333333333</ele><time>2026-04-18T14:29:17Z</time></trkpt><trkpt lat="41.749020677439994" lon="13.81425312383039"><ele>1528.6666666666667</ele><time>2026-04-18T14:29:18Z</time></trkpt><trkpt lat="41.748960559976304" lon="13.814209601640316"><ele>1530.0</ele><time>2026-04-18T14:29:19Z</time></trkpt><trkpt lat="41.74886970877681" lon="13.814205112063616"><ele>1528.5</ele><time>2026-04-18T14:29:20Z</time></trkpt><trkpt lat="41.748774891464116" lon="13.814261652293862"><ele>1527.0</ele><time>2026-04-18T14:29:21Z</time></trkpt><trkpt lat="41.7486936491653" lon="13.81428985214458"><ele>1525.5</ele><time>2026-04-18T14:29:22Z</time></trkpt><trkpt lat="41.748505036554796" lon="13.814494738103047"><ele>1524.0</ele><time>2026-04-18T14:29:23Z</time></trkpt><trkpt lat="41.748347829041904" lon="13.814644748810093"><ele>1524.0</ele><time>2026-04-18T14:29:24Z</time></trkpt><trkpt lat="41.74822002628753" lon="13.814759306518626"><ele>1524.0</ele><time>2026-04-18T14:29:25Z</time></trkpt><trkpt lat="41.74811931711282" lon="13.814772181490435"><ele>1524.0</ele><time>2026-04-18T14:29:26Z</time></trkpt><trkpt lat="41.74798058229619" lon="13.8147085051124"><ele>1524.0</ele><time>2026-04-18T14:29:27Z</time></trkpt><trkpt lat="41.74774297970977" lon="13.81463881771981"><ele>1525.5</ele><time>2026-04-18T14:29:28Z</time></trkpt><trkpt lat="41.747503506201156" lon="13.814556723400303"><ele>1527.0</ele><time>2026-04-18T14:29:29Z</time></trkpt><trkpt lat="41.747294577335495" lon="13.814457566655642"><ele>1527.0</ele><time>2026-04-18T14:29:30Z</time></trkpt><trkpt lat="41.74712719034373" lon="13.814347425690283"><ele>1527.0</ele><time>2026-04-18T14:29:31Z</time></trkpt><trkpt lat="41.74696158535439" lon="13.814157918550892"><ele>1527.0</ele><time>2026-04-18T14:29:32Z</time></trkpt><trkpt lat="41.746821066428566" lon="13.813942592170756"><ele>1524.3333333333333</ele><time>2026-04-18T14:29:33Z</time></trkpt><trkpt lat="41.74670084263996" lon="13.813734488662602"><ele>1521.6666666666665</ele><time>2026-04-18T14:29:34Z</time></trkpt><trkpt lat="41.74660342699279" lon="13.813582945450097"><ele>1519.0</ele><time>2026-04-18T14:29:35Z</time></trkpt><trkpt lat="41.7465202115437" lon="13.81345944506943"><ele>1511.6666666666665</ele><time>2026-04-18T14:29:36Z</time></trkpt><trkpt lat="41.74632032180064" lon="13.813450357986277"><ele>1504.3333333333333</ele><time>2026-04-18T14:29:37Z</time></trkpt><trkpt lat="41.74611443026889" lon="13.813431987730175"><ele>1497.0</ele><time>2026-04-18T14:29:38Z</time></trkpt><trkpt lat="41.74589252184966" lon="13.813411122107178"><ele>1497.0</ele><time>2026-04-18T14:29:39Z</time></trkpt><trkpt lat="41.745648777581984" lon="13.813343709397872"><ele>1497.0</ele><time>2026-04-18T14:29:40Z</time></trkpt><trkpt lat="41.74540620176699" lon="13.813289537176493"><ele>1498.6666666666667</ele><time>2026-04-18T14:29:41Z</time></trkpt><trkpt lat="41.74517336707774" lon="13.813250749904725"><ele>1500.3333333333335</ele><time>2026-04-18T14:29:42Z</time></trkpt><trkpt lat="41.74497649303135" lon="13.813209424455668"><ele>1502.0</ele><time>2026-04-18T14:29:43Z</time></trkpt><trkpt lat="41.74478409761247" lon="13.813151409726622"><ele>1502.0</ele><time>2026-04-18T14:29:44Z</time></trkpt><trkpt lat="41.744614763664764" lon="13.813062861496459"><ele>1502.0</ele><time>2026-04-18T14:29:45Z</time></trkpt><trkpt lat="41.7444652189388" lon="13.81292298017175"><ele>1502.0</ele><time>2026-04-18T14:29:46Z</time></trkpt><trkpt lat="41.744372858556" lon="13.812847156860594"><ele>1502.0</ele><time>2026-04-18T14:29:47Z</time></trkpt><trkpt lat="41.74424399771394" lon="13.812817635806985"><ele>1502.0</ele><time>2026-04-18T14:29:48Z</time></trkpt><trkpt lat="41.74413034835116" lon="13.812857217334297"><ele>1502.0</ele><time>2026-04-18T14:29:49Z</time></trkpt><trkpt lat="41.74397144985153" lon="13.812965801880374"><ele>1502.0</ele><time>2026-04-18T14:29:50Z</time></trkpt><trkpt lat="41.74384031758091" lon="13.813102671468664"><ele>1502.0</ele><time>2026-04-18T14:29:51Z</time></trkpt><trkpt lat="41.74371680101318" lon="13.81326388868021"><ele>1502.0</ele><time>2026-04-18T14:29:52Z</time></trkpt><trkpt lat="41.74360089899473" lon="13.81337445080075"><ele>1502.0</ele><time>2026-04-18T14:29:53Z</time></trkpt><trkpt lat="41.743497309775144" lon="13.813426074029964"><ele>1502.0</ele><time>2026-04-18T14:29:54Z</time></trkpt><trkpt lat="41.74338371010108" lon="13.813424836797898"><ele>1497.0</ele><time>2026-04-18T14:29:55Z</time></trkpt><trkpt lat="41.74321319406918" lon="13.813345416072899"><ele>1492.0</ele><time>2026-04-18T14:29:56Z</time></trkpt><trkpt lat="41.74305658309961" lon="13.813274463195713"><ele>1487.0</ele><time>2026-04-18T14:29:57Z</time></trkpt><trkpt lat="41.74288233157254" lon="13.813258251841008"><ele>1491.6666666666667</ele><time>2026-04-18T14:29:58Z</time></trkpt><trkpt lat="41.742698628622335" lon="13.813346208462436"><ele>1496.3333333333333</ele><time>2026-04-18T14:29:59Z</time></trkpt><trkpt lat="41.742515426853934" lon="13.813465907614072"><ele>1501.0</ele><time>2026-04-18T14:30:00Z</time></trkpt><trkpt lat="41.74232005684956" lon="13.813634063437549"><ele>1501.0</ele><time>2026-04-18T14:30:01Z</time></trkpt><trkpt lat="41.7421399272988" lon="13.813798822419116"><ele>1501.0</ele><time>2026-04-18T14:30:02Z</time></trkpt><trkpt lat="41.74198484938059" lon="13.81395235181827"><ele>1501.0</ele><time>2026-04-18T14:30:03Z</time></trkpt><trkpt lat="41.741806082841634" lon="13.814043944114614"><ele>1494.0</ele><time>2026-04-18T14:30:04Z</time></trkpt><trkpt lat="41.741601905074205" lon="13.814099631764922"><ele>1487.0</ele><time>2026-04-18T14:30:05Z</time></trkpt><trkpt lat="41.74140762062471" lon="13.814142657415022"><ele>1480.0</ele><time>2026-04-18T14:30:06Z</time></trkpt><trkpt lat="41.74123871938158" lon="13.814168348032846"><ele>1480.0</ele><time>2026-04-18T14:30:07Z</time></trkpt><trkpt lat="41.74105965726129" lon="13.814145149283119"><ele>1480.0</ele><time>2026-04-18T14:30:08Z</time></trkpt><trkpt lat="41.740867771980625" lon="13.814064173301873"><ele>1480.0</ele><time>2026-04-18T14:30:09Z</time></trkpt><trkpt lat="41.740672486988224" lon="13.81405727538926"><ele>1475.3333333333333</ele><time>2026-04-18T14:30:10Z</time></trkpt><trkpt lat="41.74047563412249" lon="13.8141079917579"><ele>1470.6666666666667</ele><time>2026-04-18T14:30:11Z</time></trkpt><trkpt lat="41.740302872619104" lon="13.814193443438054"><ele>1466.0</ele><time>2026-04-18T14:30:12Z</time></trkpt><trkpt lat="41.74014905259632" lon="13.814316438127893"><ele>1469.6666666666667</ele><time>2026-04-18T14:30:13Z</time></trkpt><trkpt lat="41.74001430019354" lon="13.814487220573266"><ele>1473.3333333333333</ele><time>2026-04-18T14:30:14Z</time></trkpt><trkpt lat="41.73986796525403" lon="13.814644449715262"><ele>1477.0</ele><time>2026-04-18T14:30:15Z</time></trkpt><trkpt lat="41.739672853645835" lon="13.81468342480569"><ele>1477.0</ele><time>2026-04-18T14:30:16Z</time></trkpt><trkpt lat="41.73947464115495" lon="13.814776410288431"><ele>1477.0</ele><time>2026-04-18T14:30:17Z</time></trkpt><trkpt lat="41.73929915502689" lon="13.81484480202898"><ele>1477.0</ele><time>2026-04-18T14:30:18Z</time></trkpt><trkpt lat="41.73916083462214" lon="13.814905911526989"><ele>1471.6666666666665</ele><time>2026-04-18T14:30:19Z</time></trkpt><trkpt lat="41.7390203709941" lon="13.81493470700293"><ele>1466.3333333333333</ele><time>2026-04-18T14:30:20Z</time></trkpt><trkpt lat="41.738865865232505" lon="13.81491336068095"><ele>1461.0</ele><time>2026-04-18T14:30:21Z</time></trkpt><trkpt lat="41.738705487812" lon="13.814826202438828"><ele>1461.0</ele><time>2026-04-18T14:30:22Z</time></trkpt><trkpt lat="41.73856108316328" lon="13.814740173467703"><ele>1461.0</ele><time>2026-04-18T14:30:23Z</time></trkpt><trkpt lat="41.738414578601954" lon="13.814730905721447"><ele>1461.0</ele><time>2026-04-18T14:30:24Z</time></trkpt><trkpt lat="41.73823819191291" lon="13.814819531581467"><ele>1458.0</ele><time>2026-04-18T14:30:25Z</time></trkpt><trkpt lat="41.738047482106445" lon="13.814925814882784"><ele>1455.0</ele><time>2026-04-18T14:30:26Z</time></trkpt><trkpt lat="41.7378488395711" lon="13.814992684484107"><ele>1452.0</ele><time>2026-04-18T14:30:27Z</time></trkpt><trkpt lat="41.737683941596956" lon="13.815039777638129"><ele>1456.6666666666667</ele><time>2026-04-18T14:30:28Z</time></trkpt><trkpt lat="41.73754415663159" lon="13.815127271748754"><ele>1461.3333333333335</ele><time>2026-04-18T14:30:29Z</time></trkpt><trkpt lat="41.737409797270196" lon="13.815290989558152"><ele>1466.0</ele><time>2026-04-18T14:30:30Z</time></trkpt><trkpt lat="41.73726979033295" lon="13.815471838122107"><ele>1466.0</ele><time>2026-04-18T14:30:31Z</time></trkpt><trkpt lat="41.737121281109076" lon="13.815588682130313"><ele>1466.0</ele><time>2026-04-18T14:30:32Z</time></trkpt><trkpt lat="41.736955152367656" lon="13.81567008590293"><ele>1466.0</ele><time>2026-04-18T14:30:33Z</time></trkpt><trkpt lat="41.736759175372164" lon="13.815704483680364"><ele>1459.75</ele><time>2026-04-18T14:30:34Z</time></trkpt><trkpt lat="41.73657858071352" lon="13.815693798959838"><ele>1453.5</ele><time>2026-04-18T14:30:35Z</time></trkpt><trkpt lat="41.73645744664904" lon="13.81572912722008"><ele>1447.25</ele><time>2026-04-18T14:30:36Z</time></trkpt><trkpt lat="41.73634744657812" lon="13.815812121154826"><ele>1441.0</ele><time>2026-04-18T14:30:37Z</time></trkpt><trkpt lat="41.73623489357157" lon="13.815980582222522"><ele>1440.3333333333333</ele><time>2026-04-18T14:30:38Z</time></trkpt><trkpt lat="41.73610710807476" lon="13.81618040237994"><ele>1439.6666666666667</ele><time>2026-04-18T14:30:39Z</time></trkpt><trkpt lat="41.73596279776988" lon="13.816383394147586"><ele>1439.0</ele><time>2026-04-18T14:30:40Z</time></trkpt><trkpt lat="41.735800450494814" lon="13.816570953990732"><ele>1439.0</ele><time>2026-04-18T14:30:41Z</time></trkpt><trkpt lat="41.735619570042516" lon="13.816741152776432"><ele>1439.0</ele><time>2026-04-18T14:30:42Z</time></trkpt><trkpt lat="41.73543005154533" lon="13.81688384328031"><ele>1439.0</ele><time>2026-04-18T14:30:43Z</time></trkpt><trkpt lat="41.735240940952856" lon="13.816993664270496"><ele>1439.3333333333335</ele><time>2026-04-18T14:30:44Z</time></trkpt><trkpt lat="41.73506056560796" lon="13.817060271264685"><ele>1439.6666666666667</ele><time>2026-04-18T14:30:45Z</time></trkpt><trkpt lat="41.73489338306537" lon="13.817134548357835"><ele>1440.0</ele><time>2026-04-18T14:30:46Z</time></trkpt><trkpt lat="41.734747461968205" lon="13.81725894874508"><ele>1440.0</ele><time>2026-04-18T14:30:47Z</time></trkpt><trkpt lat="41.734616182665704" lon="13.817454105829544"><ele>1440.0</ele><time>2026-04-18T14:30:48Z</time></trkpt><trkpt lat="41.734497213656056" lon="13.817680919994606"><ele>1440.0</ele><time>2026-04-18T14:30:49Z</time></trkpt><trkpt lat="41.73438482323527" lon="13.817874116194606"><ele>1437.6666666666667</ele><time>2026-04-18T14:30:50Z</time></trkpt><trkpt lat="41.734271342678866" lon="13.818038617052455"><ele>1435.3333333333335</ele><time>2026-04-18T14:30:51Z</time></trkpt><trkpt lat="41.73411784918667" lon="13.818151674206304"><ele>1433.0</ele><time>2026-04-18T14:30:52Z</time></trkpt><trkpt lat="41.73395118767002" lon="13.818258011606574"><ele>1433.0</ele><time>2026-04-18T14:30:53Z</time></trkpt><trkpt lat="41.73378458031906" lon="13.818332813478406"><ele>1433.0</ele><time>2026-04-18T14:30:54Z</time></trkpt><trkpt lat="41.73363817114084" lon="13.81839531747883"><ele>1433.0</ele><time>2026-04-18T14:30:55Z</time></trkpt><trkpt lat="41.73352621888904" lon="13.818511944756109"><ele>1428.6666666666667</ele><time>2026-04-18T14:30:56Z</time></trkpt><trkpt lat="41.733440193113026" lon="13.818679735226267"><ele>1424.3333333333333</ele><time>2026-04-18T14:30:57Z</time></trkpt><trkpt lat="41.7333876403423" lon="13.818897989340293"><ele>1420.0</ele><time>2026-04-18T14:30:58Z</time></trkpt><trkpt lat="41.73334327170949" lon="13.819091212419144"><ele>1420.0</ele><time>2026-04-18T14:30:59Z</time></trkpt><trkpt lat="41.733310364859165" lon="13.819224400408139"><ele>1420.0</ele><time>2026-04-18T14:31:00Z</time></trkpt><trkpt lat="41.7332751496278" lon="13.8193275291929"><ele>1420.0</ele><time>2026-04-18T14:31:01Z</time></trkpt><trkpt lat="41.73323951508287" lon="13.81941940216347"><ele>1420.0</ele><time>2026-04-18T14:31:02Z</time></trkpt><trkpt lat="41.73317804116185" lon="13.8195417538605"><ele>1420.0</ele><time>2026-04-18T14:31:04Z</time></trkpt><trkpt lat="41.733125072784375" lon="13.819613212477298"><ele>1423.0</ele><time>2026-04-18T14:31:06Z</time></trkpt><trkpt lat="41.733066511229886" lon="13.819676551925761"><ele>1426.0</ele><time>2026-04-18T14:31:12Z</time></trkpt><trkpt lat="41.733089641556255" lon="13.81977182142914"><ele>1429.0</ele><time>2026-04-18T14:32:39Z</time></trkpt><trkpt lat="41.73302476157025" lon="13.819775666584443"><ele>1432.0</ele><time>2026-04-18T14:32:46Z</time></trkpt><trkpt lat="41.733084592162115" lon="13.819745799649445"><ele>1435.0</ele><time>2026-04-18T14:49:04Z</time></trkpt><trkpt lat="41.733005675666256" lon="13.819659912899185"><ele>1438.0</ele><time>2026-04-18T14:51:58Z</time></trkpt><trkpt lat="41.73302048745143" lon="13.819488758344791"><ele>1438.0</ele><time>2026-04-18T14:52:00Z</time></trkpt><trkpt lat="41.733075908436334" lon="13.819385157141413"><ele>1438.0</ele><time>2026-04-18T14:52:01Z</time></trkpt><trkpt lat="41.733152809925166" lon="13.81927139333454"><ele>1438.0</ele><time>2026-04-18T14:52:02Z</time></trkpt><trkpt lat="41.7332203860038" lon="13.819125091668932"><ele>1438.0</ele><time>2026-04-18T14:52:03Z</time></trkpt><trkpt lat="41.733276496256934" lon="13.818957465775995"><ele>1433.5</ele><time>2026-04-18T14:52:04Z</time></trkpt><trkpt lat="41.73332622378214" lon="13.818778312065072"><ele>1429.0</ele><time>2026-04-18T14:52:05Z</time></trkpt><trkpt lat="41.73336994113079" lon="13.818604831297879"><ele>1424.5</ele><time>2026-04-18T14:52:06Z</time></trkpt><trkpt lat="41.73341187536918" lon="13.818443187113797"><ele>1420.0</ele><time>2026-04-18T14:52:07Z</time></trkpt><trkpt lat="41.73346825772476" lon="13.818296828445577"><ele>1423.25</ele><time>2026-04-18T14:52:08Z</time></trkpt><trkpt lat="41.73354428873748" lon="13.818178923685169"><ele>1426.5</ele><time>2026-04-18T14:52:09Z</time></trkpt><trkpt lat="41.733636807926274" lon="13.818078304032348"><ele>1429.75</ele><time>2026-04-18T14:52:10Z</time></trkpt><trkpt lat="41.73374571654396" lon="13.81801666886995"><ele>1433.0</ele><time>2026-04-18T14:52:11Z</time></trkpt><trkpt lat="41.7338411675076" lon="13.817944729095807"><ele>1433.0</ele><time>2026-04-18T14:52:12Z</time></trkpt><trkpt lat="41.733933960068974" lon="13.817868728390286"><ele>1433.0</ele><time>2026-04-18T14:52:13Z</time></trkpt><trkpt lat="41.734023320245534" lon="13.817782049002297"><ele>1433.0</ele><time>2026-04-18T14:52:14Z</time></trkpt><trkpt lat="41.73410681439096" lon="13.817683327063834"><ele>1433.0</ele><time>2026-04-18T14:52:15Z</time></trkpt><trkpt lat="41.734177550456906" lon="13.817564752133395"><ele>1433.0</ele><time>2026-04-18T14:52:16Z</time></trkpt><trkpt lat="41.73423874656091" lon="13.817427905833148"><ele>1434.75</ele><time>2026-04-18T14:52:17Z</time></trkpt><trkpt lat="41.734289030511654" lon="13.817281382144127"><ele>1436.5</ele><time>2026-04-18T14:52:18Z</time></trkpt><trkpt lat="41.73433920968124" lon="13.817122883093495"><ele>1438.25</ele><time>2026-04-18T14:52:19Z</time></trkpt><trkpt lat="41.73439886212553" lon="13.816945211900231"><ele>1440.0</ele><time>2026-04-18T14:52:20Z</time></trkpt><trkpt lat="41.73446658716814" lon="13.816767592430296"><ele>1433.25</ele><time>2026-04-18T14:52:21Z</time></trkpt><trkpt lat="41.73454738407302" lon="13.816604952612769"><ele>1426.5</ele><time>2026-04-18T14:52:22Z</time></trkpt><trkpt lat="41.7346289697944" lon="13.816474554951544"><ele>1419.75</ele><time>2026-04-18T14:52:23Z</time></trkpt><trkpt lat="41.73472431617961" lon="13.816363063527543"><ele>1413.0</ele><time>2026-04-18T14:52:24Z</time></trkpt><trkpt lat="41.73485970492352" lon="13.816270633648637"><ele>1413.0</ele><time>2026-04-18T14:52:25Z</time></trkpt><trkpt lat="41.73502065713789" lon="13.81617819415286"><ele>1413.0</ele><time>2026-04-18T14:52:26Z</time></trkpt><trkpt lat="41.735167346334386" lon="13.816051843880386"><ele>1413.0</ele><time>2026-04-18T14:52:27Z</time></trkpt><trkpt lat="41.73530328890465" lon="13.815890307877453"><ele>1413.0</ele><time>2026-04-18T14:52:28Z</time></trkpt><trkpt lat="41.73542889072475" lon="13.815714738255755"><ele>1413.0</ele><time>2026-04-18T14:52:29Z</time></trkpt><trkpt lat="41.73553977346104" lon="13.815557479111963"><ele>1413.0</ele><time>2026-04-18T14:52:30Z</time></trkpt><trkpt lat="41.73563560765989" lon="13.815395896239595"><ele>1413.0</ele><time>2026-04-18T14:52:31Z</time></trkpt><trkpt lat="41.73571821757763" lon="13.815214570083386"><ele>1413.0</ele><time>2026-04-18T14:52:32Z</time></trkpt><trkpt lat="41.7357912961275" lon="13.815016855983774"><ele>1413.0</ele><time>2026-04-18T14:52:33Z</time></trkpt><trkpt lat="41.735850884420316" lon="13.814856895035746"><ele>1412.5</ele><time>2026-04-18T14:52:34Z</time></trkpt><trkpt lat="41.73590365623226" lon="13.814739705105913"><ele>1412.0</ele><time>2026-04-18T14:52:35Z</time></trkpt><trkpt lat="41.73597423544424" lon="13.814637703166758"><ele>1411.5</ele><time>2026-04-18T14:52:36Z</time></trkpt><trkpt lat="41.73607895328109" lon="13.814551464332146"><ele>1411.0</ele><time>2026-04-18T14:52:37Z</time></trkpt><trkpt lat="41.736223322996196" lon="13.814460202551054"><ele>1411.0</ele><time>2026-04-18T14:52:38Z</time></trkpt><trkpt lat="41.73638797897711" lon="13.814343569640435"><ele>1411.0</ele><time>2026-04-18T14:52:39Z</time></trkpt><trkpt lat="41.73656164202555" lon="13.814217051199138"><ele>1411.0</ele><time>2026-04-18T14:52:40Z</time></trkpt><trkpt lat="41.7367264965038" lon="13.814102135343623"><ele>1410.3333333333333</ele><time>2026-04-18T14:52:41Z</time></trkpt><trkpt lat="41.7368545051429" lon="13.813990550926766"><ele>1409.6666666666667</ele><time>2026-04-18T14:52:42Z</time></trkpt><trkpt lat="41.73696151514661" lon="13.813850710577213"><ele>1409.0</ele><time>2026-04-18T14:52:43Z</time></trkpt><trkpt lat="41.73705766259884" lon="13.81365829828493"><ele>1400.6666666666667</ele><time>2026-04-18T14:52:44Z</time></trkpt><trkpt lat="41.73715180672935" lon="13.81342884310394"><ele>1392.3333333333333</ele><time>2026-04-18T14:52:45Z</time></trkpt><trkpt lat="41.73723365027609" lon="13.81322271485905"><ele>1384.0</ele><time>2026-04-18T14:52:46Z</time></trkpt><trkpt lat="41.73730695648606" lon="13.813052414627563"><ele>1384.0</ele><time>2026-04-18T14:52:47Z</time></trkpt><trkpt lat="41.73739061307131" lon="13.812897050185775"><ele>1384.0</ele><time>2026-04-18T14:52:48Z</time></trkpt><trkpt lat="41.73752017418044" lon="13.812768916155783"><ele>1384.0</ele><time>2026-04-18T14:52:49Z</time></trkpt><trkpt lat="41.73766422013139" lon="13.812638145514969"><ele>1381.3333333333333</ele><time>2026-04-18T14:52:50Z</time></trkpt><trkpt lat="41.737815069548645" lon="13.812499302896619"><ele>1378.6666666666667</ele><time>2026-04-18T14:52:51Z</time></trkpt><trkpt lat="41.737962778357826" lon="13.812367993747895"><ele>1376.0</ele><time>2026-04-18T14:52:52Z</time></trkpt><trkpt lat="41.73808486458454" lon="13.812254422079626"><ele>1376.0</ele><time>2026-04-18T14:52:53Z</time></trkpt><trkpt lat="41.73818543886126" lon="13.812138361010911"><ele>1376.0</ele><time>2026-04-18T14:52:54Z</time></trkpt><trkpt lat="41.73826613984675" lon="13.812007929838536"><ele>1376.0</ele><time>2026-04-18T14:52:55Z</time></trkpt><trkpt lat="41.73832500009777" lon="13.81185102343805"><ele>1376.0</ele><time>2026-04-18T14:52:56Z</time></trkpt><trkpt lat="41.738371260930435" lon="13.811674777742924"><ele>1373.75</ele><time>2026-04-18T14:52:57Z</time></trkpt><trkpt lat="41.73837958547774" lon="13.81150175380895"><ele>1371.5</ele><time>2026-04-18T14:52:58Z</time></trkpt><trkpt lat="41.738355918298886" lon="13.811327324054686"><ele>1369.25</ele><time>2026-04-18T14:52:59Z</time></trkpt><trkpt lat="41.73831658911873" lon="13.811164480221445"><ele>1367.0</ele><time>2026-04-18T14:53:00Z</time></trkpt><trkpt lat="41.73825350091388" lon="13.811021345176902"><ele>1366.25</ele><time>2026-04-18T14:53:01Z</time></trkpt><trkpt lat="41.738167175091895" lon="13.810903951304425"><ele>1365.5</ele><time>2026-04-18T14:53:02Z</time></trkpt><trkpt lat="41.73805394302981" lon="13.810815802165296"><ele>1364.75</ele><time>2026-04-18T14:53:03Z</time></trkpt><trkpt lat="41.73790810970574" lon="13.810760138481728"><ele>1364.0</ele><time>2026-04-18T14:53:04Z</time></trkpt><trkpt lat="41.73771465338073" lon="13.810739224370906"><ele>1364.0</ele><time>2026-04-18T14:53:05Z</time></trkpt><trkpt lat="41.737498003253485" lon="13.810720531419008"><ele>1364.0</ele><time>2026-04-18T14:53:06Z</time></trkpt><trkpt lat="41.737286603246886" lon="13.810725415943867"><ele>1364.0</ele><time>2026-04-18T14:53:07Z</time></trkpt><trkpt lat="41.737069009693016" lon="13.810768008926095"><ele>1363.0</ele><time>2026-04-18T14:53:08Z</time></trkpt><trkpt lat="41.73682790843628" lon="13.810836084377899"><ele>1362.0</ele><time>2026-04-18T14:53:09Z</time></trkpt><trkpt lat="41.73657394987192" lon="13.810922907102265"><ele>1353.5</ele><time>2026-04-18T14:53:10Z</time></trkpt><trkpt lat="41.736342552874966" lon="13.811018786284924"><ele>1345.0</ele><time>2026-04-18T14:53:11Z</time></trkpt><trkpt lat="41.73610671383331" lon="13.81115651775433"><ele>1343.6666666666665</ele><time>2026-04-18T14:53:12Z</time></trkpt><trkpt lat="41.73591761685382" lon="13.811271211176356"><ele>1342.3333333333333</ele><time>2026-04-18T14:53:13Z</time></trkpt><trkpt lat="41.735733379055155" lon="13.811368647866825"><ele>1341.0</ele><time>2026-04-18T14:53:14Z</time></trkpt><trkpt lat="41.73551264395997" lon="13.81146516188656"><ele>1341.0</ele><time>2026-04-18T14:53:15Z</time></trkpt><trkpt lat="41.73529816752382" lon="13.811581237348895"><ele>1341.0</ele><time>2026-04-18T14:53:16Z</time></trkpt><trkpt lat="41.73512984926746" lon="13.811668977726962"><ele>1341.0</ele><time>2026-04-18T14:53:17Z</time></trkpt><trkpt lat="41.73494990727174" lon="13.81175787580061"><ele>1337.0</ele><time>2026-04-18T14:53:18Z</time></trkpt><trkpt lat="41.734752057559646" lon="13.811842122212921"><ele>1333.0</ele><time>2026-04-18T14:53:19Z</time></trkpt><trkpt lat="41.73457226548033" lon="13.811902922310491"><ele>1329.0</ele><time>2026-04-18T14:53:20Z</time></trkpt><trkpt lat="41.73438683503311" lon="13.811959875553427"><ele>1327.3333333333333</ele><time>2026-04-18T14:53:21Z</time></trkpt><trkpt lat="41.73418464620341" lon="13.812014400288966"><ele>1325.6666666666665</ele><time>2026-04-18T14:53:22Z</time></trkpt><trkpt lat="41.73397222756341" lon="13.812059665332868"><ele>1324.0</ele><time>2026-04-18T14:53:23Z</time></trkpt><trkpt lat="41.733748880112266" lon="13.81212432901334"><ele>1332.5</ele><time>2026-04-18T14:53:24Z</time></trkpt><trkpt lat="41.733515634061064" lon="13.812236171213447"><ele>1341.0</ele><time>2026-04-18T14:53:25Z</time></trkpt><trkpt lat="41.73326981138831" lon="13.812357847661364"><ele>1341.0</ele><time>2026-04-18T14:53:26Z</time></trkpt><trkpt lat="41.73303244989394" lon="13.81245590137387"><ele>1341.0</ele><time>2026-04-18T14:53:27Z</time></trkpt><trkpt lat="41.73280099834295" lon="13.812545643773797"><ele>1345.0</ele><time>2026-04-18T14:53:28Z</time></trkpt><trkpt lat="41.73257220896" lon="13.812635654093569"><ele>1349.0</ele><time>2026-04-18T14:53:29Z</time></trkpt><trkpt lat="41.732342003189736" lon="13.812726833682479"><ele>1334.5</ele><time>2026-04-18T14:53:30Z</time></trkpt><trkpt lat="41.73210538974064" lon="13.81280059940155"><ele>1320.0</ele><time>2026-04-18T14:53:31Z</time></trkpt><trkpt lat="41.73184485376972" lon="13.812856189308182"><ele>1318.5</ele><time>2026-04-18T14:53:32Z</time></trkpt><trkpt lat="41.73158098894021" lon="13.812897608239918"><ele>1317.0</ele><time>2026-04-18T14:53:33Z</time></trkpt><trkpt lat="41.73131224469203" lon="13.812944368695728"><ele>1318.0</ele><time>2026-04-18T14:53:34Z</time></trkpt><trkpt lat="41.73104323643056" lon="13.813002704130149"><ele>1319.0</ele><time>2026-04-18T14:53:35Z</time></trkpt><trkpt lat="41.73077304675122" lon="13.813068335872703"><ele>1319.0</ele><time>2026-04-18T14:53:36Z</time></trkpt><trkpt lat="41.730515825857715" lon="13.813119463656935"><ele>1319.0</ele><time>2026-04-18T14:53:37Z</time></trkpt><trkpt lat="41.730269317889565" lon="13.813166155777681"><ele>1319.6666666666667</ele><time>2026-04-18T14:53:38Z</time></trkpt><trkpt lat="41.730043360652324" lon="13.813193402296326"><ele>1320.3333333333333</ele><time>2026-04-18T14:53:39Z</time></trkpt><trkpt lat="41.72984493795168" lon="13.813243816060368"><ele>1321.0</ele><time>2026-04-18T14:53:40Z</time></trkpt><trkpt lat="41.7296623983355" lon="13.81333225498214"><ele>1321.0</ele><time>2026-04-18T14:53:41Z</time></trkpt><trkpt lat="41.72949645806147" lon="13.813434416470844"><ele>1321.0</ele><time>2026-04-18T14:53:42Z</time></trkpt><trkpt lat="41.729337613898956" lon="13.81352504168172"><ele>1321.0</ele><time>2026-04-18T14:53:43Z</time></trkpt><trkpt lat="41.729166277357436" lon="13.813567629456966"><ele>1312.6666666666665</ele><time>2026-04-18T14:53:44Z</time></trkpt><trkpt lat="41.72897086313307" lon="13.813577883946715"><ele>1304.3333333333333</ele><time>2026-04-18T14:53:45Z</time></trkpt><trkpt lat="41.72878118682491" lon="13.81357187282694"><ele>1296.0</ele><time>2026-04-18T14:53:46Z</time></trkpt><trkpt lat="41.72860780619907" lon="13.813548586769274"><ele>1292.6666666666667</ele><time>2026-04-18T14:53:47Z</time></trkpt><trkpt lat="41.728442329129045" lon="13.813518975167472"><ele>1289.3333333333335</ele><time>2026-04-18T14:53:48Z</time></trkpt><trkpt lat="41.728286545134296" lon="13.813458169965964"><ele>1286.0</ele><time>2026-04-18T14:53:49Z</time></trkpt><trkpt lat="41.72813333726056" lon="13.813338832843694"><ele>1289.3333333333335</ele><time>2026-04-18T14:53:50Z</time></trkpt><trkpt lat="41.727985535346306" lon="13.813178318860269"><ele>1292.6666666666667</ele><time>2026-04-18T14:53:51Z</time></trkpt><trkpt lat="41.727827730973026" lon="13.813009309604084"><ele>1296.0</ele><time>2026-04-18T14:53:52Z</time></trkpt><trkpt lat="41.727646395511755" lon="13.812914762764075"><ele>1296.0</ele><time>2026-04-18T14:53:53Z</time></trkpt><trkpt lat="41.727481519743485" lon="13.812828720433396"><ele>1296.0</ele><time>2026-04-18T14:53:54Z</time></trkpt><trkpt lat="41.7273447605001" lon="13.812766718864015"><ele>1296.0</ele><time>2026-04-18T14:53:55Z</time></trkpt><trkpt lat="41.7272273054925" lon="13.812733470913189"><ele>1296.0</ele><time>2026-04-18T14:53:55.999Z</time></trkpt><trkpt lat="41.72711086996899" lon="13.812739590533955"><ele>1296.0</ele><time>2026-04-18T14:53:56.999Z</time></trkpt><trkpt lat="41.726975021084684" lon="13.812848131064367"><ele>1296.0</ele><time>2026-04-18T14:53:57.999Z</time></trkpt><trkpt lat="41.72680919291569" lon="13.812958620551369"><ele>1296.0</ele><time>2026-04-18T14:53:58.999Z</time></trkpt><trkpt lat="41.7266771420499" lon="13.813063475743675"><ele>1294.0</ele><time>2026-04-18T14:53:59.999Z</time></trkpt><trkpt lat="41.726546798082396" lon="13.813164869054116"><ele>1292.0</ele><time>2026-04-18T14:54:00.999Z</time></trkpt><trkpt lat="41.72642451232527" lon="13.813224844848015"><ele>1290.0</ele><time>2026-04-18T14:54:02Z</time></trkpt><trkpt lat="41.72630385657044" lon="13.81328610107037"><ele>1288.0</ele><time>2026-04-18T14:54:03Z</time></trkpt><trkpt lat="41.7261874184689" lon="13.813293647118648"><ele>1288.3333333333333</ele><time>2026-04-18T14:54:04Z</time></trkpt><trkpt lat="41.72605599498213" lon="13.813265783426091"><ele>1288.6666666666667</ele><time>2026-04-18T14:54:05Z</time></trkpt><trkpt lat="41.72591778108118" lon="13.813185562357884"><ele>1289.0</ele><time>2026-04-18T14:54:06Z</time></trkpt><trkpt lat="41.72577056476299" lon="13.813048079105027"><ele>1289.0</ele><time>2026-04-18T14:54:07Z</time></trkpt><trkpt lat="41.72563713482935" lon="13.812940545434365"><ele>1289.0</ele><time>2026-04-18T14:54:08Z</time></trkpt><trkpt lat="41.72551395152524" lon="13.812854647786544"><ele>1289.0</ele><time>2026-04-18T14:54:09Z</time></trkpt><trkpt lat="41.725335848435236" lon="13.812850519597973"><ele>1284.6666666666667</ele><time>2026-04-18T14:54:10Z</time></trkpt><trkpt lat="41.72515109165016" lon="13.812889813511584"><ele>1280.3333333333333</ele><time>2026-04-18T14:54:11Z</time></trkpt><trkpt lat="41.72494485468875" lon="13.812948793280828"><ele>1276.0</ele><time>2026-04-18T14:54:12Z</time></trkpt><trkpt lat="41.72475133192681" lon="13.813001747663536"><ele>1276.0</ele><time>2026-04-18T14:54:13Z</time></trkpt><trkpt lat="41.72459272545362" lon="13.813056862907906"><ele>1276.0</ele><time>2026-04-18T14:54:14Z</time></trkpt><trkpt lat="41.72444196593394" lon="13.81306609544588"><ele>1276.0</ele><time>2026-04-18T14:54:15Z</time></trkpt><trkpt lat="41.72433310911599" lon="13.813111563697232"><ele>1276.0</ele><time>2026-04-18T14:54:16Z</time></trkpt><trkpt lat="41.72423968015725" lon="13.81312163757967"><ele>1276.0</ele><time>2026-04-18T14:54:17Z</time></trkpt><trkpt lat="41.7241397933699" lon="13.813065985604243"><ele>1276.0</ele><time>2026-04-18T14:54:18Z</time></trkpt><trkpt lat="41.7240477510829" lon="13.81294430636552"><ele>1276.0</ele><time>2026-04-18T14:54:19Z</time></trkpt><trkpt lat="41.72391832484775" lon="13.812762364188444"><ele>1276.0</ele><time>2026-04-18T14:54:20Z</time></trkpt><trkpt lat="41.723760714867396" lon="13.81254643322873"><ele>1271.3333333333333</ele><time>2026-04-18T14:54:21Z</time></trkpt><trkpt lat="41.72362425803162" lon="13.8123053130584"><ele>1266.6666666666667</ele><time>2026-04-18T14:54:22Z</time></trkpt><trkpt lat="41.723510799149636" lon="13.812084101152685"><ele>1262.0</ele><time>2026-04-18T14:54:23Z</time></trkpt><trkpt lat="41.72340484966122" lon="13.81188429134516"><ele>1273.3333333333335</ele><time>2026-04-18T14:54:24Z</time></trkpt><trkpt lat="41.7232640511972" lon="13.811693505053222"><ele>1284.6666666666667</ele><time>2026-04-18T14:54:25Z</time></trkpt><trkpt lat="41.72308652919069" lon="13.811551711937748"><ele>1296.0</ele><time>2026-04-18T14:54:26Z</time></trkpt><trkpt lat="41.72290469186871" lon="13.811398220285989"><ele>1296.0</ele><time>2026-04-18T14:54:27Z</time></trkpt><trkpt lat="41.72273204674165" lon="13.81123000959005"><ele>1296.0</ele><time>2026-04-18T14:54:28Z</time></trkpt><trkpt lat="41.72256494036669" lon="13.81105007297451"><ele>1296.0</ele><time>2026-04-18T14:54:29Z</time></trkpt><trkpt lat="41.72241268853083" lon="13.810959203815756"><ele>1295.0</ele><time>2026-04-18T14:54:30Z</time></trkpt><trkpt lat="41.722242134699606" lon="13.810878042098517"><ele>1294.0</ele><time>2026-04-18T14:54:31Z</time></trkpt><trkpt lat="41.72208592429774" lon="13.810815645199678"><ele>1293.0</ele><time>2026-04-18T14:54:32Z</time></trkpt><trkpt lat="41.72196054764333" lon="13.810723330420883"><ele>1293.5</ele><time>2026-04-18T14:54:33Z</time></trkpt><trkpt lat="41.72186605043434" lon="13.810607479095422"><ele>1294.0</ele><time>2026-04-18T14:54:34Z</time></trkpt><trkpt lat="41.721780201269745" lon="13.810455160499357"><ele>1294.5</ele><time>2026-04-18T14:54:35Z</time></trkpt><trkpt lat="41.721670076454856" lon="13.81027106208933"><ele>1295.0</ele><time>2026-04-18T14:54:36Z</time></trkpt><trkpt lat="41.72153937534581" lon="13.810108673844567"><ele>1295.0</ele><time>2026-04-18T14:54:37Z</time></trkpt><trkpt lat="41.72138021770548" lon="13.80995488355207"><ele>1295.0</ele><time>2026-04-18T14:54:38Z</time></trkpt><trkpt lat="41.72119772663745" lon="13.809821631084922"><ele>1295.0</ele><time>2026-04-18T14:54:39Z</time></trkpt><trkpt lat="41.72099460953184" lon="13.809698372267448"><ele>1291.3333333333335</ele><time>2026-04-18T14:54:40Z</time></trkpt><trkpt lat="41.72079062934447" lon="13.809565014075897"><ele>1287.6666666666667</ele><time>2026-04-18T14:54:41Z</time></trkpt><trkpt lat="41.72060706330805" lon="13.80943746889662"><ele>1284.0</ele><time>2026-04-18T14:54:42Z</time></trkpt><trkpt lat="41.72044790812479" lon="13.809298469468846"><ele>1284.0</ele><time>2026-04-18T14:54:43Z</time></trkpt><trkpt lat="41.7203106408819" lon="13.80918293075425"><ele>1284.0</ele><time>2026-04-18T14:54:44Z</time></trkpt><trkpt lat="41.72018032459963" lon="13.809074039099691"><ele>1284.0</ele><time>2026-04-18T14:54:45Z</time></trkpt><trkpt lat="41.720069269410025" lon="13.808996295998984"><ele>1284.0</ele><time>2026-04-18T14:54:46Z</time></trkpt><trkpt lat="41.719976108389005" lon="13.808935838134891"><ele>1276.6000000000001</ele><time>2026-04-18T14:54:47Z</time></trkpt><trkpt lat="41.719892943949105" lon="13.808877585398259"><ele>1269.2</ele><time>2026-04-18T14:54:48Z</time></trkpt><trkpt lat="41.719848404197236" lon="13.808788827362015"><ele>1261.8000000000002</ele><time>2026-04-18T14:54:49Z</time></trkpt><trkpt lat="41.719854624041126" lon="13.808692601107433"><ele>1254.4</ele><time>2026-04-18T14:54:50Z</time></trkpt><trkpt lat="41.71992229381595" lon="13.80858861005952"><ele>1247.0</ele><time>2026-04-18T14:54:51Z</time></trkpt><trkpt lat="41.72003241530744" lon="13.808555921120071"><ele>1247.0</ele><time>2026-04-18T14:54:52Z</time></trkpt><trkpt lat="41.72019352243255" lon="13.80854271447969"><ele>1247.0</ele><time>2026-04-18T14:54:53Z</time></trkpt><trkpt lat="41.720363734949125" lon="13.808472506046854"><ele>1247.0</ele><time>2026-04-18T14:54:54Z</time></trkpt><trkpt lat="41.72053224256784" lon="13.808366321511643"><ele>1252.3333333333335</ele><time>2026-04-18T14:54:55Z</time></trkpt><trkpt lat="41.7207048567302" lon="13.808245237757466"><ele>1257.6666666666667</ele><time>2026-04-18T14:54:56Z</time></trkpt><trkpt lat="41.7208545207482" lon="13.808075977413813"><ele>1263.0</ele><time>2026-04-18T14:54:57Z</time></trkpt><trkpt lat="41.72099578310245" lon="13.807844972615031"><ele>1266.0</ele><time>2026-04-18T14:54:58Z</time></trkpt><trkpt lat="41.72112630604887" lon="13.807589139340571"><ele>1269.0</ele><time>2026-04-18T14:54:59Z</time></trkpt><trkpt lat="41.72126266396038" lon="13.807369050387587"><ele>1272.0</ele><time>2026-04-18T14:55:00Z</time></trkpt><trkpt lat="41.72139776142173" lon="13.807189691908018"><ele>1272.0</ele><time>2026-04-18T14:55:01Z</time></trkpt><trkpt lat="41.721495709501944" lon="13.80702954897066"><ele>1272.0</ele><time>2026-04-18T14:55:02Z</time></trkpt><trkpt lat="41.72159732593552" lon="13.806905563672284"><ele>1272.0</ele><time>2026-04-18T14:55:03Z</time></trkpt><trkpt lat="41.72175146426911" lon="13.806793942930812"><ele>1269.3333333333333</ele><time>2026-04-18T14:55:04Z</time></trkpt><trkpt lat="41.721932762726354" lon="13.806718643808917"><ele>1266.6666666666665</ele><time>2026-04-18T14:55:05Z</time></trkpt><trkpt lat="41.72210698970375" lon="13.806638808582798"><ele>1264.0</ele><time>2026-04-18T14:55:06Z</time></trkpt><trkpt lat="41.72224677558963" lon="13.806527393171468"><ele>1264.0</ele><time>2026-04-18T14:55:07Z</time></trkpt><trkpt lat="41.722384062651365" lon="13.806332140087507"><ele>1264.0</ele><time>2026-04-18T14:55:08Z</time></trkpt><trkpt lat="41.722506138454726" lon="13.806111165602672"><ele>1264.0</ele><time>2026-04-18T14:55:09Z</time></trkpt><trkpt lat="41.72262163672754" lon="13.805913754541121"><ele>1264.25</ele><time>2026-04-18T14:55:10Z</time></trkpt><trkpt lat="41.72271805318534" lon="13.805771466632827"><ele>1264.5</ele><time>2026-04-18T14:55:11Z</time></trkpt><trkpt lat="41.72282232359023" lon="13.805645303833662"><ele>1264.75</ele><time>2026-04-18T14:55:12Z</time></trkpt><trkpt lat="41.72295002429694" lon="13.805535675042254"><ele>1265.0</ele><time>2026-04-18T14:55:13Z</time></trkpt><trkpt lat="41.723107367018514" lon="13.805448223306016"><ele>1265.0</ele><time>2026-04-18T14:55:14Z</time></trkpt><trkpt lat="41.72324829418967" lon="13.805273587403043"><ele>1265.0</ele><time>2026-04-18T14:55:15Z</time></trkpt><trkpt lat="41.72334262867857" lon="13.805085320854724"><ele>1265.0</ele><time>2026-04-18T14:55:16Z</time></trkpt><trkpt lat="41.72340509459067" lon="13.804923371154832"><ele>1255.3333333333335</ele><time>2026-04-18T14:55:17Z</time></trkpt><trkpt lat="41.723446104451924" lon="13.80471485439546"><ele>1245.6666666666667</ele><time>2026-04-18T14:55:18Z</time></trkpt><trkpt lat="41.723462379226774" lon="13.804428455596096"><ele>1236.0</ele><time>2026-04-18T14:55:19Z</time></trkpt><trkpt lat="41.723465280644376" lon="13.804140961484592"><ele>1229.3333333333333</ele><time>2026-04-18T14:55:20Z</time></trkpt><trkpt lat="41.72349031085873" lon="13.803845698405375"><ele>1222.6666666666665</ele><time>2026-04-18T14:55:21Z</time></trkpt><trkpt lat="41.72351955870593" lon="13.803562926892821"><ele>1216.0</ele><time>2026-04-18T14:55:22Z</time></trkpt><trkpt lat="41.72357070168522" lon="13.803290622042157"><ele>1229.0</ele><time>2026-04-18T14:55:23Z</time></trkpt><trkpt lat="41.723628290387346" lon="13.803048341554556"><ele>1242.0</ele><time>2026-04-18T14:55:24Z</time></trkpt><trkpt lat="41.723675021493435" lon="13.802797522274894"><ele>1255.0</ele><time>2026-04-18T14:55:25Z</time></trkpt><trkpt lat="41.723654111802354" lon="13.802533233861435"><ele>1255.0</ele><time>2026-04-18T14:55:26Z</time></trkpt><trkpt lat="41.7236193523041" lon="13.802295166291449"><ele>1255.0</ele><time>2026-04-18T14:55:27Z</time></trkpt><trkpt lat="41.72357991240218" lon="13.802089497003209"><ele>1255.0</ele><time>2026-04-18T14:55:28Z</time></trkpt><trkpt lat="41.723510655057034" lon="13.80191254008195"><ele>1240.25</ele><time>2026-04-18T14:55:29Z</time></trkpt><trkpt lat="41.72346099812923" lon="13.801783073457132"><ele>1225.5</ele><time>2026-04-18T14:55:30Z</time></trkpt><trkpt lat="41.72344070222896" lon="13.801657352707768"><ele>1210.75</ele><time>2026-04-18T14:55:31Z</time></trkpt><trkpt lat="41.72346707679276" lon="13.801537732099698"><ele>1196.0</ele><time>2026-04-18T14:55:32Z</time></trkpt><trkpt lat="41.72354132692681" lon="13.80135835796113"><ele>1211.0</ele><time>2026-04-18T14:55:33Z</time></trkpt><trkpt lat="41.72365692203311" lon="13.801143026670447"><ele>1226.0</ele><time>2026-04-18T14:55:34Z</time></trkpt><trkpt lat="41.723739595732496" lon="13.80093498173212"><ele>1241.0</ele><time>2026-04-18T14:55:35Z</time></trkpt><trkpt lat="41.72383133613226" lon="13.80069014798109"><ele>1241.0</ele><time>2026-04-18T14:55:36Z</time></trkpt><trkpt lat="41.72390785694799" lon="13.80044638836332"><ele>1241.0</ele><time>2026-04-18T14:55:37Z</time></trkpt><trkpt lat="41.72396216543663" lon="13.800214569944117"><ele>1241.0</ele><time>2026-04-18T14:55:38Z</time></trkpt><trkpt lat="41.7239868239749" lon="13.800020541446898"><ele>1237.0</ele><time>2026-04-18T14:55:39Z</time></trkpt><trkpt lat="41.72398563013811" lon="13.799863771996954"><ele>1233.0</ele><time>2026-04-18T14:55:40Z</time></trkpt><trkpt lat="41.72395219057779" lon="13.79972067661478"><ele>1229.0</ele><time>2026-04-18T14:55:41Z</time></trkpt><trkpt lat="41.723870615707334" lon="13.799562384052297"><ele>1225.0</ele><time>2026-04-18T14:55:42Z</time></trkpt><trkpt lat="41.72379336780417" lon="13.799421058902585"><ele>1225.75</ele><time>2026-04-18T14:55:43Z</time></trkpt><trkpt lat="41.72376910065868" lon="13.799308578267665"><ele>1226.5</ele><time>2026-04-18T14:55:44Z</time></trkpt><trkpt lat="41.72380426203976" lon="13.799179836662955"><ele>1227.25</ele><time>2026-04-18T14:55:45Z</time></trkpt><trkpt lat="41.72387032444459" lon="13.798942579634055"><ele>1228.0</ele><time>2026-04-18T14:55:46Z</time></trkpt><trkpt lat="41.72394201839357" lon="13.798675775361813"><ele>1225.5</ele><time>2026-04-18T14:55:47Z</time></trkpt><trkpt lat="41.723973543123144" lon="13.7984063583444"><ele>1223.0</ele><time>2026-04-18T14:55:48Z</time></trkpt><trkpt lat="41.7239618713838" lon="13.798074529117782"><ele>1223.0</ele><time>2026-04-18T14:55:49Z</time></trkpt><trkpt lat="41.72393257340382" lon="13.79772329090603"><ele>1223.0</ele><time>2026-04-18T14:55:50Z</time></trkpt><trkpt lat="41.723919858448276" lon="13.797386749242149"><ele>1222.6666666666667</ele><time>2026-04-18T14:55:51Z</time></trkpt><trkpt lat="41.72390255950686" lon="13.797111029068216"><ele>1222.3333333333333</ele><time>2026-04-18T14:55:52Z</time></trkpt><trkpt lat="41.72389599648114" lon="13.796869530260134"><ele>1222.0</ele><time>2026-04-18T14:55:53Z</time></trkpt><trkpt lat="41.7238870080975" lon="13.796650413197478"><ele>1222.0</ele><time>2026-04-18T14:55:54Z</time></trkpt><trkpt lat="41.72383050776775" lon="13.796462995961237"><ele>1222.0</ele><time>2026-04-18T14:55:55Z</time></trkpt><trkpt lat="41.72372367070316" lon="13.79624813679061"><ele>1222.0</ele><time>2026-04-18T14:55:56Z</time></trkpt><trkpt lat="41.72357813465618" lon="13.796025588221568"><ele>1202.5</ele><time>2026-04-18T14:55:57Z</time></trkpt><trkpt lat="41.723434638088875" lon="13.79576732523032"><ele>1183.0</ele><time>2026-04-18T14:55:58Z</time></trkpt><trkpt lat="41.72331232584604" lon="13.795504469023864"><ele>1183.0</ele><time>2026-04-18T14:55:59Z</time></trkpt><trkpt lat="41.72322210553895" lon="13.795282780235963"><ele>1183.0</ele><time>2026-04-18T14:55:59.999Z</time></trkpt><trkpt lat="41.72314138467407" lon="13.795058860458933"><ele>1183.0</ele><time>2026-04-18T14:56:00.999Z</time></trkpt><trkpt lat="41.723084155502455" lon="13.794857439110881"><ele>1187.0</ele><time>2026-04-18T14:56:01.999Z</time></trkpt><trkpt lat="41.72302825489327" lon="13.79469916932485"><ele>1191.0</ele><time>2026-04-18T14:56:02.999Z</time></trkpt><trkpt lat="41.72297595218731" lon="13.794550592338371"><ele>1195.0</ele><time>2026-04-18T14:56:03.999Z</time></trkpt><trkpt lat="41.722951536037854" lon="13.794411558616808"><ele>1199.0</ele><time>2026-04-18T14:56:04.999Z</time></trkpt><trkpt lat="41.72297968445009" lon="13.794265466263756"><ele>1200.0</ele><time>2026-04-18T14:56:05.999Z</time></trkpt><trkpt lat="41.72308298678552" lon="13.794109183783542"><ele>1201.0</ele><time>2026-04-18T14:56:07Z</time></trkpt><trkpt lat="41.72320380730807" lon="13.793903942853504"><ele>1202.0</ele><time>2026-04-18T14:56:08Z</time></trkpt><trkpt lat="41.723297479977425" lon="13.793735326030916"><ele>1202.0</ele><time>2026-04-18T14:56:09Z</time></trkpt><trkpt lat="41.72338023884296" lon="13.793512579394296"><ele>1202.0</ele><time>2026-04-18T14:56:10Z</time></trkpt><trkpt lat="41.72342390541413" lon="13.793191193046125"><ele>1202.0</ele><time>2026-04-18T14:56:11Z</time></trkpt><trkpt lat="41.72346234637699" lon="13.792860801965656"><ele>1207.3333333333335</ele><time>2026-04-18T14:56:12Z</time></trkpt><trkpt lat="41.72351415908879" lon="13.792582280513104"><ele>1212.6666666666667</ele><time>2026-04-18T14:56:13Z</time></trkpt><trkpt lat="41.72360986623839" lon="13.792326413122767"><ele>1218.0</ele><time>2026-04-18T14:56:14Z</time></trkpt><trkpt lat="41.72372665859406" lon="13.792067127747984"><ele>1211.6666666666667</ele><time>2026-04-18T14:56:15Z</time></trkpt><trkpt lat="41.723817911619406" lon="13.79181157579743"><ele>1205.3333333333335</ele><time>2026-04-18T14:56:16Z</time></trkpt><trkpt lat="41.72392260993843" lon="13.791534070056182"><ele>1199.0</ele><time>2026-04-18T14:56:17Z</time></trkpt><trkpt lat="41.72397226405111" lon="13.791248886076621"><ele>1193.5</ele><time>2026-04-18T14:56:18Z</time></trkpt><trkpt lat="41.72398727310809" lon="13.790943751471538"><ele>1188.0</ele><time>2026-04-18T14:56:19Z</time></trkpt><trkpt lat="41.72397952787748" lon="13.790631380558438"><ele>1188.0</ele><time>2026-04-18T14:56:20Z</time></trkpt><trkpt lat="41.72394625399718" lon="13.790319615220254"><ele>1188.0</ele><time>2026-04-18T14:56:21Z</time></trkpt><trkpt lat="41.72391201159094" lon="13.790045008882634"><ele>1188.0</ele><time>2026-04-18T14:56:22Z</time></trkpt><trkpt lat="41.72388640937011" lon="13.789811249095923"><ele>1186.25</ele><time>2026-04-18T14:56:23Z</time></trkpt><trkpt lat="41.72386078795634" lon="13.789603464840503"><ele>1184.5</ele><time>2026-04-18T14:56:24Z</time></trkpt><trkpt lat="41.723826057203716" lon="13.789433990163658"><ele>1182.75</ele><time>2026-04-18T14:56:25Z</time></trkpt><trkpt lat="41.72378192230063" lon="13.789282806665424"><ele>1181.0</ele><time>2026-04-18T14:56:26Z</time></trkpt><trkpt lat="41.72373807058892" lon="13.78913991796525"><ele>1179.3999999999999</ele><time>2026-04-18T14:56:27Z</time></trkpt><trkpt lat="41.72371488164849" lon="13.789026132085827"><ele>1177.8</ele><time>2026-04-18T14:56:28Z</time></trkpt><trkpt lat="41.72376278772229" lon="13.788937467046035"><ele>1176.1999999999998</ele><time>2026-04-18T14:56:29Z</time></trkpt><trkpt lat="41.7238327291593" lon="13.788885113706016"><ele>1174.6</ele><time>2026-04-18T14:56:30Z</time></trkpt><trkpt lat="41.72392497202554" lon="13.788848805287513"><ele>1173.0</ele><time>2026-04-18T14:56:31Z</time></trkpt><trkpt lat="41.724062042461235" lon="13.788912217656213"><ele>1173.0</ele><time>2026-04-18T14:56:32Z</time></trkpt><trkpt lat="41.72422760430943" lon="13.788988789814095"><ele>1173.0</ele><time>2026-04-18T14:56:33Z</time></trkpt><trkpt lat="41.724439979988716" lon="13.78902819810817"><ele>1173.0</ele><time>2026-04-18T14:56:34Z</time></trkpt><trkpt lat="41.72465549794546" lon="13.789050136477012"><ele>1171.5</ele><time>2026-04-18T14:56:35Z</time></trkpt><trkpt lat="41.72489631286416" lon="13.789058501531514"><ele>1170.0</ele><time>2026-04-18T14:56:36Z</time></trkpt><trkpt lat="41.72511923565358" lon="13.789077680176828"><ele>1170.0</ele><time>2026-04-18T14:56:37Z</time></trkpt><trkpt lat="41.72530982513096" lon="13.789102778509447"><ele>1170.0</ele><time>2026-04-18T14:56:38Z</time></trkpt><trkpt lat="41.72546659842779" lon="13.789110258992535"><ele>1170.0</ele><time>2026-04-18T14:56:39Z</time></trkpt><trkpt lat="41.725611268425325" lon="13.789124518901643"><ele>1170.0</ele><time>2026-04-18T14:56:40Z</time></trkpt><trkpt lat="41.725737944782196" lon="13.789126389989791"><ele>1170.0</ele><time>2026-04-18T14:56:41Z</time></trkpt><trkpt lat="41.72584882074161" lon="13.789082801572242"><ele>1170.0</ele><time>2026-04-18T14:56:42Z</time></trkpt><trkpt lat="41.725947909126404" lon="13.78896163880111"><ele>1170.0</ele><time>2026-04-18T14:56:43Z</time></trkpt><trkpt lat="41.72601781275519" lon="13.788753023647134"><ele>1181.0</ele><time>2026-04-18T14:56:44Z</time></trkpt><trkpt lat="41.726075639909745" lon="13.788481399851243"><ele>1192.0</ele><time>2026-04-18T14:56:45Z</time></trkpt><trkpt lat="41.72615147912994" lon="13.788167917224769"><ele>1192.0</ele><time>2026-04-18T14:56:46Z</time></trkpt><trkpt lat="41.72623124836584" lon="13.7878674054392"><ele>1192.0</ele><time>2026-04-18T14:56:47Z</time></trkpt><trkpt lat="41.72628574117827" lon="13.787522406639514"><ele>1186.0</ele><time>2026-04-18T14:56:48Z</time></trkpt><trkpt lat="41.726330619046614" lon="13.787151459482066"><ele>1180.0</ele><time>2026-04-18T14:56:49Z</time></trkpt><trkpt lat="41.72636994430534" lon="13.786801747115158"><ele>1170.0</ele><time>2026-04-18T14:56:50Z</time></trkpt><trkpt lat="41.72641679054193" lon="13.786481850282593"><ele>1160.0</ele><time>2026-04-18T14:56:51Z</time></trkpt><trkpt lat="41.72646642411895" lon="13.786195187903312"><ele>1155.6666666666667</ele><time>2026-04-18T14:56:52Z</time></trkpt><trkpt lat="41.72651775434963" lon="13.785880689862777"><ele>1151.3333333333333</ele><time>2026-04-18T14:56:53Z</time></trkpt><trkpt lat="41.72659690633846" lon="13.785622129701872"><ele>1147.0</ele><time>2026-04-18T14:56:54Z</time></trkpt><trkpt lat="41.72667430612742" lon="13.785406970714876"><ele>1147.0</ele><time>2026-04-18T14:56:55Z</time></trkpt><trkpt lat="41.72670689824758" lon="13.785214700433277"><ele>1147.0</ele><time>2026-04-18T14:56:56Z</time></trkpt><trkpt lat="41.72669325942577" lon="13.784997550885917"><ele>1147.0</ele><time>2026-04-18T14:56:57Z</time></trkpt><trkpt lat="41.72664374885972" lon="13.784711661916594"><ele>1146.3333333333333</ele><time>2026-04-18T14:56:58Z</time></trkpt><trkpt lat="41.72658298446799" lon="13.784438309405878"><ele>1145.6666666666667</ele><time>2026-04-18T14:56:59Z</time></trkpt><trkpt lat="41.72653002416464" lon="13.784203519443967"><ele>1145.0</ele><time>2026-04-18T14:57:00Z</time></trkpt><trkpt lat="41.72645952984413" lon="13.784008296393003"><ele>1147.0</ele><time>2026-04-18T14:57:01Z</time></trkpt><trkpt lat="41.72636863029537" lon="13.7838380811745"><ele>1149.0</ele><time>2026-04-18T14:57:02Z</time></trkpt><trkpt lat="41.72629189211485" lon="13.783683701826535"><ele>1151.0</ele><time>2026-04-18T14:57:03Z</time></trkpt><trkpt lat="41.72624062889514" lon="13.783531866396052"><ele>1153.0</ele><time>2026-04-18T14:57:04Z</time></trkpt><trkpt lat="41.72621605876131" lon="13.783379036697347"><ele>1155.3333333333333</ele><time>2026-04-18T14:57:05Z</time></trkpt><trkpt lat="41.726196826721285" lon="13.78319620187209"><ele>1157.6666666666667</ele><time>2026-04-18T14:57:06Z</time></trkpt><trkpt lat="41.72623103879396" lon="13.783020548734445"><ele>1160.0</ele><time>2026-04-18T14:57:07Z</time></trkpt><trkpt lat="41.726303341458674" lon="13.782785539283624"><ele>1156.6666666666667</ele><time>2026-04-18T14:57:08Z</time></trkpt><trkpt lat="41.72642739679273" lon="13.782593513445196"><ele>1153.3333333333333</ele><time>2026-04-18T14:57:09Z</time></trkpt><trkpt lat="41.726488977632705" lon="13.782383949601297"><ele>1150.0</ele><time>2026-04-18T14:57:10Z</time></trkpt><trkpt lat="41.72651068138419" lon="13.782156490774083"><ele>1150.0</ele><time>2026-04-18T14:57:11Z</time></trkpt><trkpt lat="41.726493478324365" lon="13.781883128755718"><ele>1150.0</ele><time>2026-04-18T14:57:12Z</time></trkpt><trkpt lat="41.72644391059705" lon="13.781610679075364"><ele>1150.0</ele><time>2026-04-18T14:57:13Z</time></trkpt><trkpt lat="41.72637212806029" lon="13.781322660293709"><ele>1150.0</ele><time>2026-04-18T14:57:14Z</time></trkpt><trkpt lat="41.72628394176936" lon="13.7810436982698"><ele>1150.0</ele><time>2026-04-18T14:57:15Z</time></trkpt><trkpt lat="41.726182110369926" lon="13.78082467469301"><ele>1150.0</ele><time>2026-04-18T14:57:16Z</time></trkpt><trkpt lat="41.72607658979206" lon="13.780643211908933"><ele>1141.0</ele><time>2026-04-18T14:57:17Z</time></trkpt><trkpt lat="41.72599210400689" lon="13.780514763887032"><ele>1132.0</ele><time>2026-04-18T14:57:18Z</time></trkpt><trkpt lat="41.7259329645214" lon="13.780403784243306"><ele>1123.0</ele><time>2026-04-18T14:57:19Z</time></trkpt><trkpt lat="41.72592019811743" lon="13.780295911826254"><ele>1114.0</ele><time>2026-04-18T14:57:20Z</time></trkpt><trkpt lat="41.725933595460326" lon="13.780187045028912"><ele>1105.0</ele><time>2026-04-18T14:57:21Z</time></trkpt><trkpt lat="41.72600994856711" lon="13.780100244064725"><ele>1112.0</ele><time>2026-04-18T14:57:22Z</time></trkpt><trkpt lat="41.72612116584108" lon="13.780006533558819"><ele>1119.0</ele><time>2026-04-18T14:57:23Z</time></trkpt><trkpt lat="41.72626535534907" lon="13.77995322418997"><ele>1126.0</ele><time>2026-04-18T14:57:24Z</time></trkpt><trkpt lat="41.726448589882985" lon="13.779941367732661"><ele>1126.0</ele><time>2026-04-18T14:57:25Z</time></trkpt><trkpt lat="41.72666076259512" lon="13.779927805238808"><ele>1126.0</ele><time>2026-04-18T14:57:26Z</time></trkpt><trkpt lat="41.72683156498749" lon="13.779910081955165"><ele>1126.0</ele><time>2026-04-18T14:57:27Z</time></trkpt><trkpt lat="41.726901862300345" lon="13.779903467570092"><ele>1129.0</ele><time>2026-04-18T14:57:28Z</time></trkpt><trkpt lat="41.72698603468635" lon="13.779888752852031"><ele>1132.0</ele><time>2026-04-18T14:57:29Z</time></trkpt><trkpt lat="41.7270784947297" lon="13.779820729098422"><ele>1135.0</ele><time>2026-04-18T14:57:30Z</time></trkpt><trkpt lat="41.727146635120704" lon="13.779664085083104"><ele>1138.0</ele><time>2026-04-18T14:57:31Z</time></trkpt><trkpt lat="41.727187548020225" lon="13.779544151162415"><ele>1141.0</ele><time>2026-04-18T14:57:32Z</time></trkpt><trkpt lat="41.7272148146432" lon="13.779451428624483"><ele>1141.0</ele><time>2026-04-18T14:57:33Z</time></trkpt><trkpt lat="41.727315742107116" lon="13.779418873717946"><ele>1141.0</ele><time>2026-04-18T14:57:34Z</time></trkpt><trkpt lat="41.727435544780334" lon="13.779424729370541"><ele>1141.0</ele><time>2026-04-18T14:57:35Z</time></trkpt><trkpt lat="41.72760811059453" lon="13.779457168303862"><ele>1141.0</ele><time>2026-04-18T14:57:36Z</time></trkpt><trkpt lat="41.72783830620924" lon="13.779466219217289"><ele>1143.6666666666665</ele><time>2026-04-18T14:57:37Z</time></trkpt><trkpt lat="41.72805114390329" lon="13.779422095292512"><ele>1146.3333333333333</ele><time>2026-04-18T14:57:38Z</time></trkpt><trkpt lat="41.72827200156736" lon="13.779408039141439"><ele>1149.0</ele><time>2026-04-18T14:57:39Z</time></trkpt><trkpt lat="41.72851272018155" lon="13.779343156666359"><ele>1130.5</ele><time>2026-04-18T14:57:40Z</time></trkpt><trkpt lat="41.728781444110304" lon="13.779260562529686"><ele>1112.0</ele><time>2026-04-18T14:57:41Z</time></trkpt><trkpt lat="41.729036255548664" lon="13.77917092931607"><ele>1112.0</ele><time>2026-04-18T14:57:42Z</time></trkpt><trkpt lat="41.729267262630934" lon="13.779092380168537"><ele>1112.0</ele><time>2026-04-18T14:57:43Z</time></trkpt><trkpt lat="41.72948604825496" lon="13.779018887232436"><ele>1116.6666666666667</ele><time>2026-04-18T14:57:44Z</time></trkpt><trkpt lat="41.72968567365915" lon="13.77893689233935"><ele>1121.3333333333333</ele><time>2026-04-18T14:57:45Z</time></trkpt><trkpt lat="41.729870507954494" lon="13.778842848649424"><ele>1126.0</ele><time>2026-04-18T14:57:46Z</time></trkpt><trkpt lat="41.73006432645863" lon="13.77868474378169"><ele>1123.3333333333333</ele><time>2026-04-18T14:57:47Z</time></trkpt><trkpt lat="41.73023835498427" lon="13.778522409879598"><ele>1120.6666666666667</ele><time>2026-04-18T14:57:48Z</time></trkpt><trkpt lat="41.73038998906929" lon="13.778380442640733"><ele>1118.0</ele><time>2026-04-18T14:57:49Z</time></trkpt><trkpt lat="41.73051052792431" lon="13.778259707252284"><ele>1118.0</ele><time>2026-04-18T14:57:50Z</time></trkpt><trkpt lat="41.73061808163052" lon="13.778124687620863"><ele>1118.0</ele><time>2026-04-18T14:57:51Z</time></trkpt><trkpt lat="41.730672674716786" lon="13.777912219292208"><ele>1118.0</ele><time>2026-04-18T14:57:52Z</time></trkpt><trkpt lat="41.730705698576664" lon="13.777668716569373"><ele>1113.5</ele><time>2026-04-18T14:57:53Z</time></trkpt><trkpt lat="41.73072752511486" lon="13.777432481850438"><ele>1109.0</ele><time>2026-04-18T14:57:54Z</time></trkpt><trkpt lat="41.730753111222576" lon="13.777236627611206"><ele>1104.5</ele><time>2026-04-18T14:57:55Z</time></trkpt><trkpt lat="41.73077349889155" lon="13.777075912973173"><ele>1100.0</ele><time>2026-04-18T14:57:56Z</time></trkpt><trkpt lat="41.73079297419062" lon="13.776924640320711"><ele>1101.5</ele><time>2026-04-18T14:57:57Z</time></trkpt><trkpt lat="41.7307899570563" lon="13.77677681032761"><ele>1103.0</ele><time>2026-04-18T14:57:58Z</time></trkpt><trkpt lat="41.73073383011162" lon="13.776597948835958"><ele>1104.5</ele><time>2026-04-18T14:57:59Z</time></trkpt><trkpt lat="41.73063764130729" lon="13.776397097233975"><ele>1106.0</ele><time>2026-04-18T14:58:00Z</time></trkpt><trkpt lat="41.730475795671275" lon="13.776232218695345"><ele>1106.0</ele><time>2026-04-18T14:58:01Z</time></trkpt><trkpt lat="41.73030901539402" lon="13.776082077069018"><ele>1106.0</ele><time>2026-04-18T14:58:02Z</time></trkpt><trkpt lat="41.730139906659396" lon="13.775907959670707"><ele>1106.0</ele><time>2026-04-18T14:58:03Z</time></trkpt><trkpt lat="41.73000775972303" lon="13.775705433565248"><ele>1108.25</ele><time>2026-04-18T14:58:04Z</time></trkpt><trkpt lat="41.72995896050053" lon="13.775627575561174"><ele>1110.5</ele><time>2026-04-18T14:58:05Z</time></trkpt><trkpt lat="41.729895382977936" lon="13.775434166386296"><ele>1112.75</ele><time>2026-04-18T14:58:06Z</time></trkpt><trkpt lat="41.72983835252132" lon="13.775240775397911"><ele>1115.0</ele><time>2026-04-18T14:58:07Z</time></trkpt><trkpt lat="41.72977258392673" lon="13.774985236923746"><ele>1115.0</ele><time>2026-04-18T14:58:08Z</time></trkpt><trkpt lat="41.72967259071989" lon="13.774768218597902"><ele>1115.0</ele><time>2026-04-18T14:58:08.999Z</time></trkpt><trkpt lat="41.72958427130318" lon="13.774588193191347"><ele>1115.0</ele><time>2026-04-18T14:58:09.999Z</time></trkpt><trkpt lat="41.72946806561429" lon="13.774412453908788"><ele>1104.0</ele><time>2026-04-18T14:58:10.999Z</time></trkpt><trkpt lat="41.72929071185284" lon="13.774254910215596"><ele>1093.0</ele><time>2026-04-18T14:58:11.999Z</time></trkpt><trkpt lat="41.72905641764841" lon="13.77408882584207"><ele>1093.0</ele><time>2026-04-18T14:58:13Z</time></trkpt><trkpt lat="41.72881877773303" lon="13.773892166037607"><ele>1093.0</ele><time>2026-04-18T14:58:14Z</time></trkpt><trkpt lat="41.72859659204834" lon="13.773722934989587"><ele>1092.6666666666665</ele><time>2026-04-18T14:58:15Z</time></trkpt><trkpt lat="41.728409531320864" lon="13.773554408029774"><ele>1092.3333333333333</ele><time>2026-04-18T14:58:16Z</time></trkpt><trkpt lat="41.72823916709734" lon="13.773400022157293"><ele>1092.0</ele><time>2026-04-18T14:58:17Z</time></trkpt><trkpt lat="41.72803034322974" lon="13.77325494733947"><ele>1092.0</ele><time>2026-04-18T14:58:18Z</time></trkpt><trkpt lat="41.72787514805162" lon="13.773128882414028"><ele>1092.0</ele><time>2026-04-18T14:58:19Z</time></trkpt><trkpt lat="41.727760383391804" lon="13.77301526231678"><ele>1092.0</ele><time>2026-04-18T14:58:20Z</time></trkpt><trkpt lat="41.727647706531776" lon="13.772907454448909"><ele>1085.25</ele><time>2026-04-18T14:58:21Z</time></trkpt><trkpt lat="41.72757644452886" lon="13.772802170202157"><ele>1078.5</ele><time>2026-04-18T14:58:22Z</time></trkpt><trkpt lat="41.72750482429266" lon="13.772673892484374"><ele>1071.75</ele><time>2026-04-18T14:58:23Z</time></trkpt><trkpt lat="41.72751885478158" lon="13.772498555396366"><ele>1065.0</ele><time>2026-04-18T14:58:24Z</time></trkpt><trkpt lat="41.727557857956654" lon="13.772351144746295"><ele>1065.0</ele><time>2026-04-18T14:58:25Z</time></trkpt><trkpt lat="41.727646235198925" lon="13.772205800190287"><ele>1065.0</ele><time>2026-04-18T14:58:26Z</time></trkpt><trkpt lat="41.72775858717836" lon="13.771995675923726"><ele>1065.0</ele><time>2026-04-18T14:58:27Z</time></trkpt><trkpt lat="41.727887537165884" lon="13.771835616767726"><ele>1068.3333333333333</ele><time>2026-04-18T14:58:28Z</time></trkpt><trkpt lat="41.728027794177" lon="13.771673217349433"><ele>1071.6666666666665</ele><time>2026-04-18T14:58:29Z</time></trkpt><trkpt lat="41.72820167185233" lon="13.771517530647264"><ele>1075.0</ele><time>2026-04-18T14:58:30Z</time></trkpt><trkpt lat="41.728416806591156" lon="13.771340757255672"><ele>1074.5</ele><time>2026-04-18T14:58:31Z</time></trkpt><trkpt lat="41.72862665882906" lon="13.771149508597237"><ele>1074.0</ele><time>2026-04-18T14:58:32Z</time></trkpt><trkpt lat="41.72881197991431" lon="13.771011608005228"><ele>1074.0</ele><time>2026-04-18T14:58:33Z</time></trkpt><trkpt lat="41.728955485710934" lon="13.770910851445665"><ele>1074.0</ele><time>2026-04-18T14:58:34Z</time></trkpt><trkpt lat="41.72906800084834" lon="13.770794745306771"><ele>1074.0</ele><time>2026-04-18T14:58:35Z</time></trkpt><trkpt lat="41.72914863846389" lon="13.770659681784812"><ele>1074.0</ele><time>2026-04-18T14:58:36Z</time></trkpt><trkpt lat="41.72922078846813" lon="13.77039710141636"><ele>1068.0</ele><time>2026-04-18T14:58:37Z</time></trkpt><trkpt lat="41.72925903977327" lon="13.770123501598789"><ele>1062.0</ele><time>2026-04-18T14:58:38Z</time></trkpt><trkpt lat="41.72926872624658" lon="13.76984322912138"><ele>1056.0</ele><time>2026-04-18T14:58:39Z</time></trkpt><trkpt lat="41.72928712154822" lon="13.769549573705644"><ele>1053.3333333333333</ele><time>2026-04-18T14:58:40Z</time></trkpt><trkpt lat="41.729307964575845" lon="13.769278193794367"><ele>1050.6666666666665</ele><time>2026-04-18T14:58:41Z</time></trkpt><trkpt lat="41.72933182221706" lon="13.76906306798143"><ele>1048.0</ele><time>2026-04-18T14:58:42Z</time></trkpt><trkpt lat="41.729379965542314" lon="13.76883747461701"><ele>1057.0</ele><time>2026-04-18T14:58:43Z</time></trkpt><trkpt lat="41.72945457622909" lon="13.76862738956614"><ele>1066.0</ele><time>2026-04-18T14:58:44Z</time></trkpt><trkpt lat="41.729564041628024" lon="13.768450671481757"><ele>1075.0</ele><time>2026-04-18T14:58:45Z</time></trkpt><trkpt lat="41.729660572264336" lon="13.768298626372035"><ele>1075.0</ele><time>2026-04-18T14:58:46Z</time></trkpt><trkpt lat="41.72970505717324" lon="13.768198647185374"><ele>1075.0</ele><time>2026-04-18T14:58:47Z</time></trkpt><trkpt lat="41.729735923706855" lon="13.768057592271736"><ele>1075.0</ele><time>2026-04-18T14:58:48Z</time></trkpt><trkpt lat="41.72969561855816" lon="13.767914649058497"><ele>1075.0</ele><time>2026-04-18T14:58:49Z</time></trkpt><trkpt lat="41.729633970326496" lon="13.767760402762041"><ele>1075.0</ele><time>2026-04-18T14:58:50Z</time></trkpt><trkpt lat="41.72952682809284" lon="13.767561953577152"><ele>1077.0</ele><time>2026-04-18T14:58:51Z</time></trkpt><trkpt lat="41.729470044688874" lon="13.767312065638222"><ele>1079.0</ele><time>2026-04-18T14:58:52Z</time></trkpt><trkpt lat="41.72946453299928" lon="13.767084291126261"><ele>1081.0</ele><time>2026-04-18T14:58:53Z</time></trkpt><trkpt lat="41.72944727438273" lon="13.76688968101166"><ele>1071.0</ele><time>2026-04-18T14:58:54Z</time></trkpt><trkpt lat="41.72935470493123" lon="13.766696830715006"><ele>1061.0</ele><time>2026-04-18T14:58:55Z</time></trkpt><trkpt lat="41.72920118705449" lon="13.766528543236408"><ele>1051.0</ele><time>2026-04-18T14:58:56Z</time></trkpt><trkpt lat="41.72907206707277" lon="13.766378886037613"><ele>1051.0</ele><time>2026-04-18T14:58:57Z</time></trkpt><trkpt lat="41.72887385173978" lon="13.766117810233458"><ele>1051.0</ele><time>2026-04-18T14:58:58Z</time></trkpt><trkpt lat="41.72866609316058" lon="13.765827921051082"><ele>1043.0</ele><time>2026-04-18T14:58:59Z</time></trkpt><trkpt lat="41.72849236681976" lon="13.765602711106206"><ele>1035.0</ele><time>2026-04-18T14:59:00Z</time></trkpt><trkpt lat="41.72833124349441" lon="13.765395967874747"><ele>1035.0</ele><time>2026-04-18T14:59:01Z</time></trkpt><trkpt lat="41.72819475271544" lon="13.765218492612151"><ele>1035.0</ele><time>2026-04-18T14:59:02Z</time></trkpt><trkpt lat="41.7280959690147" lon="13.765041905749992"><ele>1035.0</ele><time>2026-04-18T14:59:03Z</time></trkpt><trkpt lat="41.727992408058824" lon="13.764897190948478"><ele>1041.3333333333333</ele><time>2026-04-18T14:59:04Z</time></trkpt><trkpt lat="41.72791748407091" lon="13.76472426688983"><ele>1047.6666666666665</ele><time>2026-04-18T14:59:05Z</time></trkpt><trkpt lat="41.727866417006645" lon="13.764465632700269"><ele>1054.0</ele><time>2026-04-18T14:59:06Z</time></trkpt><trkpt lat="41.72785368421302" lon="13.76417535658315"><ele>1057.0</ele><time>2026-04-18T14:59:07Z</time></trkpt><trkpt lat="41.72784131111105" lon="13.763875622119565"><ele>1060.0</ele><time>2026-04-18T14:59:08Z</time></trkpt><trkpt lat="41.727840851764796" lon="13.763588790987166"><ele>1063.0</ele><time>2026-04-18T14:59:09Z</time></trkpt><trkpt lat="41.72783069374517" lon="13.7632763768126"><ele>1063.0</ele><time>2026-04-18T14:59:10Z</time></trkpt><trkpt lat="41.72781965881964" lon="13.762959560193144"><ele>1063.0</ele><time>2026-04-18T14:59:11Z</time></trkpt><trkpt lat="41.72780796363486" lon="13.76264798999709"><ele>1063.0</ele><time>2026-04-18T14:59:12Z</time></trkpt><trkpt lat="41.727794301046124" lon="13.762349517710579"><ele>1063.0</ele><time>2026-04-18T14:59:13Z</time></trkpt><trkpt lat="41.72779440034234" lon="13.762053960679113"><ele>1063.0</ele><time>2026-04-18T14:59:14Z</time></trkpt><trkpt lat="41.727795490924095" lon="13.76176733893674"><ele>1061.3333333333333</ele><time>2026-04-18T14:59:15Z</time></trkpt><trkpt lat="41.72779318575249" lon="13.761505839839085"><ele>1059.6666666666667</ele><time>2026-04-18T14:59:16Z</time></trkpt><trkpt lat="41.727785463863206" lon="13.761296805675666"><ele>1058.0</ele><time>2026-04-18T14:59:17Z</time></trkpt><trkpt lat="41.727790033118545" lon="13.761056967454534"><ele>1054.6666666666667</ele><time>2026-04-18T14:59:18Z</time></trkpt><trkpt lat="41.727821926977505" lon="13.760838406500548"><ele>1051.3333333333333</ele><time>2026-04-18T14:59:19Z</time></trkpt><trkpt lat="41.72786059684308" lon="13.760627979690653"><ele>1048.0</ele><time>2026-04-18T14:59:20Z</time></trkpt><trkpt lat="41.727907169451136" lon="13.760430955423216"><ele>1048.0</ele><time>2026-04-18T14:59:21Z</time></trkpt><trkpt lat="41.727961674343874" lon="13.760270540757329"><ele>1048.0</ele><time>2026-04-18T14:59:22Z</time></trkpt><trkpt lat="41.7280637922993" lon="13.760089419063151"><ele>1048.0</ele><time>2026-04-18T14:59:23Z</time></trkpt><trkpt lat="41.72818213250826" lon="13.759908545022698"><ele>1051.0</ele><time>2026-04-18T14:59:24Z</time></trkpt><trkpt lat="41.728334714994205" lon="13.75972542198515"><ele>1054.0</ele><time>2026-04-18T14:59:25Z</time></trkpt><trkpt lat="41.72850174874137" lon="13.759538794034144"><ele>1057.0</ele><time>2026-04-18T14:59:26Z</time></trkpt><trkpt lat="41.72867492709765" lon="13.759385439865458"><ele>1039.5</ele><time>2026-04-18T14:59:27Z</time></trkpt><trkpt lat="41.728854424302455" lon="13.759194390450036"><ele>1022.0</ele><time>2026-04-18T14:59:28Z</time></trkpt><trkpt lat="41.72903583530858" lon="13.758968019181497"><ele>1022.0</ele><time>2026-04-18T14:59:29Z</time></trkpt><trkpt lat="41.729192082008815" lon="13.758738334291953"><ele>1022.0</ele><time>2026-04-18T14:59:30Z</time></trkpt><trkpt lat="41.729334504544354" lon="13.758548524577641"><ele>1022.0</ele><time>2026-04-18T14:59:31Z</time></trkpt><trkpt lat="41.72946812216567" lon="13.758366411814235"><ele>1020.0</ele><time>2026-04-18T14:59:32Z</time></trkpt><trkpt lat="41.72958731730834" lon="13.758187548468918"><ele>1018.0</ele><time>2026-04-18T14:59:33Z</time></trkpt><trkpt lat="41.7297467676289" lon="13.758031562244488"><ele>1016.0</ele><time>2026-04-18T14:59:34Z</time></trkpt><trkpt lat="41.72992532672681" lon="13.757875869587913"><ele>1016.0</ele><time>2026-04-18T14:59:35Z</time></trkpt><trkpt lat="41.73008604725508" lon="13.757707035445666"><ele>1016.0</ele><time>2026-04-18T14:59:36Z</time></trkpt><trkpt lat="41.73023448572179" lon="13.757569602272747"><ele>1016.0</ele><time>2026-04-18T14:59:37Z</time></trkpt><trkpt lat="41.73036893643605" lon="13.757438422391468"><ele>1017.0</ele><time>2026-04-18T14:59:38Z</time></trkpt><trkpt lat="41.73048212191708" lon="13.757276360899978"><ele>1018.0</ele><time>2026-04-18T14:59:39Z</time></trkpt><trkpt lat="41.73055153178116" lon="13.757067724133798"><ele>1019.0</ele><time>2026-04-18T14:59:40Z</time></trkpt><trkpt lat="41.730587048789346" lon="13.756837000742717"><ele>1014.0</ele><time>2026-04-18T14:59:41Z</time></trkpt><trkpt lat="41.730591142450045" lon="13.756591619244228"><ele>1009.0</ele><time>2026-04-18T14:59:42Z</time></trkpt><trkpt lat="41.7305819117456" lon="13.75634250439986"><ele>1004.0</ele><time>2026-04-18T14:59:43Z</time></trkpt><trkpt lat="41.730546314856326" lon="13.75611364755584"><ele>1006.0</ele><time>2026-04-18T14:59:44Z</time></trkpt><trkpt lat="41.73047468166765" lon="13.755873923108846"><ele>1008.0</ele><time>2026-04-18T14:59:45Z</time></trkpt><trkpt lat="41.73038039579929" lon="13.755658401114111"><ele>1010.0</ele><time>2026-04-18T14:59:46Z</time></trkpt><trkpt lat="41.73025955178525" lon="13.75546279488979"><ele>1011.6666666666667</ele><time>2026-04-18T14:59:47Z</time></trkpt><trkpt lat="41.73010355765553" lon="13.755287458898797"><ele>1013.3333333333333</ele><time>2026-04-18T14:59:48Z</time></trkpt><trkpt lat="41.729928286180844" lon="13.75514101683774"><ele>1015.0</ele><time>2026-04-18T14:59:49Z</time></trkpt><trkpt lat="41.72969550313866" lon="13.754964114851592"><ele>1015.0</ele><time>2026-04-18T14:59:50Z</time></trkpt><trkpt lat="41.72947692160971" lon="13.754796266581607"><ele>1015.0</ele><time>2026-04-18T14:59:51Z</time></trkpt><trkpt lat="41.72929382359921" lon="13.754618881373496"><ele>1014.3333333333333</ele><time>2026-04-18T14:59:52Z</time></trkpt><trkpt lat="41.72913708475389" lon="13.754450500971764"><ele>1013.6666666666667</ele><time>2026-04-18T14:59:53Z</time></trkpt><trkpt lat="41.72899306117412" lon="13.754294626547228"><ele>1013.0</ele><time>2026-04-18T14:59:54Z</time></trkpt><trkpt lat="41.728862555252796" lon="13.75403720862644"><ele>1013.0</ele><time>2026-04-18T14:59:55Z</time></trkpt><trkpt lat="41.72876274206485" lon="13.753748104602709"><ele>1013.0</ele><time>2026-04-18T14:59:56Z</time></trkpt><trkpt lat="41.72869378674835" lon="13.75346750598567"><ele>1022.5</ele><time>2026-04-18T14:59:57Z</time></trkpt><trkpt lat="41.72864054023959" lon="13.753109104562464"><ele>1032.0</ele><time>2026-04-18T14:59:58Z</time></trkpt><trkpt lat="41.72859502598886" lon="13.752710592673786"><ele>1010.5</ele><time>2026-04-18T14:59:59Z</time></trkpt><trkpt lat="41.728546963316134" lon="13.752291782896727"><ele>989.0</ele><time>2026-04-18T15:00:00Z</time></trkpt><trkpt lat="41.72850044235207" lon="13.751886812289346"><ele>992.5</ele><time>2026-04-18T15:00:01Z</time></trkpt><trkpt lat="41.72845588705" lon="13.751498953041303"><ele>996.0</ele><time>2026-04-18T15:00:02Z</time></trkpt><trkpt lat="41.728409534019164" lon="13.751094709984304"><ele>1001.0</ele><time>2026-04-18T15:00:03Z</time></trkpt><trkpt lat="41.728378358522896" lon="13.750683486434546"><ele>1006.0</ele><time>2026-04-18T15:00:04Z</time></trkpt><trkpt lat="41.72834547395744" lon="13.750288883424801"><ele>1008.0</ele><time>2026-04-18T15:00:05Z</time></trkpt><trkpt lat="41.72837090617305" lon="13.750003191590254"><ele>1010.0</ele><time>2026-04-18T15:00:06Z</time></trkpt><trkpt lat="41.72838560910248" lon="13.74979923978038"><ele>1012.0</ele><time>2026-04-18T15:00:07Z</time></trkpt><trkpt lat="41.728425317181134" lon="13.749566604117126"><ele>1008.6666666666666</ele><time>2026-04-18T15:00:08Z</time></trkpt><trkpt lat="41.72851728184382" lon="13.749333233086027"><ele>1005.3333333333333</ele><time>2026-04-18T15:00:09Z</time></trkpt><trkpt lat="41.72863886832842" lon="13.749065260708932"><ele>1002.0</ele><time>2026-04-18T15:00:10Z</time></trkpt><trkpt lat="41.72875624048921" lon="13.748811427151304"><ele>1008.0</ele><time>2026-04-18T15:00:11Z</time></trkpt><trkpt lat="41.728860585785846" lon="13.748595517761407"><ele>1014.0</ele><time>2026-04-18T15:00:12Z</time></trkpt><trkpt lat="41.72898708323618" lon="13.748383729171993"><ele>1020.0</ele><time>2026-04-18T15:00:13Z</time></trkpt><trkpt lat="41.72914146733802" lon="13.748207553461842"><ele>1020.0</ele><time>2026-04-18T15:00:13.999Z</time></trkpt><trkpt lat="41.729322084269846" lon="13.74804007183326"><ele>1020.0</ele><time>2026-04-18T15:00:14.999Z</time></trkpt><trkpt lat="41.729529667258255" lon="13.747853249229172"><ele>1020.5</ele><time>2026-04-18T15:00:15.999Z</time></trkpt><trkpt lat="41.72973738096345" lon="13.747681985369372"><ele>1021.0</ele><time>2026-04-18T15:00:16.999Z</time></trkpt><trkpt lat="41.729952522512846" lon="13.747600408453575"><ele>1021.0</ele><time>2026-04-18T15:00:17.999Z</time></trkpt><trkpt lat="41.73017504787801" lon="13.747544376640722"><ele>1021.0</ele><time>2026-04-18T15:00:19Z</time></trkpt><trkpt lat="41.730403145207305" lon="13.747491379286327"><ele>1025.0</ele><time>2026-04-18T15:00:20Z</time></trkpt><trkpt lat="41.73066214216282" lon="13.74743630586347"><ele>1029.0</ele><time>2026-04-18T15:00:21Z</time></trkpt><trkpt lat="41.73091676356731" lon="13.747371030649521"><ele>1038.0</ele><time>2026-04-18T15:00:22Z</time></trkpt><trkpt lat="41.731178835121504" lon="13.747310721173045"><ele>1047.0</ele><time>2026-04-18T15:00:23Z</time></trkpt><trkpt lat="41.73142515122" lon="13.747190723289265"><ele>1047.0</ele><time>2026-04-18T15:00:24Z</time></trkpt><trkpt lat="41.731670309247086" lon="13.747019718836096"><ele>1047.0</ele><time>2026-04-18T15:00:25Z</time></trkpt><trkpt lat="41.731943219854834" lon="13.746831968680683"><ele>1040.5</ele><time>2026-04-18T15:00:26Z</time></trkpt><trkpt lat="41.732197556330284" lon="13.746645133282664"><ele>1034.0</ele><time>2026-04-18T15:00:27Z</time></trkpt><trkpt lat="41.73244297496669" lon="13.74646723893118"><ele>1034.0</ele><time>2026-04-18T15:00:28Z</time></trkpt><trkpt lat="41.7326488359721" lon="13.746324056724111"><ele>1034.0</ele><time>2026-04-18T15:00:29Z</time></trkpt><trkpt lat="41.732818980855555" lon="13.746234956606273"><ele>1034.0</ele><time>2026-04-18T15:00:30Z</time></trkpt><trkpt lat="41.733028567664036" lon="13.746154813481192"><ele>1041.0</ele><time>2026-04-18T15:00:31Z</time></trkpt><trkpt lat="41.733236893290616" lon="13.746100109633073"><ele>1048.0</ele><time>2026-04-18T15:00:32Z</time></trkpt><trkpt lat="41.73347264600208" lon="13.746068556272206"><ele>1055.0</ele><time>2026-04-18T15:00:33Z</time></trkpt><trkpt lat="41.733722363889946" lon="13.74606861449578"><ele>1057.0</ele><time>2026-04-18T15:00:34Z</time></trkpt><trkpt lat="41.73399719287866" lon="13.746064286683222"><ele>1059.0</ele><time>2026-04-18T15:00:35Z</time></trkpt><trkpt lat="41.73425722662765" lon="13.746091240967305"><ele>1058.0</ele><time>2026-04-18T15:00:36Z</time></trkpt><trkpt lat="41.73449720288867" lon="13.746127562517094"><ele>1057.0</ele><time>2026-04-18T15:00:37Z</time></trkpt><trkpt lat="41.734744234174016" lon="13.74615074714816"><ele>1057.0</ele><time>2026-04-18T15:00:38Z</time></trkpt><trkpt lat="41.734982139349675" lon="13.746150819418146"><ele>1057.0</ele><time>2026-04-18T15:00:39Z</time></trkpt><trkpt lat="41.735193930446194" lon="13.746179787328693"><ele>1056.6666666666665</ele><time>2026-04-18T15:00:40Z</time></trkpt><trkpt lat="41.73537799155235" lon="13.74620928148793"><ele>1056.3333333333333</ele><time>2026-04-18T15:00:41Z</time></trkpt><trkpt lat="41.73554480651582" lon="13.746226117546508"><ele>1056.0</ele><time>2026-04-18T15:00:42Z</time></trkpt><trkpt lat="41.735698174427476" lon="13.746228451065404"><ele>1056.0</ele><time>2026-04-18T15:00:43Z</time></trkpt><trkpt lat="41.73584579306705" lon="13.746193675792007"><ele>1056.0</ele><time>2026-04-18T15:00:44Z</time></trkpt><trkpt lat="41.73599939831276" lon="13.746132977166981"><ele>1056.0</ele><time>2026-04-18T15:00:45Z</time></trkpt><trkpt lat="41.73614367607945" lon="13.746043020834668"><ele>1049.0</ele><time>2026-04-18T15:00:46Z</time></trkpt><trkpt lat="41.73627213721264" lon="13.745883321777628"><ele>1042.0</ele><time>2026-04-18T15:00:47Z</time></trkpt><trkpt lat="41.736381893015164" lon="13.745682355034521"><ele>1035.0</ele><time>2026-04-18T15:00:48Z</time></trkpt><trkpt lat="41.736478962867" lon="13.745462853412972"><ele>1035.0</ele><time>2026-04-18T15:00:49Z</time></trkpt><trkpt lat="41.73655963664987" lon="13.745229984006336"><ele>1035.0</ele><time>2026-04-18T15:00:50Z</time></trkpt><trkpt lat="41.736601110034975" lon="13.744960889216173"><ele>1035.0</ele><time>2026-04-18T15:00:51Z</time></trkpt><trkpt lat="41.73662184487455" lon="13.74465365764839"><ele>1035.5</ele><time>2026-04-18T15:00:52Z</time></trkpt><trkpt lat="41.73664975324498" lon="13.744315127579346"><ele>1036.0</ele><time>2026-04-18T15:00:53Z</time></trkpt><trkpt lat="41.73670145249156" lon="13.743958690928828"><ele>1036.0</ele><time>2026-04-18T15:00:54Z</time></trkpt><trkpt lat="41.736797114159664" lon="13.743613031695158"><ele>1036.0</ele><time>2026-04-18T15:00:55Z</time></trkpt><trkpt lat="41.73689769419582" lon="13.743292190635666"><ele>1042.0</ele><time>2026-04-18T15:00:56Z</time></trkpt><trkpt lat="41.73702634754627" lon="13.742970756331333"><ele>1048.0</ele><time>2026-04-18T15:00:57Z</time></trkpt><trkpt lat="41.737163600222836" lon="13.742709795996541"><ele>1048.0</ele><time>2026-04-18T15:00:58Z</time></trkpt><trkpt lat="41.73729610154147" lon="13.742451611857884"><ele>1048.0</ele><time>2026-04-18T15:00:59Z</time></trkpt><trkpt lat="41.737448680545704" lon="13.74222393923222"><ele>1048.0</ele><time>2026-04-18T15:01:00Z</time></trkpt><trkpt lat="41.73760213945522" lon="13.742008700379177"><ele>1048.0</ele><time>2026-04-18T15:01:01Z</time></trkpt><trkpt lat="41.737784826059226" lon="13.741825821907636"><ele>1048.0</ele><time>2026-04-18T15:01:02Z</time></trkpt><trkpt lat="41.73799013204291" lon="13.741650703968599"><ele>1048.0</ele><time>2026-04-18T15:01:03Z</time></trkpt><trkpt lat="41.73819615448419" lon="13.741478464454506"><ele>1048.0</ele><time>2026-04-18T15:01:04Z</time></trkpt><trkpt lat="41.73842658937322" lon="13.741358928411824"><ele>1048.0</ele><time>2026-04-18T15:01:05Z</time></trkpt><trkpt lat="41.73866353398112" lon="13.74122824131254"><ele>1047.0</ele><time>2026-04-18T15:01:06Z</time></trkpt><trkpt lat="41.73888158340116" lon="13.741121761365324"><ele>1046.0</ele><time>2026-04-18T15:01:07Z</time></trkpt><trkpt lat="41.73908609844535" lon="13.740986146687563"><ele>1046.0</ele><time>2026-04-18T15:01:08Z</time></trkpt><trkpt lat="41.739293392052055" lon="13.740837818736251"><ele>1046.0</ele><time>2026-04-18T15:01:09Z</time></trkpt><trkpt lat="41.73950216846516" lon="13.740646905118554"><ele>1045.5</ele><time>2026-04-18T15:01:10Z</time></trkpt><trkpt lat="41.73967039737539" lon="13.740419135549162"><ele>1045.0</ele><time>2026-04-18T15:01:11Z</time></trkpt><trkpt lat="41.73982623150065" lon="13.74014426375639"><ele>1045.0</ele><time>2026-04-18T15:01:12Z</time></trkpt><trkpt lat="41.739966996777454" lon="13.739839164789455"><ele>1045.0</ele><time>2026-04-18T15:01:13Z</time></trkpt><trkpt lat="41.74010093445325" lon="13.739491313529397"><ele>1057.0</ele><time>2026-04-18T15:01:14Z</time></trkpt><trkpt lat="41.74024019559116" lon="13.739106034350597"><ele>1069.0</ele><time>2026-04-18T15:01:15Z</time></trkpt><trkpt lat="41.740383614447" lon="13.738758988888591"><ele>1059.5</ele><time>2026-04-18T15:01:16Z</time></trkpt><trkpt lat="41.74050393824909" lon="13.738475303633471"><ele>1050.0</ele><time>2026-04-18T15:01:17Z</time></trkpt><trkpt lat="41.740620893037615" lon="13.73820214896307"><ele>1050.0</ele><time>2026-04-18T15:01:18Z</time></trkpt><trkpt lat="41.74072882913319" lon="13.737939869977435"><ele>1050.0</ele><time>2026-04-18T15:01:19Z</time></trkpt><trkpt lat="41.74078954074894" lon="13.737660915433565"><ele>1050.0</ele><time>2026-04-18T15:01:20Z</time></trkpt><trkpt lat="41.74081731909013" lon="13.737383071453086"><ele>1043.6666666666667</ele><time>2026-04-18T15:01:21Z</time></trkpt><trkpt lat="41.74083495697248" lon="13.737126714142615"><ele>1037.3333333333335</ele><time>2026-04-18T15:01:22Z</time></trkpt><trkpt lat="41.74086333421842" lon="13.736891388500789"><ele>1031.0</ele><time>2026-04-18T15:01:23Z</time></trkpt><trkpt lat="41.74091770095584" lon="13.736630749231685"><ele>1033.0</ele><time>2026-04-18T15:01:24Z</time></trkpt><trkpt lat="41.74101751641255" lon="13.73640534187306"><ele>1035.0</ele><time>2026-04-18T15:01:25Z</time></trkpt><trkpt lat="41.74114337787383" lon="13.73621378150426"><ele>1037.0</ele><time>2026-04-18T15:01:26Z</time></trkpt><trkpt lat="41.74129406207912" lon="13.73608403840727"><ele>1029.6666666666667</ele><time>2026-04-18T15:01:27Z</time></trkpt><trkpt lat="41.741461668641705" lon="13.73597556850032"><ele>1022.3333333333333</ele><time>2026-04-18T15:01:28Z</time></trkpt><trkpt lat="41.7416630279242" lon="13.735925583689005"><ele>1015.0</ele><time>2026-04-18T15:01:29Z</time></trkpt><trkpt lat="41.741897733348715" lon="13.735914375812719"><ele>1015.0</ele><time>2026-04-18T15:01:30Z</time></trkpt><trkpt lat="41.74212975613062" lon="13.735901914996942"><ele>1015.0</ele><time>2026-04-18T15:01:31Z</time></trkpt><trkpt lat="41.74233934797962" lon="13.735848563260893"><ele>1015.0</ele><time>2026-04-18T15:01:32Z</time></trkpt><trkpt lat="41.74253540718044" lon="13.735769491344131"><ele>1020.6666666666666</ele><time>2026-04-18T15:01:33Z</time></trkpt><trkpt lat="41.74272597795137" lon="13.735672850215822"><ele>1026.3333333333333</ele><time>2026-04-18T15:01:34Z</time></trkpt><trkpt lat="41.74292649873821" lon="13.735566529250702"><ele>1032.0</ele><time>2026-04-18T15:01:35Z</time></trkpt><trkpt lat="41.74312037914437" lon="13.73543091276696"><ele>1032.0</ele><time>2026-04-18T15:01:36Z</time></trkpt><trkpt lat="41.743299749861364" lon="13.73523504939652"><ele>1032.0</ele><time>2026-04-18T15:01:37Z</time></trkpt><trkpt lat="41.743470466711976" lon="13.735012175957277"><ele>1026.0</ele><time>2026-04-18T15:01:38Z</time></trkpt><trkpt lat="41.743624179909965" lon="13.734734678813998"><ele>1020.0</ele><time>2026-04-18T15:01:39Z</time></trkpt><trkpt lat="41.74377427441809" lon="13.734467389106717"><ele>1010.3333333333333</ele><time>2026-04-18T15:01:40Z</time></trkpt><trkpt lat="41.743925914820146" lon="13.73426075737962"><ele>1000.6666666666666</ele><time>2026-04-18T15:01:41Z</time></trkpt><trkpt lat="41.744101066516286" lon="13.734082437983902"><ele>991.0</ele><time>2026-04-18T15:01:42Z</time></trkpt><trkpt lat="41.74429880388264" lon="13.733967948410957"><ele>994.0</ele><time>2026-04-18T15:01:43Z</time></trkpt><trkpt lat="41.74451055002308" lon="13.733896449783675"><ele>997.0</ele><time>2026-04-18T15:01:44Z</time></trkpt><trkpt lat="41.744755895683205" lon="13.733853636020427"><ele>997.0</ele><time>2026-04-18T15:01:45Z</time></trkpt><trkpt lat="41.74503267828635" lon="13.733831684487214"><ele>997.0</ele><time>2026-04-18T15:01:46Z</time></trkpt><trkpt lat="41.74532670833198" lon="13.733832681844156"><ele>998.5</ele><time>2026-04-18T15:01:47Z</time></trkpt><trkpt lat="41.745630174202745" lon="13.733749956751488"><ele>1000.0</ele><time>2026-04-18T15:01:48Z</time></trkpt><trkpt lat="41.74593314672449" lon="13.733621012942061"><ele>989.5</ele><time>2026-04-18T15:01:49Z</time></trkpt><trkpt lat="41.746245962432255" lon="13.733455941109174"><ele>979.0</ele><time>2026-04-18T15:01:50Z</time></trkpt><trkpt lat="41.74655283960123" lon="13.733270814494919"><ele>979.0</ele><time>2026-04-18T15:01:51Z</time></trkpt><trkpt lat="41.74684709549444" lon="13.7331474064155"><ele>979.0</ele><time>2026-04-18T15:01:52Z</time></trkpt><trkpt lat="41.74711431422692" lon="13.733055581538775"><ele>984.5</ele><time>2026-04-18T15:01:53Z</time></trkpt><trkpt lat="41.74735990417787" lon="13.732901250643003"><ele>990.0</ele><time>2026-04-18T15:01:54Z</time></trkpt><trkpt lat="41.74758885718649" lon="13.732675949332194"><ele>981.0</ele><time>2026-04-18T15:01:55Z</time></trkpt><trkpt lat="41.74782053759934" lon="13.732510095751016"><ele>972.0</ele><time>2026-04-18T15:01:56Z</time></trkpt><trkpt lat="41.74805567311137" lon="13.73232806999293"><ele>972.0</ele><time>2026-04-18T15:01:57Z</time></trkpt><trkpt lat="41.74829650552879" lon="13.732124448968376"><ele>972.0</ele><time>2026-04-18T15:01:58Z</time></trkpt><trkpt lat="41.74853238846487" lon="13.73188895428474"><ele>969.5</ele><time>2026-04-18T15:01:59Z</time></trkpt><trkpt lat="41.748771522940444" lon="13.731635347220577"><ele>967.0</ele><time>2026-04-18T15:02:00Z</time></trkpt><trkpt lat="41.748994120773204" lon="13.731407993401787"><ele>967.0</ele><time>2026-04-18T15:02:01Z</time></trkpt><trkpt lat="41.74920707137944" lon="13.731202876065355"><ele>967.0</ele><time>2026-04-18T15:02:02Z</time></trkpt><trkpt lat="41.74943684032081" lon="13.731017189950018"><ele>958.5</ele><time>2026-04-18T15:02:03Z</time></trkpt><trkpt lat="41.74970408248114" lon="13.730863282078108"><ele>950.0</ele><time>2026-04-18T15:02:04Z</time></trkpt><trkpt lat="41.74996639360732" lon="13.730688851380444"><ele>961.0</ele><time>2026-04-18T15:02:05Z</time></trkpt><trkpt lat="41.75021897858032" lon="13.730501439751155"><ele>972.0</ele><time>2026-04-18T15:02:06Z</time></trkpt><trkpt lat="41.75049014955246" lon="13.730290697690554"><ele>963.5</ele><time>2026-04-18T15:02:07Z</time></trkpt><trkpt lat="41.75078152194599" lon="13.730075027153875"><ele>955.0</ele><time>2026-04-18T15:02:08Z</time></trkpt><trkpt lat="41.751073002389354" lon="13.729842509363136"><ele>955.0</ele><time>2026-04-18T15:02:09Z</time></trkpt><trkpt lat="41.75133978767046" lon="13.729635128659627"><ele>955.0</ele><time>2026-04-18T15:02:10Z</time></trkpt><trkpt lat="41.75158657901671" lon="13.729460669921687"><ele>944.5</ele><time>2026-04-18T15:02:11Z</time></trkpt><trkpt lat="41.75181583411726" lon="13.729305085816002"><ele>934.0</ele><time>2026-04-18T15:02:12Z</time></trkpt><trkpt lat="41.75200944147225" lon="13.729163472615133"><ele>934.0</ele><time>2026-04-18T15:02:13Z</time></trkpt><trkpt lat="41.75220402090606" lon="13.728998151419038"><ele>934.0</ele><time>2026-04-18T15:02:14Z</time></trkpt><trkpt lat="41.75237203775239" lon="13.728873920728788"><ele>934.0</ele><time>2026-04-18T15:02:15Z</time></trkpt><trkpt lat="41.75252288489238" lon="13.728652757073165"><ele>930.0</ele><time>2026-04-18T15:02:16Z</time></trkpt><trkpt lat="41.752634615807175" lon="13.728412724542379"><ele>926.0</ele><time>2026-04-18T15:02:17Z</time></trkpt><trkpt lat="41.75272569016562" lon="13.728155142335988"><ele>922.0</ele><time>2026-04-18T15:02:18Z</time></trkpt><trkpt lat="41.752796903016076" lon="13.72787548917994"><ele>919.0</ele><time>2026-04-18T15:02:18.999Z</time></trkpt><trkpt lat="41.75284053245324" lon="13.727580617543866"><ele>916.0</ele><time>2026-04-18T15:02:19.999Z</time></trkpt><trkpt lat="41.7528641373248" lon="13.727280837653998"><ele>913.0</ele><time>2026-04-18T15:02:20.999Z</time></trkpt><trkpt lat="41.75284152280893" lon="13.726996705002048"><ele>910.5</ele><time>2026-04-18T15:02:21.999Z</time></trkpt><trkpt lat="41.752807419625135" lon="13.726709781476176"><ele>908.0</ele><time>2026-04-18T15:02:22.999Z</time></trkpt><trkpt lat="41.75281426229533" lon="13.726384907383137"><ele>908.0</ele><time>2026-04-18T15:02:23.999Z</time></trkpt><trkpt lat="41.75271103309577" lon="13.726094970566772"><ele>908.0</ele><time>2026-04-18T15:02:25Z</time></trkpt><trkpt lat="41.752579861074764" lon="13.725828501973314"><ele>906.5</ele><time>2026-04-18T15:02:26Z</time></trkpt><trkpt lat="41.75240390965245" lon="13.725578309524202"><ele>905.0</ele><time>2026-04-18T15:02:27Z</time></trkpt><trkpt lat="41.752149631069926" lon="13.725425556725773"><ele>905.0</ele><time>2026-04-18T15:02:28Z</time></trkpt><trkpt lat="41.75191397620131" lon="13.72522047927945"><ele>905.0</ele><time>2026-04-18T15:02:29Z</time></trkpt><trkpt lat="41.75168798005017" lon="13.725035739110092"><ele>905.0</ele><time>2026-04-18T15:02:30Z</time></trkpt><trkpt lat="41.75147807875689" lon="13.724866568448387"><ele>905.0</ele><time>2026-04-18T15:02:31Z</time></trkpt><trkpt lat="41.75127972011163" lon="13.724696950639844"><ele>905.0</ele><time>2026-04-18T15:02:32Z</time></trkpt><trkpt lat="41.75110286775117" lon="13.72448716559274"><ele>905.0</ele><time>2026-04-18T15:02:33Z</time></trkpt><trkpt lat="41.750942989288276" lon="13.724273771222839"><ele>901.5</ele><time>2026-04-18T15:02:34Z</time></trkpt><trkpt lat="41.750793932550984" lon="13.72402363500522"><ele>898.0</ele><time>2026-04-18T15:02:35Z</time></trkpt><trkpt lat="41.75066024988025" lon="13.723731105404052"><ele>903.0</ele><time>2026-04-18T15:02:36Z</time></trkpt><trkpt lat="41.75053946566114" lon="13.723398116338933"><ele>908.0</ele><time>2026-04-18T15:02:37Z</time></trkpt><trkpt lat="41.75038020680667" lon="13.723078598965278"><ele>908.0</ele><time>2026-04-18T15:02:38Z</time></trkpt><trkpt lat="41.75020954324209" lon="13.722771569414459"><ele>908.0</ele><time>2026-04-18T15:02:39Z</time></trkpt><trkpt lat="41.75002147969951" lon="13.722474111321482"><ele>902.0</ele><time>2026-04-18T15:02:40Z</time></trkpt><trkpt lat="41.74982842137056" lon="13.722180251948869"><ele>896.0</ele><time>2026-04-18T15:02:41Z</time></trkpt><trkpt lat="41.749629425320684" lon="13.721877344889439"><ele>896.0</ele><time>2026-04-18T15:02:42Z</time></trkpt><trkpt lat="41.74942484355544" lon="13.721565931755311"><ele>896.0</ele><time>2026-04-18T15:02:43Z</time></trkpt><trkpt lat="41.749224192163226" lon="13.721258612253761"><ele>894.0</ele><time>2026-04-18T15:02:44Z</time></trkpt><trkpt lat="41.74902662189333" lon="13.720936139370497"><ele>892.0</ele><time>2026-04-18T15:02:45Z</time></trkpt><trkpt lat="41.7488159117312" lon="13.720629144864716"><ele>892.0</ele><time>2026-04-18T15:02:46Z</time></trkpt><trkpt lat="41.7486355818787" lon="13.720356995444071"><ele>892.0</ele><time>2026-04-18T15:02:47Z</time></trkpt><trkpt lat="41.74845432047449" lon="13.720086895463515"><ele>887.0</ele><time>2026-04-18T15:02:48Z</time></trkpt><trkpt lat="41.74828139923592" lon="13.719814250192695"><ele>882.0</ele><time>2026-04-18T15:02:49Z</time></trkpt><trkpt lat="41.74804674282956" lon="13.719590676649357"><ele>885.0</ele><time>2026-04-18T15:02:50Z</time></trkpt><trkpt lat="41.747798454667866" lon="13.719392102437032"><ele>888.0</ele><time>2026-04-18T15:02:51Z</time></trkpt><trkpt lat="41.74751804612339" lon="13.719222807208833"><ele>881.0</ele><time>2026-04-18T15:02:52Z</time></trkpt><trkpt lat="41.747220754974585" lon="13.719089151076032"><ele>874.0</ele><time>2026-04-18T15:02:53Z</time></trkpt><trkpt lat="41.746912037430725" lon="13.719001785958215"><ele>875.5</ele><time>2026-04-18T15:02:54Z</time></trkpt><trkpt lat="41.74660955209989" lon="13.71893638034476"><ele>877.0</ele><time>2026-04-18T15:02:55Z</time></trkpt><trkpt lat="41.74631513994548" lon="13.718844010743675"><ele>877.0</ele><time>2026-04-18T15:02:56Z</time></trkpt><trkpt lat="41.74608359623877" lon="13.718798211787155"><ele>877.0</ele><time>2026-04-18T15:02:57Z</time></trkpt><trkpt lat="41.74586404507342" lon="13.718750585766156"><ele>877.0</ele><time>2026-04-18T15:02:58Z</time></trkpt><trkpt lat="41.745646528956684" lon="13.718645478809952"><ele>877.0</ele><time>2026-04-18T15:02:59Z</time></trkpt><trkpt lat="41.745432907044446" lon="13.718497106582559"><ele>878.5</ele><time>2026-04-18T15:03:00Z</time></trkpt><trkpt lat="41.74522797939089" lon="13.71831988300188"><ele>880.0</ele><time>2026-04-18T15:03:01Z</time></trkpt><trkpt lat="41.745046896611086" lon="13.718085348071133"><ele>880.0</ele><time>2026-04-18T15:03:02Z</time></trkpt><trkpt lat="41.74488625529401" lon="13.717870339435223"><ele>880.0</ele><time>2026-04-18T15:03:03Z</time></trkpt><trkpt lat="41.74473840722596" lon="13.717671462980965"><ele>880.0</ele><time>2026-04-18T15:03:04Z</time></trkpt><trkpt lat="41.744572527373606" lon="13.717513053235939"><ele>879.3333333333333</ele><time>2026-04-18T15:03:05Z</time></trkpt><trkpt lat="41.744395802311516" lon="13.71741068346786"><ele>878.6666666666667</ele><time>2026-04-18T15:03:06Z</time></trkpt><trkpt lat="41.74422209492586" lon="13.717342358516179"><ele>878.0</ele><time>2026-04-18T15:03:07Z</time></trkpt><trkpt lat="41.74404003287844" lon="13.717307667413566"><ele>876.6666666666667</ele><time>2026-04-18T15:03:08Z</time></trkpt><trkpt lat="41.7438551704856" lon="13.71734414701986"><ele>875.3333333333333</ele><time>2026-04-18T15:03:09Z</time></trkpt><trkpt lat="41.743646443465856" lon="13.717432234233888"><ele>874.0</ele><time>2026-04-18T15:03:10Z</time></trkpt><trkpt lat="41.74341748201564" lon="13.717537514981947"><ele>872.0</ele><time>2026-04-18T15:03:11Z</time></trkpt><trkpt lat="41.74320612266075" lon="13.717635419685667"><ele>870.0</ele><time>2026-04-18T15:03:12Z</time></trkpt><trkpt lat="41.74301524234421" lon="13.717724442703009"><ele>868.0</ele><time>2026-04-18T15:03:13Z</time></trkpt><trkpt lat="41.74283923764733" lon="13.717794916006412"><ele>870.3333333333333</ele><time>2026-04-18T15:03:14Z</time></trkpt><trkpt lat="41.742664707391945" lon="13.717822000491452"><ele>872.6666666666667</ele><time>2026-04-18T15:03:15Z</time></trkpt><trkpt lat="41.742485701465476" lon="13.71781413197925"><ele>875.0</ele><time>2026-04-18T15:03:16Z</time></trkpt><trkpt lat="41.74230563299592" lon="13.71776703159867"><ele>867.6666666666667</ele><time>2026-04-18T15:03:17Z</time></trkpt><trkpt lat="41.74214481750173" lon="13.717696231602005"><ele>860.3333333333333</ele><time>2026-04-18T15:03:18Z</time></trkpt><trkpt lat="41.74201674390006" lon="13.717558574194575"><ele>853.0</ele><time>2026-04-18T15:03:19Z</time></trkpt><trkpt lat="41.74190352006107" lon="13.717417292380276"><ele>853.3333333333333</ele><time>2026-04-18T15:03:20Z</time></trkpt><trkpt lat="41.741797459461736" lon="13.717241231088572"><ele>853.6666666666667</ele><time>2026-04-18T15:03:21Z</time></trkpt><trkpt lat="41.7416818079708" lon="13.717004757824592"><ele>854.0</ele><time>2026-04-18T15:03:22Z</time></trkpt><trkpt lat="41.741599331838614" lon="13.71671103872955"><ele>854.0</ele><time>2026-04-18T15:03:23Z</time></trkpt><trkpt lat="41.74156742754527" lon="13.71644298300608"><ele>854.0</ele><time>2026-04-18T15:03:24Z</time></trkpt><trkpt lat="41.741577462111756" lon="13.716162859490204"><ele>854.0</ele><time>2026-04-18T15:03:25Z</time></trkpt><trkpt lat="41.74158861572029" lon="13.715882362900672"><ele>851.6666666666667</ele><time>2026-04-18T15:03:26Z</time></trkpt><trkpt lat="41.741626074099614" lon="13.715598473776764"><ele>849.3333333333333</ele><time>2026-04-18T15:03:27Z</time></trkpt><trkpt lat="41.741652311547064" lon="13.715314131636704"><ele>847.0</ele><time>2026-04-18T15:03:28Z</time></trkpt><trkpt lat="41.74168753973077" lon="13.715004683640643"><ele>846.6666666666666</ele><time>2026-04-18T15:03:29Z</time></trkpt><trkpt lat="41.741728491906805" lon="13.71470518105411"><ele>846.3333333333333</ele><time>2026-04-18T15:03:30Z</time></trkpt><trkpt lat="41.741791126312805" lon="13.714419849417515"><ele>846.0</ele><time>2026-04-18T15:03:31Z</time></trkpt><trkpt lat="41.7418313876777" lon="13.714155883287548"><ele>845.6666666666667</ele><time>2026-04-18T15:03:32Z</time></trkpt><trkpt lat="41.74185960135962" lon="13.713896113480212"><ele>845.3333333333334</ele><time>2026-04-18T15:03:33Z</time></trkpt><trkpt lat="41.741854791940035" lon="13.713630373060544"><ele>845.0</ele><time>2026-04-18T15:03:34Z</time></trkpt><trkpt lat="41.74181587226809" lon="13.71335687371622"><ele>841.3333333333334</ele><time>2026-04-18T15:03:35Z</time></trkpt><trkpt lat="41.74173897269502" lon="13.71311031046823"><ele>837.6666666666667</ele><time>2026-04-18T15:03:36Z</time></trkpt><trkpt lat="41.741642084512904" lon="13.712888517490097"><ele>834.0</ele><time>2026-04-18T15:03:37Z</time></trkpt><trkpt lat="41.741503898789446" lon="13.71268867934773"><ele>830.3333333333333</ele><time>2026-04-18T15:03:38Z</time></trkpt><trkpt lat="41.741345128064346" lon="13.712529619469416"><ele>826.6666666666666</ele><time>2026-04-18T15:03:39Z</time></trkpt><trkpt lat="41.74118823146111" lon="13.712398532015719"><ele>823.0</ele><time>2026-04-18T15:03:40Z</time></trkpt><trkpt lat="41.741043431137925" lon="13.712273212586325"><ele>823.0</ele><time>2026-04-18T15:03:41Z</time></trkpt><trkpt lat="41.74093565022494" lon="13.712110297174904"><ele>823.0</ele><time>2026-04-18T15:03:42Z</time></trkpt><trkpt lat="41.74084908911476" lon="13.711910253392519"><ele>823.0</ele><time>2026-04-18T15:03:43Z</time></trkpt><trkpt lat="41.74079649520046" lon="13.71167591353147"><ele>822.6666666666666</ele><time>2026-04-18T15:03:44Z</time></trkpt><trkpt lat="41.740765699078814" lon="13.71142886493391"><ele>822.3333333333333</ele><time>2026-04-18T15:03:45Z</time></trkpt><trkpt lat="41.740765379100324" lon="13.711164877528239"><ele>822.0</ele><time>2026-04-18T15:03:46Z</time></trkpt><trkpt lat="41.74081545596173" lon="13.710883642539969"><ele>822.0</ele><time>2026-04-18T15:03:47Z</time></trkpt><trkpt lat="41.740884903377584" lon="13.710589110425996"><ele>822.0</ele><time>2026-04-18T15:03:48Z</time></trkpt><trkpt lat="41.74096948682689" lon="13.710301038558041"><ele>806.0</ele><time>2026-04-18T15:03:49Z</time></trkpt><trkpt lat="41.74105801021919" lon="13.710040582992121"><ele>790.0</ele><time>2026-04-18T15:03:50Z</time></trkpt><trkpt lat="41.741163815116366" lon="13.709786535237331"><ele>774.0</ele><time>2026-04-18T15:03:51Z</time></trkpt><trkpt lat="41.741276141574204" lon="13.709545593652413"><ele>779.3333333333333</ele><time>2026-04-18T15:03:52Z</time></trkpt><trkpt lat="41.74140209953769" lon="13.709315502794224"><ele>784.6666666666666</ele><time>2026-04-18T15:03:53Z</time></trkpt><trkpt lat="41.741546631056906" lon="13.70908808529209"><ele>790.0</ele><time>2026-04-18T15:03:54Z</time></trkpt><trkpt lat="41.74169634478489" lon="13.70885490160255"><ele>790.0</ele><time>2026-04-18T15:03:55Z</time></trkpt><trkpt lat="41.74182724614004" lon="13.708609537410911"><ele>790.0</ele><time>2026-04-18T15:03:56Z</time></trkpt><trkpt lat="41.741941650784504" lon="13.708354807603078"><ele>790.0</ele><time>2026-04-18T15:03:57Z</time></trkpt><trkpt lat="41.74204292375892" lon="13.708068735552734"><ele>782.0</ele><time>2026-04-18T15:03:58Z</time></trkpt><trkpt lat="41.74213580088958" lon="13.707758724101321"><ele>774.0</ele><time>2026-04-18T15:03:59Z</time></trkpt><trkpt lat="41.74222379763347" lon="13.707433128684356"><ele>774.0</ele><time>2026-04-18T15:04:00Z</time></trkpt><trkpt lat="41.74230721003011" lon="13.707095582687183"><ele>774.0</ele><time>2026-04-18T15:04:01Z</time></trkpt><trkpt lat="41.74239593976873" lon="13.706736594498292"><ele>778.5</ele><time>2026-04-18T15:04:02Z</time></trkpt><trkpt lat="41.7424870850402" lon="13.706394924126592"><ele>783.0</ele><time>2026-04-18T15:04:03Z</time></trkpt><trkpt lat="41.742579831653764" lon="13.706091416736662"><ele>792.0</ele><time>2026-04-18T15:04:04Z</time></trkpt><trkpt lat="41.74266511991917" lon="13.705804991728124"><ele>801.0</ele><time>2026-04-18T15:04:05Z</time></trkpt><trkpt lat="41.742760550701426" lon="13.705535394091758"><ele>790.3333333333333</ele><time>2026-04-18T15:04:06Z</time></trkpt><trkpt lat="41.74288086679321" lon="13.70529633004577"><ele>779.6666666666666</ele><time>2026-04-18T15:04:07Z</time></trkpt><trkpt lat="41.743019180134176" lon="13.705062797284146"><ele>769.0</ele><time>2026-04-18T15:04:08Z</time></trkpt><trkpt lat="41.74317585634501" lon="13.704843051358035"><ele>769.0</ele><time>2026-04-18T15:04:09Z</time></trkpt><trkpt lat="41.743356936523284" lon="13.70465321628326"><ele>769.0</ele><time>2026-04-18T15:04:10Z</time></trkpt><trkpt lat="41.74356031301253" lon="13.704501410573817"><ele>766.3333333333333</ele><time>2026-04-18T15:04:11Z</time></trkpt><trkpt lat="41.743754349197225" lon="13.704362090200409"><ele>763.6666666666666</ele><time>2026-04-18T15:04:12Z</time></trkpt><trkpt lat="41.74393318202379" lon="13.704236099036558"><ele>761.0</ele><time>2026-04-18T15:04:13Z</time></trkpt><trkpt lat="41.744107491956186" lon="13.704078840696694"><ele>761.0</ele><time>2026-04-18T15:04:14Z</time></trkpt><trkpt lat="41.744272544836704" lon="13.703898779911258"><ele>761.0</ele><time>2026-04-18T15:04:15Z</time></trkpt><trkpt lat="41.74442923373395" lon="13.703697509431569"><ele>761.0</ele><time>2026-04-18T15:04:16Z</time></trkpt><trkpt lat="41.74456072101" lon="13.703481860518956"><ele>753.6666666666666</ele><time>2026-04-18T15:04:17Z</time></trkpt><trkpt lat="41.744674535132425" lon="13.703263429490802"><ele>746.3333333333334</ele><time>2026-04-18T15:04:18Z</time></trkpt><trkpt lat="41.744770961940496" lon="13.703046261051453"><ele>739.0</ele><time>2026-04-18T15:04:19Z</time></trkpt><trkpt lat="41.74485115382536" lon="13.702857270650474"><ele>745.0</ele><time>2026-04-18T15:04:20Z</time></trkpt><trkpt lat="41.744929799832114" lon="13.702684757535295"><ele>751.0</ele><time>2026-04-18T15:04:21Z</time></trkpt><trkpt lat="41.7450101558231" lon="13.702511049401286"><ele>757.0</ele><time>2026-04-18T15:04:22Z</time></trkpt><trkpt lat="41.74510094090055" lon="13.702316422488256"><ele>757.0</ele><time>2026-04-18T15:04:23Z</time></trkpt><trkpt lat="41.7452008877273" lon="13.702104133518782"><ele>757.0</ele><time>2026-04-18T15:04:24Z</time></trkpt><trkpt lat="41.74529987383825" lon="13.70189386596739"><ele>757.0</ele><time>2026-04-18T15:04:25Z</time></trkpt><trkpt lat="41.74539582421563" lon="13.701686673784616"><ele>748.6666666666667</ele><time>2026-04-18T15:04:26Z</time></trkpt><trkpt lat="41.745486253643556" lon="13.701476802968118"><ele>740.3333333333334</ele><time>2026-04-18T15:04:27Z</time></trkpt><trkpt lat="41.74557199898379" lon="13.701261797838304"><ele>732.0</ele><time>2026-04-18T15:04:27.999Z</time></trkpt><trkpt lat="41.74565552658225" lon="13.701024501316477"><ele>732.0</ele><time>2026-04-18T15:04:28.999Z</time></trkpt><trkpt lat="41.74572253887138" lon="13.70076241862925"><ele>732.0</ele><time>2026-04-18T15:04:29.999Z</time></trkpt><trkpt lat="41.7457574756103" lon="13.700478665525742"><ele>732.0</ele><time>2026-04-18T15:04:31Z</time></trkpt><trkpt lat="41.7457548851862" lon="13.700191873184455"><ele>731.0</ele><time>2026-04-18T15:04:32Z</time></trkpt><trkpt lat="41.74573131207068" lon="13.699913459815782"><ele>730.0</ele><time>2026-04-18T15:04:33Z</time></trkpt><trkpt lat="41.745681419801144" lon="13.699653234386174"><ele>729.0</ele><time>2026-04-18T15:04:34Z</time></trkpt><trkpt lat="41.74559874975043" lon="13.69938888629178"><ele>722.0</ele><time>2026-04-18T15:04:35Z</time></trkpt><trkpt lat="41.74548517214635" lon="13.699136516525611"><ele>715.0</ele><time>2026-04-18T15:04:36Z</time></trkpt><trkpt lat="41.74534027256708" lon="13.698895416101328"><ele>716.0</ele><time>2026-04-18T15:04:37Z</time></trkpt><trkpt lat="41.745161479571124" lon="13.698670629735542"><ele>717.0</ele><time>2026-04-18T15:04:38Z</time></trkpt><trkpt lat="41.74492030685065" lon="13.69845827212014"><ele>717.0</ele><time>2026-04-18T15:04:39Z</time></trkpt><trkpt lat="41.7446423464895" lon="13.698248732558596"><ele>717.0</ele><time>2026-04-18T15:04:40Z</time></trkpt><trkpt lat="41.7443542018447" lon="13.698034415377341"><ele>714.5</ele><time>2026-04-18T15:04:41Z</time></trkpt><trkpt lat="41.74409347500767" lon="13.69783441985404"><ele>712.0</ele><time>2026-04-18T15:04:42Z</time></trkpt><trkpt lat="41.743856714547796" lon="13.697641811428792"><ele>712.0</ele><time>2026-04-18T15:04:43Z</time></trkpt><trkpt lat="41.74360120913967" lon="13.697454464704137"><ele>712.0</ele><time>2026-04-18T15:04:44Z</time></trkpt><trkpt lat="41.74329997455136" lon="13.697297083039155"><ele>713.0</ele><time>2026-04-18T15:04:45Z</time></trkpt><trkpt lat="41.742976266345664" lon="13.697169159772226"><ele>714.0</ele><time>2026-04-18T15:04:46Z</time></trkpt><trkpt lat="41.74267797745091" lon="13.697070393534396"><ele>714.0</ele><time>2026-04-18T15:04:47Z</time></trkpt><trkpt lat="41.74240068127447" lon="13.696980732301347"><ele>714.0</ele><time>2026-04-18T15:04:48Z</time></trkpt><trkpt lat="41.74214356313604" lon="13.696897986542234"><ele>708.0</ele><time>2026-04-18T15:04:49Z</time></trkpt><trkpt lat="41.74188603510579" lon="13.6968044327924"><ele>702.0</ele><time>2026-04-18T15:04:50Z</time></trkpt><trkpt lat="41.74164635230883" lon="13.696715217551622"><ele>702.0</ele><time>2026-04-18T15:04:51Z</time></trkpt><trkpt lat="41.741413524880166" lon="13.696628982965258"><ele>702.0</ele><time>2026-04-18T15:04:52Z</time></trkpt><trkpt lat="41.74119523465282" lon="13.69654765011399"><ele>702.5</ele><time>2026-04-18T15:04:53Z</time></trkpt><trkpt lat="41.74097248223097" lon="13.69647268764877"><ele>703.0</ele><time>2026-04-18T15:04:54Z</time></trkpt><trkpt lat="41.74074134443249" lon="13.696389501217702"><ele>703.0</ele><time>2026-04-18T15:04:55Z</time></trkpt><trkpt lat="41.74050898564721" lon="13.696288285905727"><ele>703.0</ele><time>2026-04-18T15:04:56Z</time></trkpt><trkpt lat="41.740288412878044" lon="13.696139995776916"><ele>697.5</ele><time>2026-04-18T15:04:57Z</time></trkpt><trkpt lat="41.74009187025573" lon="13.695950813386077"><ele>692.0</ele><time>2026-04-18T15:04:58Z</time></trkpt><trkpt lat="41.73993420397355" lon="13.695731913946839"><ele>692.0</ele><time>2026-04-18T15:04:59Z</time></trkpt><trkpt lat="41.739788807398185" lon="13.69551442365379"><ele>692.0</ele><time>2026-04-18T15:05:00Z</time></trkpt><trkpt lat="41.73965353240119" lon="13.695322524546501"><ele>692.0</ele><time>2026-04-18T15:05:01Z</time></trkpt><trkpt lat="41.73952148037155" lon="13.695148530532835"><ele>689.6666666666666</ele><time>2026-04-18T15:05:02Z</time></trkpt><trkpt lat="41.73937805394058" lon="13.694984772717358"><ele>687.3333333333334</ele><time>2026-04-18T15:05:03Z</time></trkpt><trkpt lat="41.73921036296283" lon="13.694824481541056"><ele>685.0</ele><time>2026-04-18T15:05:04Z</time></trkpt><trkpt lat="41.73903132125885" lon="13.69468821658512"><ele>685.0</ele><time>2026-04-18T15:05:05Z</time></trkpt><trkpt lat="41.73884199522758" lon="13.694573281935842"><ele>685.0</ele><time>2026-04-18T15:05:06Z</time></trkpt><trkpt lat="41.73864409606382" lon="13.694486297337228"><ele>685.0</ele><time>2026-04-18T15:05:07Z</time></trkpt><trkpt lat="41.73844709709106" lon="13.694412329700839"><ele>678.3333333333334</ele><time>2026-04-18T15:05:08Z</time></trkpt><trkpt lat="41.738265608275846" lon="13.694363796918157"><ele>671.6666666666666</ele><time>2026-04-18T15:05:09Z</time></trkpt><trkpt lat="41.73809819571967" lon="13.694335032547636"><ele>665.0</ele><time>2026-04-18T15:05:10Z</time></trkpt><trkpt lat="41.73793296425774" lon="13.6943181549574"><ele>665.0</ele><time>2026-04-18T15:05:11Z</time></trkpt><trkpt lat="41.7377450543372" lon="13.694313908380424"><ele>665.0</ele><time>2026-04-18T15:05:12Z</time></trkpt><trkpt lat="41.73753941816054" lon="13.6943258101986"><ele>665.0</ele><time>2026-04-18T15:05:13Z</time></trkpt><trkpt lat="41.73731985690501" lon="13.694358538623112"><ele>664.3333333333333</ele><time>2026-04-18T15:05:14Z</time></trkpt><trkpt lat="41.73710600967156" lon="13.694399538415004"><ele>663.6666666666666</ele><time>2026-04-18T15:05:15Z</time></trkpt><trkpt lat="41.736912612959614" lon="13.69443662418775"><ele>663.0</ele><time>2026-04-18T15:05:16Z</time></trkpt><trkpt lat="41.736730386095125" lon="13.69446096413313"><ele>661.0</ele><time>2026-04-18T15:05:17Z</time></trkpt><trkpt lat="41.73654949879921" lon="13.694465674045196"><ele>659.0</ele><time>2026-04-18T15:05:18Z</time></trkpt><trkpt lat="41.73636691158634" lon="13.694443108986041"><ele>657.0</ele><time>2026-04-18T15:05:19Z</time></trkpt><trkpt lat="41.73619829008334" lon="13.694394009511596"><ele>658.0</ele><time>2026-04-18T15:05:20Z</time></trkpt><trkpt lat="41.73604583794505" lon="13.694330129296327"><ele>659.0</ele><time>2026-04-18T15:05:21Z</time></trkpt><trkpt lat="41.73590136430262" lon="13.69425171898501"><ele>660.0</ele><time>2026-04-18T15:05:22Z</time></trkpt><trkpt lat="41.735747417232155" lon="13.694165086761945"><ele>660.0</ele><time>2026-04-18T15:05:23Z</time></trkpt><trkpt lat="41.7355957366651" lon="13.694091889227716"><ele>660.0</ele><time>2026-04-18T15:05:24Z</time></trkpt><trkpt lat="41.73544370630087" lon="13.69403111687398"><ele>660.0</ele><time>2026-04-18T15:05:25Z</time></trkpt><trkpt lat="41.73527999977106" lon="13.69398736360586"><ele>660.0</ele><time>2026-04-18T15:05:26Z</time></trkpt><trkpt lat="41.73511863127703" lon="13.6939638853509"><ele>660.0</ele><time>2026-04-18T15:05:27Z</time></trkpt><trkpt lat="41.73495802311103" lon="13.69395481728257"><ele>660.0</ele><time>2026-04-18T15:05:28Z</time></trkpt><trkpt lat="41.734791373327404" lon="13.693968151361716"><ele>660.0</ele><time>2026-04-18T15:05:29Z</time></trkpt><trkpt lat="41.734629654467966" lon="13.693998431070657"><ele>660.0</ele><time>2026-04-18T15:05:30Z</time></trkpt><trkpt lat="41.73447336669374" lon="13.694038078575586"><ele>660.0</ele><time>2026-04-18T15:05:31Z</time></trkpt><trkpt lat="41.734323512608185" lon="13.694086988564989"><ele>657.0</ele><time>2026-04-18T15:05:32Z</time></trkpt><trkpt lat="41.734172772704376" lon="13.694146873367611"><ele>654.0</ele><time>2026-04-18T15:05:33Z</time></trkpt><trkpt lat="41.73401956632813" lon="13.694221486762656"><ele>651.0</ele><time>2026-04-18T15:05:34Z</time></trkpt><trkpt lat="41.73386598402076" lon="13.694325350923496"><ele>650.0</ele><time>2026-04-18T15:05:35Z</time></trkpt><trkpt lat="41.73372914899602" lon="13.69443593632481"><ele>649.0</ele><time>2026-04-18T15:05:36Z</time></trkpt><trkpt lat="41.73357702897661" lon="13.694537643426337"><ele>648.0</ele><time>2026-04-18T15:05:37Z</time></trkpt><trkpt lat="41.73342730916804" lon="13.694688277369409"><ele>648.0</ele><time>2026-04-18T15:05:38Z</time></trkpt><trkpt lat="41.73325596695418" lon="13.694882915183364"><ele>648.0</ele><time>2026-04-18T15:05:39Z</time></trkpt><trkpt lat="41.733074914879" lon="13.69511329347479"><ele>643.0</ele><time>2026-04-18T15:05:40Z</time></trkpt><trkpt lat="41.73288130675103" lon="13.695366250135065"><ele>638.0</ele><time>2026-04-18T15:05:41Z</time></trkpt><trkpt lat="41.7326780365932" lon="13.695631787260654"><ele>638.0</ele><time>2026-04-18T15:05:42Z</time></trkpt><trkpt lat="41.732491260417255" lon="13.69587359651807"><ele>638.0</ele><time>2026-04-18T15:05:43Z</time></trkpt><trkpt lat="41.73231639166464" lon="13.696096172005186"><ele>642.6666666666666</ele><time>2026-04-18T15:05:44Z</time></trkpt><trkpt lat="41.73216343091039" lon="13.696291375545476"><ele>647.3333333333334</ele><time>2026-04-18T15:05:45Z</time></trkpt><trkpt lat="41.732029496020985" lon="13.696462923599078"><ele>652.0</ele><time>2026-04-18T15:05:46Z</time></trkpt><trkpt lat="41.73189784046645" lon="13.6966233108586"><ele>646.0</ele><time>2026-04-18T15:05:47Z</time></trkpt><trkpt lat="41.73174358568344" lon="13.696728122372093"><ele>640.0</ele><time>2026-04-18T15:05:48Z</time></trkpt><trkpt lat="41.731573346350224" lon="13.69681201335764"><ele>634.0</ele><time>2026-04-18T15:05:49Z</time></trkpt><trkpt lat="41.731375001101235" lon="13.6968525941252"><ele>634.0</ele><time>2026-04-18T15:05:50Z</time></trkpt><trkpt lat="41.73119028940276" lon="13.696863251514843"><ele>634.0</ele><time>2026-04-18T15:05:51Z</time></trkpt><trkpt lat="41.73101082717236" lon="13.696821815958716"><ele>634.0</ele><time>2026-04-18T15:05:52Z</time></trkpt><trkpt lat="41.730826599011536" lon="13.696722477530844"><ele>631.6666666666667</ele><time>2026-04-18T15:05:53Z</time></trkpt><trkpt lat="41.73065014438246" lon="13.696582074796074"><ele>629.3333333333334</ele><time>2026-04-18T15:05:54Z</time></trkpt><trkpt lat="41.73049219720168" lon="13.696454294307822"><ele>627.0</ele><time>2026-04-18T15:05:55Z</time></trkpt><trkpt lat="41.73035931177142" lon="13.696288823965167"><ele>623.6666666666666</ele><time>2026-04-18T15:05:56Z</time></trkpt><trkpt lat="41.73026236815873" lon="13.696073987163452"><ele>620.3333333333333</ele><time>2026-04-18T15:05:57Z</time></trkpt><trkpt lat="41.730182686959466" lon="13.695853891003843"><ele>617.0</ele><time>2026-04-18T15:05:58Z</time></trkpt><trkpt lat="41.73012727584967" lon="13.69562054502354"><ele>616.6666666666666</ele><time>2026-04-18T15:05:59Z</time></trkpt><trkpt lat="41.73010380561139" lon="13.695397290532906"><ele>616.3333333333334</ele><time>2026-04-18T15:06:00Z</time></trkpt><trkpt lat="41.73011783687477" lon="13.69514778105043"><ele>616.0</ele><time>2026-04-18T15:06:01Z</time></trkpt><trkpt lat="41.730170037355194" lon="13.69487360709701"><ele>611.0</ele><time>2026-04-18T15:06:02Z</time></trkpt><trkpt lat="41.73026072785046" lon="13.69459503069778"><ele>606.0</ele><time>2026-04-18T15:06:03Z</time></trkpt><trkpt lat="41.73040528854755" lon="13.69429938388571"><ele>602.5</ele><time>2026-04-18T15:06:04Z</time></trkpt><trkpt lat="41.73057950157164" lon="13.693986489681118"><ele>599.0</ele><time>2026-04-18T15:06:05Z</time></trkpt><trkpt lat="41.73076895236992" lon="13.693660710243"><ele>598.0</ele><time>2026-04-18T15:06:06Z</time></trkpt><trkpt lat="41.730944004031315" lon="13.693341965744096"><ele>597.0</ele><time>2026-04-18T15:06:07Z</time></trkpt><trkpt lat="41.73109354144595" lon="13.693033118869925"><ele>602.0</ele><time>2026-04-18T15:06:08Z</time></trkpt><trkpt lat="41.73121365880591" lon="13.692670104118395"><ele>607.0</ele><time>2026-04-18T15:06:09Z</time></trkpt><trkpt lat="41.731317549430294" lon="13.692275268490304"><ele>606.0</ele><time>2026-04-18T15:06:10Z</time></trkpt><trkpt lat="41.73140102930528" lon="13.691916338328879"><ele>605.0</ele><time>2026-04-18T15:06:11Z</time></trkpt><trkpt lat="41.731477304939936" lon="13.691579434727991"><ele>605.0</ele><time>2026-04-18T15:06:12Z</time></trkpt><trkpt lat="41.73154459356289" lon="13.691260565150687"><ele>605.0</ele><time>2026-04-18T15:06:13Z</time></trkpt><trkpt lat="41.7316134265047" lon="13.69096036450978"><ele>602.0</ele><time>2026-04-18T15:06:14Z</time></trkpt><trkpt lat="41.73169575545698" lon="13.690670123199627"><ele>599.0</ele><time>2026-04-18T15:06:15Z</time></trkpt><trkpt lat="41.73181743590727" lon="13.69037757446417"><ele>599.5</ele><time>2026-04-18T15:06:16Z</time></trkpt><trkpt lat="41.73195330325701" lon="13.690112150603555"><ele>600.0</ele><time>2026-04-18T15:06:17Z</time></trkpt><trkpt lat="41.732076554971215" lon="13.689861284769062"><ele>600.0</ele><time>2026-04-18T15:06:18Z</time></trkpt><trkpt lat="41.73218653383566" lon="13.689616570011786"><ele>600.0</ele><time>2026-04-18T15:06:19Z</time></trkpt><trkpt lat="41.73228564940462" lon="13.68936284766857"><ele>600.0</ele><time>2026-04-18T15:06:20Z</time></trkpt><trkpt lat="41.732364806368466" lon="13.689108945994368"><ele>594.6666666666666</ele><time>2026-04-18T15:06:21Z</time></trkpt><trkpt lat="41.73241378630822" lon="13.688831980124473"><ele>589.3333333333333</ele><time>2026-04-18T15:06:22Z</time></trkpt><trkpt lat="41.732429034843705" lon="13.688542555716502"><ele>584.0</ele><time>2026-04-18T15:06:23Z</time></trkpt><trkpt lat="41.73240877364521" lon="13.688257157958908"><ele>582.3333333333333</ele><time>2026-04-18T15:06:24Z</time></trkpt><trkpt lat="41.73235405364145" lon="13.687980646677945"><ele>580.6666666666666</ele><time>2026-04-18T15:06:25Z</time></trkpt><trkpt lat="41.73224730167934" lon="13.68774514512847"><ele>579.0</ele><time>2026-04-18T15:06:25.999Z</time></trkpt><trkpt lat="41.732139245567836" lon="13.68749610983883"><ele>579.0</ele><time>2026-04-18T15:06:26.999Z</time></trkpt><trkpt lat="41.73197933626087" lon="13.687292575817269"><ele>579.0</ele><time>2026-04-18T15:06:27.999Z</time></trkpt><trkpt lat="41.73180951983892" lon="13.687133093178808"><ele>579.0</ele><time>2026-04-18T15:06:28.999Z</time></trkpt><trkpt lat="41.73164422273534" lon="13.68699942127831"><ele>578.6666666666666</ele><time>2026-04-18T15:06:29.999Z</time></trkpt><trkpt lat="41.73148261656876" lon="13.686886838140234"><ele>578.3333333333333</ele><time>2026-04-18T15:06:30.999Z</time></trkpt><trkpt lat="41.731330785141346" lon="13.686788717735519"><ele>578.0</ele><time>2026-04-18T15:06:31.999Z</time></trkpt><trkpt lat="41.7311865849891" lon="13.686691442446982"><ele>576.5</ele><time>2026-04-18T15:06:32.999Z</time></trkpt><trkpt lat="41.73105014800882" lon="13.686604246073504"><ele>575.0</ele><time>2026-04-18T15:06:33.999Z</time></trkpt><trkpt lat="41.73091194268941" lon="13.686528723482558"><ele>573.5</ele><time>2026-04-18T15:06:34.999Z</time></trkpt><trkpt lat="41.73078430842944" lon="13.686478216346812"><ele>572.0</ele><time>2026-04-18T15:06:35.999Z</time></trkpt><trkpt lat="41.73065718544802" lon="13.686437782524694"><ele>572.0</ele><time>2026-04-18T15:06:37Z</time></trkpt><trkpt lat="41.730523710479034" lon="13.68639881116457"><ele>572.0</ele><time>2026-04-18T15:06:38Z</time></trkpt><trkpt lat="41.730379191532265" lon="13.686369957144935"><ele>572.0</ele><time>2026-04-18T15:06:39Z</time></trkpt><trkpt lat="41.73021621336936" lon="13.68634874980637"><ele>572.0</ele><time>2026-04-18T15:06:40Z</time></trkpt><trkpt lat="41.73003759186256" lon="13.686330827345241"><ele>570.6666666666666</ele><time>2026-04-18T15:06:41Z</time></trkpt><trkpt lat="41.72985562309818" lon="13.686317800216466"><ele>569.3333333333334</ele><time>2026-04-18T15:06:42Z</time></trkpt><trkpt lat="41.72968150904717" lon="13.686324750640669"><ele>568.0</ele><time>2026-04-18T15:06:43Z</time></trkpt><trkpt lat="41.72950410467788" lon="13.686369566909121"><ele>567.0</ele><time>2026-04-18T15:06:44Z</time></trkpt><trkpt lat="41.72929968022592" lon="13.686419147730387"><ele>566.0</ele><time>2026-04-18T15:06:45Z</time></trkpt><trkpt lat="41.72908083275864" lon="13.686465675279338"><ele>565.0</ele><time>2026-04-18T15:06:46Z</time></trkpt><trkpt lat="41.72886217262681" lon="13.686524751276483"><ele>565.0</ele><time>2026-04-18T15:06:47Z</time></trkpt><trkpt lat="41.7286352649558" lon="13.686577642698252"><ele>565.0</ele><time>2026-04-18T15:06:48Z</time></trkpt><trkpt lat="41.72840646143329" lon="13.686633008544952"><ele>566.0</ele><time>2026-04-18T15:06:49Z</time></trkpt><trkpt lat="41.72817329904374" lon="13.686693876038042"><ele>567.0</ele><time>2026-04-18T15:06:50Z</time></trkpt><trkpt lat="41.72793439915017" lon="13.686757485811636"><ele>568.0</ele><time>2026-04-18T15:06:51Z</time></trkpt><trkpt lat="41.727700856239366" lon="13.686817900487954"><ele>569.0</ele><time>2026-04-18T15:06:52Z</time></trkpt><trkpt lat="41.7274857162934" lon="13.686872400486571"><ele>569.0</ele><time>2026-04-18T15:06:53Z</time></trkpt><trkpt lat="41.727282929852414" lon="13.686921665596163"><ele>569.0</ele><time>2026-04-18T15:06:54Z</time></trkpt><trkpt lat="41.72708951867487" lon="13.686954009290357"><ele>569.0</ele><time>2026-04-18T15:06:55Z</time></trkpt><trkpt lat="41.72690134400657" lon="13.686955078976458"><ele>568.3333333333333</ele><time>2026-04-18T15:06:56Z</time></trkpt><trkpt lat="41.726716543110896" lon="13.686925099840927"><ele>567.6666666666666</ele><time>2026-04-18T15:06:57Z</time></trkpt><trkpt lat="41.72652736240227" lon="13.686857231768128"><ele>567.0</ele><time>2026-04-18T15:06:58Z</time></trkpt><trkpt lat="41.72633408586012" lon="13.686759377334095"><ele>567.0</ele><time>2026-04-18T15:06:59Z</time></trkpt><trkpt lat="41.72614219691311" lon="13.686634634696777"><ele>567.0</ele><time>2026-04-18T15:07:00Z</time></trkpt><trkpt lat="41.72595123051856" lon="13.686479785744956"><ele>567.0</ele><time>2026-04-18T15:07:01Z</time></trkpt><trkpt lat="41.725763900425825" lon="13.68629640219427"><ele>568.0</ele><time>2026-04-18T15:07:02Z</time></trkpt><trkpt lat="41.72557232328524" lon="13.686066238969643"><ele>569.0</ele><time>2026-04-18T15:07:03Z</time></trkpt><trkpt lat="41.72537177007107" lon="13.685820512599342"><ele>563.0</ele><time>2026-04-18T15:07:04Z</time></trkpt><trkpt lat="41.7251933274508" lon="13.685601061911202"><ele>557.0</ele><time>2026-04-18T15:07:05Z</time></trkpt><trkpt lat="41.72502195924577" lon="13.685399932032249"><ele>564.0</ele><time>2026-04-18T15:07:06Z</time></trkpt><trkpt lat="41.72485228193145" lon="13.685204623758382"><ele>571.0</ele><time>2026-04-18T15:07:07Z</time></trkpt><trkpt lat="41.7246588924463" lon="13.685021785874161"><ele>571.0</ele><time>2026-04-18T15:07:08Z</time></trkpt><trkpt lat="41.72444555808806" lon="13.684875453086988"><ele>571.0</ele><time>2026-04-18T15:07:09Z</time></trkpt><trkpt lat="41.72423810695355" lon="13.684754636032322"><ele>564.0</ele><time>2026-04-18T15:07:10Z</time></trkpt><trkpt lat="41.724042519348686" lon="13.68466218656294"><ele>557.0</ele><time>2026-04-18T15:07:11Z</time></trkpt><trkpt lat="41.72386264555851" lon="13.684581869832218"><ele>550.0</ele><time>2026-04-18T15:07:12Z</time></trkpt><trkpt lat="41.723714069702346" lon="13.6845081180508"><ele>553.6666666666667</ele><time>2026-04-18T15:07:13Z</time></trkpt><trkpt lat="41.72358317598804" lon="13.684410274348176"><ele>557.3333333333334</ele><time>2026-04-18T15:07:14Z</time></trkpt><trkpt lat="41.72346534274557" lon="13.684270800315483"><ele>561.0</ele><time>2026-04-18T15:07:15Z</time></trkpt><trkpt lat="41.723375176148785" lon="13.684092902526535"><ele>561.0</ele><time>2026-04-18T15:07:16Z</time></trkpt><trkpt lat="41.72331869750559" lon="13.683902623642568"><ele>561.0</ele><time>2026-04-18T15:07:17Z</time></trkpt><trkpt lat="41.723293998004564" lon="13.683700637109014"><ele>561.0</ele><time>2026-04-18T15:07:18Z</time></trkpt><trkpt lat="41.72330150889137" lon="13.683500640382816"><ele>557.3333333333334</ele><time>2026-04-18T15:07:19Z</time></trkpt><trkpt lat="41.723358086851306" lon="13.683302405164572"><ele>553.6666666666667</ele><time>2026-04-18T15:07:20Z</time></trkpt><trkpt lat="41.72346125006777" lon="13.683103995934028"><ele>550.0</ele><time>2026-04-18T15:07:21Z</time></trkpt><trkpt lat="41.723587437121935" lon="13.682899638273138"><ele>551.3333333333334</ele><time>2026-04-18T15:07:22Z</time></trkpt><trkpt lat="41.72373414095754" lon="13.682708640713692"><ele>552.6666666666666</ele><time>2026-04-18T15:07:23Z</time></trkpt><trkpt lat="41.7239080932584" lon="13.682528999033131"><ele>554.0</ele><time>2026-04-18T15:07:24Z</time></trkpt><trkpt lat="41.72409374145506" lon="13.68236985150631"><ele>554.0</ele><time>2026-04-18T15:07:25Z</time></trkpt><trkpt lat="41.72428561180193" lon="13.68222369759044"><ele>554.0</ele><time>2026-04-18T15:07:26Z</time></trkpt><trkpt lat="41.724461396327165" lon="13.682082745139464"><ele>554.0</ele><time>2026-04-18T15:07:27Z</time></trkpt><trkpt lat="41.724618733845716" lon="13.68192302907332"><ele>556.3333333333333</ele><time>2026-04-18T15:07:28Z</time></trkpt><trkpt lat="41.72476058132696" lon="13.681731217219301"><ele>558.6666666666666</ele><time>2026-04-18T15:07:29Z</time></trkpt><trkpt lat="41.72487624753963" lon="13.681508463225871"><ele>561.0</ele><time>2026-04-18T15:07:30Z</time></trkpt><trkpt lat="41.724979743084155" lon="13.681262105512754"><ele>555.3333333333334</ele><time>2026-04-18T15:07:31Z</time></trkpt><trkpt lat="41.72506020808548" lon="13.680997634333089"><ele>549.6666666666667</ele><time>2026-04-18T15:07:32Z</time></trkpt><trkpt lat="41.7251211021616" lon="13.680717426676436"><ele>544.0</ele><time>2026-04-18T15:07:33Z</time></trkpt><trkpt lat="41.72515189481977" lon="13.680424143549244"><ele>541.0</ele><time>2026-04-18T15:07:34Z</time></trkpt><trkpt lat="41.72515667163911" lon="13.680125874226528"><ele>538.0</ele><time>2026-04-18T15:07:35Z</time></trkpt><trkpt lat="41.72510817362978" lon="13.679830309974149"><ele>535.0</ele><time>2026-04-18T15:07:36Z</time></trkpt><trkpt lat="41.725047330954524" lon="13.67953751234984"><ele>534.5</ele><time>2026-04-18T15:07:37Z</time></trkpt><trkpt lat="41.72495392281366" lon="13.679263382198632"><ele>534.0</ele><time>2026-04-18T15:07:38Z</time></trkpt><trkpt lat="41.724836766230176" lon="13.678987331462638"><ele>534.0</ele><time>2026-04-18T15:07:39Z</time></trkpt><trkpt lat="41.7246536821306" lon="13.67873183271496"><ele>534.0</ele><time>2026-04-18T15:07:40Z</time></trkpt><trkpt lat="41.72447467136957" lon="13.678418639150472"><ele>528.5</ele><time>2026-04-18T15:07:41Z</time></trkpt><trkpt lat="41.724281167968215" lon="13.678114989581434"><ele>523.0</ele><time>2026-04-18T15:07:42Z</time></trkpt><trkpt lat="41.72410836910383" lon="13.677836386780779"><ele>526.5</ele><time>2026-04-18T15:07:43Z</time></trkpt><trkpt lat="41.723931426665885" lon="13.677589481482613"><ele>530.0</ele><time>2026-04-18T15:07:44Z</time></trkpt><trkpt lat="41.7237864199079" lon="13.677328102287316"><ele>530.0</ele><time>2026-04-18T15:07:45Z</time></trkpt><trkpt lat="41.723637323813875" lon="13.677093318822843"><ele>530.0</ele><time>2026-04-18T15:07:46Z</time></trkpt><trkpt lat="41.723483658984776" lon="13.676885574798009"><ele>530.0</ele><time>2026-04-18T15:07:47Z</time></trkpt><trkpt lat="41.72336433771468" lon="13.676664068816278"><ele>529.3333333333333</ele><time>2026-04-18T15:07:48Z</time></trkpt><trkpt lat="41.72324697102173" lon="13.67647232908352"><ele>528.6666666666666</ele><time>2026-04-18T15:07:49Z</time></trkpt><trkpt lat="41.72314388672625" lon="13.676271513645075"><ele>528.0</ele><time>2026-04-18T15:07:50Z</time></trkpt><trkpt lat="41.723071757122725" lon="13.676054734481479"><ele>528.0</ele><time>2026-04-18T15:07:51Z</time></trkpt><trkpt lat="41.72302787012988" lon="13.67581139007963"><ele>528.0</ele><time>2026-04-18T15:07:52Z</time></trkpt><trkpt lat="41.72301766829964" lon="13.675556808744876"><ele>528.0</ele><time>2026-04-18T15:07:53Z</time></trkpt><trkpt lat="41.723039696113396" lon="13.675298909843308"><ele>527.0</ele><time>2026-04-18T15:07:54Z</time></trkpt><trkpt lat="41.723088931436685" lon="13.675030557503929"><ele>526.0</ele><time>2026-04-18T15:07:55Z</time></trkpt><trkpt lat="41.72313785096747" lon="13.674757972096804"><ele>525.0</ele><time>2026-04-18T15:07:56Z</time></trkpt><trkpt lat="41.72318245201159" lon="13.67448365833009"><ele>521.3333333333334</ele><time>2026-04-18T15:07:57Z</time></trkpt><trkpt lat="41.72322817846875" lon="13.674211466770613"><ele>517.6666666666667</ele><time>2026-04-18T15:07:58Z</time></trkpt><trkpt lat="41.723272383765725" lon="13.673941535486936"><ele>514.0</ele><time>2026-04-18T15:07:59Z</time></trkpt><trkpt lat="41.72332134781658" lon="13.67368473725305"><ele>510.0</ele><time>2026-04-18T15:08:00Z</time></trkpt><trkpt lat="41.72336671591609" lon="13.67344502290188"><ele>506.0</ele><time>2026-04-18T15:08:01Z</time></trkpt><trkpt lat="41.723403319026154" lon="13.673221231556987"><ele>502.0</ele><time>2026-04-18T15:08:02Z</time></trkpt><trkpt lat="41.72345861885018" lon="13.673010964114855"><ele>502.0</ele><time>2026-04-18T15:08:03Z</time></trkpt><trkpt lat="41.723556183891226" lon="13.672808967675962"><ele>502.0</ele><time>2026-04-18T15:08:04Z</time></trkpt><trkpt lat="41.72369483639711" lon="13.672629362718066"><ele>502.0</ele><time>2026-04-18T15:08:05Z</time></trkpt><trkpt lat="41.72386256812318" lon="13.672445077622218"><ele>505.33333333333337</ele><time>2026-04-18T15:08:06Z</time></trkpt><trkpt lat="41.72402284674263" lon="13.672251801803336"><ele>508.66666666666663</ele><time>2026-04-18T15:08:07Z</time></trkpt><trkpt lat="41.72418856664185" lon="13.672056410435307"><ele>512.0</ele><time>2026-04-18T15:08:08Z</time></trkpt><trkpt lat="41.72434004591558" lon="13.671851910207307"><ele>513.0</ele><time>2026-04-18T15:08:09Z</time></trkpt><trkpt lat="41.72447325339782" lon="13.671645341849445"><ele>514.0</ele><time>2026-04-18T15:08:10Z</time></trkpt><trkpt lat="41.724582205985634" lon="13.671443392089367"><ele>515.0</ele><time>2026-04-18T15:08:11Z</time></trkpt><trkpt lat="41.72466032616695" lon="13.671224059880785"><ele>509.66666666666663</ele><time>2026-04-18T15:08:12Z</time></trkpt><trkpt lat="41.724691963856365" lon="13.670978373177835"><ele>504.33333333333337</ele><time>2026-04-18T15:08:13Z</time></trkpt><trkpt lat="41.724684220649614" lon="13.670735493838086"><ele>499.0</ele><time>2026-04-18T15:08:14Z</time></trkpt><trkpt lat="41.72468510526977" lon="13.670526139199135"><ele>499.0</ele><time>2026-04-18T15:08:15Z</time></trkpt><trkpt lat="41.72471308380308" lon="13.670324115307128"><ele>499.0</ele><time>2026-04-18T15:08:16Z</time></trkpt><trkpt lat="41.72479049977493" lon="13.670136976407965"><ele>499.0</ele><time>2026-04-18T15:08:17Z</time></trkpt><trkpt lat="41.72488670041617" lon="13.66996603610672"><ele>497.0</ele><time>2026-04-18T15:08:18Z</time></trkpt><trkpt lat="41.72501376970695" lon="13.669822642217037"><ele>495.0</ele><time>2026-04-18T15:08:19Z</time></trkpt><trkpt lat="41.72518305545937" lon="13.669710568971738"><ele>493.0</ele><time>2026-04-18T15:08:20Z</time></trkpt><trkpt lat="41.72535357113404" lon="13.66957621048791"><ele>493.0</ele><time>2026-04-18T15:08:21Z</time></trkpt><trkpt lat="41.72552815243269" lon="13.6694455932265"><ele>493.0</ele><time>2026-04-18T15:08:22Z</time></trkpt><trkpt lat="41.725699137131016" lon="13.669309154315675"><ele>493.0</ele><time>2026-04-18T15:08:23Z</time></trkpt><trkpt lat="41.72585521797844" lon="13.669162195715396"><ele>493.33333333333337</ele><time>2026-04-18T15:08:24Z</time></trkpt><trkpt lat="41.725988433351134" lon="13.668974954891647"><ele>493.66666666666663</ele><time>2026-04-18T15:08:25Z</time></trkpt><trkpt lat="41.72609517614625" lon="13.66875987900146"><ele>494.0</ele><time>2026-04-18T15:08:26Z</time></trkpt><trkpt lat="41.72617190080203" lon="13.668516018602752"><ele>491.0</ele><time>2026-04-18T15:08:26.999Z</time></trkpt><trkpt lat="41.72620941574357" lon="13.668249859051356"><ele>488.0</ele><time>2026-04-18T15:08:27.999Z</time></trkpt><trkpt lat="41.726205395253636" lon="13.66798180187196"><ele>485.0</ele><time>2026-04-18T15:08:28.999Z</time></trkpt><trkpt lat="41.72617174185012" lon="13.667706978261776"><ele>481.66666666666663</ele><time>2026-04-18T15:08:29.999Z</time></trkpt><trkpt lat="41.72611847070358" lon="13.66745263385124"><ele>478.33333333333337</ele><time>2026-04-18T15:08:30.999Z</time></trkpt><trkpt lat="41.72604738216446" lon="13.667219095143166"><ele>475.0</ele><time>2026-04-18T15:08:31.999Z</time></trkpt><trkpt lat="41.725962645588524" lon="13.666996513885605"><ele>471.6666666666667</ele><time>2026-04-18T15:08:32.999Z</time></trkpt><trkpt lat="41.72589826894452" lon="13.666778515861035"><ele>468.33333333333337</ele><time>2026-04-18T15:08:33.999Z</time></trkpt><trkpt lat="41.72587350902874" lon="13.666559162261525"><ele>465.0</ele><time>2026-04-18T15:08:34.999Z</time></trkpt><trkpt lat="41.72588244797255" lon="13.666334721382434"><ele>465.0</ele><time>2026-04-18T15:08:35.999Z</time></trkpt><trkpt lat="41.72592850066764" lon="13.666113029943586"><ele>465.0</ele><time>2026-04-18T15:08:36.999Z</time></trkpt><trkpt lat="41.72600988300896" lon="13.665874461204323"><ele>465.0</ele><time>2026-04-18T15:08:37.999Z</time></trkpt><trkpt lat="41.726103656382705" lon="13.665625683280435"><ele>461.0</ele><time>2026-04-18T15:08:38.999Z</time></trkpt><trkpt lat="41.726193054187966" lon="13.665370927799373"><ele>457.0</ele><time>2026-04-18T15:08:39.999Z</time></trkpt><trkpt lat="41.72627942253403" lon="13.66511587212257"><ele>453.0</ele><time>2026-04-18T15:08:40.999Z</time></trkpt><trkpt lat="41.72636406262094" lon="13.66486685435076"><ele>452.66666666666663</ele><time>2026-04-18T15:08:41.999Z</time></trkpt><trkpt lat="41.72644674618284" lon="13.664618481759682"><ele>452.3333333333333</ele><time>2026-04-18T15:08:43Z</time></trkpt><trkpt lat="41.7265222131048" lon="13.664366593105232"><ele>452.0</ele><time>2026-04-18T15:08:44Z</time></trkpt><trkpt lat="41.72658396457527" lon="13.664104898840915"><ele>452.0</ele><time>2026-04-18T15:08:45Z</time></trkpt><trkpt lat="41.72661454284901" lon="13.663810043951596"><ele>452.0</ele><time>2026-04-18T15:08:46Z</time></trkpt><trkpt lat="41.72662204313755" lon="13.663494488518184"><ele>455.0</ele><time>2026-04-18T15:08:47Z</time></trkpt><trkpt lat="41.726636147719255" lon="13.663174099056974"><ele>458.0</ele><time>2026-04-18T15:08:48Z</time></trkpt><trkpt lat="41.72665754116358" lon="13.662862953295654"><ele>459.0</ele><time>2026-04-18T15:08:49Z</time></trkpt><trkpt lat="41.72669829324485" lon="13.662559380973969"><ele>460.0</ele><time>2026-04-18T15:08:50Z</time></trkpt><trkpt lat="41.72676585365885" lon="13.662281135198462"><ele>461.0</ele><time>2026-04-18T15:08:51Z</time></trkpt><trkpt lat="41.72686061245436" lon="13.662019678863015"><ele>455.0</ele><time>2026-04-18T15:08:52Z</time></trkpt><trkpt lat="41.726982913877144" lon="13.661779138517893"><ele>449.0</ele><time>2026-04-18T15:08:53Z</time></trkpt><trkpt lat="41.727129806882935" lon="13.661549252503724"><ele>443.0</ele><time>2026-04-18T15:08:54Z</time></trkpt><trkpt lat="41.72728412842228" lon="13.661319087810533"><ele>447.66666666666663</ele><time>2026-04-18T15:08:55Z</time></trkpt><trkpt lat="41.72743827494235" lon="13.661100146025987"><ele>452.33333333333337</ele><time>2026-04-18T15:08:56Z</time></trkpt><trkpt lat="41.7275497253636" lon="13.660846230687168"><ele>457.0</ele><time>2026-04-18T15:08:57Z</time></trkpt><trkpt lat="41.727626667502456" lon="13.660537048375591"><ele>460.0</ele><time>2026-04-18T15:08:58Z</time></trkpt><trkpt lat="41.727695505807205" lon="13.660221522338299"><ele>463.0</ele><time>2026-04-18T15:08:59Z</time></trkpt><trkpt lat="41.72777560115067" lon="13.65992194102933"><ele>456.0</ele><time>2026-04-18T15:09:00Z</time></trkpt><trkpt lat="41.72785431555308" lon="13.65964596842669"><ele>449.0</ele><time>2026-04-18T15:09:01Z</time></trkpt><trkpt lat="41.72792647035365" lon="13.659377912597671"><ele>442.0</ele><time>2026-04-18T15:09:02Z</time></trkpt><trkpt lat="41.72798648882217" lon="13.659104427021983"><ele>442.0</ele><time>2026-04-18T15:09:03Z</time></trkpt><trkpt lat="41.72803991600845" lon="13.658818618863382"><ele>442.0</ele><time>2026-04-18T15:09:04Z</time></trkpt><trkpt lat="41.728082428413394" lon="13.65852570346885"><ele>442.0</ele><time>2026-04-18T15:09:05Z</time></trkpt><trkpt lat="41.728108389797875" lon="13.65822977864372"><ele>441.0</ele><time>2026-04-18T15:09:06Z</time></trkpt><trkpt lat="41.728121699900576" lon="13.657937603163496"><ele>440.0</ele><time>2026-04-18T15:09:07Z</time></trkpt><trkpt lat="41.72813731360124" lon="13.657652788954842"><ele>439.0</ele><time>2026-04-18T15:09:08Z</time></trkpt><trkpt lat="41.728167869714184" lon="13.657380796673628"><ele>439.0</ele><time>2026-04-18T15:09:09Z</time></trkpt><trkpt lat="41.72821632767137" lon="13.65710994403712"><ele>439.0</ele><time>2026-04-18T15:09:10Z</time></trkpt><trkpt lat="41.72826725116639" lon="13.65683836602813"><ele>439.0</ele><time>2026-04-18T15:09:11Z</time></trkpt><trkpt lat="41.7283210162953" lon="13.65655819885494"><ele>439.5</ele><time>2026-04-18T15:09:12Z</time></trkpt><trkpt lat="41.72837704835119" lon="13.656265545788376"><ele>440.0</ele><time>2026-04-18T15:09:13Z</time></trkpt><trkpt lat="41.72843427683392" lon="13.655963877992805"><ele>440.5</ele><time>2026-04-18T15:09:14Z</time></trkpt><trkpt lat="41.728496305959304" lon="13.655661378289254"><ele>441.0</ele><time>2026-04-18T15:09:15Z</time></trkpt><trkpt lat="41.72855676824088" lon="13.655357865710037"><ele>441.0</ele><time>2026-04-18T15:09:16Z</time></trkpt><trkpt lat="41.72861770454003" lon="13.655049015958525"><ele>441.0</ele><time>2026-04-18T15:09:17Z</time></trkpt><trkpt lat="41.72867268328459" lon="13.65474649892938"><ele>442.0</ele><time>2026-04-18T15:09:18Z</time></trkpt><trkpt lat="41.72872948515163" lon="13.654445889787732"><ele>443.0</ele><time>2026-04-18T15:09:19Z</time></trkpt><trkpt lat="41.7288026974585" lon="13.654149444783688"><ele>443.0</ele><time>2026-04-18T15:09:20Z</time></trkpt><trkpt lat="41.728889267448366" lon="13.653861643230801"><ele>443.0</ele><time>2026-04-18T15:09:21Z</time></trkpt><trkpt lat="41.72898816798342" lon="13.653574854553861"><ele>437.5</ele><time>2026-04-18T15:09:22Z</time></trkpt><trkpt lat="41.72908825279508" lon="13.65328270962552"><ele>432.0</ele><time>2026-04-18T15:09:23Z</time></trkpt><trkpt lat="41.72918539416477" lon="13.652985297216048"><ele>424.5</ele><time>2026-04-18T15:09:24Z</time></trkpt><trkpt lat="41.7292740307057" lon="13.652705314890728"><ele>417.0</ele><time>2026-04-18T15:09:25Z</time></trkpt><trkpt lat="41.72936560372164" lon="13.652433502961461"><ele>424.5</ele><time>2026-04-18T15:09:26Z</time></trkpt><trkpt lat="41.72944499300884" lon="13.652149996390548"><ele>432.0</ele><time>2026-04-18T15:09:27Z</time></trkpt><trkpt lat="41.72950057194112" lon="13.65184566337891"><ele>432.0</ele><time>2026-04-18T15:09:28Z</time></trkpt><trkpt lat="41.72954578753517" lon="13.651527429632978"><ele>432.0</ele><time>2026-04-18T15:09:29Z</time></trkpt><trkpt lat="41.72958130015938" lon="13.651200883776568"><ele>430.5</ele><time>2026-04-18T15:09:30Z</time></trkpt><trkpt lat="41.72962213384268" lon="13.650875572754012"><ele>429.0</ele><time>2026-04-18T15:09:31Z</time></trkpt><trkpt lat="41.72966237296953" lon="13.650573265002308"><ele>427.33333333333337</ele><time>2026-04-18T15:09:32Z</time></trkpt><trkpt lat="41.72970130081058" lon="13.650285317023531"><ele>425.6666666666667</ele><time>2026-04-18T15:09:33Z</time></trkpt><trkpt lat="41.72973799054826" lon="13.650008375745703"><ele>424.0</ele><time>2026-04-18T15:09:34Z</time></trkpt><trkpt lat="41.72976437780689" lon="13.649735997630454"><ele>422.0</ele><time>2026-04-18T15:09:35Z</time></trkpt><trkpt lat="41.72976308273041" lon="13.64945002056839"><ele>420.0</ele><time>2026-04-18T15:09:36Z</time></trkpt><trkpt lat="41.72971407634014" lon="13.64914431700486"><ele>418.0</ele><time>2026-04-18T15:09:37Z</time></trkpt><trkpt lat="41.729660539428906" lon="13.648832792679043"><ele>416.0</ele><time>2026-04-18T15:09:38Z</time></trkpt><trkpt lat="41.729605215217866" lon="13.64852465268203"><ele>414.0</ele><time>2026-04-18T15:09:39Z</time></trkpt><trkpt lat="41.729560396556515" lon="13.648233789282736"><ele>414.0</ele><time>2026-04-18T15:09:40Z</time></trkpt><trkpt lat="41.72952675601381" lon="13.647929646419273"><ele>414.0</ele><time>2026-04-18T15:09:41Z</time></trkpt><trkpt lat="41.72951643548355" lon="13.647610315036424"><ele>412.0</ele><time>2026-04-18T15:09:42Z</time></trkpt><trkpt lat="41.72952545288741" lon="13.64728981031518"><ele>410.0</ele><time>2026-04-18T15:09:43Z</time></trkpt><trkpt lat="41.729539671717" lon="13.646990549588265"><ele>407.66666666666663</ele><time>2026-04-18T15:09:44Z</time></trkpt><trkpt lat="41.72955126338316" lon="13.646710399929376"><ele>405.33333333333337</ele><time>2026-04-18T15:09:45Z</time></trkpt><trkpt lat="41.7295600328523" lon="13.646440249683955"><ele>403.0</ele><time>2026-04-18T15:09:46Z</time></trkpt><trkpt lat="41.72956978161135" lon="13.646164146689575"><ele>401.0</ele><time>2026-04-18T15:09:47Z</time></trkpt><trkpt lat="41.72957803858111" lon="13.645871471216827"><ele>399.0</ele><time>2026-04-18T15:09:48Z</time></trkpt><trkpt lat="41.729587809246254" lon="13.64556772057536"><ele>397.0</ele><time>2026-04-18T15:09:49Z</time></trkpt><trkpt lat="41.729595889814284" lon="13.645275023520504"><ele>396.33333333333337</ele><time>2026-04-18T15:09:50Z</time></trkpt><trkpt lat="41.729602901532544" lon="13.64499506565968"><ele>395.66666666666663</ele><time>2026-04-18T15:09:51Z</time></trkpt><trkpt lat="41.72961191998772" lon="13.644721449089317"><ele>395.0</ele><time>2026-04-18T15:09:52Z</time></trkpt><trkpt lat="41.72962005307917" lon="13.644454504520267"><ele>394.3333333333333</ele><time>2026-04-18T15:09:53Z</time></trkpt><trkpt lat="41.729623270120975" lon="13.644176509477045"><ele>393.66666666666663</ele><time>2026-04-18T15:09:54Z</time></trkpt><trkpt lat="41.729614970009216" lon="13.643896288554101"><ele>393.0</ele><time>2026-04-18T15:09:55Z</time></trkpt><trkpt lat="41.729591905166465" lon="13.643616709860751"><ele>393.0</ele><time>2026-04-18T15:09:56Z</time></trkpt><trkpt lat="41.72955821521983" lon="13.643341179106947"><ele>393.0</ele><time>2026-04-18T15:09:57Z</time></trkpt><trkpt lat="41.72950897760148" lon="13.64307034611235"><ele>393.0</ele><time>2026-04-18T15:09:58Z</time></trkpt><trkpt lat="41.72944489516425" lon="13.642798717554543"><ele>386.3333333333333</ele><time>2026-04-18T15:09:59Z</time></trkpt><trkpt lat="41.72936982507607" lon="13.642522404804883"><ele>379.66666666666663</ele><time>2026-04-18T15:10:00Z</time></trkpt><trkpt lat="41.729279902556335" lon="13.642249183525164"><ele>373.0</ele><time>2026-04-18T15:10:01Z</time></trkpt><trkpt lat="41.72918208753743" lon="13.641995877249258"><ele>374.66666666666663</ele><time>2026-04-18T15:10:02Z</time></trkpt><trkpt lat="41.729075518958595" lon="13.64176148939014"><ele>376.3333333333333</ele><time>2026-04-18T15:10:03Z</time></trkpt><trkpt lat="41.728978409019774" lon="13.6415338311443"><ele>378.0</ele><time>2026-04-18T15:10:04Z</time></trkpt><trkpt lat="41.7288889241339" lon="13.641312486675421"><ele>379.0</ele><time>2026-04-18T15:10:05Z</time></trkpt><trkpt lat="41.72880078931584" lon="13.641096634187141"><ele>380.0</ele><time>2026-04-18T15:10:06Z</time></trkpt><trkpt lat="41.728716450436394" lon="13.640887546575"><ele>381.0</ele><time>2026-04-18T15:10:07Z</time></trkpt><trkpt lat="41.72864730773671" lon="13.640689151896092"><ele>381.0</ele><time>2026-04-18T15:10:08Z</time></trkpt><trkpt lat="41.72860039190288" lon="13.640488630406324"><ele>381.0</ele><time>2026-04-18T15:10:09Z</time></trkpt><trkpt lat="41.728564934057744" lon="13.640287856831552"><ele>381.0</ele><time>2026-04-18T15:10:10Z</time></trkpt><trkpt lat="41.728545868298525" lon="13.640083350431615"><ele>372.6666666666667</ele><time>2026-04-18T15:10:11Z</time></trkpt><trkpt lat="41.72852905078458" lon="13.639862122837274"><ele>364.33333333333337</ele><time>2026-04-18T15:10:12Z</time></trkpt><trkpt lat="41.72852906821003" lon="13.639621386791063"><ele>356.0</ele><time>2026-04-18T15:10:13Z</time></trkpt><trkpt lat="41.72853051055156" lon="13.639347421059467"><ele>355.33333333333337</ele><time>2026-04-18T15:10:14Z</time></trkpt><trkpt lat="41.72854406081705" lon="13.63908258877644"><ele>354.6666666666667</ele><time>2026-04-18T15:10:15Z</time></trkpt><trkpt lat="41.72851625397964" lon="13.638822971713155"><ele>354.0</ele><time>2026-04-18T15:10:16Z</time></trkpt><trkpt lat="41.728482772885926" lon="13.638558820272062"><ele>354.0</ele><time>2026-04-18T15:10:17Z</time></trkpt><trkpt lat="41.72843965891323" lon="13.638294232614811"><ele>354.0</ele><time>2026-04-18T15:10:18Z</time></trkpt><trkpt lat="41.72839482189665" lon="13.638024916319235"><ele>354.0</ele><time>2026-04-18T15:10:19Z</time></trkpt><trkpt lat="41.72830268365007" lon="13.63777782836369"><ele>355.0</ele><time>2026-04-18T15:10:20Z</time></trkpt><trkpt lat="41.72822417115632" lon="13.637521845435678"><ele>356.0</ele><time>2026-04-18T15:10:21Z</time></trkpt><trkpt lat="41.72810077300131" lon="13.637292776496112"><ele>357.0</ele><time>2026-04-18T15:10:22Z</time></trkpt><trkpt lat="41.72799897885517" lon="13.637035959269028"><ele>358.0</ele><time>2026-04-18T15:10:22.999Z</time></trkpt><trkpt lat="41.72788321227884" lon="13.636788145076817"><ele>359.0</ele><time>2026-04-18T15:10:23.999Z</time></trkpt><trkpt lat="41.727781605619995" lon="13.636529113347331"><ele>360.0</ele><time>2026-04-18T15:10:24.999Z</time></trkpt><trkpt lat="41.72769321951637" lon="13.636259461602357"><ele>351.6666666666667</ele><time>2026-04-18T15:10:25.999Z</time></trkpt><trkpt lat="41.7276174393069" lon="13.635981996778295"><ele>343.33333333333337</ele><time>2026-04-18T15:10:26.999Z</time></trkpt><trkpt lat="41.72756908501662" lon="13.635692492802104"><ele>335.0</ele><time>2026-04-18T15:10:27.999Z</time></trkpt><trkpt lat="41.727553457564134" lon="13.635411109781632"><ele>334.33333333333337</ele><time>2026-04-18T15:10:28.999Z</time></trkpt><trkpt lat="41.72753599537975" lon="13.635140278454207"><ele>333.6666666666667</ele><time>2026-04-18T15:10:29.999Z</time></trkpt><trkpt lat="41.727529130166396" lon="13.6348650745117"><ele>333.0</ele><time>2026-04-18T15:10:30.999Z</time></trkpt><trkpt lat="41.72751758960272" lon="13.634597724241427"><ele>332.3333333333333</ele><time>2026-04-18T15:10:31.999Z</time></trkpt><trkpt lat="41.72749040116484" lon="13.634335641643405"><ele>331.66666666666663</ele><time>2026-04-18T15:10:32.999Z</time></trkpt><trkpt lat="41.72747846878882" lon="13.634081871116404"><ele>331.0</ele><time>2026-04-18T15:10:33.999Z</time></trkpt><trkpt lat="41.72746777977334" lon="13.633835404267629"><ele>328.66666666666663</ele><time>2026-04-18T15:10:34.999Z</time></trkpt><trkpt lat="41.727456382816" lon="13.633601415245016"><ele>326.3333333333333</ele><time>2026-04-18T15:10:35.999Z</time></trkpt><trkpt lat="41.72746147330056" lon="13.633376426708496"><ele>324.0</ele><time>2026-04-18T15:10:36.999Z</time></trkpt><trkpt lat="41.72744941257458" lon="13.633164362358164"><ele>324.0</ele><time>2026-04-18T15:10:37.999Z</time></trkpt><trkpt lat="41.727437093955146" lon="13.632959761833414"><ele>324.0</ele><time>2026-04-18T15:10:38.999Z</time></trkpt><trkpt lat="41.72742476121925" lon="13.632759307059178"><ele>324.0</ele><time>2026-04-18T15:10:39.999Z</time></trkpt><trkpt lat="41.72741234321793" lon="13.632559829953808"><ele>324.0</ele><time>2026-04-18T15:10:40.999Z</time></trkpt><trkpt lat="41.72740138322075" lon="13.63235824307552"><ele>324.0</ele><time>2026-04-18T15:10:41.999Z</time></trkpt><trkpt lat="41.727388079441305" lon="13.632154836173862"><ele>324.0</ele><time>2026-04-18T15:10:42.999Z</time></trkpt><trkpt lat="41.7273777694831" lon="13.631949370001275"><ele>323.6666666666667</ele><time>2026-04-18T15:10:43.999Z</time></trkpt><trkpt lat="41.72737210346257" lon="13.631739230118425"><ele>323.33333333333337</ele><time>2026-04-18T15:10:44.999Z</time></trkpt><trkpt lat="41.727367918013975" lon="13.63153146318689"><ele>323.0</ele><time>2026-04-18T15:10:45.999Z</time></trkpt><trkpt lat="41.727369073818906" lon="13.631323726937154"><ele>322.33333333333337</ele><time>2026-04-18T15:10:46.999Z</time></trkpt><trkpt lat="41.72736762202114" lon="13.631115066244009"><ele>321.6666666666667</ele><time>2026-04-18T15:10:47.999Z</time></trkpt><trkpt lat="41.72736337816837" lon="13.630908521561224"><ele>321.0</ele><time>2026-04-18T15:10:49Z</time></trkpt><trkpt lat="41.727361413294965" lon="13.63070315902356"><ele>321.0</ele><time>2026-04-18T15:10:50Z</time></trkpt><trkpt lat="41.727354108468745" lon="13.630489448986308"><ele>321.0</ele><time>2026-04-18T15:10:51Z</time></trkpt><trkpt lat="41.727338788849806" lon="13.630277227066276"><ele>321.0</ele><time>2026-04-18T15:10:52Z</time></trkpt><trkpt lat="41.727315756553345" lon="13.630065164660905"><ele>320.0</ele><time>2026-04-18T15:10:53Z</time></trkpt><trkpt lat="41.7272771359033" lon="13.629856311705518"><ele>319.0</ele><time>2026-04-18T15:10:54Z</time></trkpt><trkpt lat="41.727226621205816" lon="13.629648380565923"><ele>318.0</ele><time>2026-04-18T15:10:55Z</time></trkpt><trkpt lat="41.7271703201956" lon="13.629434224505196"><ele>318.0</ele><time>2026-04-18T15:10:56Z</time></trkpt><trkpt lat="41.72711626798585" lon="13.629221387545524"><ele>318.0</ele><time>2026-04-18T15:10:57Z</time></trkpt><trkpt lat="41.727053837685624" lon="13.629002893055201"><ele>318.0</ele><time>2026-04-18T15:10:58Z</time></trkpt><trkpt lat="41.72698922801674" lon="13.628775114878264"><ele>319.3333333333333</ele><time>2026-04-18T15:10:59Z</time></trkpt><trkpt lat="41.726930428638596" lon="13.62853945243178"><ele>320.66666666666663</ele><time>2026-04-18T15:11:00Z</time></trkpt><trkpt lat="41.72687073106136" lon="13.628300320881873"><ele>322.0</ele><time>2026-04-18T15:11:01Z</time></trkpt><trkpt lat="41.72681961967566" lon="13.628055671308141"><ele>316.0</ele><time>2026-04-18T15:11:02Z</time></trkpt><trkpt lat="41.72677913422384" lon="13.627807503182538"><ele>310.0</ele><time>2026-04-18T15:11:03Z</time></trkpt><trkpt lat="41.726749165088584" lon="13.627548292231609"><ele>304.0</ele><time>2026-04-18T15:11:04Z</time></trkpt><trkpt lat="41.72672669550659" lon="13.62728188836999"><ele>304.0</ele><time>2026-04-18T15:11:05Z</time></trkpt><trkpt lat="41.72671133433591" lon="13.62701232160227"><ele>304.0</ele><time>2026-04-18T15:11:06Z</time></trkpt><trkpt lat="41.72670671421395" lon="13.626740179135552"><ele>304.0</ele><time>2026-04-18T15:11:07Z</time></trkpt><trkpt lat="41.72670499056057" lon="13.626479173183485"><ele>300.3333333333333</ele><time>2026-04-18T15:11:08Z</time></trkpt><trkpt lat="41.72670118975269" lon="13.62623215198183"><ele>296.6666666666667</ele><time>2026-04-18T15:11:09Z</time></trkpt><trkpt lat="41.72669747393652" lon="13.626003368320264"><ele>293.0</ele><time>2026-04-18T15:11:10Z</time></trkpt><trkpt lat="41.72669214373161" lon="13.625794025609776"><ele>291.75</ele><time>2026-04-18T15:11:11Z</time></trkpt><trkpt lat="41.72668773700291" lon="13.625595291936627"><ele>290.5</ele><time>2026-04-18T15:11:12Z</time></trkpt><trkpt lat="41.726681932440634" lon="13.625409443214027"><ele>289.25</ele><time>2026-04-18T15:11:13Z</time></trkpt><trkpt lat="41.72667797841214" lon="13.625237179749695"><ele>288.0</ele><time>2026-04-18T15:11:14Z</time></trkpt><trkpt lat="41.7266732381081" lon="13.625077751739811"><ele>288.0</ele><time>2026-04-18T15:11:15Z</time></trkpt><trkpt lat="41.726667478777216" lon="13.624927816365132"><ele>288.0</ele><time>2026-04-18T15:11:16Z</time></trkpt><trkpt lat="41.72666317864302" lon="13.624786637972235"><ele>288.0</ele><time>2026-04-18T15:11:17Z</time></trkpt><trkpt lat="41.72665824500412" lon="13.624657052046539"><ele>288.0</ele><time>2026-04-18T15:11:18Z</time></trkpt><trkpt lat="41.726653423208624" lon="13.624535285626695"><ele>288.0</ele><time>2026-04-18T15:11:19Z</time></trkpt><trkpt lat="41.72664948152119" lon="13.624421774030061"><ele>288.0</ele><time>2026-04-18T15:11:20Z</time></trkpt><trkpt lat="41.72664896879725" lon="13.624317791024307"><ele>288.0</ele><time>2026-04-18T15:11:21Z</time></trkpt><trkpt lat="41.72665223560479" lon="13.624222983108266"><ele>288.0</ele><time>2026-04-18T15:11:22Z</time></trkpt><trkpt lat="41.72666155315061" lon="13.624090322077427"><ele>288.0</ele><time>2026-04-18T15:11:24Z</time></trkpt><trkpt lat="41.72667669869154" lon="13.623957323800491"><ele>288.0</ele><time>2026-04-18T15:11:26Z</time></trkpt><trkpt lat="41.72668513472776" lon="13.62385579059485"><ele>288.0</ele><time>2026-04-18T15:11:28Z</time></trkpt><trkpt lat="41.72667982871737" lon="13.623769080448588"><ele>288.0</ele><time>2026-04-18T15:11:32Z</time></trkpt><trkpt lat="41.726658891764416" lon="13.623676098057734"><ele>288.0</ele><time>2026-04-18T15:11:34Z</time></trkpt><trkpt lat="41.726580937202904" lon="13.623626106854294"><ele>288.0</ele><time>2026-04-18T15:11:35Z</time></trkpt><trkpt lat="41.72648551304304" lon="13.623589316900814"><ele>288.0</ele><time>2026-04-18T15:11:36Z</time></trkpt><trkpt lat="41.72639018529215" lon="13.623551076118332"><ele>288.0</ele><time>2026-04-18T15:11:37Z</time></trkpt><trkpt lat="41.726286666704745" lon="13.623509178127154"><ele>288.0</ele><time>2026-04-18T15:11:38Z</time></trkpt><trkpt lat="41.72618430471877" lon="13.623463204690204"><ele>288.0</ele><time>2026-04-18T15:11:39Z</time></trkpt><trkpt lat="41.726083822535905" lon="13.623417941883295"><ele>288.0</ele><time>2026-04-18T15:11:40Z</time></trkpt><trkpt lat="41.725986540380575" lon="13.62337319939137"><ele>288.0</ele><time>2026-04-18T15:11:41Z</time></trkpt><trkpt lat="41.72589760194567" lon="13.62333074916202"><ele>288.0</ele><time>2026-04-18T15:11:42Z</time></trkpt><trkpt lat="41.72582098720644" lon="13.623299672794923"><ele>288.0</ele><time>2026-04-18T15:11:43Z</time></trkpt><trkpt lat="41.725756435574176" lon="13.623271993859857"><ele>288.0</ele><time>2026-04-18T15:11:44Z</time></trkpt><trkpt lat="41.72566881489748" lon="13.623233928488714"><ele>288.0</ele><time>2026-04-18T15:11:46Z</time></trkpt><trkpt lat="41.72560064243879" lon="13.623201032653705"><ele>288.0</ele><time>2026-04-18T15:11:49Z</time></trkpt><trkpt lat="41.72551330428078" lon="13.623197110759083"><ele>288.0</ele><time>2026-04-18T15:11:53Z</time></trkpt><trkpt lat="41.72547615931315" lon="13.623288373032658"><ele>288.0</ele><time>2026-04-18T15:11:56Z</time></trkpt><trkpt lat="41.72542135906532" lon="13.623341303775291"><ele>288.0</ele><time>2026-04-18T15:12:00Z</time></trkpt><trkpt lat="41.72545150841044" lon="13.623264041466761"><ele>288.0</ele><time>2026-04-18T15:13:28Z</time></trkpt><trkpt lat="41.72538868169417" lon="13.623238696107434"><ele>288.0</ele><time>2026-04-18T15:13:38Z</time></trkpt><trkpt lat="41.725342101944335" lon="13.623157320157064"><ele>288.0</ele><time>2026-04-18T15:14:32.999Z</time></trkpt><trkpt lat="41.725280165814475" lon="13.623052899098468"><ele>288.0</ele><time>2026-04-18T15:14:36.999Z</time></trkpt><trkpt lat="41.72510686403396" lon="13.622893492541374"><ele>288.0</ele><time>2026-04-18T15:14:45.999Z</time></trkpt><trkpt lat="41.72500711270241" lon="13.622841237683765"><ele>288.0</ele><time>2026-04-18T15:14:46.999Z</time></trkpt><trkpt lat="41.72492627631954" lon="13.622803776092466"><ele>288.0</ele><time>2026-04-18T15:14:47.999Z</time></trkpt><trkpt lat="41.72484466483748" lon="13.622790344511966"><ele>288.0</ele><time>2026-04-18T15:14:48.999Z</time></trkpt><trkpt lat="41.72477348465446" lon="13.622737105169916"><ele>288.0</ele><time>2026-04-18T15:14:49.999Z</time></trkpt><trkpt lat="41.72470977465024" lon="13.622713701179643"><ele>288.0</ele><time>2026-04-18T15:14:50.999Z</time></trkpt><trkpt lat="41.7246127195928" lon="13.62268662446155"><ele>288.0</ele><time>2026-04-18T15:14:52.999Z</time></trkpt><trkpt lat="41.72454046771724" lon="13.622653319285961"><ele>288.0</ele><time>2026-04-18T15:14:55.999Z</time></trkpt><trkpt lat="41.7244598186193" lon="13.6226203263761"><ele>288.0</ele><time>2026-04-18T15:14:58.999Z</time></trkpt><trkpt lat="41.72436654781244" lon="13.622574248054166"><ele>288.0</ele><time>2026-04-18T15:15:02Z</time></trkpt><trkpt lat="41.724298160596376" lon="13.622539915742378"><ele>288.0</ele><time>2026-04-18T15:15:04Z</time></trkpt><trkpt lat="41.72421785734412" lon="13.622510423276932"><ele>288.0</ele><time>2026-04-18T15:15:07Z</time></trkpt><trkpt lat="41.724123267796095" lon="13.622463579688164"><ele>288.0</ele><time>2026-04-18T15:15:10Z</time></trkpt><trkpt lat="41.724042245698776" lon="13.622422478611115"><ele>288.0</ele><time>2026-04-18T15:15:12Z</time></trkpt><trkpt lat="41.72396180733913" lon="13.622380670748727"><ele>288.0</ele><time>2026-04-18T15:15:14Z</time></trkpt><trkpt lat="41.72390090407731" lon="13.622351400445304"><ele>288.0</ele><time>2026-04-18T15:15:15Z</time></trkpt><trkpt lat="41.72381913436383" lon="13.622315542403896"><ele>288.0</ele><time>2026-04-18T15:15:16Z</time></trkpt><trkpt lat="41.72372223834159" lon="13.622273045602721"><ele>288.0</ele><time>2026-04-18T15:15:17Z</time></trkpt><trkpt lat="41.72360940623909" lon="13.622215909564122"><ele>287.75</ele><time>2026-04-18T15:15:18Z</time></trkpt><trkpt lat="41.723498146011835" lon="13.622149616403751"><ele>287.5</ele><time>2026-04-18T15:15:19Z</time></trkpt><trkpt lat="41.72339151790107" lon="13.622094053329148"><ele>287.25</ele><time>2026-04-18T15:15:20Z</time></trkpt><trkpt lat="41.723284172269054" lon="13.622037890962394"><ele>287.0</ele><time>2026-04-18T15:15:21Z</time></trkpt><trkpt lat="41.72317845486233" lon="13.621982401115135"><ele>286.75</ele><time>2026-04-18T15:15:22Z</time></trkpt><trkpt lat="41.7230634353359" lon="13.621924520036934"><ele>286.5</ele><time>2026-04-18T15:15:23Z</time></trkpt><trkpt lat="41.722943354502846" lon="13.621863774364915"><ele>286.25</ele><time>2026-04-18T15:15:24Z</time></trkpt><trkpt lat="41.72281000140572" lon="13.621797616648712"><ele>286.0</ele><time>2026-04-18T15:15:25Z</time></trkpt><trkpt lat="41.722656296131944" lon="13.62172527645795"><ele>286.0</ele><time>2026-04-18T15:15:26Z</time></trkpt><trkpt lat="41.72249668456174" lon="13.621643814328015"><ele>286.0</ele><time>2026-04-18T15:15:27Z</time></trkpt><trkpt lat="41.72233797416951" lon="13.621556020001535"><ele>286.0</ele><time>2026-04-18T15:15:28Z</time></trkpt><trkpt lat="41.72217749380048" lon="13.621469860258397"><ele>286.0</ele><time>2026-04-18T15:15:29Z</time></trkpt><trkpt lat="41.7220259041416" lon="13.621385850347567"><ele>286.0</ele><time>2026-04-18T15:15:30Z</time></trkpt><trkpt lat="41.721882546960494" lon="13.621298116044176"><ele>286.0</ele><time>2026-04-18T15:15:31Z</time></trkpt><trkpt lat="41.72174782228136" lon="13.621210651561148"><ele>286.2</ele><time>2026-04-18T15:15:32Z</time></trkpt><trkpt lat="41.721638004962124" lon="13.621125996799751"><ele>286.40000000000003</ele><time>2026-04-18T15:15:33Z</time></trkpt><trkpt lat="41.72153967820434" lon="13.621052750881072"><ele>286.6</ele><time>2026-04-18T15:15:34Z</time></trkpt><trkpt lat="41.72144964395956" lon="13.62098779770118"><ele>286.8</ele><time>2026-04-18T15:15:35Z</time></trkpt><trkpt lat="41.72136858797013" lon="13.620926830188028"><ele>287.0</ele><time>2026-04-18T15:15:36Z</time></trkpt><trkpt lat="41.72127920940277" lon="13.620862091535711"><ele>287.0</ele><time>2026-04-18T15:15:37Z</time></trkpt><trkpt lat="41.72118263268316" lon="13.620790677917805"><ele>287.0</ele><time>2026-04-18T15:15:38Z</time></trkpt><trkpt lat="41.721086853061536" lon="13.620716340395063"><ele>287.0</ele><time>2026-04-18T15:15:39Z</time></trkpt><trkpt lat="41.720993627374945" lon="13.620644246262705"><ele>287.0</ele><time>2026-04-18T15:15:40Z</time></trkpt><trkpt lat="41.72090143547493" lon="13.620564533711898"><ele>287.0</ele><time>2026-04-18T15:15:41Z</time></trkpt><trkpt lat="41.720811676316664" lon="13.62047778420909"><ele>287.0</ele><time>2026-04-18T15:15:42Z</time></trkpt><trkpt lat="41.720726904661305" lon="13.620397551264194"><ele>287.0</ele><time>2026-04-18T15:15:43Z</time></trkpt><trkpt lat="41.72065461493705" lon="13.620323678868175"><ele>287.0</ele><time>2026-04-18T15:15:44Z</time></trkpt><trkpt lat="41.72058882017694" lon="13.620250387898873"><ele>287.0</ele><time>2026-04-18T15:15:45Z</time></trkpt><trkpt lat="41.72052516336869" lon="13.620172429871646"><ele>287.0</ele><time>2026-04-18T15:15:46Z</time></trkpt><trkpt lat="41.72045715038824" lon="13.620084528362282"><ele>287.0</ele><time>2026-04-18T15:15:47Z</time></trkpt><trkpt lat="41.72038423285935" lon="13.619984741400616"><ele>287.0</ele><time>2026-04-18T15:15:48Z</time></trkpt><trkpt lat="41.7203111988628" lon="13.619876819533273"><ele>287.0</ele><time>2026-04-18T15:15:49Z</time></trkpt><trkpt lat="41.72022887155314" lon="13.619753668810759"><ele>287.0</ele><time>2026-04-18T15:15:50Z</time></trkpt><trkpt lat="41.720170081050476" lon="13.61960785904045"><ele>287.0</ele><time>2026-04-18T15:15:51Z</time></trkpt><trkpt lat="41.7200882264284" lon="13.619484691516492"><ele>287.0</ele><time>2026-04-18T15:15:52Z</time></trkpt><trkpt lat="41.720030850165394" lon="13.619366066024583"><ele>287.0</ele><time>2026-04-18T15:15:53Z</time></trkpt><trkpt lat="41.71998412036983" lon="13.6192570468564"><ele>287.0</ele><time>2026-04-18T15:15:54Z</time></trkpt><trkpt lat="41.71994620314584" lon="13.61915194127524"><ele>287.0</ele><time>2026-04-18T15:15:55Z</time></trkpt><trkpt lat="41.71991320457977" lon="13.619043217112452"><ele>287.0</ele><time>2026-04-18T15:15:56Z</time></trkpt><trkpt lat="41.71988243219828" lon="13.61892437709082"><ele>287.0</ele><time>2026-04-18T15:15:57Z</time></trkpt><trkpt lat="41.719863825947" lon="13.618805312802257"><ele>287.0</ele><time>2026-04-18T15:15:58Z</time></trkpt><trkpt lat="41.719881271958904" lon="13.618688846287224"><ele>287.0</ele><time>2026-04-18T15:15:59Z</time></trkpt><trkpt lat="41.71989017888767" lon="13.618576372666958"><ele>287.0</ele><time>2026-04-18T15:16:00Z</time></trkpt><trkpt lat="41.719905859587996" lon="13.618461540403162"><ele>287.0</ele><time>2026-04-18T15:16:01Z</time></trkpt><trkpt lat="41.719923824744676" lon="13.618359174044775"><ele>287.0</ele><time>2026-04-18T15:16:02Z</time></trkpt><trkpt lat="41.71994729296229" lon="13.61827406428269"><ele>287.0</ele><time>2026-04-18T15:16:03Z</time></trkpt><trkpt lat="41.720001237227095" lon="13.61814964458458"><ele>287.0</ele><time>2026-04-18T15:16:05Z</time></trkpt><trkpt lat="41.72004550138018" lon="13.618048456028392"><ele>287.0</ele><time>2026-04-18T15:16:07Z</time></trkpt><trkpt lat="41.72009965572092" lon="13.617934750151491"><ele>287.0</ele><time>2026-04-18T15:16:09Z</time></trkpt><trkpt lat="41.72015162015981" lon="13.617821650984139"><ele>287.0</ele><time>2026-04-18T15:16:11Z</time></trkpt><trkpt lat="41.72023157913386" lon="13.61769935233313"><ele>287.0</ele><time>2026-04-18T15:16:13Z</time></trkpt><trkpt lat="41.72028771901772" lon="13.617628105583075"><ele>287.0</ele><time>2026-04-18T15:16:14Z</time></trkpt><trkpt lat="41.72033846752242" lon="13.61756743791903"><ele>287.0</ele><time>2026-04-18T15:16:15Z</time></trkpt><trkpt lat="41.72039601289727" lon="13.617502343654946"><ele>287.0</ele><time>2026-04-18T15:16:16Z</time></trkpt><trkpt lat="41.72045206558521" lon="13.6174457729947"><ele>287.0</ele><time>2026-04-18T15:16:17Z</time></trkpt><trkpt lat="41.72050484302005" lon="13.617388522430376"><ele>287.0</ele><time>2026-04-18T15:16:18Z</time></trkpt><trkpt lat="41.7205672853097" lon="13.61732603429344"><ele>287.0</ele><time>2026-04-18T15:16:19Z</time></trkpt><trkpt lat="41.72063166683197" lon="13.617267861469584"><ele>287.0</ele><time>2026-04-18T15:16:20Z</time></trkpt><trkpt lat="41.72068541318231" lon="13.617215641456616"><ele>287.0</ele><time>2026-04-18T15:16:21Z</time></trkpt><trkpt lat="41.72076850593456" lon="13.617132722804461"><ele>287.0</ele><time>2026-04-18T15:16:23Z</time></trkpt><trkpt lat="41.720819224266144" lon="13.617049527966378"><ele>287.0</ele><time>2026-04-18T15:16:25.999Z</time></trkpt><trkpt lat="41.72081752393802" lon="13.616949099957187"><ele>287.0</ele><time>2026-04-18T15:16:27.999Z</time></trkpt><trkpt lat="41.72075210830768" lon="13.616830188401039"><ele>287.0</ele><time>2026-04-18T15:16:29.999Z</time></trkpt><trkpt lat="41.72071009858776" lon="13.616760282372951"><ele>287.0</ele><time>2026-04-18T15:16:30.999Z</time></trkpt><trkpt lat="41.72065580925312" lon="13.616672227110708"><ele>287.0</ele><time>2026-04-18T15:16:31.999Z</time></trkpt><trkpt lat="41.72058259494833" lon="13.616564721159806"><ele>287.0</ele><time>2026-04-18T15:16:32.999Z</time></trkpt><trkpt lat="41.72049948989128" lon="13.616439953808012"><ele>287.0</ele><time>2026-04-18T15:16:33.999Z</time></trkpt><trkpt lat="41.72041695779545" lon="13.616316464279404"><ele>287.0</ele><time>2026-04-18T15:16:34.999Z</time></trkpt><trkpt lat="41.72033409988693" lon="13.61619905590503"><ele>287.0</ele><time>2026-04-18T15:16:35.999Z</time></trkpt><trkpt lat="41.72026510978122" lon="13.616099621211482"><ele>287.0</ele><time>2026-04-18T15:16:36.999Z</time></trkpt><trkpt lat="41.72019852303371" lon="13.616014393484969"><ele>287.0</ele><time>2026-04-18T15:16:37.999Z</time></trkpt><trkpt lat="41.72013771122616" lon="13.615942058258769"><ele>286.8</ele><time>2026-04-18T15:16:38.999Z</time></trkpt><trkpt lat="41.720063284939734" lon="13.615853463869097"><ele>286.6</ele><time>2026-04-18T15:16:39.999Z</time></trkpt><trkpt lat="41.71997954433943" lon="13.615752213816025"><ele>286.40000000000003</ele><time>2026-04-18T15:16:40.999Z</time></trkpt><trkpt lat="41.7198984368601" lon="13.615649917923081"><ele>286.2</ele><time>2026-04-18T15:16:41.999Z</time></trkpt><trkpt lat="41.71981466428222" lon="13.615539424295468"><ele>286.0</ele><time>2026-04-18T15:16:42.999Z</time></trkpt><trkpt lat="41.719732020970866" lon="13.615424059378581"><ele>286.0</ele><time>2026-04-18T15:16:43.999Z</time></trkpt><trkpt lat="41.71964746158918" lon="13.615316963101671"><ele>286.0</ele><time>2026-04-18T15:16:44.999Z</time></trkpt><trkpt lat="41.7195682390895" lon="13.615215016267804"><ele>286.0</ele><time>2026-04-18T15:16:45.999Z</time></trkpt><trkpt lat="41.71949290958435" lon="13.61512536878489"><ele>286.0</ele><time>2026-04-18T15:16:46.999Z</time></trkpt><trkpt lat="41.71942475710973" lon="13.615042452205016"><ele>286.0</ele><time>2026-04-18T15:16:47.999Z</time></trkpt><trkpt lat="41.719358538816024" lon="13.614959892530383"><ele>285.66666666666663</ele><time>2026-04-18T15:16:48.999Z</time></trkpt><trkpt lat="41.719290828927335" lon="13.61488033496406"><ele>285.3333333333333</ele><time>2026-04-18T15:16:49.999Z</time></trkpt><trkpt lat="41.71922659587596" lon="13.6147999799029"><ele>285.0</ele><time>2026-04-18T15:16:50.999Z</time></trkpt><trkpt lat="41.719167528418225" lon="13.614725043004036"><ele>284.6666666666667</ele><time>2026-04-18T15:16:51.999Z</time></trkpt><trkpt lat="41.719104127541605" lon="13.614646326875105"><ele>284.33333333333337</ele><time>2026-04-18T15:16:52.999Z</time></trkpt><trkpt lat="41.7190415160945" lon="13.61456580797278"><ele>284.0</ele><time>2026-04-18T15:16:53.999Z</time></trkpt><trkpt lat="41.71898004707752" lon="13.614485152406544"><ele>283.83333333333337</ele><time>2026-04-18T15:16:54.999Z</time></trkpt><trkpt lat="41.71891645111361" lon="13.614406895573227"><ele>283.6666666666667</ele><time>2026-04-18T15:16:55.999Z</time></trkpt><trkpt lat="41.718852607261596" lon="13.614327045112212"><ele>283.5</ele><time>2026-04-18T15:16:56.999Z</time></trkpt><trkpt lat="41.718788602753335" lon="13.614246783935021"><ele>283.3333333333333</ele><time>2026-04-18T15:16:57.999Z</time></trkpt><trkpt lat="41.71873087427928" lon="13.614171628675505"><ele>283.16666666666663</ele><time>2026-04-18T15:16:58.999Z</time></trkpt><trkpt lat="41.718680765669205" lon="13.614107391836129"><ele>283.0</ele><time>2026-04-18T15:16:59.999Z</time></trkpt><trkpt lat="41.71861039544315" lon="13.614011866176172"><ele>283.0</ele><time>2026-04-18T15:17:01.999Z</time></trkpt><trkpt lat="41.718558507250144" lon="13.613925496437625"><ele>283.0</ele><time>2026-04-18T15:17:03.999Z</time></trkpt><trkpt lat="41.7184973762825" lon="13.61381873535962"><ele>283.0</ele><time>2026-04-18T15:17:06Z</time></trkpt><trkpt lat="41.71843477381217" lon="13.613715403067124"><ele>283.0</ele><time>2026-04-18T15:17:08Z</time></trkpt><trkpt lat="41.71839222852903" lon="13.613602270944677"><ele>283.0</ele><time>2026-04-18T15:17:10Z</time></trkpt><trkpt lat="41.71836476073251" lon="13.613476799716004"><ele>283.0</ele><time>2026-04-18T15:17:12Z</time></trkpt><trkpt lat="41.7183533924949" lon="13.613320827766865"><ele>283.0</ele><time>2026-04-18T15:17:14Z</time></trkpt><trkpt lat="41.718367163680405" lon="13.613173063604334"><ele>283.0</ele><time>2026-04-18T15:17:16Z</time></trkpt><trkpt lat="41.71838479257992" lon="13.613017430467464"><ele>283.0</ele><time>2026-04-18T15:17:18Z</time></trkpt><trkpt lat="41.71839315321269" lon="13.612932200154466"><ele>283.0</ele><time>2026-04-18T15:17:19Z</time></trkpt><trkpt lat="41.71839557870494" lon="13.612803927666183"><ele>282.8</ele><time>2026-04-18T15:17:21Z</time></trkpt><trkpt lat="41.71838725018457" lon="13.612688445773065"><ele>282.6</ele><time>2026-04-18T15:17:23Z</time></trkpt><trkpt lat="41.71836122317901" lon="13.61254046831374"><ele>282.4</ele><time>2026-04-18T15:17:25Z</time></trkpt><trkpt lat="41.71832269224138" lon="13.6124480218798"><ele>282.2</ele><time>2026-04-18T15:17:26Z</time></trkpt><trkpt lat="41.71828242088121" lon="13.612333109594635"><ele>282.0</ele><time>2026-04-18T15:17:27Z</time></trkpt><trkpt lat="41.7182311107372" lon="13.612237332646696"><ele>282.0</ele><time>2026-04-18T15:17:28Z</time></trkpt><trkpt lat="41.71818720649497" lon="13.612153863222822"><ele>282.0</ele><time>2026-04-18T15:17:29Z</time></trkpt><trkpt lat="41.71813647766782" lon="13.612101034155422"><ele>282.0</ele><time>2026-04-18T15:17:30Z</time></trkpt><trkpt lat="41.71805768376193" lon="13.611978033693163"><ele>282.0</ele><time>2026-04-18T15:17:32Z</time></trkpt><trkpt lat="41.71798844482385" lon="13.61186930946217"><ele>282.0</ele><time>2026-04-18T15:17:34Z</time></trkpt><trkpt lat="41.717916938018014" lon="13.611725099608318"><ele>282.2</ele><time>2026-04-18T15:17:36Z</time></trkpt><trkpt lat="41.71784083480587" lon="13.611639283161237"><ele>282.4</ele><time>2026-04-18T15:17:37Z</time></trkpt><trkpt lat="41.71777558189498" lon="13.611537701401845"><ele>282.6</ele><time>2026-04-18T15:17:38Z</time></trkpt><trkpt lat="41.7177178428984" lon="13.611447816352628"><ele>282.8</ele><time>2026-04-18T15:17:39Z</time></trkpt><trkpt lat="41.71766272554198" lon="13.611362013228407"><ele>283.0</ele><time>2026-04-18T15:17:40Z</time></trkpt><trkpt lat="41.71760433101091" lon="13.611271885491592"><ele>283.0</ele><time>2026-04-18T15:17:41Z</time></trkpt><trkpt lat="41.71754136584393" lon="13.611174720849547"><ele>283.0</ele><time>2026-04-18T15:17:42Z</time></trkpt><trkpt lat="41.71747597272178" lon="13.611073005699287"><ele>283.0</ele><time>2026-04-18T15:17:43Z</time></trkpt><trkpt lat="41.71741614173514" lon="13.610980032122738"><ele>283.0</ele><time>2026-04-18T15:17:44Z</time></trkpt><trkpt lat="41.71735564372911" lon="13.610886021671789"><ele>283.0</ele><time>2026-04-18T15:17:45Z</time></trkpt><trkpt lat="41.71729321786882" lon="13.610790669523304"><ele>283.16666666666663</ele><time>2026-04-18T15:17:46Z</time></trkpt><trkpt lat="41.7172301202452" lon="13.610695006539476"><ele>283.3333333333333</ele><time>2026-04-18T15:17:47Z</time></trkpt><trkpt lat="41.717164925524635" lon="13.610596163618462"><ele>283.5</ele><time>2026-04-18T15:17:48Z</time></trkpt><trkpt lat="41.71709961624853" lon="13.610497149263788"><ele>283.6666666666667</ele><time>2026-04-18T15:17:49Z</time></trkpt><trkpt lat="41.71704845776392" lon="13.610417980456122"><ele>283.83333333333337</ele><time>2026-04-18T15:17:50Z</time></trkpt><trkpt lat="41.71700651521998" lon="13.610353400939935"><ele>284.0</ele><time>2026-04-18T15:17:51Z</time></trkpt><trkpt lat="41.71695629529641" lon="13.610276091417797"><ele>284.0</ele><time>2026-04-18T15:17:52Z</time></trkpt><trkpt lat="41.71690902006333" lon="13.610200290231388"><ele>284.0</ele><time>2026-04-18T15:17:53Z</time></trkpt><trkpt lat="41.716856750471926" lon="13.610116480908653"><ele>284.0</ele><time>2026-04-18T15:17:54Z</time></trkpt><trkpt lat="41.716800680083715" lon="13.610026577526845"><ele>284.0</ele><time>2026-04-18T15:17:55Z</time></trkpt><trkpt lat="41.71673959707556" lon="13.609928636794718"><ele>284.0</ele><time>2026-04-18T15:17:56Z</time></trkpt><trkpt lat="41.716677154625955" lon="13.60983012705556"><ele>284.0</ele><time>2026-04-18T15:17:57Z</time></trkpt><trkpt lat="41.71661311373292" lon="13.609729507171851"><ele>284.0</ele><time>2026-04-18T15:17:58Z</time></trkpt><trkpt lat="41.716548515872724" lon="13.609628606315141"><ele>284.0</ele><time>2026-04-18T15:17:59Z</time></trkpt><trkpt lat="41.716481791371336" lon="13.609524436658484"><ele>284.0</ele><time>2026-04-18T15:18:00Z</time></trkpt><trkpt lat="41.716418093211836" lon="13.609425932892064"><ele>284.0</ele><time>2026-04-18T15:18:01Z</time></trkpt><trkpt lat="41.71634920237412" lon="13.609319399144061"><ele>284.0</ele><time>2026-04-18T15:18:02Z</time></trkpt><trkpt lat="41.716275854849854" lon="13.60920597351612"><ele>284.0</ele><time>2026-04-18T15:18:03Z</time></trkpt><trkpt lat="41.71619751121723" lon="13.60908295974889"><ele>284.0</ele><time>2026-04-18T15:18:04Z</time></trkpt><trkpt lat="41.71611158726197" lon="13.608947401397753"><ele>284.0</ele><time>2026-04-18T15:18:05Z</time></trkpt><trkpt lat="41.71602248657903" lon="13.608806830976972"><ele>284.0</ele><time>2026-04-18T15:18:06Z</time></trkpt><trkpt lat="41.71593904253107" lon="13.608674186794836"><ele>283.75</ele><time>2026-04-18T15:18:07Z</time></trkpt><trkpt lat="41.715857952917766" lon="13.608545718072623"><ele>283.5</ele><time>2026-04-18T15:18:08Z</time></trkpt><trkpt lat="41.71577510565103" lon="13.608414464615697"><ele>283.25</ele><time>2026-04-18T15:18:09Z</time></trkpt><trkpt lat="41.71569845787437" lon="13.6082925502635"><ele>283.0</ele><time>2026-04-18T15:18:10Z</time></trkpt><trkpt lat="41.715632292918876" lon="13.608187285593065"><ele>283.0</ele><time>2026-04-18T15:18:11Z</time></trkpt><trkpt lat="41.715572345246215" lon="13.60809419110766"><ele>283.0</ele><time>2026-04-18T15:18:12Z</time></trkpt><trkpt lat="41.715516793513316" lon="13.608007119836126"><ele>283.0</ele><time>2026-04-18T15:18:13Z</time></trkpt><trkpt lat="41.71545737422947" lon="13.607913985729192"><ele>283.0</ele><time>2026-04-18T15:18:14Z</time></trkpt><trkpt lat="41.71539630449882" lon="13.6078181185156"><ele>283.0</ele><time>2026-04-18T15:18:15Z</time></trkpt><trkpt lat="41.71533354970017" lon="13.60771966044741"><ele>283.0</ele><time>2026-04-18T15:18:16Z</time></trkpt><trkpt lat="41.71527436395786" lon="13.607626801952321"><ele>283.0</ele><time>2026-04-18T15:18:17Z</time></trkpt><trkpt lat="41.715214211382815" lon="13.607532426206504"><ele>283.0</ele><time>2026-04-18T15:18:18Z</time></trkpt><trkpt lat="41.71515684753828" lon="13.607443208844428"><ele>283.0</ele><time>2026-04-18T15:18:19Z</time></trkpt><trkpt lat="41.71510570782769" lon="13.60736352901549"><ele>283.0</ele><time>2026-04-18T15:18:20Z</time></trkpt><trkpt lat="41.71505702142072" lon="13.607287671596426"><ele>283.0</ele><time>2026-04-18T15:18:21Z</time></trkpt><trkpt lat="41.71499688040374" lon="13.607188789767857"><ele>283.0</ele><time>2026-04-18T15:18:22Z</time></trkpt><trkpt lat="41.71492232637504" lon="13.607077412140653"><ele>283.0</ele><time>2026-04-18T15:18:23Z</time></trkpt><trkpt lat="41.71483746335472" lon="13.606946218058944"><ele>283.0</ele><time>2026-04-18T15:18:24Z</time></trkpt><trkpt lat="41.71475035474785" lon="13.606811551728779"><ele>283.0</ele><time>2026-04-18T15:18:25Z</time></trkpt><trkpt lat="41.714670689741844" lon="13.606685866627098"><ele>283.0</ele><time>2026-04-18T15:18:26Z</time></trkpt><trkpt lat="41.714604210621005" lon="13.6065814690706"><ele>283.0</ele><time>2026-04-18T15:18:26.999Z</time></trkpt><trkpt lat="41.71454355104712" lon="13.606489446098866"><ele>283.0</ele><time>2026-04-18T15:18:27.999Z</time></trkpt><trkpt lat="41.71447819418965" lon="13.606387719006534"><ele>283.0</ele><time>2026-04-18T15:18:28.999Z</time></trkpt><trkpt lat="41.71440242033767" lon="13.606267613289583"><ele>283.0</ele><time>2026-04-18T15:18:29.999Z</time></trkpt><trkpt lat="41.714334387043706" lon="13.60616027014729"><ele>283.4</ele><time>2026-04-18T15:18:30.999Z</time></trkpt><trkpt lat="41.71426755619336" lon="13.606055320446554"><ele>283.8</ele><time>2026-04-18T15:18:31.999Z</time></trkpt><trkpt lat="41.71420073000689" lon="13.605950775325477"><ele>284.2</ele><time>2026-04-18T15:18:32.999Z</time></trkpt><trkpt lat="41.71413229696152" lon="13.6058437156811"><ele>284.6</ele><time>2026-04-18T15:18:33.999Z</time></trkpt><trkpt lat="41.71405798196646" lon="13.605729610056805"><ele>285.0</ele><time>2026-04-18T15:18:34.999Z</time></trkpt><trkpt lat="41.71397945501723" lon="13.605608493989294"><ele>285.0</ele><time>2026-04-18T15:18:35.999Z</time></trkpt><trkpt lat="41.71390058271936" lon="13.60548653377497"><ele>285.0</ele><time>2026-04-18T15:18:36.999Z</time></trkpt><trkpt lat="41.71382200769653" lon="13.605367804492856"><ele>285.0</ele><time>2026-04-18T15:18:37.999Z</time></trkpt><trkpt lat="41.713750727970826" lon="13.60526161100997"><ele>285.0</ele><time>2026-04-18T15:18:38.999Z</time></trkpt><trkpt lat="41.71371384304207" lon="13.605128089301235"><ele>284.6</ele><time>2026-04-18T15:18:39.999Z</time></trkpt><trkpt lat="41.71364267825958" lon="13.605020435208097"><ele>284.2</ele><time>2026-04-18T15:18:40.999Z</time></trkpt><trkpt lat="41.71356682674175" lon="13.604906899212013"><ele>283.8</ele><time>2026-04-18T15:18:41.999Z</time></trkpt><trkpt lat="41.713491219512505" lon="13.604787707140504"><ele>283.4</ele><time>2026-04-18T15:18:42.999Z</time></trkpt><trkpt lat="41.713419173556616" lon="13.604673491789972"><ele>283.0</ele><time>2026-04-18T15:18:43.999Z</time></trkpt><trkpt lat="41.71332131971742" lon="13.604606525559996"><ele>282.8</ele><time>2026-04-18T15:18:44.999Z</time></trkpt><trkpt lat="41.713262399646545" lon="13.604513713010652"><ele>282.6</ele><time>2026-04-18T15:18:45.999Z</time></trkpt><trkpt lat="41.71320427731739" lon="13.604422091340032"><ele>282.4</ele><time>2026-04-18T15:18:46.999Z</time></trkpt><trkpt lat="41.713159910635326" lon="13.604352153465193"><ele>282.2</ele><time>2026-04-18T15:18:47.999Z</time></trkpt><trkpt lat="41.713085662170364" lon="13.604238350175544"><ele>282.0</ele><time>2026-04-18T15:18:49.999Z</time></trkpt><trkpt lat="41.713019827513236" lon="13.604136947910462"><ele>281.8333333333333</ele><time>2026-04-18T15:18:51.999Z</time></trkpt><trkpt lat="41.71295636152915" lon="13.604038386893134"><ele>281.6666666666667</ele><time>2026-04-18T15:18:53.999Z</time></trkpt><trkpt lat="41.712912080927026" lon="13.60397013256342"><ele>281.5</ele><time>2026-04-18T15:18:54.999Z</time></trkpt><trkpt lat="41.71286197088054" lon="13.603892892346687"><ele>281.33333333333337</ele><time>2026-04-18T15:18:55.999Z</time></trkpt><trkpt lat="41.71281120681537" lon="13.603814647597416"><ele>281.1666666666667</ele><time>2026-04-18T15:18:56.999Z</time></trkpt><trkpt lat="41.7127581295284" lon="13.60373067346068"><ele>281.0</ele><time>2026-04-18T15:18:57.999Z</time></trkpt><trkpt lat="41.71271067289937" lon="13.603656358775547"><ele>280.83333333333337</ele><time>2026-04-18T15:18:58.999Z</time></trkpt><trkpt lat="41.71266151632734" lon="13.603580070317738"><ele>280.6666666666667</ele><time>2026-04-18T15:18:59.999Z</time></trkpt><trkpt lat="41.71260801129858" lon="13.603496845326097"><ele>280.5</ele><time>2026-04-18T15:19:00.999Z</time></trkpt><trkpt lat="41.71259547324936" lon="13.603391068071296"><ele>280.3333333333333</ele><time>2026-04-18T15:19:01.999Z</time></trkpt><trkpt lat="41.71254921925547" lon="13.603317434660068"><ele>280.16666666666663</ele><time>2026-04-18T15:19:02.999Z</time></trkpt><trkpt lat="41.71250614914366" lon="13.603244211521979"><ele>280.0</ele><time>2026-04-18T15:19:03.999Z</time></trkpt><trkpt lat="41.71246036829641" lon="13.603171304467965"><ele>280.0</ele><time>2026-04-18T15:19:04.999Z</time></trkpt><trkpt lat="41.71241725387019" lon="13.603104123353711"><ele>280.0</ele><time>2026-04-18T15:19:05.999Z</time></trkpt><trkpt lat="41.71233467231159" lon="13.603069245643269"><ele>280.0</ele><time>2026-04-18T15:19:07.999Z</time></trkpt><trkpt lat="41.71228445443212" lon="13.602992699914605"><ele>280.0</ele><time>2026-04-18T15:19:14Z</time></trkpt><trkpt lat="41.71220049026703" lon="13.602858591770634"><ele>280.0</ele><time>2026-04-18T15:19:16Z</time></trkpt><trkpt lat="41.712148481996806" lon="13.60277884507699"><ele>280.0</ele><time>2026-04-18T15:19:17Z</time></trkpt><trkpt lat="41.71212845545029" lon="13.602647234635418"><ele>280.0</ele><time>2026-04-18T15:19:18Z</time></trkpt><trkpt lat="41.712057892792586" lon="13.602541224106645"><ele>280.0</ele><time>2026-04-18T15:19:19Z</time></trkpt><trkpt lat="41.71198484702905" lon="13.60242928257848"><ele>280.0</ele><time>2026-04-18T15:19:20Z</time></trkpt><trkpt lat="41.71190420541374" lon="13.602305965960877"><ele>280.0</ele><time>2026-04-18T15:19:21Z</time></trkpt><trkpt lat="41.71182238828579" lon="13.602172786038267"><ele>280.0</ele><time>2026-04-18T15:19:22Z</time></trkpt><trkpt lat="41.71174691905101" lon="13.602050546217004"><ele>280.0</ele><time>2026-04-18T15:19:23Z</time></trkpt><trkpt lat="41.711679334926366" lon="13.601942640035775"><ele>280.0</ele><time>2026-04-18T15:19:24Z</time></trkpt><trkpt lat="41.71162394173664" lon="13.601847877017828"><ele>280.0</ele><time>2026-04-18T15:19:25Z</time></trkpt><trkpt lat="41.71157378774878" lon="13.601765356449995"><ele>280.0</ele><time>2026-04-18T15:19:26Z</time></trkpt><trkpt lat="41.711488209118315" lon="13.601748111114773"><ele>279.8</ele><time>2026-04-18T15:19:27Z</time></trkpt><trkpt lat="41.711412682759516" lon="13.60163056841175"><ele>279.6</ele><time>2026-04-18T15:19:29Z</time></trkpt><trkpt lat="41.71136046891596" lon="13.601549306913471"><ele>279.4</ele><time>2026-04-18T15:19:30Z</time></trkpt><trkpt lat="41.711290471136046" lon="13.601437885597754"><ele>279.2</ele><time>2026-04-18T15:19:31Z</time></trkpt><trkpt lat="41.71120964415954" lon="13.601309725936487"><ele>279.0</ele><time>2026-04-18T15:19:32Z</time></trkpt><trkpt lat="41.711128250644634" lon="13.601182777210296"><ele>279.0</ele><time>2026-04-18T15:19:33Z</time></trkpt><trkpt lat="41.71104353617951" lon="13.601054801370017"><ele>279.0</ele><time>2026-04-18T15:19:34Z</time></trkpt><trkpt lat="41.71095742104199" lon="13.600922661074904"><ele>279.0</ele><time>2026-04-18T15:19:35Z</time></trkpt><trkpt lat="41.710880394058435" lon="13.60080352062111"><ele>279.0</ele><time>2026-04-18T15:19:36Z</time></trkpt><trkpt lat="41.71080261667917" lon="13.60068321944063"><ele>279.0</ele><time>2026-04-18T15:19:37Z</time></trkpt><trkpt lat="41.710726921121754" lon="13.600566138254647"><ele>279.0</ele><time>2026-04-18T15:19:38Z</time></trkpt><trkpt lat="41.71065718607207" lon="13.600458276456148"><ele>279.0</ele><time>2026-04-18T15:19:39Z</time></trkpt><trkpt lat="41.71059755789162" lon="13.600366046419436"><ele>279.0</ele><time>2026-04-18T15:19:40Z</time></trkpt><trkpt lat="41.710546245637055" lon="13.60028752571877"><ele>279.0</ele><time>2026-04-18T15:19:41Z</time></trkpt><trkpt lat="41.710502734701976" lon="13.600220650148682"><ele>278.8</ele><time>2026-04-18T15:19:42Z</time></trkpt><trkpt lat="41.710433471414106" lon="13.600112953155254"><ele>278.59999999999997</ele><time>2026-04-18T15:19:44Z</time></trkpt><trkpt lat="41.7103602257228" lon="13.59999896225137"><ele>278.4</ele><time>2026-04-18T15:19:46Z</time></trkpt><trkpt lat="41.710296710322744" lon="13.59990011447045"><ele>278.2</ele><time>2026-04-18T15:19:48Z</time></trkpt><trkpt lat="41.7102532027361" lon="13.59983240444584"><ele>278.0</ele><time>2026-04-18T15:19:50Z</time></trkpt><trkpt lat="41.710201981372464" lon="13.599749920929284"><ele>278.0</ele><time>2026-04-18T15:19:52Z</time></trkpt><trkpt lat="41.71014873336253" lon="13.599662987810671"><ele>278.0</ele><time>2026-04-18T15:19:53Z</time></trkpt><trkpt lat="41.710084637947375" lon="13.59955257754123"><ele>278.0</ele><time>2026-04-18T15:19:54Z</time></trkpt><trkpt lat="41.71000605183793" lon="13.599424610830473"><ele>278.0</ele><time>2026-04-18T15:19:55Z</time></trkpt><trkpt lat="41.709928449265945" lon="13.599305714628072"><ele>278.0</ele><time>2026-04-18T15:19:56Z</time></trkpt><trkpt lat="41.709862371041986" lon="13.599205654508085"><ele>277.8</ele><time>2026-04-18T15:19:57Z</time></trkpt><trkpt lat="41.709798386131276" lon="13.599108763464766"><ele>277.6</ele><time>2026-04-18T15:19:58Z</time></trkpt><trkpt lat="41.70974252239963" lon="13.599024709973381"><ele>277.4</ele><time>2026-04-18T15:19:59Z</time></trkpt><trkpt lat="41.7096890136935" lon="13.598944023090628"><ele>277.2</ele><time>2026-04-18T15:20:00Z</time></trkpt><trkpt lat="41.709673528137415" lon="13.598798804052187"><ele>277.0</ele><time>2026-04-18T15:20:01Z</time></trkpt><trkpt lat="41.709606054069326" lon="13.598696444427768"><ele>277.0</ele><time>2026-04-18T15:20:02Z</time></trkpt><trkpt lat="41.70952961287246" lon="13.598585644756648"><ele>277.0</ele><time>2026-04-18T15:20:03Z</time></trkpt><trkpt lat="41.709448062090736" lon="13.598464525264005"><ele>277.0</ele><time>2026-04-18T15:20:04Z</time></trkpt><trkpt lat="41.70931969330715" lon="13.598381008973217"><ele>277.0</ele><time>2026-04-18T15:20:05Z</time></trkpt><trkpt lat="41.709272192331355" lon="13.598191623627539"><ele>276.75</ele><time>2026-04-18T15:20:06Z</time></trkpt><trkpt lat="41.70917744845076" lon="13.598050459425288"><ele>276.5</ele><time>2026-04-18T15:20:07Z</time></trkpt><trkpt lat="41.709085386388566" lon="13.597915926656423"><ele>276.25</ele><time>2026-04-18T15:20:08Z</time></trkpt><trkpt lat="41.709007549011915" lon="13.597795243634266"><ele>276.0</ele><time>2026-04-18T15:20:09Z</time></trkpt><trkpt lat="41.70889786492292" lon="13.597731671960867"><ele>275.75</ele><time>2026-04-18T15:20:10Z</time></trkpt><trkpt lat="41.70886708831971" lon="13.59758450123556"><ele>275.5</ele><time>2026-04-18T15:20:11Z</time></trkpt><trkpt lat="41.70879194585504" lon="13.597478767597242"><ele>275.25</ele><time>2026-04-18T15:20:12Z</time></trkpt><trkpt lat="41.708704458915186" lon="13.59735671459767"><ele>275.0</ele><time>2026-04-18T15:20:13Z</time></trkpt><trkpt lat="41.70860612137358" lon="13.597209427930983"><ele>275.33333333333337</ele><time>2026-04-18T15:20:14Z</time></trkpt><trkpt lat="41.70848122560628" lon="13.597081719729738"><ele>275.6666666666667</ele><time>2026-04-18T15:20:15Z</time></trkpt><trkpt lat="41.708374932552196" lon="13.596916508090702"><ele>276.0</ele><time>2026-04-18T15:20:16Z</time></trkpt><trkpt lat="41.70826761880921" lon="13.596749023452375"><ele>276.0</ele><time>2026-04-18T15:20:17Z</time></trkpt><trkpt lat="41.708164152787745" lon="13.596586221230824"><ele>276.0</ele><time>2026-04-18T15:20:18Z</time></trkpt><trkpt lat="41.70806981507725" lon="13.596437787511645"><ele>276.0</ele><time>2026-04-18T15:20:19Z</time></trkpt><trkpt lat="41.70798306618512" lon="13.596302008756867"><ele>276.0</ele><time>2026-04-18T15:20:20Z</time></trkpt><trkpt lat="41.70789759673598" lon="13.596168344867705"><ele>276.0</ele><time>2026-04-18T15:20:21Z</time></trkpt><trkpt lat="41.70781398039929" lon="13.596037579182862"><ele>276.0</ele><time>2026-04-18T15:20:22Z</time></trkpt><trkpt lat="41.707733997626725" lon="13.595912495737581"><ele>276.0</ele><time>2026-04-18T15:20:23Z</time></trkpt><trkpt lat="41.7076523493621" lon="13.59578540365665"><ele>276.0</ele><time>2026-04-18T15:20:24Z</time></trkpt><trkpt lat="41.70756668587642" lon="13.595653206915925"><ele>276.0</ele><time>2026-04-18T15:20:25Z</time></trkpt><trkpt lat="41.70748328019322" lon="13.595524496326352"><ele>276.0</ele><time>2026-04-18T15:20:26Z</time></trkpt><trkpt lat="41.70739551131465" lon="13.595387903252993"><ele>276.0</ele><time>2026-04-18T15:20:27Z</time></trkpt><trkpt lat="41.70730332834935" lon="13.595244662340374"><ele>276.0</ele><time>2026-04-18T15:20:28Z</time></trkpt><trkpt lat="41.70720500222698" lon="13.59509187587078"><ele>276.0</ele><time>2026-04-18T15:20:28.999Z</time></trkpt><trkpt lat="41.70710676695911" lon="13.594939230131176"><ele>276.0</ele><time>2026-04-18T15:20:29.999Z</time></trkpt><trkpt lat="41.707017500208316" lon="13.594800519835752"><ele>276.0</ele><time>2026-04-18T15:20:30.999Z</time></trkpt><trkpt lat="41.70693441925684" lon="13.594670839011041"><ele>276.0</ele><time>2026-04-18T15:20:31.999Z</time></trkpt><trkpt lat="41.706856921784976" lon="13.59455001319161"><ele>275.8</ele><time>2026-04-18T15:20:32.999Z</time></trkpt><trkpt lat="41.70680717909238" lon="13.594414887854334"><ele>275.6</ele><time>2026-04-18T15:20:33.999Z</time></trkpt><trkpt lat="41.70673763652834" lon="13.594308291582735"><ele>275.4</ele><time>2026-04-18T15:20:34.999Z</time></trkpt><trkpt lat="41.70666552255852" lon="13.594197864850525"><ele>275.2</ele><time>2026-04-18T15:20:35.999Z</time></trkpt><trkpt lat="41.70659745676756" lon="13.594087898158898"><ele>275.0</ele><time>2026-04-18T15:20:36.999Z</time></trkpt><trkpt lat="41.70653275966081" lon="13.593988829247934"><ele>275.0</ele><time>2026-04-18T15:20:37.999Z</time></trkpt><trkpt lat="41.70645935482032" lon="13.59387754922999"><ele>275.0</ele><time>2026-04-18T15:20:38.999Z</time></trkpt><trkpt lat="41.706361941010464" lon="13.593780783042405"><ele>275.0</ele><time>2026-04-18T15:20:39.999Z</time></trkpt><trkpt lat="41.706280750420724" lon="13.59365467563146"><ele>275.0</ele><time>2026-04-18T15:20:40.999Z</time></trkpt><trkpt lat="41.70620054562867" lon="13.593530096041183"><ele>275.0</ele><time>2026-04-18T15:20:41.999Z</time></trkpt><trkpt lat="41.70613236782198" lon="13.59342419627247"><ele>275.0</ele><time>2026-04-18T15:20:42.999Z</time></trkpt><trkpt lat="41.70607124372732" lon="13.593329667535153"><ele>275.0</ele><time>2026-04-18T15:20:43.999Z</time></trkpt><trkpt lat="41.70601185078999" lon="13.593237650069842"><ele>275.0</ele><time>2026-04-18T15:20:44.999Z</time></trkpt><trkpt lat="41.7059537464239" lon="13.593147628926328"><ele>275.0</ele><time>2026-04-18T15:20:45.999Z</time></trkpt><trkpt lat="41.705903301551494" lon="13.593069046512884"><ele>275.0</ele><time>2026-04-18T15:20:46.999Z</time></trkpt><trkpt lat="41.70585876744326" lon="13.592999514522383"><ele>275.0</ele><time>2026-04-18T15:20:47.999Z</time></trkpt><trkpt lat="41.705780142208354" lon="13.592876754389215"><ele>275.0</ele><time>2026-04-18T15:20:49.999Z</time></trkpt><trkpt lat="41.70573115550155" lon="13.592802229972667"><ele>275.0</ele><time>2026-04-18T15:20:50.999Z</time></trkpt><trkpt lat="41.705680785843185" lon="13.59272377877511"><ele>275.0</ele><time>2026-04-18T15:20:51.999Z</time></trkpt><trkpt lat="41.705626760279195" lon="13.592640189046291"><ele>275.0</ele><time>2026-04-18T15:20:52.999Z</time></trkpt><trkpt lat="41.70556843027954" lon="13.592549750427164"><ele>274.8</ele><time>2026-04-18T15:20:53.999Z</time></trkpt><trkpt lat="41.7055126519787" lon="13.592463268120385"><ele>274.6</ele><time>2026-04-18T15:20:54.999Z</time></trkpt><trkpt lat="41.70545276646831" lon="13.592370417629095"><ele>274.4</ele><time>2026-04-18T15:20:55.999Z</time></trkpt><trkpt lat="41.705386829555785" lon="13.592268183576483"><ele>274.2</ele><time>2026-04-18T15:20:56.999Z</time></trkpt><trkpt lat="41.705325920946095" lon="13.592173470170945"><ele>274.0</ele><time>2026-04-18T15:20:57.999Z</time></trkpt><trkpt lat="41.70526764479218" lon="13.5920829534812"><ele>273.8</ele><time>2026-04-18T15:20:58.999Z</time></trkpt><trkpt lat="41.705205732986926" lon="13.59198678847812"><ele>273.59999999999997</ele><time>2026-04-18T15:20:59.999Z</time></trkpt><trkpt lat="41.705137417340154" lon="13.591882922412125"><ele>273.4</ele><time>2026-04-18T15:21:00.999Z</time></trkpt><trkpt lat="41.705062205164204" lon="13.591767686274933"><ele>273.2</ele><time>2026-04-18T15:21:01.999Z</time></trkpt><trkpt lat="41.70498262516886" lon="13.59164575799398"><ele>273.0</ele><time>2026-04-18T15:21:02.999Z</time></trkpt><trkpt lat="41.70489619233447" lon="13.591513328468174"><ele>273.0</ele><time>2026-04-18T15:21:03.999Z</time></trkpt><trkpt lat="41.70480411206799" lon="13.591373090066078"><ele>273.0</ele><time>2026-04-18T15:21:04.999Z</time></trkpt><trkpt lat="41.704712222520584" lon="13.591232826880884"><ele>273.0</ele><time>2026-04-18T15:21:05.999Z</time></trkpt><trkpt lat="41.704627699571034" lon="13.59110285604462"><ele>273.0</ele><time>2026-04-18T15:21:06.999Z</time></trkpt><trkpt lat="41.70455155517393" lon="13.590985209437271"><ele>273.0</ele><time>2026-04-18T15:21:07.999Z</time></trkpt><trkpt lat="41.704481331256716" lon="13.590876710216612"><ele>273.0</ele><time>2026-04-18T15:21:08.999Z</time></trkpt><trkpt lat="41.70441800900282" lon="13.590778874447475"><ele>273.0</ele><time>2026-04-18T15:21:09.999Z</time></trkpt><trkpt lat="41.704359743292294" lon="13.590688851199062"><ele>273.0</ele><time>2026-04-18T15:21:10.999Z</time></trkpt><trkpt lat="41.70430546789807" lon="13.590604993243463"><ele>273.0</ele><time>2026-04-18T15:21:11.999Z</time></trkpt><trkpt lat="41.70425187710677" lon="13.590520958498594"><ele>272.8333333333333</ele><time>2026-04-18T15:21:12.999Z</time></trkpt><trkpt lat="41.70419920772858" lon="13.590438251348921"><ele>272.6666666666667</ele><time>2026-04-18T15:21:13.999Z</time></trkpt><trkpt lat="41.70414713591479" lon="13.59035648252172"><ele>272.5</ele><time>2026-04-18T15:21:14.999Z</time></trkpt><trkpt lat="41.70409645696538" lon="13.590276672765205"><ele>272.33333333333337</ele><time>2026-04-18T15:21:15.999Z</time></trkpt><trkpt lat="41.70404667412171" lon="13.590197647244867"><ele>272.1666666666667</ele><time>2026-04-18T15:21:16.999Z</time></trkpt><trkpt lat="41.70399561655993" lon="13.59011659726529"><ele>272.0</ele><time>2026-04-18T15:21:18Z</time></trkpt><trkpt lat="41.70394314315579" lon="13.590030062183196"><ele>272.0</ele><time>2026-04-18T15:21:19Z</time></trkpt><trkpt lat="41.703892566893536" lon="13.58994451235721"><ele>272.0</ele><time>2026-04-18T15:21:20Z</time></trkpt><trkpt lat="41.70384944968608" lon="13.589870884113523"><ele>272.0</ele><time>2026-04-18T15:21:21Z</time></trkpt><trkpt lat="41.703797085792274" lon="13.589773914512856"><ele>272.0</ele><time>2026-04-18T15:21:23Z</time></trkpt><trkpt lat="41.703756654941536" lon="13.58969147070326"><ele>272.0</ele><time>2026-04-18T15:21:25Z</time></trkpt><trkpt lat="41.70374539474216" lon="13.589484375013413"><ele>271.6666666666667</ele><time>2026-04-18T15:21:26Z</time></trkpt><trkpt lat="41.70386459706956" lon="13.589320097647992"><ele>271.3333333333333</ele><time>2026-04-18T15:21:27Z</time></trkpt><trkpt lat="41.70395586987133" lon="13.589168465624907"><ele>271.0</ele><time>2026-04-18T15:21:28Z</time></trkpt><trkpt lat="41.70406032958758" lon="13.58899618170129"><ele>271.0</ele><time>2026-04-18T15:21:29Z</time></trkpt><trkpt lat="41.704188218018544" lon="13.588782505120239"><ele>271.0</ele><time>2026-04-18T15:21:30Z</time></trkpt><trkpt lat="41.704330966486296" lon="13.588543453737246"><ele>271.0</ele><time>2026-04-18T15:21:31Z</time></trkpt><trkpt lat="41.70448463657208" lon="13.588286112490492"><ele>271.0</ele><time>2026-04-18T15:21:32Z</time></trkpt><trkpt lat="41.704636848934115" lon="13.588031212442907"><ele>271.0</ele><time>2026-04-18T15:21:33Z</time></trkpt><trkpt lat="41.70477411311973" lon="13.58780000946274"><ele>271.0</ele><time>2026-04-18T15:21:34Z</time></trkpt><trkpt lat="41.70490543456896" lon="13.587577092749576"><ele>271.0</ele><time>2026-04-18T15:21:35Z</time></trkpt><trkpt lat="41.705032977104246" lon="13.587360590535674"><ele>271.0</ele><time>2026-04-18T15:21:36Z</time></trkpt><trkpt lat="41.705172437626025" lon="13.587158930126433"><ele>271.0</ele><time>2026-04-18T15:21:37Z</time></trkpt><trkpt lat="41.7052963169598" lon="13.586943963091812"><ele>271.0</ele><time>2026-04-18T15:21:38Z</time></trkpt><trkpt lat="41.7054098595934" lon="13.586740048437303"><ele>271.0</ele><time>2026-04-18T15:21:39Z</time></trkpt><trkpt lat="41.705515804552626" lon="13.586547972966015"><ele>271.0</ele><time>2026-04-18T15:21:40Z</time></trkpt><trkpt lat="41.70562029678552" lon="13.586352071604596"><ele>271.0</ele><time>2026-04-18T15:21:41Z</time></trkpt><trkpt lat="41.705730003132174" lon="13.586125873435723"><ele>271.0</ele><time>2026-04-18T15:21:42Z</time></trkpt><trkpt lat="41.705874453766256" lon="13.58585378885816"><ele>270.5</ele><time>2026-04-18T15:21:43Z</time></trkpt><trkpt lat="41.70603111504167" lon="13.585579416069093"><ele>270.0</ele><time>2026-04-18T15:21:44Z</time></trkpt><trkpt lat="41.70616250917002" lon="13.585302417384352"><ele>271.5</ele><time>2026-04-18T15:21:45Z</time></trkpt><trkpt lat="41.70628696145887" lon="13.585044304310228"><ele>273.0</ele><time>2026-04-18T15:21:46Z</time></trkpt><trkpt lat="41.70640893272129" lon="13.584784723125557"><ele>273.0</ele><time>2026-04-18T15:21:47Z</time></trkpt><trkpt lat="41.70653314326588" lon="13.5845263485747"><ele>273.0</ele><time>2026-04-18T15:21:48Z</time></trkpt><trkpt lat="41.70664345049662" lon="13.584258135535505"><ele>272.0</ele><time>2026-04-18T15:21:49Z</time></trkpt><trkpt lat="41.70674912209043" lon="13.583987419275244"><ele>271.0</ele><time>2026-04-18T15:21:50Z</time></trkpt><trkpt lat="41.706869824998705" lon="13.583715879211107"><ele>270.5</ele><time>2026-04-18T15:21:51Z</time></trkpt><trkpt lat="41.70698693494361" lon="13.583428396430003"><ele>270.0</ele><time>2026-04-18T15:21:52Z</time></trkpt><trkpt lat="41.70710434919401" lon="13.58313964320435"><ele>270.0</ele><time>2026-04-18T15:21:53Z</time></trkpt><trkpt lat="41.707217608912835" lon="13.58285681959239"><ele>270.0</ele><time>2026-04-18T15:21:54Z</time></trkpt><trkpt lat="41.70732477810863" lon="13.582586161008619"><ele>269.5</ele><time>2026-04-18T15:21:55Z</time></trkpt><trkpt lat="41.707434822551456" lon="13.582314599239783"><ele>269.0</ele><time>2026-04-18T15:21:56Z</time></trkpt><trkpt lat="41.7075476671444" lon="13.582041454575215"><ele>269.6666666666667</ele><time>2026-04-18T15:21:57Z</time></trkpt><trkpt lat="41.70765463407084" lon="13.581781814977937"><ele>270.3333333333333</ele><time>2026-04-18T15:21:58Z</time></trkpt><trkpt lat="41.70775159423012" lon="13.581535345264173"><ele>271.0</ele><time>2026-04-18T15:21:59Z</time></trkpt><trkpt lat="41.7078422091349" lon="13.581298665047155"><ele>270.66666666666663</ele><time>2026-04-18T15:22:00Z</time></trkpt><trkpt lat="41.707932639798884" lon="13.581065670980925"><ele>270.3333333333333</ele><time>2026-04-18T15:22:01Z</time></trkpt><trkpt lat="41.70802892023759" lon="13.58082109286964"><ele>270.0</ele><time>2026-04-18T15:22:02Z</time></trkpt><trkpt lat="41.7081323058981" lon="13.580562460579396"><ele>270.3333333333333</ele><time>2026-04-18T15:22:03Z</time></trkpt><trkpt lat="41.708240889408316" lon="13.58030048472961"><ele>270.66666666666663</ele><time>2026-04-18T15:22:04Z</time></trkpt><trkpt lat="41.70833887449098" lon="13.580065556065316"><ele>271.0</ele><time>2026-04-18T15:22:05Z</time></trkpt><trkpt lat="41.708432457345296" lon="13.579833114824075"><ele>271.0</ele><time>2026-04-18T15:22:06Z</time></trkpt><trkpt lat="41.708517091821264" lon="13.579629247494259"><ele>271.0</ele><time>2026-04-18T15:22:07Z</time></trkpt><trkpt lat="41.70859067565374" lon="13.579451607091082"><ele>271.0</ele><time>2026-04-18T15:22:08Z</time></trkpt><trkpt lat="41.708661694567816" lon="13.57928083478854"><ele>271.25</ele><time>2026-04-18T15:22:09Z</time></trkpt><trkpt lat="41.708726354156816" lon="13.579122236324032"><ele>271.5</ele><time>2026-04-18T15:22:10Z</time></trkpt><trkpt lat="41.70879197416094" lon="13.578967914618769"><ele>271.75</ele><time>2026-04-18T15:22:11Z</time></trkpt><trkpt lat="41.708856557465744" lon="13.578809027465843"><ele>272.0</ele><time>2026-04-18T15:22:12Z</time></trkpt><trkpt lat="41.70893439109614" lon="13.578647752248209"><ele>272.0</ele><time>2026-04-18T15:22:13Z</time></trkpt><trkpt lat="41.70899571254863" lon="13.578478180214793"><ele>272.0</ele><time>2026-04-18T15:22:14Z</time></trkpt><trkpt lat="41.70903730931976" lon="13.578302720720933"><ele>272.0</ele><time>2026-04-18T15:22:15Z</time></trkpt><trkpt lat="41.70907240086761" lon="13.578143394170981"><ele>272.0</ele><time>2026-04-18T15:22:16Z</time></trkpt><trkpt lat="41.709087047639606" lon="13.577993449916242"><ele>272.5</ele><time>2026-04-18T15:22:17Z</time></trkpt><trkpt lat="41.709093062108124" lon="13.577824472352923"><ele>273.0</ele><time>2026-04-18T15:22:18Z</time></trkpt><trkpt lat="41.70909173439052" lon="13.577643834194419"><ele>273.5</ele><time>2026-04-18T15:22:19Z</time></trkpt><trkpt lat="41.709070287410654" lon="13.577482927158227"><ele>274.0</ele><time>2026-04-18T15:22:20Z</time></trkpt><trkpt lat="41.70903772812369" lon="13.577315824913162"><ele>274.0</ele><time>2026-04-18T15:22:21Z</time></trkpt><trkpt lat="41.70899408783475" lon="13.577159338804512"><ele>274.0</ele><time>2026-04-18T15:22:22Z</time></trkpt><trkpt lat="41.70894326158564" lon="13.577006326140241"><ele>274.0</ele><time>2026-04-18T15:22:23Z</time></trkpt><trkpt lat="41.70887998236906" lon="13.576857121028105"><ele>274.0</ele><time>2026-04-18T15:22:24Z</time></trkpt><trkpt lat="41.70879589015474" lon="13.576704845005722"><ele>273.25</ele><time>2026-04-18T15:22:25Z</time></trkpt><trkpt lat="41.70869964639536" lon="13.576575625279427"><ele>272.5</ele><time>2026-04-18T15:22:26Z</time></trkpt><trkpt lat="41.70859769058884" lon="13.576455587006835"><ele>271.75</ele><time>2026-04-18T15:22:26.999Z</time></trkpt><trkpt lat="41.70848126718961" lon="13.576345353487994"><ele>271.0</ele><time>2026-04-18T15:22:27.999Z</time></trkpt><trkpt lat="41.70836207594821" lon="13.576256041758933"><ele>270.8</ele><time>2026-04-18T15:22:28.999Z</time></trkpt><trkpt lat="41.70824523961296" lon="13.576184567843095"><ele>270.6</ele><time>2026-04-18T15:22:29.999Z</time></trkpt><trkpt lat="41.708136135722555" lon="13.576120330883366"><ele>270.4</ele><time>2026-04-18T15:22:30.999Z</time></trkpt><trkpt lat="41.70803207514759" lon="13.576100880327049"><ele>270.2</ele><time>2026-04-18T15:22:31.999Z</time></trkpt><trkpt lat="41.707951192011905" lon="13.576093926889376"><ele>270.0</ele><time>2026-04-18T15:22:32.999Z</time></trkpt><trkpt lat="41.70783301166562" lon="13.576104755222357"><ele>270.0</ele><time>2026-04-18T15:22:34.999Z</time></trkpt><trkpt lat="41.707722346740496" lon="13.576085663902358"><ele>270.0</ele><time>2026-04-18T15:22:36.999Z</time></trkpt><trkpt lat="41.707660097489565" lon="13.576049478516278"><ele>270.0</ele><time>2026-04-18T15:22:37.999Z</time></trkpt><trkpt lat="41.70758718469568" lon="13.576021225511045"><ele>270.0</ele><time>2026-04-18T15:22:38.999Z</time></trkpt><trkpt lat="41.70750639327154" lon="13.576019462159797"><ele>270.0</ele><time>2026-04-18T15:22:39.999Z</time></trkpt><trkpt lat="41.70741800718753" lon="13.57604861294834"><ele>270.0</ele><time>2026-04-18T15:22:40.999Z</time></trkpt><trkpt lat="41.707319343329736" lon="13.5760677543526"><ele>270.0</ele><time>2026-04-18T15:22:41.999Z</time></trkpt><trkpt lat="41.707212545185875" lon="13.576052864172652"><ele>270.0</ele><time>2026-04-18T15:22:42.999Z</time></trkpt><trkpt lat="41.70709793237934" lon="13.576000343125221"><ele>270.0</ele><time>2026-04-18T15:22:43.999Z</time></trkpt><trkpt lat="41.70698406924726" lon="13.575941880659473"><ele>270.0</ele><time>2026-04-18T15:22:44.999Z</time></trkpt><trkpt lat="41.70687543159455" lon="13.575864603306202"><ele>270.0</ele><time>2026-04-18T15:22:45.999Z</time></trkpt><trkpt lat="41.70677479242376" lon="13.575751125537455"><ele>270.0</ele><time>2026-04-18T15:22:46.999Z</time></trkpt><trkpt lat="41.70666357731629" lon="13.575626205168073"><ele>270.0</ele><time>2026-04-18T15:22:47.999Z</time></trkpt><trkpt lat="41.70657238425151" lon="13.575455856582403"><ele>270.0</ele><time>2026-04-18T15:22:48.999Z</time></trkpt><trkpt lat="41.70647478894537" lon="13.575293709529785"><ele>270.0</ele><time>2026-04-18T15:22:49.999Z</time></trkpt><trkpt lat="41.70638557105134" lon="13.575114724246943"><ele>270.0</ele><time>2026-04-18T15:22:50.999Z</time></trkpt><trkpt lat="41.70629392485543" lon="13.574913535391573"><ele>270.0</ele><time>2026-04-18T15:22:51.999Z</time></trkpt><trkpt lat="41.70620126885676" lon="13.574692105656311"><ele>270.0</ele><time>2026-04-18T15:22:52.999Z</time></trkpt><trkpt lat="41.70610804583431" lon="13.574466101023388"><ele>270.0</ele><time>2026-04-18T15:22:53.999Z</time></trkpt><trkpt lat="41.706010473372196" lon="13.574251161173553"><ele>270.0</ele><time>2026-04-18T15:22:54.999Z</time></trkpt><trkpt lat="41.70590695368863" lon="13.574044800066543"><ele>270.0</ele><time>2026-04-18T15:22:55.999Z</time></trkpt><trkpt lat="41.705802674436875" lon="13.573832368294143"><ele>270.0</ele><time>2026-04-18T15:22:56.999Z</time></trkpt><trkpt lat="41.70571107294178" lon="13.573635488497871"><ele>270.0</ele><time>2026-04-18T15:22:57.999Z</time></trkpt><trkpt lat="41.70563006989745" lon="13.573465908730663"><ele>270.2</ele><time>2026-04-18T15:22:58.999Z</time></trkpt><trkpt lat="41.705554246519036" lon="13.573316805128224"><ele>270.4</ele><time>2026-04-18T15:22:59.999Z</time></trkpt><trkpt lat="41.705488500244485" lon="13.573194146621185"><ele>270.6</ele><time>2026-04-18T15:23:00.999Z</time></trkpt><trkpt lat="41.70543417765896" lon="13.573092835918407"><ele>270.8</ele><time>2026-04-18T15:23:01.999Z</time></trkpt><trkpt lat="41.70538466503707" lon="13.572999516461943"><ele>271.0</ele><time>2026-04-18T15:23:02.999Z</time></trkpt><trkpt lat="41.70530686621984" lon="13.572893901203466"><ele>271.0</ele><time>2026-04-18T15:23:04.999Z</time></trkpt><trkpt lat="41.7053215178619" lon="13.572780214361012"><ele>271.0</ele><time>2026-04-18T15:23:05.999Z</time></trkpt><trkpt lat="41.70528626707905" lon="13.572684737465789"><ele>271.0</ele><time>2026-04-18T15:23:06.999Z</time></trkpt><trkpt lat="41.70522290329826" lon="13.572592138856283"><ele>271.0</ele><time>2026-04-18T15:23:07.999Z</time></trkpt><trkpt lat="41.70513919775469" lon="13.572505834867757"><ele>271.0</ele><time>2026-04-18T15:23:08.999Z</time></trkpt><trkpt lat="41.70505000347519" lon="13.572394321254603"><ele>271.3333333333333</ele><time>2026-04-18T15:23:09.999Z</time></trkpt><trkpt lat="41.704970944184694" lon="13.572234046797991"><ele>271.6666666666667</ele><time>2026-04-18T15:23:10.999Z</time></trkpt><trkpt lat="41.70487290345739" lon="13.572020332455212"><ele>272.0</ele><time>2026-04-18T15:23:11.999Z</time></trkpt><trkpt lat="41.70472724356877" lon="13.571798847991575"><ele>272.0</ele><time>2026-04-18T15:23:12.999Z</time></trkpt><trkpt lat="41.7045829227253" lon="13.57153540914121"><ele>272.0</ele><time>2026-04-18T15:23:13.999Z</time></trkpt><trkpt lat="41.704434648158106" lon="13.571264753260758"><ele>272.0</ele><time>2026-04-18T15:23:14.999Z</time></trkpt><trkpt lat="41.70431409919168" lon="13.57104470634956"><ele>272.0</ele><time>2026-04-18T15:23:15.999Z</time></trkpt><trkpt lat="41.70421939417269" lon="13.570871835023734"><ele>272.0</ele><time>2026-04-18T15:23:16.999Z</time></trkpt><trkpt lat="41.70412867108001" lon="13.570706231949277"><ele>272.0</ele><time>2026-04-18T15:23:17.999Z</time></trkpt><trkpt lat="41.70404270025143" lon="13.57054844988245"><ele>272.0</ele><time>2026-04-18T15:23:18.999Z</time></trkpt><trkpt lat="41.7039505934369" lon="13.570379325367707"><ele>272.0</ele><time>2026-04-18T15:23:19.999Z</time></trkpt><trkpt lat="41.70383794374857" lon="13.570172476419968"><ele>272.0</ele><time>2026-04-18T15:23:20.999Z</time></trkpt><trkpt lat="41.70371554372916" lon="13.569946021802458"><ele>272.0</ele><time>2026-04-18T15:23:21.999Z</time></trkpt><trkpt lat="41.70359559727953" lon="13.56972610787597"><ele>272.0</ele><time>2026-04-18T15:23:22.999Z</time></trkpt><trkpt lat="41.703466710106035" lon="13.569501611906677"><ele>270.6666666666667</ele><time>2026-04-18T15:23:24Z</time></trkpt><trkpt lat="41.70333981220858" lon="13.569302692440706"><ele>269.3333333333333</ele><time>2026-04-18T15:23:25Z</time></trkpt><trkpt lat="41.70320927443226" lon="13.569138278031163"><ele>268.0</ele><time>2026-04-18T15:23:26Z</time></trkpt><trkpt lat="41.703078528461226" lon="13.568998626436171"><ele>268.0</ele><time>2026-04-18T15:23:27Z</time></trkpt><trkpt lat="41.702947176618345" lon="13.568874561586528"><ele>268.0</ele><time>2026-04-18T15:23:28Z</time></trkpt><trkpt lat="41.702808962844074" lon="13.568763635891132"><ele>268.0</ele><time>2026-04-18T15:23:29Z</time></trkpt><trkpt lat="41.702654953429544" lon="13.568659824613489"><ele>268.3333333333333</ele><time>2026-04-18T15:23:30Z</time></trkpt><trkpt lat="41.70248662269627" lon="13.568533618960448"><ele>268.6666666666667</ele><time>2026-04-18T15:23:31Z</time></trkpt><trkpt lat="41.70229911511804" lon="13.568438946217999"><ele>269.0</ele><time>2026-04-18T15:23:32Z</time></trkpt><trkpt lat="41.70213395380879" lon="13.568331424638659"><ele>269.0</ele><time>2026-04-18T15:23:33Z</time></trkpt><trkpt lat="41.70198515160532" lon="13.568221280600383"><ele>269.0</ele><time>2026-04-18T15:23:34Z</time></trkpt><trkpt lat="41.70183410842056" lon="13.568092491071871"><ele>269.0</ele><time>2026-04-18T15:23:35Z</time></trkpt><trkpt lat="41.70167565514696" lon="13.567938063532955"><ele>269.6666666666667</ele><time>2026-04-18T15:23:36Z</time></trkpt><trkpt lat="41.70151341378861" lon="13.567756038847916"><ele>270.3333333333333</ele><time>2026-04-18T15:23:37Z</time></trkpt><trkpt lat="41.7013668929813" lon="13.567566845924349"><ele>271.0</ele><time>2026-04-18T15:23:38Z</time></trkpt><trkpt lat="41.70124697382202" lon="13.567398441773054"><ele>271.0</ele><time>2026-04-18T15:23:39Z</time></trkpt><trkpt lat="41.7011464162761" lon="13.567233008530007"><ele>271.0</ele><time>2026-04-18T15:23:40Z</time></trkpt><trkpt lat="41.70105028161683" lon="13.56706376078572"><ele>271.0</ele><time>2026-04-18T15:23:41Z</time></trkpt><trkpt lat="41.700948149402876" lon="13.566883257247358"><ele>271.0</ele><time>2026-04-18T15:23:42Z</time></trkpt><trkpt lat="41.70084292411321" lon="13.566687586029975"><ele>271.0</ele><time>2026-04-18T15:23:43Z</time></trkpt><trkpt lat="41.700740430680355" lon="13.566479579329021"><ele>271.0</ele><time>2026-04-18T15:23:44Z</time></trkpt><trkpt lat="41.70063738166054" lon="13.566252372746167"><ele>270.66666666666663</ele><time>2026-04-18T15:23:45Z</time></trkpt><trkpt lat="41.70054901406311" lon="13.56600684316819"><ele>270.3333333333333</ele><time>2026-04-18T15:23:46Z</time></trkpt><trkpt lat="41.700470637682805" lon="13.565773870273631"><ele>270.0</ele><time>2026-04-18T15:23:47Z</time></trkpt><trkpt lat="41.70040018476261" lon="13.56556388576201"><ele>270.0</ele><time>2026-04-18T15:23:48Z</time></trkpt><trkpt lat="41.70033526292076" lon="13.565371647107295"><ele>270.0</ele><time>2026-04-18T15:23:49Z</time></trkpt><trkpt lat="41.700275658034805" lon="13.565196427890813"><ele>270.0</ele><time>2026-04-18T15:23:50Z</time></trkpt><trkpt lat="41.7002170206078" lon="13.565024052599194"><ele>270.0</ele><time>2026-04-18T15:23:51Z</time></trkpt><trkpt lat="41.700192842840856" lon="13.564850029672952"><ele>269.8</ele><time>2026-04-18T15:23:52Z</time></trkpt><trkpt lat="41.70014407178517" lon="13.564712349093504"><ele>269.6</ele><time>2026-04-18T15:23:53Z</time></trkpt><trkpt lat="41.700107046439356" lon="13.564596108468104"><ele>269.4</ele><time>2026-04-18T15:23:54Z</time></trkpt><trkpt lat="41.70008083109907" lon="13.564487859215527"><ele>269.2</ele><time>2026-04-18T15:23:55Z</time></trkpt><trkpt lat="41.70008053900979" lon="13.564392005105855"><ele>269.0</ele><time>2026-04-18T15:23:56Z</time></trkpt><trkpt lat="41.70016808371246" lon="13.56425351578977"><ele>269.59999999999997</ele><time>2026-04-18T15:23:58Z</time></trkpt><trkpt lat="41.70025048326357" lon="13.564188941066352"><ele>270.2</ele><time>2026-04-18T15:23:59Z</time></trkpt><trkpt lat="41.70034622574033" lon="13.564110675963382"><ele>270.79999999999995</ele><time>2026-04-18T15:24:00Z</time></trkpt><trkpt lat="41.70044108566814" lon="13.564015118087294"><ele>271.4</ele><time>2026-04-18T15:24:01Z</time></trkpt><trkpt lat="41.70054065460346" lon="13.563928770966225"><ele>272.0</ele><time>2026-04-18T15:24:02Z</time></trkpt><trkpt lat="41.70062691270008" lon="13.563787994327893"><ele>273.0</ele><time>2026-04-18T15:24:03Z</time></trkpt><trkpt lat="41.70075526722868" lon="13.563665609592393"><ele>274.0</ele><time>2026-04-18T15:24:04Z</time></trkpt><trkpt lat="41.70089480895042" lon="13.563546502549801"><ele>275.0</ele><time>2026-04-18T15:24:05Z</time></trkpt><trkpt lat="41.70103964210534" lon="13.56339453256037"><ele>274.6666666666667</ele><time>2026-04-18T15:24:06Z</time></trkpt><trkpt lat="41.701176708334295" lon="13.5632127507031"><ele>274.3333333333333</ele><time>2026-04-18T15:24:07Z</time></trkpt><trkpt lat="41.70131637732755" lon="13.563026186726217"><ele>274.0</ele><time>2026-04-18T15:24:08Z</time></trkpt><trkpt lat="41.70145822709692" lon="13.562810240324904"><ele>275.0</ele><time>2026-04-18T15:24:09Z</time></trkpt><trkpt lat="41.701588198543405" lon="13.562602289192306"><ele>276.0</ele><time>2026-04-18T15:24:10Z</time></trkpt><trkpt lat="41.70169674343602" lon="13.562408629837588"><ele>277.0</ele><time>2026-04-18T15:24:11Z</time></trkpt><trkpt lat="41.701782957850156" lon="13.562236064314225"><ele>277.0</ele><time>2026-04-18T15:24:12Z</time></trkpt><trkpt lat="41.70186528746631" lon="13.562060796089419"><ele>277.0</ele><time>2026-04-18T15:24:13Z</time></trkpt><trkpt lat="41.70189383056146" lon="13.561918079553962"><ele>277.0</ele><time>2026-04-18T15:24:14Z</time></trkpt><trkpt lat="41.701964096776756" lon="13.561818755105955"><ele>277.0</ele><time>2026-04-18T15:24:15Z</time></trkpt><trkpt lat="41.70207235413427" lon="13.561742340525507"><ele>277.4</ele><time>2026-04-18T15:24:17Z</time></trkpt><trkpt lat="41.702148958345" lon="13.561672062843128"><ele>277.79999999999995</ele><time>2026-04-18T15:24:20Z</time></trkpt><trkpt lat="41.7022217564362" lon="13.56173841503891"><ele>278.2</ele><time>2026-04-18T15:24:23Z</time></trkpt><trkpt lat="41.70229839184275" lon="13.56170013070596"><ele>278.59999999999997</ele><time>2026-04-18T15:24:24Z</time></trkpt><trkpt lat="41.70242490166562" lon="13.56161112290527"><ele>279.0</ele><time>2026-04-18T15:24:25Z</time></trkpt><trkpt lat="41.70248358852093" lon="13.561567972110943"><ele>279.0</ele><time>2026-04-18T15:24:26Z</time></trkpt><trkpt lat="41.702420728693575" lon="13.561368288502322"><ele>279.0</ele><time>2026-04-18T15:24:27Z</time></trkpt><trkpt lat="41.70242364002171" lon="13.561222451367946"><ele>279.0</ele><time>2026-04-18T15:24:28Z</time></trkpt><trkpt lat="41.70242579530409" lon="13.561010054188596"><ele>279.0</ele><time>2026-04-18T15:24:29Z</time></trkpt><trkpt lat="41.70241589120508" lon="13.560857024879995"><ele>280.5</ele><time>2026-04-18T15:24:30Z</time></trkpt><trkpt lat="41.70248970362827" lon="13.560696234867567"><ele>282.0</ele><time>2026-04-18T15:24:31Z</time></trkpt><trkpt lat="41.702576135479696" lon="13.560556127192864"><ele>283.5</ele><time>2026-04-18T15:24:32Z</time></trkpt><trkpt lat="41.70267931700469" lon="13.560382126596265"><ele>285.0</ele><time>2026-04-18T15:24:32.999Z</time></trkpt><trkpt lat="41.70282222335342" lon="13.560142616670536"><ele>286.5</ele><time>2026-04-18T15:24:33.999Z</time></trkpt><trkpt lat="41.70297620717488" lon="13.559882172949866"><ele>288.0</ele><time>2026-04-18T15:24:34.999Z</time></trkpt><trkpt lat="41.7031349773071" lon="13.559643371167537"><ele>291.0</ele><time>2026-04-18T15:24:35.999Z</time></trkpt><trkpt lat="41.70330713978617" lon="13.559391265426903"><ele>294.0</ele><time>2026-04-18T15:24:36.999Z</time></trkpt><trkpt lat="41.703471723315175" lon="13.559149245663356"><ele>297.0</ele><time>2026-04-18T15:24:37.999Z</time></trkpt><trkpt lat="41.703644843868055" lon="13.558890570912093"><ele>300.0</ele><time>2026-04-18T15:24:38.999Z</time></trkpt><trkpt lat="41.703815968441184" lon="13.558636653486058"><ele>300.0</ele><time>2026-04-18T15:24:39.999Z</time></trkpt><trkpt lat="41.70396457495461" lon="13.558422550801291"><ele>300.0</ele><time>2026-04-18T15:24:40.999Z</time></trkpt><trkpt lat="41.70408588044163" lon="13.55826967526851"><ele>300.0</ele><time>2026-04-18T15:24:41.999Z</time></trkpt><trkpt lat="41.704167373948984" lon="13.558175463931818"><ele>300.0</ele><time>2026-04-18T15:24:42.999Z</time></trkpt><trkpt lat="41.70423812882273" lon="13.55814302803214"><ele>300.0</ele><time>2026-04-18T15:24:43.999Z</time></trkpt><trkpt lat="41.704349539584456" lon="13.55810689788509"><ele>300.0</ele><time>2026-04-18T15:24:44.999Z</time></trkpt><trkpt lat="41.704503845129956" lon="13.558055396046361"><ele>300.0</ele><time>2026-04-18T15:24:45.999Z</time></trkpt><trkpt lat="41.7046309700104" lon="13.558094931757147"><ele>301.0</ele><time>2026-04-18T15:24:46.999Z</time></trkpt><trkpt lat="41.704749728602835" lon="13.558167296738205"><ele>302.0</ele><time>2026-04-18T15:24:47.999Z</time></trkpt><trkpt lat="41.70485084800943" lon="13.55828091788058"><ele>303.0</ele><time>2026-04-18T15:24:48.999Z</time></trkpt><trkpt lat="41.704935439656246" lon="13.558411666810144"><ele>304.0</ele><time>2026-04-18T15:24:49.999Z</time></trkpt><trkpt lat="41.7049691818497" lon="13.558590431798216"><ele>305.25</ele><time>2026-04-18T15:24:50.999Z</time></trkpt><trkpt lat="41.70499562212456" lon="13.558762509207678"><ele>306.5</ele><time>2026-04-18T15:24:51.999Z</time></trkpt><trkpt lat="41.70500810793411" lon="13.558933130697325"><ele>307.75</ele><time>2026-04-18T15:24:52.999Z</time></trkpt><trkpt lat="41.70497501561427" lon="13.559099459773424"><ele>309.0</ele><time>2026-04-18T15:24:53.999Z</time></trkpt><trkpt lat="41.70491570801104" lon="13.559221439995635"><ele>309.0</ele><time>2026-04-18T15:24:54.999Z</time></trkpt><trkpt lat="41.70482567221291" lon="13.559314529583673"><ele>309.0</ele><time>2026-04-18T15:24:55.999Z</time></trkpt><trkpt lat="41.70470066386233" lon="13.559355634710409"><ele>309.0</ele><time>2026-04-18T15:24:56.999Z</time></trkpt><trkpt lat="41.70456320846932" lon="13.559351097220445"><ele>309.0</ele><time>2026-04-18T15:24:57.999Z</time></trkpt><trkpt lat="41.70440809043076" lon="13.55928662537752"><ele>306.3333333333333</ele><time>2026-04-18T15:24:58.999Z</time></trkpt><trkpt lat="41.70424139621307" lon="13.5591649527094"><ele>303.66666666666663</ele><time>2026-04-18T15:24:59.999Z</time></trkpt><trkpt lat="41.70409298393987" lon="13.559083058325832"><ele>301.0</ele><time>2026-04-18T15:25:00.999Z</time></trkpt><trkpt lat="41.703767377619705" lon="13.558748463793394"><ele>300.5</ele><time>2026-04-18T15:25:01.999Z</time></trkpt><trkpt lat="41.70353771379855" lon="13.558466123112497"><ele>300.0</ele><time>2026-04-18T15:25:02.999Z</time></trkpt><trkpt lat="41.703281209530076" lon="13.558175750239133"><ele>300.0</ele><time>2026-04-18T15:25:03.999Z</time></trkpt><trkpt lat="41.70301541491483" lon="13.557881633939978"><ele>300.0</ele><time>2026-04-18T15:25:04.999Z</time></trkpt><trkpt lat="41.70276276130098" lon="13.557592195292049"><ele>303.5</ele><time>2026-04-18T15:25:05.999Z</time></trkpt><trkpt lat="41.702490593489294" lon="13.557269778758029"><ele>307.0</ele><time>2026-04-18T15:25:06.999Z</time></trkpt><trkpt lat="41.7022145902164" lon="13.556952494948138"><ele>310.0</ele><time>2026-04-18T15:25:07.999Z</time></trkpt><trkpt lat="41.70189033683189" lon="13.556633712616625"><ele>313.0</ele><time>2026-04-18T15:25:08.999Z</time></trkpt><trkpt lat="41.701550811743715" lon="13.556327152243538"><ele>312.0</ele><time>2026-04-18T15:25:09.999Z</time></trkpt><trkpt lat="41.701219209549556" lon="13.556021249791717"><ele>311.0</ele><time>2026-04-18T15:25:10.999Z</time></trkpt><trkpt lat="41.70087819202558" lon="13.555723937589184"><ele>311.0</ele><time>2026-04-18T15:25:11.999Z</time></trkpt><trkpt lat="41.700546269586745" lon="13.555447561478141"><ele>311.0</ele><time>2026-04-18T15:25:12.999Z</time></trkpt><trkpt lat="41.700233038647845" lon="13.55520008041464"><ele>313.5</ele><time>2026-04-18T15:25:13.999Z</time></trkpt><trkpt lat="41.69990424743955" lon="13.554962582241172"><ele>316.0</ele><time>2026-04-18T15:25:14.999Z</time></trkpt><trkpt lat="41.699582486231094" lon="13.554734485221815"><ele>314.0</ele><time>2026-04-18T15:25:15.999Z</time></trkpt><trkpt lat="41.699267942980434" lon="13.55451131601095"><ele>312.0</ele><time>2026-04-18T15:25:16.999Z</time></trkpt><trkpt lat="41.69896651699724" lon="13.55428701148029"><ele>312.0</ele><time>2026-04-18T15:25:17.999Z</time></trkpt><trkpt lat="41.69867390842103" lon="13.554051473118175"><ele>312.0</ele><time>2026-04-18T15:25:18.999Z</time></trkpt><trkpt lat="41.6983800078187" lon="13.55381049115155"><ele>308.0</ele><time>2026-04-18T15:25:19.999Z</time></trkpt><trkpt lat="41.69817576687083" lon="13.553545437814025"><ele>304.0</ele><time>2026-04-18T15:25:20.999Z</time></trkpt><trkpt lat="41.69789906353985" lon="13.553282698688317"><ele>302.5</ele><time>2026-04-18T15:25:21.999Z</time></trkpt><trkpt lat="41.69762161236187" lon="13.553013265134302"><ele>301.0</ele><time>2026-04-18T15:25:22.999Z</time></trkpt><trkpt lat="41.69734445501856" lon="13.552742594032733"><ele>301.0</ele><time>2026-04-18T15:25:23.999Z</time></trkpt><trkpt lat="41.69705972921098" lon="13.552461511406339"><ele>301.0</ele><time>2026-04-18T15:25:24.999Z</time></trkpt><trkpt lat="41.69678910735394" lon="13.552168376305342"><ele>299.5</ele><time>2026-04-18T15:25:25.999Z</time></trkpt><trkpt lat="41.69652056936743" lon="13.551868516817105"><ele>298.0</ele><time>2026-04-18T15:25:26.999Z</time></trkpt><trkpt lat="41.69624599641573" lon="13.55154258552415"><ele>296.0</ele><time>2026-04-18T15:25:27.999Z</time></trkpt><trkpt lat="41.69595445156894" lon="13.551205233516013"><ele>294.0</ele><time>2026-04-18T15:25:28.999Z</time></trkpt><trkpt lat="41.69565817063713" lon="13.55086150224237"><ele>294.0</ele><time>2026-04-18T15:25:30Z</time></trkpt><trkpt lat="41.695358273573206" lon="13.550511870323207"><ele>294.0</ele><time>2026-04-18T15:25:31Z</time></trkpt><trkpt lat="41.69504062465492" lon="13.550149015786163"><ele>290.5</ele><time>2026-04-18T15:25:32Z</time></trkpt><trkpt lat="41.69470687559261" lon="13.549783001027706"><ele>287.0</ele><time>2026-04-18T15:25:33Z</time></trkpt><trkpt lat="41.69437216830597" lon="13.549397210676876"><ele>283.0</ele><time>2026-04-18T15:25:34Z</time></trkpt><trkpt lat="41.694031403552664" lon="13.54900540956996"><ele>279.0</ele><time>2026-04-18T15:25:35Z</time></trkpt><trkpt lat="41.69368732117828" lon="13.548616839437077"><ele>275.0</ele><time>2026-04-18T15:25:36Z</time></trkpt><trkpt lat="41.69333217452342" lon="13.548218297653683"><ele>274.0</ele><time>2026-04-18T15:25:37Z</time></trkpt><trkpt lat="41.692975158915644" lon="13.547823617580775"><ele>273.0</ele><time>2026-04-18T15:25:38Z</time></trkpt><trkpt lat="41.6926452648905" lon="13.547454742796031"><ele>272.0</ele><time>2026-04-18T15:25:39Z</time></trkpt><trkpt lat="41.6923465027466" lon="13.547106580990725"><ele>269.0</ele><time>2026-04-18T15:25:40Z</time></trkpt><trkpt lat="41.69206272222131" lon="13.546771683718672"><ele>266.0</ele><time>2026-04-18T15:25:41Z</time></trkpt><trkpt lat="41.69179187623568" lon="13.546413571852863"><ele>263.5</ele><time>2026-04-18T15:25:42Z</time></trkpt><trkpt lat="41.691528855970375" lon="13.546059280663949"><ele>261.0</ele><time>2026-04-18T15:25:43Z</time></trkpt><trkpt lat="41.69128897374897" lon="13.54568898105866"><ele>259.5</ele><time>2026-04-18T15:25:44Z</time></trkpt><trkpt lat="41.691056231815594" lon="13.545293616579857"><ele>258.0</ele><time>2026-04-18T15:25:45Z</time></trkpt><trkpt lat="41.6908297842917" lon="13.54487632094007"><ele>260.5</ele><time>2026-04-18T15:25:46Z</time></trkpt><trkpt lat="41.690622668933074" lon="13.544478371791275"><ele>263.0</ele><time>2026-04-18T15:25:47Z</time></trkpt><trkpt lat="41.69042557564784" lon="13.544055784665334"><ele>265.5</ele><time>2026-04-18T15:25:48Z</time></trkpt><trkpt lat="41.69024740948814" lon="13.543626647635678"><ele>268.0</ele><time>2026-04-18T15:25:49Z</time></trkpt><trkpt lat="41.690090949511536" lon="13.543191868325822"><ele>269.0</ele><time>2026-04-18T15:25:50Z</time></trkpt><trkpt lat="41.68993054550389" lon="13.54275023668689"><ele>270.0</ele><time>2026-04-18T15:25:51Z</time></trkpt><trkpt lat="41.68978125903743" lon="13.542309875800651"><ele>270.5</ele><time>2026-04-18T15:25:52Z</time></trkpt><trkpt lat="41.6896330769616" lon="13.541878253895042"><ele>271.0</ele><time>2026-04-18T15:25:53Z</time></trkpt><trkpt lat="41.68949379187578" lon="13.541448118839266"><ele>267.0</ele><time>2026-04-18T15:25:54Z</time></trkpt><trkpt lat="41.68935387489145" lon="13.5410366906285"><ele>263.0</ele><time>2026-04-18T15:25:55Z</time></trkpt><trkpt lat="41.689216840039805" lon="13.540625476411254"><ele>262.0</ele><time>2026-04-18T15:25:56Z</time></trkpt><trkpt lat="41.68906632323496" lon="13.540236578771266"><ele>261.0</ele><time>2026-04-18T15:25:57Z</time></trkpt><trkpt lat="41.688932632009504" lon="13.539854742937896"><ele>259.0</ele><time>2026-04-18T15:25:58Z</time></trkpt><trkpt lat="41.688790335769404" lon="13.539479439178514"><ele>257.0</ele><time>2026-04-18T15:25:59Z</time></trkpt><trkpt lat="41.68864484392625" lon="13.539110811612561"><ele>256.0</ele><time>2026-04-18T15:26:00Z</time></trkpt><trkpt lat="41.688486385295086" lon="13.538749636268532"><ele>255.0</ele><time>2026-04-18T15:26:01Z</time></trkpt><trkpt lat="41.688323084106706" lon="13.538398790236673"><ele>254.0</ele><time>2026-04-18T15:26:02Z</time></trkpt><trkpt lat="41.68815697025058" lon="13.538051934786138"><ele>253.0</ele><time>2026-04-18T15:26:03Z</time></trkpt><trkpt lat="41.687976852052685" lon="13.537724751209257"><ele>255.0</ele><time>2026-04-18T15:26:04Z</time></trkpt><trkpt lat="41.687805305562605" lon="13.537399960457002"><ele>257.0</ele><time>2026-04-18T15:26:05Z</time></trkpt><trkpt lat="41.6876285179944" lon="13.537082315498344"><ele>257.0</ele><time>2026-04-18T15:26:06Z</time></trkpt><trkpt lat="41.6874494875033" lon="13.536772937813906"><ele>257.0</ele><time>2026-04-18T15:26:07Z</time></trkpt><trkpt lat="41.68726389346147" lon="13.536465012762315"><ele>254.5</ele><time>2026-04-18T15:26:08Z</time></trkpt><trkpt lat="41.68707526208071" lon="13.536164554038107"><ele>252.0</ele><time>2026-04-18T15:26:09Z</time></trkpt><trkpt lat="41.6868743055002" lon="13.535861972986709"><ele>249.5</ele><time>2026-04-18T15:26:10Z</time></trkpt><trkpt lat="41.6866450061837" lon="13.535539969816346"><ele>247.0</ele><time>2026-04-18T15:26:11Z</time></trkpt><trkpt lat="41.68641113557629" lon="13.535220756198486"><ele>243.5</ele><time>2026-04-18T15:26:12Z</time></trkpt><trkpt lat="41.68616052798168" lon="13.53488500832888"><ele>240.0</ele><time>2026-04-18T15:26:13Z</time></trkpt><trkpt lat="41.6858989331092" lon="13.534523417369737"><ele>239.5</ele><time>2026-04-18T15:26:14Z</time></trkpt><trkpt lat="41.685628086914534" lon="13.534140153459585"><ele>239.0</ele><time>2026-04-18T15:26:15Z</time></trkpt><trkpt lat="41.68534745768157" lon="13.533742190049642"><ele>238.0</ele><time>2026-04-18T15:26:16Z</time></trkpt><trkpt lat="41.68505911138139" lon="13.53333410167181"><ele>237.0</ele><time>2026-04-18T15:26:17Z</time></trkpt><trkpt lat="41.68476318157238" lon="13.532917893227483"><ele>236.0</ele><time>2026-04-18T15:26:18Z</time></trkpt><trkpt lat="41.68446002252377" lon="13.532497381193936"><ele>235.0</ele><time>2026-04-18T15:26:19Z</time></trkpt><trkpt lat="41.68415383190868" lon="13.532069992962766"><ele>234.5</ele><time>2026-04-18T15:26:20Z</time></trkpt><trkpt lat="41.68384346975778" lon="13.53163605134392"><ele>234.0</ele><time>2026-04-18T15:26:21Z</time></trkpt><trkpt lat="41.683528874414215" lon="13.531196732252676"><ele>234.0</ele><time>2026-04-18T15:26:22Z</time></trkpt><trkpt lat="41.68320961445602" lon="13.530751038242267"><ele>235.0</ele><time>2026-04-18T15:26:23Z</time></trkpt><trkpt lat="41.68292180220361" lon="13.530320282802698"><ele>236.0</ele><time>2026-04-18T15:26:24Z</time></trkpt><trkpt lat="41.68267119061403" lon="13.529917500594438"><ele>237.0</ele><time>2026-04-18T15:26:25Z</time></trkpt><trkpt lat="41.68243855565557" lon="13.529532304045741"><ele>238.0</ele><time>2026-04-18T15:26:26Z</time></trkpt><trkpt lat="41.682236141418784" lon="13.529163035741286"><ele>238.0</ele><time>2026-04-18T15:26:27Z</time></trkpt><trkpt lat="41.68204103504142" lon="13.528810439529085"><ele>238.0</ele><time>2026-04-18T15:26:28Z</time></trkpt><trkpt lat="41.68187989518818" lon="13.528472936660554"><ele>237.0</ele><time>2026-04-18T15:26:29Z</time></trkpt><trkpt lat="41.681713669792856" lon="13.528132624505291"><ele>236.0</ele><time>2026-04-18T15:26:30Z</time></trkpt><trkpt lat="41.681554188162416" lon="13.527789636828595"><ele>236.0</ele><time>2026-04-18T15:26:31Z</time></trkpt><trkpt lat="41.68140640223752" lon="13.527434142542253"><ele>236.0</ele><time>2026-04-18T15:26:32Z</time></trkpt><trkpt lat="41.68126291369301" lon="13.527073170899305"><ele>238.0</ele><time>2026-04-18T15:26:33Z</time></trkpt><trkpt lat="41.6811114710189" lon="13.52670670860969"><ele>240.0</ele><time>2026-04-18T15:26:34Z</time></trkpt><trkpt lat="41.68096387797551" lon="13.526324070883577"><ele>237.5</ele><time>2026-04-18T15:26:35Z</time></trkpt><trkpt lat="41.68081494068609" lon="13.52592613830877"><ele>235.0</ele><time>2026-04-18T15:26:35.999Z</time></trkpt><trkpt lat="41.6806590049092" lon="13.525517526560257"><ele>237.0</ele><time>2026-04-18T15:26:36.999Z</time></trkpt><trkpt lat="41.68050053919587" lon="13.525102798427504"><ele>239.0</ele><time>2026-04-18T15:26:37.999Z</time></trkpt><trkpt lat="41.6803390622563" lon="13.52468769119514"><ele>241.5</ele><time>2026-04-18T15:26:38.999Z</time></trkpt><trkpt lat="41.68016562367095" lon="13.52428613419712"><ele>244.0</ele><time>2026-04-18T15:26:39.999Z</time></trkpt><trkpt lat="41.679999583064436" lon="13.52386508735788"><ele>246.5</ele><time>2026-04-18T15:26:40.999Z</time></trkpt><trkpt lat="41.679831101575274" lon="13.523438265222161"><ele>249.0</ele><time>2026-04-18T15:26:41.999Z</time></trkpt><trkpt lat="41.67965909591199" lon="13.523003419131722"><ele>248.0</ele><time>2026-04-18T15:26:42.999Z</time></trkpt><trkpt lat="41.67948440621865" lon="13.522561649411221"><ele>247.0</ele><time>2026-04-18T15:26:43.999Z</time></trkpt><trkpt lat="41.679308722235234" lon="13.522113957837826"><ele>247.0</ele><time>2026-04-18T15:26:44.999Z</time></trkpt><trkpt lat="41.679133664688905" lon="13.521669777043309"><ele>247.0</ele><time>2026-04-18T15:26:45.999Z</time></trkpt><trkpt lat="41.678960489090066" lon="13.521228366828888"><ele>251.0</ele><time>2026-04-18T15:26:46.999Z</time></trkpt><trkpt lat="41.67878878947992" lon="13.520791014649534"><ele>255.0</ele><time>2026-04-18T15:26:47.999Z</time></trkpt><trkpt lat="41.67861624926814" lon="13.52035152106581"><ele>254.5</ele><time>2026-04-18T15:26:48.999Z</time></trkpt><trkpt lat="41.678445653292314" lon="13.51991644362015"><ele>254.0</ele><time>2026-04-18T15:26:49.999Z</time></trkpt><trkpt lat="41.678278339009445" lon="13.519482951675977"><ele>258.0</ele><time>2026-04-18T15:26:50.999Z</time></trkpt><trkpt lat="41.67812176512945" lon="13.519047592785693"><ele>262.0</ele><time>2026-04-18T15:26:51.999Z</time></trkpt><trkpt lat="41.67798569388292" lon="13.518603161288501"><ele>258.5</ele><time>2026-04-18T15:26:52.999Z</time></trkpt><trkpt lat="41.67784176867267" lon="13.51816141955489"><ele>255.0</ele><time>2026-04-18T15:26:53.999Z</time></trkpt><trkpt lat="41.67768914047911" lon="13.517725783133532"><ele>255.0</ele><time>2026-04-18T15:26:54.999Z</time></trkpt><trkpt lat="41.67755973077284" lon="13.517279491133165"><ele>255.0</ele><time>2026-04-18T15:26:55.999Z</time></trkpt><trkpt lat="41.67743716732376" lon="13.516833989063098"><ele>256.5</ele><time>2026-04-18T15:26:56.999Z</time></trkpt><trkpt lat="41.677325694683034" lon="13.516403335249022"><ele>258.0</ele><time>2026-04-18T15:26:57.999Z</time></trkpt><trkpt lat="41.677220805836406" lon="13.515987272388816"><ele>262.0</ele><time>2026-04-18T15:26:58.999Z</time></trkpt><trkpt lat="41.6771136841442" lon="13.515557886708123"><ele>266.0</ele><time>2026-04-18T15:26:59.999Z</time></trkpt><trkpt lat="41.67700375346279" lon="13.515117241551334"><ele>265.0</ele><time>2026-04-18T15:27:00.999Z</time></trkpt><trkpt lat="41.67689168151447" lon="13.51466830967379"><ele>264.0</ele><time>2026-04-18T15:27:01.999Z</time></trkpt><trkpt lat="41.676779602265086" lon="13.514219765227685"><ele>264.0</ele><time>2026-04-18T15:27:02.999Z</time></trkpt><trkpt lat="41.67666457737472" lon="13.513759432414462"><ele>264.0</ele><time>2026-04-18T15:27:03.999Z</time></trkpt><trkpt lat="41.6765473394195" lon="13.513290731621693"><ele>269.5</ele><time>2026-04-18T15:27:04.999Z</time></trkpt><trkpt lat="41.676428321827295" lon="13.512815582530902"><ele>275.0</ele><time>2026-04-18T15:27:05.999Z</time></trkpt><trkpt lat="41.67630577908979" lon="13.51232658648922"><ele>274.0</ele><time>2026-04-18T15:27:06.999Z</time></trkpt><trkpt lat="41.6761819454674" lon="13.511826505258053"><ele>273.0</ele><time>2026-04-18T15:27:07.999Z</time></trkpt><trkpt lat="41.676058179250056" lon="13.51130747315058"><ele>277.0</ele><time>2026-04-18T15:27:08.999Z</time></trkpt><trkpt lat="41.67598215050053" lon="13.510765557781959"><ele>281.0</ele><time>2026-04-18T15:27:09.999Z</time></trkpt><trkpt lat="41.67590363657519" lon="13.510233735132571"><ele>284.0</ele><time>2026-04-18T15:27:10.999Z</time></trkpt><trkpt lat="41.67585619266591" lon="13.509749304619637"><ele>287.0</ele><time>2026-04-18T15:27:11.999Z</time></trkpt><trkpt lat="41.67583361475696" lon="13.509298565714815"><ele>289.5</ele><time>2026-04-18T15:27:12.999Z</time></trkpt><trkpt lat="41.675825181002004" lon="13.508860584414668"><ele>292.0</ele><time>2026-04-18T15:27:13.999Z</time></trkpt><trkpt lat="41.675831696325865" lon="13.508424951726653"><ele>294.0</ele><time>2026-04-18T15:27:14.999Z</time></trkpt><trkpt lat="41.67585869572492" lon="13.50798609645253"><ele>296.0</ele><time>2026-04-18T15:27:15.999Z</time></trkpt><trkpt lat="41.67590072934394" lon="13.507543870913068"><ele>296.0</ele><time>2026-04-18T15:27:16.999Z</time></trkpt><trkpt lat="41.675962033599156" lon="13.507101453753883"><ele>296.0</ele><time>2026-04-18T15:27:17.999Z</time></trkpt><trkpt lat="41.67604556932885" lon="13.506645597213858"><ele>303.5</ele><time>2026-04-18T15:27:18.999Z</time></trkpt><trkpt lat="41.67614153339359" lon="13.506181720325632"><ele>311.0</ele><time>2026-04-18T15:27:19.999Z</time></trkpt><trkpt lat="41.676263070968346" lon="13.505722993639354"><ele>307.5</ele><time>2026-04-18T15:27:20.999Z</time></trkpt><trkpt lat="41.6764122486297" lon="13.505270355471394"><ele>304.0</ele><time>2026-04-18T15:27:21.999Z</time></trkpt><trkpt lat="41.67658756578377" lon="13.504821694915083"><ele>301.5</ele><time>2026-04-18T15:27:22.999Z</time></trkpt><trkpt lat="41.67678442524974" lon="13.504374911606321"><ele>299.0</ele><time>2026-04-18T15:27:23.999Z</time></trkpt><trkpt lat="41.67698281880282" lon="13.503920622863777"><ele>302.0</ele><time>2026-04-18T15:27:24.999Z</time></trkpt><trkpt lat="41.67717527785178" lon="13.503453056014823"><ele>305.0</ele><time>2026-04-18T15:27:25.999Z</time></trkpt><trkpt lat="41.67736239795015" lon="13.502988708758865"><ele>305.0</ele><time>2026-04-18T15:27:26.999Z</time></trkpt><trkpt lat="41.677539290956" lon="13.502543445068776"><ele>305.0</ele><time>2026-04-18T15:27:27.999Z</time></trkpt><trkpt lat="41.67769624633139" lon="13.502130246070775"><ele>309.5</ele><time>2026-04-18T15:27:28.999Z</time></trkpt><trkpt lat="41.677841351041145" lon="13.501718616828592"><ele>314.0</ele><time>2026-04-18T15:27:29.999Z</time></trkpt><trkpt lat="41.677985635026936" lon="13.501291889596109"><ele>315.5</ele><time>2026-04-18T15:27:30.999Z</time></trkpt><trkpt lat="41.67813155481496" lon="13.500849976248166"><ele>317.0</ele><time>2026-04-18T15:27:31.999Z</time></trkpt><trkpt lat="41.6782776145213" lon="13.500389266105557"><ele>317.0</ele><time>2026-04-18T15:27:32.999Z</time></trkpt><trkpt lat="41.67841830344742" lon="13.499910848044621"><ele>317.0</ele><time>2026-04-18T15:27:33.999Z</time></trkpt><trkpt lat="41.67855603802697" lon="13.49941485406144"><ele>321.0</ele><time>2026-04-18T15:27:34.999Z</time></trkpt><trkpt lat="41.67868397786172" lon="13.498902274023287"><ele>325.0</ele><time>2026-04-18T15:27:36Z</time></trkpt><trkpt lat="41.67880950011483" lon="13.498383156141815"><ele>324.5</ele><time>2026-04-18T15:27:37Z</time></trkpt><trkpt lat="41.67892597761344" lon="13.497843329626853"><ele>324.0</ele><time>2026-04-18T15:27:38Z</time></trkpt><trkpt lat="41.67903416903417" lon="13.497294994349865"><ele>323.5</ele><time>2026-04-18T15:27:39Z</time></trkpt><trkpt lat="41.67913437832111" lon="13.496729423990661"><ele>323.0</ele><time>2026-04-18T15:27:40Z</time></trkpt><trkpt lat="41.67922833500883" lon="13.496154173520125"><ele>322.0</ele><time>2026-04-18T15:27:41Z</time></trkpt><trkpt lat="41.67931018076491" lon="13.495569711202997"><ele>321.0</ele><time>2026-04-18T15:27:42Z</time></trkpt><trkpt lat="41.67938350344144" lon="13.49498012560224"><ele>322.0</ele><time>2026-04-18T15:27:43Z</time></trkpt><trkpt lat="41.679453383003924" lon="13.494427987798097"><ele>323.0</ele><time>2026-04-18T15:27:44Z</time></trkpt><trkpt lat="41.67951790421763" lon="13.493925933749013"><ele>320.0</ele><time>2026-04-18T15:27:45Z</time></trkpt><trkpt lat="41.679580681933295" lon="13.493449676979587"><ele>317.0</ele><time>2026-04-18T15:27:46Z</time></trkpt><trkpt lat="41.679638624177336" lon="13.492989500568134"><ele>316.5</ele><time>2026-04-18T15:27:47Z</time></trkpt><trkpt lat="41.6796938461818" lon="13.49253680642264"><ele>316.0</ele><time>2026-04-18T15:27:48Z</time></trkpt><trkpt lat="41.679740714427275" lon="13.492082902334989"><ele>315.0</ele><time>2026-04-18T15:27:49Z</time></trkpt><trkpt lat="41.6797710676837" lon="13.491618889447668"><ele>314.0</ele><time>2026-04-18T15:27:50Z</time></trkpt><trkpt lat="41.67978645464436" lon="13.491149197877588"><ele>312.0</ele><time>2026-04-18T15:27:51Z</time></trkpt><trkpt lat="41.6797848631124" lon="13.490675631434861"><ele>310.0</ele><time>2026-04-18T15:27:52Z</time></trkpt><trkpt lat="41.67976718931491" lon="13.490196402456059"><ele>309.5</ele><time>2026-04-18T15:27:53Z</time></trkpt><trkpt lat="41.67973666080106" lon="13.489719620129906"><ele>309.0</ele><time>2026-04-18T15:27:54Z</time></trkpt><trkpt lat="41.67969300765305" lon="13.489266958697904"><ele>309.0</ele><time>2026-04-18T15:27:55Z</time></trkpt><trkpt lat="41.679640914645304" lon="13.488847774059218"><ele>309.0</ele><time>2026-04-18T15:27:56Z</time></trkpt><trkpt lat="41.67957693307974" lon="13.488447558898072"><ele>310.0</ele><time>2026-04-18T15:27:57Z</time></trkpt><trkpt lat="41.67950185700278" lon="13.48805967032929"><ele>311.0</ele><time>2026-04-18T15:27:58Z</time></trkpt><trkpt lat="41.679412259016175" lon="13.48766656381409"><ele>308.5</ele><time>2026-04-18T15:27:59Z</time></trkpt><trkpt lat="41.67931511994751" lon="13.487278275700435"><ele>306.0</ele><time>2026-04-18T15:28:00Z</time></trkpt><trkpt lat="41.6792080134072" lon="13.486887562070518"><ele>304.5</ele><time>2026-04-18T15:28:01Z</time></trkpt><trkpt lat="41.679087913964075" lon="13.486498854443843"><ele>303.0</ele><time>2026-04-18T15:28:02Z</time></trkpt><trkpt lat="41.67895337409864" lon="13.48610964468703"><ele>301.5</ele><time>2026-04-18T15:28:03Z</time></trkpt><trkpt lat="41.67881274398113" lon="13.485710877334409"><ele>300.0</ele><time>2026-04-18T15:28:04Z</time></trkpt><trkpt lat="41.678669030310814" lon="13.485308724550897"><ele>297.5</ele><time>2026-04-18T15:28:05Z</time></trkpt><trkpt lat="41.67853145864466" lon="13.484899320293039"><ele>295.0</ele><time>2026-04-18T15:28:06Z</time></trkpt><trkpt lat="41.678400294889684" lon="13.484500592926517"><ele>294.5</ele><time>2026-04-18T15:28:07Z</time></trkpt><trkpt lat="41.67826824851159" lon="13.484114426465142"><ele>294.0</ele><time>2026-04-18T15:28:08Z</time></trkpt><trkpt lat="41.67813791438026" lon="13.483707352024814"><ele>292.5</ele><time>2026-04-18T15:28:09Z</time></trkpt><trkpt lat="41.67801138919978" lon="13.483276976090016"><ele>291.0</ele><time>2026-04-18T15:28:10Z</time></trkpt><trkpt lat="41.67789659688721" lon="13.482813258023514"><ele>290.5</ele><time>2026-04-18T15:28:11Z</time></trkpt><trkpt lat="41.677788812579344" lon="13.482339502448248"><ele>290.0</ele><time>2026-04-18T15:28:12Z</time></trkpt><trkpt lat="41.677700394538995" lon="13.481855045367809"><ele>290.0</ele><time>2026-04-18T15:28:13Z</time></trkpt><trkpt lat="41.677626804249414" lon="13.48136113077199"><ele>290.0</ele><time>2026-04-18T15:28:14Z</time></trkpt><trkpt lat="41.677570050319105" lon="13.480865771361549"><ele>292.5</ele><time>2026-04-18T15:28:15Z</time></trkpt><trkpt lat="41.67753192982162" lon="13.480393749038193"><ele>295.0</ele><time>2026-04-18T15:28:16Z</time></trkpt><trkpt lat="41.67751078498928" lon="13.479937933478464"><ele>296.5</ele><time>2026-04-18T15:28:17Z</time></trkpt><trkpt lat="41.67751398179929" lon="13.479488798525383"><ele>298.0</ele><time>2026-04-18T15:28:18Z</time></trkpt><trkpt lat="41.67752465832793" lon="13.479047799034161"><ele>299.0</ele><time>2026-04-18T15:28:19Z</time></trkpt><trkpt lat="41.67753307394031" lon="13.478608729750224"><ele>300.0</ele><time>2026-04-18T15:28:20Z</time></trkpt><trkpt lat="41.6775392734436" lon="13.478188213451396"><ele>301.5</ele><time>2026-04-18T15:28:21Z</time></trkpt><trkpt lat="41.6775408122074" lon="13.477759704985603"><ele>303.0</ele><time>2026-04-18T15:28:22Z</time></trkpt><trkpt lat="41.67754206668895" lon="13.477347321509475"><ele>303.5</ele><time>2026-04-18T15:28:23Z</time></trkpt><trkpt lat="41.67754654228422" lon="13.476939780511453"><ele>304.0</ele><time>2026-04-18T15:28:24Z</time></trkpt><trkpt lat="41.67755203903013" lon="13.476539407769476"><ele>303.0</ele><time>2026-04-18T15:28:25Z</time></trkpt><trkpt lat="41.67755699799666" lon="13.476144807990588"><ele>302.0</ele><time>2026-04-18T15:28:26Z</time></trkpt><trkpt lat="41.67755954109428" lon="13.475757147445753"><ele>302.5</ele><time>2026-04-18T15:28:27Z</time></trkpt><trkpt lat="41.67755844721507" lon="13.475378293102194"><ele>303.0</ele><time>2026-04-18T15:28:28Z</time></trkpt><trkpt lat="41.67755126587576" lon="13.475001682205408"><ele>304.5</ele><time>2026-04-18T15:28:29Z</time></trkpt><trkpt lat="41.67753586136216" lon="13.474595523919698"><ele>306.0</ele><time>2026-04-18T15:28:30Z</time></trkpt><trkpt lat="41.67750861671441" lon="13.474193105252029"><ele>306.0</ele><time>2026-04-18T15:28:31Z</time></trkpt><trkpt lat="41.67746396399288" lon="13.47377712312736"><ele>306.0</ele><time>2026-04-18T15:28:32Z</time></trkpt><trkpt lat="41.67740413213748" lon="13.473361946298779"><ele>308.5</ele><time>2026-04-18T15:28:33Z</time></trkpt><trkpt lat="41.677324598951316" lon="13.4729591662632"><ele>311.0</ele><time>2026-04-18T15:28:34Z</time></trkpt><trkpt lat="41.677233362963676" lon="13.47258350286084"><ele>315.5</ele><time>2026-04-18T15:28:35Z</time></trkpt><trkpt lat="41.67713410142246" lon="13.472247690059733"><ele>320.0</ele><time>2026-04-18T15:28:36Z</time></trkpt><trkpt lat="41.677020612431555" lon="13.47192716481495"><ele>325.5</ele><time>2026-04-18T15:28:37Z</time></trkpt><trkpt lat="41.67689080411813" lon="13.471610578833465"><ele>331.0</ele><time>2026-04-18T15:28:38Z</time></trkpt><trkpt lat="41.67675393557053" lon="13.471312355314748"><ele>331.0</ele><time>2026-04-18T15:28:39Z</time></trkpt><trkpt lat="41.67660212684916" lon="13.471028028403946"><ele>331.0</ele><time>2026-04-18T15:28:39.999Z</time></trkpt><trkpt lat="41.676441631560095" lon="13.47075407190331"><ele>331.0</ele><time>2026-04-18T15:28:40.999Z</time></trkpt><trkpt lat="41.67627787715407" lon="13.470503685201011"><ele>331.0</ele><time>2026-04-18T15:28:41.999Z</time></trkpt><trkpt lat="41.67610306465507" lon="13.47026590238833"><ele>332.5</ele><time>2026-04-18T15:28:42.999Z</time></trkpt><trkpt lat="41.67592259808962" lon="13.470040662631858"><ele>334.0</ele><time>2026-04-18T15:28:43.999Z</time></trkpt><trkpt lat="41.675737540922164" lon="13.46982775080091"><ele>334.0</ele><time>2026-04-18T15:28:44.999Z</time></trkpt><trkpt lat="41.67554213728198" lon="13.469622960424081"><ele>334.0</ele><time>2026-04-18T15:28:45.999Z</time></trkpt><trkpt lat="41.67534855641644" lon="13.469435440843235"><ele>334.0</ele><time>2026-04-18T15:28:46.999Z</time></trkpt><trkpt lat="41.675147455199436" lon="13.469252901238466"><ele>334.0</ele><time>2026-04-18T15:28:47.999Z</time></trkpt><trkpt lat="41.67494150570465" lon="13.469074522821831"><ele>334.0</ele><time>2026-04-18T15:28:48.999Z</time></trkpt><trkpt lat="41.67474079087964" lon="13.468904733920333"><ele>334.0</ele><time>2026-04-18T15:28:49.999Z</time></trkpt><trkpt lat="41.67454404450869" lon="13.468745172028594"><ele>336.5</ele><time>2026-04-18T15:28:50.999Z</time></trkpt><trkpt lat="41.67434688817177" lon="13.468589779023809"><ele>339.0</ele><time>2026-04-18T15:28:51.999Z</time></trkpt><trkpt lat="41.674152130052875" lon="13.468436420259998"><ele>339.0</ele><time>2026-04-18T15:28:52.999Z</time></trkpt><trkpt lat="41.67395963282577" lon="13.468283524890591"><ele>339.0</ele><time>2026-04-18T15:28:53.999Z</time></trkpt><trkpt lat="41.6737751668749" lon="13.468136065475205"><ele>339.0</ele><time>2026-04-18T15:28:54.999Z</time></trkpt><trkpt lat="41.6735914366094" lon="13.467988940296786"><ele>338.3333333333333</ele><time>2026-04-18T15:28:55.999Z</time></trkpt><trkpt lat="41.673407522439966" lon="13.467841667772147"><ele>337.66666666666663</ele><time>2026-04-18T15:28:56.999Z</time></trkpt><trkpt lat="41.673234017982246" lon="13.4677030115607"><ele>337.0</ele><time>2026-04-18T15:28:57.999Z</time></trkpt><trkpt lat="41.67305379499985" lon="13.467559298742804"><ele>337.0</ele><time>2026-04-18T15:28:58.999Z</time></trkpt><trkpt lat="41.67287488700367" lon="13.467416790621614"><ele>337.0</ele><time>2026-04-18T15:28:59.999Z</time></trkpt><trkpt lat="41.67269444797485" lon="13.46727330254299"><ele>337.0</ele><time>2026-04-18T15:29:00.999Z</time></trkpt><trkpt lat="41.67251571692617" lon="13.467131172600785"><ele>336.66666666666663</ele><time>2026-04-18T15:29:01.999Z</time></trkpt><trkpt lat="41.672335804363506" lon="13.466988103171355"><ele>336.3333333333333</ele><time>2026-04-18T15:29:02.999Z</time></trkpt><trkpt lat="41.67215576317804" lon="13.466844931364603"><ele>336.0</ele><time>2026-04-18T15:29:03.999Z</time></trkpt><trkpt lat="41.67197676444387" lon="13.466702588538867"><ele>335.6666666666667</ele><time>2026-04-18T15:29:04.999Z</time></trkpt><trkpt lat="41.671799726330846" lon="13.466561804838925"><ele>335.33333333333337</ele><time>2026-04-18T15:29:05.999Z</time></trkpt><trkpt lat="41.67162032069069" lon="13.466419290627725"><ele>335.0</ele><time>2026-04-18T15:29:06.999Z</time></trkpt><trkpt lat="41.67144312106993" lon="13.466279452318844"><ele>336.6666666666667</ele><time>2026-04-18T15:29:07.999Z</time></trkpt><trkpt lat="41.6712622956795" lon="13.466136752773055"><ele>338.3333333333333</ele><time>2026-04-18T15:29:08.999Z</time></trkpt><trkpt lat="41.671082227254246" lon="13.465992767995694"><ele>340.0</ele><time>2026-04-18T15:29:09.999Z</time></trkpt><trkpt lat="41.6709039265114" lon="13.465846862980522"><ele>344.0</ele><time>2026-04-18T15:29:10.999Z</time></trkpt><trkpt lat="41.670729747354606" lon="13.465701797036553"><ele>348.0</ele><time>2026-04-18T15:29:11.999Z</time></trkpt><trkpt lat="41.67055714975768" lon="13.465553383297511"><ele>352.0</ele><time>2026-04-18T15:29:12.999Z</time></trkpt><trkpt lat="41.670397246547" lon="13.465410992529467"><ele>357.0</ele><time>2026-04-18T15:29:13.999Z</time></trkpt><trkpt lat="41.670254832417015" lon="13.465279415182716"><ele>362.0</ele><time>2026-04-18T15:29:14.999Z</time></trkpt><trkpt lat="41.67011624297587" lon="13.465147014713713"><ele>367.0</ele><time>2026-04-18T15:29:15.999Z</time></trkpt><trkpt lat="41.66997636304416" lon="13.465007668938188"><ele>367.0</ele><time>2026-04-18T15:29:16.999Z</time></trkpt><trkpt lat="41.66983711781158" lon="13.46486000585811"><ele>367.0</ele><time>2026-04-18T15:29:17.999Z</time></trkpt><trkpt lat="41.66970025477579" lon="13.464708655445007"><ele>367.0</ele><time>2026-04-18T15:29:18.999Z</time></trkpt><trkpt lat="41.669576170456715" lon="13.46456571389308"><ele>368.66666666666663</ele><time>2026-04-18T15:29:19.999Z</time></trkpt><trkpt lat="41.66946662419208" lon="13.464432444970447"><ele>370.3333333333333</ele><time>2026-04-18T15:29:20.999Z</time></trkpt><trkpt lat="41.66935641283087" lon="13.464288671847482"><ele>372.0</ele><time>2026-04-18T15:29:21.999Z</time></trkpt><trkpt lat="41.669249622091606" lon="13.464115381668062"><ele>374.3333333333333</ele><time>2026-04-18T15:29:22.999Z</time></trkpt><trkpt lat="41.66912049409765" lon="13.463941231667969"><ele>376.66666666666663</ele><time>2026-04-18T15:29:23.999Z</time></trkpt><trkpt lat="41.66898847014078" lon="13.463747107367157"><ele>379.0</ele><time>2026-04-18T15:29:24.999Z</time></trkpt><trkpt lat="41.66885756687338" lon="13.463540212588596"><ele>378.66666666666663</ele><time>2026-04-18T15:29:25.999Z</time></trkpt><trkpt lat="41.66872974913815" lon="13.463313615276505"><ele>378.3333333333333</ele><time>2026-04-18T15:29:26.999Z</time></trkpt><trkpt lat="41.66860445980433" lon="13.463075440258809"><ele>378.0</ele><time>2026-04-18T15:29:27.999Z</time></trkpt><trkpt lat="41.668481294570356" lon="13.462827049351834"><ele>378.0</ele><time>2026-04-18T15:29:28.999Z</time></trkpt><trkpt lat="41.66836643286913" lon="13.462568242899208"><ele>378.0</ele><time>2026-04-18T15:29:29.999Z</time></trkpt><trkpt lat="41.66825066586611" lon="13.462300120910388"><ele>380.5</ele><time>2026-04-18T15:29:30.999Z</time></trkpt><trkpt lat="41.668139163376544" lon="13.462029941192188"><ele>383.0</ele><time>2026-04-18T15:29:31.999Z</time></trkpt><trkpt lat="41.66801833976621" lon="13.461772976693592"><ele>383.0</ele><time>2026-04-18T15:29:32.999Z</time></trkpt><trkpt lat="41.667913058571145" lon="13.461506717598745"><ele>383.0</ele><time>2026-04-18T15:29:33.999Z</time></trkpt><trkpt lat="41.66780833496162" lon="13.461238852900022"><ele>382.6666666666667</ele><time>2026-04-18T15:29:34.999Z</time></trkpt><trkpt lat="41.66770604113964" lon="13.460974391480562"><ele>382.3333333333333</ele><time>2026-04-18T15:29:35.999Z</time></trkpt><trkpt lat="41.66760587268536" lon="13.46070938361153"><ele>382.0</ele><time>2026-04-18T15:29:36.999Z</time></trkpt><trkpt lat="41.667504087954306" lon="13.460444417139552"><ele>382.0</ele><time>2026-04-18T15:29:37.999Z</time></trkpt><trkpt lat="41.66740670718221" lon="13.460186242134801"><ele>382.0</ele><time>2026-04-18T15:29:38.999Z</time></trkpt><trkpt lat="41.66731358117523" lon="13.459932076806364"><ele>382.0</ele><time>2026-04-18T15:29:39.999Z</time></trkpt><trkpt lat="41.667225442178946" lon="13.45968433155438"><ele>382.0</ele><time>2026-04-18T15:29:40.999Z</time></trkpt><trkpt lat="41.66714752843118" lon="13.4594521890269"><ele>382.0</ele><time>2026-04-18T15:29:42Z</time></trkpt><trkpt lat="41.667072715114074" lon="13.45921913384249"><ele>382.0</ele><time>2026-04-18T15:29:43Z</time></trkpt><trkpt lat="41.66700157911264" lon="13.45897684291627"><ele>377.3333333333333</ele><time>2026-04-18T15:29:44Z</time></trkpt><trkpt lat="41.666932892687726" lon="13.458731821148762"><ele>372.6666666666667</ele><time>2026-04-18T15:29:45Z</time></trkpt><trkpt lat="41.666870668955426" lon="13.458482262891005"><ele>368.0</ele><time>2026-04-18T15:29:46Z</time></trkpt><trkpt lat="41.66681982916972" lon="13.458230846030776"><ele>368.0</ele><time>2026-04-18T15:29:47Z</time></trkpt><trkpt lat="41.666780134568285" lon="13.457978702234708"><ele>368.0</ele><time>2026-04-18T15:29:48Z</time></trkpt><trkpt lat="41.66674848689576" lon="13.457732721386868"><ele>368.0</ele><time>2026-04-18T15:29:49Z</time></trkpt><trkpt lat="41.66672225879121" lon="13.457480127805308"><ele>367.0</ele><time>2026-04-18T15:29:50Z</time></trkpt><trkpt lat="41.66670350878174" lon="13.45722494310549"><ele>366.0</ele><time>2026-04-18T15:29:51Z</time></trkpt><trkpt lat="41.66669138238008" lon="13.456961048740292"><ele>365.0</ele><time>2026-04-18T15:29:52Z</time></trkpt><trkpt lat="41.66670290211226" lon="13.456685736133792"><ele>365.0</ele><time>2026-04-18T15:29:53Z</time></trkpt><trkpt lat="41.66670322651171" lon="13.456414603614963"><ele>365.0</ele><time>2026-04-18T15:29:54Z</time></trkpt><trkpt lat="41.66671056572635" lon="13.456135958785175"><ele>365.0</ele><time>2026-04-18T15:29:55Z</time></trkpt><trkpt lat="41.66672634791029" lon="13.455848643130672"><ele>363.0</ele><time>2026-04-18T15:29:56Z</time></trkpt><trkpt lat="41.666758695498785" lon="13.455554642710315"><ele>361.0</ele><time>2026-04-18T15:29:57Z</time></trkpt><trkpt lat="41.66679641717593" lon="13.455258177241674"><ele>359.0</ele><time>2026-04-18T15:29:58Z</time></trkpt><trkpt lat="41.66685676213927" lon="13.454961160835254"><ele>354.5</ele><time>2026-04-18T15:29:59Z</time></trkpt><trkpt lat="41.666916712518464" lon="13.454665719073772"><ele>350.0</ele><time>2026-04-18T15:30:00Z</time></trkpt><trkpt lat="41.66699492052309" lon="13.454372104372396"><ele>349.5</ele><time>2026-04-18T15:30:01Z</time></trkpt><trkpt lat="41.66708023052345" lon="13.454077760609016"><ele>349.0</ele><time>2026-04-18T15:30:02Z</time></trkpt><trkpt lat="41.66716976381859" lon="13.45378384660942"><ele>349.0</ele><time>2026-04-18T15:30:03Z</time></trkpt><trkpt lat="41.667259909772405" lon="13.45348967391407"><ele>349.0</ele><time>2026-04-18T15:30:04Z</time></trkpt><trkpt lat="41.667355301509424" lon="13.453194715972788"><ele>357.5</ele><time>2026-04-18T15:30:05Z</time></trkpt><trkpt lat="41.66745345737039" lon="13.452903860468858"><ele>366.0</ele><time>2026-04-18T15:30:06Z</time></trkpt><trkpt lat="41.667552396014855" lon="13.452602636137573"><ele>366.0</ele><time>2026-04-18T15:30:07Z</time></trkpt><trkpt lat="41.66766350309705" lon="13.452284274067466"><ele>366.0</ele><time>2026-04-18T15:30:08Z</time></trkpt><trkpt lat="41.667783157752574" lon="13.45196033622272"><ele>369.0</ele><time>2026-04-18T15:30:09Z</time></trkpt><trkpt lat="41.6678739384696" lon="13.451635346649734"><ele>372.0</ele><time>2026-04-18T15:30:10Z</time></trkpt><trkpt lat="41.66797384092128" lon="13.451331659644326"><ele>375.0</ele><time>2026-04-18T15:30:11Z</time></trkpt><trkpt lat="41.66807062110335" lon="13.451037463881715"><ele>378.0</ele><time>2026-04-18T15:30:12Z</time></trkpt><trkpt lat="41.66818087624136" lon="13.450757087763739"><ele>378.0</ele><time>2026-04-18T15:30:13Z</time></trkpt><trkpt lat="41.66826035682888" lon="13.450461337581315"><ele>378.0</ele><time>2026-04-18T15:30:14Z</time></trkpt><trkpt lat="41.668369426668136" lon="13.450184841521013"><ele>379.0</ele><time>2026-04-18T15:30:15Z</time></trkpt><trkpt lat="41.66846211581024" lon="13.449904546663255"><ele>380.0</ele><time>2026-04-18T15:30:16Z</time></trkpt><trkpt lat="41.66855314302694" lon="13.449624663612218"><ele>379.6666666666667</ele><time>2026-04-18T15:30:17Z</time></trkpt><trkpt lat="41.668644003520875" lon="13.449350632745263"><ele>379.3333333333333</ele><time>2026-04-18T15:30:18Z</time></trkpt><trkpt lat="41.6687298102127" lon="13.449086494976962"><ele>379.0</ele><time>2026-04-18T15:30:19Z</time></trkpt><trkpt lat="41.668802221101394" lon="13.44882743577718"><ele>378.0</ele><time>2026-04-18T15:30:20Z</time></trkpt><trkpt lat="41.66889429786791" lon="13.448546847456628"><ele>377.0</ele><time>2026-04-18T15:30:21Z</time></trkpt><trkpt lat="41.66898232491103" lon="13.448283259847344"><ele>376.0</ele><time>2026-04-18T15:30:22Z</time></trkpt><trkpt lat="41.66906543929589" lon="13.448033122082935"><ele>373.0</ele><time>2026-04-18T15:30:23Z</time></trkpt><trkpt lat="41.669144686206465" lon="13.447792813157388"><ele>370.0</ele><time>2026-04-18T15:30:24Z</time></trkpt><trkpt lat="41.669219761490766" lon="13.447566716964356"><ele>367.0</ele><time>2026-04-18T15:30:25Z</time></trkpt><trkpt lat="41.669294520630444" lon="13.447341909571378"><ele>363.0</ele><time>2026-04-18T15:30:26Z</time></trkpt><trkpt lat="41.66936694076863" lon="13.44711603736972"><ele>359.0</ele><time>2026-04-18T15:30:27Z</time></trkpt><trkpt lat="41.66943788587538" lon="13.446886283236518"><ele>355.0</ele><time>2026-04-18T15:30:28Z</time></trkpt><trkpt lat="41.66950927087727" lon="13.44664760699113"><ele>353.3333333333333</ele><time>2026-04-18T15:30:29Z</time></trkpt><trkpt lat="41.66958071515075" lon="13.446400030467565"><ele>351.6666666666667</ele><time>2026-04-18T15:30:30Z</time></trkpt><trkpt lat="41.66964969024068" lon="13.446148033411173"><ele>350.0</ele><time>2026-04-18T15:30:31Z</time></trkpt><trkpt lat="41.66971525575765" lon="13.445888734265854"><ele>347.6666666666667</ele><time>2026-04-18T15:30:32Z</time></trkpt><trkpt lat="41.66977796719117" lon="13.445619149850494"><ele>345.3333333333333</ele><time>2026-04-18T15:30:33Z</time></trkpt><trkpt lat="41.66983410069038" lon="13.445345257040584"><ele>343.0</ele><time>2026-04-18T15:30:34Z</time></trkpt><trkpt lat="41.669882855039624" lon="13.44506260355709"><ele>340.66666666666663</ele><time>2026-04-18T15:30:35Z</time></trkpt><trkpt lat="41.66992526724292" lon="13.44477755259197"><ele>338.3333333333333</ele><time>2026-04-18T15:30:36Z</time></trkpt><trkpt lat="41.66996157893936" lon="13.444492717954354"><ele>336.0</ele><time>2026-04-18T15:30:37Z</time></trkpt><trkpt lat="41.66998602691346" lon="13.444227856125888"><ele>335.0</ele><time>2026-04-18T15:30:38Z</time></trkpt><trkpt lat="41.670003495287446" lon="13.443971566787965"><ele>334.0</ele><time>2026-04-18T15:30:39Z</time></trkpt><trkpt lat="41.670017337664184" lon="13.443721660518985"><ele>333.0</ele><time>2026-04-18T15:30:39.999Z</time></trkpt><trkpt lat="41.67003056759459" lon="13.443482812977855"><ele>332.3333333333333</ele><time>2026-04-18T15:30:40.999Z</time></trkpt><trkpt lat="41.670055187248" lon="13.443245519692232"><ele>331.66666666666663</ele><time>2026-04-18T15:30:41.999Z</time></trkpt><trkpt lat="41.67005072221418" lon="13.442999645997832"><ele>331.0</ele><time>2026-04-18T15:30:42.999Z</time></trkpt><trkpt lat="41.67003882973372" lon="13.442750486071814"><ele>333.66666666666663</ele><time>2026-04-18T15:30:43.999Z</time></trkpt><trkpt lat="41.67002303082174" lon="13.44250348910882"><ele>336.3333333333333</ele><time>2026-04-18T15:30:44.999Z</time></trkpt><trkpt lat="41.67000353502322" lon="13.442270976431388"><ele>339.0</ele><time>2026-04-18T15:30:45.999Z</time></trkpt><trkpt lat="41.6699817405916" lon="13.442043650295354"><ele>342.3333333333333</ele><time>2026-04-18T15:30:46.999Z</time></trkpt><trkpt lat="41.66995111408113" lon="13.441800703827568"><ele>345.66666666666663</ele><time>2026-04-18T15:30:47.999Z</time></trkpt><trkpt lat="41.66991886625493" lon="13.44155562873983"><ele>349.0</ele><time>2026-04-18T15:30:48.999Z</time></trkpt><trkpt lat="41.66988322897754" lon="13.441323361165018"><ele>353.0</ele><time>2026-04-18T15:30:49.999Z</time></trkpt><trkpt lat="41.66984844422352" lon="13.441101667019938"><ele>357.0</ele><time>2026-04-18T15:30:50.999Z</time></trkpt><trkpt lat="41.66980846092748" lon="13.440869387129913"><ele>361.0</ele><time>2026-04-18T15:30:51.999Z</time></trkpt><trkpt lat="41.66976736188725" lon="13.440642184088787"><ele>360.66666666666663</ele><time>2026-04-18T15:30:52.999Z</time></trkpt><trkpt lat="41.66972717637549" lon="13.44040830262346"><ele>360.3333333333333</ele><time>2026-04-18T15:30:53.999Z</time></trkpt><trkpt lat="41.66968508075815" lon="13.440171598404275"><ele>360.0</ele><time>2026-04-18T15:30:54.999Z</time></trkpt><trkpt lat="41.66963990562563" lon="13.439926670471793"><ele>360.0</ele><time>2026-04-18T15:30:55.999Z</time></trkpt><trkpt lat="41.66959336490814" lon="13.439676699154855"><ele>360.0</ele><time>2026-04-18T15:30:56.999Z</time></trkpt><trkpt lat="41.669546543770075" lon="13.439423828495055"><ele>360.0</ele><time>2026-04-18T15:30:57.999Z</time></trkpt><trkpt lat="41.66949979816507" lon="13.439170447557837"><ele>358.6666666666667</ele><time>2026-04-18T15:30:58.999Z</time></trkpt><trkpt lat="41.66945422923019" lon="13.438920772584272"><ele>357.33333333333337</ele><time>2026-04-18T15:30:59.999Z</time></trkpt><trkpt lat="41.66941143559066" lon="13.438674975122192"><ele>356.0</ele><time>2026-04-18T15:31:00.999Z</time></trkpt><trkpt lat="41.66936607059399" lon="13.43842615786129"><ele>355.0</ele><time>2026-04-18T15:31:01.999Z</time></trkpt><trkpt lat="41.669319725378564" lon="13.438182911506138"><ele>354.0</ele><time>2026-04-18T15:31:02.999Z</time></trkpt><trkpt lat="41.669272237410546" lon="13.43793103816028"><ele>353.0</ele><time>2026-04-18T15:31:03.999Z</time></trkpt><trkpt lat="41.669225204777426" lon="13.43767532321493"><ele>353.0</ele><time>2026-04-18T15:31:04.999Z</time></trkpt><trkpt lat="41.66917431691449" lon="13.437413733118875"><ele>353.0</ele><time>2026-04-18T15:31:05.999Z</time></trkpt><trkpt lat="41.66912799404479" lon="13.437162824929702"><ele>353.0</ele><time>2026-04-18T15:31:06.999Z</time></trkpt><trkpt lat="41.669081610558145" lon="13.436919039945188"><ele>351.0</ele><time>2026-04-18T15:31:07.999Z</time></trkpt><trkpt lat="41.66903532753266" lon="13.43668180092803"><ele>349.0</ele><time>2026-04-18T15:31:08.999Z</time></trkpt><trkpt lat="41.66898554424902" lon="13.436443926921319"><ele>347.0</ele><time>2026-04-18T15:31:09.999Z</time></trkpt><trkpt lat="41.66893367569537" lon="13.436198793266916"><ele>339.0</ele><time>2026-04-18T15:31:10.999Z</time></trkpt><trkpt lat="41.66887824492501" lon="13.43595175981184"><ele>331.0</ele><time>2026-04-18T15:31:11.999Z</time></trkpt><trkpt lat="41.66881391771425" lon="13.435704446736565"><ele>323.0</ele><time>2026-04-18T15:31:12.999Z</time></trkpt><trkpt lat="41.668751991099256" lon="13.435452296213194"><ele>322.33333333333337</ele><time>2026-04-18T15:31:13.999Z</time></trkpt><trkpt lat="41.66869236384537" lon="13.435209547973942"><ele>321.6666666666667</ele><time>2026-04-18T15:31:14.999Z</time></trkpt><trkpt lat="41.66863085183485" lon="13.434970904119705"><ele>321.0</ele><time>2026-04-18T15:31:15.999Z</time></trkpt><trkpt lat="41.66856826791781" lon="13.434735620491407"><ele>321.6666666666667</ele><time>2026-04-18T15:31:16.999Z</time></trkpt><trkpt lat="41.66850333175937" lon="13.434496634478139"><ele>322.33333333333337</ele><time>2026-04-18T15:31:17.999Z</time></trkpt><trkpt lat="41.66843583143243" lon="13.434265081700625"><ele>323.0</ele><time>2026-04-18T15:31:18.999Z</time></trkpt><trkpt lat="41.6683756296613" lon="13.43403837855375"><ele>323.0</ele><time>2026-04-18T15:31:19.999Z</time></trkpt><trkpt lat="41.668316333200394" lon="13.43380960855428"><ele>323.0</ele><time>2026-04-18T15:31:20.999Z</time></trkpt><trkpt lat="41.668252182910834" lon="13.433578800663856"><ele>323.0</ele><time>2026-04-18T15:31:21.999Z</time></trkpt><trkpt lat="41.66818947607789" lon="13.433357161533175"><ele>325.0</ele><time>2026-04-18T15:31:22.999Z</time></trkpt><trkpt lat="41.66809853361892" lon="13.433157088028144"><ele>327.0</ele><time>2026-04-18T15:31:23.999Z</time></trkpt><trkpt lat="41.66804012676986" lon="13.432944301944469"><ele>329.0</ele><time>2026-04-18T15:31:24.999Z</time></trkpt><trkpt lat="41.667978733705866" lon="13.432720636691196"><ele>329.0</ele><time>2026-04-18T15:31:25.999Z</time></trkpt><trkpt lat="41.66791680106807" lon="13.432495005538604"><ele>329.0</ele><time>2026-04-18T15:31:26.999Z</time></trkpt><trkpt lat="41.66785289769275" lon="13.432262194960458"><ele>329.0</ele><time>2026-04-18T15:31:27.999Z</time></trkpt><trkpt lat="41.66778628346446" lon="13.43201950797156"><ele>327.0</ele><time>2026-04-18T15:31:28.999Z</time></trkpt><trkpt lat="41.66771804976853" lon="13.431770921143086"><ele>325.0</ele><time>2026-04-18T15:31:29.999Z</time></trkpt><trkpt lat="41.667647865777276" lon="13.431515229119405"><ele>323.0</ele><time>2026-04-18T15:31:30.999Z</time></trkpt><trkpt lat="41.66759352489444" lon="13.43125742273063"><ele>323.0</ele><time>2026-04-18T15:31:31.999Z</time></trkpt><trkpt lat="41.6675106300634" lon="13.431015256205834"><ele>323.0</ele><time>2026-04-18T15:31:32.999Z</time></trkpt><trkpt lat="41.66744144076532" lon="13.430763187709"><ele>323.0</ele><time>2026-04-18T15:31:33.999Z</time></trkpt><trkpt lat="41.66736978181717" lon="13.430506372837181"><ele>327.5</ele><time>2026-04-18T15:31:34.999Z</time></trkpt><trkpt lat="41.66728541273543" lon="13.430206048314135"><ele>332.0</ele><time>2026-04-18T15:31:35.999Z</time></trkpt><trkpt lat="41.6671872875649" lon="13.429877155776822"><ele>333.5</ele><time>2026-04-18T15:31:36.999Z</time></trkpt><trkpt lat="41.667077058505875" lon="13.429529255909042"><ele>335.0</ele><time>2026-04-18T15:31:37.999Z</time></trkpt><trkpt lat="41.6669524653385" lon="13.429164323944748"><ele>326.5</ele><time>2026-04-18T15:31:38.999Z</time></trkpt><trkpt lat="41.66680199017858" lon="13.428775110434009"><ele>318.0</ele><time>2026-04-18T15:31:39.999Z</time></trkpt><trkpt lat="41.6666615571795" lon="13.428397730664487"><ele>318.0</ele><time>2026-04-18T15:31:40.999Z</time></trkpt><trkpt lat="41.66647564691148" lon="13.428054415517982"><ele>318.0</ele><time>2026-04-18T15:31:41.999Z</time></trkpt><trkpt lat="41.666293708819744" lon="13.427721945097419"><ele>316.5</ele><time>2026-04-18T15:31:42.999Z</time></trkpt><trkpt lat="41.66611465424503" lon="13.427402117774223"><ele>315.0</ele><time>2026-04-18T15:31:43.999Z</time></trkpt><trkpt lat="41.66590959071286" lon="13.42710450314572"><ele>312.5</ele><time>2026-04-18T15:31:44.999Z</time></trkpt><trkpt lat="41.665682693826085" lon="13.426822570036848"><ele>310.0</ele><time>2026-04-18T15:31:45.999Z</time></trkpt><trkpt lat="41.665444270511344" lon="13.426549854872158"><ele>307.5</ele><time>2026-04-18T15:31:46.999Z</time></trkpt><trkpt lat="41.66519075944476" lon="13.426291139369015"><ele>305.0</ele><time>2026-04-18T15:31:48Z</time></trkpt><trkpt lat="41.66492824525638" lon="13.426044869624652"><ele>305.0</ele><time>2026-04-18T15:31:49Z</time></trkpt><trkpt lat="41.66465634958324" lon="13.425820145021172"><ele>305.0</ele><time>2026-04-18T15:31:50Z</time></trkpt><trkpt lat="41.66438281894148" lon="13.425610850833067"><ele>313.5</ele><time>2026-04-18T15:31:51Z</time></trkpt><trkpt lat="41.66411457582777" lon="13.425411346404065"><ele>322.0</ele><time>2026-04-18T15:31:52Z</time></trkpt><trkpt lat="41.66384561254978" lon="13.425217039997955"><ele>322.5</ele><time>2026-04-18T15:31:53Z</time></trkpt><trkpt lat="41.66357606477318" lon="13.425023165616198"><ele>323.0</ele><time>2026-04-18T15:31:54Z</time></trkpt><trkpt lat="41.66330512956881" lon="13.42482628916999"><ele>326.5</ele><time>2026-04-18T15:31:55Z</time></trkpt><trkpt lat="41.663029143521754" lon="13.424624136741802"><ele>330.0</ele><time>2026-04-18T15:31:56Z</time></trkpt><trkpt lat="41.66275891946352" lon="13.424409107260285"><ele>330.0</ele><time>2026-04-18T15:31:57Z</time></trkpt><trkpt lat="41.66249672794669" lon="13.424172297430475"><ele>330.0</ele><time>2026-04-18T15:31:58Z</time></trkpt><trkpt lat="41.662233406253904" lon="13.42393363413572"><ele>328.0</ele><time>2026-04-18T15:31:59Z</time></trkpt><trkpt lat="41.66199307006129" lon="13.423642170727563"><ele>326.0</ele><time>2026-04-18T15:32:00Z</time></trkpt><trkpt lat="41.66175263573583" lon="13.423346112719473"><ele>326.0</ele><time>2026-04-18T15:32:01Z</time></trkpt><trkpt lat="41.66154003981524" lon="13.423008345001593"><ele>326.0</ele><time>2026-04-18T15:32:02Z</time></trkpt><trkpt lat="41.66136044019479" lon="13.422649084867745"><ele>322.0</ele><time>2026-04-18T15:32:03Z</time></trkpt><trkpt lat="41.66121066738574" lon="13.422265803400531"><ele>318.0</ele><time>2026-04-18T15:32:04Z</time></trkpt><trkpt lat="41.66107912009786" lon="13.421849814565512"><ele>318.0</ele><time>2026-04-18T15:32:05Z</time></trkpt><trkpt lat="41.660974505730145" lon="13.421411738989196"><ele>318.0</ele><time>2026-04-18T15:32:06Z</time></trkpt><trkpt lat="41.660907254224476" lon="13.420941822423746"><ele>321.5</ele><time>2026-04-18T15:32:07Z</time></trkpt><trkpt lat="41.66087566953283" lon="13.420458897787617"><ele>325.0</ele><time>2026-04-18T15:32:08Z</time></trkpt><trkpt lat="41.66088176477586" lon="13.419967849689323"><ele>324.0</ele><time>2026-04-18T15:32:09Z</time></trkpt><trkpt lat="41.66091310754757" lon="13.419466361553404"><ele>323.0</ele><time>2026-04-18T15:32:10Z</time></trkpt><trkpt lat="41.6609720243047" lon="13.418963013900798"><ele>318.0</ele><time>2026-04-18T15:32:11Z</time></trkpt><trkpt lat="41.66104711367534" lon="13.418443407968994"><ele>313.0</ele><time>2026-04-18T15:32:12Z</time></trkpt><trkpt lat="41.661121900776386" lon="13.417947631307442"><ele>323.0</ele><time>2026-04-18T15:32:13Z</time></trkpt><trkpt lat="41.66119531210363" lon="13.417473194681746"><ele>333.0</ele><time>2026-04-18T15:32:14Z</time></trkpt><trkpt lat="41.66125667493937" lon="13.417020486505072"><ele>333.0</ele><time>2026-04-18T15:32:15Z</time></trkpt><trkpt lat="41.66131197218829" lon="13.416568177304296"><ele>333.0</ele><time>2026-04-18T15:32:16Z</time></trkpt><trkpt lat="41.66136289320743" lon="13.416110120477086"><ele>330.0</ele><time>2026-04-18T15:32:17Z</time></trkpt><trkpt lat="41.661422088282904" lon="13.415642845783303"><ele>327.0</ele><time>2026-04-18T15:32:18Z</time></trkpt><trkpt lat="41.661454617109996" lon="13.415182136172117"><ele>325.5</ele><time>2026-04-18T15:32:19Z</time></trkpt><trkpt lat="41.66148112981041" lon="13.414749250995833"><ele>324.0</ele><time>2026-04-18T15:32:20Z</time></trkpt><trkpt lat="41.661503817402185" lon="13.414306508168474"><ele>321.5</ele><time>2026-04-18T15:32:21Z</time></trkpt><trkpt lat="41.66151642595455" lon="13.413860475903277"><ele>319.0</ele><time>2026-04-18T15:32:22Z</time></trkpt><trkpt lat="41.66152277912607" lon="13.41340575553396"><ele>316.0</ele><time>2026-04-18T15:32:23Z</time></trkpt><trkpt lat="41.661526044835576" lon="13.412943101517735"><ele>313.0</ele><time>2026-04-18T15:32:24Z</time></trkpt><trkpt lat="41.66152268310812" lon="13.412472015534838"><ele>315.0</ele><time>2026-04-18T15:32:25Z</time></trkpt><trkpt lat="41.6615137746325" lon="13.411996251576305"><ele>317.0</ele><time>2026-04-18T15:32:26Z</time></trkpt><trkpt lat="41.66149728123899" lon="13.411525823327562"><ele>313.0</ele><time>2026-04-18T15:32:27Z</time></trkpt><trkpt lat="41.66148672689723" lon="13.411060644235109"><ele>309.0</ele><time>2026-04-18T15:32:28Z</time></trkpt><trkpt lat="41.66148613832012" lon="13.410596871364682"><ele>304.0</ele><time>2026-04-18T15:32:29Z</time></trkpt><trkpt lat="41.66148988472117" lon="13.410135055009256"><ele>299.0</ele><time>2026-04-18T15:32:30Z</time></trkpt><trkpt lat="41.66149891797222" lon="13.409669642725659"><ele>294.5</ele><time>2026-04-18T15:32:31Z</time></trkpt><trkpt lat="41.661510015819445" lon="13.409206655605594"><ele>290.0</ele><time>2026-04-18T15:32:32Z</time></trkpt><trkpt lat="41.661525982034966" lon="13.408746137708818"><ele>289.0</ele><time>2026-04-18T15:32:33Z</time></trkpt><trkpt lat="41.6615488034927" lon="13.408281005460424"><ele>288.0</ele><time>2026-04-18T15:32:34Z</time></trkpt><trkpt lat="41.661576180527966" lon="13.407812571503108"><ele>287.0</ele><time>2026-04-18T15:32:35Z</time></trkpt><trkpt lat="41.66160410625348" lon="13.407346990849103"><ele>286.0</ele><time>2026-04-18T15:32:36Z</time></trkpt><trkpt lat="41.661627840013736" lon="13.406885914043798"><ele>286.0</ele><time>2026-04-18T15:32:37Z</time></trkpt><trkpt lat="41.66165325939513" lon="13.406427603803698"><ele>286.0</ele><time>2026-04-18T15:32:38Z</time></trkpt><trkpt lat="41.661677696647864" lon="13.405968243662759"><ele>286.0</ele><time>2026-04-18T15:32:39Z</time></trkpt><trkpt lat="41.66170924750347" lon="13.405504657360796"><ele>286.0</ele><time>2026-04-18T15:32:40Z</time></trkpt><trkpt lat="41.66174578601337" lon="13.405037491541414"><ele>284.0</ele><time>2026-04-18T15:32:41Z</time></trkpt><trkpt lat="41.66179875287747" lon="13.404568306333475"><ele>282.0</ele><time>2026-04-18T15:32:42Z</time></trkpt><trkpt lat="41.66185875689324" lon="13.404097318018568"><ele>281.0</ele><time>2026-04-18T15:32:43Z</time></trkpt><trkpt lat="41.661925551557516" lon="13.403624295772575"><ele>280.0</ele><time>2026-04-18T15:32:44Z</time></trkpt><trkpt lat="41.66200047329948" lon="13.403151923138179"><ele>286.5</ele><time>2026-04-18T15:32:45Z</time></trkpt><trkpt lat="41.66207968098373" lon="13.402684353562536"><ele>293.0</ele><time>2026-04-18T15:32:45.999Z</time></trkpt><trkpt lat="41.66216092010598" lon="13.402217061053712"><ele>289.0</ele><time>2026-04-18T15:32:46.999Z</time></trkpt><trkpt lat="41.66224381074381" lon="13.401749009994445"><ele>285.0</ele><time>2026-04-18T15:32:47.999Z</time></trkpt><trkpt lat="41.66232788688004" lon="13.401281662723692"><ele>282.5</ele><time>2026-04-18T15:32:48.999Z</time></trkpt><trkpt lat="41.662408176245584" lon="13.40081510893079"><ele>280.0</ele><time>2026-04-18T15:32:49.999Z</time></trkpt><trkpt lat="41.66248745487912" lon="13.40035068203084"><ele>275.5</ele><time>2026-04-18T15:32:50.999Z</time></trkpt><trkpt lat="41.66256187348252" lon="13.399884740192048"><ele>271.0</ele><time>2026-04-18T15:32:51.999Z</time></trkpt><trkpt lat="41.662638637550025" lon="13.399420777312349"><ele>269.0</ele><time>2026-04-18T15:32:52.999Z</time></trkpt><trkpt lat="41.66271709712498" lon="13.398957456873177"><ele>267.0</ele><time>2026-04-18T15:32:53.999Z</time></trkpt><trkpt lat="41.662797890618606" lon="13.398492882729785"><ele>274.0</ele><time>2026-04-18T15:32:54.999Z</time></trkpt><trkpt lat="41.66287694735421" lon="13.398030265118676"><ele>281.0</ele><time>2026-04-18T15:32:55.999Z</time></trkpt><trkpt lat="41.662958722400035" lon="13.397571274797391"><ele>276.5</ele><time>2026-04-18T15:32:56.999Z</time></trkpt><trkpt lat="41.66304360536539" lon="13.397114451110907"><ele>272.0</ele><time>2026-04-18T15:32:57.999Z</time></trkpt><trkpt lat="41.66313923453266" lon="13.39666447949739"><ele>267.5</ele><time>2026-04-18T15:32:58.999Z</time></trkpt><trkpt lat="41.66324904310849" lon="13.39621920752826"><ele>263.0</ele><time>2026-04-18T15:32:59.999Z</time></trkpt><trkpt lat="41.66335796832181" lon="13.39577146870918"><ele>261.0</ele><time>2026-04-18T15:33:00.999Z</time></trkpt><trkpt lat="41.66347246458161" lon="13.395324320411083"><ele>259.0</ele><time>2026-04-18T15:33:01.999Z</time></trkpt><trkpt lat="41.66359279107152" lon="13.39487869291859"><ele>259.5</ele><time>2026-04-18T15:33:02.999Z</time></trkpt><trkpt lat="41.66371151808129" lon="13.394417277904834"><ele>260.0</ele><time>2026-04-18T15:33:03.999Z</time></trkpt><trkpt lat="41.66382788970152" lon="13.393948479906387"><ele>259.0</ele><time>2026-04-18T15:33:04.999Z</time></trkpt><trkpt lat="41.66393656946951" lon="13.393465380252419"><ele>258.0</ele><time>2026-04-18T15:33:05.999Z</time></trkpt><trkpt lat="41.66403056055459" lon="13.392965783335722"><ele>257.0</ele><time>2026-04-18T15:33:06.999Z</time></trkpt><trkpt lat="41.66411089448199" lon="13.392459665355698"><ele>256.0</ele><time>2026-04-18T15:33:07.999Z</time></trkpt><trkpt lat="41.66417135943479" lon="13.391970852138337"><ele>252.5</ele><time>2026-04-18T15:33:08.999Z</time></trkpt><trkpt lat="41.66421726610662" lon="13.39147590669501"><ele>249.0</ele><time>2026-04-18T15:33:09.999Z</time></trkpt><trkpt lat="41.6642483142465" lon="13.390983151092188"><ele>251.0</ele><time>2026-04-18T15:33:10.999Z</time></trkpt><trkpt lat="41.664275100113095" lon="13.390485253722355"><ele>253.0</ele><time>2026-04-18T15:33:11.999Z</time></trkpt><trkpt lat="41.66429222073275" lon="13.389985548372135"><ele>255.0</ele><time>2026-04-18T15:33:12.999Z</time></trkpt><trkpt lat="41.664311170612415" lon="13.389484980984511"><ele>257.0</ele><time>2026-04-18T15:33:13.999Z</time></trkpt><trkpt lat="41.66433338684934" lon="13.38896816394434"><ele>255.5</ele><time>2026-04-18T15:33:14.999Z</time></trkpt><trkpt lat="41.66435489399752" lon="13.388440120439887"><ele>254.0</ele><time>2026-04-18T15:33:15.999Z</time></trkpt><trkpt lat="41.66437285631467" lon="13.387912070076515"><ele>252.0</ele><time>2026-04-18T15:33:16.999Z</time></trkpt><trkpt lat="41.66439438904538" lon="13.387391061527167"><ele>250.0</ele><time>2026-04-18T15:33:17.999Z</time></trkpt><trkpt lat="41.664414358260245" lon="13.386880727505094"><ele>249.0</ele><time>2026-04-18T15:33:18.999Z</time></trkpt><trkpt lat="41.66443387315793" lon="13.386378679407546"><ele>248.0</ele><time>2026-04-18T15:33:19.999Z</time></trkpt><trkpt lat="41.66445281646107" lon="13.385879098398808"><ele>254.5</ele><time>2026-04-18T15:33:20.999Z</time></trkpt><trkpt lat="41.6644721822367" lon="13.385384264457342"><ele>261.0</ele><time>2026-04-18T15:33:21.999Z</time></trkpt><trkpt lat="41.664491444329336" lon="13.384899371284519"><ele>261.0</ele><time>2026-04-18T15:33:22.999Z</time></trkpt><trkpt lat="41.66451019040126" lon="13.38441693497335"><ele>261.0</ele><time>2026-04-18T15:33:23.999Z</time></trkpt><trkpt lat="41.664527294714006" lon="13.383938304674393"><ele>256.5</ele><time>2026-04-18T15:33:24.999Z</time></trkpt><trkpt lat="41.66454499488305" lon="13.383463431617685"><ele>252.0</ele><time>2026-04-18T15:33:25.999Z</time></trkpt><trkpt lat="41.6645614247091" lon="13.382985363253663"><ele>251.5</ele><time>2026-04-18T15:33:26.999Z</time></trkpt><trkpt lat="41.66457514468383" lon="13.382513857505263"><ele>251.0</ele><time>2026-04-18T15:33:27.999Z</time></trkpt><trkpt lat="41.66457994386507" lon="13.382041534696516"><ele>250.5</ele><time>2026-04-18T15:33:28.999Z</time></trkpt><trkpt lat="41.66456490116763" lon="13.381564749454926"><ele>250.0</ele><time>2026-04-18T15:33:29.999Z</time></trkpt><trkpt lat="41.66453637446324" lon="13.381089462441224"><ele>247.5</ele><time>2026-04-18T15:33:30.999Z</time></trkpt><trkpt lat="41.664503098540685" lon="13.380618695186506"><ele>245.0</ele><time>2026-04-18T15:33:31.999Z</time></trkpt><trkpt lat="41.66446150625167" lon="13.380159630573262"><ele>238.5</ele><time>2026-04-18T15:33:32.999Z</time></trkpt><trkpt lat="41.66442157506687" lon="13.379702976929321"><ele>232.0</ele><time>2026-04-18T15:33:33.999Z</time></trkpt><trkpt lat="41.66438274676371" lon="13.379244049278935"><ele>230.5</ele><time>2026-04-18T15:33:34.999Z</time></trkpt><trkpt lat="41.664336333483874" lon="13.378786631031188"><ele>229.0</ele><time>2026-04-18T15:33:35.999Z</time></trkpt><trkpt lat="41.6642824343424" lon="13.378328045453879"><ele>229.0</ele><time>2026-04-18T15:33:36.999Z</time></trkpt><trkpt lat="41.66421672317551" lon="13.377869118661136"><ele>229.0</ele><time>2026-04-18T15:33:37.999Z</time></trkpt><trkpt lat="41.664144317188544" lon="13.377410043853367"><ele>229.5</ele><time>2026-04-18T15:33:38.999Z</time></trkpt><trkpt lat="41.6640667030617" lon="13.376950955740325"><ele>230.0</ele><time>2026-04-18T15:33:39.999Z</time></trkpt><trkpt lat="41.66398319376806" lon="13.376488957014844"><ele>230.5</ele><time>2026-04-18T15:33:40.999Z</time></trkpt><trkpt lat="41.663892396859964" lon="13.376025985395565"><ele>231.0</ele><time>2026-04-18T15:33:41.999Z</time></trkpt><trkpt lat="41.66379706692586" lon="13.37556209861914"><ele>230.0</ele><time>2026-04-18T15:33:42.999Z</time></trkpt><trkpt lat="41.66369971678079" lon="13.375097327757075"><ele>229.0</ele><time>2026-04-18T15:33:43.999Z</time></trkpt><trkpt lat="41.66360744854622" lon="13.37463058482461"><ele>224.0</ele><time>2026-04-18T15:33:44.999Z</time></trkpt><trkpt lat="41.66352031327156" lon="13.3741634219144"><ele>219.0</ele><time>2026-04-18T15:33:45.999Z</time></trkpt><trkpt lat="41.66342956840316" lon="13.373706008454912"><ele>219.0</ele><time>2026-04-18T15:33:46.999Z</time></trkpt><trkpt lat="41.66334114365646" lon="13.373252247956229"><ele>219.0</ele><time>2026-04-18T15:33:47.999Z</time></trkpt><trkpt lat="41.66325319096899" lon="13.372802276899877"><ele>219.0</ele><time>2026-04-18T15:33:48.999Z</time></trkpt><trkpt lat="41.66315424612219" lon="13.372361293450414"><ele>219.0</ele><time>2026-04-18T15:33:49.999Z</time></trkpt><trkpt lat="41.66308149901934" lon="13.37191549961408"><ele>218.0</ele><time>2026-04-18T15:33:50.999Z</time></trkpt><trkpt lat="41.662979917455964" lon="13.371483502344898"><ele>217.0</ele><time>2026-04-18T15:33:51.999Z</time></trkpt><trkpt lat="41.66289582424537" lon="13.371054394240426"><ele>216.5</ele><time>2026-04-18T15:33:52.999Z</time></trkpt><trkpt lat="41.66283583835419" lon="13.370621079635436"><ele>216.0</ele><time>2026-04-18T15:33:54Z</time></trkpt><trkpt lat="41.662763080363995" lon="13.37019839118059"><ele>215.0</ele><time>2026-04-18T15:33:55Z</time></trkpt><trkpt lat="41.662701137414835" lon="13.369778524817344"><ele>214.0</ele><time>2026-04-18T15:33:56Z</time></trkpt><trkpt lat="41.662647538312854" lon="13.369353459011625"><ele>214.0</ele><time>2026-04-18T15:33:57Z</time></trkpt><trkpt lat="41.662607118989364" lon="13.368925785323993"><ele>214.0</ele><time>2026-04-18T15:33:58Z</time></trkpt><trkpt lat="41.66257005006675" lon="13.368501627736737"><ele>213.5</ele><time>2026-04-18T15:33:59Z</time></trkpt><trkpt lat="41.66254000947765" lon="13.368080428628653"><ele>213.0</ele><time>2026-04-18T15:34:00Z</time></trkpt><trkpt lat="41.66251430038778" lon="13.367693462890637"><ele>211.5</ele><time>2026-04-18T15:34:01Z</time></trkpt><trkpt lat="41.662484974151084" lon="13.367307207289539"><ele>210.0</ele><time>2026-04-18T15:34:02Z</time></trkpt><trkpt lat="41.66246152469115" lon="13.366920640040895"><ele>208.5</ele><time>2026-04-18T15:34:03Z</time></trkpt><trkpt lat="41.662448626413806" lon="13.366531985674484"><ele>207.0</ele><time>2026-04-18T15:34:04Z</time></trkpt><trkpt lat="41.66245324419042" lon="13.36613967942624"><ele>205.0</ele><time>2026-04-18T15:34:05Z</time></trkpt><trkpt lat="41.662483477696455" lon="13.365746421133368"><ele>203.0</ele><time>2026-04-18T15:34:06Z</time></trkpt><trkpt lat="41.662544893592056" lon="13.365341832068722"><ele>202.5</ele><time>2026-04-18T15:34:07Z</time></trkpt><trkpt lat="41.66263023558796" lon="13.364942430570293"><ele>202.0</ele><time>2026-04-18T15:34:08Z</time></trkpt><trkpt lat="41.66274549855377" lon="13.364561848908552"><ele>202.0</ele><time>2026-04-18T15:34:09Z</time></trkpt><trkpt lat="41.66288122110471" lon="13.36418671437754"><ele>202.0</ele><time>2026-04-18T15:34:10Z</time></trkpt><trkpt lat="41.66304053607204" lon="13.363830091370295"><ele>203.5</ele><time>2026-04-18T15:34:11Z</time></trkpt><trkpt lat="41.663221600272486" lon="13.363498524470538"><ele>205.0</ele><time>2026-04-18T15:34:12Z</time></trkpt><trkpt lat="41.663424857958546" lon="13.363192226023074"><ele>209.5</ele><time>2026-04-18T15:34:13Z</time></trkpt><trkpt lat="41.66365132338425" lon="13.36291151356619"><ele>214.0</ele><time>2026-04-18T15:34:14Z</time></trkpt><trkpt lat="41.663893695479096" lon="13.362653141655736"><ele>214.0</ele><time>2026-04-18T15:34:15Z</time></trkpt><trkpt lat="41.66415282654883" lon="13.362417076531457"><ele>214.0</ele><time>2026-04-18T15:34:16Z</time></trkpt><trkpt lat="41.66443069159618" lon="13.362211923549431"><ele>216.0</ele><time>2026-04-18T15:34:17Z</time></trkpt><trkpt lat="41.66473406323741" lon="13.36203137766337"><ele>218.0</ele><time>2026-04-18T15:34:18Z</time></trkpt><trkpt lat="41.66505132731521" lon="13.361881677670478"><ele>220.0</ele><time>2026-04-18T15:34:19Z</time></trkpt><trkpt lat="41.66537767005981" lon="13.361749828536347"><ele>222.0</ele><time>2026-04-18T15:34:20Z</time></trkpt><trkpt lat="41.66572231138489" lon="13.361610282126177"><ele>222.0</ele><time>2026-04-18T15:34:21Z</time></trkpt><trkpt lat="41.66608530608397" lon="13.361454985302105"><ele>222.0</ele><time>2026-04-18T15:34:22Z</time></trkpt><trkpt lat="41.66642254499193" lon="13.361348900575816"><ele>221.5</ele><time>2026-04-18T15:34:23Z</time></trkpt><trkpt lat="41.66678271509912" lon="13.361166509989532"><ele>221.0</ele><time>2026-04-18T15:34:24Z</time></trkpt><trkpt lat="41.66712632121031" lon="13.360979337438005"><ele>221.0</ele><time>2026-04-18T15:34:25Z</time></trkpt><trkpt lat="41.66747888395742" lon="13.360799592812553"><ele>221.0</ele><time>2026-04-18T15:34:26Z</time></trkpt><trkpt lat="41.667805628752" lon="13.360569216440744"><ele>221.5</ele><time>2026-04-18T15:34:27Z</time></trkpt><trkpt lat="41.66810188472348" lon="13.360327573042316"><ele>222.0</ele><time>2026-04-18T15:34:28Z</time></trkpt><trkpt lat="41.66837135477402" lon="13.360075809002062"><ele>222.0</ele><time>2026-04-18T15:34:29Z</time></trkpt><trkpt lat="41.66863038970618" lon="13.359808061185623"><ele>222.0</ele><time>2026-04-18T15:34:30Z</time></trkpt><trkpt lat="41.668875682682085" lon="13.359512901031566"><ele>222.5</ele><time>2026-04-18T15:34:31Z</time></trkpt><trkpt lat="41.66911080241388" lon="13.359198293993796"><ele>223.0</ele><time>2026-04-18T15:34:32Z</time></trkpt><trkpt lat="41.669338068468306" lon="13.35886278745998"><ele>224.0</ele><time>2026-04-18T15:34:33Z</time></trkpt><trkpt lat="41.66954906683316" lon="13.358508671047923"><ele>225.0</ele><time>2026-04-18T15:34:34Z</time></trkpt><trkpt lat="41.669745862682554" lon="13.35813882687077"><ele>224.0</ele><time>2026-04-18T15:34:35Z</time></trkpt><trkpt lat="41.669927607666295" lon="13.357748563019697"><ele>223.0</ele><time>2026-04-18T15:34:36Z</time></trkpt><trkpt lat="41.670095899397495" lon="13.357333934896845"><ele>223.0</ele><time>2026-04-18T15:34:37Z</time></trkpt><trkpt lat="41.6702467757763" lon="13.356896521586473"><ele>223.0</ele><time>2026-04-18T15:34:38Z</time></trkpt><trkpt lat="41.67038346042427" lon="13.356433820424995"><ele>223.0</ele><time>2026-04-18T15:34:39Z</time></trkpt><trkpt lat="41.67051015112141" lon="13.355958507343125"><ele>223.0</ele><time>2026-04-18T15:34:40Z</time></trkpt><trkpt lat="41.67062750634464" lon="13.3554761789242"><ele>223.0</ele><time>2026-04-18T15:34:41Z</time></trkpt><trkpt lat="41.67073635453674" lon="13.354999422320144"><ele>223.0</ele><time>2026-04-18T15:34:42Z</time></trkpt><trkpt lat="41.67084981385359" lon="13.35452891079039"><ele>223.0</ele><time>2026-04-18T15:34:43Z</time></trkpt><trkpt lat="41.67096315707224" lon="13.354071221988384"><ele>223.0</ele><time>2026-04-18T15:34:43.999Z</time></trkpt><trkpt lat="41.67106901657394" lon="13.3536242703013"><ele>223.5</ele><time>2026-04-18T15:34:44.999Z</time></trkpt><trkpt lat="41.671172531948756" lon="13.353191585633045"><ele>224.0</ele><time>2026-04-18T15:34:45.999Z</time></trkpt><trkpt lat="41.67127252931058" lon="13.35277928369677"><ele>224.0</ele><time>2026-04-18T15:34:46.999Z</time></trkpt><trkpt lat="41.671365580577955" lon="13.352396651819362"><ele>224.0</ele><time>2026-04-18T15:34:47.999Z</time></trkpt><trkpt lat="41.67145092813167" lon="13.35204158210413"><ele>224.5</ele><time>2026-04-18T15:34:48.999Z</time></trkpt><trkpt lat="41.67153156759702" lon="13.351706925908163"><ele>225.0</ele><time>2026-04-18T15:34:49.999Z</time></trkpt><trkpt lat="41.67161318945317" lon="13.351371860608538"><ele>225.5</ele><time>2026-04-18T15:34:50.999Z</time></trkpt><trkpt lat="41.67169347615766" lon="13.351036004712816"><ele>226.0</ele><time>2026-04-18T15:34:51.999Z</time></trkpt><trkpt lat="41.671775459792336" lon="13.350711569647858"><ele>225.5</ele><time>2026-04-18T15:34:52.999Z</time></trkpt><trkpt lat="41.67184965413623" lon="13.350396385637618"><ele>225.0</ele><time>2026-04-18T15:34:53.999Z</time></trkpt><trkpt lat="41.67191464521772" lon="13.35010503358376"><ele>225.5</ele><time>2026-04-18T15:34:54.999Z</time></trkpt><trkpt lat="41.67198496000892" lon="13.349805709931829"><ele>226.0</ele><time>2026-04-18T15:34:55.999Z</time></trkpt><trkpt lat="41.672052518593645" lon="13.349506137970254"><ele>226.0</ele><time>2026-04-18T15:34:56.999Z</time></trkpt><trkpt lat="41.672114016684276" lon="13.349243730721891"><ele>226.0</ele><time>2026-04-18T15:34:57.999Z</time></trkpt><trkpt lat="41.67217241877376" lon="13.34899453392466"><ele>226.0</ele><time>2026-04-18T15:34:58.999Z</time></trkpt><trkpt lat="41.67222724249086" lon="13.348760605734137"><ele>226.33333333333331</ele><time>2026-04-18T15:34:59.999Z</time></trkpt><trkpt lat="41.67228691066244" lon="13.348506006642"><ele>226.66666666666669</ele><time>2026-04-18T15:35:00.999Z</time></trkpt><trkpt lat="41.672348928461076" lon="13.348243888637228"><ele>227.0</ele><time>2026-04-18T15:35:01.999Z</time></trkpt><trkpt lat="41.67240393435488" lon="13.348012564332791"><ele>227.66666666666669</ele><time>2026-04-18T15:35:02.999Z</time></trkpt><trkpt lat="41.67245570253364" lon="13.347793782318332"><ele>228.33333333333331</ele><time>2026-04-18T15:35:03.999Z</time></trkpt><trkpt lat="41.67250478379989" lon="13.34758847837739"><ele>229.0</ele><time>2026-04-18T15:35:04.999Z</time></trkpt><trkpt lat="41.67254754723948" lon="13.347408783826626"><ele>229.0</ele><time>2026-04-18T15:35:05.999Z</time></trkpt><trkpt lat="41.672635122970895" lon="13.3472844066711"><ele>229.0</ele><time>2026-04-18T15:35:06.999Z</time></trkpt><trkpt lat="41.67271288708208" lon="13.347141635807867"><ele>229.0</ele><time>2026-04-18T15:35:07.999Z</time></trkpt><trkpt lat="41.672807904467696" lon="13.347020917058844"><ele>229.0</ele><time>2026-04-18T15:35:08.999Z</time></trkpt><trkpt lat="41.67291290630991" lon="13.346905585223436"><ele>229.0</ele><time>2026-04-18T15:35:09.999Z</time></trkpt><trkpt lat="41.673032627024604" lon="13.34682052827366"><ele>229.0</ele><time>2026-04-18T15:35:10.999Z</time></trkpt><trkpt lat="41.67315925641633" lon="13.346755627728191"><ele>229.0</ele><time>2026-04-18T15:35:11.999Z</time></trkpt><trkpt lat="41.67326995366396" lon="13.346705962152322"><ele>229.0</ele><time>2026-04-18T15:35:12.999Z</time></trkpt><trkpt lat="41.67333480838423" lon="13.346671328745732"><ele>229.0</ele><time>2026-04-18T15:35:13.999Z</time></trkpt><trkpt lat="41.673406493922144" lon="13.3465980618885"><ele>228.99999999999997</ele><time>2026-04-18T15:35:14.999Z</time></trkpt><trkpt lat="41.67349668303101" lon="13.34657014854363"><ele>228.99999999999997</ele><time>2026-04-18T15:35:15.999Z</time></trkpt><trkpt lat="41.67357580244828" lon="13.346485009201627"><ele>229.0</ele><time>2026-04-18T15:35:16.999Z</time></trkpt><trkpt lat="41.6736450529178" lon="13.346359572444227"><ele>229.0</ele><time>2026-04-18T15:35:17.999Z</time></trkpt><trkpt lat="41.67369874275734" lon="13.346217916780066"><ele>228.75</ele><time>2026-04-18T15:35:18.999Z</time></trkpt><trkpt lat="41.67372551640083" lon="13.34605660429882"><ele>228.5</ele><time>2026-04-18T15:35:19.999Z</time></trkpt><trkpt lat="41.67371257467455" lon="13.34589303189868"><ele>228.25</ele><time>2026-04-18T15:35:20.999Z</time></trkpt><trkpt lat="41.6736653745938" lon="13.345747838632121"><ele>228.0</ele><time>2026-04-18T15:35:21.999Z</time></trkpt><trkpt lat="41.673572268874196" lon="13.345618574715088"><ele>227.75</ele><time>2026-04-18T15:35:22.999Z</time></trkpt><trkpt lat="41.67347269081328" lon="13.345517998652197"><ele>227.5</ele><time>2026-04-18T15:35:23.999Z</time></trkpt><trkpt lat="41.673361595781856" lon="13.34544036791066"><ele>227.25</ele><time>2026-04-18T15:35:24.999Z</time></trkpt><trkpt lat="41.67322766785822" lon="13.345396353789345"><ele>227.0</ele><time>2026-04-18T15:35:25.999Z</time></trkpt><trkpt lat="41.67311615080323" lon="13.34528965609491"><ele>227.0</ele><time>2026-04-18T15:35:26.999Z</time></trkpt><trkpt lat="41.67290644399615" lon="13.345204834253247"><ele>227.0</ele><time>2026-04-18T15:35:27.999Z</time></trkpt><trkpt lat="41.67273926975061" lon="13.345136312636065"><ele>227.0</ele><time>2026-04-18T15:35:28.999Z</time></trkpt><trkpt lat="41.672587944655255" lon="13.345058323198487"><ele>227.0</ele><time>2026-04-18T15:35:29.999Z</time></trkpt><trkpt lat="41.67244223883158" lon="13.345035796220843"><ele>227.0</ele><time>2026-04-18T15:35:30.999Z</time></trkpt><trkpt lat="41.672282415770816" lon="13.345077968345295"><ele>227.0</ele><time>2026-04-18T15:35:31.999Z</time></trkpt><trkpt lat="41.67214346112026" lon="13.345121685469922"><ele>225.5</ele><time>2026-04-18T15:35:32.999Z</time></trkpt><trkpt lat="41.671905936946224" lon="13.345466525191567"><ele>224.0</ele><time>2026-04-18T15:35:33.999Z</time></trkpt><trkpt lat="41.671745158756806" lon="13.34564693146446"><ele>224.0</ele><time>2026-04-18T15:35:34.999Z</time></trkpt><trkpt lat="41.6715929305366" lon="13.345817655268341"><ele>224.0</ele><time>2026-04-18T15:35:35.999Z</time></trkpt><trkpt lat="41.671447984072486" lon="13.345975422731811"><ele>224.0</ele><time>2026-04-18T15:35:36.999Z</time></trkpt><trkpt lat="41.67132366113735" lon="13.346129287612815"><ele>224.0</ele><time>2026-04-18T15:35:37.999Z</time></trkpt><trkpt lat="41.671214379976774" lon="13.346253193773116"><ele>224.0</ele><time>2026-04-18T15:35:38.999Z</time></trkpt><trkpt lat="41.67110010196007" lon="13.346391698566928"><ele>224.0</ele><time>2026-04-18T15:35:39.999Z</time></trkpt><trkpt lat="41.67101796755305" lon="13.34651467777209"><ele>224.0</ele><time>2026-04-18T15:35:40.999Z</time></trkpt><trkpt lat="41.67099421124491" lon="13.346663503045653"><ele>224.25</ele><time>2026-04-18T15:35:41.999Z</time></trkpt><trkpt lat="41.670990367590555" lon="13.346811146713176"><ele>224.5</ele><time>2026-04-18T15:35:42.999Z</time></trkpt><trkpt lat="41.67100090101441" lon="13.346991538404467"><ele>224.75</ele><time>2026-04-18T15:35:43.999Z</time></trkpt><trkpt lat="41.671023044574774" lon="13.347162028219332"><ele>225.0</ele><time>2026-04-18T15:35:44.999Z</time></trkpt><trkpt lat="41.67104267355967" lon="13.347302207693765"><ele>225.0</ele><time>2026-04-18T15:35:45.999Z</time></trkpt><trkpt lat="41.6710506191854" lon="13.347411974882958"><ele>225.0</ele><time>2026-04-18T15:35:46.999Z</time></trkpt><trkpt lat="41.67105652432625" lon="13.347511097303885"><ele>225.0</ele><time>2026-04-18T15:35:47.999Z</time></trkpt><trkpt lat="41.67105161824025" lon="13.34759610100799"><ele>225.0</ele><time>2026-04-18T15:35:49.999Z</time></trkpt><trkpt lat="41.67105898847806" lon="13.347688197452868"><ele>225.0</ele><time>2026-04-18T15:35:51.999Z</time></trkpt><trkpt lat="41.671067382140436" lon="13.347793082403733"><ele>225.0</ele><time>2026-04-18T15:36:06Z</time></trkpt><trkpt lat="41.67135729692351" lon="13.347866269313887"><ele>225.75</ele><time>2026-04-18T15:36:08Z</time></trkpt><trkpt lat="41.67145073967789" lon="13.347836592995437"><ele>226.5</ele><time>2026-04-18T15:36:09Z</time></trkpt><trkpt lat="41.67155245778309" lon="13.34783616162186"><ele>227.25</ele><time>2026-04-18T15:36:10Z</time></trkpt><trkpt lat="41.67168687832234" lon="13.34781965028593"><ele>228.0</ele><time>2026-04-18T15:36:11Z</time></trkpt><trkpt lat="41.67183009413678" lon="13.34781306459092"><ele>228.33333333333331</ele><time>2026-04-18T15:36:12Z</time></trkpt><trkpt lat="41.671979152056636" lon="13.347797837281888"><ele>228.66666666666666</ele><time>2026-04-18T15:36:13Z</time></trkpt><trkpt lat="41.67214425715872" lon="13.347781451259994"><ele>229.0</ele><time>2026-04-18T15:36:14Z</time></trkpt><trkpt lat="41.672319711790095" lon="13.347758880091245"><ele>229.0</ele><time>2026-04-18T15:36:15Z</time></trkpt><trkpt lat="41.67253082356394" lon="13.347735078159609"><ele>229.0</ele><time>2026-04-18T15:36:16Z</time></trkpt><trkpt lat="41.67275367886263" lon="13.347707689245807"><ele>229.0</ele><time>2026-04-18T15:36:17Z</time></trkpt><trkpt lat="41.672961887048025" lon="13.347715173846176"><ele>229.33333333333331</ele><time>2026-04-18T15:36:18Z</time></trkpt><trkpt lat="41.67314986907204" lon="13.34774694106249"><ele>229.66666666666669</ele><time>2026-04-18T15:36:19Z</time></trkpt><trkpt lat="41.67327402951791" lon="13.347773922300647"><ele>230.0</ele><time>2026-04-18T15:36:20Z</time></trkpt><trkpt lat="41.67341175622862" lon="13.34780913756786"><ele>230.0</ele><time>2026-04-18T15:36:22Z</time></trkpt><trkpt lat="41.67349251833452" lon="13.347836508831968"><ele>230.0</ele><time>2026-04-18T15:36:24Z</time></trkpt><trkpt lat="41.67355399867417" lon="13.347858410643934"><ele>230.0</ele><time>2026-04-18T15:36:27Z</time></trkpt><trkpt lat="41.67365138857244" lon="13.347883030779837"><ele>230.0</ele><time>2026-04-18T15:36:28Z</time></trkpt><trkpt lat="41.67378209254484" lon="13.347922122165846"><ele>230.0</ele><time>2026-04-18T15:36:30Z</time></trkpt><trkpt lat="41.67386025865303" lon="13.34794367185826"><ele>230.66666666666669</ele><time>2026-04-18T15:36:31Z</time></trkpt><trkpt lat="41.67399363610816" lon="13.34798417666295"><ele>231.33333333333331</ele><time>2026-04-18T15:36:32Z</time></trkpt><trkpt lat="41.6741572874259" lon="13.34803383610566"><ele>232.0</ele><time>2026-04-18T15:36:33Z</time></trkpt><trkpt lat="41.67430846628556" lon="13.348105933517031"><ele>232.5</ele><time>2026-04-18T15:36:34Z</time></trkpt><trkpt lat="41.67446693684877" lon="13.348153248187176"><ele>233.0</ele><time>2026-04-18T15:36:35Z</time></trkpt><trkpt lat="41.67459715451315" lon="13.34819229043197"><ele>233.5</ele><time>2026-04-18T15:36:36Z</time></trkpt><trkpt lat="41.67472548654749" lon="13.348234002826821"><ele>234.0</ele><time>2026-04-18T15:36:37Z</time></trkpt><trkpt lat="41.674826370542135" lon="13.348277040554787"><ele>234.0</ele><time>2026-04-18T15:36:38Z</time></trkpt><trkpt lat="41.674908657702936" lon="13.34831372976146"><ele>233.99999999999997</ele><time>2026-04-18T15:36:39Z</time></trkpt><trkpt lat="41.67497751433781" lon="13.348351870333483"><ele>233.99999999999997</ele><time>2026-04-18T15:36:40Z</time></trkpt><trkpt lat="41.67509810764684" lon="13.34841691602673"><ele>234.0</ele><time>2026-04-18T15:36:42Z</time></trkpt><trkpt lat="41.67516295558948" lon="13.34845494292668"><ele>234.0</ele><time>2026-04-18T15:36:43Z</time></trkpt><trkpt lat="41.67528692267517" lon="13.348513659356689"><ele>234.0</ele><time>2026-04-18T15:36:44Z</time></trkpt><trkpt lat="41.675360065021444" lon="13.34855453154901"><ele>233.99999999999997</ele><time>2026-04-18T15:36:45Z</time></trkpt><trkpt lat="41.67544362547091" lon="13.34860122545002"><ele>233.99999999999997</ele><time>2026-04-18T15:36:46Z</time></trkpt><trkpt lat="41.6755352368577" lon="13.34865241794414"><ele>234.0</ele><time>2026-04-18T15:36:47Z</time></trkpt><trkpt lat="41.67563468004397" lon="13.348712926390787"><ele>234.0</ele><time>2026-04-18T15:36:47.999Z</time></trkpt><trkpt lat="41.67575109168763" lon="13.348778373203665"><ele>234.0</ele><time>2026-04-18T15:36:48.999Z</time></trkpt><trkpt lat="41.67587990486212" lon="13.348846638300639"><ele>234.0</ele><time>2026-04-18T15:36:49.999Z</time></trkpt><trkpt lat="41.67602957303951" lon="13.348904312682198"><ele>234.0</ele><time>2026-04-18T15:36:50.999Z</time></trkpt><trkpt lat="41.67620050004129" lon="13.348919165029688"><ele>234.66666666666669</ele><time>2026-04-18T15:36:51.999Z</time></trkpt><trkpt lat="41.67637213380264" lon="13.34897771071844"><ele>235.33333333333334</ele><time>2026-04-18T15:36:52.999Z</time></trkpt><trkpt lat="41.67656198945784" lon="13.349032967876205"><ele>236.0</ele><time>2026-04-18T15:36:53.999Z</time></trkpt><trkpt lat="41.67675968795681" lon="13.349086194402952"><ele>236.66666666666669</ele><time>2026-04-18T15:36:54.999Z</time></trkpt><trkpt lat="41.67696567353329" lon="13.349138335186323"><ele>237.33333333333331</ele><time>2026-04-18T15:36:55.999Z</time></trkpt><trkpt lat="41.677176078493275" lon="13.349186634616862"><ele>238.0</ele><time>2026-04-18T15:36:56.999Z</time></trkpt><trkpt lat="41.67739393253334" lon="13.349239782363082"><ele>238.0</ele><time>2026-04-18T15:36:57.999Z</time></trkpt><trkpt lat="41.677614247085174" lon="13.349297918643469"><ele>238.0</ele><time>2026-04-18T15:36:58.999Z</time></trkpt><trkpt lat="41.67782970373894" lon="13.349353073802371"><ele>238.0</ele><time>2026-04-18T15:36:59.999Z</time></trkpt><trkpt lat="41.678028395736355" lon="13.34940211335877"><ele>238.0</ele><time>2026-04-18T15:37:00.999Z</time></trkpt><trkpt lat="41.678209496417416" lon="13.349445342201413"><ele>238.0</ele><time>2026-04-18T15:37:01.999Z</time></trkpt><trkpt lat="41.678388070542574" lon="13.349490464092385"><ele>238.0</ele><time>2026-04-18T15:37:02.999Z</time></trkpt><trkpt lat="41.67856742509163" lon="13.349537949808024"><ele>238.33333333333331</ele><time>2026-04-18T15:37:03.999Z</time></trkpt><trkpt lat="41.6787541832366" lon="13.349594310536272"><ele>238.66666666666669</ele><time>2026-04-18T15:37:04.999Z</time></trkpt><trkpt lat="41.67894390183303" lon="13.349662256668989"><ele>239.0</ele><time>2026-04-18T15:37:05.999Z</time></trkpt><trkpt lat="41.67914007055204" lon="13.349736434301155"><ele>239.0</ele><time>2026-04-18T15:37:06.999Z</time></trkpt><trkpt lat="41.679347826431275" lon="13.349811169150854"><ele>239.0</ele><time>2026-04-18T15:37:07.999Z</time></trkpt><trkpt lat="41.67956949602653" lon="13.349887198010535"><ele>239.0</ele><time>2026-04-18T15:37:08.999Z</time></trkpt><trkpt lat="41.679796789874494" lon="13.34996986029859"><ele>239.5</ele><time>2026-04-18T15:37:09.999Z</time></trkpt><trkpt lat="41.68002955741439" lon="13.350083726444929"><ele>240.0</ele><time>2026-04-18T15:37:10.999Z</time></trkpt><trkpt lat="41.68027372074487" lon="13.350191141610164"><ele>240.5</ele><time>2026-04-18T15:37:11.999Z</time></trkpt><trkpt lat="41.68051715872473" lon="13.350306538182021"><ele>241.0</ele><time>2026-04-18T15:37:12.999Z</time></trkpt><trkpt lat="41.68073231735137" lon="13.350424795548443"><ele>241.0</ele><time>2026-04-18T15:37:13.999Z</time></trkpt><trkpt lat="41.68093384360047" lon="13.350543784027847"><ele>241.0</ele><time>2026-04-18T15:37:14.999Z</time></trkpt><trkpt lat="41.68111837443946" lon="13.35065481147093"><ele>241.0</ele><time>2026-04-18T15:37:15.999Z</time></trkpt><trkpt lat="41.681291417477645" lon="13.350760564450177"><ele>242.0</ele><time>2026-04-18T15:37:16.999Z</time></trkpt><trkpt lat="41.68144874433996" lon="13.350853383862212"><ele>243.0</ele><time>2026-04-18T15:37:17.999Z</time></trkpt><trkpt lat="41.681590233898085" lon="13.350935949636282"><ele>244.0</ele><time>2026-04-18T15:37:18.999Z</time></trkpt><trkpt lat="41.68171620883777" lon="13.351006073502603"><ele>244.0</ele><time>2026-04-18T15:37:19.999Z</time></trkpt><trkpt lat="41.68182779979176" lon="13.351064494918191"><ele>244.0</ele><time>2026-04-18T15:37:20.999Z</time></trkpt><trkpt lat="41.681926701494994" lon="13.351113974101287"><ele>244.0</ele><time>2026-04-18T15:37:21.999Z</time></trkpt><trkpt lat="41.682034007341095" lon="13.351161545378886"><ele>244.0</ele><time>2026-04-18T15:37:22.999Z</time></trkpt><trkpt lat="41.68215114235623" lon="13.351200694856916"><ele>244.25</ele><time>2026-04-18T15:37:23.999Z</time></trkpt><trkpt lat="41.68228027230245" lon="13.351217134942468"><ele>244.5</ele><time>2026-04-18T15:37:24.999Z</time></trkpt><trkpt lat="41.682398569893756" lon="13.351259761397763"><ele>244.75</ele><time>2026-04-18T15:37:25.999Z</time></trkpt><trkpt lat="41.6825260367949" lon="13.351291232532997"><ele>245.0</ele><time>2026-04-18T15:37:26.999Z</time></trkpt><trkpt lat="41.68268885248696" lon="13.35131344139558"><ele>245.33333333333334</ele><time>2026-04-18T15:37:27.999Z</time></trkpt><trkpt lat="41.68285525478288" lon="13.351337334395915"><ele>245.66666666666669</ele><time>2026-04-18T15:37:28.999Z</time></trkpt><trkpt lat="41.68302299196828" lon="13.35134693656075"><ele>246.0</ele><time>2026-04-18T15:37:29.999Z</time></trkpt><trkpt lat="41.68318066190427" lon="13.351358641255045"><ele>246.0</ele><time>2026-04-18T15:37:30.999Z</time></trkpt><trkpt lat="41.683333840356866" lon="13.351363261726576"><ele>246.0</ele><time>2026-04-18T15:37:31.999Z</time></trkpt><trkpt lat="41.68350556275233" lon="13.351356243956417"><ele>246.0</ele><time>2026-04-18T15:37:32.999Z</time></trkpt><trkpt lat="41.68369943513856" lon="13.35133196791155"><ele>246.66666666666669</ele><time>2026-04-18T15:37:33.999Z</time></trkpt><trkpt lat="41.68390709553309" lon="13.351296565066402"><ele>247.33333333333334</ele><time>2026-04-18T15:37:34.999Z</time></trkpt><trkpt lat="41.68408389831532" lon="13.351252343338544"><ele>248.0</ele><time>2026-04-18T15:37:35.999Z</time></trkpt><trkpt lat="41.68423576410744" lon="13.351216999804981"><ele>248.0</ele><time>2026-04-18T15:37:36.999Z</time></trkpt><trkpt lat="41.684366753523314" lon="13.351190113646558"><ele>248.0</ele><time>2026-04-18T15:37:37.999Z</time></trkpt><trkpt lat="41.684479496149656" lon="13.351169660333563"><ele>248.0</ele><time>2026-04-18T15:37:38.999Z</time></trkpt><trkpt lat="41.68457828645975" lon="13.351149729619392"><ele>248.0</ele><time>2026-04-18T15:37:39.999Z</time></trkpt><trkpt lat="41.68467999887994" lon="13.351127392166022"><ele>248.0</ele><time>2026-04-18T15:37:40.999Z</time></trkpt><trkpt lat="41.684792941003174" lon="13.351107659812957"><ele>248.25</ele><time>2026-04-18T15:37:41.999Z</time></trkpt><trkpt lat="41.684916023842796" lon="13.351086416631958"><ele>248.5</ele><time>2026-04-18T15:37:42.999Z</time></trkpt><trkpt lat="41.685039980468694" lon="13.351073134127654"><ele>248.75</ele><time>2026-04-18T15:37:43.999Z</time></trkpt><trkpt lat="41.68517249281771" lon="13.351070448644343"><ele>249.0</ele><time>2026-04-18T15:37:44.999Z</time></trkpt><trkpt lat="41.685322631351106" lon="13.351116684655375"><ele>249.33333333333331</ele><time>2026-04-18T15:37:45.999Z</time></trkpt><trkpt lat="41.685486059553114" lon="13.351154115102183"><ele>249.66666666666666</ele><time>2026-04-18T15:37:46.999Z</time></trkpt><trkpt lat="41.68565386908342" lon="13.351182274888819"><ele>250.0</ele><time>2026-04-18T15:37:47.999Z</time></trkpt><trkpt lat="41.685820735210015" lon="13.351222164677793"><ele>250.0</ele><time>2026-04-18T15:37:48.999Z</time></trkpt><trkpt lat="41.68598969462872" lon="13.351259728176982"><ele>250.0</ele><time>2026-04-18T15:37:49.999Z</time></trkpt><trkpt lat="41.6861558765147" lon="13.351300151049948"><ele>250.0</ele><time>2026-04-18T15:37:50.999Z</time></trkpt><trkpt lat="41.686320392370554" lon="13.35134143905316"><ele>250.66666666666666</ele><time>2026-04-18T15:37:51.999Z</time></trkpt><trkpt lat="41.68648546321055" lon="13.35137992700774"><ele>251.33333333333331</ele><time>2026-04-18T15:37:52.999Z</time></trkpt><trkpt lat="41.68665387443464" lon="13.351415956459483"><ele>252.0</ele><time>2026-04-18T15:37:53.999Z</time></trkpt><trkpt lat="41.68682063122325" lon="13.351455992522755"><ele>252.0</ele><time>2026-04-18T15:37:54.999Z</time></trkpt><trkpt lat="41.6869841133432" lon="13.35149125872256"><ele>252.0</ele><time>2026-04-18T15:37:55.999Z</time></trkpt><trkpt lat="41.68714377785778" lon="13.351523740218685"><ele>252.0</ele><time>2026-04-18T15:37:56.999Z</time></trkpt><trkpt lat="41.687280749721836" lon="13.351542233848933"><ele>252.0</ele><time>2026-04-18T15:37:57.999Z</time></trkpt><trkpt lat="41.6874017752259" lon="13.35155420067801"><ele>252.0</ele><time>2026-04-18T15:37:58.999Z</time></trkpt><trkpt lat="41.68750011494349" lon="13.351564428812884"><ele>252.0</ele><time>2026-04-18T15:37:59.999Z</time></trkpt><trkpt lat="41.68757930746654" lon="13.351571390897254"><ele>252.0</ele><time>2026-04-18T15:38:00.999Z</time></trkpt><trkpt lat="41.68764666364651" lon="13.351576797415971"><ele>252.0</ele><time>2026-04-18T15:38:01.999Z</time></trkpt><trkpt lat="41.68775758408739" lon="13.35158925171191"><ele>252.16666666666666</ele><time>2026-04-18T15:38:03.999Z</time></trkpt><trkpt lat="41.687873066419634" lon="13.351597518215764"><ele>252.33333333333331</ele><time>2026-04-18T15:38:06Z</time></trkpt><trkpt lat="41.68793801136351" lon="13.35159853140831"><ele>252.5</ele><time>2026-04-18T15:38:07Z</time></trkpt><trkpt lat="41.688019445877465" lon="13.351614510638942"><ele>252.66666666666666</ele><time>2026-04-18T15:38:08Z</time></trkpt><trkpt lat="41.688088790900466" lon="13.351615869202062"><ele>252.83333333333331</ele><time>2026-04-18T15:38:09Z</time></trkpt><trkpt lat="41.68819640829494" lon="13.351623493367713"><ele>253.0</ele><time>2026-04-18T15:38:11Z</time></trkpt><trkpt lat="41.68825983441939" lon="13.351631356580649"><ele>253.0</ele><time>2026-04-18T15:38:12Z</time></trkpt><trkpt lat="41.688329791635724" lon="13.351638857323268"><ele>253.0</ele><time>2026-04-18T15:38:13Z</time></trkpt><trkpt lat="41.68840032729698" lon="13.351642094688017"><ele>253.0</ele><time>2026-04-18T15:38:14Z</time></trkpt><trkpt lat="41.68853130281782" lon="13.351656162502959"><ele>253.0</ele><time>2026-04-18T15:38:16Z</time></trkpt><trkpt lat="41.68863053723995" lon="13.351670442973512"><ele>253.0</ele><time>2026-04-18T15:38:17Z</time></trkpt><trkpt lat="41.68875803793759" lon="13.351697077213688"><ele>253.25</ele><time>2026-04-18T15:38:18Z</time></trkpt><trkpt lat="41.68891623730163" lon="13.35173766530202"><ele>253.5</ele><time>2026-04-18T15:38:20Z</time></trkpt><trkpt lat="41.689022136964056" lon="13.351758304615014"><ele>253.75</ele><time>2026-04-18T15:38:21Z</time></trkpt><trkpt lat="41.68911713829445" lon="13.35178820939186"><ele>254.0</ele><time>2026-04-18T15:38:22Z</time></trkpt><trkpt lat="41.689216138760045" lon="13.351817498650098"><ele>254.00000000000003</ele><time>2026-04-18T15:38:23Z</time></trkpt><trkpt lat="41.68929598855865" lon="13.351844080521447"><ele>254.0</ele><time>2026-04-18T15:38:24Z</time></trkpt><trkpt lat="41.6893876450269" lon="13.351853431661683"><ele>254.0</ele><time>2026-04-18T15:38:25Z</time></trkpt><trkpt lat="41.6894658516952" lon="13.351860984485743"><ele>254.0</ele><time>2026-04-18T15:38:26Z</time></trkpt><trkpt lat="41.68953391395194" lon="13.351873311044905"><ele>254.00000000000003</ele><time>2026-04-18T15:38:27Z</time></trkpt><trkpt lat="41.689601837608876" lon="13.351882596842575"><ele>254.0</ele><time>2026-04-18T15:38:28Z</time></trkpt><trkpt lat="41.68973229025837" lon="13.351899294307168"><ele>254.50000000000003</ele><time>2026-04-18T15:38:30Z</time></trkpt><trkpt lat="41.689798443439834" lon="13.351913623983855"><ele>255.0</ele><time>2026-04-18T15:38:31Z</time></trkpt><trkpt lat="41.68985949371721" lon="13.35195331401023"><ele>255.5</ele><time>2026-04-18T15:38:32Z</time></trkpt><trkpt lat="41.68993154943222" lon="13.352078761881671"><ele>256.0</ele><time>2026-04-18T15:38:34Z</time></trkpt><trkpt lat="41.68996105073163" lon="13.35217986201872"><ele>256.5</ele><time>2026-04-18T15:38:35Z</time></trkpt><trkpt lat="41.68999494598829" lon="13.352277980969776"><ele>257.0</ele><time>2026-04-18T15:38:36Z</time></trkpt><trkpt lat="41.690027099368166" lon="13.352399938410187"><ele>257.2</ele><time>2026-04-18T15:38:37Z</time></trkpt><trkpt lat="41.690050018695594" lon="13.352489780156828"><ele>257.4</ele><time>2026-04-18T15:38:38Z</time></trkpt><trkpt lat="41.690108660977046" lon="13.352612544273896"><ele>257.6</ele><time>2026-04-18T15:38:40Z</time></trkpt><trkpt lat="41.69009352146357" lon="13.352791696522008"><ele>257.8</ele><time>2026-04-18T15:38:42Z</time></trkpt><trkpt lat="41.690080324277346" lon="13.352934215632162"><ele>258.0</ele><time>2026-04-18T15:38:43Z</time></trkpt><trkpt lat="41.68998402344856" lon="13.353025812082683"><ele>257.8</ele><time>2026-04-18T15:38:44Z</time></trkpt><trkpt lat="41.68996039195822" lon="13.353151847198474"><ele>257.6</ele><time>2026-04-18T15:38:45Z</time></trkpt><trkpt lat="41.68993051530606" lon="13.353284309982847"><ele>257.4</ele><time>2026-04-18T15:38:46Z</time></trkpt><trkpt lat="41.68988802077302" lon="13.353421146652718"><ele>257.2</ele><time>2026-04-18T15:38:47Z</time></trkpt><trkpt lat="41.689838523104086" lon="13.353557380993603"><ele>257.0</ele><time>2026-04-18T15:38:48Z</time></trkpt><trkpt lat="41.6897776095213" lon="13.353711686936528"><ele>257.33333333333337</ele><time>2026-04-18T15:38:49Z</time></trkpt><trkpt lat="41.689700068684964" lon="13.353895598402262"><ele>257.6666666666667</ele><time>2026-04-18T15:38:49.999Z</time></trkpt><trkpt lat="41.689592549733156" lon="13.354135426902461"><ele>258.0</ele><time>2026-04-18T15:38:50.999Z</time></trkpt><trkpt lat="41.689466655497235" lon="13.354427731735846"><ele>256.5</ele><time>2026-04-18T15:38:51.999Z</time></trkpt><trkpt lat="41.68933230565278" lon="13.354744109570905"><ele>255.0</ele><time>2026-04-18T15:38:52.999Z</time></trkpt><trkpt lat="41.68920290790018" lon="13.355028304262873"><ele>255.0</ele><time>2026-04-18T15:38:53.999Z</time></trkpt><trkpt lat="41.689077977169404" lon="13.35529068089718"><ele>255.0</ele><time>2026-04-18T15:38:54.999Z</time></trkpt><trkpt lat="41.68894586915305" lon="13.35556601119775"><ele>255.0</ele><time>2026-04-18T15:38:55.999Z</time></trkpt><trkpt lat="41.68883866179021" lon="13.355789444737436"><ele>255.0</ele><time>2026-04-18T15:38:56.999Z</time></trkpt><trkpt lat="41.68874316906344" lon="13.355988152347079"><ele>255.0</ele><time>2026-04-18T15:38:57.999Z</time></trkpt><trkpt lat="41.688657695685706" lon="13.356160291635721"><ele>254.75</ele><time>2026-04-18T15:38:58.999Z</time></trkpt><trkpt lat="41.688581427330206" lon="13.356307979991183"><ele>254.5</ele><time>2026-04-18T15:38:59.999Z</time></trkpt><trkpt lat="41.68848053204035" lon="13.356447779754893"><ele>254.25</ele><time>2026-04-18T15:39:00.999Z</time></trkpt><trkpt lat="41.68835611048753" lon="13.356454108387211"><ele>254.0</ele><time>2026-04-18T15:39:01.999Z</time></trkpt><trkpt lat="41.68824412662279" lon="13.356443344528973"><ele>254.0</ele><time>2026-04-18T15:39:02.999Z</time></trkpt><trkpt lat="41.68808867499818" lon="13.356408166227762"><ele>254.0</ele><time>2026-04-18T15:39:03.999Z</time></trkpt><trkpt lat="41.68793729987382" lon="13.35637896893149"><ele>254.0</ele><time>2026-04-18T15:39:04.999Z</time></trkpt><trkpt lat="41.687807692567944" lon="13.356410404809363"><ele>254.0</ele><time>2026-04-18T15:39:05.999Z</time></trkpt><trkpt lat="41.687719773101776" lon="13.35651091204876"><ele>253.66666666666669</ele><time>2026-04-18T15:39:06.999Z</time></trkpt><trkpt lat="41.6876643243495" lon="13.356682100797473"><ele>253.33333333333331</ele><time>2026-04-18T15:39:07.999Z</time></trkpt><trkpt lat="41.68758052290685" lon="13.356931024868317"><ele>253.0</ele><time>2026-04-18T15:39:08.999Z</time></trkpt><trkpt lat="41.687511519395244" lon="13.357226539792721"><ele>253.0</ele><time>2026-04-18T15:39:09.999Z</time></trkpt><trkpt lat="41.68745490922871" lon="13.357498969218007"><ele>253.0</ele><time>2026-04-18T15:39:10.999Z</time></trkpt><trkpt lat="41.68738950419101" lon="13.357805355870745"><ele>253.0</ele><time>2026-04-18T15:39:11.999Z</time></trkpt><trkpt lat="41.68732473331661" lon="13.35810809266954"><ele>253.0</ele><time>2026-04-18T15:39:12.999Z</time></trkpt><trkpt lat="41.6872379432428" lon="13.358353644735365"><ele>253.0</ele><time>2026-04-18T15:39:13.999Z</time></trkpt><trkpt lat="41.68715255175671" lon="13.358605718978952"><ele>253.0</ele><time>2026-04-18T15:39:14.999Z</time></trkpt><trkpt lat="41.68705495338341" lon="13.358867899059463"><ele>253.0</ele><time>2026-04-18T15:39:15.999Z</time></trkpt><trkpt lat="41.68693492791409" lon="13.359143838015695"><ele>253.0</ele><time>2026-04-18T15:39:16.999Z</time></trkpt><trkpt lat="41.68681669219753" lon="13.359409853263047"><ele>253.0</ele><time>2026-04-18T15:39:17.999Z</time></trkpt><trkpt lat="41.68668983759536" lon="13.359730958158249"><ele>253.0</ele><time>2026-04-18T15:39:18.999Z</time></trkpt><trkpt lat="41.68657476514142" lon="13.360016385878854"><ele>253.0</ele><time>2026-04-18T15:39:19.999Z</time></trkpt><trkpt lat="41.68648553140407" lon="13.36027325261219"><ele>253.0</ele><time>2026-04-18T15:39:20.999Z</time></trkpt><trkpt lat="41.68638639565105" lon="13.360500115197121"><ele>253.0</ele><time>2026-04-18T15:39:21.999Z</time></trkpt><trkpt lat="41.68628218328314" lon="13.36070880209701"><ele>253.0</ele><time>2026-04-18T15:39:22.999Z</time></trkpt><trkpt lat="41.6862010805949" lon="13.360904194588306"><ele>253.0</ele><time>2026-04-18T15:39:23.999Z</time></trkpt><trkpt lat="41.6861526770156" lon="13.36109174714791"><ele>253.0</ele><time>2026-04-18T15:39:24.999Z</time></trkpt><trkpt lat="41.6860938476454" lon="13.361251328584634"><ele>253.0</ele><time>2026-04-18T15:39:25.999Z</time></trkpt><trkpt lat="41.68602415315677" lon="13.361379725130611"><ele>253.25</ele><time>2026-04-18T15:39:26.999Z</time></trkpt><trkpt lat="41.6859586463514" lon="13.361481545586175"><ele>253.5</ele><time>2026-04-18T15:39:27.999Z</time></trkpt><trkpt lat="41.68585581463567" lon="13.361543741046756"><ele>253.75</ele><time>2026-04-18T15:39:28.999Z</time></trkpt><trkpt lat="41.68572602238744" lon="13.361577999719904"><ele>254.0</ele><time>2026-04-18T15:39:29.999Z</time></trkpt><trkpt lat="41.68561633384872" lon="13.361689579370216"><ele>254.0</ele><time>2026-04-18T15:39:30.999Z</time></trkpt><trkpt lat="41.685530668355035" lon="13.36184767359453"><ele>254.0</ele><time>2026-04-18T15:39:31.999Z</time></trkpt><trkpt lat="41.68547387052902" lon="13.362078864381584"><ele>254.0</ele><time>2026-04-18T15:39:32.999Z</time></trkpt><trkpt lat="41.68542416042512" lon="13.362367267280872"><ele>254.33333333333334</ele><time>2026-04-18T15:39:33.999Z</time></trkpt><trkpt lat="41.685379128766044" lon="13.362676976734798"><ele>254.66666666666669</ele><time>2026-04-18T15:39:34.999Z</time></trkpt><trkpt lat="41.685343644253145" lon="13.362943468551197"><ele>255.0</ele><time>2026-04-18T15:39:35.999Z</time></trkpt><trkpt lat="41.68531212699687" lon="13.363174927173148"><ele>255.0</ele><time>2026-04-18T15:39:36.999Z</time></trkpt><trkpt lat="41.68528093728705" lon="13.36338010081292"><ele>255.0</ele><time>2026-04-18T15:39:37.999Z</time></trkpt><trkpt lat="41.68524603554105" lon="13.363573478158225"><ele>255.0</ele><time>2026-04-18T15:39:38.999Z</time></trkpt><trkpt lat="41.68520624462226" lon="13.363778905109047"><ele>255.0</ele><time>2026-04-18T15:39:39.999Z</time></trkpt><trkpt lat="41.68514921145889" lon="13.364005302597805"><ele>255.0</ele><time>2026-04-18T15:39:40.999Z</time></trkpt><trkpt lat="41.685070377748524" lon="13.364277470244485"><ele>255.0</ele><time>2026-04-18T15:39:41.999Z</time></trkpt><trkpt lat="41.68499455931981" lon="13.364531553247032"><ele>254.8</ele><time>2026-04-18T15:39:42.999Z</time></trkpt><trkpt lat="41.68494724001205" lon="13.36472337045917"><ele>254.6</ele><time>2026-04-18T15:39:43.999Z</time></trkpt><trkpt lat="41.684907395793616" lon="13.364867309633372"><ele>254.39999999999998</ele><time>2026-04-18T15:39:44.999Z</time></trkpt><trkpt lat="41.684859979257745" lon="13.364964575684388"><ele>254.2</ele><time>2026-04-18T15:39:45.999Z</time></trkpt><trkpt lat="41.68477724420828" lon="13.365019273084979"><ele>254.0</ele><time>2026-04-18T15:39:46.999Z</time></trkpt><trkpt lat="41.684644789716806" lon="13.365010304494676"><ele>254.0</ele><time>2026-04-18T15:39:47.999Z</time></trkpt><trkpt lat="41.6845007174423" lon="13.364985520623463"><ele>254.0</ele><time>2026-04-18T15:39:48.999Z</time></trkpt><trkpt lat="41.68440629904112" lon="13.365024622169802"><ele>254.0</ele><time>2026-04-18T15:39:49.999Z</time></trkpt><trkpt lat="41.684320495393834" lon="13.365169129982204"><ele>254.0</ele><time>2026-04-18T15:39:50.999Z</time></trkpt><trkpt lat="41.68421567220022" lon="13.36536535685121"><ele>253.33333333333334</ele><time>2026-04-18T15:39:51.999Z</time></trkpt><trkpt lat="41.68411792379781" lon="13.365620153548745"><ele>252.66666666666669</ele><time>2026-04-18T15:39:52.999Z</time></trkpt><trkpt lat="41.68404082296609" lon="13.365908165567172"><ele>252.0</ele><time>2026-04-18T15:39:53.999Z</time></trkpt><trkpt lat="41.683988176212516" lon="13.36622082351888"><ele>252.33333333333331</ele><time>2026-04-18T15:39:54.999Z</time></trkpt><trkpt lat="41.68394691860567" lon="13.366527879533598"><ele>252.66666666666666</ele><time>2026-04-18T15:39:55.999Z</time></trkpt><trkpt lat="41.683918955132754" lon="13.366767378700834"><ele>253.0</ele><time>2026-04-18T15:39:56.999Z</time></trkpt><trkpt lat="41.683894728257684" lon="13.36698204152604"><ele>252.66666666666666</ele><time>2026-04-18T15:39:57.999Z</time></trkpt><trkpt lat="41.68386921267408" lon="13.367205140438683"><ele>252.33333333333331</ele><time>2026-04-18T15:39:58.999Z</time></trkpt><trkpt lat="41.68384413763636" lon="13.367420712543707"><ele>252.0</ele><time>2026-04-18T15:39:59.999Z</time></trkpt><trkpt lat="41.68382008548738" lon="13.367620551795946"><ele>252.0</ele><time>2026-04-18T15:40:00.999Z</time></trkpt><trkpt lat="41.68379746977412" lon="13.367808456333671"><ele>252.0</ele><time>2026-04-18T15:40:01.999Z</time></trkpt><trkpt lat="41.683775724720384" lon="13.367989126913695"><ele>252.0</ele><time>2026-04-18T15:40:02.999Z</time></trkpt><trkpt lat="41.68375644673653" lon="13.36815794085085"><ele>252.0</ele><time>2026-04-18T15:40:03.999Z</time></trkpt><trkpt lat="41.68373970110649" lon="13.368310003608238"><ele>252.0</ele><time>2026-04-18T15:40:04.999Z</time></trkpt><trkpt lat="41.68372331955516" lon="13.368476584326503"><ele>252.0</ele><time>2026-04-18T15:40:05.999Z</time></trkpt><trkpt lat="41.683705802449346" lon="13.368646934222456"><ele>252.0</ele><time>2026-04-18T15:40:06.999Z</time></trkpt><trkpt lat="41.68368747454475" lon="13.36882386748371"><ele>252.0</ele><time>2026-04-18T15:40:07.999Z</time></trkpt><trkpt lat="41.68366753377574" lon="13.369034104095283"><ele>252.0</ele><time>2026-04-18T15:40:08.999Z</time></trkpt><trkpt lat="41.68365132357285" lon="13.369313164082374"><ele>252.0</ele><time>2026-04-18T15:40:09.999Z</time></trkpt><trkpt lat="41.68365399034826" lon="13.369627854236347"><ele>252.0</ele><time>2026-04-18T15:40:10.999Z</time></trkpt><trkpt lat="41.683658799914596" lon="13.36991363877838"><ele>251.66666666666669</ele><time>2026-04-18T15:40:12Z</time></trkpt><trkpt lat="41.68366184857402" lon="13.370134614123753"><ele>251.33333333333334</ele><time>2026-04-18T15:40:13Z</time></trkpt><trkpt lat="41.68369929741411" lon="13.370338114110929"><ele>251.0</ele><time>2026-04-18T15:40:14Z</time></trkpt><trkpt lat="41.68372290967243" lon="13.370540535490214"><ele>250.66666666666669</ele><time>2026-04-18T15:40:15Z</time></trkpt><trkpt lat="41.683776947376174" lon="13.3707413884004"><ele>250.33333333333331</ele><time>2026-04-18T15:40:16Z</time></trkpt><trkpt lat="41.68387157574013" lon="13.370929790804365"><ele>250.0</ele><time>2026-04-18T15:40:17Z</time></trkpt><trkpt lat="41.68390574099868" lon="13.371125072825087"><ele>250.0</ele><time>2026-04-18T15:40:18Z</time></trkpt><trkpt lat="41.68394833913973" lon="13.37127143358539"><ele>250.0</ele><time>2026-04-18T15:40:19Z</time></trkpt><trkpt lat="41.683963090299066" lon="13.371428768039827"><ele>250.0</ele><time>2026-04-18T15:40:20Z</time></trkpt><trkpt lat="41.68395543060884" lon="13.371587316654056"><ele>250.0</ele><time>2026-04-18T15:40:21Z</time></trkpt><trkpt lat="41.683903376225075" lon="13.371722013276283"><ele>249.66666666666666</ele><time>2026-04-18T15:40:22Z</time></trkpt><trkpt lat="41.683814864557306" lon="13.371833483162904"><ele>249.33333333333331</ele><time>2026-04-18T15:40:23Z</time></trkpt><trkpt lat="41.683672567358634" lon="13.371961642093412"><ele>249.0</ele><time>2026-04-18T15:40:24Z</time></trkpt><trkpt lat="41.68350576643271" lon="13.372107530972082"><ele>249.66666666666669</ele><time>2026-04-18T15:40:25Z</time></trkpt><trkpt lat="41.68337332515596" lon="13.372292827831664"><ele>250.33333333333334</ele><time>2026-04-18T15:40:26Z</time></trkpt><trkpt lat="41.683272234774975" lon="13.372502992984305"><ele>251.0</ele><time>2026-04-18T15:40:27Z</time></trkpt><trkpt lat="41.68320211753558" lon="13.37270412991212"><ele>251.0</ele><time>2026-04-18T15:40:28Z</time></trkpt><trkpt lat="41.68313975106205" lon="13.372879228464667"><ele>251.0</ele><time>2026-04-18T15:40:29Z</time></trkpt><trkpt lat="41.68310221834418" lon="13.37305251629402"><ele>251.0</ele><time>2026-04-18T15:40:30Z</time></trkpt><trkpt lat="41.683085571526064" lon="13.37320850879716"><ele>251.0</ele><time>2026-04-18T15:40:31Z</time></trkpt><trkpt lat="41.683084002105225" lon="13.373353125805643"><ele>251.75</ele><time>2026-04-18T15:40:32Z</time></trkpt><trkpt lat="41.683098607025336" lon="13.373508187170836"><ele>252.5</ele><time>2026-04-18T15:40:33Z</time></trkpt><trkpt lat="41.683126565063006" lon="13.373679233536828"><ele>253.25</ele><time>2026-04-18T15:40:34Z</time></trkpt><trkpt lat="41.68316825550042" lon="13.373851838401025"><ele>254.0</ele><time>2026-04-18T15:40:35Z</time></trkpt><trkpt lat="41.68324830666034" lon="13.37405376937396"><ele>254.33333333333334</ele><time>2026-04-18T15:40:36Z</time></trkpt><trkpt lat="41.68335926107825" lon="13.374293243766324"><ele>254.66666666666669</ele><time>2026-04-18T15:40:37Z</time></trkpt><trkpt lat="41.683454241943636" lon="13.374506073758727"><ele>255.0</ele><time>2026-04-18T15:40:38Z</time></trkpt><trkpt lat="41.683527125969114" lon="13.374677504466842"><ele>255.0</ele><time>2026-04-18T15:40:39Z</time></trkpt><trkpt lat="41.68359008819045" lon="13.374820977477947"><ele>255.0</ele><time>2026-04-18T15:40:40Z</time></trkpt><trkpt lat="41.68364607995591" lon="13.374943951319226"><ele>255.0</ele><time>2026-04-18T15:40:41Z</time></trkpt><trkpt lat="41.68368894678828" lon="13.375047061868155"><ele>255.0</ele><time>2026-04-18T15:40:42Z</time></trkpt><trkpt lat="41.68372412851821" lon="13.37514356903113"><ele>255.0</ele><time>2026-04-18T15:40:43Z</time></trkpt><trkpt lat="41.6837637549938" lon="13.375269019634402"><ele>255.4</ele><time>2026-04-18T15:40:45Z</time></trkpt><trkpt lat="41.683831853092904" lon="13.375346113936386"><ele>255.8</ele><time>2026-04-18T15:40:47Z</time></trkpt><trkpt lat="41.68385544367237" lon="13.375490995601288"><ele>256.2</ele><time>2026-04-18T15:40:49Z</time></trkpt><trkpt lat="41.683875331650995" lon="13.375668652962531"><ele>256.6</ele><time>2026-04-18T15:40:51Z</time></trkpt><trkpt lat="41.68384361186671" lon="13.375814661313497"><ele>257.0</ele><time>2026-04-18T15:40:52Z</time></trkpt><trkpt lat="41.68385285421769" lon="13.375950693545706"><ele>257.0</ele><time>2026-04-18T15:40:53Z</time></trkpt><trkpt lat="41.683860172314496" lon="13.376048210264866"><ele>257.0</ele><time>2026-04-18T15:40:54Z</time></trkpt><trkpt lat="41.68387030009775" lon="13.376208825026627"><ele>257.0</ele><time>2026-04-18T15:40:55.999Z</time></trkpt><trkpt lat="41.68387822372145" lon="13.376334483893855"><ele>257.0</ele><time>2026-04-18T15:40:57.999Z</time></trkpt><trkpt lat="41.68387851131866" lon="13.376458749617372"><ele>257.0</ele><time>2026-04-18T15:41:01.999Z</time></trkpt><trkpt lat="41.683780515670826" lon="13.376536931131408"><ele>256.8</ele><time>2026-04-18T15:41:03.999Z</time></trkpt><trkpt lat="41.68370908177835" lon="13.376576512433315"><ele>256.6</ele><time>2026-04-18T15:41:05.999Z</time></trkpt><trkpt lat="41.683623452042525" lon="13.376568685612062"><ele>256.40000000000003</ele><time>2026-04-18T15:41:07.999Z</time></trkpt><trkpt lat="41.683500056618506" lon="13.37659844155484"><ele>256.2</ele><time>2026-04-18T15:41:09.999Z</time></trkpt><trkpt lat="41.683408182179534" lon="13.376624614197006"><ele>256.0</ele><time>2026-04-18T15:41:10.999Z</time></trkpt><trkpt lat="41.68330730782648" lon="13.376637807932793"><ele>255.60000000000002</ele><time>2026-04-18T15:41:11.999Z</time></trkpt><trkpt lat="41.683224689168185" lon="13.376648613937858"><ele>255.20000000000002</ele><time>2026-04-18T15:41:12.999Z</time></trkpt><trkpt lat="41.683152445601536" lon="13.376658062934448"><ele>254.79999999999998</ele><time>2026-04-18T15:41:13.999Z</time></trkpt><trkpt lat="41.6830418766993" lon="13.376672524662242"><ele>254.39999999999998</ele><time>2026-04-18T15:41:15.999Z</time></trkpt><trkpt lat="41.682921962990214" lon="13.376688208628872"><ele>254.0</ele><time>2026-04-18T15:41:17.999Z</time></trkpt><trkpt lat="41.6828460568295" lon="13.376698136537165"><ele>253.6</ele><time>2026-04-18T15:41:18.999Z</time></trkpt><trkpt lat="41.68275918106295" lon="13.376705476063593"><ele>253.2</ele><time>2026-04-18T15:41:19.999Z</time></trkpt><trkpt lat="41.68267191969564" lon="13.376711448457165"><ele>252.79999999999998</ele><time>2026-04-18T15:41:20.999Z</time></trkpt><trkpt lat="41.682573639346295" lon="13.376696065934597"><ele>252.39999999999998</ele><time>2026-04-18T15:41:21.999Z</time></trkpt><trkpt lat="41.68246491666882" lon="13.376703711339452"><ele>252.0</ele><time>2026-04-18T15:41:22.999Z</time></trkpt><trkpt lat="41.68234728966551" lon="13.376726673539476"><ele>252.0</ele><time>2026-04-18T15:41:23.999Z</time></trkpt><trkpt lat="41.68222663771391" lon="13.376731728332647"><ele>252.0</ele><time>2026-04-18T15:41:24.999Z</time></trkpt><trkpt lat="41.682099039565" lon="13.37673707414588"><ele>252.0</ele><time>2026-04-18T15:41:25.999Z</time></trkpt><trkpt lat="41.68197068115166" lon="13.376742451809728"><ele>252.0</ele><time>2026-04-18T15:41:26.999Z</time></trkpt><trkpt lat="41.681831001735645" lon="13.376746407659832"><ele>251.0</ele><time>2026-04-18T15:41:27.999Z</time></trkpt><trkpt lat="41.6816924916401" lon="13.376749480516844"><ele>250.0</ele><time>2026-04-18T15:41:28.999Z</time></trkpt><trkpt lat="41.68154849053158" lon="13.376747523250975"><ele>249.0</ele><time>2026-04-18T15:41:29.999Z</time></trkpt><trkpt lat="41.681407490920456" lon="13.376747000580547"><ele>248.0</ele><time>2026-04-18T15:41:30.999Z</time></trkpt><trkpt lat="41.68126554779343" lon="13.37674826186056"><ele>248.0</ele><time>2026-04-18T15:41:31.999Z</time></trkpt><trkpt lat="41.68112141117771" lon="13.376752107070264"><ele>248.0</ele><time>2026-04-18T15:41:32.999Z</time></trkpt><trkpt lat="41.68100222882997" lon="13.376754049433837"><ele>248.0</ele><time>2026-04-18T15:41:33.999Z</time></trkpt><trkpt lat="41.68085726235639" lon="13.376756299339663"><ele>248.0</ele><time>2026-04-18T15:41:34.999Z</time></trkpt><trkpt lat="41.68072146799192" lon="13.37675840689352"><ele>248.0</ele><time>2026-04-18T15:41:35.999Z</time></trkpt><trkpt lat="41.680602803029714" lon="13.376760248603363"><ele>248.0</ele><time>2026-04-18T15:41:36.999Z</time></trkpt><trkpt lat="41.68048300940495" lon="13.376751658291255"><ele>248.0</ele><time>2026-04-18T15:41:37.999Z</time></trkpt><trkpt lat="41.68038575576293" lon="13.376752788186497"><ele>248.0</ele><time>2026-04-18T15:41:38.999Z</time></trkpt><trkpt lat="41.68029159756654" lon="13.37674903325406"><ele>248.0</ele><time>2026-04-18T15:41:39.999Z</time></trkpt><trkpt lat="41.680214581982476" lon="13.37674547843317"><ele>247.5</ele><time>2026-04-18T15:41:40.999Z</time></trkpt><trkpt lat="41.68014990951511" lon="13.37676490739042"><ele>247.0</ele><time>2026-04-18T15:41:41.999Z</time></trkpt><trkpt lat="41.68008394105512" lon="13.376749373028515"><ele>246.5</ele><time>2026-04-18T15:41:43.999Z</time></trkpt><trkpt lat="41.68003635098765" lon="13.376480781320598"><ele>246.0</ele><time>2026-04-18T15:41:44.999Z</time></trkpt><trkpt lat="41.67999419140202" lon="13.376323362939942"><ele>245.75</ele><time>2026-04-18T15:41:45.999Z</time></trkpt><trkpt lat="41.6799601382389" lon="13.376199687655747"><ele>245.5</ele><time>2026-04-18T15:41:46.999Z</time></trkpt><trkpt lat="41.67992452358857" lon="13.376070341269624"><ele>245.25</ele><time>2026-04-18T15:41:47.999Z</time></trkpt><trkpt lat="41.679870881464325" lon="13.375872243517305"><ele>245.0</ele><time>2026-04-18T15:41:48.999Z</time></trkpt><trkpt lat="41.67981869339809" lon="13.375653885779146"><ele>245.33333333333334</ele><time>2026-04-18T15:41:49.999Z</time></trkpt><trkpt lat="41.67975983375811" lon="13.375407613854682"><ele>245.66666666666669</ele><time>2026-04-18T15:41:50.999Z</time></trkpt><trkpt lat="41.67969362788913" lon="13.375130604806625"><ele>246.0</ele><time>2026-04-18T15:41:51.999Z</time></trkpt><trkpt lat="41.679632047397924" lon="13.374872948601336"><ele>246.33333333333331</ele><time>2026-04-18T15:41:52.999Z</time></trkpt><trkpt lat="41.679564125888014" lon="13.374595177940515"><ele>246.66666666666666</ele><time>2026-04-18T15:41:53.999Z</time></trkpt><trkpt lat="41.67950430596256" lon="13.374360885498223"><ele>247.0</ele><time>2026-04-18T15:41:54.999Z</time></trkpt><trkpt lat="41.679451654317475" lon="13.37415486615136"><ele>245.5</ele><time>2026-04-18T15:41:55.999Z</time></trkpt><trkpt lat="41.679404368404924" lon="13.373969842437866"><ele>244.0</ele><time>2026-04-18T15:41:56.999Z</time></trkpt><trkpt lat="41.679361248717896" lon="13.373801120580032"><ele>242.5</ele><time>2026-04-18T15:41:57.999Z</time></trkpt><trkpt lat="41.67932021818706" lon="13.373640573992622"><ele>241.0</ele><time>2026-04-18T15:41:58.999Z</time></trkpt><trkpt lat="41.67927783713264" lon="13.37347348938883"><ele>241.0</ele><time>2026-04-18T15:41:59.999Z</time></trkpt><trkpt lat="41.67922792444287" lon="13.373298629401171"><ele>241.0</ele><time>2026-04-18T15:42:00.999Z</time></trkpt><trkpt lat="41.679177596537194" lon="13.37314446871508"><ele>241.0</ele><time>2026-04-18T15:42:01.999Z</time></trkpt><trkpt lat="41.67912382822148" lon="13.37303692814507"><ele>241.0</ele><time>2026-04-18T15:42:02.999Z</time></trkpt><trkpt lat="41.67905875592846" lon="13.372956277855398"><ele>240.25</ele><time>2026-04-18T15:42:03.999Z</time></trkpt><trkpt lat="41.6789591933312" lon="13.372921291956171"><ele>239.5</ele><time>2026-04-18T15:42:04.999Z</time></trkpt><trkpt lat="41.678801781557" lon="13.372888887489083"><ele>238.75</ele><time>2026-04-18T15:42:05.999Z</time></trkpt><trkpt lat="41.6786229848979" lon="13.372837835186026"><ele>238.0</ele><time>2026-04-18T15:42:06.999Z</time></trkpt><trkpt lat="41.67848907398795" lon="13.372787111222065"><ele>237.5</ele><time>2026-04-18T15:42:07.999Z</time></trkpt><trkpt lat="41.678386988084405" lon="13.372700977989483"><ele>237.0</ele><time>2026-04-18T15:42:08.999Z</time></trkpt><trkpt lat="41.678308763121564" lon="13.372586609980518"><ele>236.5</ele><time>2026-04-18T15:42:09.999Z</time></trkpt><trkpt lat="41.67825234014766" lon="13.372434485032766"><ele>236.0</ele><time>2026-04-18T15:42:10.999Z</time></trkpt><trkpt lat="41.67819166651604" lon="13.372243007738259"><ele>235.75</ele><time>2026-04-18T15:42:11.999Z</time></trkpt><trkpt lat="41.67812102235895" lon="13.372055172892852"><ele>235.5</ele><time>2026-04-18T15:42:12.999Z</time></trkpt><trkpt lat="41.678042284628035" lon="13.371911229505413"><ele>235.25</ele><time>2026-04-18T15:42:13.999Z</time></trkpt><trkpt lat="41.67794428265306" lon="13.371769965719908"><ele>235.0</ele><time>2026-04-18T15:42:14.999Z</time></trkpt><trkpt lat="41.67779521074492" lon="13.371656493586256"><ele>234.0</ele><time>2026-04-18T15:42:15.999Z</time></trkpt><trkpt lat="41.677603535432795" lon="13.371519247658808"><ele>233.0</ele><time>2026-04-18T15:42:16.999Z</time></trkpt><trkpt lat="41.6773973895881" lon="13.371376138986099"><ele>234.5</ele><time>2026-04-18T15:42:18Z</time></trkpt><trkpt lat="41.67715905266165" lon="13.371215884748482"><ele>236.0</ele><time>2026-04-18T15:42:19Z</time></trkpt><trkpt lat="41.67693606950724" lon="13.371088661638032"><ele>235.33333333333334</ele><time>2026-04-18T15:42:20Z</time></trkpt><trkpt lat="41.67675011242798" lon="13.370999025093022"><ele>234.66666666666669</ele><time>2026-04-18T15:42:21Z</time></trkpt><trkpt lat="41.67658383778483" lon="13.370913386909697"><ele>234.0</ele><time>2026-04-18T15:42:22Z</time></trkpt><trkpt lat="41.67643415938632" lon="13.37078084635354"><ele>234.0</ele><time>2026-04-18T15:42:23Z</time></trkpt><trkpt lat="41.67632508544876" lon="13.370642373320377"><ele>234.0</ele><time>2026-04-18T15:42:24Z</time></trkpt><trkpt lat="41.67622838707826" lon="13.370515537309739"><ele>234.0</ele><time>2026-04-18T15:42:25Z</time></trkpt><trkpt lat="41.67616131580739" lon="13.37041529547679"><ele>234.0</ele><time>2026-04-18T15:42:26Z</time></trkpt><trkpt lat="41.67611694510265" lon="13.370345267560717"><ele>234.0</ele><time>2026-04-18T15:42:27Z</time></trkpt><trkpt lat="41.67607561151965" lon="13.370270276001344"><ele>233.99999999999997</ele><time>2026-04-18T15:42:28Z</time></trkpt><trkpt lat="41.67604397066378" lon="13.37019665380476"><ele>233.99999999999997</ele><time>2026-04-18T15:42:33Z</time></trkpt><trkpt lat="41.676092136376916" lon="13.370271002579383"><ele>234.0</ele><time>2026-04-18T15:42:36Z</time></trkpt><trkpt lat="41.67620219747045" lon="13.370481451493497"><ele>234.0</ele><time>2026-04-18T15:42:38Z</time></trkpt><trkpt lat="41.67627673447805" lon="13.370587346609243"><ele>234.0</ele><time>2026-04-18T15:42:39Z</time></trkpt><trkpt lat="41.67635692142852" lon="13.370703816418565"><ele>234.0</ele><time>2026-04-18T15:42:40Z</time></trkpt><trkpt lat="41.67644828081288" lon="13.370833057273954"><ele>234.0</ele><time>2026-04-18T15:42:41Z</time></trkpt><trkpt lat="41.676527950622486" lon="13.370991877576536"><ele>234.0</ele><time>2026-04-18T15:42:42Z</time></trkpt><trkpt lat="41.676706196588924" lon="13.371117753089587"><ele>235.0</ele><time>2026-04-18T15:42:43Z</time></trkpt><trkpt lat="41.676944672787975" lon="13.371231737034192"><ele>236.0</ele><time>2026-04-18T15:42:44Z</time></trkpt><trkpt lat="41.677226970694555" lon="13.371349448316739"><ele>234.5</ele><time>2026-04-18T15:42:45Z</time></trkpt><trkpt lat="41.67747958692145" lon="13.37150915030886"><ele>233.0</ele><time>2026-04-18T15:42:46Z</time></trkpt><trkpt lat="41.6776902270063" lon="13.371643284066806"><ele>233.5</ele><time>2026-04-18T15:42:47Z</time></trkpt><trkpt lat="41.677855651109404" lon="13.371753463491439"><ele>234.0</ele><time>2026-04-18T15:42:48Z</time></trkpt><trkpt lat="41.67795777002308" lon="13.37183864557168"><ele>234.5</ele><time>2026-04-18T15:42:49Z</time></trkpt><trkpt lat="41.67803622364976" lon="13.371948881558618"><ele>235.0</ele><time>2026-04-18T15:42:50Z</time></trkpt><trkpt lat="41.67811984002351" lon="13.372112514476552"><ele>235.25</ele><time>2026-04-18T15:42:51Z</time></trkpt><trkpt lat="41.6781528230339" lon="13.372291286985961"><ele>235.5</ele><time>2026-04-18T15:42:52Z</time></trkpt><trkpt lat="41.67821214647992" lon="13.37247586930276"><ele>235.75</ele><time>2026-04-18T15:42:53Z</time></trkpt><trkpt lat="41.67829517233869" lon="13.372641932243107"><ele>236.0</ele><time>2026-04-18T15:42:54Z</time></trkpt><trkpt lat="41.678355977992965" lon="13.372774994108694"><ele>236.0</ele><time>2026-04-18T15:42:55Z</time></trkpt><trkpt lat="41.67845509487367" lon="13.372878471444684"><ele>236.0</ele><time>2026-04-18T15:42:56Z</time></trkpt><trkpt lat="41.67857461051001" lon="13.372941540124495"><ele>236.0</ele><time>2026-04-18T15:42:57Z</time></trkpt><trkpt lat="41.678699430200176" lon="13.372955827572522"><ele>236.0</ele><time>2026-04-18T15:42:58Z</time></trkpt><trkpt lat="41.67882005015291" lon="13.372982372571233"><ele>237.0</ele><time>2026-04-18T15:42:59Z</time></trkpt><trkpt lat="41.67892823138318" lon="13.37302415228768"><ele>238.00000000000003</ele><time>2026-04-18T15:42:59.999Z</time></trkpt><trkpt lat="41.67903980635386" lon="13.373042198532433"><ele>239.00000000000003</ele><time>2026-04-18T15:43:00.999Z</time></trkpt><trkpt lat="41.67911306272825" lon="13.373124592304244"><ele>240.0</ele><time>2026-04-18T15:43:01.999Z</time></trkpt><trkpt lat="41.679154789609534" lon="13.373206442524568"><ele>241.0</ele><time>2026-04-18T15:43:02.999Z</time></trkpt><trkpt lat="41.679179185957615" lon="13.373302589952575"><ele>241.0</ele><time>2026-04-18T15:43:03.999Z</time></trkpt><trkpt lat="41.67922506784116" lon="13.37342306702281"><ele>241.0</ele><time>2026-04-18T15:43:05.999Z</time></trkpt><trkpt lat="41.679334336335835" lon="13.373377776122327"><ele>241.0</ele><time>2026-04-18T15:43:08.999Z</time></trkpt><trkpt lat="41.679507098547845" lon="13.373334571387181"><ele>241.0</ele><time>2026-04-18T15:43:09.999Z</time></trkpt><trkpt lat="41.67969825147769" lon="13.373293264876821"><ele>241.75</ele><time>2026-04-18T15:43:10.999Z</time></trkpt><trkpt lat="41.67986371189886" lon="13.373279474720281"><ele>242.5</ele><time>2026-04-18T15:43:11.999Z</time></trkpt><trkpt lat="41.680003595153146" lon="13.373247154716774"><ele>243.25</ele><time>2026-04-18T15:43:12.999Z</time></trkpt><trkpt lat="41.68011322601304" lon="13.373209086962275"><ele>244.0</ele><time>2026-04-18T15:43:13.999Z</time></trkpt><trkpt lat="41.68023123842789" lon="13.373204316689163"><ele>244.0</ele><time>2026-04-18T15:43:15.999Z</time></trkpt><trkpt lat="41.68032440522455" lon="13.373191328331089"><ele>244.0</ele><time>2026-04-18T15:43:17.999Z</time></trkpt><trkpt lat="41.680140856460575" lon="13.37359340924535"><ele>244.0</ele><time>2026-04-18T15:43:40.999Z</time></trkpt><trkpt lat="41.68039787821253" lon="13.373217675505407"><ele>244.39999999999998</ele><time>2026-04-18T15:43:45.999Z</time></trkpt><trkpt lat="41.68040038625358" lon="13.373458691245013"><ele>244.79999999999998</ele><time>2026-04-18T15:43:48.999Z</time></trkpt><trkpt lat="41.68041496981539" lon="13.373551454147881"><ele>245.20000000000002</ele><time>2026-04-18T15:43:49.999Z</time></trkpt><trkpt lat="41.68044850833593" lon="13.373661626559196"><ele>245.60000000000002</ele><time>2026-04-18T15:43:51.999Z</time></trkpt><trkpt lat="41.6805285771093" lon="13.373684481158586"><ele>246.0</ele><time>2026-04-18T15:43:54.999Z</time></trkpt><trkpt lat="41.68059392296255" lon="13.373633547410995"><ele>246.00000000000003</ele><time>2026-04-18T15:43:59.999Z</time></trkpt><trkpt lat="41.680605346733884" lon="13.373550318202842"><ele>246.0</ele><time>2026-04-18T15:44:36Z</time></trkpt><trkpt lat="41.6806159939034" lon="13.373457560469843"><ele>246.00000000000003</ele><time>2026-04-18T15:44:44Z</time></trkpt><trkpt lat="41.6805697811731" lon="13.373387136832605"><ele>246.00000000000003</ele><time>2026-04-18T15:44:50Z</time></trkpt><trkpt lat="41.680506150452075" lon="13.373375078999862"><ele>246.0</ele><time>2026-04-18T15:44:57Z</time></trkpt><trkpt lat="41.68049283234305" lon="13.373473337250708"><ele>246.00000000000003</ele><time>2026-04-18T16:04:10.001Z</time></trkpt><trkpt lat="41.68058284631906" lon="13.373516828440385"><ele>246.00000000000003</ele><time>2026-04-18T16:08:43Z</time></trkpt><trkpt lat="41.680601010407436" lon="13.37361351688367"><ele>246.00000000000003</ele><time>2026-04-18T16:08:49Z</time></trkpt><trkpt lat="41.6806123004718" lon="13.3735237690231"><ele>246.0</ele><time>2026-04-18T16:10:53Z</time></trkpt><trkpt lat="41.68058974973719" lon="13.373440526520893"><ele>246.00000000000003</ele><time>2026-04-18T16:11:05Z</time></trkpt><trkpt lat="41.68058543702323" lon="13.37352905833254"><ele>246.00000000000003</ele><time>2026-04-18T16:11:20Z</time></trkpt><trkpt lat="41.68061732650965" lon="13.373603669643906"><ele>246.0</ele><time>2026-04-18T16:13:55Z</time></trkpt><trkpt lat="41.68059845325917" lon="13.373520393204275"><ele>246.00000000000003</ele><time>2026-04-18T16:18:00.999Z</time></trkpt><trkpt lat="41.68056441368388" lon="13.373441733017298"><ele>246.00000000000003</ele><time>2026-04-18T16:18:11Z</time></trkpt><trkpt lat="41.68054442375425" lon="13.373361438170232"><ele>246.00000000000003</ele><time>2026-04-18T16:18:19Z</time></trkpt><trkpt lat="41.68050135504889" lon="13.373440669872899"><ele>246.0</ele><time>2026-04-18T16:19:20Z</time></trkpt><trkpt lat="41.680444741517746" lon="13.37337526145889"><ele>246.00000000000003</ele><time>2026-04-18T16:47:41Z</time></trkpt><trkpt lat="41.68039914156083" lon="13.373289008292872"><ele>246.00000000000003</ele><time>2026-04-18T16:47:48Z</time></trkpt><trkpt lat="41.680418003712795" lon="13.373203856796037"><ele>246.0</ele><time>2026-04-18T16:48:04Z</time></trkpt><trkpt lat="41.680405194093446" lon="13.373110495441408"><ele>246.00000000000003</ele><time>2026-04-18T16:48:38Z</time></trkpt><trkpt lat="41.680403405863544" lon="13.373016232660794"><ele>246.00000000000003</ele><time>2026-04-18T16:48:44Z</time></trkpt><trkpt lat="41.680435570654616" lon="13.37310630091598"><ele>246.0</ele><time>2026-04-18T16:49:17Z</time></trkpt><trkpt lat="41.68042250409336" lon="13.373191152641356"><ele>246.0</ele><time>2026-04-18T16:49:24Z</time></trkpt><trkpt lat="41.68038288520397" lon="13.373267216372446"><ele>246.0</ele><time>2026-04-18T16:50:47Z</time></trkpt><trkpt lat="41.680332705629766" lon="13.373175054741495"><ele>246.0</ele><time>2026-04-18T16:50:58Z</time></trkpt><trkpt lat="41.680236443194644" lon="13.373196242550147"><ele>246.0</ele><time>2026-04-18T16:51:01Z</time></trkpt><trkpt lat="41.68014139160141" lon="13.373215877149079"><ele>246.0</ele><time>2026-04-18T16:51:03Z</time></trkpt><trkpt lat="41.68006128985566" lon="13.373221308955033"><ele>245.66666666666666</ele><time>2026-04-18T16:51:05Z</time></trkpt><trkpt lat="41.67998075572903" lon="13.373233626227373"><ele>245.33333333333331</ele><time>2026-04-18T16:51:07Z</time></trkpt><trkpt lat="41.67989912802235" lon="13.373244685919573"><ele>245.0</ele><time>2026-04-18T16:51:09Z</time></trkpt><trkpt lat="41.679819750666645" lon="13.37326135493387"><ele>244.66666666666666</ele><time>2026-04-18T16:51:11Z</time></trkpt><trkpt lat="41.679740002256445" lon="13.373271703911785"><ele>244.33333333333331</ele><time>2026-04-18T16:51:13Z</time></trkpt><trkpt lat="41.679663898244385" lon="13.373288667784477"><ele>244.0</ele><time>2026-04-18T16:51:15Z</time></trkpt><trkpt lat="41.67958670253464" lon="13.373308136672932"><ele>243.99999999999997</ele><time>2026-04-18T16:51:17Z</time></trkpt><trkpt lat="41.6795088311345" lon="13.3733284706764"><ele>244.0</ele><time>2026-04-18T16:51:19Z</time></trkpt><trkpt lat="41.67942988059289" lon="13.373342860475756"><ele>244.0</ele><time>2026-04-18T16:51:21Z</time></trkpt><trkpt lat="41.67935080659945" lon="13.373359651514367"><ele>244.0</ele><time>2026-04-18T16:51:23Z</time></trkpt><trkpt lat="41.67928439654548" lon="13.373374816101306"><ele>243.99999999999997</ele><time>2026-04-18T16:51:26Z</time></trkpt><trkpt lat="41.67922403322855" lon="13.373343743963389"><ele>244.0</ele><time>2026-04-18T16:51:32Z</time></trkpt><trkpt lat="41.67918412216777" lon="13.373226037022208"><ele>243.39999999999998</ele><time>2026-04-18T16:51:34Z</time></trkpt><trkpt lat="41.6791341452056" lon="13.373074926191077"><ele>242.79999999999998</ele><time>2026-04-18T16:51:36Z</time></trkpt><trkpt lat="41.679068288986976" lon="13.373002561541202"><ele>242.20000000000002</ele><time>2026-04-18T16:51:37Z</time></trkpt><trkpt lat="41.67899032001083" lon="13.372957520025018"><ele>241.60000000000002</ele><time>2026-04-18T16:51:38Z</time></trkpt><trkpt lat="41.678902394085924" lon="13.372937351994862"><ele>241.0</ele><time>2026-04-18T16:51:39Z</time></trkpt><trkpt lat="41.67881007740998" lon="13.372918671216869"><ele>240.4</ele><time>2026-04-18T16:51:40Z</time></trkpt><trkpt lat="41.678710495729774" lon="13.37290554645195"><ele>239.8</ele><time>2026-04-18T16:51:41Z</time></trkpt><trkpt lat="41.678604476084466" lon="13.372882088616493"><ele>239.20000000000002</ele><time>2026-04-18T16:51:42Z</time></trkpt><trkpt lat="41.67849641374236" lon="13.372836368442696"><ele>238.60000000000002</ele><time>2026-04-18T16:51:43Z</time></trkpt><trkpt lat="41.678398148560916" lon="13.372761781689318"><ele>238.0</ele><time>2026-04-18T16:51:44Z</time></trkpt><trkpt lat="41.67831341137174" lon="13.372658768299008"><ele>237.5</ele><time>2026-04-18T16:51:45Z</time></trkpt><trkpt lat="41.678262536803054" lon="13.372533597323523"><ele>237.0</ele><time>2026-04-18T16:51:46Z</time></trkpt><trkpt lat="41.67820999794242" lon="13.372392244656082"><ele>236.5</ele><time>2026-04-18T16:51:47Z</time></trkpt><trkpt lat="41.67816298496126" lon="13.37225165927079"><ele>236.0</ele><time>2026-04-18T16:51:48Z</time></trkpt><trkpt lat="41.67811379781603" lon="13.37208344518486"><ele>235.75</ele><time>2026-04-18T16:51:49Z</time></trkpt><trkpt lat="41.67803727427515" lon="13.371938464396292"><ele>235.5</ele><time>2026-04-18T16:51:50Z</time></trkpt><trkpt lat="41.67795616826909" lon="13.371819756211941"><ele>235.25</ele><time>2026-04-18T16:51:51Z</time></trkpt><trkpt lat="41.67784607933247" lon="13.371721733439546"><ele>235.0</ele><time>2026-04-18T16:51:52Z</time></trkpt><trkpt lat="41.677737515596085" lon="13.371639134052348"><ele>235.25</ele><time>2026-04-18T16:51:53Z</time></trkpt><trkpt lat="41.67762320775457" lon="13.371582293864485"><ele>235.5</ele><time>2026-04-18T16:51:54Z</time></trkpt><trkpt lat="41.677516305804694" lon="13.371505009768617"><ele>235.75</ele><time>2026-04-18T16:51:55Z</time></trkpt><trkpt lat="41.67740971790718" lon="13.371422967794869"><ele>236.0</ele><time>2026-04-18T16:51:56Z</time></trkpt><trkpt lat="41.67727853250287" lon="13.371339003502804"><ele>236.0</ele><time>2026-04-18T16:51:57Z</time></trkpt><trkpt lat="41.67715230976782" lon="13.371236222257576"><ele>236.0</ele><time>2026-04-18T16:51:58Z</time></trkpt><trkpt lat="41.6770195582057" lon="13.371155605707207"><ele>236.0</ele><time>2026-04-18T16:51:59Z</time></trkpt><trkpt lat="41.67687824964533" lon="13.371102286818743"><ele>236.0</ele><time>2026-04-18T16:52:00Z</time></trkpt><trkpt lat="41.67674429292125" lon="13.371019843385886"><ele>235.5</ele><time>2026-04-18T16:52:01Z</time></trkpt><trkpt lat="41.676606878522165" lon="13.370971772600639"><ele>235.0</ele><time>2026-04-18T16:52:02Z</time></trkpt><trkpt lat="41.67648807760722" lon="13.370883018834474"><ele>234.5</ele><time>2026-04-18T16:52:03Z</time></trkpt><trkpt lat="41.67638557016651" lon="13.370773639303094"><ele>234.0</ele><time>2026-04-18T16:52:04Z</time></trkpt><trkpt lat="41.67630150209084" lon="13.370661753206738"><ele>234.0</ele><time>2026-04-18T16:52:05Z</time></trkpt><trkpt lat="41.676224315636844" lon="13.370557001303315"><ele>233.99999999999997</ele><time>2026-04-18T16:52:06Z</time></trkpt><trkpt lat="41.676161315459154" lon="13.370469762606811"><ele>233.99999999999997</ele><time>2026-04-18T16:52:07Z</time></trkpt><trkpt lat="41.67611341709969" lon="13.37039923834279"><ele>234.0</ele><time>2026-04-18T16:52:08Z</time></trkpt><trkpt lat="41.676068406578274" lon="13.370259042898777"><ele>234.0</ele><time>2026-04-18T16:52:10Z</time></trkpt><trkpt lat="41.676165196441254" lon="13.37017191110254"><ele>234.39999999999998</ele><time>2026-04-18T16:52:14Z</time></trkpt><trkpt lat="41.676289008380714" lon="13.370134475663042"><ele>234.79999999999998</ele><time>2026-04-18T16:52:16Z</time></trkpt><trkpt lat="41.67637210010624" lon="13.37013646220901"><ele>235.20000000000002</ele><time>2026-04-18T16:52:17Z</time></trkpt><trkpt lat="41.67646945403303" lon="13.370119782519383"><ele>235.60000000000002</ele><time>2026-04-18T16:52:18Z</time></trkpt><trkpt lat="41.67656550056667" lon="13.370103326828866"><ele>236.0</ele><time>2026-04-18T16:52:19Z</time></trkpt><trkpt lat="41.67666464208314" lon="13.37008349363445"><ele>236.0</ele><time>2026-04-18T16:52:20Z</time></trkpt><trkpt lat="41.67677145238381" lon="13.37005868445045"><ele>236.0</ele><time>2026-04-18T16:52:21Z</time></trkpt><trkpt lat="41.676886293324706" lon="13.370032157415547"><ele>236.0</ele><time>2026-04-18T16:52:22Z</time></trkpt><trkpt lat="41.67701010809118" lon="13.370007199288882"><ele>236.0</ele><time>2026-04-18T16:52:23Z</time></trkpt><trkpt lat="41.67713656491786" lon="13.369966563768347"><ele>236.5</ele><time>2026-04-18T16:52:24Z</time></trkpt><trkpt lat="41.677260894609255" lon="13.369942855528006"><ele>237.0</ele><time>2026-04-18T16:52:25Z</time></trkpt><trkpt lat="41.67738885844943" lon="13.369918760252071"><ele>237.5</ele><time>2026-04-18T16:52:26Z</time></trkpt><trkpt lat="41.677522069680286" lon="13.369892034509709"><ele>238.0</ele><time>2026-04-18T16:52:27Z</time></trkpt><trkpt lat="41.677659897088226" lon="13.369867523544686"><ele>238.75</ele><time>2026-04-18T16:52:28Z</time></trkpt><trkpt lat="41.677798697255206" lon="13.369839648176857"><ele>239.5</ele><time>2026-04-18T16:52:29Z</time></trkpt><trkpt lat="41.677938050221385" lon="13.36981061495113"><ele>240.25</ele><time>2026-04-18T16:52:30Z</time></trkpt><trkpt lat="41.67807854150467" lon="13.369783269347627"><ele>241.0</ele><time>2026-04-18T16:52:31Z</time></trkpt><trkpt lat="41.67821745748954" lon="13.369760530896409"><ele>241.0</ele><time>2026-04-18T16:52:32Z</time></trkpt><trkpt lat="41.67835490143872" lon="13.369740740688567"><ele>241.0</ele><time>2026-04-18T16:52:33Z</time></trkpt><trkpt lat="41.67849073603113" lon="13.369724222011504"><ele>241.0</ele><time>2026-04-18T16:52:34Z</time></trkpt><trkpt lat="41.678627453500134" lon="13.369691506876782"><ele>241.0</ele><time>2026-04-18T16:52:35Z</time></trkpt><trkpt lat="41.67875613704142" lon="13.369634919910245"><ele>241.0</ele><time>2026-04-18T16:52:36Z</time></trkpt><trkpt lat="41.67888074604852" lon="13.369564578415574"><ele>241.0</ele><time>2026-04-18T16:52:37Z</time></trkpt><trkpt lat="41.678999066880536" lon="13.369478370706764"><ele>241.0</ele><time>2026-04-18T16:52:38Z</time></trkpt><trkpt lat="41.67914828750211" lon="13.369358459888"><ele>241.0</ele><time>2026-04-18T16:52:39Z</time></trkpt><trkpt lat="41.67927052055352" lon="13.369252883457357"><ele>241.0</ele><time>2026-04-18T16:52:40Z</time></trkpt><trkpt lat="41.679380997038145" lon="13.36915126919424"><ele>241.0</ele><time>2026-04-18T16:52:41Z</time></trkpt><trkpt lat="41.6794912001649" lon="13.369044389795473"><ele>241.0</ele><time>2026-04-18T16:52:42Z</time></trkpt><trkpt lat="41.6796062375218" lon="13.368942196208348"><ele>241.0</ele><time>2026-04-18T16:52:43Z</time></trkpt><trkpt lat="41.679723919169476" lon="13.368849019944147"><ele>241.25</ele><time>2026-04-18T16:52:44Z</time></trkpt><trkpt lat="41.67985245781242" lon="13.368781396489764"><ele>241.5</ele><time>2026-04-18T16:52:45Z</time></trkpt><trkpt lat="41.67998711241897" lon="13.368742980547937"><ele>241.75</ele><time>2026-04-18T16:52:46Z</time></trkpt><trkpt lat="41.68012620454255" lon="13.368722104674646"><ele>242.0</ele><time>2026-04-18T16:52:47Z</time></trkpt><trkpt lat="41.68026792358449" lon="13.368713262225151"><ele>243.0</ele><time>2026-04-18T16:52:48Z</time></trkpt><trkpt lat="41.68041396053857" lon="13.368712048518292"><ele>244.0</ele><time>2026-04-18T16:52:49Z</time></trkpt><trkpt lat="41.68055472255386" lon="13.368707259960841"><ele>245.0</ele><time>2026-04-18T16:52:50Z</time></trkpt><trkpt lat="41.68070098871958" lon="13.368702980059258"><ele>246.0</ele><time>2026-04-18T16:52:51Z</time></trkpt><trkpt lat="41.68083667471083" lon="13.36870000465022"><ele>246.0</ele><time>2026-04-18T16:52:52Z</time></trkpt><trkpt lat="41.680975900761254" lon="13.368686522326305"><ele>246.0</ele><time>2026-04-18T16:52:53Z</time></trkpt><trkpt lat="41.6811197317158" lon="13.368683770015497"><ele>246.0</ele><time>2026-04-18T16:52:54Z</time></trkpt><trkpt lat="41.68125513896995" lon="13.36867993198442"><ele>246.0</ele><time>2026-04-18T16:52:55Z</time></trkpt><trkpt lat="41.68139391370076" lon="13.368671249775357"><ele>246.25</ele><time>2026-04-18T16:52:56Z</time></trkpt><trkpt lat="41.681536593704706" lon="13.368661395143642"><ele>246.5</ele><time>2026-04-18T16:52:57Z</time></trkpt><trkpt lat="41.68168025726147" lon="13.368639690472603"><ele>246.75</ele><time>2026-04-18T16:52:58Z</time></trkpt><trkpt lat="41.68182245436491" lon="13.3686149425854"><ele>247.0</ele><time>2026-04-18T16:52:59Z</time></trkpt><trkpt lat="41.68196547068405" lon="13.368608988689244"><ele>247.25</ele><time>2026-04-18T16:53:00Z</time></trkpt><trkpt lat="41.68210225175828" lon="13.368590024730324"><ele>247.5</ele><time>2026-04-18T16:53:01Z</time></trkpt><trkpt lat="41.68223858948213" lon="13.368571493059697"><ele>247.75</ele><time>2026-04-18T16:53:02Z</time></trkpt><trkpt lat="41.68236327141964" lon="13.368535122939315"><ele>248.0</ele><time>2026-04-18T16:53:03Z</time></trkpt><trkpt lat="41.682489416920085" lon="13.368527187555816"><ele>248.0</ele><time>2026-04-18T16:53:04Z</time></trkpt><trkpt lat="41.68260740466752" lon="13.368509233510135"><ele>248.0</ele><time>2026-04-18T16:53:05Z</time></trkpt><trkpt lat="41.68272350543711" lon="13.36850246992217"><ele>248.0</ele><time>2026-04-18T16:53:06Z</time></trkpt><trkpt lat="41.68283176880065" lon="13.368502429258708"><ele>248.0</ele><time>2026-04-18T16:53:07Z</time></trkpt><trkpt lat="41.68293762773111" lon="13.368498741129589"><ele>248.0</ele><time>2026-04-18T16:53:08Z</time></trkpt><trkpt lat="41.68303822162945" lon="13.368494131856705"><ele>248.2</ele><time>2026-04-18T16:53:09Z</time></trkpt><trkpt lat="41.68313672472526" lon="13.368488254864005"><ele>248.4</ele><time>2026-04-18T16:53:10Z</time></trkpt><trkpt lat="41.683230600799355" lon="13.368485828479558"><ele>248.59999999999997</ele><time>2026-04-18T16:53:11Z</time></trkpt><trkpt lat="41.683320575143476" lon="13.368483690923686"><ele>248.79999999999998</ele><time>2026-04-18T16:53:12Z</time></trkpt><trkpt lat="41.68340922768911" lon="13.368488881785503"><ele>249.0</ele><time>2026-04-18T16:53:13Z</time></trkpt><trkpt lat="41.68349649544853" lon="13.368488846786232"><ele>249.0</ele><time>2026-04-18T16:53:14Z</time></trkpt><trkpt lat="41.683564137475166" lon="13.368487824664532"><ele>248.99999999999997</ele><time>2026-04-18T16:53:15Z</time></trkpt><trkpt lat="41.683661196389195" lon="13.368499800184132"><ele>248.99999999999997</ele><time>2026-04-18T16:53:17Z</time></trkpt><trkpt lat="41.6837384863041" lon="13.368455175716434"><ele>249.0</ele><time>2026-04-18T16:53:23Z</time></trkpt><trkpt lat="41.683770973473145" lon="13.36832597889566"><ele>249.0</ele><time>2026-04-18T16:53:25Z</time></trkpt><trkpt lat="41.68379101451394" lon="13.368160623938468"><ele>249.6</ele><time>2026-04-18T16:53:27Z</time></trkpt><trkpt lat="41.68380385532121" lon="13.368054005333912"><ele>250.2</ele><time>2026-04-18T16:53:28Z</time></trkpt><trkpt lat="41.68381874897901" lon="13.367929530672127"><ele>250.79999999999998</ele><time>2026-04-18T16:53:29Z</time></trkpt><trkpt lat="41.683836515772846" lon="13.36778816904187"><ele>251.39999999999998</ele><time>2026-04-18T16:53:30Z</time></trkpt><trkpt lat="41.6838513119604" lon="13.367660981041878"><ele>252.0</ele><time>2026-04-18T16:53:31Z</time></trkpt><trkpt lat="41.683884522724554" lon="13.36753036394729"><ele>252.0</ele><time>2026-04-18T16:53:32Z</time></trkpt><trkpt lat="41.683901489595" lon="13.367393184244957"><ele>252.0</ele><time>2026-04-18T16:53:33Z</time></trkpt><trkpt lat="41.68391585492624" lon="13.367254758824295"><ele>252.0</ele><time>2026-04-18T16:53:34Z</time></trkpt><trkpt lat="41.68392903662726" lon="13.367112540075377"><ele>252.0</ele><time>2026-04-18T16:53:35Z</time></trkpt><trkpt lat="41.68394595799992" lon="13.366971587771967"><ele>252.0</ele><time>2026-04-18T16:53:36Z</time></trkpt><trkpt lat="41.6839663624333" lon="13.36680848239515"><ele>252.0</ele><time>2026-04-18T16:53:37Z</time></trkpt><trkpt lat="41.68398406464724" lon="13.366644812923097"><ele>252.0</ele><time>2026-04-18T16:53:38Z</time></trkpt><trkpt lat="41.684003079085" lon="13.366480385734544"><ele>252.0</ele><time>2026-04-18T16:53:39Z</time></trkpt><trkpt lat="41.68402620772477" lon="13.366291733307467"><ele>252.0</ele><time>2026-04-18T16:53:40Z</time></trkpt><trkpt lat="41.68405055073707" lon="13.36611254026477"><ele>252.0</ele><time>2026-04-18T16:53:41Z</time></trkpt><trkpt lat="41.68407887222202" lon="13.36593733202746"><ele>252.0</ele><time>2026-04-18T16:53:42Z</time></trkpt><trkpt lat="41.68410458346357" lon="13.36577593040532"><ele>252.0</ele><time>2026-04-18T16:53:43Z</time></trkpt><trkpt lat="41.684141602598125" lon="13.365628579931984"><ele>252.0</ele><time>2026-04-18T16:53:44Z</time></trkpt><trkpt lat="41.684189934488934" lon="13.365491071846714"><ele>252.2</ele><time>2026-04-18T16:53:45Z</time></trkpt><trkpt lat="41.68424346867257" lon="13.365371530611862"><ele>252.39999999999998</ele><time>2026-04-18T16:53:46Z</time></trkpt><trkpt lat="41.684287730868796" lon="13.365261498097654"><ele>252.60000000000002</ele><time>2026-04-18T16:53:47Z</time></trkpt><trkpt lat="41.68433515163566" lon="13.365162026527901"><ele>252.8</ele><time>2026-04-18T16:53:48Z</time></trkpt><trkpt lat="41.684409412710764" lon="13.365100028652732"><ele>253.0</ele><time>2026-04-18T16:53:49Z</time></trkpt><trkpt lat="41.68448255596495" lon="13.365036802012444"><ele>253.2</ele><time>2026-04-18T16:53:50Z</time></trkpt><trkpt lat="41.68455832614368" lon="13.365052600510191"><ele>253.4</ele><time>2026-04-18T16:53:51Z</time></trkpt><trkpt lat="41.684649689805994" lon="13.365059490093389"><ele>253.59999999999997</ele><time>2026-04-18T16:53:52Z</time></trkpt><trkpt lat="41.68473898685801" lon="13.365043972007319"><ele>253.79999999999998</ele><time>2026-04-18T16:53:53Z</time></trkpt><trkpt lat="41.68482805821161" lon="13.365023824539255"><ele>254.0</ele><time>2026-04-18T16:53:54Z</time></trkpt><trkpt lat="41.684913381775736" lon="13.364943641168784"><ele>254.0</ele><time>2026-04-18T16:53:55Z</time></trkpt><trkpt lat="41.684979340648006" lon="13.364850762011738"><ele>253.99999999999997</ele><time>2026-04-18T16:53:56Z</time></trkpt><trkpt lat="41.68501530683364" lon="13.364723127218248"><ele>253.99999999999997</ele><time>2026-04-18T16:53:57Z</time></trkpt><trkpt lat="41.68502759889629" lon="13.36457308655494"><ele>254.0</ele><time>2026-04-18T16:53:58Z</time></trkpt><trkpt lat="41.68505154169191" lon="13.364426848915407"><ele>254.0</ele><time>2026-04-18T16:53:59Z</time></trkpt><trkpt lat="41.68509224897611" lon="13.364276573580165"><ele>254.2</ele><time>2026-04-18T16:54:00Z</time></trkpt><trkpt lat="41.685140745932415" lon="13.364147240887993"><ele>254.39999999999998</ele><time>2026-04-18T16:54:01Z</time></trkpt><trkpt lat="41.685190095048505" lon="13.364030293580564"><ele>254.6</ele><time>2026-04-18T16:54:02Z</time></trkpt><trkpt lat="41.685224903113586" lon="13.363917874171532"><ele>254.8</ele><time>2026-04-18T16:54:03Z</time></trkpt><trkpt lat="41.685243105068004" lon="13.363788010267037"><ele>255.0</ele><time>2026-04-18T16:54:04Z</time></trkpt><trkpt lat="41.68526638246748" lon="13.363678071220201"><ele>255.0</ele><time>2026-04-18T16:54:05Z</time></trkpt><trkpt lat="41.68529017577635" lon="13.363566622059052"><ele>255.0</ele><time>2026-04-18T16:54:06Z</time></trkpt><trkpt lat="41.68530891703608" lon="13.363446629968118"><ele>255.0</ele><time>2026-04-18T16:54:07Z</time></trkpt><trkpt lat="41.68532918946268" lon="13.363311746977118"><ele>255.0</ele><time>2026-04-18T16:54:08Z</time></trkpt><trkpt lat="41.685342997079" lon="13.363176585146526"><ele>255.0</ele><time>2026-04-18T16:54:09Z</time></trkpt><trkpt lat="41.68535909126443" lon="13.36305432909867"><ele>255.2</ele><time>2026-04-18T16:54:10Z</time></trkpt><trkpt lat="41.68537855154527" lon="13.362936102778846"><ele>255.4</ele><time>2026-04-18T16:54:11Z</time></trkpt><trkpt lat="41.685390302065194" lon="13.362817078235599"><ele>255.60000000000002</ele><time>2026-04-18T16:54:12Z</time></trkpt><trkpt lat="41.685408263944545" lon="13.362689255854587"><ele>255.8</ele><time>2026-04-18T16:54:13Z</time></trkpt><trkpt lat="41.68542712484125" lon="13.362559052383572"><ele>256.0</ele><time>2026-04-18T16:54:14Z</time></trkpt><trkpt lat="41.685447343540545" lon="13.362425099273283"><ele>256.0</ele><time>2026-04-18T16:54:15Z</time></trkpt><trkpt lat="41.68547061940695" lon="13.362285179812435"><ele>256.0</ele><time>2026-04-18T16:54:16Z</time></trkpt><trkpt lat="41.68549765567794" lon="13.362144164761263"><ele>256.0</ele><time>2026-04-18T16:54:17Z</time></trkpt><trkpt lat="41.6855265671106" lon="13.361996545455023"><ele>256.0</ele><time>2026-04-18T16:54:18Z</time></trkpt><trkpt lat="41.685566001671305" lon="13.361855776574357"><ele>256.0</ele><time>2026-04-18T16:54:19Z</time></trkpt><trkpt lat="41.68562044692138" lon="13.36172242544941"><ele>255.60000000000002</ele><time>2026-04-18T16:54:20Z</time></trkpt><trkpt lat="41.68571121519384" lon="13.361639821090428"><ele>255.20000000000002</ele><time>2026-04-18T16:54:21Z</time></trkpt><trkpt lat="41.68580805130658" lon="13.361586429033098"><ele>254.79999999999998</ele><time>2026-04-18T16:54:22Z</time></trkpt><trkpt lat="41.685904296417824" lon="13.36154898455295"><ele>254.39999999999998</ele><time>2026-04-18T16:54:23Z</time></trkpt><trkpt lat="41.68599043811816" lon="13.361489248475038"><ele>254.0</ele><time>2026-04-18T16:54:24Z</time></trkpt><trkpt lat="41.686059221026646" lon="13.361396287294655"><ele>254.0</ele><time>2026-04-18T16:54:25Z</time></trkpt><trkpt lat="41.68612099811224" lon="13.361290050614954"><ele>254.0</ele><time>2026-04-18T16:54:26Z</time></trkpt><trkpt lat="41.68615917115945" lon="13.3611511543464"><ele>254.0</ele><time>2026-04-18T16:54:27Z</time></trkpt><trkpt lat="41.6862043610603" lon="13.360993616741478"><ele>254.0</ele><time>2026-04-18T16:54:28Z</time></trkpt><trkpt lat="41.686250528996325" lon="13.360840364839024"><ele>254.0</ele><time>2026-04-18T16:54:29Z</time></trkpt><trkpt lat="41.6863205132694" lon="13.3606992182614"><ele>254.0</ele><time>2026-04-18T16:54:30Z</time></trkpt><trkpt lat="41.68639164950102" lon="13.360552977107927"><ele>254.0</ele><time>2026-04-18T16:54:31Z</time></trkpt><trkpt lat="41.68646360696332" lon="13.360413149777056"><ele>254.0</ele><time>2026-04-18T16:54:32Z</time></trkpt><trkpt lat="41.686524338175204" lon="13.36026003402893"><ele>253.66666666666669</ele><time>2026-04-18T16:54:33Z</time></trkpt><trkpt lat="41.68658913539542" lon="13.360077868562325"><ele>253.33333333333331</ele><time>2026-04-18T16:54:34Z</time></trkpt><trkpt lat="41.68666210102603" lon="13.359890721594008"><ele>253.0</ele><time>2026-04-18T16:54:35Z</time></trkpt><trkpt lat="41.686738779497084" lon="13.359719619304345"><ele>253.0</ele><time>2026-04-18T16:54:36Z</time></trkpt><trkpt lat="41.68681037843711" lon="13.359537698185722"><ele>253.0</ele><time>2026-04-18T16:54:37Z</time></trkpt><trkpt lat="41.686881952751214" lon="13.359352293104816"><ele>253.0</ele><time>2026-04-18T16:54:38Z</time></trkpt><trkpt lat="41.686954445825606" lon="13.359168839623434"><ele>253.0</ele><time>2026-04-18T16:54:39Z</time></trkpt><trkpt lat="41.68702534582516" lon="13.358991898304414"><ele>253.0</ele><time>2026-04-18T16:54:40Z</time></trkpt><trkpt lat="41.687107083474174" lon="13.358807108389064"><ele>253.0</ele><time>2026-04-18T16:54:41Z</time></trkpt><trkpt lat="41.6871792435071" lon="13.358624455751443"><ele>253.0</ele><time>2026-04-18T16:54:42Z</time></trkpt><trkpt lat="41.6872438675196" lon="13.35844146718233"><ele>253.0</ele><time>2026-04-18T16:54:43Z</time></trkpt><trkpt lat="41.68730330052803" lon="13.35825816258296"><ele>253.0</ele><time>2026-04-18T16:54:44Z</time></trkpt><trkpt lat="41.68735440251858" lon="13.358065490453402"><ele>252.66666666666666</ele><time>2026-04-18T16:54:45Z</time></trkpt><trkpt lat="41.68739756538202" lon="13.357868697228124"><ele>252.33333333333331</ele><time>2026-04-18T16:54:46Z</time></trkpt><trkpt lat="41.68744154339746" lon="13.35767312024004"><ele>252.0</ele><time>2026-04-18T16:54:47Z</time></trkpt><trkpt lat="41.687489618739264" lon="13.357472910907811"><ele>252.0</ele><time>2026-04-18T16:54:48Z</time></trkpt><trkpt lat="41.68753398869129" lon="13.357279838263489"><ele>252.0</ele><time>2026-04-18T16:54:49Z</time></trkpt><trkpt lat="41.687581602587656" lon="13.357087640213825"><ele>252.0</ele><time>2026-04-18T16:54:50Z</time></trkpt><trkpt lat="41.687631717510556" lon="13.356900941238191"><ele>252.25</ele><time>2026-04-18T16:54:51Z</time></trkpt><trkpt lat="41.687680935289514" lon="13.356726294286947"><ele>252.5</ele><time>2026-04-18T16:54:52Z</time></trkpt><trkpt lat="41.687739341710866" lon="13.356580530123026"><ele>252.75</ele><time>2026-04-18T16:54:53Z</time></trkpt><trkpt lat="41.68781984899211" lon="13.356445150564412"><ele>253.0</ele><time>2026-04-18T16:54:54Z</time></trkpt><trkpt lat="41.68792345574419" lon="13.356371591371216"><ele>253.25</ele><time>2026-04-18T16:54:55Z</time></trkpt><trkpt lat="41.68803774074831" lon="13.35634944166742"><ele>253.5</ele><time>2026-04-18T16:54:56Z</time></trkpt><trkpt lat="41.68813759987202" lon="13.35646373846189"><ele>253.75</ele><time>2026-04-18T16:54:57Z</time></trkpt><trkpt lat="41.68831190985943" lon="13.35649672587826"><ele>254.0</ele><time>2026-04-18T16:54:58Z</time></trkpt><trkpt lat="41.68848236412271" lon="13.356478800777525"><ele>254.33333333333334</ele><time>2026-04-18T16:54:59Z</time></trkpt><trkpt lat="41.688651044004224" lon="13.356310032397035"><ele>254.66666666666669</ele><time>2026-04-18T16:55:01Z</time></trkpt><trkpt lat="41.688702092202114" lon="13.356125138183893"><ele>255.0</ele><time>2026-04-18T16:55:02Z</time></trkpt><trkpt lat="41.68878037716418" lon="13.355989630152797"><ele>255.0</ele><time>2026-04-18T16:55:03Z</time></trkpt><trkpt lat="41.688853102646746" lon="13.355826882898477"><ele>255.0</ele><time>2026-04-18T16:55:04Z</time></trkpt><trkpt lat="41.68893416592876" lon="13.35565792425625"><ele>255.0</ele><time>2026-04-18T16:55:05Z</time></trkpt><trkpt lat="41.68901828605796" lon="13.355478700334316"><ele>255.0</ele><time>2026-04-18T16:55:06Z</time></trkpt><trkpt lat="41.689102312949785" lon="13.355304286010398"><ele>255.0</ele><time>2026-04-18T16:55:07Z</time></trkpt><trkpt lat="41.689186496943194" lon="13.355124568689986"><ele>255.0</ele><time>2026-04-18T16:55:08Z</time></trkpt><trkpt lat="41.68927004027863" lon="13.354946787307862"><ele>255.0</ele><time>2026-04-18T16:55:09Z</time></trkpt><trkpt lat="41.689351081608386" lon="13.35475748142693"><ele>255.0</ele><time>2026-04-18T16:55:10Z</time></trkpt><trkpt lat="41.68944087747629" lon="13.354580744510258"><ele>255.0</ele><time>2026-04-18T16:55:11Z</time></trkpt><trkpt lat="41.689521317470046" lon="13.354389169555429"><ele>255.66666666666669</ele><time>2026-04-18T16:55:12Z</time></trkpt><trkpt lat="41.689599107379614" lon="13.354208580309466"><ele>256.33333333333337</ele><time>2026-04-18T16:55:13Z</time></trkpt><trkpt lat="41.689677745678125" lon="13.354032406277078"><ele>257.0</ele><time>2026-04-18T16:55:14Z</time></trkpt><trkpt lat="41.68975292472355" lon="13.35386329025759"><ele>257.0</ele><time>2026-04-18T16:55:15Z</time></trkpt><trkpt lat="41.68981985980987" lon="13.353700042359886"><ele>257.0</ele><time>2026-04-18T16:55:16Z</time></trkpt><trkpt lat="41.689880002802866" lon="13.3535477426415"><ele>257.0</ele><time>2026-04-18T16:55:17Z</time></trkpt><trkpt lat="41.6899247181514" lon="13.353383412786918"><ele>257.0</ele><time>2026-04-18T16:55:18Z</time></trkpt><trkpt lat="41.689968318007764" lon="13.353238521714832"><ele>257.0</ele><time>2026-04-18T16:55:19Z</time></trkpt><trkpt lat="41.69000139863993" lon="13.353086948410706"><ele>257.0</ele><time>2026-04-18T16:55:20Z</time></trkpt><trkpt lat="41.690033044786" lon="13.352932991450173"><ele>257.0</ele><time>2026-04-18T16:55:21Z</time></trkpt><trkpt lat="41.690044888932896" lon="13.352792690398552"><ele>257.0</ele><time>2026-04-18T16:55:22Z</time></trkpt><trkpt lat="41.69005229118482" lon="13.352636892093459"><ele>257.0</ele><time>2026-04-18T16:55:23Z</time></trkpt><trkpt lat="41.69005739197035" lon="13.352486795581493"><ele>257.0</ele><time>2026-04-18T16:55:24Z</time></trkpt><trkpt lat="41.69006685223015" lon="13.352351835278842"><ele>257.0</ele><time>2026-04-18T16:55:25Z</time></trkpt><trkpt lat="41.690082176819644" lon="13.3522218900231"><ele>257.0</ele><time>2026-04-18T16:55:26Z</time></trkpt><trkpt lat="41.69009294740624" lon="13.352107340122453"><ele>257.0</ele><time>2026-04-18T16:55:27Z</time></trkpt><trkpt lat="41.69010495193822" lon="13.352020529698953"><ele>257.0</ele><time>2026-04-18T16:55:28Z</time></trkpt><trkpt lat="41.690099231955074" lon="13.351909431214779"><ele>257.0</ele><time>2026-04-18T16:55:30Z</time></trkpt><trkpt lat="41.69014556559177" lon="13.351826196399996"><ele>257.0</ele><time>2026-04-18T16:55:31Z</time></trkpt><trkpt lat="41.69016296570506" lon="13.35171668230922"><ele>257.0</ele><time>2026-04-18T16:55:32Z</time></trkpt><trkpt lat="41.69018945583096" lon="13.351581471357521"><ele>257.0</ele><time>2026-04-18T16:55:33Z</time></trkpt><trkpt lat="41.69022271855491" lon="13.35144022929785"><ele>258.25</ele><time>2026-04-18T16:55:34Z</time></trkpt><trkpt lat="41.69026177784649" lon="13.351294296527456"><ele>259.5</ele><time>2026-04-18T16:55:35Z</time></trkpt><trkpt lat="41.69030160297437" lon="13.351152856212659"><ele>260.75</ele><time>2026-04-18T16:55:36Z</time></trkpt><trkpt lat="41.690342980247735" lon="13.351006121388377"><ele>262.0</ele><time>2026-04-18T16:55:37Z</time></trkpt><trkpt lat="41.69037649194779" lon="13.350854264475668"><ele>262.0</ele><time>2026-04-18T16:55:38Z</time></trkpt><trkpt lat="41.69041631823289" lon="13.350713051976578"><ele>262.0</ele><time>2026-04-18T16:55:39Z</time></trkpt><trkpt lat="41.69046344717506" lon="13.350567800605324"><ele>262.0</ele><time>2026-04-18T16:55:40Z</time></trkpt><trkpt lat="41.69048072291594" lon="13.350401740230382"><ele>262.0</ele><time>2026-04-18T16:55:41Z</time></trkpt><trkpt lat="41.690509903542434" lon="13.350230403825313"><ele>261.75</ele><time>2026-04-18T16:55:42Z</time></trkpt><trkpt lat="41.690543619988205" lon="13.350053826979806"><ele>261.5</ele><time>2026-04-18T16:55:43Z</time></trkpt><trkpt lat="41.690587247285336" lon="13.349876028946543"><ele>261.25</ele><time>2026-04-18T16:55:44Z</time></trkpt><trkpt lat="41.6906275259434" lon="13.349683840697674"><ele>261.0</ele><time>2026-04-18T16:55:45Z</time></trkpt><trkpt lat="41.69067287928721" lon="13.349499433955152"><ele>260.6666666666667</ele><time>2026-04-18T16:55:46Z</time></trkpt><trkpt lat="41.69071743689648" lon="13.349288150119566"><ele>260.33333333333337</ele><time>2026-04-18T16:55:47Z</time></trkpt><trkpt lat="41.6907739800262" lon="13.34908959334402"><ele>260.0</ele><time>2026-04-18T16:55:48Z</time></trkpt><trkpt lat="41.690833999026324" lon="13.348892885236967"><ele>259.33333333333337</ele><time>2026-04-18T16:55:49Z</time></trkpt><trkpt lat="41.69089796974169" lon="13.348700331977815"><ele>258.6666666666667</ele><time>2026-04-18T16:55:50Z</time></trkpt><trkpt lat="41.69096377766396" lon="13.348512184817451"><ele>258.0</ele><time>2026-04-18T16:55:51Z</time></trkpt><trkpt lat="41.69102597077246" lon="13.34833681189244"><ele>258.0</ele><time>2026-04-18T16:55:52Z</time></trkpt><trkpt lat="41.691090525571276" lon="13.348161796809984"><ele>258.0</ele><time>2026-04-18T16:55:53Z</time></trkpt><trkpt lat="41.69115201702121" lon="13.34799421074698"><ele>258.0</ele><time>2026-04-18T16:55:54Z</time></trkpt><trkpt lat="41.691213374399794" lon="13.347830045642448"><ele>258.0</ele><time>2026-04-18T16:55:55Z</time></trkpt><trkpt lat="41.69127209667737" lon="13.347668422640368"><ele>258.0</ele><time>2026-04-18T16:55:56Z</time></trkpt><trkpt lat="41.691328553023006" lon="13.347507626726888"><ele>258.0</ele><time>2026-04-18T16:55:57Z</time></trkpt><trkpt lat="41.69138110522734" lon="13.347358339718976"><ele>258.0</ele><time>2026-04-18T16:55:58Z</time></trkpt><trkpt lat="41.69143407922456" lon="13.34722270117131"><ele>258.0</ele><time>2026-04-18T16:55:59Z</time></trkpt><trkpt lat="41.69148330834936" lon="13.347070581557361"><ele>258.0</ele><time>2026-04-18T16:56:00Z</time></trkpt><trkpt lat="41.69153592366525" lon="13.346923660078389"><ele>258.0</ele><time>2026-04-18T16:56:01Z</time></trkpt><trkpt lat="41.69157710762372" lon="13.346792266882092"><ele>258.0</ele><time>2026-04-18T16:56:02Z</time></trkpt><trkpt lat="41.691608438991494" lon="13.346682222310642"><ele>258.0</ele><time>2026-04-18T16:56:03Z</time></trkpt><trkpt lat="41.691631476134056" lon="13.346596160602314"><ele>258.0</ele><time>2026-04-18T16:56:04Z</time></trkpt><trkpt lat="41.69166563945776" lon="13.346484495395545"><ele>258.0</ele><time>2026-04-18T16:56:07Z</time></trkpt><trkpt lat="41.69168883626143" lon="13.346385911447127"><ele>258.0</ele><time>2026-04-18T16:56:09Z</time></trkpt><trkpt lat="41.691711268310534" lon="13.346288483530929"><ele>258.0</ele><time>2026-04-18T16:56:11Z</time></trkpt><trkpt lat="41.69173191295762" lon="13.346191310346995"><ele>258.0</ele><time>2026-04-18T16:56:13Z</time></trkpt><trkpt lat="41.69174924504446" lon="13.34609024847957"><ele>258.0</ele><time>2026-04-18T16:56:15Z</time></trkpt><trkpt lat="41.691766997435195" lon="13.346001680433654"><ele>258.0</ele><time>2026-04-18T16:56:17Z</time></trkpt><trkpt lat="41.69177327416405" lon="13.345863191145689"><ele>257.6</ele><time>2026-04-18T16:56:19Z</time></trkpt><trkpt lat="41.691771278398804" lon="13.345687000640675"><ele>257.20000000000005</ele><time>2026-04-18T16:56:21Z</time></trkpt><trkpt lat="41.691762952529125" lon="13.34556923177415"><ele>256.8</ele><time>2026-04-18T16:56:22Z</time></trkpt><trkpt lat="41.691749277452416" lon="13.345444038750667"><ele>256.40000000000003</ele><time>2026-04-18T16:56:23Z</time></trkpt><trkpt lat="41.69173727925843" lon="13.345313992096091"><ele>256.0</ele><time>2026-04-18T16:56:24Z</time></trkpt><trkpt lat="41.69172733066212" lon="13.34518657082004"><ele>255.16666666666666</ele><time>2026-04-18T16:56:25Z</time></trkpt><trkpt lat="41.691718242328406" lon="13.345057972143275"><ele>254.33333333333331</ele><time>2026-04-18T16:56:26Z</time></trkpt><trkpt lat="41.6917063913764" lon="13.344937593552855"><ele>253.5</ele><time>2026-04-18T16:56:27Z</time></trkpt><trkpt lat="41.69169452601286" lon="13.344816830937097"><ele>252.66666666666669</ele><time>2026-04-18T16:56:28Z</time></trkpt><trkpt lat="41.69168188916672" lon="13.344708484549216"><ele>251.83333333333334</ele><time>2026-04-18T16:56:29Z</time></trkpt><trkpt lat="41.691671926699556" lon="13.344605534375422"><ele>251.0</ele><time>2026-04-18T16:56:30Z</time></trkpt><trkpt lat="41.691661941819405" lon="13.344495776216009"><ele>251.0</ele><time>2026-04-18T16:56:31Z</time></trkpt><trkpt lat="41.691654170424805" lon="13.344388812303517"><ele>251.00000000000003</ele><time>2026-04-18T16:56:32Z</time></trkpt><trkpt lat="41.691644426183416" lon="13.344262238633078"><ele>251.00000000000003</ele><time>2026-04-18T16:56:33Z</time></trkpt><trkpt lat="41.691641403784196" lon="13.344123309169548"><ele>251.0</ele><time>2026-04-18T16:56:34Z</time></trkpt><trkpt lat="41.69163718021538" lon="13.343988175953486"><ele>251.0</ele><time>2026-04-18T16:56:35Z</time></trkpt><trkpt lat="41.69163541158546" lon="13.343848740714119"><ele>251.0</ele><time>2026-04-18T16:56:36Z</time></trkpt><trkpt lat="41.691633775704744" lon="13.34370478783217"><ele>251.00000000000003</ele><time>2026-04-18T16:56:37Z</time></trkpt><trkpt lat="41.69163378363384" lon="13.343561124943685"><ele>251.00000000000003</ele><time>2026-04-18T16:56:38Z</time></trkpt><trkpt lat="41.69163539911024" lon="13.343415897799334"><ele>251.0</ele><time>2026-04-18T16:56:39Z</time></trkpt><trkpt lat="41.69163392034559" lon="13.343269442389396"><ele>251.0</ele><time>2026-04-18T16:56:40Z</time></trkpt><trkpt lat="41.691635529437214" lon="13.343141401459595"><ele>251.8</ele><time>2026-04-18T16:56:41Z</time></trkpt><trkpt lat="41.69163482467604" lon="13.34301264367889"><ele>252.60000000000002</ele><time>2026-04-18T16:56:42Z</time></trkpt><trkpt lat="41.69163621252244" lon="13.342886116012053"><ele>253.4</ele><time>2026-04-18T16:56:43Z</time></trkpt><trkpt lat="41.69163743515464" lon="13.34275979836006"><ele>254.2</ele><time>2026-04-18T16:56:44Z</time></trkpt><trkpt lat="41.691638671718046" lon="13.34263498899272"><ele>255.0</ele><time>2026-04-18T16:56:45Z</time></trkpt><trkpt lat="41.691634700805736" lon="13.342508773821779"><ele>255.0</ele><time>2026-04-18T16:56:46Z</time></trkpt><trkpt lat="41.691630572531224" lon="13.342381334747252"><ele>255.0</ele><time>2026-04-18T16:56:47Z</time></trkpt><trkpt lat="41.691622855848806" lon="13.342254735758926"><ele>255.0</ele><time>2026-04-18T16:56:48Z</time></trkpt><trkpt lat="41.69161756523895" lon="13.34212235925876"><ele>255.0</ele><time>2026-04-18T16:56:49Z</time></trkpt><trkpt lat="41.691612305740236" lon="13.341987482365923"><ele>255.0</ele><time>2026-04-18T16:56:50Z</time></trkpt><trkpt lat="41.691604527471554" lon="13.341852302807215"><ele>255.83333333333334</ele><time>2026-04-18T16:56:51Z</time></trkpt><trkpt lat="41.69159914035145" lon="13.34172207743739"><ele>256.6666666666667</ele><time>2026-04-18T16:56:52Z</time></trkpt><trkpt lat="41.691590632003276" lon="13.341593945737273"><ele>257.5</ele><time>2026-04-18T16:56:53Z</time></trkpt><trkpt lat="41.69158124924408" lon="13.341476326338187"><ele>258.33333333333337</ele><time>2026-04-18T16:56:54Z</time></trkpt><trkpt lat="41.691564465442255" lon="13.341361597065927"><ele>259.1666666666667</ele><time>2026-04-18T16:56:55Z</time></trkpt><trkpt lat="41.69155981072563" lon="13.341262018328532"><ele>260.0</ele><time>2026-04-18T16:56:56Z</time></trkpt><trkpt lat="41.69154419819806" lon="13.341164995394834"><ele>260.6</ele><time>2026-04-18T16:56:57Z</time></trkpt><trkpt lat="41.69152053052134" lon="13.341013936002053"><ele>261.2</ele><time>2026-04-18T16:56:59Z</time></trkpt><trkpt lat="41.691541994508334" lon="13.340907095937297"><ele>261.8</ele><time>2026-04-18T16:57:01Z</time></trkpt><trkpt lat="41.6915374294397" lon="13.340797730740226"><ele>262.4</ele><time>2026-04-18T16:57:03Z</time></trkpt><trkpt lat="41.69147468774229" lon="13.340624032585595"><ele>263.0</ele><time>2026-04-18T16:57:05Z</time></trkpt><trkpt lat="41.691436464947216" lon="13.340477938825442"><ele>263.0</ele><time>2026-04-18T16:57:06Z</time></trkpt><trkpt lat="41.691400319936946" lon="13.34036121720526"><ele>263.0</ele><time>2026-04-18T16:57:07Z</time></trkpt><trkpt lat="41.69135350321529" lon="13.34024535875717"><ele>263.0</ele><time>2026-04-18T16:57:08Z</time></trkpt><trkpt lat="41.69130396849006" lon="13.340132754383967"><ele>263.0</ele><time>2026-04-18T16:57:09Z</time></trkpt><trkpt lat="41.69124406420575" lon="13.34000978231712"><ele>263.0</ele><time>2026-04-18T16:57:10Z</time></trkpt><trkpt lat="41.69118165626803" lon="13.339876665661016"><ele>263.0</ele><time>2026-04-18T16:57:11Z</time></trkpt><trkpt lat="41.69111458322185" lon="13.339732648407205"><ele>263.0</ele><time>2026-04-18T16:57:12Z</time></trkpt><trkpt lat="41.69104251656406" lon="13.339591260373009"><ele>263.0</ele><time>2026-04-18T16:57:13Z</time></trkpt><trkpt lat="41.690970955677386" lon="13.3394464034447"><ele>263.0</ele><time>2026-04-18T16:57:14Z</time></trkpt><trkpt lat="41.690889133191426" lon="13.339308311596014"><ele>262.75</ele><time>2026-04-18T16:57:15Z</time></trkpt><trkpt lat="41.6908091492184" lon="13.339180083103905"><ele>262.5</ele><time>2026-04-18T16:57:16Z</time></trkpt><trkpt lat="41.690720658503366" lon="13.339046328144565"><ele>262.25</ele><time>2026-04-18T16:57:17Z</time></trkpt><trkpt lat="41.690631785238814" lon="13.338912709950144"><ele>262.0</ele><time>2026-04-18T16:57:18Z</time></trkpt><trkpt lat="41.69054643411919" lon="13.338776614618942"><ele>262.0</ele><time>2026-04-18T16:57:19Z</time></trkpt><trkpt lat="41.69046521291955" lon="13.338633457369513"><ele>262.0</ele><time>2026-04-18T16:57:20Z</time></trkpt><trkpt lat="41.69038695834214" lon="13.338489759529692"><ele>262.0</ele><time>2026-04-18T16:57:21Z</time></trkpt><trkpt lat="41.6903243721176" lon="13.338355363039263"><ele>262.0</ele><time>2026-04-18T16:57:22Z</time></trkpt><trkpt lat="41.69026883483473" lon="13.33822858060069"><ele>261.25</ele><time>2026-04-18T16:57:23Z</time></trkpt><trkpt lat="41.690219256664115" lon="13.338106539557433"><ele>260.5</ele><time>2026-04-18T16:57:24Z</time></trkpt><trkpt lat="41.690166452861014" lon="13.337975630372"><ele>259.75</ele><time>2026-04-18T16:57:25Z</time></trkpt><trkpt lat="41.69010380794814" lon="13.337830698766552"><ele>259.0</ele><time>2026-04-18T16:57:26Z</time></trkpt><trkpt lat="41.690041530345745" lon="13.337677172881351"><ele>259.0</ele><time>2026-04-18T16:57:27Z</time></trkpt><trkpt lat="41.68998310645214" lon="13.337494408012931"><ele>259.0</ele><time>2026-04-18T16:57:28Z</time></trkpt><trkpt lat="41.689925367607785" lon="13.33728729103956"><ele>259.0</ele><time>2026-04-18T16:57:29Z</time></trkpt><trkpt lat="41.6898673027835" lon="13.337055930122403"><ele>259.0</ele><time>2026-04-18T16:57:30Z</time></trkpt><trkpt lat="41.68982269975082" lon="13.336834598181456"><ele>259.0</ele><time>2026-04-18T16:57:31Z</time></trkpt><trkpt lat="41.68976913475792" lon="13.336632738425"><ele>259.0</ele><time>2026-04-18T16:57:32Z</time></trkpt><trkpt lat="41.68972172334549" lon="13.336407113336055"><ele>259.0</ele><time>2026-04-18T16:57:33Z</time></trkpt><trkpt lat="41.689681472960494" lon="13.336193955058247"><ele>259.0</ele><time>2026-04-18T16:57:34Z</time></trkpt><trkpt lat="41.689639813625256" lon="13.335975999386458"><ele>259.0</ele><time>2026-04-18T16:57:35Z</time></trkpt><trkpt lat="41.68961225417594" lon="13.335760264282305"><ele>259.0</ele><time>2026-04-18T16:57:36Z</time></trkpt><trkpt lat="41.68959707455699" lon="13.33553910005552"><ele>259.0</ele><time>2026-04-18T16:57:37Z</time></trkpt><trkpt lat="41.68957892287191" lon="13.335309405309895"><ele>259.0</ele><time>2026-04-18T16:57:38Z</time></trkpt><trkpt lat="41.68956573448127" lon="13.335085966647137"><ele>259.0</ele><time>2026-04-18T16:57:39Z</time></trkpt><trkpt lat="41.68955182539736" lon="13.334833991237188"><ele>259.0</ele><time>2026-04-18T16:57:40Z</time></trkpt><trkpt lat="41.689535452198356" lon="13.334580550150159"><ele>259.0</ele><time>2026-04-18T16:57:41Z</time></trkpt><trkpt lat="41.68952487487907" lon="13.334324499451316"><ele>259.0</ele><time>2026-04-18T16:57:42Z</time></trkpt><trkpt lat="41.689512794964884" lon="13.334062978379446"><ele>259.0</ele><time>2026-04-18T16:57:43Z</time></trkpt><trkpt lat="41.68949668514872" lon="13.333793580882713"><ele>259.0</ele><time>2026-04-18T16:57:44Z</time></trkpt><trkpt lat="41.689486342619475" lon="13.333520693006538"><ele>259.0</ele><time>2026-04-18T16:57:45Z</time></trkpt><trkpt lat="41.68947231014971" lon="13.333241791603736"><ele>259.0</ele><time>2026-04-18T16:57:46Z</time></trkpt><trkpt lat="41.68945974470537" lon="13.332956209397576"><ele>259.0</ele><time>2026-04-18T16:57:47Z</time></trkpt><trkpt lat="41.68944670085016" lon="13.332665628638669"><ele>258.66666666666663</ele><time>2026-04-18T16:57:48Z</time></trkpt><trkpt lat="41.68943136484103" lon="13.332373363002342"><ele>258.3333333333333</ele><time>2026-04-18T16:57:49Z</time></trkpt><trkpt lat="41.689414995865896" lon="13.332077714248339"><ele>258.0</ele><time>2026-04-18T16:57:50Z</time></trkpt><trkpt lat="41.68939573179799" lon="13.331780882853442"><ele>256.6666666666667</ele><time>2026-04-18T16:57:51Z</time></trkpt><trkpt lat="41.68937871858988" lon="13.3314851198945"><ele>255.33333333333334</ele><time>2026-04-18T16:57:52Z</time></trkpt><trkpt lat="41.68935932277687" lon="13.331194746947924"><ele>254.0</ele><time>2026-04-18T16:57:53Z</time></trkpt><trkpt lat="41.68934162256706" lon="13.33091102983273"><ele>254.0</ele><time>2026-04-18T16:57:54Z</time></trkpt><trkpt lat="41.689333675572605" lon="13.330629841396176"><ele>254.0</ele><time>2026-04-18T16:57:55Z</time></trkpt><trkpt lat="41.68931468958813" lon="13.33035535962442"><ele>254.0</ele><time>2026-04-18T16:57:56Z</time></trkpt><trkpt lat="41.68928972604736" lon="13.330086668651013"><ele>254.0</ele><time>2026-04-18T16:57:57Z</time></trkpt><trkpt lat="41.68925589323612" lon="13.32981793343046"><ele>254.0</ele><time>2026-04-18T16:57:58Z</time></trkpt><trkpt lat="41.68921335357444" lon="13.3295519539936"><ele>254.0</ele><time>2026-04-18T16:57:59Z</time></trkpt><trkpt lat="41.6891722217999" lon="13.329291792702081"><ele>253.66666666666669</ele><time>2026-04-18T16:58:00Z</time></trkpt><trkpt lat="41.68912942056204" lon="13.329033361294929"><ele>253.33333333333331</ele><time>2026-04-18T16:58:01Z</time></trkpt><trkpt lat="41.68908625337117" lon="13.328777740963346"><ele>253.0</ele><time>2026-04-18T16:58:02Z</time></trkpt><trkpt lat="41.689042210034295" lon="13.328530236889742"><ele>253.0</ele><time>2026-04-18T16:58:03Z</time></trkpt><trkpt lat="41.68899835411684" lon="13.328277430252834"><ele>253.0</ele><time>2026-04-18T16:58:04Z</time></trkpt><trkpt lat="41.688959588574065" lon="13.328025352470261"><ele>253.0</ele><time>2026-04-18T16:58:05Z</time></trkpt><trkpt lat="41.688921509417995" lon="13.327770318680521"><ele>253.0</ele><time>2026-04-18T16:58:06Z</time></trkpt><trkpt lat="41.68888921972007" lon="13.327520452720433"><ele>253.0</ele><time>2026-04-18T16:58:07Z</time></trkpt><trkpt lat="41.68886265406944" lon="13.327276119576952"><ele>253.0</ele><time>2026-04-18T16:58:08Z</time></trkpt><trkpt lat="41.68884560077836" lon="13.327036550244339"><ele>253.33333333333331</ele><time>2026-04-18T16:58:09Z</time></trkpt><trkpt lat="41.688838437710004" lon="13.326804042736464"><ele>253.66666666666669</ele><time>2026-04-18T16:58:10Z</time></trkpt><trkpt lat="41.68883468704903" lon="13.326578795795156"><ele>254.0</ele><time>2026-04-18T16:58:11Z</time></trkpt><trkpt lat="41.688834622276474" lon="13.326374037723381"><ele>254.39999999999998</ele><time>2026-04-18T16:58:12Z</time></trkpt><trkpt lat="41.688833850869784" lon="13.32619552420144"><ele>254.79999999999998</ele><time>2026-04-18T16:58:13Z</time></trkpt><trkpt lat="41.68883414929467" lon="13.326051138974687"><ele>255.20000000000002</ele><time>2026-04-18T16:58:14Z</time></trkpt><trkpt lat="41.688833136632326" lon="13.325926923571673"><ele>255.60000000000002</ele><time>2026-04-18T16:58:15Z</time></trkpt><trkpt lat="41.68883081795923" lon="13.325830618409771"><ele>256.0</ele><time>2026-04-18T16:58:16Z</time></trkpt><trkpt lat="41.68882154468891" lon="13.325695776054085"><ele>256.0</ele><time>2026-04-18T16:58:18Z</time></trkpt><trkpt lat="41.688813456247615" lon="13.325609725282813"><ele>256.0</ele><time>2026-04-18T16:58:19Z</time></trkpt><trkpt lat="41.68880516043979" lon="13.32549957543653"><ele>256.0</ele><time>2026-04-18T16:58:20Z</time></trkpt><trkpt lat="41.68879329330284" lon="13.325354227736277"><ele>256.0</ele><time>2026-04-18T16:58:21Z</time></trkpt><trkpt lat="41.68878182700547" lon="13.325213982593208"><ele>256.0</ele><time>2026-04-18T16:58:22Z</time></trkpt><trkpt lat="41.68876572044065" lon="13.325061603676803"><ele>256.5</ele><time>2026-04-18T16:58:23Z</time></trkpt><trkpt lat="41.688744029837565" lon="13.324888186802612"><ele>257.0</ele><time>2026-04-18T16:58:24Z</time></trkpt><trkpt lat="41.6887203923216" lon="13.324713999243686"><ele>257.5</ele><time>2026-04-18T16:58:25Z</time></trkpt><trkpt lat="41.68869891019869" lon="13.324540099392117"><ele>258.0</ele><time>2026-04-18T16:58:26Z</time></trkpt><trkpt lat="41.68867920626062" lon="13.324367682170793"><ele>258.5</ele><time>2026-04-18T16:58:27Z</time></trkpt><trkpt lat="41.68863622504437" lon="13.324210936800338"><ele>259.0</ele><time>2026-04-18T16:58:28Z</time></trkpt><trkpt lat="41.6886543798777" lon="13.324033618743117"><ele>259.5</ele><time>2026-04-18T16:58:29Z</time></trkpt><trkpt lat="41.68864665308591" lon="13.323878358679696"><ele>260.0</ele><time>2026-04-18T16:58:30Z</time></trkpt><trkpt lat="41.688640012015306" lon="13.32373134655774"><ele>260.6</ele><time>2026-04-18T16:58:31Z</time></trkpt><trkpt lat="41.68863392398837" lon="13.323590577173876"><ele>261.2</ele><time>2026-04-18T16:58:32Z</time></trkpt><trkpt lat="41.68862889023389" lon="13.32345866811784"><ele>261.8</ele><time>2026-04-18T16:58:33Z</time></trkpt><trkpt lat="41.68862522886607" lon="13.32332830001535"><ele>262.4</ele><time>2026-04-18T16:58:34Z</time></trkpt><trkpt lat="41.68862295369832" lon="13.32319200144423"><ele>263.0</ele><time>2026-04-18T16:58:35Z</time></trkpt><trkpt lat="41.68862461400495" lon="13.323040174886687"><ele>263.33333333333337</ele><time>2026-04-18T16:58:36Z</time></trkpt><trkpt lat="41.68863042134049" lon="13.322860262961377"><ele>263.6666666666667</ele><time>2026-04-18T16:58:37Z</time></trkpt><trkpt lat="41.68863704192782" lon="13.322650428083566"><ele>264.0</ele><time>2026-04-18T16:58:38Z</time></trkpt><trkpt lat="41.6886436440751" lon="13.322426132084459"><ele>264.6666666666667</ele><time>2026-04-18T16:58:39Z</time></trkpt><trkpt lat="41.68865398741914" lon="13.322209708363552"><ele>265.33333333333337</ele><time>2026-04-18T16:58:40Z</time></trkpt><trkpt lat="41.688665875933054" lon="13.321991230583349"><ele>266.0</ele><time>2026-04-18T16:58:41Z</time></trkpt><trkpt lat="41.68867739944299" lon="13.321779918632028"><ele>266.0</ele><time>2026-04-18T16:58:42Z</time></trkpt><trkpt lat="41.68868827628763" lon="13.321575718532792"><ele>266.0</ele><time>2026-04-18T16:58:43Z</time></trkpt><trkpt lat="41.68869983193691" lon="13.321376168367472"><ele>266.0</ele><time>2026-04-18T16:58:44Z</time></trkpt><trkpt lat="41.68871001436392" lon="13.32117632264171"><ele>266.25</ele><time>2026-04-18T16:58:45Z</time></trkpt><trkpt lat="41.68872229503115" lon="13.320978117843438"><ele>266.5</ele><time>2026-04-18T16:58:46Z</time></trkpt><trkpt lat="41.688731318824615" lon="13.320783581195453"><ele>266.75</ele><time>2026-04-18T16:58:47Z</time></trkpt><trkpt lat="41.688742552787" lon="13.320590313501851"><ele>267.0</ele><time>2026-04-18T16:58:48Z</time></trkpt><trkpt lat="41.68875313266835" lon="13.32040771078313"><ele>267.5</ele><time>2026-04-18T16:58:49Z</time></trkpt><trkpt lat="41.68876357747338" lon="13.32023209089281"><ele>268.0</ele><time>2026-04-18T16:58:50Z</time></trkpt><trkpt lat="41.68877815258469" lon="13.320064696685384"><ele>268.5</ele><time>2026-04-18T16:58:51Z</time></trkpt><trkpt lat="41.68879221960024" lon="13.319902125667694"><ele>269.0</ele><time>2026-04-18T16:58:52Z</time></trkpt><trkpt lat="41.68880544018907" lon="13.319742794639385"><ele>269.75</ele><time>2026-04-18T16:58:53Z</time></trkpt><trkpt lat="41.68881674217291" lon="13.31958689328698"><ele>270.5</ele><time>2026-04-18T16:58:54Z</time></trkpt><trkpt lat="41.68882319221444" lon="13.31943059926765"><ele>271.25</ele><time>2026-04-18T16:58:55Z</time></trkpt><trkpt lat="41.688826245047316" lon="13.3192811549409"><ele>272.0</ele><time>2026-04-18T16:58:56Z</time></trkpt><trkpt lat="41.688828837862985" lon="13.319131818667778"><ele>272.0</ele><time>2026-04-18T16:58:57Z</time></trkpt><trkpt lat="41.68883311022571" lon="13.318989284336846"><ele>272.0</ele><time>2026-04-18T16:58:58Z</time></trkpt><trkpt lat="41.68884004212804" lon="13.31885032334653"><ele>272.0</ele><time>2026-04-18T16:58:59Z</time></trkpt><trkpt lat="41.688851113459314" lon="13.31871747469783"><ele>272.0</ele><time>2026-04-18T16:59:00Z</time></trkpt><trkpt lat="41.688873122195595" lon="13.318593105858055"><ele>272.0</ele><time>2026-04-18T16:59:01Z</time></trkpt><trkpt lat="41.68890463356212" lon="13.318483764942648"><ele>272.33333333333337</ele><time>2026-04-18T16:59:02Z</time></trkpt><trkpt lat="41.68893255173647" lon="13.318385137559458"><ele>272.6666666666667</ele><time>2026-04-18T16:59:03Z</time></trkpt><trkpt lat="41.68895624024718" lon="13.318291905228268"><ele>273.0</ele><time>2026-04-18T16:59:04Z</time></trkpt><trkpt lat="41.68895545646714" lon="13.318195598844738"><ele>273.3333333333333</ele><time>2026-04-18T16:59:05Z</time></trkpt><trkpt lat="41.68894507173664" lon="13.318098970911686"><ele>273.66666666666663</ele><time>2026-04-18T16:59:06Z</time></trkpt><trkpt lat="41.688923189435954" lon="13.317992270323492"><ele>274.0</ele><time>2026-04-18T16:59:07Z</time></trkpt><trkpt lat="41.688889884533914" lon="13.317881238840656"><ele>274.0</ele><time>2026-04-18T16:59:08Z</time></trkpt><trkpt lat="41.68886765079525" lon="13.31775857161407"><ele>274.0</ele><time>2026-04-18T16:59:09Z</time></trkpt><trkpt lat="41.68885840111737" lon="13.317628709293487"><ele>274.0</ele><time>2026-04-18T16:59:10Z</time></trkpt><trkpt lat="41.68885658771151" lon="13.317503333271038"><ele>274.0</ele><time>2026-04-18T16:59:11Z</time></trkpt><trkpt lat="41.688855923173556" lon="13.317376069772907"><ele>274.0</ele><time>2026-04-18T16:59:12Z</time></trkpt><trkpt lat="41.68885802687145" lon="13.317250857795925"><ele>273.8</ele><time>2026-04-18T16:59:13Z</time></trkpt><trkpt lat="41.68885921321445" lon="13.317130567195868"><ele>273.59999999999997</ele><time>2026-04-18T16:59:14Z</time></trkpt><trkpt lat="41.68886017523329" lon="13.31701459777495"><ele>273.4</ele><time>2026-04-18T16:59:15Z</time></trkpt><trkpt lat="41.688858101731434" lon="13.316895011732518"><ele>273.2</ele><time>2026-04-18T16:59:16Z</time></trkpt><trkpt lat="41.68885061023122" lon="13.316771901601784"><ele>273.0</ele><time>2026-04-18T16:59:17Z</time></trkpt><trkpt lat="41.68883996031816" lon="13.316647794338815"><ele>273.0</ele><time>2026-04-18T16:59:18Z</time></trkpt><trkpt lat="41.688828588096506" lon="13.31652545703247"><ele>273.0</ele><time>2026-04-18T16:59:19Z</time></trkpt><trkpt lat="41.68882089600921" lon="13.316400859042007"><ele>273.0</ele><time>2026-04-18T16:59:20Z</time></trkpt><trkpt lat="41.688814335836256" lon="13.316275892212149"><ele>273.0</ele><time>2026-04-18T16:59:21Z</time></trkpt><trkpt lat="41.68880991637572" lon="13.316153189664595"><ele>273.0</ele><time>2026-04-18T16:59:22Z</time></trkpt><trkpt lat="41.68879966097345" lon="13.316033436737742"><ele>273.4</ele><time>2026-04-18T16:59:23Z</time></trkpt><trkpt lat="41.688794348271855" lon="13.315923308363356"><ele>273.8</ele><time>2026-04-18T16:59:24Z</time></trkpt><trkpt lat="41.68878326843744" lon="13.315816855278015"><ele>274.2</ele><time>2026-04-18T16:59:25Z</time></trkpt><trkpt lat="41.68877112552295" lon="13.315722543309835"><ele>274.6</ele><time>2026-04-18T16:59:26Z</time></trkpt><trkpt lat="41.68874184931214" lon="13.315562875817466"><ele>275.0</ele><time>2026-04-18T16:59:28Z</time></trkpt><trkpt lat="41.68871912755377" lon="13.315437034240057"><ele>275.4</ele><time>2026-04-18T16:59:30Z</time></trkpt><trkpt lat="41.68869770323155" lon="13.315317272690947"><ele>275.8</ele><time>2026-04-18T16:59:32Z</time></trkpt><trkpt lat="41.688694770839646" lon="13.315220950872098"><ele>276.2</ele><time>2026-04-18T16:59:33Z</time></trkpt><trkpt lat="41.688677465087316" lon="13.315094115607637"><ele>276.6</ele><time>2026-04-18T16:59:34Z</time></trkpt><trkpt lat="41.68864626089908" lon="13.314948584511903"><ele>277.0</ele><time>2026-04-18T16:59:35Z</time></trkpt><trkpt lat="41.68863227991281" lon="13.314796089548356"><ele>277.5</ele><time>2026-04-18T16:59:36Z</time></trkpt><trkpt lat="41.688617407427316" lon="13.314618368207947"><ele>278.0</ele><time>2026-04-18T16:59:37Z</time></trkpt><trkpt lat="41.688606702781655" lon="13.314436980243235"><ele>278.5</ele><time>2026-04-18T16:59:38Z</time></trkpt><trkpt lat="41.68859624903198" lon="13.314254570348844"><ele>279.0</ele><time>2026-04-18T16:59:39Z</time></trkpt><trkpt lat="41.68859047100863" lon="13.31407106648775"><ele>278.5</ele><time>2026-04-18T16:59:40Z</time></trkpt><trkpt lat="41.68858813114124" lon="13.31388494349307"><ele>278.0</ele><time>2026-04-18T16:59:41Z</time></trkpt><trkpt lat="41.688592407608624" lon="13.31369263932586"><ele>277.5</ele><time>2026-04-18T16:59:42Z</time></trkpt><trkpt lat="41.688605316617576" lon="13.313492918589425"><ele>277.0</ele><time>2026-04-18T16:59:43Z</time></trkpt><trkpt lat="41.688618879936875" lon="13.313282109229274"><ele>276.3333333333333</ele><time>2026-04-18T16:59:44Z</time></trkpt><trkpt lat="41.68863726506522" lon="13.313062786564448"><ele>275.6666666666667</ele><time>2026-04-18T16:59:45Z</time></trkpt><trkpt lat="41.68865555174838" lon="13.312836194786385"><ele>275.0</ele><time>2026-04-18T16:59:46Z</time></trkpt><trkpt lat="41.68867515894719" lon="13.31260169784193"><ele>275.0</ele><time>2026-04-18T16:59:47Z</time></trkpt><trkpt lat="41.688693060884425" lon="13.31236688209489"><ele>275.0</ele><time>2026-04-18T16:59:48Z</time></trkpt><trkpt lat="41.6887111075558" lon="13.312134701484249"><ele>275.0</ele><time>2026-04-18T16:59:49Z</time></trkpt><trkpt lat="41.68873017276796" lon="13.311902300618897"><ele>274.0</ele><time>2026-04-18T16:59:50Z</time></trkpt><trkpt lat="41.68875508504252" lon="13.311673681199968"><ele>273.0</ele><time>2026-04-18T16:59:51Z</time></trkpt><trkpt lat="41.68878777029202" lon="13.311451962068565"><ele>272.0</ele><time>2026-04-18T16:59:52Z</time></trkpt><trkpt lat="41.688819774182086" lon="13.311250116809449"><ele>270.75</ele><time>2026-04-18T16:59:53Z</time></trkpt><trkpt lat="41.688847926833546" lon="13.311064562201135"><ele>269.5</ele><time>2026-04-18T16:59:54Z</time></trkpt><trkpt lat="41.688872778610175" lon="13.310885335241736"><ele>268.25</ele><time>2026-04-18T16:59:55Z</time></trkpt><trkpt lat="41.68889570315082" lon="13.310719748924749"><ele>267.0</ele><time>2026-04-18T16:59:56Z</time></trkpt><trkpt lat="41.68891704109127" lon="13.310566909637668"><ele>266.0</ele><time>2026-04-18T16:59:57Z</time></trkpt><trkpt lat="41.68893486592469" lon="13.310420091010297"><ele>265.0</ele><time>2026-04-18T16:59:58Z</time></trkpt><trkpt lat="41.688944671092486" lon="13.310279301104107"><ele>264.0</ele><time>2026-04-18T16:59:59Z</time></trkpt><trkpt lat="41.688956898675684" lon="13.310115478162817"><ele>263.0</ele><time>2026-04-18T17:00:00Z</time></trkpt><trkpt lat="41.68897771394196" lon="13.309950513172334"><ele>263.0</ele><time>2026-04-18T17:00:01Z</time></trkpt><trkpt lat="41.68900549317771" lon="13.309784850055758"><ele>263.0</ele><time>2026-04-18T17:00:02Z</time></trkpt><trkpt lat="41.68903180855373" lon="13.309626486351698"><ele>263.0</ele><time>2026-04-18T17:00:03Z</time></trkpt><trkpt lat="41.68905660490976" lon="13.309483528928073"><ele>263.0</ele><time>2026-04-18T17:00:04Z</time></trkpt><trkpt lat="41.689079080401626" lon="13.309340660670525"><ele>261.75</ele><time>2026-04-18T17:00:05Z</time></trkpt><trkpt lat="41.68910438626343" lon="13.309177229518625"><ele>260.5</ele><time>2026-04-18T17:00:06Z</time></trkpt><trkpt lat="41.689137874969035" lon="13.30899734907712"><ele>259.25</ele><time>2026-04-18T17:00:07Z</time></trkpt><trkpt lat="41.68918536769216" lon="13.30879947141189"><ele>258.0</ele><time>2026-04-18T17:00:08Z</time></trkpt><trkpt lat="41.689232108681615" lon="13.308597278708044"><ele>256.6666666666667</ele><time>2026-04-18T17:00:09Z</time></trkpt><trkpt lat="41.6892850006749" lon="13.308398184654296"><ele>255.33333333333334</ele><time>2026-04-18T17:00:10Z</time></trkpt><trkpt lat="41.6893439765787" lon="13.30819860384785"><ele>254.0</ele><time>2026-04-18T17:00:11Z</time></trkpt><trkpt lat="41.68941401238502" lon="13.308007094317887"><ele>257.33333333333337</ele><time>2026-04-18T17:00:12Z</time></trkpt><trkpt lat="41.68950354306311" lon="13.307826415191254"><ele>260.6666666666667</ele><time>2026-04-18T17:00:13Z</time></trkpt><trkpt lat="41.68961396606353" lon="13.307666393352743"><ele>264.0</ele><time>2026-04-18T17:00:14Z</time></trkpt><trkpt lat="41.68973126104931" lon="13.30750790385423"><ele>264.0</ele><time>2026-04-18T17:00:15Z</time></trkpt><trkpt lat="41.68984274027578" lon="13.307345233644252"><ele>264.0</ele><time>2026-04-18T17:00:16Z</time></trkpt><trkpt lat="41.68993724825276" lon="13.307157078725137"><ele>264.0</ele><time>2026-04-18T17:00:17Z</time></trkpt><trkpt lat="41.6900110344007" lon="13.306949890438991"><ele>261.3333333333333</ele><time>2026-04-18T17:00:18Z</time></trkpt><trkpt lat="41.69010290272502" lon="13.30673172235189"><ele>258.66666666666663</ele><time>2026-04-18T17:00:19Z</time></trkpt><trkpt lat="41.690192340462566" lon="13.306502827441294"><ele>256.0</ele><time>2026-04-18T17:00:20Z</time></trkpt><trkpt lat="41.69028477858381" lon="13.306267475672671"><ele>259.3333333333333</ele><time>2026-04-18T17:00:21Z</time></trkpt><trkpt lat="41.69035720005949" lon="13.306011562204397"><ele>262.6666666666667</ele><time>2026-04-18T17:00:22Z</time></trkpt><trkpt lat="41.690432547775934" lon="13.305768996090533"><ele>266.0</ele><time>2026-04-18T17:00:23Z</time></trkpt><trkpt lat="41.69051911460898" lon="13.305529442385584"><ele>266.0</ele><time>2026-04-18T17:00:24Z</time></trkpt><trkpt lat="41.69060500957523" lon="13.30528288549239"><ele>266.0</ele><time>2026-04-18T17:00:25Z</time></trkpt><trkpt lat="41.690685399476074" lon="13.305029417899167"><ele>266.0</ele><time>2026-04-18T17:00:26Z</time></trkpt><trkpt lat="41.69076305854109" lon="13.304784561931928"><ele>263.6666666666667</ele><time>2026-04-18T17:00:27Z</time></trkpt><trkpt lat="41.69083926536918" lon="13.3045442848066"><ele>261.3333333333333</ele><time>2026-04-18T17:00:28Z</time></trkpt><trkpt lat="41.690891458045" lon="13.304295764269709"><ele>259.0</ele><time>2026-04-18T17:00:29Z</time></trkpt><trkpt lat="41.69095937450018" lon="13.304062866493856"><ele>258.66666666666663</ele><time>2026-04-18T17:00:30Z</time></trkpt><trkpt lat="41.69102200402628" lon="13.30383814722059"><ele>258.3333333333333</ele><time>2026-04-18T17:00:31Z</time></trkpt><trkpt lat="41.69107584754224" lon="13.303613129922626"><ele>258.0</ele><time>2026-04-18T17:00:32Z</time></trkpt><trkpt lat="41.69110384673895" lon="13.303389607214037"><ele>258.0</ele><time>2026-04-18T17:00:33Z</time></trkpt><trkpt lat="41.69110837778006" lon="13.303169672434919"><ele>258.0</ele><time>2026-04-18T17:00:34Z</time></trkpt><trkpt lat="41.69109528873229" lon="13.30294850117473"><ele>258.0</ele><time>2026-04-18T17:00:35Z</time></trkpt><trkpt lat="41.691075937698535" lon="13.302711864250776"><ele>258.0</ele><time>2026-04-18T17:00:36Z</time></trkpt><trkpt lat="41.69104564239958" lon="13.30248555810727"><ele>258.0</ele><time>2026-04-18T17:00:37Z</time></trkpt><trkpt lat="41.69100070873177" lon="13.30226562357083"><ele>258.0</ele><time>2026-04-18T17:00:38Z</time></trkpt><trkpt lat="41.690945959908426" lon="13.302053639921516"><ele>258.0</ele><time>2026-04-18T17:00:39Z</time></trkpt><trkpt lat="41.6909047632741" lon="13.301837895261768"><ele>258.0</ele><time>2026-04-18T17:00:40Z</time></trkpt><trkpt lat="41.69088372239049" lon="13.301618739558675"><ele>258.0</ele><time>2026-04-18T17:00:41Z</time></trkpt><trkpt lat="41.690880591077345" lon="13.3013922161999"><ele>257.3333333333333</ele><time>2026-04-18T17:00:42Z</time></trkpt><trkpt lat="41.690897346084" lon="13.301166252783169"><ele>256.66666666666663</ele><time>2026-04-18T17:00:43Z</time></trkpt><trkpt lat="41.6909189582915" lon="13.300928109930402"><ele>256.0</ele><time>2026-04-18T17:00:44Z</time></trkpt><trkpt lat="41.690924825264126" lon="13.300679564378507"><ele>256.0</ele><time>2026-04-18T17:00:45Z</time></trkpt><trkpt lat="41.69091863665646" lon="13.300419692458108"><ele>256.0</ele><time>2026-04-18T17:00:46Z</time></trkpt><trkpt lat="41.690920619999154" lon="13.300142630447791"><ele>256.0</ele><time>2026-04-18T17:00:47Z</time></trkpt><trkpt lat="41.6909440649293" lon="13.299855511782104"><ele>256.0</ele><time>2026-04-18T17:00:48Z</time></trkpt><trkpt lat="41.690970419514194" lon="13.299579314510153"><ele>256.0</ele><time>2026-04-18T17:00:49Z</time></trkpt><trkpt lat="41.690981244952766" lon="13.299309065684204"><ele>256.0</ele><time>2026-04-18T17:00:50Z</time></trkpt><trkpt lat="41.69096583468905" lon="13.299042134169113"><ele>256.3333333333333</ele><time>2026-04-18T17:00:51Z</time></trkpt><trkpt lat="41.69094525351474" lon="13.298777578788071"><ele>256.6666666666667</ele><time>2026-04-18T17:00:52Z</time></trkpt><trkpt lat="41.690932462627586" lon="13.29851730096444"><ele>257.0</ele><time>2026-04-18T17:00:53Z</time></trkpt><trkpt lat="41.69092485014703" lon="13.298266755214357"><ele>258.0</ele><time>2026-04-18T17:00:54Z</time></trkpt><trkpt lat="41.6909237032882" lon="13.29803273251523"><ele>259.0</ele><time>2026-04-18T17:00:55Z</time></trkpt><trkpt lat="41.69092078155725" lon="13.29781060870149"><ele>260.0</ele><time>2026-04-18T17:00:56Z</time></trkpt><trkpt lat="41.69090986380478" lon="13.297595613310019"><ele>260.0</ele><time>2026-04-18T17:00:57Z</time></trkpt><trkpt lat="41.690893888731715" lon="13.297384874915423"><ele>260.0</ele><time>2026-04-18T17:00:58Z</time></trkpt><trkpt lat="41.69089169027442" lon="13.297184295708716"><ele>260.0</ele><time>2026-04-18T17:00:59Z</time></trkpt><trkpt lat="41.690912653362346" lon="13.29699048830666"><ele>260.25</ele><time>2026-04-18T17:01:00Z</time></trkpt><trkpt lat="41.69095367910113" lon="13.296811104774791"><ele>260.5</ele><time>2026-04-18T17:01:01Z</time></trkpt><trkpt lat="41.69101590484398" lon="13.296629990000762"><ele>260.75</ele><time>2026-04-18T17:01:02Z</time></trkpt><trkpt lat="41.691073279151986" lon="13.296482768472295"><ele>261.0</ele><time>2026-04-18T17:01:03Z</time></trkpt><trkpt lat="41.69111990459999" lon="13.296371341586509"><ele>261.6</ele><time>2026-04-18T17:01:04Z</time></trkpt><trkpt lat="41.69117066424511" lon="13.29626362475886"><ele>262.20000000000005</ele><time>2026-04-18T17:01:05Z</time></trkpt><trkpt lat="41.69121426173649" lon="13.296150100189957"><ele>262.79999999999995</ele><time>2026-04-18T17:01:06Z</time></trkpt><trkpt lat="41.691282932950216" lon="13.296036831218972"><ele>263.4</ele><time>2026-04-18T17:01:07Z</time></trkpt><trkpt lat="41.69136049224075" lon="13.29589169277903"><ele>264.0</ele><time>2026-04-18T17:01:08Z</time></trkpt><trkpt lat="41.69142818115146" lon="13.295719404274188"><ele>263.75</ele><time>2026-04-18T17:01:09Z</time></trkpt><trkpt lat="41.69151644387175" lon="13.295556721268223"><ele>263.5</ele><time>2026-04-18T17:01:10Z</time></trkpt><trkpt lat="41.6916006859425" lon="13.295393145880286"><ele>263.25</ele><time>2026-04-18T17:01:11Z</time></trkpt><trkpt lat="41.69168161084191" lon="13.295236914463063"><ele>263.0</ele><time>2026-04-18T17:01:12Z</time></trkpt><trkpt lat="41.6917674513071" lon="13.295092031776276"><ele>263.0</ele><time>2026-04-18T17:01:13Z</time></trkpt><trkpt lat="41.69184134942364" lon="13.294944933939265"><ele>263.0</ele><time>2026-04-18T17:01:14Z</time></trkpt><trkpt lat="41.691882982332515" lon="13.294782797935442"><ele>263.0</ele><time>2026-04-18T17:01:15Z</time></trkpt><trkpt lat="41.69189725419838" lon="13.294615009122847"><ele>263.0</ele><time>2026-04-18T17:01:16Z</time></trkpt><trkpt lat="41.691918870253595" lon="13.294449535320563"><ele>264.0</ele><time>2026-04-18T17:01:17Z</time></trkpt><trkpt lat="41.69192740030251" lon="13.294289755737944"><ele>265.0</ele><time>2026-04-18T17:01:18Z</time></trkpt><trkpt lat="41.69193531780527" lon="13.294129243585159"><ele>266.0</ele><time>2026-04-18T17:01:19Z</time></trkpt><trkpt lat="41.691943257640574" lon="13.293968278681268"><ele>267.0</ele><time>2026-04-18T17:01:20Z</time></trkpt><trkpt lat="41.69194026723623" lon="13.293830344330894"><ele>267.6666666666667</ele><time>2026-04-18T17:01:21Z</time></trkpt><trkpt lat="41.69195207306237" lon="13.293714757931985"><ele>268.3333333333333</ele><time>2026-04-18T17:01:22Z</time></trkpt><trkpt lat="41.69195841279812" lon="13.293600621402094"><ele>269.0</ele><time>2026-04-18T17:01:23Z</time></trkpt><trkpt lat="41.691955205760486" lon="13.293486436065537"><ele>269.66666666666663</ele><time>2026-04-18T17:01:24Z</time></trkpt><trkpt lat="41.691962225003145" lon="13.293365283605738"><ele>270.3333333333333</ele><time>2026-04-18T17:01:25Z</time></trkpt><trkpt lat="41.69198490857551" lon="13.293243225299216"><ele>271.0</ele><time>2026-04-18T17:01:26Z</time></trkpt><trkpt lat="41.69202300521132" lon="13.293130576335706"><ele>271.0</ele><time>2026-04-18T17:01:27Z</time></trkpt><trkpt lat="41.69206763238416" lon="13.293019209117505"><ele>271.0</ele><time>2026-04-18T17:01:28Z</time></trkpt><trkpt lat="41.69211848177544" lon="13.29290870402633"><ele>271.0</ele><time>2026-04-18T17:01:29Z</time></trkpt><trkpt lat="41.69216973108005" lon="13.29279174797649"><ele>271.0</ele><time>2026-04-18T17:01:30Z</time></trkpt><trkpt lat="41.69222124925128" lon="13.292675517978564"><ele>271.0</ele><time>2026-04-18T17:01:31Z</time></trkpt><trkpt lat="41.69228457150992" lon="13.292572456359899"><ele>271.0</ele><time>2026-04-18T17:01:32Z</time></trkpt><trkpt lat="41.69235894882735" lon="13.292482087039993"><ele>271.0</ele><time>2026-04-18T17:01:33Z</time></trkpt><trkpt lat="41.692432034657664" lon="13.292387408392516"><ele>271.0</ele><time>2026-04-18T17:01:34Z</time></trkpt><trkpt lat="41.69249414081965" lon="13.29229358621636"><ele>271.0</ele><time>2026-04-18T17:01:35Z</time></trkpt><trkpt lat="41.692546944922455" lon="13.292190718290295"><ele>271.0</ele><time>2026-04-18T17:01:36Z</time></trkpt><trkpt lat="41.69258303418486" lon="13.292068792752444"><ele>270.6</ele><time>2026-04-18T17:01:37Z</time></trkpt><trkpt lat="41.69261435261263" lon="13.291933112272712"><ele>270.20000000000005</ele><time>2026-04-18T17:01:38Z</time></trkpt><trkpt lat="41.69264021287728" lon="13.291792072843513"><ele>269.79999999999995</ele><time>2026-04-18T17:01:39Z</time></trkpt><trkpt lat="41.69267170878672" lon="13.291649751399213"><ele>269.4</ele><time>2026-04-18T17:01:40Z</time></trkpt><trkpt lat="41.69270874625921" lon="13.291513305135163"><ele>269.0</ele><time>2026-04-18T17:01:41Z</time></trkpt><trkpt lat="41.692765708182016" lon="13.291388003311898"><ele>270.25</ele><time>2026-04-18T17:01:42Z</time></trkpt><trkpt lat="41.69280197262072" lon="13.291248998719219"><ele>271.5</ele><time>2026-04-18T17:01:43Z</time></trkpt><trkpt lat="41.69285213353661" lon="13.291112460924268"><ele>272.75</ele><time>2026-04-18T17:01:44Z</time></trkpt><trkpt lat="41.69290392060235" lon="13.29097741056942"><ele>274.0</ele><time>2026-04-18T17:01:45Z</time></trkpt><trkpt lat="41.6929562942565" lon="13.290839948368538"><ele>274.0</ele><time>2026-04-18T17:01:46Z</time></trkpt><trkpt lat="41.69300492544628" lon="13.290706025395856"><ele>274.0</ele><time>2026-04-18T17:01:47Z</time></trkpt><trkpt lat="41.693057223759006" lon="13.29057914431913"><ele>274.0</ele><time>2026-04-18T17:01:48Z</time></trkpt><trkpt lat="41.69311280366383" lon="13.290454521387362"><ele>274.0</ele><time>2026-04-18T17:01:49Z</time></trkpt><trkpt lat="41.69316043760927" lon="13.290326855521096"><ele>274.0</ele><time>2026-04-18T17:01:50Z</time></trkpt><trkpt lat="41.693209855101124" lon="13.290197702210452"><ele>272.5</ele><time>2026-04-18T17:01:51Z</time></trkpt><trkpt lat="41.69324702028099" lon="13.290058902168552"><ele>271.0</ele><time>2026-04-18T17:01:52Z</time></trkpt><trkpt lat="41.69326747830685" lon="13.289902822946834"><ele>269.5</ele><time>2026-04-18T17:01:53Z</time></trkpt><trkpt lat="41.69327254856412" lon="13.289745108771028"><ele>268.0</ele><time>2026-04-18T17:01:54Z</time></trkpt><trkpt lat="41.693277264519395" lon="13.289582491444612"><ele>267.0</ele><time>2026-04-18T17:01:55Z</time></trkpt><trkpt lat="41.69329095268439" lon="13.289411962168446"><ele>266.0</ele><time>2026-04-18T17:01:56Z</time></trkpt><trkpt lat="41.69332362311623" lon="13.289254737704939"><ele>265.0</ele><time>2026-04-18T17:01:57Z</time></trkpt><trkpt lat="41.69335488240653" lon="13.289090420180303"><ele>264.0</ele><time>2026-04-18T17:01:58Z</time></trkpt><trkpt lat="41.693379295499376" lon="13.28893137449128"><ele>263.5</ele><time>2026-04-18T17:01:59Z</time></trkpt><trkpt lat="41.69339198097759" lon="13.288764746933262"><ele>263.0</ele><time>2026-04-18T17:02:00Z</time></trkpt><trkpt lat="41.69340395633498" lon="13.288595694549945"><ele>262.5</ele><time>2026-04-18T17:02:01Z</time></trkpt><trkpt lat="41.69342043544819" lon="13.288425856882593"><ele>262.0</ele><time>2026-04-18T17:02:02Z</time></trkpt><trkpt lat="41.69343125169603" lon="13.28825621629457"><ele>262.0</ele><time>2026-04-18T17:02:03Z</time></trkpt><trkpt lat="41.69344221097483" lon="13.288084729696799"><ele>262.0</ele><time>2026-04-18T17:02:04Z</time></trkpt><trkpt lat="41.69346784952011" lon="13.287911318848906"><ele>262.0</ele><time>2026-04-18T17:02:05Z</time></trkpt><trkpt lat="41.6935065942245" lon="13.28773887485873"><ele>262.0</ele><time>2026-04-18T17:02:06Z</time></trkpt><trkpt lat="41.69354583458103" lon="13.287573084254149"><ele>262.0</ele><time>2026-04-18T17:02:07Z</time></trkpt><trkpt lat="41.69357581631971" lon="13.287429541400389"><ele>262.0</ele><time>2026-04-18T17:02:08Z</time></trkpt><trkpt lat="41.693602629351716" lon="13.287303770083122"><ele>262.0</ele><time>2026-04-18T17:02:09Z</time></trkpt><trkpt lat="41.69362715083141" lon="13.287202590658858"><ele>262.0</ele><time>2026-04-18T17:02:10Z</time></trkpt><trkpt lat="41.69364498808266" lon="13.28708315060707"><ele>262.0</ele><time>2026-04-18T17:02:12Z</time></trkpt><trkpt lat="41.69365770345197" lon="13.286981800566092"><ele>263.0</ele><time>2026-04-18T17:02:14Z</time></trkpt><trkpt lat="41.69366238124531" lon="13.28683148074138"><ele>264.0</ele><time>2026-04-18T17:02:16Z</time></trkpt><trkpt lat="41.6936650186992" lon="13.286732343137148"><ele>265.0</ele><time>2026-04-18T17:02:17Z</time></trkpt><trkpt lat="41.69367151118364" lon="13.286613365385186"><ele>266.0</ele><time>2026-04-18T17:02:18Z</time></trkpt><trkpt lat="41.693674831452206" lon="13.286470879251576"><ele>267.0</ele><time>2026-04-18T17:02:19Z</time></trkpt><trkpt lat="41.6936899636479" lon="13.286340377187987"><ele>267.0</ele><time>2026-04-18T17:02:20Z</time></trkpt><trkpt lat="41.693712816701186" lon="13.286198708101264"><ele>267.0</ele><time>2026-04-18T17:02:21Z</time></trkpt><trkpt lat="41.69375549409742" lon="13.286053259575707"><ele>267.0</ele><time>2026-04-18T17:02:22Z</time></trkpt><trkpt lat="41.69378946455824" lon="13.285901119587663"><ele>267.0</ele><time>2026-04-18T17:02:23Z</time></trkpt><trkpt lat="41.693802485981806" lon="13.285741992861572"><ele>266.75</ele><time>2026-04-18T17:02:24Z</time></trkpt><trkpt lat="41.69380097170726" lon="13.285567884351416"><ele>266.5</ele><time>2026-04-18T17:02:25Z</time></trkpt><trkpt lat="41.69377535851589" lon="13.285406267960644"><ele>266.25</ele><time>2026-04-18T17:02:26Z</time></trkpt><trkpt lat="41.69374339735185" lon="13.28525212825254"><ele>266.0</ele><time>2026-04-18T17:02:27Z</time></trkpt><trkpt lat="41.6937264914005" lon="13.285105060183616"><ele>266.0</ele><time>2026-04-18T17:02:28Z</time></trkpt><trkpt lat="41.69375241983326" lon="13.284960410160574"><ele>266.0</ele><time>2026-04-18T17:02:29Z</time></trkpt><trkpt lat="41.69380258661297" lon="13.284813640712382"><ele>266.0</ele><time>2026-04-18T17:02:30Z</time></trkpt><trkpt lat="41.69387010838506" lon="13.284661353903504"><ele>266.0</ele><time>2026-04-18T17:02:31Z</time></trkpt><trkpt lat="41.69393259350293" lon="13.28450763005727"><ele>266.75</ele><time>2026-04-18T17:02:32Z</time></trkpt><trkpt lat="41.694003635561984" lon="13.284350522784592"><ele>267.5</ele><time>2026-04-18T17:02:33Z</time></trkpt><trkpt lat="41.694067679490296" lon="13.28418735297725"><ele>268.25</ele><time>2026-04-18T17:02:34Z</time></trkpt><trkpt lat="41.69413417139443" lon="13.28402216168375"><ele>269.0</ele><time>2026-04-18T17:02:35Z</time></trkpt><trkpt lat="41.69419767836855" lon="13.283846926130431"><ele>269.6666666666667</ele><time>2026-04-18T17:02:36Z</time></trkpt><trkpt lat="41.694254585137884" lon="13.283660934317556"><ele>270.3333333333333</ele><time>2026-04-18T17:02:37Z</time></trkpt><trkpt lat="41.69430203333169" lon="13.283469218656718"><ele>271.0</ele><time>2026-04-18T17:02:38Z</time></trkpt><trkpt lat="41.69434187524469" lon="13.283276261791304"><ele>271.0</ele><time>2026-04-18T17:02:39Z</time></trkpt><trkpt lat="41.6943679168051" lon="13.283091321691675"><ele>271.0</ele><time>2026-04-18T17:02:40Z</time></trkpt><trkpt lat="41.69438106394339" lon="13.282904883918434"><ele>271.0</ele><time>2026-04-18T17:02:41Z</time></trkpt><trkpt lat="41.694383254467816" lon="13.282718790229564"><ele>271.0</ele><time>2026-04-18T17:02:42Z</time></trkpt><trkpt lat="41.69439148125165" lon="13.282533400391907"><ele>271.0</ele><time>2026-04-18T17:02:43Z</time></trkpt><trkpt lat="41.69440109397611" lon="13.28233886077516"><ele>271.0</ele><time>2026-04-18T17:02:44Z</time></trkpt><trkpt lat="41.69440961684466" lon="13.282133522866179"><ele>271.0</ele><time>2026-04-18T17:02:45Z</time></trkpt><trkpt lat="41.69442566251728" lon="13.281909864099175"><ele>271.66666666666663</ele><time>2026-04-18T17:02:46Z</time></trkpt><trkpt lat="41.694448019504456" lon="13.281667090643273"><ele>272.3333333333333</ele><time>2026-04-18T17:02:47Z</time></trkpt><trkpt lat="41.69448233288316" lon="13.281393160272131"><ele>273.0</ele><time>2026-04-18T17:02:48Z</time></trkpt><trkpt lat="41.69451788444753" lon="13.281103791221009"><ele>273.0</ele><time>2026-04-18T17:02:49Z</time></trkpt><trkpt lat="41.6945517339001" lon="13.280829939138618"><ele>273.0</ele><time>2026-04-18T17:02:50Z</time></trkpt><trkpt lat="41.69458528978743" lon="13.280562359489249"><ele>273.0</ele><time>2026-04-18T17:02:51Z</time></trkpt><trkpt lat="41.6946172710574" lon="13.280310972257356"><ele>272.6666666666667</ele><time>2026-04-18T17:02:52Z</time></trkpt><trkpt lat="41.69464664552119" lon="13.280073230841294"><ele>272.33333333333337</ele><time>2026-04-18T17:02:53Z</time></trkpt><trkpt lat="41.69467161679577" lon="13.279834168804289"><ele>272.0</ele><time>2026-04-18T17:02:54Z</time></trkpt><trkpt lat="41.694691573484675" lon="13.279599005260174"><ele>271.6666666666667</ele><time>2026-04-18T17:02:55Z</time></trkpt><trkpt lat="41.69470916987531" lon="13.279367422913348"><ele>271.3333333333333</ele><time>2026-04-18T17:02:56Z</time></trkpt><trkpt lat="41.69472436640639" lon="13.279145094611945"><ele>271.0</ele><time>2026-04-18T17:02:57Z</time></trkpt><trkpt lat="41.69474209883053" lon="13.278930475033384"><ele>270.75</ele><time>2026-04-18T17:02:58Z</time></trkpt><trkpt lat="41.69475881061745" lon="13.278724528008413"><ele>270.5</ele><time>2026-04-18T17:02:59Z</time></trkpt><trkpt lat="41.69477255897322" lon="13.278530178455531"><ele>270.25</ele><time>2026-04-18T17:03:00Z</time></trkpt><trkpt lat="41.694799229611135" lon="13.278341008119657"><ele>270.0</ele><time>2026-04-18T17:03:01Z</time></trkpt><trkpt lat="41.694843737696054" lon="13.278156650340327"><ele>269.75</ele><time>2026-04-18T17:03:02Z</time></trkpt><trkpt lat="41.694897792667454" lon="13.277975880385673"><ele>269.5</ele><time>2026-04-18T17:03:03Z</time></trkpt><trkpt lat="41.69495748497025" lon="13.27779745365675"><ele>269.25</ele><time>2026-04-18T17:03:04Z</time></trkpt><trkpt lat="41.6950178135684" lon="13.2776181517325"><ele>269.0</ele><time>2026-04-18T17:03:05Z</time></trkpt><trkpt lat="41.69508688414348" lon="13.27744995700624"><ele>269.0</ele><time>2026-04-18T17:03:06Z</time></trkpt><trkpt lat="41.69517127877737" lon="13.277295327013322"><ele>269.0</ele><time>2026-04-18T17:03:07Z</time></trkpt><trkpt lat="41.69526499681345" lon="13.277149741112591"><ele>269.0</ele><time>2026-04-18T17:03:08Z</time></trkpt><trkpt lat="41.695364209032306" lon="13.277018553348388"><ele>269.0</ele><time>2026-04-18T17:03:09Z</time></trkpt><trkpt lat="41.69547928465213" lon="13.276907719618356"><ele>268.75</ele><time>2026-04-18T17:03:10Z</time></trkpt><trkpt lat="41.69559609205884" lon="13.276818536719858"><ele>268.5</ele><time>2026-04-18T17:03:11Z</time></trkpt><trkpt lat="41.695715750081696" lon="13.276752509302739"><ele>268.25</ele><time>2026-04-18T17:03:12Z</time></trkpt><trkpt lat="41.695817591760154" lon="13.276697005074071"><ele>268.0</ele><time>2026-04-18T17:03:13Z</time></trkpt><trkpt lat="41.695899083348365" lon="13.276633295591743"><ele>268.0</ele><time>2026-04-18T17:03:14Z</time></trkpt><trkpt lat="41.69595287886628" lon="13.27654597541298"><ele>268.0</ele><time>2026-04-18T17:03:15Z</time></trkpt><trkpt lat="41.69596901617771" lon="13.276464272178908"><ele>268.0</ele><time>2026-04-18T17:03:16Z</time></trkpt><trkpt lat="41.696069202011635" lon="13.276516076380283"><ele>268.0</ele><time>2026-04-18T17:03:20Z</time></trkpt><trkpt lat="41.69616184142883" lon="13.276579107800496"><ele>268.0</ele><time>2026-04-18T17:03:22Z</time></trkpt><trkpt lat="41.69626427474693" lon="13.27664912654164"><ele>269.0</ele><time>2026-04-18T17:03:24Z</time></trkpt><trkpt lat="41.69632218616883" lon="13.276689066429359"><ele>270.0</ele><time>2026-04-18T17:03:25Z</time></trkpt><trkpt lat="41.69638305288037" lon="13.276731044495646"><ele>271.0</ele><time>2026-04-18T17:03:26Z</time></trkpt><trkpt lat="41.696442069817266" lon="13.276771531495525"><ele>272.0</ele><time>2026-04-18T17:03:27Z</time></trkpt><trkpt lat="41.69650082941713" lon="13.276810532479356"><ele>273.0</ele><time>2026-04-18T17:03:28Z</time></trkpt><trkpt lat="41.696558429578936" lon="13.276848763854995"><ele>274.0</ele><time>2026-04-18T17:03:29Z</time></trkpt><trkpt lat="41.696653089882446" lon="13.27693235404836"><ele>275.0</ele><time>2026-04-18T17:03:31Z</time></trkpt><trkpt lat="41.69671101564839" lon="13.277032190273468"><ele>275.0</ele><time>2026-04-18T17:03:33Z</time></trkpt><trkpt lat="41.696772109279756" lon="13.277153695725044"><ele>275.0</ele><time>2026-04-18T17:03:35Z</time></trkpt><trkpt lat="41.696806427276556" lon="13.27724889184121"><ele>275.0</ele><time>2026-04-18T17:03:37Z</time></trkpt><trkpt lat="41.69687987359846" lon="13.277312104078355"><ele>275.0</ele><time>2026-04-18T17:03:39Z</time></trkpt><trkpt lat="41.69694522936515" lon="13.277365794205842"><ele>275.0</ele><time>2026-04-18T17:03:42Z</time></trkpt><trkpt lat="41.697000198972034" lon="13.277414553313337"><ele>275.0</ele><time>2026-04-18T17:03:45Z</time></trkpt><trkpt lat="41.697068042458696" lon="13.277479463254924"><ele>275.0</ele><time>2026-04-18T17:03:48Z</time></trkpt><trkpt lat="41.69713215790284" lon="13.277541051158957"><ele>275.0</ele><time>2026-04-18T17:03:51Z</time></trkpt><trkpt lat="41.69707359590501" lon="13.277502074853516"><ele>275.0</ele><time>2026-04-18T17:05:09Z</time></trkpt><trkpt lat="41.697012572301375" lon="13.277441500017062"><ele>275.0</ele><time>2026-04-18T17:05:13Z</time></trkpt><trkpt lat="41.69693997716902" lon="13.277388933482495"><ele>275.0</ele><time>2026-04-18T17:05:17Z</time></trkpt><trkpt lat="41.69688802098383" lon="13.277336914710505"><ele>275.0</ele><time>2026-04-18T17:05:20Z</time></trkpt><trkpt lat="41.69682658178387" lon="13.27726780640608"><ele>275.0</ele><time>2026-04-18T17:05:23Z</time></trkpt><trkpt lat="41.696745381671946" lon="13.277084055061882"><ele>275.0</ele><time>2026-04-18T17:05:26Z</time></trkpt><trkpt lat="41.69659843682641" lon="13.27690241023663"><ele>275.0</ele><time>2026-04-18T17:05:29Z</time></trkpt><trkpt lat="41.69653579186969" lon="13.276860381610815"><ele>275.0</ele><time>2026-04-18T17:05:30Z</time></trkpt><trkpt lat="41.69646539703113" lon="13.276807531346565"><ele>275.0</ele><time>2026-04-18T17:05:31Z</time></trkpt><trkpt lat="41.69639257423201" lon="13.276754661147928"><ele>275.0</ele><time>2026-04-18T17:05:32Z</time></trkpt><trkpt lat="41.69632588375055" lon="13.276707601738053"><ele>275.0</ele><time>2026-04-18T17:05:33Z</time></trkpt><trkpt lat="41.69625939367867" lon="13.276663343674288"><ele>275.0</ele><time>2026-04-18T17:05:34Z</time></trkpt><trkpt lat="41.696194611291226" lon="13.276618024844318"><ele>275.0</ele><time>2026-04-18T17:05:35Z</time></trkpt><trkpt lat="41.696134240144275" lon="13.276571185851683"><ele>275.0</ele><time>2026-04-18T17:05:36Z</time></trkpt><trkpt lat="41.696040688685414" lon="13.276495096108516"><ele>275.0</ele><time>2026-04-18T17:05:38Z</time></trkpt><trkpt lat="41.69598157026907" lon="13.276459105591812"><ele>275.0</ele><time>2026-04-18T17:05:40Z</time></trkpt><trkpt lat="41.695923926580846" lon="13.276351095217612"><ele>274.0</ele><time>2026-04-18T17:05:42Z</time></trkpt><trkpt lat="41.695898341739344" lon="13.276162924713228"><ele>273.0</ele><time>2026-04-18T17:05:44Z</time></trkpt><trkpt lat="41.69587625546676" lon="13.276045814217799"><ele>272.0</ele><time>2026-04-18T17:05:45Z</time></trkpt><trkpt lat="41.695856060586976" lon="13.2759203732989"><ele>271.0</ele><time>2026-04-18T17:05:46Z</time></trkpt><trkpt lat="41.69583882615768" lon="13.275799364117756"><ele>270.0</ele><time>2026-04-18T17:05:47Z</time></trkpt><trkpt lat="41.69582447116436" lon="13.275678435594248"><ele>270.0</ele><time>2026-04-18T17:05:48Z</time></trkpt><trkpt lat="41.695811821804156" lon="13.275550293249646"><ele>270.0</ele><time>2026-04-18T17:05:49Z</time></trkpt><trkpt lat="41.69581238630758" lon="13.275423402563904"><ele>270.0</ele><time>2026-04-18T17:05:50Z</time></trkpt><trkpt lat="41.695824285469456" lon="13.275308208711303"><ele>270.0</ele><time>2026-04-18T17:05:51Z</time></trkpt><trkpt lat="41.695840872374795" lon="13.275192058837849"><ele>270.0</ele><time>2026-04-18T17:05:52Z</time></trkpt><trkpt lat="41.695859046420416" lon="13.275084714408617"><ele>270.0</ele><time>2026-04-18T17:05:53Z</time></trkpt><trkpt lat="41.69587604400063" lon="13.27497167036316"><ele>270.0</ele><time>2026-04-18T17:05:54Z</time></trkpt><trkpt lat="41.69590003711609" lon="13.27486473279623"><ele>270.0</ele><time>2026-04-18T17:05:55Z</time></trkpt><trkpt lat="41.695922712725284" lon="13.274760663352575"><ele>270.0</ele><time>2026-04-18T17:05:56Z</time></trkpt><trkpt lat="41.69594290399072" lon="13.274658887805089"><ele>270.0</ele><time>2026-04-18T17:05:57Z</time></trkpt><trkpt lat="41.69595775116752" lon="13.274553288865736"><ele>270.0</ele><time>2026-04-18T17:05:58Z</time></trkpt><trkpt lat="41.695964516225736" lon="13.27444411424117"><ele>270.0</ele><time>2026-04-18T17:05:59Z</time></trkpt><trkpt lat="41.69597197755215" lon="13.274331904536863"><ele>269.8</ele><time>2026-04-18T17:06:00Z</time></trkpt><trkpt lat="41.695983046298814" lon="13.274214066012922"><ele>269.6</ele><time>2026-04-18T17:06:01Z</time></trkpt><trkpt lat="41.69599562578541" lon="13.274090104370865"><ele>269.4</ele><time>2026-04-18T17:06:02Z</time></trkpt><trkpt lat="41.69600917236323" lon="13.273961228810135"><ele>269.2</ele><time>2026-04-18T17:06:03Z</time></trkpt><trkpt lat="41.69602139890661" lon="13.273825031264831"><ele>269.0</ele><time>2026-04-18T17:06:04Z</time></trkpt><trkpt lat="41.696036750362154" lon="13.273683705652159"><ele>269.0</ele><time>2026-04-18T17:06:05Z</time></trkpt><trkpt lat="41.69605531309867" lon="13.273541570259733"><ele>269.0</ele><time>2026-04-18T17:06:06Z</time></trkpt><trkpt lat="41.696074477912035" lon="13.2733974999324"><ele>269.0</ele><time>2026-04-18T17:06:07Z</time></trkpt><trkpt lat="41.69609511435968" lon="13.273250561920921"><ele>269.0</ele><time>2026-04-18T17:06:08Z</time></trkpt><trkpt lat="41.6961129727691" lon="13.27310765102043"><ele>269.0</ele><time>2026-04-18T17:06:09Z</time></trkpt><trkpt lat="41.69612016267476" lon="13.272970161753584"><ele>269.0</ele><time>2026-04-18T17:06:10Z</time></trkpt><trkpt lat="41.69611264019064" lon="13.272833416337093"><ele>269.0</ele><time>2026-04-18T17:06:11Z</time></trkpt><trkpt lat="41.69609110980218" lon="13.272697344243262"><ele>269.0</ele><time>2026-04-18T17:06:12Z</time></trkpt><trkpt lat="41.69606994915924" lon="13.272564795815889"><ele>269.0</ele><time>2026-04-18T17:06:13Z</time></trkpt><trkpt lat="41.696052034920164" lon="13.272437287364435"><ele>269.0</ele><time>2026-04-18T17:06:14Z</time></trkpt><trkpt lat="41.69603463147826" lon="13.27231497172735"><ele>269.33333333333337</ele><time>2026-04-18T17:06:15Z</time></trkpt><trkpt lat="41.69602165239086" lon="13.272196418688324"><ele>269.6666666666667</ele><time>2026-04-18T17:06:16Z</time></trkpt><trkpt lat="41.69601391330355" lon="13.272075975967894"><ele>270.0</ele><time>2026-04-18T17:06:17Z</time></trkpt><trkpt lat="41.696010772683515" lon="13.271952801006151"><ele>270.3333333333333</ele><time>2026-04-18T17:06:18Z</time></trkpt><trkpt lat="41.69601490632701" lon="13.271831007420246"><ele>270.66666666666663</ele><time>2026-04-18T17:06:19Z</time></trkpt><trkpt lat="41.69602165053594" lon="13.271715804684485"><ele>271.0</ele><time>2026-04-18T17:06:20Z</time></trkpt><trkpt lat="41.696031285831225" lon="13.271606680688661"><ele>271.0</ele><time>2026-04-18T17:06:21Z</time></trkpt><trkpt lat="41.696046055977995" lon="13.27149597517531"><ele>271.0</ele><time>2026-04-18T17:06:22Z</time></trkpt><trkpt lat="41.69607716313863" lon="13.27138741284517"><ele>271.0</ele><time>2026-04-18T17:06:23Z</time></trkpt><trkpt lat="41.6961121007616" lon="13.27128037061076"><ele>271.0</ele><time>2026-04-18T17:06:24Z</time></trkpt><trkpt lat="41.69615154165698" lon="13.271170235314221"><ele>271.0</ele><time>2026-04-18T17:06:25Z</time></trkpt><trkpt lat="41.69619463256437" lon="13.271061067032521"><ele>271.0</ele><time>2026-04-18T17:06:26Z</time></trkpt><trkpt lat="41.69624045543925" lon="13.270954822423109"><ele>272.2</ele><time>2026-04-18T17:06:27Z</time></trkpt><trkpt lat="41.69628619593636" lon="13.270845747521706"><ele>273.40000000000003</ele><time>2026-04-18T17:06:28Z</time></trkpt><trkpt lat="41.69633250847672" lon="13.270736488947012"><ele>274.6</ele><time>2026-04-18T17:06:29Z</time></trkpt><trkpt lat="41.6963781043693" lon="13.270626610725026"><ele>275.8</ele><time>2026-04-18T17:06:30Z</time></trkpt><trkpt lat="41.6964218974947" lon="13.270517435008273"><ele>277.0</ele><time>2026-04-18T17:06:31Z</time></trkpt><trkpt lat="41.696459183422846" lon="13.270399640971977"><ele>277.0</ele><time>2026-04-18T17:06:32Z</time></trkpt><trkpt lat="41.6964857289693" lon="13.270275641494242"><ele>277.0</ele><time>2026-04-18T17:06:33Z</time></trkpt><trkpt lat="41.696507209385516" lon="13.270149222838986"><ele>277.0</ele><time>2026-04-18T17:06:34Z</time></trkpt><trkpt lat="41.696525771817754" lon="13.27002195990943"><ele>277.0</ele><time>2026-04-18T17:06:35Z</time></trkpt><trkpt lat="41.69653915611531" lon="13.269902043774712"><ele>277.0</ele><time>2026-04-18T17:06:36Z</time></trkpt><trkpt lat="41.69654574801402" lon="13.269786960405838"><ele>276.42857142857144</ele><time>2026-04-18T17:06:37Z</time></trkpt><trkpt lat="41.69654776109495" lon="13.269680379936053"><ele>275.85714285714283</ele><time>2026-04-18T17:06:38Z</time></trkpt><trkpt lat="41.69654688202961" lon="13.269591634524248"><ele>275.2857142857143</ele><time>2026-04-18T17:06:39Z</time></trkpt><trkpt lat="41.69654753757026" lon="13.26950053216675"><ele>274.7142857142857</ele><time>2026-04-18T17:06:40Z</time></trkpt><trkpt lat="41.69655593001555" lon="13.269416382875676"><ele>274.1428571428571</ele><time>2026-04-18T17:06:41Z</time></trkpt><trkpt lat="41.69657016638568" lon="13.269328664603412"><ele>273.57142857142856</ele><time>2026-04-18T17:06:42Z</time></trkpt><trkpt lat="41.6965906950876" lon="13.269240938297578"><ele>273.0</ele><time>2026-04-18T17:06:43Z</time></trkpt><trkpt lat="41.696612666253166" lon="13.269151239661136"><ele>273.0</ele><time>2026-04-18T17:06:44Z</time></trkpt><trkpt lat="41.696636414971586" lon="13.26905769670051"><ele>273.0</ele><time>2026-04-18T17:06:45Z</time></trkpt><trkpt lat="41.696661554923274" lon="13.268961067884685"><ele>273.0</ele><time>2026-04-18T17:06:46Z</time></trkpt><trkpt lat="41.69668690430004" lon="13.26886403745132"><ele>273.0</ele><time>2026-04-18T17:06:47Z</time></trkpt><trkpt lat="41.696719571831714" lon="13.268768391816673"><ele>273.0</ele><time>2026-04-18T17:06:48Z</time></trkpt><trkpt lat="41.69675738429542" lon="13.268671152018113"><ele>273.0</ele><time>2026-04-18T17:06:49Z</time></trkpt><trkpt lat="41.69679927013446" lon="13.268577725542611"><ele>273.3333333333333</ele><time>2026-04-18T17:06:50Z</time></trkpt><trkpt lat="41.69683680692241" lon="13.268481506615274"><ele>273.6666666666667</ele><time>2026-04-18T17:06:51Z</time></trkpt><trkpt lat="41.69686696384979" lon="13.268390777871526"><ele>274.0</ele><time>2026-04-18T17:06:52Z</time></trkpt><trkpt lat="41.69688341631609" lon="13.26829380079577"><ele>274.33333333333337</ele><time>2026-04-18T17:06:53Z</time></trkpt><trkpt lat="41.69688949753044" lon="13.268200163002932"><ele>274.6666666666667</ele><time>2026-04-18T17:06:54Z</time></trkpt><trkpt lat="41.69688587967003" lon="13.268097959118066"><ele>275.0</ele><time>2026-04-18T17:06:55Z</time></trkpt><trkpt lat="41.696875994517455" lon="13.267993540407232"><ele>275.83333333333337</ele><time>2026-04-18T17:06:56Z</time></trkpt><trkpt lat="41.69685749081203" lon="13.26788642786391"><ele>276.6666666666667</ele><time>2026-04-18T17:06:57Z</time></trkpt><trkpt lat="41.69683277298536" lon="13.267777896184937"><ele>277.5</ele><time>2026-04-18T17:06:58Z</time></trkpt><trkpt lat="41.696805752391455" lon="13.267667105536635"><ele>278.3333333333333</ele><time>2026-04-18T17:06:59Z</time></trkpt><trkpt lat="41.696780053560566" lon="13.267558125854446"><ele>279.16666666666663</ele><time>2026-04-18T17:07:00Z</time></trkpt><trkpt lat="41.69675466186938" lon="13.267451544583528"><ele>280.0</ele><time>2026-04-18T17:07:01Z</time></trkpt><trkpt lat="41.696728467156014" lon="13.267344128432063"><ele>281.0</ele><time>2026-04-18T17:07:02Z</time></trkpt><trkpt lat="41.69670323507624" lon="13.26724014974696"><ele>282.0</ele><time>2026-04-18T17:07:03Z</time></trkpt><trkpt lat="41.69668241268738" lon="13.267132842303765"><ele>283.0</ele><time>2026-04-18T17:07:04Z</time></trkpt><trkpt lat="41.69666653059452" lon="13.26702685600714"><ele>284.0</ele><time>2026-04-18T17:07:05Z</time></trkpt><trkpt lat="41.696657648101905" lon="13.266918196255668"><ele>285.0</ele><time>2026-04-18T17:07:06Z</time></trkpt><trkpt lat="41.69665212975682" lon="13.266812709726876"><ele>286.0</ele><time>2026-04-18T17:07:07Z</time></trkpt><trkpt lat="41.69664531182472" lon="13.266709414679704"><ele>286.0</ele><time>2026-04-18T17:07:08Z</time></trkpt><trkpt lat="41.69664278064758" lon="13.266613605480131"><ele>286.0</ele><time>2026-04-18T17:07:09Z</time></trkpt><trkpt lat="41.69664384767621" lon="13.26652042927819"><ele>286.0</ele><time>2026-04-18T17:07:10Z</time></trkpt><trkpt lat="41.696642037413135" lon="13.266382950189971"><ele>286.0</ele><time>2026-04-18T17:07:12Z</time></trkpt><trkpt lat="41.6966325957879" lon="13.266289207008983"><ele>286.0</ele><time>2026-04-18T17:07:20Z</time></trkpt><trkpt lat="41.696560984504956" lon="13.266170877473034"><ele>286.0</ele><time>2026-04-18T17:07:22Z</time></trkpt><trkpt lat="41.6964627607636" lon="13.266170877477439"><ele>287.5</ele><time>2026-04-18T17:07:24Z</time></trkpt><trkpt lat="41.69639722572571" lon="13.26616927913249"><ele>289.0</ele><time>2026-04-18T17:07:25Z</time></trkpt><trkpt lat="41.696324922505774" lon="13.266150761046566"><ele>290.5</ele><time>2026-04-18T17:07:26Z</time></trkpt><trkpt lat="41.69624417920236" lon="13.26611921165391"><ele>292.0</ele><time>2026-04-18T17:07:27Z</time></trkpt><trkpt lat="41.6961623515013" lon="13.266064345925928"><ele>293.5</ele><time>2026-04-18T17:07:28Z</time></trkpt><trkpt lat="41.696080295560606" lon="13.266012768077848"><ele>295.0</ele><time>2026-04-18T17:07:29Z</time></trkpt><trkpt lat="41.69600944836774" lon="13.265952964028273"><ele>295.0</ele><time>2026-04-18T17:07:30Z</time></trkpt><trkpt lat="41.6959581090353" lon="13.26586698943424"><ele>295.0</ele><time>2026-04-18T17:07:31Z</time></trkpt><trkpt lat="41.695902897885176" lon="13.265786431870705"><ele>295.0</ele><time>2026-04-18T17:07:32Z</time></trkpt><trkpt lat="41.69584607308436" lon="13.265718146771569"><ele>295.0</ele><time>2026-04-18T17:07:33Z</time></trkpt><trkpt lat="41.69580174964643" lon="13.265629215937087"><ele>295.0</ele><time>2026-04-18T17:07:34Z</time></trkpt><trkpt lat="41.69576279012519" lon="13.2655380232429"><ele>295.0</ele><time>2026-04-18T17:07:35Z</time></trkpt><trkpt lat="41.695727088345606" lon="13.265442745248457"><ele>296.6</ele><time>2026-04-18T17:07:36Z</time></trkpt><trkpt lat="41.69569980153406" lon="13.265353181226159"><ele>298.2</ele><time>2026-04-18T17:07:37Z</time></trkpt><trkpt lat="41.69566558175081" lon="13.265197289885412"><ele>299.8</ele><time>2026-04-18T17:07:39Z</time></trkpt><trkpt lat="41.695639666704665" lon="13.265040940500379"><ele>301.4</ele><time>2026-04-18T17:07:41Z</time></trkpt><trkpt lat="41.69564383328659" lon="13.264955785990113"><ele>303.0</ele><time>2026-04-18T17:07:42Z</time></trkpt><trkpt lat="41.69562380460977" lon="13.264801567770904"><ele>304.3333333333333</ele><time>2026-04-18T17:07:44Z</time></trkpt><trkpt lat="41.695589457511424" lon="13.264725394194071"><ele>305.6666666666667</ele><time>2026-04-18T17:07:45Z</time></trkpt><trkpt lat="41.69557235874106" lon="13.264638618107098"><ele>307.0</ele><time>2026-04-18T17:07:46Z</time></trkpt><trkpt lat="41.6955413550619" lon="13.264546715081256"><ele>308.33333333333337</ele><time>2026-04-18T17:07:47Z</time></trkpt><trkpt lat="41.69549222240538" lon="13.264454612080694"><ele>309.6666666666667</ele><time>2026-04-18T17:07:48Z</time></trkpt><trkpt lat="41.69545224120475" lon="13.264340489544045"><ele>311.0</ele><time>2026-04-18T17:07:49Z</time></trkpt><trkpt lat="41.695396121194534" lon="13.264236584005435"><ele>311.0</ele><time>2026-04-18T17:07:50Z</time></trkpt><trkpt lat="41.6953432168768" lon="13.264122317269521"><ele>311.0</ele><time>2026-04-18T17:07:51Z</time></trkpt><trkpt lat="41.695288663876504" lon="13.263997670748743"><ele>311.0</ele><time>2026-04-18T17:07:52Z</time></trkpt><trkpt lat="41.695222392130574" lon="13.263877039037196"><ele>311.0</ele><time>2026-04-18T17:07:53Z</time></trkpt><trkpt lat="41.69517283874202" lon="13.26374366948495"><ele>311.0</ele><time>2026-04-18T17:07:54Z</time></trkpt><trkpt lat="41.69512125842367" lon="13.263614483004389"><ele>307.6</ele><time>2026-04-18T17:07:55Z</time></trkpt><trkpt lat="41.69506546101811" lon="13.263490814927517"><ele>304.20000000000005</ele><time>2026-04-18T17:07:56Z</time></trkpt><trkpt lat="41.69502668699629" lon="13.263361734122299"><ele>300.79999999999995</ele><time>2026-04-18T17:07:57Z</time></trkpt><trkpt lat="41.69497032848217" lon="13.263235338088553"><ele>297.4</ele><time>2026-04-18T17:07:58Z</time></trkpt><trkpt lat="41.69490724302349" lon="13.263106888034992"><ele>294.0</ele><time>2026-04-18T17:07:59Z</time></trkpt><trkpt lat="41.694841036361886" lon="13.262983649895231"><ele>294.0</ele><time>2026-04-18T17:08:00Z</time></trkpt><trkpt lat="41.6947705137295" lon="13.26287307118696"><ele>294.0</ele><time>2026-04-18T17:08:01Z</time></trkpt><trkpt lat="41.69469135623542" lon="13.262787769263552"><ele>294.0</ele><time>2026-04-18T17:08:02Z</time></trkpt><trkpt lat="41.69463114861688" lon="13.262681821640435"><ele>294.0</ele><time>2026-04-18T17:08:03Z</time></trkpt><trkpt lat="41.694560744958636" lon="13.262593150700436"><ele>294.0</ele><time>2026-04-18T17:08:04Z</time></trkpt><trkpt lat="41.69448198889682" lon="13.26251508710104"><ele>290.4</ele><time>2026-04-18T17:08:05Z</time></trkpt><trkpt lat="41.694394745598345" lon="13.262454373496796"><ele>286.79999999999995</ele><time>2026-04-18T17:08:06Z</time></trkpt><trkpt lat="41.69429703078142" lon="13.262427881099406"><ele>283.20000000000005</ele><time>2026-04-18T17:08:07Z</time></trkpt><trkpt lat="41.69419738985185" lon="13.26243323020488"><ele>279.6</ele><time>2026-04-18T17:08:08Z</time></trkpt><trkpt lat="41.69409322494272" lon="13.262461138545623"><ele>276.0</ele><time>2026-04-18T17:08:09Z</time></trkpt><trkpt lat="41.693987169832255" lon="13.262477619333325"><ele>276.0</ele><time>2026-04-18T17:08:10Z</time></trkpt><trkpt lat="41.69387878549291" lon="13.262488234392787"><ele>276.0</ele><time>2026-04-18T17:08:11Z</time></trkpt><trkpt lat="41.69376651583638" lon="13.262496169398332"><ele>276.0</ele><time>2026-04-18T17:08:12Z</time></trkpt><trkpt lat="41.69365311589268" lon="13.262503893500229"><ele>276.0</ele><time>2026-04-18T17:08:13Z</time></trkpt><trkpt lat="41.693538990446335" lon="13.262515643341183"><ele>276.0</ele><time>2026-04-18T17:08:14Z</time></trkpt><trkpt lat="41.69342967252463" lon="13.262554749299301"><ele>273.2</ele><time>2026-04-18T17:08:15Z</time></trkpt><trkpt lat="41.69332246339697" lon="13.262577909490904"><ele>270.40000000000003</ele><time>2026-04-18T17:08:16Z</time></trkpt><trkpt lat="41.69321521548821" lon="13.262599576038145"><ele>267.6</ele><time>2026-04-18T17:08:17Z</time></trkpt><trkpt lat="41.69312788069993" lon="13.262684740608076"><ele>264.8</ele><time>2026-04-18T17:08:18Z</time></trkpt><trkpt lat="41.69303620573273" lon="13.262753857406082"><ele>262.0</ele><time>2026-04-18T17:08:19Z</time></trkpt><trkpt lat="41.692961573963125" lon="13.262842488848506"><ele>262.0</ele><time>2026-04-18T17:08:20Z</time></trkpt><trkpt lat="41.692907370341274" lon="13.262948268363086"><ele>262.0</ele><time>2026-04-18T17:08:21Z</time></trkpt><trkpt lat="41.692844228046674" lon="13.263019899842229"><ele>262.0</ele><time>2026-04-18T17:08:22Z</time></trkpt><trkpt lat="41.69276919204369" lon="13.263071325333318"><ele>262.0</ele><time>2026-04-18T17:08:23Z</time></trkpt><trkpt lat="41.692684633585614" lon="13.263099263607238"><ele>262.0</ele><time>2026-04-18T17:08:24Z</time></trkpt><trkpt lat="41.69259695139693" lon="13.263112360920735"><ele>262.0</ele><time>2026-04-18T17:08:25Z</time></trkpt><trkpt lat="41.692503112665925" lon="13.263130588475702"><ele>260.4</ele><time>2026-04-18T17:08:26Z</time></trkpt><trkpt lat="41.692408104012166" lon="13.263174732800769"><ele>258.79999999999995</ele><time>2026-04-18T17:08:27Z</time></trkpt><trkpt lat="41.69231567362623" lon="13.263235085614214"><ele>257.2</ele><time>2026-04-18T17:08:28Z</time></trkpt><trkpt lat="41.69222787810227" lon="13.2632990837079"><ele>255.6</ele><time>2026-04-18T17:08:29Z</time></trkpt><trkpt lat="41.69214283604499" lon="13.263363803222934"><ele>254.0</ele><time>2026-04-18T17:08:30Z</time></trkpt><trkpt lat="41.69206196233338" lon="13.263430724584989"><ele>254.0</ele><time>2026-04-18T17:08:31Z</time></trkpt><trkpt lat="41.69197785403062" lon="13.263497804969568"><ele>253.99999999999997</ele><time>2026-04-18T17:08:32Z</time></trkpt><trkpt lat="41.69188561511462" lon="13.263564271320051"><ele>253.99999999999997</ele><time>2026-04-18T17:08:33Z</time></trkpt><trkpt lat="41.69178303570479" lon="13.263628452696421"><ele>254.0</ele><time>2026-04-18T17:08:34Z</time></trkpt><trkpt lat="41.691683961039345" lon="13.263700564609474"><ele>254.0</ele><time>2026-04-18T17:08:35Z</time></trkpt><trkpt lat="41.69158097220277" lon="13.263778193008335"><ele>252.5</ele><time>2026-04-18T17:08:36Z</time></trkpt><trkpt lat="41.69148239300237" lon="13.263852481721432"><ele>251.0</ele><time>2026-04-18T17:08:37Z</time></trkpt><trkpt lat="41.69138278257547" lon="13.263918607304856"><ele>249.5</ele><time>2026-04-18T17:08:38Z</time></trkpt><trkpt lat="41.6912800838331" lon="13.263985860882057"><ele>248.0</ele><time>2026-04-18T17:08:39Z</time></trkpt><trkpt lat="41.6911783352988" lon="13.264053718621952"><ele>247.2</ele><time>2026-04-18T17:08:40Z</time></trkpt><trkpt lat="41.691075729111304" lon="13.264114918518292"><ele>246.4</ele><time>2026-04-18T17:08:41Z</time></trkpt><trkpt lat="41.690972730829664" lon="13.264170108200371"><ele>245.59999999999997</ele><time>2026-04-18T17:08:42Z</time></trkpt><trkpt lat="41.69086769759335" lon="13.264220340324139"><ele>244.79999999999998</ele><time>2026-04-18T17:08:43Z</time></trkpt><trkpt lat="41.690760351259875" lon="13.264258628031797"><ele>244.0</ele><time>2026-04-18T17:08:44Z</time></trkpt><trkpt lat="41.690651085891496" lon="13.264264688722696"><ele>244.0</ele><time>2026-04-18T17:08:45Z</time></trkpt><trkpt lat="41.690544131327016" lon="13.264291325656169"><ele>243.99999999999997</ele><time>2026-04-18T17:08:46Z</time></trkpt><trkpt lat="41.69043816316667" lon="13.264327340664831"><ele>243.99999999999997</ele><time>2026-04-18T17:08:47Z</time></trkpt><trkpt lat="41.6903394562305" lon="13.264375298282975"><ele>244.0</ele><time>2026-04-18T17:08:48Z</time></trkpt><trkpt lat="41.69025331875119" lon="13.2644482928122"><ele>244.0</ele><time>2026-04-18T17:08:49Z</time></trkpt><trkpt lat="41.69015984146031" lon="13.264478569083142"><ele>243.33333333333331</ele><time>2026-04-18T17:08:50Z</time></trkpt><trkpt lat="41.690073384531765" lon="13.264515168905614"><ele>242.66666666666666</ele><time>2026-04-18T17:08:51Z</time></trkpt><trkpt lat="41.689983320196724" lon="13.264535751926536"><ele>242.0</ele><time>2026-04-18T17:08:52Z</time></trkpt><trkpt lat="41.689897385998805" lon="13.264557338601742"><ele>241.33333333333331</ele><time>2026-04-18T17:08:53Z</time></trkpt><trkpt lat="41.68981721501487" lon="13.264579819409786"><ele>240.66666666666666</ele><time>2026-04-18T17:08:54Z</time></trkpt><trkpt lat="41.689739359323895" lon="13.264607515736323"><ele>240.0</ele><time>2026-04-18T17:08:55Z</time></trkpt><trkpt lat="41.68966466005927" lon="13.264636665885195"><ele>240.0</ele><time>2026-04-18T17:08:56Z</time></trkpt><trkpt lat="41.68959058038489" lon="13.264668697457745"><ele>240.0</ele><time>2026-04-18T17:08:57Z</time></trkpt><trkpt lat="41.68951072855478" lon="13.264698324056182"><ele>240.0</ele><time>2026-04-18T17:08:58Z</time></trkpt><trkpt lat="41.68942412101105" lon="13.26473319366814"><ele>240.0</ele><time>2026-04-18T17:08:59Z</time></trkpt><trkpt lat="41.689330994283544" lon="13.264771668366953"><ele>240.0</ele><time>2026-04-18T17:09:00Z</time></trkpt><trkpt lat="41.68923203344489" lon="13.264816178529879"><ele>240.0</ele><time>2026-04-18T17:09:01Z</time></trkpt><trkpt lat="41.68912719247068" lon="13.264859816453859"><ele>240.0</ele><time>2026-04-18T17:09:02Z</time></trkpt><trkpt lat="41.68901808379292" lon="13.264907899351588"><ele>240.0</ele><time>2026-04-18T17:09:03Z</time></trkpt><trkpt lat="41.68890629443198" lon="13.26496246603326"><ele>240.0</ele><time>2026-04-18T17:09:04Z</time></trkpt><trkpt lat="41.68879238184733" lon="13.265016947539394"><ele>240.0</ele><time>2026-04-18T17:09:05Z</time></trkpt><trkpt lat="41.688682708299474" lon="13.265069915440739"><ele>240.0</ele><time>2026-04-18T17:09:06Z</time></trkpt><trkpt lat="41.68857644634958" lon="13.265120146098544"><ele>240.0</ele><time>2026-04-18T17:09:07Z</time></trkpt><trkpt lat="41.688472666727776" lon="13.265169113777603"><ele>240.0</ele><time>2026-04-18T17:09:08Z</time></trkpt><trkpt lat="41.68837127947766" lon="13.265217873026462"><ele>240.0</ele><time>2026-04-18T17:09:09Z</time></trkpt><trkpt lat="41.68827364235789" lon="13.265265920522515"><ele>239.6</ele><time>2026-04-18T17:09:10Z</time></trkpt><trkpt lat="41.688181351619484" lon="13.265321867407316"><ele>239.2</ele><time>2026-04-18T17:09:11Z</time></trkpt><trkpt lat="41.68809005448344" lon="13.265367436243414"><ele>238.8</ele><time>2026-04-18T17:09:12Z</time></trkpt><trkpt lat="41.6879997328363" lon="13.265403531334712"><ele>238.4</ele><time>2026-04-18T17:09:13Z</time></trkpt><trkpt lat="41.68790312161185" lon="13.26543577852833"><ele>238.0</ele><time>2026-04-18T17:09:14Z</time></trkpt><trkpt lat="41.687803003323715" lon="13.26546626118455"><ele>237.8</ele><time>2026-04-18T17:09:15Z</time></trkpt><trkpt lat="41.68770042198496" lon="13.265500757546555"><ele>237.60000000000002</ele><time>2026-04-18T17:09:16Z</time></trkpt><trkpt lat="41.68759488889309" lon="13.265530896818072"><ele>237.39999999999998</ele><time>2026-04-18T17:09:17Z</time></trkpt><trkpt lat="41.68749209504693" lon="13.265559730638005"><ele>237.2</ele><time>2026-04-18T17:09:18Z</time></trkpt><trkpt lat="41.68739079147231" lon="13.265586645824245"><ele>237.0</ele><time>2026-04-18T17:09:19Z</time></trkpt><trkpt lat="41.68729638946634" lon="13.265612539607995"><ele>237.0</ele><time>2026-04-18T17:09:20Z</time></trkpt><trkpt lat="41.68721133679097" lon="13.265635940165577"><ele>237.0</ele><time>2026-04-18T17:09:21Z</time></trkpt><trkpt lat="41.687142070068404" lon="13.265656309655068"><ele>237.0</ele><time>2026-04-18T17:09:22Z</time></trkpt><trkpt lat="41.68704574020725" lon="13.265677757717162"><ele>237.0</ele><time>2026-04-18T17:09:24Z</time></trkpt><trkpt lat="41.68697351638474" lon="13.26566821038291"><ele>237.0</ele><time>2026-04-18T17:09:26Z</time></trkpt><trkpt lat="41.686889171844356" lon="13.265621693777858"><ele>237.0</ele><time>2026-04-18T17:09:29Z</time></trkpt><trkpt lat="41.68682350261744" lon="13.265593384288046"><ele>237.0</ele><time>2026-04-18T17:09:33Z</time></trkpt><trkpt lat="41.68673096280762" lon="13.265687269256768"><ele>237.0</ele><time>2026-04-18T17:09:36Z</time></trkpt><trkpt lat="41.68659490037703" lon="13.265708164978003"><ele>237.0</ele><time>2026-04-18T17:09:38Z</time></trkpt><trkpt lat="41.68650668106072" lon="13.265619720351895"><ele>237.0</ele><time>2026-04-18T17:09:40Z</time></trkpt><trkpt lat="41.6864897943335" lon="13.265518698162174"><ele>237.0</ele><time>2026-04-18T17:09:41Z</time></trkpt><trkpt lat="41.686461041977005" lon="13.265415878114343"><ele>237.0</ele><time>2026-04-18T17:09:42Z</time></trkpt><trkpt lat="41.68646833129403" lon="13.26527131097673"><ele>237.0</ele><time>2026-04-18T17:09:43Z</time></trkpt><trkpt lat="41.686458557813076" lon="13.26512750530277"><ele>237.0</ele><time>2026-04-18T17:09:44Z</time></trkpt><trkpt lat="41.686448653069654" lon="13.264981388426957"><ele>237.0</ele><time>2026-04-18T17:09:45Z</time></trkpt><trkpt lat="41.6864370313024" lon="13.264822238644605"><ele>237.0</ele><time>2026-04-18T17:09:46Z</time></trkpt><trkpt lat="41.68642486952702" lon="13.264670134481765"><ele>237.0</ele><time>2026-04-18T17:09:47Z</time></trkpt><trkpt lat="41.68641393470364" lon="13.264483857735113"><ele>237.0</ele><time>2026-04-18T17:09:48Z</time></trkpt><trkpt lat="41.686395328479634" lon="13.264292966807151"><ele>237.0</ele><time>2026-04-18T17:09:49Z</time></trkpt><trkpt lat="41.686379102062816" lon="13.264101823644369"><ele>237.0</ele><time>2026-04-18T17:09:50Z</time></trkpt><trkpt lat="41.68635876731068" lon="13.26390225900651"><ele>236.33333333333331</ele><time>2026-04-18T17:09:51Z</time></trkpt><trkpt lat="41.6863399490379" lon="13.263699327477914"><ele>235.66666666666666</ele><time>2026-04-18T17:09:52Z</time></trkpt><trkpt lat="41.68632068343397" lon="13.263493474111229"><ele>235.0</ele><time>2026-04-18T17:09:53Z</time></trkpt><trkpt lat="41.68630722955233" lon="13.263283014684493"><ele>235.0</ele><time>2026-04-18T17:09:54Z</time></trkpt><trkpt lat="41.68629138028382" lon="13.263061046324053"><ele>235.0</ele><time>2026-04-18T17:09:55Z</time></trkpt><trkpt lat="41.68627613143727" lon="13.262846078348721"><ele>235.0</ele><time>2026-04-18T17:09:56Z</time></trkpt><trkpt lat="41.68626056879142" lon="13.262619287493402"><ele>235.0</ele><time>2026-04-18T17:09:57Z</time></trkpt><trkpt lat="41.6862342039831" lon="13.262402402938822"><ele>235.0</ele><time>2026-04-18T17:09:58Z</time></trkpt><trkpt lat="41.686217472921676" lon="13.262169711356075"><ele>235.0</ele><time>2026-04-18T17:09:59Z</time></trkpt><trkpt lat="41.68620492825712" lon="13.26195039756384"><ele>234.66666666666666</ele><time>2026-04-18T17:10:00Z</time></trkpt><trkpt lat="41.68619508319748" lon="13.26173059798325"><ele>234.33333333333331</ele><time>2026-04-18T17:10:01Z</time></trkpt><trkpt lat="41.68617066683163" lon="13.261486131561478"><ele>234.0</ele><time>2026-04-18T17:10:02Z</time></trkpt><trkpt lat="41.686157879971724" lon="13.261227345911763"><ele>234.0</ele><time>2026-04-18T17:10:03Z</time></trkpt><trkpt lat="41.68613548504325" lon="13.260968494412086"><ele>234.0</ele><time>2026-04-18T17:10:04Z</time></trkpt><trkpt lat="41.68611503466416" lon="13.260709892650228"><ele>234.0</ele><time>2026-04-18T17:10:05Z</time></trkpt><trkpt lat="41.68609728037397" lon="13.260448935853605"><ele>234.0</ele><time>2026-04-18T17:10:06Z</time></trkpt><trkpt lat="41.686073120017056" lon="13.260185340411896"><ele>234.0</ele><time>2026-04-18T17:10:07Z</time></trkpt><trkpt lat="41.68605285961082" lon="13.259913730991853"><ele>234.0</ele><time>2026-04-18T17:10:08Z</time></trkpt><trkpt lat="41.68602471859255" lon="13.259654296691057"><ele>234.0</ele><time>2026-04-18T17:10:09Z</time></trkpt><trkpt lat="41.685998909812845" lon="13.259389156266748"><ele>234.0</ele><time>2026-04-18T17:10:10Z</time></trkpt><trkpt lat="41.68597909689455" lon="13.259123545855674"><ele>234.0</ele><time>2026-04-18T17:10:11Z</time></trkpt><trkpt lat="41.685961816051886" lon="13.258862400526993"><ele>234.0</ele><time>2026-04-18T17:10:12Z</time></trkpt><trkpt lat="41.685941423629885" lon="13.258602314678445"><ele>234.0</ele><time>2026-04-18T17:10:13Z</time></trkpt><trkpt lat="41.68592067604542" lon="13.258346060457583"><ele>234.0</ele><time>2026-04-18T17:10:14Z</time></trkpt><trkpt lat="41.68589668789927" lon="13.258090474942707"><ele>236.0</ele><time>2026-04-18T17:10:15Z</time></trkpt><trkpt lat="41.68587252752673" lon="13.257837442995088"><ele>238.0</ele><time>2026-04-18T17:10:16Z</time></trkpt><trkpt lat="41.685850302908015" lon="13.257584456716277"><ele>240.0</ele><time>2026-04-18T17:10:17Z</time></trkpt><trkpt lat="41.68582927583519" lon="13.25733159891481"><ele>241.33333333333331</ele><time>2026-04-18T17:10:18Z</time></trkpt><trkpt lat="41.68580846919559" lon="13.257078178827307"><ele>242.66666666666666</ele><time>2026-04-18T17:10:19Z</time></trkpt><trkpt lat="41.6857884870947" lon="13.256827173197362"><ele>244.0</ele><time>2026-04-18T17:10:20Z</time></trkpt><trkpt lat="41.685768553188375" lon="13.256576075745672"><ele>244.66666666666666</ele><time>2026-04-18T17:10:21Z</time></trkpt><trkpt lat="41.68575600458448" lon="13.256329917797036"><ele>245.33333333333331</ele><time>2026-04-18T17:10:22Z</time></trkpt><trkpt lat="41.68575154304834" lon="13.25609865748983"><ele>246.0</ele><time>2026-04-18T17:10:23Z</time></trkpt><trkpt lat="41.68575899284679" lon="13.255874311829295"><ele>246.0</ele><time>2026-04-18T17:10:24Z</time></trkpt><trkpt lat="41.68579256729422" lon="13.25565065049329"><ele>246.0</ele><time>2026-04-18T17:10:25Z</time></trkpt><trkpt lat="41.68580829335934" lon="13.255445181055071"><ele>246.0</ele><time>2026-04-18T17:10:26Z</time></trkpt><trkpt lat="41.68583804160564" lon="13.255283443069839"><ele>246.0</ele><time>2026-04-18T17:10:27Z</time></trkpt><trkpt lat="41.68585653120111" lon="13.25514292037822"><ele>245.5</ele><time>2026-04-18T17:10:28Z</time></trkpt><trkpt lat="41.68587240960642" lon="13.25502414608059"><ele>245.0</ele><time>2026-04-18T17:10:29Z</time></trkpt><trkpt lat="41.685888342020235" lon="13.254932691562463"><ele>244.5</ele><time>2026-04-18T17:10:30Z</time></trkpt><trkpt lat="41.68592782500227" lon="13.254776818292155"><ele>244.0</ele><time>2026-04-18T17:10:32Z</time></trkpt><trkpt lat="41.685958173962725" lon="13.25470136215295"><ele>243.5</ele><time>2026-04-18T17:10:33Z</time></trkpt><trkpt lat="41.6859870230854" lon="13.254626166985316"><ele>243.0</ele><time>2026-04-18T17:10:34Z</time></trkpt><trkpt lat="41.68599717402723" lon="13.25447922950272"><ele>243.0</ele><time>2026-04-18T17:10:36Z</time></trkpt><trkpt lat="41.685909268826165" lon="13.254369410037485"><ele>243.0</ele><time>2026-04-18T17:10:38Z</time></trkpt><trkpt lat="41.68584676212531" lon="13.25434745804174"><ele>243.0</ele><time>2026-04-18T17:10:39Z</time></trkpt><trkpt lat="41.68572669376556" lon="13.254419320633474"><ele>243.0</ele><time>2026-04-18T17:10:41Z</time></trkpt><trkpt lat="41.685674044458594" lon="13.254510712382507"><ele>243.0</ele><time>2026-04-18T17:10:42Z</time></trkpt><trkpt lat="41.68561363016236" lon="13.25461678224266"><ele>243.0</ele><time>2026-04-18T17:10:43Z</time></trkpt><trkpt lat="41.685557125369165" lon="13.25476750717984"><ele>243.0</ele><time>2026-04-18T17:10:44Z</time></trkpt><trkpt lat="41.685518762617626" lon="13.254964569303072"><ele>243.0</ele><time>2026-04-18T17:10:45Z</time></trkpt><trkpt lat="41.685496327750094" lon="13.25515464075839"><ele>243.0</ele><time>2026-04-18T17:10:46Z</time></trkpt><trkpt lat="41.685469095311696" lon="13.255357043152873"><ele>242.75</ele><time>2026-04-18T17:10:47Z</time></trkpt><trkpt lat="41.685444869034676" lon="13.25555894304834"><ele>242.5</ele><time>2026-04-18T17:10:48Z</time></trkpt><trkpt lat="41.68542718535269" lon="13.255748230771326"><ele>242.25</ele><time>2026-04-18T17:10:49Z</time></trkpt><trkpt lat="41.6854092159236" lon="13.255917777792808"><ele>242.0</ele><time>2026-04-18T17:10:50Z</time></trkpt><trkpt lat="41.685385094922914" lon="13.25606481118861"><ele>242.6</ele><time>2026-04-18T17:10:51Z</time></trkpt><trkpt lat="41.68536261401638" lon="13.256182778165"><ele>243.2</ele><time>2026-04-18T17:10:52Z</time></trkpt><trkpt lat="41.68533876224331" lon="13.256265084246325"><ele>243.8</ele><time>2026-04-18T17:10:53Z</time></trkpt><trkpt lat="41.68533827168127" lon="13.256382809326691"><ele>244.4</ele><time>2026-04-18T17:10:56Z</time></trkpt><trkpt lat="41.68522138600243" lon="13.256433763671845"><ele>245.0</ele><time>2026-04-18T17:10:57Z</time></trkpt><trkpt lat="41.685143351633066" lon="13.256489142635957"><ele>245.0</ele><time>2026-04-18T17:10:58Z</time></trkpt><trkpt lat="41.685036470194845" lon="13.256553526116804"><ele>245.0</ele><time>2026-04-18T17:10:59Z</time></trkpt><trkpt lat="41.68492931628789" lon="13.256610911312231"><ele>245.0</ele><time>2026-04-18T17:11:00Z</time></trkpt><trkpt lat="41.68480974742856" lon="13.256663670689681"><ele>245.0</ele><time>2026-04-18T17:11:01Z</time></trkpt><trkpt lat="41.68468017594626" lon="13.256710494024068"><ele>245.0</ele><time>2026-04-18T17:11:02Z</time></trkpt><trkpt lat="41.684532037676284" lon="13.256752186072097"><ele>245.0</ele><time>2026-04-18T17:11:03Z</time></trkpt><trkpt lat="41.684380913738785" lon="13.25678588177395"><ele>245.0</ele><time>2026-04-18T17:11:04Z</time></trkpt><trkpt lat="41.684202214354066" lon="13.256825721983482"><ele>245.33333333333334</ele><time>2026-04-18T17:11:05Z</time></trkpt><trkpt lat="41.68401941868334" lon="13.256856598649787"><ele>245.66666666666669</ele><time>2026-04-18T17:11:06Z</time></trkpt><trkpt lat="41.68384178014282" lon="13.256857822643047"><ele>246.0</ele><time>2026-04-18T17:11:07Z</time></trkpt><trkpt lat="41.68364905417117" lon="13.256824299672507"><ele>243.33333333333331</ele><time>2026-04-18T17:11:08Z</time></trkpt><trkpt lat="41.683443847917005" lon="13.25676245530087"><ele>240.66666666666666</ele><time>2026-04-18T17:11:09Z</time></trkpt><trkpt lat="41.683228621271724" lon="13.256688063213188"><ele>238.0</ele><time>2026-04-18T17:11:10Z</time></trkpt><trkpt lat="41.6830187761066" lon="13.256613663436841"><ele>238.0</ele><time>2026-04-18T17:11:11Z</time></trkpt><trkpt lat="41.682811010942615" lon="13.256540360340336"><ele>238.0</ele><time>2026-04-18T17:11:12Z</time></trkpt><trkpt lat="41.68260285232995" lon="13.256474099121398"><ele>238.0</ele><time>2026-04-18T17:11:13Z</time></trkpt><trkpt lat="41.68240269692332" lon="13.256417563951537"><ele>237.0</ele><time>2026-04-18T17:11:14Z</time></trkpt><trkpt lat="41.68220164692225" lon="13.25635884109239"><ele>236.0</ele><time>2026-04-18T17:11:15Z</time></trkpt><trkpt lat="41.682000160877145" lon="13.256305591003276"><ele>235.0</ele><time>2026-04-18T17:11:16Z</time></trkpt><trkpt lat="41.681800476842604" lon="13.256251697483426"><ele>233.66666666666666</ele><time>2026-04-18T17:11:17Z</time></trkpt><trkpt lat="41.68158695920847" lon="13.256195471684437"><ele>232.33333333333331</ele><time>2026-04-18T17:11:18Z</time></trkpt><trkpt lat="41.68139727044725" lon="13.256145022881038"><ele>231.0</ele><time>2026-04-18T17:11:19Z</time></trkpt><trkpt lat="41.68120653619369" lon="13.256094705860848"><ele>231.0</ele><time>2026-04-18T17:11:20Z</time></trkpt><trkpt lat="41.68101259959012" lon="13.256046638607666"><ele>231.0</ele><time>2026-04-18T17:11:21Z</time></trkpt><trkpt lat="41.68082561778445" lon="13.25600780507067"><ele>231.0</ele><time>2026-04-18T17:11:22Z</time></trkpt><trkpt lat="41.68064009883079" lon="13.256003467413892"><ele>231.0</ele><time>2026-04-18T17:11:23Z</time></trkpt><trkpt lat="41.68045354780908" lon="13.256039923274189"><ele>231.0</ele><time>2026-04-18T17:11:24Z</time></trkpt><trkpt lat="41.680271306071795" lon="13.256122892621464"><ele>231.0</ele><time>2026-04-18T17:11:25Z</time></trkpt><trkpt lat="41.680091831729285" lon="13.256238558962641"><ele>230.66666666666669</ele><time>2026-04-18T17:11:26Z</time></trkpt><trkpt lat="41.67990523142294" lon="13.256358851054545"><ele>230.33333333333334</ele><time>2026-04-18T17:11:27Z</time></trkpt><trkpt lat="41.67972149159307" lon="13.256479440646157"><ele>230.0</ele><time>2026-04-18T17:11:28Z</time></trkpt><trkpt lat="41.67953645183266" lon="13.256590247219531"><ele>229.66666666666669</ele><time>2026-04-18T17:11:29Z</time></trkpt><trkpt lat="41.67935262338072" lon="13.25669055364173"><ele>229.33333333333331</ele><time>2026-04-18T17:11:30Z</time></trkpt><trkpt lat="41.67916477829575" lon="13.256776707003004"><ele>229.0</ele><time>2026-04-18T17:11:31Z</time></trkpt><trkpt lat="41.67897585006906" lon="13.256835461617207"><ele>229.0</ele><time>2026-04-18T17:11:32Z</time></trkpt><trkpt lat="41.67878701982685" lon="13.256855469021191"><ele>229.0</ele><time>2026-04-18T17:11:33Z</time></trkpt><trkpt lat="41.67859682510028" lon="13.256829426737177"><ele>229.0</ele><time>2026-04-18T17:11:34Z</time></trkpt><trkpt lat="41.67840463794186" lon="13.256788251886979"><ele>228.66666666666666</ele><time>2026-04-18T17:11:35Z</time></trkpt><trkpt lat="41.67820683835022" lon="13.256744968182819"><ele>228.33333333333331</ele><time>2026-04-18T17:11:36Z</time></trkpt><trkpt lat="41.67800670777324" lon="13.25670408668491"><ele>228.0</ele><time>2026-04-18T17:11:37Z</time></trkpt><trkpt lat="41.6778061860529" lon="13.25666177176737"><ele>227.66666666666669</ele><time>2026-04-18T17:11:38Z</time></trkpt><trkpt lat="41.67760309623388" lon="13.256618543431054"><ele>227.33333333333334</ele><time>2026-04-18T17:11:39Z</time></trkpt><trkpt lat="41.67739863300378" lon="13.256578049277527"><ele>227.0</ele><time>2026-04-18T17:11:40Z</time></trkpt><trkpt lat="41.677190194756946" lon="13.256539369106806"><ele>227.0</ele><time>2026-04-18T17:11:41Z</time></trkpt><trkpt lat="41.676984282032095" lon="13.256505943209895"><ele>227.0</ele><time>2026-04-18T17:11:42Z</time></trkpt><trkpt lat="41.67678038572844" lon="13.256473518095559"><ele>227.0</ele><time>2026-04-18T17:11:43Z</time></trkpt><trkpt lat="41.676578660661" lon="13.25643634331215"><ele>225.66666666666669</ele><time>2026-04-18T17:11:44Z</time></trkpt><trkpt lat="41.67637870032744" lon="13.256389935040037"><ele>224.33333333333331</ele><time>2026-04-18T17:11:45Z</time></trkpt><trkpt lat="41.67618099435898" lon="13.256337698347815"><ele>223.0</ele><time>2026-04-18T17:11:46Z</time></trkpt><trkpt lat="41.67598799304388" lon="13.25627083935122"><ele>222.66666666666666</ele><time>2026-04-18T17:11:47Z</time></trkpt><trkpt lat="41.67580156228581" lon="13.256184928594381"><ele>222.33333333333331</ele><time>2026-04-18T17:11:48Z</time></trkpt><trkpt lat="41.67562404791485" lon="13.256079492344917"><ele>222.0</ele><time>2026-04-18T17:11:49Z</time></trkpt><trkpt lat="41.67545667619641" lon="13.255961123209824"><ele>222.0</ele><time>2026-04-18T17:11:50Z</time></trkpt><trkpt lat="41.67529454120251" lon="13.255835870717682"><ele>222.0</ele><time>2026-04-18T17:11:51Z</time></trkpt><trkpt lat="41.6751428808688" lon="13.255703678336538"><ele>222.0</ele><time>2026-04-18T17:11:52Z</time></trkpt><trkpt lat="41.675006993290026" lon="13.255572249638009"><ele>221.25</ele><time>2026-04-18T17:11:53Z</time></trkpt><trkpt lat="41.67487845519128" lon="13.255460455872349"><ele>220.5</ele><time>2026-04-18T17:11:54Z</time></trkpt><trkpt lat="41.674759002361306" lon="13.255366490976288"><ele>219.75</ele><time>2026-04-18T17:11:55Z</time></trkpt><trkpt lat="41.674634821831326" lon="13.25530043579376"><ele>219.0</ele><time>2026-04-18T17:11:56Z</time></trkpt><trkpt lat="41.67450100640018" lon="13.255275374178941"><ele>218.5</ele><time>2026-04-18T17:11:57Z</time></trkpt><trkpt lat="41.674366953962505" lon="13.255312762337914"><ele>218.0</ele><time>2026-04-18T17:11:58Z</time></trkpt><trkpt lat="41.67424453020209" lon="13.255401427453805"><ele>217.5</ele><time>2026-04-18T17:11:59Z</time></trkpt><trkpt lat="41.67413360458599" lon="13.255530851324266"><ele>217.0</ele><time>2026-04-18T17:12:00Z</time></trkpt><trkpt lat="41.67403418149376" lon="13.255682204412167"><ele>217.0</ele><time>2026-04-18T17:12:01Z</time></trkpt><trkpt lat="41.673928344813156" lon="13.25583634446925"><ele>217.0</ele><time>2026-04-18T17:12:02Z</time></trkpt><trkpt lat="41.67382255153483" lon="13.25598331675966"><ele>217.0</ele><time>2026-04-18T17:12:03Z</time></trkpt><trkpt lat="41.67370493087231" lon="13.25611963835318"><ele>215.66666666666666</ele><time>2026-04-18T17:12:04Z</time></trkpt><trkpt lat="41.67357207170639" lon="13.256219598414194"><ele>214.33333333333331</ele><time>2026-04-18T17:12:05Z</time></trkpt><trkpt lat="41.67342738425801" lon="13.256278983047968"><ele>213.0</ele><time>2026-04-18T17:12:06Z</time></trkpt><trkpt lat="41.673270429758595" lon="13.256279249473112"><ele>213.0</ele><time>2026-04-18T17:12:07Z</time></trkpt><trkpt lat="41.673113796162646" lon="13.256262164427268"><ele>213.0</ele><time>2026-04-18T17:12:08Z</time></trkpt><trkpt lat="41.67295028958763" lon="13.256248282333981"><ele>213.0</ele><time>2026-04-18T17:12:09Z</time></trkpt><trkpt lat="41.67278367797006" lon="13.2562328156625"><ele>211.66666666666669</ele><time>2026-04-18T17:12:10Z</time></trkpt><trkpt lat="41.67261309185969" lon="13.256216108560974"><ele>210.33333333333334</ele><time>2026-04-18T17:12:11Z</time></trkpt><trkpt lat="41.67243899001612" lon="13.256196168470362"><ele>209.0</ele><time>2026-04-18T17:12:12Z</time></trkpt><trkpt lat="41.67226220439245" lon="13.256168126739613"><ele>209.0</ele><time>2026-04-18T17:12:13Z</time></trkpt><trkpt lat="41.67208324642178" lon="13.256133765686998"><ele>209.0</ele><time>2026-04-18T17:12:14Z</time></trkpt><trkpt lat="41.6719025791718" lon="13.256092717928421"><ele>209.0</ele><time>2026-04-18T17:12:15Z</time></trkpt><trkpt lat="41.67172210022388" lon="13.256046189224625"><ele>209.0</ele><time>2026-04-18T17:12:16Z</time></trkpt><trkpt lat="41.67154346282008" lon="13.255997111795727"><ele>209.0</ele><time>2026-04-18T17:12:17Z</time></trkpt><trkpt lat="41.67136845454346" lon="13.255947227113559"><ele>209.0</ele><time>2026-04-18T17:12:18Z</time></trkpt><trkpt lat="41.67119588610082" lon="13.255894827899061"><ele>212.0</ele><time>2026-04-18T17:12:19Z</time></trkpt><trkpt lat="41.67102608975359" lon="13.255843926965765"><ele>215.0</ele><time>2026-04-18T17:12:20Z</time></trkpt><trkpt lat="41.67085790466069" lon="13.255790961502633"><ele>218.0</ele><time>2026-04-18T17:12:21Z</time></trkpt><trkpt lat="41.67069086319176" lon="13.25573832194675"><ele>218.0</ele><time>2026-04-18T17:12:22Z</time></trkpt><trkpt lat="41.670526601845395" lon="13.255685906551193"><ele>218.0</ele><time>2026-04-18T17:12:23Z</time></trkpt><trkpt lat="41.670361563639126" lon="13.255626557112299"><ele>218.0</ele><time>2026-04-18T17:12:24Z</time></trkpt><trkpt lat="41.670199664656465" lon="13.255566014639315"><ele>218.66666666666669</ele><time>2026-04-18T17:12:25Z</time></trkpt><trkpt lat="41.67004399314602" lon="13.255504595309462"><ele>219.33333333333331</ele><time>2026-04-18T17:12:26Z</time></trkpt><trkpt lat="41.66988847848826" lon="13.255443616570785"><ele>220.0</ele><time>2026-04-18T17:12:27Z</time></trkpt><trkpt lat="41.669737529689996" lon="13.255387172173041"><ele>220.0</ele><time>2026-04-18T17:12:28Z</time></trkpt><trkpt lat="41.669585204359855" lon="13.255350794786429"><ele>220.0</ele><time>2026-04-18T17:12:29Z</time></trkpt><trkpt lat="41.669432488611434" lon="13.255329840124535"><ele>220.0</ele><time>2026-04-18T17:12:30Z</time></trkpt><trkpt lat="41.66927692966873" lon="13.25531805742177"><ele>221.33333333333331</ele><time>2026-04-18T17:12:31Z</time></trkpt><trkpt lat="41.66911902406185" lon="13.255303684453812"><ele>222.66666666666669</ele><time>2026-04-18T17:12:32Z</time></trkpt><trkpt lat="41.66895814114736" lon="13.255288127522338"><ele>224.0</ele><time>2026-04-18T17:12:33Z</time></trkpt><trkpt lat="41.66878906904086" lon="13.255270935292529"><ele>224.0</ele><time>2026-04-18T17:12:34Z</time></trkpt><trkpt lat="41.6686230037411" lon="13.25525114802594"><ele>224.0</ele><time>2026-04-18T17:12:35Z</time></trkpt><trkpt lat="41.66845502714789" lon="13.255217098883165"><ele>224.0</ele><time>2026-04-18T17:12:36Z</time></trkpt><trkpt lat="41.66828785407858" lon="13.255178567568047"><ele>223.33333333333334</ele><time>2026-04-18T17:12:37Z</time></trkpt><trkpt lat="41.66812601270347" lon="13.255127604644382"><ele>222.66666666666669</ele><time>2026-04-18T17:12:38Z</time></trkpt><trkpt lat="41.66796800648336" lon="13.255082923832152"><ele>222.0</ele><time>2026-04-18T17:12:39Z</time></trkpt><trkpt lat="41.66780581369025" lon="13.255041054683046"><ele>220.33333333333331</ele><time>2026-04-18T17:12:40Z</time></trkpt><trkpt lat="41.66764082775706" lon="13.255022100427357"><ele>218.66666666666666</ele><time>2026-04-18T17:12:41Z</time></trkpt><trkpt lat="41.66747407064322" lon="13.25501027890956"><ele>217.0</ele><time>2026-04-18T17:12:42Z</time></trkpt><trkpt lat="41.66730133440988" lon="13.255020874692084"><ele>217.0</ele><time>2026-04-18T17:12:43Z</time></trkpt><trkpt lat="41.667128212577744" lon="13.255044557222444"><ele>217.0</ele><time>2026-04-18T17:12:44Z</time></trkpt><trkpt lat="41.66694985711958" lon="13.255062962557767"><ele>217.0</ele><time>2026-04-18T17:12:45Z</time></trkpt><trkpt lat="41.6667670409653" lon="13.255080696517757"><ele>215.0</ele><time>2026-04-18T17:12:46Z</time></trkpt><trkpt lat="41.666581596819825" lon="13.255098767778719"><ele>213.0</ele><time>2026-04-18T17:12:47Z</time></trkpt><trkpt lat="41.666406499999994" lon="13.255125666666666"><ele>211.0</ele><time>2026-04-18T17:12:48.178Z</time></trkpt><trkpt lat="41.66621966666666" lon="13.255138333333331"><ele>209.66666666666666</ele><time>2026-04-18T17:12:49.136Z</time></trkpt><trkpt lat="41.666033" lon="13.255145999999998"><ele>208.33333333333331</ele><time>2026-04-18T17:12:50.133Z</time></trkpt><trkpt lat="41.66584566666667" lon="13.255144833333334"><ele>207.0</ele><time>2026-04-18T17:12:51.139Z</time></trkpt><trkpt lat="41.665659000000005" lon="13.2551305"><ele>207.0</ele><time>2026-04-18T17:12:52.134Z</time></trkpt><trkpt lat="41.66547383333333" lon="13.255102166666665"><ele>207.0</ele><time>2026-04-18T17:12:53.139Z</time></trkpt><trkpt lat="41.66529083333333" lon="13.255061666666665"><ele>207.0</ele><time>2026-04-18T17:12:54.135Z</time></trkpt><trkpt lat="41.66511216666666" lon="13.255012666666667"><ele>206.33333333333331</ele><time>2026-04-18T17:12:55.134Z</time></trkpt><trkpt lat="41.664937166666675" lon="13.254956166666666"><ele>205.66666666666666</ele><time>2026-04-18T17:12:56.147Z</time></trkpt><trkpt lat="41.66476516666667" lon="13.254898333333331"><ele>205.0</ele><time>2026-04-18T17:12:57.134Z</time></trkpt><trkpt lat="41.664597666666666" lon="13.254842666666665"><ele>205.33333333333331</ele><time>2026-04-18T17:12:58.134Z</time></trkpt><trkpt lat="41.66444016666666" lon="13.254789"><ele>205.66666666666669</ele><time>2026-04-18T17:12:59.133Z</time></trkpt><trkpt lat="41.66429833333333" lon="13.254739166666665"><ele>206.0</ele><time>2026-04-18T17:13:00.134Z</time></trkpt><trkpt lat="41.664154833333335" lon="13.2546885"><ele>206.0</ele><time>2026-04-18T17:13:01.136Z</time></trkpt><trkpt lat="41.664018000000006" lon="13.254639166666667"><ele>206.0</ele><time>2026-04-18T17:13:02.133Z</time></trkpt><trkpt lat="41.66389666666667" lon="13.254592833333334"><ele>206.0</ele><time>2026-04-18T17:13:03.138Z</time></trkpt><trkpt lat="41.66377666666667" lon="13.254541999999999"><ele>206.0</ele><time>2026-04-18T17:13:04.134Z</time></trkpt><trkpt lat="41.66367050000001" lon="13.254475833333332"><ele>205.0</ele><time>2026-04-18T17:13:05.135Z</time></trkpt><trkpt lat="41.6635765" lon="13.254375166666666"><ele>204.0</ele><time>2026-04-18T17:13:06.136Z</time></trkpt><trkpt lat="41.663508333333326" lon="13.2542325"><ele>203.0</ele><time>2026-04-18T17:13:07.136Z</time></trkpt><trkpt lat="41.6634695" lon="13.25407"><ele>202.0</ele><time>2026-04-18T17:13:08.14Z</time></trkpt><trkpt lat="41.663443666666666" lon="13.253887333333335"><ele>201.5</ele><time>2026-04-18T17:13:09.137Z</time></trkpt><trkpt lat="41.663419499999996" lon="13.253693333333334"><ele>201.0</ele><time>2026-04-18T17:13:10.135Z</time></trkpt><trkpt lat="41.66339549999999" lon="13.2534915"><ele>200.5</ele><time>2026-04-18T17:13:11.135Z</time></trkpt><trkpt lat="41.663373166666666" lon="13.253296166666665"><ele>200.0</ele><time>2026-04-18T17:13:12.133Z</time></trkpt><trkpt lat="41.66334933333332" lon="13.253086166666666"><ele>199.66666666666669</ele><time>2026-04-18T17:13:13.134Z</time></trkpt><trkpt lat="41.66332733333334" lon="13.252884666666667"><ele>199.33333333333331</ele><time>2026-04-18T17:13:14.134Z</time></trkpt><trkpt lat="41.66330549999999" lon="13.252677666666667"><ele>199.0</ele><time>2026-04-18T17:13:15.134Z</time></trkpt><trkpt lat="41.663271" lon="13.2524715"><ele>198.0</ele><time>2026-04-18T17:13:16.134Z</time></trkpt><trkpt lat="41.66325233333333" lon="13.252276333333334"><ele>197.0</ele><time>2026-04-18T17:13:17.135Z</time></trkpt><trkpt lat="41.66322083333333" lon="13.252087333333336"><ele>196.0</ele><time>2026-04-18T17:13:18.135Z</time></trkpt><trkpt lat="41.66315666666666" lon="13.251913500000002"><ele>195.0</ele><time>2026-04-18T17:13:19.135Z</time></trkpt><trkpt lat="41.6630825" lon="13.251757999999999"><ele>195.0</ele><time>2026-04-18T17:13:20.135Z</time></trkpt><trkpt lat="41.66298516666667" lon="13.251617"><ele>195.0</ele><time>2026-04-18T17:13:21.134Z</time></trkpt><trkpt lat="41.66286216666667" lon="13.251506666666666"><ele>195.0</ele><time>2026-04-18T17:13:22.135Z</time></trkpt><trkpt lat="41.662743500000005" lon="13.251401166666668"><ele>195.0</ele><time>2026-04-18T17:13:23.137Z</time></trkpt><trkpt lat="41.662628666666656" lon="13.251280166666666"><ele>194.0</ele><time>2026-04-18T17:13:24.138Z</time></trkpt><trkpt lat="41.662508166666676" lon="13.251160666666665"><ele>193.0</ele><time>2026-04-18T17:13:25.138Z</time></trkpt><trkpt lat="41.6623885" lon="13.251050500000002"><ele>192.0</ele><time>2026-04-18T17:13:26.14Z</time></trkpt><trkpt lat="41.662262999999996" lon="13.250942000000002"><ele>191.0</ele><time>2026-04-18T17:13:27.138Z</time></trkpt><trkpt lat="41.662136333333336" lon="13.250829999999999"><ele>191.0</ele><time>2026-04-18T17:13:28.136Z</time></trkpt><trkpt lat="41.662015999999994" lon="13.250723666666666"><ele>191.0</ele><time>2026-04-18T17:13:29.139Z</time></trkpt><trkpt lat="41.66188116666667" lon="13.250610333333334"><ele>191.0</ele><time>2026-04-18T17:13:30.15Z</time></trkpt><trkpt lat="41.66177233333333" lon="13.250545333333333"><ele>191.0</ele><time>2026-04-18T17:13:31.135Z</time></trkpt><trkpt lat="41.66166033333334" lon="13.250477333333333"><ele>189.60000000000002</ele><time>2026-04-18T17:13:32.135Z</time></trkpt><trkpt lat="41.661547500000005" lon="13.250421666666668"><ele>188.2</ele><time>2026-04-18T17:13:33.139Z</time></trkpt><trkpt lat="41.66143833333334" lon="13.250375499999999"><ele>186.8</ele><time>2026-04-18T17:13:34.136Z</time></trkpt><trkpt lat="41.66134166666667" lon="13.250337833333331"><ele>185.39999999999998</ele><time>2026-04-18T17:13:35.136Z</time></trkpt><trkpt lat="41.66125033333333" lon="13.250303833333332"><ele>184.0</ele><time>2026-04-18T17:13:36.136Z</time></trkpt><trkpt lat="41.6611645" lon="13.250272166666665"><ele>183.79999999999998</ele><time>2026-04-18T17:13:37.139Z</time></trkpt><trkpt lat="41.66108083333334" lon="13.250255333333332"><ele>183.6</ele><time>2026-04-18T17:13:38.141Z</time></trkpt><trkpt lat="41.66100516666667" lon="13.250231833333332"><ele>183.4</ele><time>2026-04-18T17:13:39.136Z</time></trkpt><trkpt lat="41.660935833333326" lon="13.250221166666666"><ele>183.2</ele><time>2026-04-18T17:13:40.137Z</time></trkpt><trkpt lat="41.66078533333332" lon="13.250358333333333"><ele>183.0</ele><time>2026-04-18T17:13:43.139Z</time></trkpt><trkpt lat="41.66076183333333" lon="13.2504545"><ele>183.0</ele><time>2026-04-18T17:13:44.143Z</time></trkpt><trkpt lat="41.660737166666664" lon="13.250565833333333"><ele>183.0</ele><time>2026-04-18T17:13:45.135Z</time></trkpt><trkpt lat="41.660706499999996" lon="13.250689666666664"><ele>183.0</ele><time>2026-04-18T17:13:46.141Z</time></trkpt><trkpt lat="41.660669000000006" lon="13.250826"><ele>183.0</ele><time>2026-04-18T17:13:47.135Z</time></trkpt><trkpt lat="41.660626333333326" lon="13.250976166666666"><ele>183.0</ele><time>2026-04-18T17:13:48.141Z</time></trkpt><trkpt lat="41.660581" lon="13.251136333333333"><ele>183.75</ele><time>2026-04-18T17:13:49.137Z</time></trkpt><trkpt lat="41.66053433333333" lon="13.251306166666666"><ele>184.5</ele><time>2026-04-18T17:13:50.134Z</time></trkpt><trkpt lat="41.660485666666666" lon="13.251482666666666"><ele>185.25</ele><time>2026-04-18T17:13:51.142Z</time></trkpt><trkpt lat="41.660436833333335" lon="13.2516635"><ele>186.0</ele><time>2026-04-18T17:13:52.139Z</time></trkpt><trkpt lat="41.66038783333334" lon="13.251849166666666"><ele>186.0</ele><time>2026-04-18T17:13:53.135Z</time></trkpt><trkpt lat="41.66034" lon="13.252037499999998"><ele>186.0</ele><time>2026-04-18T17:13:54.137Z</time></trkpt><trkpt lat="41.66028883333333" lon="13.252240666666667"><ele>186.0</ele><time>2026-04-18T17:13:55.137Z</time></trkpt><trkpt lat="41.66024716666668" lon="13.252402333333334"><ele>186.0</ele><time>2026-04-18T17:13:56.135Z</time></trkpt><trkpt lat="41.660194" lon="13.252592"><ele>186.0</ele><time>2026-04-18T17:13:57.14Z</time></trkpt><trkpt lat="41.66014733333333" lon="13.25276"><ele>186.0</ele><time>2026-04-18T17:13:58.138Z</time></trkpt><trkpt lat="41.66010316666667" lon="13.2529225"><ele>186.0</ele><time>2026-04-18T17:13:59.135Z</time></trkpt><trkpt lat="41.66005499999999" lon="13.253078999999998"><ele>186.0</ele><time>2026-04-18T17:14:00.136Z</time></trkpt><trkpt lat="41.65999483333333" lon="13.2532285"><ele>186.25</ele><time>2026-04-18T17:14:01.136Z</time></trkpt><trkpt lat="41.659919499999994" lon="13.253366833333331"><ele>186.5</ele><time>2026-04-18T17:14:02.138Z</time></trkpt><trkpt lat="41.65982883333333" lon="13.253490333333332"><ele>186.75</ele><time>2026-04-18T17:14:03.142Z</time></trkpt><trkpt lat="41.659723166666666" lon="13.253595166666665"><ele>187.0</ele><time>2026-04-18T17:14:04.14Z</time></trkpt><trkpt lat="41.65960366666666" lon="13.253678333333335"><ele>187.0</ele><time>2026-04-18T17:14:05.134Z</time></trkpt><trkpt lat="41.65947333333333" lon="13.253738333333335"><ele>187.0</ele><time>2026-04-18T17:14:06.137Z</time></trkpt><trkpt lat="41.65933209078343" lon="13.253747698001954"><ele>187.0</ele><time>2026-04-18T17:14:07.134Z</time></trkpt><trkpt lat="41.65918858004306" lon="13.253758387648809"><ele>187.0</ele><time>2026-04-18T17:14:08.135Z</time></trkpt><trkpt lat="41.65904126279723" lon="13.253766107188351"><ele>185.33333333333334</ele><time>2026-04-18T17:14:09.137Z</time></trkpt><trkpt lat="41.65889074916245" lon="13.25377084618272"><ele>183.66666666666666</ele><time>2026-04-18T17:14:10.134Z</time></trkpt><trkpt lat="41.65873602503071" lon="13.253775872485447"><ele>182.0</ele><time>2026-04-18T17:14:11.134Z</time></trkpt><trkpt lat="41.658578999999996" lon="13.253802833333335"><ele>182.0</ele><time>2026-04-18T17:14:12.135Z</time></trkpt><trkpt lat="41.658418" lon="13.253806666666666"><ele>182.0</ele><time>2026-04-18T17:14:13.137Z</time></trkpt><trkpt lat="41.65825433333333" lon="13.253810833333333"><ele>182.0</ele><time>2026-04-18T17:14:14.134Z</time></trkpt><trkpt lat="41.658088666666664" lon="13.253816333333335"><ele>182.0</ele><time>2026-04-18T17:14:15.135Z</time></trkpt><trkpt lat="41.65792366666666" lon="13.253821"><ele>182.0</ele><time>2026-04-18T17:14:16.135Z</time></trkpt><trkpt lat="41.65775933333333" lon="13.253820833333334"><ele>182.0</ele><time>2026-04-18T17:14:17.135Z</time></trkpt><trkpt lat="41.65759766666667" lon="13.253806333333333"><ele>181.33333333333331</ele><time>2026-04-18T17:14:18.135Z</time></trkpt><trkpt lat="41.657438666666664" lon="13.253772833333334"><ele>180.66666666666666</ele><time>2026-04-18T17:14:19.135Z</time></trkpt><trkpt lat="41.657282833333326" lon="13.253726166666668"><ele>180.0</ele><time>2026-04-18T17:14:20.134Z</time></trkpt><trkpt lat="41.657129166666664" lon="13.253672666666668"><ele>180.0</ele><time>2026-04-18T17:14:21.136Z</time></trkpt><trkpt lat="41.656978166666676" lon="13.25361516666667"><ele>180.0</ele><time>2026-04-18T17:14:22.134Z</time></trkpt><trkpt lat="41.65683016666667" lon="13.2535585"><ele>180.0</ele><time>2026-04-18T17:14:23.137Z</time></trkpt><trkpt lat="41.65667983333333" lon="13.253500166666667"><ele>178.66666666666666</ele><time>2026-04-18T17:14:24.135Z</time></trkpt><trkpt lat="41.65653483333334" lon="13.253445833333336"><ele>177.33333333333331</ele><time>2026-04-18T17:14:25.137Z</time></trkpt><trkpt lat="41.656388" lon="13.253398833333332"><ele>176.0</ele><time>2026-04-18T17:14:26.139Z</time></trkpt><trkpt lat="41.6562405" lon="13.253372666666667"><ele>175.5</ele><time>2026-04-18T17:14:27.139Z</time></trkpt><trkpt lat="41.65609216666667" lon="13.253370666666667"><ele>175.0</ele><time>2026-04-18T17:14:28.134Z</time></trkpt><trkpt lat="41.65594349999999" lon="13.253389499999999"><ele>174.5</ele><time>2026-04-18T17:14:29.137Z</time></trkpt><trkpt lat="41.655795166666664" lon="13.25341983333333"><ele>174.0</ele><time>2026-04-18T17:14:30.153Z</time></trkpt><trkpt lat="41.65564716666666" lon="13.2534525"><ele>174.0</ele><time>2026-04-18T17:14:31.142Z</time></trkpt><trkpt lat="41.655499999999996" lon="13.253485333333334"><ele>174.0</ele><time>2026-04-18T17:14:32.141Z</time></trkpt><trkpt lat="41.65535466666667" lon="13.253518833333333"><ele>174.0</ele><time>2026-04-18T17:14:33.139Z</time></trkpt><trkpt lat="41.65521066666666" lon="13.253553166666665"><ele>174.0</ele><time>2026-04-18T17:14:34.137Z</time></trkpt><trkpt lat="41.655067666666675" lon="13.253585666666666"><ele>173.5</ele><time>2026-04-18T17:14:35.138Z</time></trkpt><trkpt lat="41.65492583333333" lon="13.253613"><ele>173.0</ele><time>2026-04-18T17:14:36.137Z</time></trkpt><trkpt lat="41.654784166666666" lon="13.253630999999999"><ele>172.5</ele><time>2026-04-18T17:14:37.137Z</time></trkpt><trkpt lat="41.654644499999996" lon="13.2536365"><ele>172.0</ele><time>2026-04-18T17:14:38.137Z</time></trkpt><trkpt lat="41.654506000000005" lon="13.253637833333336"><ele>171.0</ele><time>2026-04-18T17:14:39.138Z</time></trkpt><trkpt lat="41.654371833333336" lon="13.253645333333333"><ele>170.0</ele><time>2026-04-18T17:14:40.137Z</time></trkpt><trkpt lat="41.654249666666665" lon="13.253661"><ele>169.0</ele><time>2026-04-18T17:14:41.139Z</time></trkpt><trkpt lat="41.654139" lon="13.253680000000003"><ele>168.0</ele><time>2026-04-18T17:14:42.137Z</time></trkpt><trkpt lat="41.65403783333333" lon="13.253702500000001"><ele>168.0</ele><time>2026-04-18T17:14:43.137Z</time></trkpt><trkpt lat="41.65394316666667" lon="13.253725666666668"><ele>168.0</ele><time>2026-04-18T17:14:44.138Z</time></trkpt><trkpt lat="41.65385200000001" lon="13.253749833333332"><ele>168.0</ele><time>2026-04-18T17:14:45.138Z</time></trkpt><trkpt lat="41.6537645" lon="13.253774500000002"><ele>168.0</ele><time>2026-04-18T17:14:46.135Z</time></trkpt><trkpt lat="41.653686333333326" lon="13.253797666666667"><ele>168.0</ele><time>2026-04-18T17:14:47.137Z</time></trkpt><trkpt lat="41.65361916666668" lon="13.253829166666666"><ele>168.0</ele><time>2026-04-18T17:14:48.14Z</time></trkpt><trkpt lat="41.653557" lon="13.253859666666665"><ele>167.8</ele><time>2026-04-18T17:14:49.139Z</time></trkpt><trkpt lat="41.65345000000001" lon="13.253921"><ele>167.60000000000002</ele><time>2026-04-18T17:14:51.133Z</time></trkpt><trkpt lat="41.65335700000001" lon="13.254032500000003"><ele>167.39999999999998</ele><time>2026-04-18T17:14:53.139Z</time></trkpt><trkpt lat="41.65329766666667" lon="13.254083833333334"><ele>167.2</ele><time>2026-04-18T17:14:54.139Z</time></trkpt><trkpt lat="41.65322450000001" lon="13.254115500000001"><ele>167.0</ele><time>2026-04-18T17:14:55.141Z</time></trkpt><trkpt lat="41.65314149999999" lon="13.25412533333333"><ele>166.39999999999998</ele><time>2026-04-18T17:14:56.133Z</time></trkpt><trkpt lat="41.653051000000005" lon="13.254128166666666"><ele>165.79999999999998</ele><time>2026-04-18T17:14:57.128Z</time></trkpt><trkpt lat="41.652955999999996" lon="13.254135333333332"><ele>165.2</ele><time>2026-04-18T17:14:58.133Z</time></trkpt><trkpt lat="41.65285983333333" lon="13.254147833333333"><ele>164.6</ele><time>2026-04-18T17:14:59.137Z</time></trkpt><trkpt lat="41.65276166666666" lon="13.2541625"><ele>164.0</ele><time>2026-04-18T17:15:00.137Z</time></trkpt><trkpt lat="41.65266166666667" lon="13.254175166666668"><ele>163.79999999999998</ele><time>2026-04-18T17:15:01.134Z</time></trkpt><trkpt lat="41.652561666666664" lon="13.254177666666665"><ele>163.6</ele><time>2026-04-18T17:15:02.135Z</time></trkpt><trkpt lat="41.65246099999999" lon="13.254160166666667"><ele>163.4</ele><time>2026-04-18T17:15:03.133Z</time></trkpt><trkpt lat="41.652359999999994" lon="13.254121166666668"><ele>163.2</ele><time>2026-04-18T17:15:04.134Z</time></trkpt><trkpt lat="41.65226033333333" lon="13.254065166666665"><ele>163.0</ele><time>2026-04-18T17:15:05.139Z</time></trkpt><trkpt lat="41.65216033333333" lon="13.254000166666668"><ele>163.33333333333334</ele><time>2026-04-18T17:15:06.136Z</time></trkpt><trkpt lat="41.652058833333335" lon="13.253931833333336"><ele>163.66666666666666</ele><time>2026-04-18T17:15:07.132Z</time></trkpt><trkpt lat="41.65195816666667" lon="13.2538625"><ele>164.0</ele><time>2026-04-18T17:15:08.123Z</time></trkpt><trkpt lat="41.651498666666676" lon="13.253547833333336"><ele>163.5</ele><time>2026-04-18T17:15:13.145Z</time></trkpt><trkpt lat="41.65141433333333" lon="13.253487333333332"><ele>163.0</ele><time>2026-04-18T17:15:14.138Z</time></trkpt><trkpt lat="41.65133116666666" lon="13.253426166666667"><ele>162.5</ele><time>2026-04-18T17:15:15.138Z</time></trkpt><trkpt lat="41.65125866666667" lon="13.253366833333331"><ele>162.0</ele><time>2026-04-18T17:15:16.138Z</time></trkpt><trkpt lat="41.6511935" lon="13.253311833333331"><ele>161.5</ele><time>2026-04-18T17:15:17.138Z</time></trkpt><trkpt lat="41.65114383333333" lon="13.253234999999998"><ele>161.0</ele><time>2026-04-18T17:15:18.136Z</time></trkpt><trkpt lat="41.651103500000005" lon="13.253151166666665"><ele>159.83333333333331</ele><time>2026-04-18T17:15:19.14Z</time></trkpt><trkpt lat="41.65106316666667" lon="13.253062333333332"><ele>158.66666666666666</ele><time>2026-04-18T17:15:20.137Z</time></trkpt><trkpt lat="41.651017" lon="13.252977500000002"><ele>157.5</ele><time>2026-04-18T17:15:21.142Z</time></trkpt><trkpt lat="41.650943000000005" lon="13.2529325"><ele>156.33333333333334</ele><time>2026-04-18T17:15:22.14Z</time></trkpt><trkpt lat="41.650866" lon="13.252918833333336"><ele>155.16666666666669</ele><time>2026-04-18T17:15:23.136Z</time></trkpt><trkpt lat="41.65079016666667" lon="13.25295016666667"><ele>154.0</ele><time>2026-04-18T17:15:24.137Z</time></trkpt><trkpt lat="41.65073266666666" lon="13.253021833333332"><ele>154.2</ele><time>2026-04-18T17:15:25.14Z</time></trkpt><trkpt lat="41.650701833333336" lon="13.253125166666667"><ele>154.4</ele><time>2026-04-18T17:15:26.134Z</time></trkpt><trkpt lat="41.65069533333334" lon="13.253245"><ele>154.6</ele><time>2026-04-18T17:15:27.142Z</time></trkpt><trkpt lat="41.650692" lon="13.253369166666667"><ele>154.8</ele><time>2026-04-18T17:15:28.139Z</time></trkpt><trkpt lat="41.65069804373902" lon="13.253498333333335"><ele>155.0</ele><time>2026-04-18T17:15:29.141Z</time></trkpt><trkpt lat="41.65063683333333" lon="13.253622666666669"><ele>155.0</ele><time>2026-04-18T17:15:30.154Z</time></trkpt><trkpt lat="41.650605666666664" lon="13.2537535"><ele>155.0</ele><time>2026-04-18T17:15:31.14Z</time></trkpt><trkpt lat="41.650566833333336" lon="13.253887333333335"><ele>155.0</ele><time>2026-04-18T17:15:32.141Z</time></trkpt><trkpt lat="41.650544333333336" lon="13.254032166666665"><ele>155.0</ele><time>2026-04-18T17:15:33.138Z</time></trkpt><trkpt lat="41.6505005" lon="13.254172833333334"><ele>155.0</ele><time>2026-04-18T17:15:34.139Z</time></trkpt><trkpt lat="41.65046566666667" lon="13.254321166666667"><ele>154.8</ele><time>2026-04-18T17:15:35.139Z</time></trkpt><trkpt lat="41.65041883333333" lon="13.25446316666667"><ele>154.6</ele><time>2026-04-18T17:15:36.14Z</time></trkpt><trkpt lat="41.65037049999999" lon="13.254597666666667"><ele>154.4</ele><time>2026-04-18T17:15:37.138Z</time></trkpt><trkpt lat="41.65031316666666" lon="13.254718333333335"><ele>154.2</ele><time>2026-04-18T17:15:38.138Z</time></trkpt><trkpt lat="41.65024316666666" lon="13.254810999999998"><ele>154.0</ele><time>2026-04-18T17:15:39.139Z</time></trkpt><trkpt lat="41.65016049999999" lon="13.254869166666667"><ele>154.0</ele><time>2026-04-18T17:15:40.138Z</time></trkpt><trkpt lat="41.65006833333334" lon="13.254892"><ele>154.0</ele><time>2026-04-18T17:15:41.138Z</time></trkpt><trkpt lat="41.64996649999999" lon="13.254901833333333"><ele>154.0</ele><time>2026-04-18T17:15:42.138Z</time></trkpt><trkpt lat="41.649869833333334" lon="13.254890833333333"><ele>154.0</ele><time>2026-04-18T17:15:43.141Z</time></trkpt><trkpt lat="41.64977183333334" lon="13.254864666666666"><ele>154.0</ele><time>2026-04-18T17:15:44.139Z</time></trkpt><trkpt lat="41.64968016666666" lon="13.254836"><ele>154.0</ele><time>2026-04-18T17:15:45.139Z</time></trkpt><trkpt lat="41.64959033333333" lon="13.254794833333333"><ele>154.0</ele><time>2026-04-18T17:15:46.143Z</time></trkpt><trkpt lat="41.64950950000001" lon="13.254737"><ele>154.0</ele><time>2026-04-18T17:15:47.135Z</time></trkpt><trkpt lat="41.649450166666675" lon="13.254671666666665"><ele>154.0</ele><time>2026-04-18T17:15:48.135Z</time></trkpt><trkpt lat="41.649412" lon="13.254599333333333"><ele>154.0</ele><time>2026-04-18T17:15:49.148Z</time></trkpt><trkpt lat="41.64936140766214" lon="13.254526034338522"><ele>154.0</ele><time>2026-04-18T17:15:51.137Z</time></trkpt><trkpt lat="41.64941183333334" lon="13.254424833333333"><ele>153.0</ele><time>2026-04-18T17:15:52.137Z</time></trkpt><trkpt lat="41.649479500000005" lon="13.254272833333335"><ele>152.0</ele><time>2026-04-18T17:15:54.136Z</time></trkpt><trkpt lat="41.64952883333334" lon="13.254181999999998"><ele>151.0</ele><time>2026-04-18T17:15:55.139Z</time></trkpt><trkpt lat="41.649585166666675" lon="13.254092166666664"><ele>150.0</ele><time>2026-04-18T17:15:56.136Z</time></trkpt><trkpt lat="41.64965000000001" lon="13.254016666666667"><ele>149.0</ele><time>2026-04-18T17:15:57.137Z</time></trkpt><trkpt lat="41.649737333333334" lon="13.253955"><ele>149.0</ele><time>2026-04-18T17:15:58.142Z</time></trkpt><trkpt lat="41.64983283333333" lon="13.253899833333332"><ele>149.0</ele><time>2026-04-18T17:15:59.138Z</time></trkpt><trkpt lat="41.64991766666667" lon="13.253836999999999"><ele>149.0</ele><time>2026-04-18T17:16:00.139Z</time></trkpt><trkpt lat="41.650004499999994" lon="13.253753166666668"><ele>149.0</ele><time>2026-04-18T17:16:01.137Z</time></trkpt><trkpt lat="41.650088666666676" lon="13.253646"><ele>149.0</ele><time>2026-04-18T17:16:02.138Z</time></trkpt><trkpt lat="41.650164833333335" lon="13.253523166666666"><ele>149.0</ele><time>2026-04-18T17:16:03.138Z</time></trkpt><trkpt lat="41.65024083333333" lon="13.253381833333332"><ele>149.0</ele><time>2026-04-18T17:16:04.135Z</time></trkpt><trkpt lat="41.65031683333333" lon="13.253233833333335"><ele>149.0</ele><time>2026-04-18T17:16:05.136Z</time></trkpt><trkpt lat="41.6503885" lon="13.253088666666667"><ele>149.0</ele><time>2026-04-18T17:16:06.136Z</time></trkpt><trkpt lat="41.65046" lon="13.252932"><ele>150.0</ele><time>2026-04-18T17:16:07.138Z</time></trkpt><trkpt lat="41.65052099999999" lon="13.252767500000001"><ele>151.0</ele><time>2026-04-18T17:16:08.142Z</time></trkpt><trkpt lat="41.65055983333333" lon="13.252600666666668"><ele>152.0</ele><time>2026-04-18T17:16:09.134Z</time></trkpt><trkpt lat="41.65057416666667" lon="13.252415499999998"><ele>153.0</ele><time>2026-04-18T17:16:10.126Z</time></trkpt><trkpt lat="41.65056316666667" lon="13.252232166666666"><ele>153.0</ele><time>2026-04-18T17:16:11.142Z</time></trkpt><trkpt lat="41.6504895" lon="13.2520635"><ele>153.0</ele><time>2026-04-18T17:16:12.146Z</time></trkpt><trkpt lat="41.65042133333333" lon="13.251892166666668"><ele>153.0</ele><time>2026-04-18T17:16:13.148Z</time></trkpt><trkpt lat="41.65032816666667" lon="13.2517495"><ele>153.0</ele><time>2026-04-18T17:16:14.137Z</time></trkpt><trkpt lat="41.65021050000001" lon="13.251633"><ele>152.5</ele><time>2026-04-18T17:16:15.137Z</time></trkpt><trkpt lat="41.65007233333334" lon="13.251553999999999"><ele>152.0</ele><time>2026-04-18T17:16:16.138Z</time></trkpt><trkpt lat="41.649927196152696" lon="13.25154431979576"><ele>151.5</ele><time>2026-04-18T17:16:17.138Z</time></trkpt><trkpt lat="41.64978314912915" lon="13.251563146834954"><ele>151.0</ele><time>2026-04-18T17:16:18.139Z</time></trkpt><trkpt lat="41.64964782438321" lon="13.25162582057163"><ele>151.0</ele><time>2026-04-18T17:16:19.135Z</time></trkpt><trkpt lat="41.649527930995816" lon="13.251711850812198"><ele>151.0</ele><time>2026-04-18T17:16:20.136Z</time></trkpt><trkpt lat="41.64941159621912" lon="13.251808367626543"><ele>151.0</ele><time>2026-04-18T17:16:21.138Z</time></trkpt><trkpt lat="41.64930554681806" lon="13.251911402229599"><ele>151.0</ele><time>2026-04-18T17:16:22.137Z</time></trkpt><trkpt lat="41.64921097380941" lon="13.252015911049972"><ele>150.8</ele><time>2026-04-18T17:16:23.148Z</time></trkpt><trkpt lat="41.649114990455416" lon="13.252124566119036"><ele>150.6</ele><time>2026-04-18T17:16:24.137Z</time></trkpt><trkpt lat="41.649026146653604" lon="13.252220119477254"><ele>150.4</ele><time>2026-04-18T17:16:25.138Z</time></trkpt><trkpt lat="41.648951753587454" lon="13.252299762023295"><ele>150.2</ele><time>2026-04-18T17:16:26.14Z</time></trkpt><trkpt lat="41.648888838425165" lon="13.252367080535326"><ele>150.0</ele><time>2026-04-18T17:16:27.14Z</time></trkpt><trkpt lat="41.6488356739703" lon="13.252423716982651"><ele>149.83333333333334</ele><time>2026-04-18T17:16:28.141Z</time></trkpt><trkpt lat="41.64875338664338" lon="13.252511378394924"><ele>149.66666666666666</ele><time>2026-04-18T17:16:30.151Z</time></trkpt><trkpt lat="41.64869988197162" lon="13.252568390299091"><ele>149.5</ele><time>2026-04-18T17:16:37.134Z</time></trkpt><trkpt lat="41.64864888527675" lon="13.252622864590261"><ele>149.33333333333331</ele><time>2026-04-18T17:16:39.139Z</time></trkpt><trkpt lat="41.64856089658433" lon="13.252716853436956"><ele>149.16666666666666</ele><time>2026-04-18T17:16:41.138Z</time></trkpt><trkpt lat="41.648505455685424" lon="13.252776074870418"><ele>149.0</ele><time>2026-04-18T17:16:42.138Z</time></trkpt><trkpt lat="41.648436008306135" lon="13.252850290373187"><ele>149.0</ele><time>2026-04-18T17:16:43.138Z</time></trkpt><trkpt lat="41.64835214564953" lon="13.252935507486967"><ele>149.0</ele><time>2026-04-18T17:16:44.137Z</time></trkpt><trkpt lat="41.64826212730371" lon="13.253022623964968"><ele>149.0</ele><time>2026-04-18T17:16:45.138Z</time></trkpt><trkpt lat="41.64816614596298" lon="13.253105915567248"><ele>149.0</ele><time>2026-04-18T17:16:46.134Z</time></trkpt><trkpt lat="41.64806224544031" lon="13.253192246863245"><ele>149.33333333333331</ele><time>2026-04-18T17:16:47.139Z</time></trkpt><trkpt lat="41.64777133333333" lon="13.25325783333333"><ele>149.66666666666666</ele><time>2026-04-18T17:16:49.141Z</time></trkpt><trkpt lat="41.64765383333333" lon="13.2533165"><ele>150.0</ele><time>2026-04-18T17:16:50.141Z</time></trkpt><trkpt lat="41.64751296374255" lon="13.253447690532147"><ele>150.0</ele><time>2026-04-18T17:16:51.144Z</time></trkpt><trkpt lat="41.647377707274934" lon="13.25347978613336"><ele>150.0</ele><time>2026-04-18T17:16:52.149Z</time></trkpt><trkpt lat="41.647231570779034" lon="13.253501994333051"><ele>150.0</ele><time>2026-04-18T17:16:53.133Z</time></trkpt><trkpt lat="41.64708121358698" lon="13.253511395928278"><ele>150.0</ele><time>2026-04-18T17:16:54.134Z</time></trkpt><trkpt lat="41.646921092475935" lon="13.253502073890056"><ele>147.5</ele><time>2026-04-18T17:16:55.143Z</time></trkpt><trkpt lat="41.64667616666667" lon="13.253082"><ele>145.0</ele><time>2026-04-18T17:16:57.138Z</time></trkpt><trkpt lat="41.646563" lon="13.252938166666668"><ele>145.0</ele><time>2026-04-18T17:16:58.138Z</time></trkpt><trkpt lat="41.64646599999999" lon="13.252768666666668"><ele>145.0</ele><time>2026-04-18T17:16:59.146Z</time></trkpt><trkpt lat="41.64638216666667" lon="13.252585500000002"><ele>145.0</ele><time>2026-04-18T17:17:00.138Z</time></trkpt><trkpt lat="41.6463355" lon="13.252372666666668"><ele>144.66666666666669</ele><time>2026-04-18T17:17:01.139Z</time></trkpt><trkpt lat="41.646297833333335" lon="13.252155166666666"><ele>144.33333333333334</ele><time>2026-04-18T17:17:02.136Z</time></trkpt><trkpt lat="41.646305333333345" lon="13.251927333333333"><ele>144.0</ele><time>2026-04-18T17:17:03.139Z</time></trkpt><trkpt lat="41.64633533333333" lon="13.251703999999998"><ele>144.0</ele><time>2026-04-18T17:17:04.137Z</time></trkpt><trkpt lat="41.64638450000001" lon="13.251489166666666"><ele>144.0</ele><time>2026-04-18T17:17:05.138Z</time></trkpt><trkpt lat="41.64644733333333" lon="13.251278833333332"><ele>144.0</ele><time>2026-04-18T17:17:06.141Z</time></trkpt><trkpt lat="41.64652116666666" lon="13.251071333333334"><ele>144.33333333333334</ele><time>2026-04-18T17:17:07.14Z</time></trkpt><trkpt lat="41.64660066666667" lon="13.250862"><ele>144.66666666666669</ele><time>2026-04-18T17:17:08.137Z</time></trkpt><trkpt lat="41.64668333333334" lon="13.250649333333335"><ele>145.0</ele><time>2026-04-18T17:17:09.14Z</time></trkpt><trkpt lat="41.6467485" lon="13.250421500000002"><ele>145.0</ele><time>2026-04-18T17:17:10.138Z</time></trkpt><trkpt lat="41.6468185" lon="13.25019016666667"><ele>145.0</ele><time>2026-04-18T17:17:11.138Z</time></trkpt><trkpt lat="41.64689966666666" lon="13.2499585"><ele>145.0</ele><time>2026-04-18T17:17:12.139Z</time></trkpt><trkpt lat="41.64699783333334" lon="13.24973783333333"><ele>145.33333333333334</ele><time>2026-04-18T17:17:13.14Z</time></trkpt><trkpt lat="41.64709616666667" lon="13.2495145"><ele>145.66666666666666</ele><time>2026-04-18T17:17:14.137Z</time></trkpt><trkpt lat="41.647196" lon="13.249280833333334"><ele>146.0</ele><time>2026-04-18T17:17:15.135Z</time></trkpt><trkpt lat="41.64729483333334" lon="13.249040333333335"><ele>146.0</ele><time>2026-04-18T17:17:16.14Z</time></trkpt><trkpt lat="41.64739733333332" lon="13.248780500000002"><ele>146.0</ele><time>2026-04-18T17:17:17.14Z</time></trkpt><trkpt lat="41.64750033333333" lon="13.248517333333334"><ele>146.0</ele><time>2026-04-18T17:17:18.138Z</time></trkpt><trkpt lat="41.64761166666667" lon="13.248236999999998"><ele>145.5</ele><time>2026-04-18T17:17:19.136Z</time></trkpt><trkpt lat="41.64773183333333" lon="13.247934666666668"><ele>145.0</ele><time>2026-04-18T17:17:20.139Z</time></trkpt><trkpt lat="41.64785066666667" lon="13.247638500000003"><ele>146.5</ele><time>2026-04-18T17:17:21.141Z</time></trkpt><trkpt lat="41.64797116666667" lon="13.247341666666667"><ele>148.0</ele><time>2026-04-18T17:17:22.138Z</time></trkpt><trkpt lat="41.64809566666666" lon="13.247039833333334"><ele>148.0</ele><time>2026-04-18T17:17:23.136Z</time></trkpt><trkpt lat="41.64821683333333" lon="13.246746000000002"><ele>148.0</ele><time>2026-04-18T17:17:24.14Z</time></trkpt><trkpt lat="41.648339166666666" lon="13.246445833333334"><ele>146.5</ele><time>2026-04-18T17:17:25.138Z</time></trkpt><trkpt lat="41.64846183333334" lon="13.246143666666667"><ele>145.0</ele><time>2026-04-18T17:17:26.135Z</time></trkpt><trkpt lat="41.64858283333333" lon="13.245844333333332"><ele>146.0</ele><time>2026-04-18T17:17:27.14Z</time></trkpt><trkpt lat="41.64870466666667" lon="13.245546000000001"><ele>147.0</ele><time>2026-04-18T17:17:28.136Z</time></trkpt><trkpt lat="41.648828" lon="13.245246166666666"><ele>147.0</ele><time>2026-04-18T17:17:29.139Z</time></trkpt><trkpt lat="41.64895333333334" lon="13.244944166666668"><ele>147.0</ele><time>2026-04-18T17:17:30.156Z</time></trkpt><trkpt lat="41.649080500000004" lon="13.244641333333334"><ele>147.5</ele><time>2026-04-18T17:17:31.138Z</time></trkpt><trkpt lat="41.649211833333325" lon="13.244338"><ele>148.0</ele><time>2026-04-18T17:17:32.136Z</time></trkpt><trkpt lat="41.649347000000006" lon="13.244038333333334"><ele>149.5</ele><time>2026-04-18T17:17:33.136Z</time></trkpt><trkpt lat="41.64948616666668" lon="13.243743833333333"><ele>151.0</ele><time>2026-04-18T17:17:34.137Z</time></trkpt><trkpt lat="41.649629000000004" lon="13.243452166666668"><ele>151.0</ele><time>2026-04-18T17:17:35.139Z</time></trkpt><trkpt lat="41.64977483333333" lon="13.243163333333333"><ele>151.0</ele><time>2026-04-18T17:17:36.14Z</time></trkpt><trkpt lat="41.64992350000001" lon="13.242876666666666"><ele>150.0</ele><time>2026-04-18T17:17:37.135Z</time></trkpt><trkpt lat="41.650075666666666" lon="13.24259033333333"><ele>149.0</ele><time>2026-04-18T17:17:38.135Z</time></trkpt><trkpt lat="41.650231500000004" lon="13.242305333333336"><ele>149.5</ele><time>2026-04-18T17:17:39.136Z</time></trkpt><trkpt lat="41.65039183333334" lon="13.242022833333332"><ele>150.0</ele><time>2026-04-18T17:17:40.135Z</time></trkpt><trkpt lat="41.65055483333334" lon="13.2417435"><ele>150.0</ele><time>2026-04-18T17:17:41.137Z</time></trkpt><trkpt lat="41.65072133333333" lon="13.241467166666666"><ele>150.0</ele><time>2026-04-18T17:17:42.14Z</time></trkpt><trkpt lat="41.65089216666667" lon="13.241194833333335"><ele>150.0</ele><time>2026-04-18T17:17:43.139Z</time></trkpt><trkpt lat="41.65106566666667" lon="13.240926333333334"><ele>150.0</ele><time>2026-04-18T17:17:44.134Z</time></trkpt><trkpt lat="41.65124233333332" lon="13.2406605"><ele>149.5</ele><time>2026-04-18T17:17:45.139Z</time></trkpt><trkpt lat="41.65142000000001" lon="13.240396166666669"><ele>149.0</ele><time>2026-04-18T17:17:46.136Z</time></trkpt><trkpt lat="41.651598" lon="13.240130666666667"><ele>149.0</ele><time>2026-04-18T17:17:47.133Z</time></trkpt><trkpt lat="41.651776500000004" lon="13.2398645"><ele>149.0</ele><time>2026-04-18T17:17:48.137Z</time></trkpt><trkpt lat="41.651955" lon="13.239598999999998"><ele>148.5</ele><time>2026-04-18T17:17:49.138Z</time></trkpt><trkpt lat="41.65213333333333" lon="13.239332666666668"><ele>148.0</ele><time>2026-04-18T17:17:50.142Z</time></trkpt><trkpt lat="41.652312333333334" lon="13.239066166666666"><ele>148.5</ele><time>2026-04-18T17:17:51.137Z</time></trkpt><trkpt lat="41.652491166666664" lon="13.238798333333333"><ele>149.0</ele><time>2026-04-18T17:17:52.138Z</time></trkpt><trkpt lat="41.65266833333333" lon="13.238533666666669"><ele>149.5</ele><time>2026-04-18T17:17:53.141Z</time></trkpt><trkpt lat="41.652850333333326" lon="13.238262166666667"><ele>150.0</ele><time>2026-04-18T17:17:54.135Z</time></trkpt><trkpt lat="41.65303600000001" lon="13.2379845"><ele>150.5</ele><time>2026-04-18T17:17:55.134Z</time></trkpt><trkpt lat="41.653219166666666" lon="13.237709500000001"><ele>151.0</ele><time>2026-04-18T17:17:56.135Z</time></trkpt><trkpt lat="41.65340333333334" lon="13.237432666666665"><ele>150.0</ele><time>2026-04-18T17:17:57.137Z</time></trkpt><trkpt lat="41.6535855" lon="13.237158666666668"><ele>149.0</ele><time>2026-04-18T17:17:58.137Z</time></trkpt><trkpt lat="41.653766499999996" lon="13.236886499999999"><ele>149.0</ele><time>2026-04-18T17:17:59.138Z</time></trkpt><trkpt lat="41.653945166666674" lon="13.236618166666664"><ele>149.0</ele><time>2026-04-18T17:18:00.135Z</time></trkpt><trkpt lat="41.654122333333326" lon="13.236353166666667"><ele>148.5</ele><time>2026-04-18T17:18:01.14Z</time></trkpt><trkpt lat="41.65429716666666" lon="13.236091666666669"><ele>148.0</ele><time>2026-04-18T17:18:02.135Z</time></trkpt><trkpt lat="41.654471666666666" lon="13.235832166666668"><ele>152.0</ele><time>2026-04-18T17:18:03.134Z</time></trkpt><trkpt lat="41.65464566666666" lon="13.235572333333334"><ele>156.0</ele><time>2026-04-18T17:18:04.135Z</time></trkpt><trkpt lat="41.65481883333334" lon="13.235310666666665"><ele>156.0</ele><time>2026-04-18T17:18:05.136Z</time></trkpt><trkpt lat="41.6549925" lon="13.235045333333334"><ele>156.0</ele><time>2026-04-18T17:18:06.132Z</time></trkpt><trkpt lat="41.65516766666666" lon="13.234773499999998"><ele>156.0</ele><time>2026-04-18T17:18:07.136Z</time></trkpt><trkpt lat="41.65534533333332" lon="13.234496000000002"><ele>156.0</ele><time>2026-04-18T17:18:08.138Z</time></trkpt><trkpt lat="41.655525999999995" lon="13.234213666666667"><ele>158.0</ele><time>2026-04-18T17:18:09.135Z</time></trkpt><trkpt lat="41.65570916666667" lon="13.233928166666665"><ele>160.0</ele><time>2026-04-18T17:18:10.137Z</time></trkpt><trkpt lat="41.65589583333333" lon="13.233641166666667"><ele>160.0</ele><time>2026-04-18T17:18:11.137Z</time></trkpt><trkpt lat="41.65608533333334" lon="13.233351999999996"><ele>160.0</ele><time>2026-04-18T17:18:12.134Z</time></trkpt><trkpt lat="41.656277333333335" lon="13.233061999999999"><ele>163.0</ele><time>2026-04-18T17:18:13.134Z</time></trkpt><trkpt lat="41.656471333333336" lon="13.232771"><ele>166.0</ele><time>2026-04-18T17:18:14.135Z</time></trkpt><trkpt lat="41.656667" lon="13.232478333333331"><ele>166.0</ele><time>2026-04-18T17:18:15.136Z</time></trkpt><trkpt lat="41.65686416666667" lon="13.232182666666665"><ele>166.0</ele><time>2026-04-18T17:18:16.137Z</time></trkpt><trkpt lat="41.65706266666666" lon="13.231884833333334"><ele>166.0</ele><time>2026-04-18T17:18:17.135Z</time></trkpt><trkpt lat="41.65726283333334" lon="13.2315835"><ele>166.0</ele><time>2026-04-18T17:18:18.135Z</time></trkpt><trkpt lat="41.65746216666666" lon="13.231284333333333"><ele>166.0</ele><time>2026-04-18T17:18:19.138Z</time></trkpt><trkpt lat="41.65766716666667" lon="13.230977666666668"><ele>166.0</ele><time>2026-04-18T17:18:20.134Z</time></trkpt><trkpt lat="41.65787483333334" lon="13.230666666666664"><ele>169.0</ele><time>2026-04-18T17:18:21.136Z</time></trkpt><trkpt lat="41.658081833333334" lon="13.230356166666665"><ele>172.0</ele><time>2026-04-18T17:18:22.135Z</time></trkpt><trkpt lat="41.658289333333336" lon="13.230044833333332"><ele>172.0</ele><time>2026-04-18T17:18:23.137Z</time></trkpt><trkpt lat="41.6584975" lon="13.229731666666664"><ele>172.0</ele><time>2026-04-18T17:18:24.135Z</time></trkpt><trkpt lat="41.65870516666667" lon="13.229420166666667"><ele>173.0</ele><time>2026-04-18T17:18:25.136Z</time></trkpt><trkpt lat="41.65891416666667" lon="13.229106166666668"><ele>174.0</ele><time>2026-04-18T17:18:26.135Z</time></trkpt><trkpt lat="41.659124999999996" lon="13.228789333333333"><ele>177.0</ele><time>2026-04-18T17:18:27.135Z</time></trkpt><trkpt lat="41.65933416666667" lon="13.228473000000001"><ele>180.0</ele><time>2026-04-18T17:18:28.138Z</time></trkpt><trkpt lat="41.659545166666675" lon="13.228154833333333"><ele>182.5</ele><time>2026-04-18T17:18:29.139Z</time></trkpt><trkpt lat="41.659756333333334" lon="13.227835333333333"><ele>185.0</ele><time>2026-04-18T17:18:30.152Z</time></trkpt><trkpt lat="41.65996533333334" lon="13.2275185"><ele>190.5</ele><time>2026-04-18T17:18:31.139Z</time></trkpt><trkpt lat="41.660176" lon="13.227200166666668"><ele>196.0</ele><time>2026-04-18T17:18:32.138Z</time></trkpt><trkpt lat="41.66037583333333" lon="13.226898833333333"><ele>196.0</ele><time>2026-04-18T17:18:33.137Z</time></trkpt><trkpt lat="41.6605955" lon="13.226567333333332"><ele>196.0</ele><time>2026-04-18T17:18:34.135Z</time></trkpt><trkpt lat="41.660804999999996" lon="13.226253166666668"><ele>197.5</ele><time>2026-04-18T17:18:35.133Z</time></trkpt><trkpt lat="41.66101416666667" lon="13.225939166666667"><ele>199.0</ele><time>2026-04-18T17:18:36.135Z</time></trkpt><trkpt lat="41.66122283333333" lon="13.225626166666666"><ele>199.5</ele><time>2026-04-18T17:18:37.137Z</time></trkpt><trkpt lat="41.661429" lon="13.225314666666668"><ele>200.0</ele><time>2026-04-18T17:18:38.137Z</time></trkpt><trkpt lat="41.66163516666668" lon="13.225005666666666"><ele>200.5</ele><time>2026-04-18T17:18:39.135Z</time></trkpt><trkpt lat="41.66183266666667" lon="13.224710333333332"><ele>201.0</ele><time>2026-04-18T17:18:40.133Z</time></trkpt><trkpt lat="41.662041" lon="13.224399333333333"><ele>202.0</ele><time>2026-04-18T17:18:41.135Z</time></trkpt><trkpt lat="41.662237000000005" lon="13.224108166666667"><ele>203.0</ele><time>2026-04-18T17:18:42.134Z</time></trkpt><trkpt lat="41.66244283333334" lon="13.223806166666668"><ele>203.0</ele><time>2026-04-18T17:18:43.139Z</time></trkpt><trkpt lat="41.662648999999995" lon="13.223503666666666"><ele>203.0</ele><time>2026-04-18T17:18:44.14Z</time></trkpt><trkpt lat="41.66284316666667" lon="13.223219166666668"><ele>204.5</ele><time>2026-04-18T17:18:45.143Z</time></trkpt><trkpt lat="41.66304616666667" lon="13.222921166666666"><ele>206.0</ele><time>2026-04-18T17:18:46.138Z</time></trkpt><trkpt lat="41.66324899999999" lon="13.222622833333332"><ele>206.0</ele><time>2026-04-18T17:18:47.136Z</time></trkpt><trkpt lat="41.66344083333333" lon="13.222340166666667"><ele>206.0</ele><time>2026-04-18T17:18:48.14Z</time></trkpt><trkpt lat="41.66364" lon="13.222045166666664"><ele>206.0</ele><time>2026-04-18T17:18:49.139Z</time></trkpt><trkpt lat="41.663839333333335" lon="13.221749333333333"><ele>206.0</ele><time>2026-04-18T17:18:50.141Z</time></trkpt><trkpt lat="41.66402816666667" lon="13.221469666666668"><ele>206.0</ele><time>2026-04-18T17:18:51.136Z</time></trkpt><trkpt lat="41.664224166666656" lon="13.221177833333336"><ele>206.0</ele><time>2026-04-18T17:18:52.137Z</time></trkpt><trkpt lat="41.66442" lon="13.220884999999999"><ele>207.0</ele><time>2026-04-18T17:18:53.134Z</time></trkpt><trkpt lat="41.66460566666666" lon="13.220608166666667"><ele>208.0</ele><time>2026-04-18T17:18:54.135Z</time></trkpt><trkpt lat="41.66479916666667" lon="13.220318833333334"><ele>208.0</ele><time>2026-04-18T17:18:55.134Z</time></trkpt><trkpt lat="41.66499350000001" lon="13.220027666666665"><ele>208.0</ele><time>2026-04-18T17:18:56.134Z</time></trkpt><trkpt lat="41.665178166666664" lon="13.219751666666665"><ele>210.0</ele><time>2026-04-18T17:18:57.135Z</time></trkpt><trkpt lat="41.66537050000001" lon="13.219463333333334"><ele>212.0</ele><time>2026-04-18T17:18:58.135Z</time></trkpt><trkpt lat="41.66556466666666" lon="13.219171833333332"><ele>212.0</ele><time>2026-04-18T17:18:59.135Z</time></trkpt><trkpt lat="41.665748666666666" lon="13.21889483333333"><ele>212.0</ele><time>2026-04-18T17:19:00.135Z</time></trkpt><trkpt lat="41.665941499999995" lon="13.218605333333334"><ele>211.5</ele><time>2026-04-18T17:19:01.135Z</time></trkpt><trkpt lat="41.66613583333333" lon="13.218313666666667"><ele>211.0</ele><time>2026-04-18T17:19:02.134Z</time></trkpt><trkpt lat="41.66632033333334" lon="13.218037"><ele>212.0</ele><time>2026-04-18T17:19:03.136Z</time></trkpt><trkpt lat="41.666513" lon="13.217747999999998"><ele>213.0</ele><time>2026-04-18T17:19:04.132Z</time></trkpt><trkpt lat="41.66670766666666" lon="13.217456"><ele>215.0</ele><time>2026-04-18T17:19:05.135Z</time></trkpt><trkpt lat="41.66689216666667" lon="13.217178666666666"><ele>217.0</ele><time>2026-04-18T17:19:06.136Z</time></trkpt><trkpt lat="41.66708583333334" lon="13.216888500000001"><ele>217.5</ele><time>2026-04-18T17:19:07.135Z</time></trkpt><trkpt lat="41.667275833333335" lon="13.216603666666666"><ele>218.0</ele><time>2026-04-18T17:19:08.134Z</time></trkpt><trkpt lat="41.66746816666667" lon="13.216314666666664"><ele>218.5</ele><time>2026-04-18T17:19:09.131Z</time></trkpt><trkpt lat="41.66766316666667" lon="13.216021333333334"><ele>219.0</ele><time>2026-04-18T17:19:10.137Z</time></trkpt><trkpt lat="41.66785633333334" lon="13.215735500000001"><ele>217.5</ele><time>2026-04-18T17:19:11.136Z</time></trkpt><trkpt lat="41.66805233333333" lon="13.215444999999999"><ele>216.0</ele><time>2026-04-18T17:19:12.136Z</time></trkpt><trkpt lat="41.66825099999999" lon="13.215149166666667"><ele>216.0</ele><time>2026-04-18T17:19:13.137Z</time></trkpt><trkpt lat="41.66844433333334" lon="13.214859666666667"><ele>216.0</ele><time>2026-04-18T17:19:14.136Z</time></trkpt><trkpt lat="41.66863983333332" lon="13.214567"><ele>216.0</ele><time>2026-04-18T17:19:15.133Z</time></trkpt><trkpt lat="41.66883783333333" lon="13.214270333333332"><ele>216.0</ele><time>2026-04-18T17:19:16.137Z</time></trkpt><trkpt lat="41.66903000000001" lon="13.213981166666668"><ele>217.5</ele><time>2026-04-18T17:19:17.137Z</time></trkpt><trkpt lat="41.66922516666666" lon="13.213688500000002"><ele>219.0</ele><time>2026-04-18T17:19:18.135Z</time></trkpt><trkpt lat="41.66942266666667" lon="13.2133935"><ele>219.0</ele><time>2026-04-18T17:19:19.137Z</time></trkpt><trkpt lat="41.66961549999999" lon="13.213105"><ele>219.0</ele><time>2026-04-18T17:19:20.136Z</time></trkpt><trkpt lat="41.669810000000005" lon="13.212812333333334"><ele>219.0</ele><time>2026-04-18T17:19:21.137Z</time></trkpt><trkpt lat="41.6700065" lon="13.212516999999998"><ele>219.0</ele><time>2026-04-18T17:19:22.133Z</time></trkpt><trkpt lat="41.67019833333334" lon="13.212228333333332"><ele>217.0</ele><time>2026-04-18T17:19:23.135Z</time></trkpt><trkpt lat="41.670392166666666" lon="13.211937166666667"><ele>215.0</ele><time>2026-04-18T17:19:24.135Z</time></trkpt><trkpt lat="41.670588333333335" lon="13.211642833333332"><ele>216.0</ele><time>2026-04-18T17:19:25.14Z</time></trkpt><trkpt lat="41.67077899999999" lon="13.211355166666666"><ele>217.0</ele><time>2026-04-18T17:19:26.135Z</time></trkpt><trkpt lat="41.670972666666664" lon="13.211064166666665"><ele>217.0</ele><time>2026-04-18T17:19:27.136Z</time></trkpt><trkpt lat="41.67116883333333" lon="13.2107695"><ele>217.0</ele><time>2026-04-18T17:19:28.136Z</time></trkpt><trkpt lat="41.67136050000001" lon="13.210480833333333"><ele>217.5</ele><time>2026-04-18T17:19:29.144Z</time></trkpt><trkpt lat="41.67157699999999" lon="13.210156666666668"><ele>218.0</ele><time>2026-04-18T17:19:30.154Z</time></trkpt><trkpt lat="41.67175333333333" lon="13.209893833333336"><ele>219.5</ele><time>2026-04-18T17:19:31.136Z</time></trkpt><trkpt lat="41.67194933333334" lon="13.209605500000002"><ele>221.0</ele><time>2026-04-18T17:19:32.137Z</time></trkpt><trkpt lat="41.672149999999995" lon="13.209311999999999"><ele>221.0</ele><time>2026-04-18T17:19:33.134Z</time></trkpt><trkpt lat="41.67235399999999" lon="13.20901416666667"><ele>221.0</ele><time>2026-04-18T17:19:34.137Z</time></trkpt><trkpt lat="41.67255466666667" lon="13.208722333333332"><ele>221.5</ele><time>2026-04-18T17:19:35.136Z</time></trkpt><trkpt lat="41.67275800000001" lon="13.208427166666668"><ele>222.0</ele><time>2026-04-18T17:19:36.138Z</time></trkpt><trkpt lat="41.67296233333334" lon="13.208124833333333"><ele>221.0</ele><time>2026-04-18T17:19:37.136Z</time></trkpt><trkpt lat="41.67316283333333" lon="13.207826"><ele>220.0</ele><time>2026-04-18T17:19:38.137Z</time></trkpt><trkpt lat="41.673365166666656" lon="13.207523833333333"><ele>220.0</ele><time>2026-04-18T17:19:39.137Z</time></trkpt><trkpt lat="41.67356899999999" lon="13.207218"><ele>220.0</ele><time>2026-04-18T17:19:40.136Z</time></trkpt><trkpt lat="41.67376816666666" lon="13.206919166666667"><ele>220.0</ele><time>2026-04-18T17:19:41.137Z</time></trkpt><trkpt lat="41.673969166666666" lon="13.206618333333331"><ele>220.0</ele><time>2026-04-18T17:19:42.136Z</time></trkpt><trkpt lat="41.67417149999999" lon="13.206313166666666"><ele>220.0</ele><time>2026-04-18T17:19:43.137Z</time></trkpt><trkpt lat="41.6743695" lon="13.206014333333332"><ele>220.0</ele><time>2026-04-18T17:19:44.135Z</time></trkpt><trkpt lat="41.67457033333333" lon="13.205712000000002"><ele>220.5</ele><time>2026-04-18T17:19:45.138Z</time></trkpt><trkpt lat="41.67477350000001" lon="13.205406666666667"><ele>221.0</ele><time>2026-04-18T17:19:46.136Z</time></trkpt><trkpt lat="41.67497216666667" lon="13.205107166666668"><ele>221.0</ele><time>2026-04-18T17:19:47.136Z</time></trkpt><trkpt lat="41.67517266666667" lon="13.204803833333335"><ele>221.0</ele><time>2026-04-18T17:19:48.136Z</time></trkpt><trkpt lat="41.67537383333334" lon="13.204500499999998"><ele>220.5</ele><time>2026-04-18T17:19:49.138Z</time></trkpt><trkpt lat="41.67557566666666" lon="13.204197166666667"><ele>220.0</ele><time>2026-04-18T17:19:50.133Z</time></trkpt><trkpt lat="41.675778333333334" lon="13.203892833333335"><ele>221.0</ele><time>2026-04-18T17:19:51.135Z</time></trkpt><trkpt lat="41.67598133333333" lon="13.203589499999998"><ele>222.0</ele><time>2026-04-18T17:19:52.14Z</time></trkpt><trkpt lat="41.6762045" lon="13.203255666666665"><ele>222.5</ele><time>2026-04-18T17:19:53.14Z</time></trkpt><trkpt lat="41.67638733333333" lon="13.202982333333333"><ele>223.0</ele><time>2026-04-18T17:19:54.136Z</time></trkpt><trkpt lat="41.67659066666667" lon="13.202677166666668"><ele>223.0</ele><time>2026-04-18T17:19:55.137Z</time></trkpt><trkpt lat="41.67679283333334" lon="13.202371833333332"><ele>223.0</ele><time>2026-04-18T17:19:56.136Z</time></trkpt><trkpt lat="41.67701583333334" lon="13.202036166666668"><ele>222.5</ele><time>2026-04-18T17:19:57.137Z</time></trkpt><trkpt lat="41.677218499999995" lon="13.201731333333331"><ele>222.0</ele><time>2026-04-18T17:19:58.139Z</time></trkpt><trkpt lat="41.67742016666666" lon="13.201428166666668"><ele>223.0</ele><time>2026-04-18T17:19:59.136Z</time></trkpt><trkpt lat="41.67762166666667" lon="13.201125166666667"><ele>224.0</ele><time>2026-04-18T17:20:00.136Z</time></trkpt><trkpt lat="41.67782233333334" lon="13.200823166666664"><ele>223.0</ele><time>2026-04-18T17:20:01.138Z</time></trkpt><trkpt lat="41.67802016666666" lon="13.200525999999998"><ele>222.0</ele><time>2026-04-18T17:20:02.133Z</time></trkpt><trkpt lat="41.67821683333333" lon="13.200231333333333"><ele>222.0</ele><time>2026-04-18T17:20:03.136Z</time></trkpt><trkpt lat="41.678416166666665" lon="13.199933"><ele>222.0</ele><time>2026-04-18T17:20:04.135Z</time></trkpt><trkpt lat="41.67861783333333" lon="13.199632333333332"><ele>224.0</ele><time>2026-04-18T17:20:05.137Z</time></trkpt><trkpt lat="41.6788145" lon="13.199337833333335"><ele>226.0</ele><time>2026-04-18T17:20:06.136Z</time></trkpt><trkpt lat="41.67901383333333" lon="13.199039999999998"><ele>224.5</ele><time>2026-04-18T17:20:07.137Z</time></trkpt><trkpt lat="41.67921549999999" lon="13.198738666666667"><ele>223.0</ele><time>2026-04-18T17:20:08.136Z</time></trkpt><trkpt lat="41.679413499999995" lon="13.198442166666666"><ele>227.0</ele><time>2026-04-18T17:20:09.137Z</time></trkpt><trkpt lat="41.679615" lon="13.19813933333333"><ele>231.0</ele><time>2026-04-18T17:20:10.137Z</time></trkpt><trkpt lat="41.679820166666666" lon="13.197829999999998"><ele>231.0</ele><time>2026-04-18T17:20:11.136Z</time></trkpt><trkpt lat="41.68002133333333" lon="13.197526000000002"><ele>231.0</ele><time>2026-04-18T17:20:12.135Z</time></trkpt><trkpt lat="41.68022583333333" lon="13.197216833333334"><ele>233.5</ele><time>2026-04-18T17:20:13.138Z</time></trkpt><trkpt lat="41.68043333333333" lon="13.196902333333332"><ele>236.0</ele><time>2026-04-18T17:20:14.134Z</time></trkpt><trkpt lat="41.680636166666666" lon="13.196594999999997"><ele>234.5</ele><time>2026-04-18T17:20:15.137Z</time></trkpt><trkpt lat="41.680843" lon="13.196283000000001"><ele>233.0</ele><time>2026-04-18T17:20:16.132Z</time></trkpt><trkpt lat="41.68105283333333" lon="13.195967666666665"><ele>234.0</ele><time>2026-04-18T17:20:17.133Z</time></trkpt><trkpt lat="41.68125733333333" lon="13.195660166666668"><ele>235.0</ele><time>2026-04-18T17:20:18.133Z</time></trkpt><trkpt lat="41.68146466666667" lon="13.195347833333335"><ele>235.0</ele><time>2026-04-18T17:20:19.134Z</time></trkpt><trkpt lat="41.68167483333333" lon="13.195031333333334"><ele>235.0</ele><time>2026-04-18T17:20:20.142Z</time></trkpt><trkpt lat="41.68187983333333" lon="13.194723166666664"><ele>236.5</ele><time>2026-04-18T17:20:21.136Z</time></trkpt><trkpt lat="41.68208816666667" lon="13.19441083333333"><ele>238.0</ele><time>2026-04-18T17:20:22.134Z</time></trkpt><trkpt lat="41.68229933333333" lon="13.194094333333332"><ele>238.5</ele><time>2026-04-18T17:20:23.135Z</time></trkpt><trkpt lat="41.682505333333324" lon="13.193784666666666"><ele>239.0</ele><time>2026-04-18T17:20:24.132Z</time></trkpt><trkpt lat="41.68271383333334" lon="13.193470999999999"><ele>242.5</ele><time>2026-04-18T17:20:25.137Z</time></trkpt><trkpt lat="41.68292233333334" lon="13.193159500000002"><ele>246.0</ele><time>2026-04-18T17:20:26.135Z</time></trkpt><trkpt lat="41.68313216666667" lon="13.192847666666667"><ele>246.0</ele><time>2026-04-18T17:20:27.136Z</time></trkpt><trkpt lat="41.683341" lon="13.192536166666667"><ele>246.0</ele><time>2026-04-18T17:20:28.132Z</time></trkpt><trkpt lat="41.68354933333333" lon="13.192223833333333"><ele>248.5</ele><time>2026-04-18T17:20:29.136Z</time></trkpt><trkpt lat="41.683757" lon="13.191911666666666"><ele>251.0</ele><time>2026-04-18T17:20:30.15Z</time></trkpt><trkpt lat="41.683964" lon="13.191600166666667"><ele>250.0</ele><time>2026-04-18T17:20:31.128Z</time></trkpt><trkpt lat="41.68417266666667" lon="13.191288166666666"><ele>249.0</ele><time>2026-04-18T17:20:32.13Z</time></trkpt><trkpt lat="41.68438133333334" lon="13.190977000000002"><ele>247.0</ele><time>2026-04-18T17:20:33.136Z</time></trkpt><trkpt lat="41.68458999999999" lon="13.190665833333332"><ele>245.0</ele><time>2026-04-18T17:20:34.135Z</time></trkpt><trkpt lat="41.684798666666666" lon="13.190354666666666"><ele>245.0</ele><time>2026-04-18T17:20:35.135Z</time></trkpt><trkpt lat="41.68500699999999" lon="13.190042333333334"><ele>245.0</ele><time>2026-04-18T17:20:36.136Z</time></trkpt><trkpt lat="41.68521616666667" lon="13.189728833333334"><ele>244.5</ele><time>2026-04-18T17:20:37.133Z</time></trkpt><trkpt lat="41.68542550000001" lon="13.189414333333332"><ele>244.0</ele><time>2026-04-18T17:20:38.138Z</time></trkpt><trkpt lat="41.685634666666665" lon="13.189098833333333"><ele>243.5</ele><time>2026-04-18T17:20:39.138Z</time></trkpt><trkpt lat="41.685844333333335" lon="13.188782"><ele>243.0</ele><time>2026-04-18T17:20:40.137Z</time></trkpt><trkpt lat="41.686054166666665" lon="13.188465166666667"><ele>243.0</ele><time>2026-04-18T17:20:41.141Z</time></trkpt><trkpt lat="41.6862645" lon="13.1881485"><ele>243.0</ele><time>2026-04-18T17:20:42.136Z</time></trkpt><trkpt lat="41.686425166666666" lon="13.187783000000001"><ele>243.0</ele><time>2026-04-18T17:20:43.136Z</time></trkpt><trkpt lat="41.68664633333333" lon="13.187474333333332"><ele>243.0</ele><time>2026-04-18T17:20:44.137Z</time></trkpt><trkpt lat="41.68686266666667" lon="13.187159999999997"><ele>242.5</ele><time>2026-04-18T17:20:45.138Z</time></trkpt><trkpt lat="41.68707433333334" lon="13.186840833333333"><ele>242.0</ele><time>2026-04-18T17:20:46.137Z</time></trkpt><trkpt lat="41.68728116666666" lon="13.18651466666667"><ele>241.5</ele><time>2026-04-18T17:20:47.136Z</time></trkpt><trkpt lat="41.68748399999999" lon="13.186184500000001"><ele>241.0</ele><time>2026-04-18T17:20:48.138Z</time></trkpt><trkpt lat="41.68768316666666" lon="13.185850166666668"><ele>242.5</ele><time>2026-04-18T17:20:49.138Z</time></trkpt><trkpt lat="41.68787916666666" lon="13.185514166666668"><ele>244.0</ele><time>2026-04-18T17:20:50.135Z</time></trkpt><trkpt lat="41.68807233333334" lon="13.185175333333332"><ele>243.0</ele><time>2026-04-18T17:20:51.136Z</time></trkpt><trkpt lat="41.68826266666667" lon="13.184834999999998"><ele>242.0</ele><time>2026-04-18T17:20:52.139Z</time></trkpt><trkpt lat="41.68844833333333" lon="13.184499833333332"><ele>243.0</ele><time>2026-04-18T17:20:53.136Z</time></trkpt><trkpt lat="41.68863533333334" lon="13.184156666666668"><ele>244.0</ele><time>2026-04-18T17:20:54.136Z</time></trkpt><trkpt lat="41.688821499999996" lon="13.183809666666665"><ele>240.0</ele><time>2026-04-18T17:20:55.137Z</time></trkpt><trkpt lat="41.68900166666667" lon="13.183468666666666"><ele>236.0</ele><time>2026-04-18T17:20:56.136Z</time></trkpt><trkpt lat="41.68918133333334" lon="13.183122166666665"><ele>237.5</ele><time>2026-04-18T17:20:57.141Z</time></trkpt><trkpt lat="41.68936133333333" lon="13.182771500000001"><ele>239.0</ele><time>2026-04-18T17:20:58.146Z</time></trkpt><trkpt lat="41.68953499999999" lon="13.182426666666668"><ele>233.0</ele><time>2026-04-18T17:20:59.137Z</time></trkpt><trkpt lat="41.68970816666666" lon="13.182076833333333"><ele>227.0</ele><time>2026-04-18T17:21:00.134Z</time></trkpt><trkpt lat="41.689879999999995" lon="13.181725666666667"><ele>225.5</ele><time>2026-04-18T17:21:01.139Z</time></trkpt><trkpt lat="41.69005266666666" lon="13.181375500000001"><ele>224.0</ele><time>2026-04-18T17:21:02.136Z</time></trkpt><trkpt lat="41.69022533333333" lon="13.181024833333334"><ele>223.0</ele><time>2026-04-18T17:21:03.138Z</time></trkpt><trkpt lat="41.69039766666666" lon="13.180675666666666"><ele>222.0</ele><time>2026-04-18T17:21:04.137Z</time></trkpt><trkpt lat="41.6905705" lon="13.180325999999999"><ele>222.0</ele><time>2026-04-18T17:21:05.137Z</time></trkpt><trkpt lat="41.69074233333335" lon="13.179976833333335"><ele>222.0</ele><time>2026-04-18T17:21:06.136Z</time></trkpt><trkpt lat="41.690913833333326" lon="13.179627166666666"><ele>222.0</ele><time>2026-04-18T17:21:07.142Z</time></trkpt><trkpt lat="41.691084333333336" lon="13.179277333333335"><ele>222.0</ele><time>2026-04-18T17:21:08.136Z</time></trkpt><trkpt lat="41.691253833333334" lon="13.178928166666667"><ele>222.0</ele><time>2026-04-18T17:21:09.136Z</time></trkpt><trkpt lat="41.691424000000005" lon="13.178578833333333"><ele>222.0</ele><time>2026-04-18T17:21:10.137Z</time></trkpt><trkpt lat="41.69159366666666" lon="13.17823"><ele>221.5</ele><time>2026-04-18T17:21:11.137Z</time></trkpt><trkpt lat="41.691763333333334" lon="13.177881500000002"><ele>221.0</ele><time>2026-04-18T17:21:12.145Z</time></trkpt><trkpt lat="41.691933333333324" lon="13.177533666666667"><ele>219.0</ele><time>2026-04-18T17:21:13.137Z</time></trkpt><trkpt lat="41.692104833333325" lon="13.177185333333334"><ele>217.0</ele><time>2026-04-18T17:21:14.138Z</time></trkpt><trkpt lat="41.692277166666656" lon="13.176838166666668"><ele>216.0</ele><time>2026-04-18T17:21:15.14Z</time></trkpt><trkpt lat="41.69245133333333" lon="13.176492166666668"><ele>215.0</ele><time>2026-04-18T17:21:16.137Z</time></trkpt><trkpt lat="41.692627666666674" lon="13.176146000000001"><ele>217.0</ele><time>2026-04-18T17:21:17.137Z</time></trkpt><trkpt lat="41.692805" lon="13.175799999999999"><ele>219.0</ele><time>2026-04-18T17:21:18.135Z</time></trkpt><trkpt lat="41.69298116666668" lon="13.175452666666668"><ele>219.0</ele><time>2026-04-18T17:21:19.138Z</time></trkpt><trkpt lat="41.693156" lon="13.175104166666666"><ele>219.0</ele><time>2026-04-18T17:21:20.136Z</time></trkpt><trkpt lat="41.69332883333333" lon="13.174753833333334"><ele>219.5</ele><time>2026-04-18T17:21:21.138Z</time></trkpt><trkpt lat="41.69349966666667" lon="13.174404499999998"><ele>220.0</ele><time>2026-04-18T17:21:22.136Z</time></trkpt><trkpt lat="41.693670833333336" lon="13.17405216666667"><ele>216.5</ele><time>2026-04-18T17:21:23.136Z</time></trkpt><trkpt lat="41.69384316666666" lon="13.173700166666666"><ele>213.0</ele><time>2026-04-18T17:21:24.137Z</time></trkpt><trkpt lat="41.69401616666667" lon="13.173348833333334"><ele>212.0</ele><time>2026-04-18T17:21:25.137Z</time></trkpt><trkpt lat="41.69418900000001" lon="13.172997999999998"><ele>211.0</ele><time>2026-04-18T17:21:26.136Z</time></trkpt><trkpt lat="41.69436133333334" lon="13.172646833333333"><ele>210.5</ele><time>2026-04-18T17:21:27.137Z</time></trkpt><trkpt lat="41.694532833333334" lon="13.172295"><ele>210.0</ele><time>2026-04-18T17:21:28.138Z</time></trkpt><trkpt lat="41.69470450000001" lon="13.171943833333335"><ele>210.0</ele><time>2026-04-18T17:21:29.138Z</time></trkpt><trkpt lat="41.69487566666666" lon="13.171593166666666"><ele>210.0</ele><time>2026-04-18T17:21:30.154Z</time></trkpt><trkpt lat="41.69504499999999" lon="13.171243666666665"><ele>208.5</ele><time>2026-04-18T17:21:31.14Z</time></trkpt><trkpt lat="41.69521516666667" lon="13.170894333333335"><ele>207.0</ele><time>2026-04-18T17:21:32.134Z</time></trkpt><trkpt lat="41.69537666666667" lon="13.170561666666666"><ele>207.0</ele><time>2026-04-18T17:21:33.134Z</time></trkpt><trkpt lat="41.69554783333333" lon="13.170209166666666"><ele>207.0</ele><time>2026-04-18T17:21:34.137Z</time></trkpt><trkpt lat="41.69572216666668" lon="13.169852500000001"><ele>207.0</ele><time>2026-04-18T17:21:35.136Z</time></trkpt><trkpt lat="41.69588883333333" lon="13.169512333333333"><ele>207.0</ele><time>2026-04-18T17:21:36.136Z</time></trkpt><trkpt lat="41.69606083333333" lon="13.169161000000003"><ele>207.5</ele><time>2026-04-18T17:21:37.137Z</time></trkpt><trkpt lat="41.696235666666674" lon="13.168804333333332"><ele>208.0</ele><time>2026-04-18T17:21:38.137Z</time></trkpt><trkpt lat="41.696402666666664" lon="13.1684635"><ele>208.0</ele><time>2026-04-18T17:21:39.135Z</time></trkpt><trkpt lat="41.696575333333335" lon="13.168110166666667"><ele>208.0</ele><time>2026-04-18T17:21:40.133Z</time></trkpt><trkpt lat="41.69675033333333" lon="13.167751500000001"><ele>208.0</ele><time>2026-04-18T17:21:41.142Z</time></trkpt><trkpt lat="41.696916166666675" lon="13.167409333333334"><ele>208.0</ele><time>2026-04-18T17:21:42.137Z</time></trkpt><trkpt lat="41.697089000000005" lon="13.167055999999999"><ele>208.5</ele><time>2026-04-18T17:21:43.138Z</time></trkpt><trkpt lat="41.69726466666666" lon="13.166698166666666"><ele>209.0</ele><time>2026-04-18T17:21:44.136Z</time></trkpt><trkpt lat="41.697432" lon="13.1663555"><ele>209.0</ele><time>2026-04-18T17:21:45.137Z</time></trkpt><trkpt lat="41.6976045" lon="13.166000166666667"><ele>209.0</ele><time>2026-04-18T17:21:46.136Z</time></trkpt><trkpt lat="41.69777900000001" lon="13.165640499999999"><ele>207.5</ele><time>2026-04-18T17:21:47.136Z</time></trkpt><trkpt lat="41.697945833333335" lon="13.165296999999997"><ele>206.0</ele><time>2026-04-18T17:21:48.138Z</time></trkpt><trkpt lat="41.6981185" lon="13.164943000000001"><ele>206.5</ele><time>2026-04-18T17:21:49.137Z</time></trkpt><trkpt lat="41.69829316666666" lon="13.164585499999998"><ele>207.0</ele><time>2026-04-18T17:21:50.137Z</time></trkpt><trkpt lat="41.698459333333325" lon="13.164246166666665"><ele>208.0</ele><time>2026-04-18T17:21:51.134Z</time></trkpt><trkpt lat="41.69863216666666" lon="13.1638955"><ele>209.0</ele><time>2026-04-18T17:21:52.137Z</time></trkpt><trkpt lat="41.698806333333344" lon="13.163541666666667"><ele>209.0</ele><time>2026-04-18T17:21:53.137Z</time></trkpt><trkpt lat="41.69897233333333" lon="13.163203833333334"><ele>209.0</ele><time>2026-04-18T17:21:54.138Z</time></trkpt><trkpt lat="41.69914416666667" lon="13.162854166666667"><ele>209.5</ele><time>2026-04-18T17:21:55.138Z</time></trkpt><trkpt lat="41.69931783333333" lon="13.162499333333335"><ele>210.0</ele><time>2026-04-18T17:21:56.136Z</time></trkpt><trkpt lat="41.69948349999999" lon="13.1621605"><ele>211.0</ele><time>2026-04-18T17:21:57.138Z</time></trkpt><trkpt lat="41.69965516666666" lon="13.16181"><ele>212.0</ele><time>2026-04-18T17:21:58.136Z</time></trkpt><trkpt lat="41.699829" lon="13.161454499999998"><ele>212.5</ele><time>2026-04-18T17:21:59.134Z</time></trkpt><trkpt lat="41.699994333333336" lon="13.161113333333335"><ele>213.0</ele><time>2026-04-18T17:22:00.136Z</time></trkpt><trkpt lat="41.700165333333345" lon="13.160760166666668"><ele>214.0</ele><time>2026-04-18T17:22:01.137Z</time></trkpt><trkpt lat="41.7003385" lon="13.160402"><ele>215.0</ele><time>2026-04-18T17:22:02.132Z</time></trkpt><trkpt lat="41.70050466666667" lon="13.160059999999998"><ele>215.0</ele><time>2026-04-18T17:22:03.135Z</time></trkpt><trkpt lat="41.70067716666667" lon="13.159705833333332"><ele>215.0</ele><time>2026-04-18T17:22:04.134Z</time></trkpt><trkpt lat="41.70085233333333" lon="13.1593475"><ele>216.0</ele><time>2026-04-18T17:22:05.134Z</time></trkpt><trkpt lat="41.70101966666667" lon="13.159005166666669"><ele>217.0</ele><time>2026-04-18T17:22:06.137Z</time></trkpt><trkpt lat="41.701194" lon="13.15865"><ele>216.5</ele><time>2026-04-18T17:22:07.135Z</time></trkpt><trkpt lat="41.7013705" lon="13.158290333333332"><ele>216.0</ele><time>2026-04-18T17:22:08.135Z</time></trkpt><trkpt lat="41.701538666666664" lon="13.157947000000002"><ele>216.0</ele><time>2026-04-18T17:22:09.133Z</time></trkpt><trkpt lat="41.70171233333333" lon="13.157591166666668"><ele>216.0</ele><time>2026-04-18T17:22:10.134Z</time></trkpt><trkpt lat="41.701884333333325" lon="13.157239333333333"><ele>216.0</ele><time>2026-04-18T17:22:11.135Z</time></trkpt><trkpt lat="41.702057333333336" lon="13.1568845"><ele>216.0</ele><time>2026-04-18T17:22:12.136Z</time></trkpt><trkpt lat="41.70223083333334" lon="13.156527666666667"><ele>216.0</ele><time>2026-04-18T17:22:13.135Z</time></trkpt><trkpt lat="41.70240183333333" lon="13.156175333333332"><ele>216.0</ele><time>2026-04-18T17:22:14.135Z</time></trkpt><trkpt lat="41.70257333333334" lon="13.155821666666668"><ele>216.5</ele><time>2026-04-18T17:22:15.137Z</time></trkpt><trkpt lat="41.702678500000005" lon="13.155422833333333"><ele>217.0</ele><time>2026-04-18T17:22:16.136Z</time></trkpt><trkpt lat="41.70286599999999" lon="13.155082333333333"><ele>216.5</ele><time>2026-04-18T17:22:17.138Z</time></trkpt><trkpt lat="41.70304899999999" lon="13.1547385"><ele>216.0</ele><time>2026-04-18T17:22:18.136Z</time></trkpt><trkpt lat="41.70323033333334" lon="13.154390666666664"><ele>216.0</ele><time>2026-04-18T17:22:19.136Z</time></trkpt><trkpt lat="41.703407500000004" lon="13.154047"><ele>216.0</ele><time>2026-04-18T17:22:20.134Z</time></trkpt><trkpt lat="41.70358433333334" lon="13.153701000000002"><ele>215.5</ele><time>2026-04-18T17:22:21.134Z</time></trkpt><trkpt lat="41.703759999999996" lon="13.153352833333335"><ele>215.0</ele><time>2026-04-18T17:22:22.135Z</time></trkpt><trkpt lat="41.70393233333333" lon="13.153006666666666"><ele>215.0</ele><time>2026-04-18T17:22:23.135Z</time></trkpt><trkpt lat="41.70410533333334" lon="13.152657166666666"><ele>215.0</ele><time>2026-04-18T17:22:24.134Z</time></trkpt><trkpt lat="41.70427883333333" lon="13.152305166666666"><ele>217.0</ele><time>2026-04-18T17:22:25.14Z</time></trkpt><trkpt lat="41.70444983333333" lon="13.1519575"><ele>219.0</ele><time>2026-04-18T17:22:26.135Z</time></trkpt><trkpt lat="41.704622666666666" lon="13.151606499999998"><ele>218.5</ele><time>2026-04-18T17:22:27.134Z</time></trkpt><trkpt lat="41.704795833333336" lon="13.151252499999998"><ele>218.0</ele><time>2026-04-18T17:22:28.135Z</time></trkpt><trkpt lat="41.704966833333344" lon="13.150902666666665"><ele>218.0</ele><time>2026-04-18T17:22:29.137Z</time></trkpt><trkpt lat="41.70513883333333" lon="13.150550833333334"><ele>218.0</ele><time>2026-04-18T17:22:30.148Z</time></trkpt><trkpt lat="41.70531133333334" lon="13.150197166666667"><ele>217.0</ele><time>2026-04-18T17:22:31.133Z</time></trkpt><trkpt lat="41.705482499999995" lon="13.149847000000001"><ele>216.0</ele><time>2026-04-18T17:22:32.135Z</time></trkpt><trkpt lat="41.70565499999999" lon="13.149495833333333"><ele>216.0</ele><time>2026-04-18T17:22:33.136Z</time></trkpt><trkpt lat="41.7058285" lon="13.149142666666666"><ele>216.0</ele><time>2026-04-18T17:22:34.135Z</time></trkpt><trkpt lat="41.7059325" lon="13.148748833333332"><ele>216.5</ele><time>2026-04-18T17:22:35.135Z</time></trkpt><trkpt lat="41.70612116666666" lon="13.148407"><ele>217.0</ele><time>2026-04-18T17:22:36.134Z</time></trkpt><trkpt lat="41.70630549999999" lon="13.1480605"><ele>217.0</ele><time>2026-04-18T17:22:37.139Z</time></trkpt><trkpt lat="41.70648450000001" lon="13.147716333333335"><ele>217.0</ele><time>2026-04-18T17:22:38.134Z</time></trkpt><trkpt lat="41.70666433333334" lon="13.147368666666667"><ele>218.0</ele><time>2026-04-18T17:22:39.136Z</time></trkpt><trkpt lat="41.70684249999999" lon="13.147018666666668"><ele>219.0</ele><time>2026-04-18T17:22:40.136Z</time></trkpt><trkpt lat="41.707018" lon="13.1466705"><ele>219.5</ele><time>2026-04-18T17:22:41.137Z</time></trkpt><trkpt lat="41.707193333333336" lon="13.146319333333334"><ele>220.0</ele><time>2026-04-18T17:22:42.132Z</time></trkpt><trkpt lat="41.707369" lon="13.145965166666667"><ele>220.5</ele><time>2026-04-18T17:22:43.137Z</time></trkpt><trkpt lat="41.7075415" lon="13.145615000000001"><ele>221.0</ele><time>2026-04-18T17:22:44.145Z</time></trkpt><trkpt lat="41.707714" lon="13.145262833333334"><ele>220.5</ele><time>2026-04-18T17:22:45.138Z</time></trkpt><trkpt lat="41.7078875" lon="13.144908333333335"><ele>220.0</ele><time>2026-04-18T17:22:46.136Z</time></trkpt><trkpt lat="41.70805966666667" lon="13.144559000000001"><ele>221.5</ele><time>2026-04-18T17:22:47.138Z</time></trkpt><trkpt lat="41.70823216666666" lon="13.144208499999998"><ele>223.0</ele><time>2026-04-18T17:22:48.139Z</time></trkpt><trkpt lat="41.70840450000001" lon="13.143856666666666"><ele>223.5</ele><time>2026-04-18T17:22:49.136Z</time></trkpt><trkpt lat="41.70857483333332" lon="13.143507166666666"><ele>224.0</ele><time>2026-04-18T17:22:50.136Z</time></trkpt><trkpt lat="41.70874533333334" lon="13.143157166666667"><ele>223.0</ele><time>2026-04-18T17:22:51.136Z</time></trkpt><trkpt lat="41.708934" lon="13.142772833333334"><ele>222.0</ele><time>2026-04-18T17:22:52.141Z</time></trkpt><trkpt lat="41.70908866666667" lon="13.142458666666668"><ele>222.0</ele><time>2026-04-18T17:22:53.138Z</time></trkpt><trkpt lat="41.70927783333333" lon="13.142074333333335"><ele>222.0</ele><time>2026-04-18T17:22:54.139Z</time></trkpt><trkpt lat="41.709450333333336" lon="13.141725166666665"><ele>222.5</ele><time>2026-04-18T17:22:55.137Z</time></trkpt><trkpt lat="41.70962200000001" lon="13.1413755"><ele>223.0</ele><time>2026-04-18T17:22:56.141Z</time></trkpt><trkpt lat="41.709792833333324" lon="13.141024999999999"><ele>222.0</ele><time>2026-04-18T17:22:57.137Z</time></trkpt><trkpt lat="41.70995783333333" lon="13.1406845"><ele>221.0</ele><time>2026-04-18T17:22:58.137Z</time></trkpt><trkpt lat="41.71013" lon="13.140329333333332"><ele>221.0</ele><time>2026-04-18T17:22:59.137Z</time></trkpt><trkpt lat="41.710299000000006" lon="13.1399835"><ele>221.0</ele><time>2026-04-18T17:23:00.135Z</time></trkpt><trkpt lat="41.7104705" lon="13.139633"><ele>221.0</ele><time>2026-04-18T17:23:01.138Z</time></trkpt><trkpt lat="41.71064416666666" lon="13.139277333333332"><ele>221.0</ele><time>2026-04-18T17:23:02.137Z</time></trkpt><trkpt lat="41.71081383333334" lon="13.138929499999998"><ele>220.5</ele><time>2026-04-18T17:23:03.135Z</time></trkpt><trkpt lat="41.71098583333334" lon="13.138576"><ele>220.0</ele><time>2026-04-18T17:23:04.136Z</time></trkpt><trkpt lat="41.711160666666665" lon="13.138217166666667"><ele>220.0</ele><time>2026-04-18T17:23:05.137Z</time></trkpt><trkpt lat="41.711331333333334" lon="13.137867166666668"><ele>220.0</ele><time>2026-04-18T17:23:06.137Z</time></trkpt><trkpt lat="41.71150433333334" lon="13.137512333333333"><ele>219.5</ele><time>2026-04-18T17:23:07.136Z</time></trkpt><trkpt lat="41.711679999999994" lon="13.137153"><ele>219.0</ele><time>2026-04-18T17:23:08.138Z</time></trkpt><trkpt lat="41.711851166666676" lon="13.136803000000002"><ele>219.5</ele><time>2026-04-18T17:23:09.144Z</time></trkpt><trkpt lat="41.71202416666667" lon="13.136448499999998"><ele>220.0</ele><time>2026-04-18T17:23:10.137Z</time></trkpt><trkpt lat="41.7121995" lon="13.136089333333334"><ele>220.0</ele><time>2026-04-18T17:23:11.132Z</time></trkpt><trkpt lat="41.71237066666666" lon="13.135738833333336"><ele>220.0</ele><time>2026-04-18T17:23:12.138Z</time></trkpt><trkpt lat="41.71254316666666" lon="13.135385166666666"><ele>219.5</ele><time>2026-04-18T17:23:13.138Z</time></trkpt><trkpt lat="41.71271783333333" lon="13.135027166666665"><ele>219.0</ele><time>2026-04-18T17:23:14.137Z</time></trkpt><trkpt lat="41.71288783333333" lon="13.134678166666665"><ele>217.5</ele><time>2026-04-18T17:23:15.137Z</time></trkpt><trkpt lat="41.71305949999999" lon="13.1343255"><ele>216.0</ele><time>2026-04-18T17:23:16.138Z</time></trkpt><trkpt lat="41.713233499999994" lon="13.133968166666667"><ele>215.5</ele><time>2026-04-18T17:23:17.136Z</time></trkpt><trkpt lat="41.7134025" lon="13.133621000000002"><ele>215.0</ele><time>2026-04-18T17:23:18.137Z</time></trkpt><trkpt lat="41.71357366666666" lon="13.133269499999997"><ele>214.5</ele><time>2026-04-18T17:23:19.137Z</time></trkpt><trkpt lat="41.713747166666664" lon="13.132914166666668"><ele>214.0</ele><time>2026-04-18T17:23:20.137Z</time></trkpt><trkpt lat="41.713915500000006" lon="13.132568499999998"><ele>214.0</ele><time>2026-04-18T17:23:21.138Z</time></trkpt><trkpt lat="41.71408666666667" lon="13.132217833333335"><ele>214.0</ele><time>2026-04-18T17:23:22.137Z</time></trkpt><trkpt lat="41.71426083333334" lon="13.131862666666667"><ele>212.5</ele><time>2026-04-18T17:23:23.137Z</time></trkpt><trkpt lat="41.71442999999999" lon="13.131517000000002"><ele>211.0</ele><time>2026-04-18T17:23:24.135Z</time></trkpt><trkpt lat="41.714602166666666" lon="13.131166333333333"><ele>211.0</ele><time>2026-04-18T17:23:25.14Z</time></trkpt><trkpt lat="41.714772833333335" lon="13.130815500000002"><ele>211.0</ele><time>2026-04-18T17:23:26.137Z</time></trkpt><trkpt lat="41.714943500000004" lon="13.130463666666666"><ele>210.5</ele><time>2026-04-18T17:23:27.141Z</time></trkpt><trkpt lat="41.71511266666666" lon="13.130112833333333"><ele>210.0</ele><time>2026-04-18T17:23:28.138Z</time></trkpt><trkpt lat="41.71527850000001" lon="13.129767000000001"><ele>209.0</ele><time>2026-04-18T17:23:29.137Z</time></trkpt><trkpt lat="41.71543783333334" lon="13.129426833333332"><ele>208.0</ele><time>2026-04-18T17:23:30.155Z</time></trkpt><trkpt lat="41.715593999999996" lon="13.129091333333335"><ele>209.0</ele><time>2026-04-18T17:23:31.138Z</time></trkpt><trkpt lat="41.715751333333344" lon="13.128756500000001"><ele>210.0</ele><time>2026-04-18T17:23:32.138Z</time></trkpt><trkpt lat="41.71591066666667" lon="13.128420666666667"><ele>209.0</ele><time>2026-04-18T17:23:33.139Z</time></trkpt><trkpt lat="41.716072000000004" lon="13.128082666666668"><ele>208.0</ele><time>2026-04-18T17:23:34.14Z</time></trkpt><trkpt lat="41.716235000000005" lon="13.127743833333334"><ele>208.0</ele><time>2026-04-18T17:23:35.139Z</time></trkpt><trkpt lat="41.71639983333333" lon="13.127403166666667"><ele>208.0</ele><time>2026-04-18T17:23:36.14Z</time></trkpt><trkpt lat="41.71656599999999" lon="13.127060666666667"><ele>208.0</ele><time>2026-04-18T17:23:37.143Z</time></trkpt><trkpt lat="41.716733000000005" lon="13.126716666666669"><ele>208.0</ele><time>2026-04-18T17:23:38.137Z</time></trkpt><trkpt lat="41.716900833333334" lon="13.126371500000001"><ele>207.0</ele><time>2026-04-18T17:23:39.135Z</time></trkpt><trkpt lat="41.71706983333334" lon="13.126024833333334"><ele>206.0</ele><time>2026-04-18T17:23:40.139Z</time></trkpt><trkpt lat="41.717239166666666" lon="13.125677166666666"><ele>206.0</ele><time>2026-04-18T17:23:41.136Z</time></trkpt><trkpt lat="41.71740783333333" lon="13.1253285"><ele>206.0</ele><time>2026-04-18T17:23:42.136Z</time></trkpt><trkpt lat="41.71757683333334" lon="13.124978333333335"><ele>209.0</ele><time>2026-04-18T17:23:43.136Z</time></trkpt><trkpt lat="41.71774633333333" lon="13.124628499999998"><ele>212.0</ele><time>2026-04-18T17:23:44.138Z</time></trkpt><trkpt lat="41.71791683333333" lon="13.124278499999999"><ele>211.5</ele><time>2026-04-18T17:23:45.14Z</time></trkpt><trkpt lat="41.71808783333333" lon="13.123929166666668"><ele>211.0</ele><time>2026-04-18T17:23:46.135Z</time></trkpt><trkpt lat="41.71826033333333" lon="13.12358"><ele>211.5</ele><time>2026-04-18T17:23:47.136Z</time></trkpt><trkpt lat="41.718432166666666" lon="13.123230499999998"><ele>212.0</ele><time>2026-04-18T17:23:48.136Z</time></trkpt><trkpt lat="41.7186035" lon="13.1228795"><ele>212.5</ele><time>2026-04-18T17:23:49.138Z</time></trkpt><trkpt lat="41.71877483333333" lon="13.122528166666667"><ele>213.0</ele><time>2026-04-18T17:23:50.137Z</time></trkpt><trkpt lat="41.71894733333334" lon="13.122176333333334"><ele>213.0</ele><time>2026-04-18T17:23:51.135Z</time></trkpt><trkpt lat="41.719120666666676" lon="13.121823500000001"><ele>213.0</ele><time>2026-04-18T17:23:52.133Z</time></trkpt><trkpt lat="41.719292833333334" lon="13.12147"><ele>213.5</ele><time>2026-04-18T17:23:53.148Z</time></trkpt><trkpt lat="41.71946466666667" lon="13.121116500000001"><ele>214.0</ele><time>2026-04-18T17:23:54.137Z</time></trkpt><trkpt lat="41.71963483333334" lon="13.120764833333332"><ele>212.5</ele><time>2026-04-18T17:23:55.135Z</time></trkpt><trkpt lat="41.719804" lon="13.120414333333335"><ele>211.0</ele><time>2026-04-18T17:23:56.136Z</time></trkpt><trkpt lat="41.71997500000001" lon="13.1200615"><ele>211.0</ele><time>2026-04-18T17:23:57.136Z</time></trkpt><trkpt lat="41.72014833333333" lon="13.119706666666666"><ele>211.0</ele><time>2026-04-18T17:23:58.135Z</time></trkpt><trkpt lat="41.720318666666664" lon="13.119359166666667"><ele>210.5</ele><time>2026-04-18T17:23:59.136Z</time></trkpt><trkpt lat="41.720490000000005" lon="13.119009000000002"><ele>210.0</ele><time>2026-04-18T17:24:00.138Z</time></trkpt><trkpt lat="41.720661166666666" lon="13.118659"><ele>210.0</ele><time>2026-04-18T17:24:01.137Z</time></trkpt><trkpt lat="41.72083183333334" lon="13.118309166666664"><ele>210.0</ele><time>2026-04-18T17:24:02.136Z</time></trkpt><trkpt lat="41.72100216666666" lon="13.117958999999999"><ele>210.0</ele><time>2026-04-18T17:24:03.138Z</time></trkpt><trkpt lat="41.721172499999994" lon="13.117608666666667"><ele>210.0</ele><time>2026-04-18T17:24:04.136Z</time></trkpt><trkpt lat="41.72134233333333" lon="13.117258"><ele>209.0</ele><time>2026-04-18T17:24:05.138Z</time></trkpt><trkpt lat="41.721513" lon="13.116907833333334"><ele>208.0</ele><time>2026-04-18T17:24:06.137Z</time></trkpt><trkpt lat="41.72168450000001" lon="13.116557666666665"><ele>208.0</ele><time>2026-04-18T17:24:07.137Z</time></trkpt><trkpt lat="41.72185616666667" lon="13.116207000000001"><ele>208.0</ele><time>2026-04-18T17:24:08.138Z</time></trkpt><trkpt lat="41.72202733333334" lon="13.115855666666668"><ele>208.0</ele><time>2026-04-18T17:24:09.134Z</time></trkpt><trkpt lat="41.722199333333336" lon="13.115503166666668"><ele>208.0</ele><time>2026-04-18T17:24:10.136Z</time></trkpt><trkpt lat="41.72237066666667" lon="13.115151500000001"><ele>207.0</ele><time>2026-04-18T17:24:11.137Z</time></trkpt><trkpt lat="41.72254233333333" lon="13.114799833333333"><ele>206.0</ele><time>2026-04-18T17:24:12.136Z</time></trkpt><trkpt lat="41.72271383333334" lon="13.114449166666668"><ele>207.0</ele><time>2026-04-18T17:24:13.14Z</time></trkpt><trkpt lat="41.72288483333333" lon="13.114099"><ele>208.0</ele><time>2026-04-18T17:24:14.137Z</time></trkpt><trkpt lat="41.723055666666674" lon="13.113748999999999"><ele>208.0</ele><time>2026-04-18T17:24:15.136Z</time></trkpt><trkpt lat="41.72322616666667" lon="13.113399499999998"><ele>208.0</ele><time>2026-04-18T17:24:16.137Z</time></trkpt><trkpt lat="41.72339566666666" lon="13.113050833333334"><ele>209.0</ele><time>2026-04-18T17:24:17.136Z</time></trkpt><trkpt lat="41.72356549999999" lon="13.112701666666664"><ele>210.0</ele><time>2026-04-18T17:24:18.137Z</time></trkpt><trkpt lat="41.723735" lon="13.112351666666667"><ele>212.0</ele><time>2026-04-18T17:24:19.136Z</time></trkpt><trkpt lat="41.7238995" lon="13.112011666666668"><ele>214.0</ele><time>2026-04-18T17:24:20.134Z</time></trkpt><trkpt lat="41.72407333333334" lon="13.111655333333333"><ele>215.5</ele><time>2026-04-18T17:24:21.136Z</time></trkpt><trkpt lat="41.724238" lon="13.111320666666666"><ele>217.0</ele><time>2026-04-18T17:24:22.136Z</time></trkpt><trkpt lat="41.72441316666667" lon="13.110964500000001"><ele>218.0</ele><time>2026-04-18T17:24:23.137Z</time></trkpt><trkpt lat="41.724588499999996" lon="13.110608166666667"><ele>219.0</ele><time>2026-04-18T17:24:24.137Z</time></trkpt><trkpt lat="41.72475299999999" lon="13.110271666666666"><ele>219.0</ele><time>2026-04-18T17:24:25.138Z</time></trkpt><trkpt lat="41.724927166666674" lon="13.109913666666667"><ele>219.0</ele><time>2026-04-18T17:24:26.135Z</time></trkpt><trkpt lat="41.72510116666667" lon="13.109554833333334"><ele>220.0</ele><time>2026-04-18T17:24:27.134Z</time></trkpt><trkpt lat="41.72526583333333" lon="13.109216833333335"><ele>221.0</ele><time>2026-04-18T17:24:28.135Z</time></trkpt><trkpt lat="41.7254405" lon="13.108858333333334"><ele>221.0</ele><time>2026-04-18T17:24:29.138Z</time></trkpt><trkpt lat="41.725615166666664" lon="13.108498999999998"><ele>221.0</ele><time>2026-04-18T17:24:30.151Z</time></trkpt><trkpt lat="41.72577883333333" lon="13.108160333333334"><ele>220.0</ele><time>2026-04-18T17:24:31.139Z</time></trkpt><trkpt lat="41.72595366666666" lon="13.107799333333332"><ele>219.0</ele><time>2026-04-18T17:24:32.138Z</time></trkpt><trkpt lat="41.72612866666667" lon="13.107439166666666"><ele>222.5</ele><time>2026-04-18T17:24:33.136Z</time></trkpt><trkpt lat="41.72629416666667" lon="13.107101666666665"><ele>226.0</ele><time>2026-04-18T17:24:34.136Z</time></trkpt><trkpt lat="41.72646966666667" lon="13.106742833333332"><ele>226.5</ele><time>2026-04-18T17:24:35.136Z</time></trkpt><trkpt lat="41.726637833333335" lon="13.106397333333332"><ele>227.0</ele><time>2026-04-18T17:24:36.136Z</time></trkpt><trkpt lat="41.72680966666667" lon="13.106043833333334"><ele>228.0</ele><time>2026-04-18T17:24:37.14Z</time></trkpt><trkpt lat="41.726984333333334" lon="13.105683500000001"><ele>229.0</ele><time>2026-04-18T17:24:38.136Z</time></trkpt><trkpt lat="41.72715316666666" lon="13.105336499999998"><ele>229.0</ele><time>2026-04-18T17:24:39.134Z</time></trkpt><trkpt lat="41.72732633333333" lon="13.104982500000002"><ele>229.0</ele><time>2026-04-18T17:24:40.136Z</time></trkpt><trkpt lat="41.72750316666667" lon="13.104621999999999"><ele>228.5</ele><time>2026-04-18T17:24:41.135Z</time></trkpt><trkpt lat="41.72767383333333" lon="13.104275333333334"><ele>228.0</ele><time>2026-04-18T17:24:42.132Z</time></trkpt><trkpt lat="41.727847000000004" lon="13.1039205"><ele>225.0</ele><time>2026-04-18T17:24:43.132Z</time></trkpt><trkpt lat="41.72802433333333" lon="13.103558166666668"><ele>222.0</ele><time>2026-04-18T17:24:44.139Z</time></trkpt><trkpt lat="41.72819433333334" lon="13.103210833333332"><ele>219.0</ele><time>2026-04-18T17:24:45.137Z</time></trkpt><trkpt lat="41.72836716666667" lon="13.102855333333332"><ele>216.0</ele><time>2026-04-18T17:24:46.139Z</time></trkpt><trkpt lat="41.72854250000001" lon="13.102492666666668"><ele>217.5</ele><time>2026-04-18T17:24:47.137Z</time></trkpt><trkpt lat="41.728710166666666" lon="13.102145"><ele>219.0</ele><time>2026-04-18T17:24:48.137Z</time></trkpt><trkpt lat="41.72887766666666" lon="13.101789"><ele>216.5</ele><time>2026-04-18T17:24:49.137Z</time></trkpt><trkpt lat="41.72904716666667" lon="13.101426333333333"><ele>214.0</ele><time>2026-04-18T17:24:50.139Z</time></trkpt><trkpt lat="41.72921016666666" lon="13.101079333333333"><ele>214.0</ele><time>2026-04-18T17:24:51.137Z</time></trkpt><trkpt lat="41.72937700000001" lon="13.100725333333333"><ele>214.0</ele><time>2026-04-18T17:24:52.139Z</time></trkpt><trkpt lat="41.72954716666666" lon="13.100365333333333"><ele>215.5</ele><time>2026-04-18T17:24:53.138Z</time></trkpt><trkpt lat="41.7297115" lon="13.100020500000001"><ele>217.0</ele><time>2026-04-18T17:24:54.138Z</time></trkpt><trkpt lat="41.72988183333333" lon="13.099669833333333"><ele>216.0</ele><time>2026-04-18T17:24:55.139Z</time></trkpt><trkpt lat="41.730056" lon="13.099312833333334"><ele>215.0</ele><time>2026-04-18T17:24:56.135Z</time></trkpt><trkpt lat="41.730223666666674" lon="13.098969666666667"><ele>215.0</ele><time>2026-04-18T17:24:57.138Z</time></trkpt><trkpt lat="41.73039483333334" lon="13.0986185"><ele>215.0</ele><time>2026-04-18T17:24:58.137Z</time></trkpt><trkpt lat="41.73056933333334" lon="13.098259666666669"><ele>215.0</ele><time>2026-04-18T17:24:59.136Z</time></trkpt><trkpt lat="41.7307375" lon="13.097914833333336"><ele>215.0</ele><time>2026-04-18T17:25:00.133Z</time></trkpt><trkpt lat="41.73090983333333" lon="13.097563333333333"><ele>219.5</ele><time>2026-04-18T17:25:01.139Z</time></trkpt><trkpt lat="41.731085666666665" lon="13.097204500000002"><ele>224.0</ele><time>2026-04-18T17:25:02.138Z</time></trkpt><trkpt lat="41.73125433333333" lon="13.096859666666669"><ele>224.0</ele><time>2026-04-18T17:25:03.138Z</time></trkpt><trkpt lat="41.73142716666666" lon="13.096507333333333"><ele>224.0</ele><time>2026-04-18T17:25:04.138Z</time></trkpt><trkpt lat="41.73160283333333" lon="13.0961485"><ele>224.0</ele><time>2026-04-18T17:25:05.14Z</time></trkpt><trkpt lat="41.731771333333334" lon="13.09580266666667"><ele>224.0</ele><time>2026-04-18T17:25:06.139Z</time></trkpt><trkpt lat="41.731942833333335" lon="13.095449833333332"><ele>224.0</ele><time>2026-04-18T17:25:07.132Z</time></trkpt><trkpt lat="41.73211683333334" lon="13.09509"><ele>224.0</ele><time>2026-04-18T17:25:08.139Z</time></trkpt><trkpt lat="41.732283499999994" lon="13.094744833333333"><ele>223.5</ele><time>2026-04-18T17:25:09.142Z</time></trkpt><trkpt lat="41.73245433333333" lon="13.094392000000001"><ele>223.0</ele><time>2026-04-18T17:25:10.14Z</time></trkpt><trkpt lat="41.73262833333333" lon="13.0940335"><ele>222.0</ele><time>2026-04-18T17:25:11.138Z</time></trkpt><trkpt lat="41.73279649999999" lon="13.093688000000002"><ele>221.0</ele><time>2026-04-18T17:25:12.138Z</time></trkpt><trkpt lat="41.732968166666666" lon="13.0933355"><ele>219.5</ele><time>2026-04-18T17:25:13.141Z</time></trkpt><trkpt lat="41.73313983333334" lon="13.092983166666667"><ele>218.0</ele><time>2026-04-18T17:25:14.138Z</time></trkpt><trkpt lat="41.733312833333336" lon="13.092629833333334"><ele>214.5</ele><time>2026-04-18T17:25:15.137Z</time></trkpt><trkpt lat="41.7334865" lon="13.092276666666665"><ele>211.0</ele><time>2026-04-18T17:25:16.139Z</time></trkpt><trkpt lat="41.73365999999999" lon="13.091922499999999"><ele>207.0</ele><time>2026-04-18T17:25:17.138Z</time></trkpt><trkpt lat="41.733834333333334" lon="13.091564333333334"><ele>203.0</ele><time>2026-04-18T17:25:18.135Z</time></trkpt><trkpt lat="41.734013999999995" lon="13.091195"><ele>203.0</ele><time>2026-04-18T17:25:19.139Z</time></trkpt><trkpt lat="41.73419783333333" lon="13.090816666666667"><ele>203.0</ele><time>2026-04-18T17:25:20.139Z</time></trkpt><trkpt lat="41.73438683333334" lon="13.090428166666667"><ele>200.5</ele><time>2026-04-18T17:25:21.142Z</time></trkpt><trkpt lat="41.73458" lon="13.0900305"><ele>198.0</ele><time>2026-04-18T17:25:22.139Z</time></trkpt><trkpt lat="41.734777" lon="13.089625666666667"><ele>198.0</ele><time>2026-04-18T17:25:23.139Z</time></trkpt><trkpt lat="41.73497766666666" lon="13.089216166666665"><ele>198.0</ele><time>2026-04-18T17:25:24.138Z</time></trkpt><trkpt lat="41.7351805" lon="13.088806666666668"><ele>198.0</ele><time>2026-04-18T17:25:25.139Z</time></trkpt><trkpt lat="41.73538316666666" lon="13.088404833333334"><ele>198.0</ele><time>2026-04-18T17:25:26.137Z</time></trkpt><trkpt lat="41.735584833333334" lon="13.088011166666668"><ele>198.0</ele><time>2026-04-18T17:25:27.139Z</time></trkpt><trkpt lat="41.735782833333325" lon="13.0876235"><ele>198.0</ele><time>2026-04-18T17:25:28.139Z</time></trkpt><trkpt lat="41.735974999999996" lon="13.087240000000001"><ele>200.0</ele><time>2026-04-18T17:25:29.14Z</time></trkpt><trkpt lat="41.73618133333333" lon="13.086823666666666"><ele>202.0</ele><time>2026-04-18T17:25:30.155Z</time></trkpt><trkpt lat="41.73634633333332" lon="13.086489166666668"><ele>202.0</ele><time>2026-04-18T17:25:31.141Z</time></trkpt><trkpt lat="41.736525833333324" lon="13.086123166666667"><ele>202.0</ele><time>2026-04-18T17:25:32.136Z</time></trkpt><trkpt lat="41.73670166666667" lon="13.085764666666668"><ele>201.5</ele><time>2026-04-18T17:25:33.137Z</time></trkpt><trkpt lat="41.73687416666667" lon="13.085410166666668"><ele>201.0</ele><time>2026-04-18T17:25:34.138Z</time></trkpt><trkpt lat="41.73704583333333" lon="13.085058166666666"><ele>198.5</ele><time>2026-04-18T17:25:35.137Z</time></trkpt><trkpt lat="41.73721583333333" lon="13.084709333333334"><ele>196.0</ele><time>2026-04-18T17:25:36.136Z</time></trkpt><trkpt lat="41.737386" lon="13.084361333333334"><ele>194.5</ele><time>2026-04-18T17:25:37.138Z</time></trkpt><trkpt lat="41.737555666666665" lon="13.08401416666667"><ele>193.0</ele><time>2026-04-18T17:25:38.137Z</time></trkpt><trkpt lat="41.737725" lon="13.083667500000002"><ele>192.5</ele><time>2026-04-18T17:25:39.137Z</time></trkpt><trkpt lat="41.737893666666665" lon="13.083321166666666"><ele>192.0</ele><time>2026-04-18T17:25:40.138Z</time></trkpt><trkpt lat="41.73806266666667" lon="13.082974333333334"><ele>191.5</ele><time>2026-04-18T17:25:41.137Z</time></trkpt><trkpt lat="41.73823116666667" lon="13.082626999999999"><ele>191.0</ele><time>2026-04-18T17:25:42.136Z</time></trkpt><trkpt lat="41.7383995" lon="13.082278666666666"><ele>191.0</ele><time>2026-04-18T17:25:43.138Z</time></trkpt><trkpt lat="41.738567499999995" lon="13.081932166666666"><ele>191.0</ele><time>2026-04-18T17:25:44.138Z</time></trkpt><trkpt lat="41.73873183333333" lon="13.081593166666668"><ele>194.0</ele><time>2026-04-18T17:25:45.139Z</time></trkpt><trkpt lat="41.738895" lon="13.081256333333332"><ele>197.0</ele><time>2026-04-18T17:25:46.137Z</time></trkpt><trkpt lat="41.73906416666667" lon="13.080906833333332"><ele>200.0</ele><time>2026-04-18T17:25:47.135Z</time></trkpt><trkpt lat="41.739236500000004" lon="13.080554"><ele>203.0</ele><time>2026-04-18T17:25:48.137Z</time></trkpt><trkpt lat="41.73941" lon="13.0802015"><ele>206.5</ele><time>2026-04-18T17:25:49.14Z</time></trkpt><trkpt lat="41.739572333333335" lon="13.079870000000001"><ele>210.0</ele><time>2026-04-18T17:25:50.136Z</time></trkpt><trkpt lat="41.739744333333334" lon="13.079516499999999"><ele>210.0</ele><time>2026-04-18T17:25:51.136Z</time></trkpt><trkpt lat="41.73990883333333" lon="13.079178166666667"><ele>210.0</ele><time>2026-04-18T17:25:52.142Z</time></trkpt><trkpt lat="41.74007783333333" lon="13.078825666666667"><ele>213.0</ele><time>2026-04-18T17:25:53.141Z</time></trkpt><trkpt lat="41.740247000000004" lon="13.078470166666666"><ele>216.0</ele><time>2026-04-18T17:25:54.137Z</time></trkpt><trkpt lat="41.7404275" lon="13.078092166666666"><ele>218.5</ele><time>2026-04-18T17:25:55.138Z</time></trkpt><trkpt lat="41.74059616666667" lon="13.077742166666667"><ele>221.0</ele><time>2026-04-18T17:25:56.14Z</time></trkpt><trkpt lat="41.74076149999999" lon="13.077400333333333"><ele>223.0</ele><time>2026-04-18T17:25:57.137Z</time></trkpt><trkpt lat="41.74090983333334" lon="13.077093833333333"><ele>225.0</ele><time>2026-04-18T17:25:58.131Z</time></trkpt><trkpt lat="41.74109333333334" lon="13.076704"><ele>228.0</ele><time>2026-04-18T17:25:59.138Z</time></trkpt><trkpt lat="41.74125250000001" lon="13.076362666666666"><ele>231.0</ele><time>2026-04-18T17:26:00.137Z</time></trkpt><trkpt lat="41.74141483333333" lon="13.076014999999998"><ele>230.5</ele><time>2026-04-18T17:26:01.138Z</time></trkpt><trkpt lat="41.741581499999995" lon="13.075661666666669"><ele>230.0</ele><time>2026-04-18T17:26:02.137Z</time></trkpt><trkpt lat="41.74174750000001" lon="13.075315499999999"><ele>230.0</ele><time>2026-04-18T17:26:03.136Z</time></trkpt><trkpt lat="41.741917" lon="13.074966166666664"><ele>230.0</ele><time>2026-04-18T17:26:04.139Z</time></trkpt><trkpt lat="41.74209000000001" lon="13.074610833333335"><ele>230.0</ele><time>2026-04-18T17:26:05.142Z</time></trkpt><trkpt lat="41.7422595" lon="13.0742645"><ele>230.0</ele><time>2026-04-18T17:26:06.138Z</time></trkpt><trkpt lat="41.742433500000004" lon="13.073913833333332"><ele>227.5</ele><time>2026-04-18T17:26:07.137Z</time></trkpt><trkpt lat="41.742612333333334" lon="13.073558833333335"><ele>225.0</ele><time>2026-04-18T17:26:08.136Z</time></trkpt><trkpt lat="41.7427875" lon="13.073214166666666"><ele>225.0</ele><time>2026-04-18T17:26:09.133Z</time></trkpt><trkpt lat="41.74296583333333" lon="13.072863833333335"><ele>225.0</ele><time>2026-04-18T17:26:10.137Z</time></trkpt><trkpt lat="41.74314566666667" lon="13.072507333333332"><ele>225.5</ele><time>2026-04-18T17:26:11.137Z</time></trkpt><trkpt lat="41.743319166666666" lon="13.07215783333333"><ele>226.0</ele><time>2026-04-18T17:26:12.136Z</time></trkpt><trkpt lat="41.74349383333333" lon="13.071802333333334"><ele>228.0</ele><time>2026-04-18T17:26:13.136Z</time></trkpt><trkpt lat="41.7436695" lon="13.071442000000003"><ele>230.0</ele><time>2026-04-18T17:26:14.136Z</time></trkpt><trkpt lat="41.74384133333333" lon="13.07109"><ele>229.5</ele><time>2026-04-18T17:26:15.135Z</time></trkpt><trkpt lat="41.744015999999995" lon="13.070734000000002"><ele>229.0</ele><time>2026-04-18T17:26:16.134Z</time></trkpt><trkpt lat="41.744192999999996" lon="13.070374166666667"><ele>229.0</ele><time>2026-04-18T17:26:17.132Z</time></trkpt><trkpt lat="41.74436516666666" lon="13.070023166666665"><ele>229.0</ele><time>2026-04-18T17:26:18.136Z</time></trkpt><trkpt lat="41.74453983333333" lon="13.069667333333333"><ele>227.0</ele><time>2026-04-18T17:26:19.135Z</time></trkpt><trkpt lat="41.74471700000001" lon="13.069307666666669"><ele>225.0</ele><time>2026-04-18T17:26:20.131Z</time></trkpt><trkpt lat="41.744889666666666" lon="13.068954333333334"><ele>222.5</ele><time>2026-04-18T17:26:21.134Z</time></trkpt><trkpt lat="41.74506266666667" lon="13.068597"><ele>220.0</ele><time>2026-04-18T17:26:22.134Z</time></trkpt><trkpt lat="41.74523683333334" lon="13.068234333333333"><ele>215.5</ele><time>2026-04-18T17:26:23.137Z</time></trkpt><trkpt lat="41.74540666666667" lon="13.067881"><ele>211.0</ele><time>2026-04-18T17:26:24.136Z</time></trkpt><trkpt lat="41.74557983333334" lon="13.067523166666668"><ele>208.0</ele><time>2026-04-18T17:26:25.137Z</time></trkpt><trkpt lat="41.745752666666675" lon="13.0671665"><ele>205.0</ele><time>2026-04-18T17:26:26.135Z</time></trkpt><trkpt lat="41.74592500000001" lon="13.066811499999998"><ele>203.0</ele><time>2026-04-18T17:26:27.134Z</time></trkpt><trkpt lat="41.746097166666665" lon="13.066456833333334"><ele>201.0</ele><time>2026-04-18T17:26:28.137Z</time></trkpt><trkpt lat="41.7462685" lon="13.066104333333334"><ele>201.0</ele><time>2026-04-18T17:26:29.138Z</time></trkpt><trkpt lat="41.74643866666667" lon="13.065752666666667"><ele>201.0</ele><time>2026-04-18T17:26:30.154Z</time></trkpt><trkpt lat="41.746607" lon="13.0654025"><ele>201.0</ele><time>2026-04-18T17:26:31.14Z</time></trkpt><trkpt lat="41.74677666666667" lon="13.065052166666664"><ele>201.0</ele><time>2026-04-18T17:26:32.136Z</time></trkpt><trkpt lat="41.746945999999994" lon="13.064702666666667"><ele>204.0</ele><time>2026-04-18T17:26:33.136Z</time></trkpt><trkpt lat="41.74711416666668" lon="13.064352666666665"><ele>207.0</ele><time>2026-04-18T17:26:34.137Z</time></trkpt><trkpt lat="41.74727933333334" lon="13.064001333333332"><ele>207.0</ele><time>2026-04-18T17:26:35.136Z</time></trkpt><trkpt lat="41.747439166666666" lon="13.06364583333333"><ele>207.0</ele><time>2026-04-18T17:26:36.137Z</time></trkpt><trkpt lat="41.747592166666664" lon="13.063284"><ele>206.0</ele><time>2026-04-18T17:26:37.136Z</time></trkpt><trkpt lat="41.74773583333334" lon="13.0629155"><ele>205.0</ele><time>2026-04-18T17:26:38.134Z</time></trkpt><trkpt lat="41.74786966666667" lon="13.062540666666665"><ele>204.0</ele><time>2026-04-18T17:26:39.136Z</time></trkpt><trkpt lat="41.74799266666667" lon="13.062158333333333"><ele>203.0</ele><time>2026-04-18T17:26:40.135Z</time></trkpt><trkpt lat="41.748104833333336" lon="13.061770833333334"><ele>202.0</ele><time>2026-04-18T17:26:41.136Z</time></trkpt><trkpt lat="41.74820683333334" lon="13.061377499999999"><ele>201.0</ele><time>2026-04-18T17:26:42.136Z</time></trkpt><trkpt lat="41.7482985" lon="13.060977833333332"><ele>201.0</ele><time>2026-04-18T17:26:43.136Z</time></trkpt><trkpt lat="41.74837983333334" lon="13.060573833333335"><ele>201.0</ele><time>2026-04-18T17:26:44.134Z</time></trkpt><trkpt lat="41.74845116666667" lon="13.060165333333334"><ele>201.5</ele><time>2026-04-18T17:26:45.133Z</time></trkpt><trkpt lat="41.74851233333334" lon="13.059752500000002"><ele>202.0</ele><time>2026-04-18T17:26:46.136Z</time></trkpt><trkpt lat="41.7485615" lon="13.059336333333333"><ele>202.0</ele><time>2026-04-18T17:26:47.135Z</time></trkpt><trkpt lat="41.74859916666666" lon="13.058917499999998"><ele>202.0</ele><time>2026-04-18T17:26:48.139Z</time></trkpt><trkpt lat="41.748627000000006" lon="13.058497666666664"><ele>202.0</ele><time>2026-04-18T17:26:49.14Z</time></trkpt><trkpt lat="41.74864516666667" lon="13.058077333333332"><ele>202.0</ele><time>2026-04-18T17:26:50.138Z</time></trkpt><trkpt lat="41.7486535" lon="13.057655166666665"><ele>201.0</ele><time>2026-04-18T17:26:51.135Z</time></trkpt><trkpt lat="41.748657" lon="13.057233"><ele>200.0</ele><time>2026-04-18T17:26:52.136Z</time></trkpt><trkpt lat="41.74865866666667" lon="13.056810333333331"><ele>200.0</ele><time>2026-04-18T17:26:53.139Z</time></trkpt><trkpt lat="41.74866016666667" lon="13.056388333333333"><ele>200.0</ele><time>2026-04-18T17:26:54.136Z</time></trkpt><trkpt lat="41.7486625" lon="13.055969833333332"><ele>202.5</ele><time>2026-04-18T17:26:55.136Z</time></trkpt><trkpt lat="41.74866433333333" lon="13.055551666666668"><ele>205.0</ele><time>2026-04-18T17:26:56.135Z</time></trkpt><trkpt lat="41.748666500000006" lon="13.055131666666668"><ele>206.0</ele><time>2026-04-18T17:26:57.136Z</time></trkpt><trkpt lat="41.748669333333325" lon="13.054709833333334"><ele>207.0</ele><time>2026-04-18T17:26:58.138Z</time></trkpt><trkpt lat="41.748672000000006" lon="13.054294166666667"><ele>206.5</ele><time>2026-04-18T17:26:59.138Z</time></trkpt><trkpt lat="41.7486745" lon="13.053875999999999"><ele>206.0</ele><time>2026-04-18T17:27:00.136Z</time></trkpt><trkpt lat="41.748676666666675" lon="13.053456833333334"><ele>204.0</ele><time>2026-04-18T17:27:01.137Z</time></trkpt><trkpt lat="41.748679166666676" lon="13.053038166666665"><ele>202.0</ele><time>2026-04-18T17:27:02.136Z</time></trkpt><trkpt lat="41.748682333333335" lon="13.052619333333332"><ele>202.0</ele><time>2026-04-18T17:27:03.139Z</time></trkpt><trkpt lat="41.74868549999999" lon="13.052200166666667"><ele>202.0</ele><time>2026-04-18T17:27:04.138Z</time></trkpt><trkpt lat="41.748688333333334" lon="13.051780333333332"><ele>201.0</ele><time>2026-04-18T17:27:05.139Z</time></trkpt><trkpt lat="41.74869083333333" lon="13.051360499999998"><ele>200.0</ele><time>2026-04-18T17:27:06.138Z</time></trkpt><trkpt lat="41.748692500000004" lon="13.05094033333333"><ele>201.5</ele><time>2026-04-18T17:27:07.135Z</time></trkpt><trkpt lat="41.7486945" lon="13.050519666666666"><ele>203.0</ele><time>2026-04-18T17:27:08.137Z</time></trkpt><trkpt lat="41.74869650000001" lon="13.050099333333332"><ele>205.5</ele><time>2026-04-18T17:27:09.137Z</time></trkpt><trkpt lat="41.74869866666666" lon="13.049678166666668"><ele>208.0</ele><time>2026-04-18T17:27:10.135Z</time></trkpt><trkpt lat="41.748701000000004" lon="13.049255999999998"><ele>208.0</ele><time>2026-04-18T17:27:11.139Z</time></trkpt><trkpt lat="41.748704" lon="13.0488355"><ele>208.0</ele><time>2026-04-18T17:27:12.139Z</time></trkpt><trkpt lat="41.7487075" lon="13.048415666666665"><ele>207.0</ele><time>2026-04-18T17:27:13.139Z</time></trkpt><trkpt lat="41.7487105" lon="13.0479945"><ele>206.0</ele><time>2026-04-18T17:27:14.137Z</time></trkpt><trkpt lat="41.748712999999995" lon="13.0475755"><ele>205.5</ele><time>2026-04-18T17:27:15.137Z</time></trkpt><trkpt lat="41.748715499999996" lon="13.047156"><ele>205.0</ele><time>2026-04-18T17:27:16.139Z</time></trkpt><trkpt lat="41.748718333333336" lon="13.046736833333334"><ele>205.5</ele><time>2026-04-18T17:27:17.139Z</time></trkpt><trkpt lat="41.74872133333333" lon="13.046317666666667"><ele>206.0</ele><time>2026-04-18T17:27:18.136Z</time></trkpt><trkpt lat="41.7487255" lon="13.045899"><ele>205.5</ele><time>2026-04-18T17:27:19.136Z</time></trkpt><trkpt lat="41.748729166666664" lon="13.045481"><ele>205.0</ele><time>2026-04-18T17:27:20.139Z</time></trkpt><trkpt lat="41.74873216666667" lon="13.045064833333333"><ele>205.0</ele><time>2026-04-18T17:27:21.139Z</time></trkpt><trkpt lat="41.748735833333335" lon="13.044648333333335"><ele>205.0</ele><time>2026-04-18T17:27:22.138Z</time></trkpt><trkpt lat="41.74873966666668" lon="13.044244166666665"><ele>205.5</ele><time>2026-04-18T17:27:23.138Z</time></trkpt><trkpt lat="41.74874400000001" lon="13.043819499999998"><ele>206.0</ele><time>2026-04-18T17:27:24.137Z</time></trkpt><trkpt lat="41.748747833333326" lon="13.043418666666666"><ele>205.0</ele><time>2026-04-18T17:27:25.134Z</time></trkpt><trkpt lat="41.74875116666667" lon="13.042996833333333"><ele>204.0</ele><time>2026-04-18T17:27:26.136Z</time></trkpt><trkpt lat="41.7487545" lon="13.042573166666667"><ele>204.5</ele><time>2026-04-18T17:27:27.136Z</time></trkpt><trkpt lat="41.74875749999999" lon="13.0421725"><ele>205.0</ele><time>2026-04-18T17:27:28.137Z</time></trkpt><trkpt lat="41.748760499999996" lon="13.041748833333335"><ele>208.0</ele><time>2026-04-18T17:27:29.137Z</time></trkpt><trkpt lat="41.74876366666667" lon="13.041323333333333"><ele>211.0</ele><time>2026-04-18T17:27:30.151Z</time></trkpt><trkpt lat="41.74876649999999" lon="13.040922"><ele>213.5</ele><time>2026-04-18T17:27:31.137Z</time></trkpt><trkpt lat="41.74877016666666" lon="13.040497666666665"><ele>216.0</ele><time>2026-04-18T17:27:32.135Z</time></trkpt><trkpt lat="41.74877366666666" lon="13.040071499999998"><ele>218.5</ele><time>2026-04-18T17:27:33.139Z</time></trkpt><trkpt lat="41.748777000000004" lon="13.039669"><ele>221.0</ele><time>2026-04-18T17:27:34.135Z</time></trkpt><trkpt lat="41.74878016666667" lon="13.039244833333331"><ele>223.0</ele><time>2026-04-18T17:27:35.138Z</time></trkpt><trkpt lat="41.74878266666666" lon="13.038833833333333"><ele>225.0</ele><time>2026-04-18T17:27:36.134Z</time></trkpt><trkpt lat="41.74878533333334" lon="13.038415666666667"><ele>225.0</ele><time>2026-04-18T17:27:37.135Z</time></trkpt><trkpt lat="41.748788166666664" lon="13.037991166666666"><ele>225.0</ele><time>2026-04-18T17:27:38.135Z</time></trkpt><trkpt lat="41.748791499999996" lon="13.0375785"><ele>226.5</ele><time>2026-04-18T17:27:39.136Z</time></trkpt><trkpt lat="41.74879533333333" lon="13.037159166666667"><ele>228.0</ele><time>2026-04-18T17:27:40.136Z</time></trkpt><trkpt lat="41.74879850000001" lon="13.036733833333335"><ele>229.0</ele><time>2026-04-18T17:27:41.135Z</time></trkpt><trkpt lat="41.748801500000006" lon="13.036320666666667"><ele>230.0</ele><time>2026-04-18T17:27:42.136Z</time></trkpt><trkpt lat="41.7488045" lon="13.035901"><ele>230.5</ele><time>2026-04-18T17:27:43.136Z</time></trkpt><trkpt lat="41.748807333333325" lon="13.035473833333333"><ele>231.0</ele><time>2026-04-18T17:27:44.135Z</time></trkpt><trkpt lat="41.74880949999999" lon="13.035058833333334"><ele>231.0</ele><time>2026-04-18T17:27:45.137Z</time></trkpt><trkpt lat="41.74881166666667" lon="13.03463716666667"><ele>231.0</ele><time>2026-04-18T17:27:46.136Z</time></trkpt><trkpt lat="41.748814499999995" lon="13.034209500000001"><ele>232.0</ele><time>2026-04-18T17:27:47.136Z</time></trkpt><trkpt lat="41.748818500000006" lon="13.033794666666665"><ele>233.0</ele><time>2026-04-18T17:27:48.136Z</time></trkpt><trkpt lat="41.74882266666667" lon="13.033373333333335"><ele>233.5</ele><time>2026-04-18T17:27:49.138Z</time></trkpt><trkpt lat="41.748827" lon="13.032946333333332"><ele>234.0</ele><time>2026-04-18T17:27:50.139Z</time></trkpt><trkpt lat="41.7488305" lon="13.032533166666667"><ele>236.0</ele><time>2026-04-18T17:27:51.137Z</time></trkpt><trkpt lat="41.748834" lon="13.032113499999998"><ele>238.0</ele><time>2026-04-18T17:27:52.135Z</time></trkpt><trkpt lat="41.74883750000001" lon="13.031687"><ele>238.5</ele><time>2026-04-18T17:27:53.138Z</time></trkpt><trkpt lat="41.74884016666667" lon="13.0312745"><ele>239.0</ele><time>2026-04-18T17:27:54.135Z</time></trkpt><trkpt lat="41.74884266666666" lon="13.030856000000002"><ele>239.5</ele><time>2026-04-18T17:27:55.137Z</time></trkpt><trkpt lat="41.74884466666668" lon="13.030431833333335"><ele>240.0</ele><time>2026-04-18T17:27:56.135Z</time></trkpt><trkpt lat="41.74884716666667" lon="13.030020166666668"><ele>239.5</ele><time>2026-04-18T17:27:57.137Z</time></trkpt><trkpt lat="41.74885033333333" lon="13.029602166666665"><ele>239.0</ele><time>2026-04-18T17:27:58.136Z</time></trkpt><trkpt lat="41.74885416666666" lon="13.029176999999999"><ele>237.0</ele><time>2026-04-18T17:27:59.137Z</time></trkpt><trkpt lat="41.74885783333334" lon="13.028763333333332"><ele>235.0</ele><time>2026-04-18T17:28:00.138Z</time></trkpt><trkpt lat="41.74886133333332" lon="13.028341666666666"><ele>235.5</ele><time>2026-04-18T17:28:01.139Z</time></trkpt><trkpt lat="41.74886466666666" lon="13.027914166666669"><ele>236.0</ele><time>2026-04-18T17:28:02.136Z</time></trkpt><trkpt lat="41.74886783333333" lon="13.027497666666667"><ele>239.0</ele><time>2026-04-18T17:28:03.136Z</time></trkpt><trkpt lat="41.748871333333334" lon="13.027074166666667"><ele>242.0</ele><time>2026-04-18T17:28:04.137Z</time></trkpt><trkpt lat="41.74887466666667" lon="13.026644166666665"><ele>243.5</ele><time>2026-04-18T17:28:05.131Z</time></trkpt><trkpt lat="41.748878333333344" lon="13.026225333333333"><ele>245.0</ele><time>2026-04-18T17:28:06.136Z</time></trkpt><trkpt lat="41.74888166666666" lon="13.025801833333333"><ele>245.0</ele><time>2026-04-18T17:28:07.136Z</time></trkpt><trkpt lat="41.748884" lon="13.025373666666667"><ele>245.0</ele><time>2026-04-18T17:28:08.138Z</time></trkpt><trkpt lat="41.74888633333333" lon="13.024959333333333"><ele>245.0</ele><time>2026-04-18T17:28:09.141Z</time></trkpt><trkpt lat="41.74888899999999" lon="13.024541333333332"><ele>245.0</ele><time>2026-04-18T17:28:10.135Z</time></trkpt><trkpt lat="41.748891500000006" lon="13.024119666666666"><ele>245.5</ele><time>2026-04-18T17:28:11.134Z</time></trkpt><trkpt lat="41.74889366666667" lon="13.023712666666666"><ele>246.0</ele><time>2026-04-18T17:28:12.135Z</time></trkpt><trkpt lat="41.74889633333334" lon="13.023300166666667"><ele>244.5</ele><time>2026-04-18T17:28:13.136Z</time></trkpt><trkpt lat="41.74889683333334" lon="13.0228835"><ele>243.0</ele><time>2026-04-18T17:28:14.136Z</time></trkpt><trkpt lat="41.74889583333334" lon="13.022476666666668"><ele>243.0</ele><time>2026-04-18T17:28:15.136Z</time></trkpt><trkpt lat="41.748894666666665" lon="13.0220625"><ele>243.0</ele><time>2026-04-18T17:28:16.132Z</time></trkpt><trkpt lat="41.748894333333325" lon="13.021639666666665"><ele>243.0</ele><time>2026-04-18T17:28:17.14Z</time></trkpt><trkpt lat="41.748894166666666" lon="13.021228666666666"><ele>243.0</ele><time>2026-04-18T17:28:18.138Z</time></trkpt><trkpt lat="41.748894500000006" lon="13.020810166666667"><ele>240.5</ele><time>2026-04-18T17:28:19.138Z</time></trkpt><trkpt lat="41.748895499999996" lon="13.020391166666665"><ele>238.0</ele><time>2026-04-18T17:28:20.135Z</time></trkpt><trkpt lat="41.748897166666666" lon="13.019970333333333"><ele>235.0</ele><time>2026-04-18T17:28:21.138Z</time></trkpt><trkpt lat="41.74889916666666" lon="13.019550666666666"><ele>232.0</ele><time>2026-04-18T17:28:22.138Z</time></trkpt><trkpt lat="41.748901" lon="13.019130666666669"><ele>228.5</ele><time>2026-04-18T17:28:23.136Z</time></trkpt><trkpt lat="41.748903333333324" lon="13.018710166666665"><ele>225.0</ele><time>2026-04-18T17:28:24.141Z</time></trkpt><trkpt lat="41.748906166666664" lon="13.018290000000002"><ele>221.0</ele><time>2026-04-18T17:28:25.138Z</time></trkpt><trkpt lat="41.74890966666667" lon="13.017870333333333"><ele>217.0</ele><time>2026-04-18T17:28:26.135Z</time></trkpt><trkpt lat="41.74891349999999" lon="13.01745"><ele>217.5</ele><time>2026-04-18T17:28:27.139Z</time></trkpt><trkpt lat="41.748917" lon="13.017029166666669"><ele>218.0</ele><time>2026-04-18T17:28:28.137Z</time></trkpt><trkpt lat="41.74892" lon="13.016608666666665"><ele>218.0</ele><time>2026-04-18T17:28:29.141Z</time></trkpt><trkpt lat="41.74892266666667" lon="13.016190333333334"><ele>218.0</ele><time>2026-04-18T17:28:30.155Z</time></trkpt><trkpt lat="41.74892549999999" lon="13.015773166666667"><ele>221.5</ele><time>2026-04-18T17:28:31.137Z</time></trkpt><trkpt lat="41.7489295" lon="13.015355333333332"><ele>225.0</ele><time>2026-04-18T17:28:32.136Z</time></trkpt><trkpt lat="41.74893383333333" lon="13.014938666666668"><ele>226.5</ele><time>2026-04-18T17:28:33.139Z</time></trkpt><trkpt lat="41.74893716666667" lon="13.014521666666667"><ele>228.0</ele><time>2026-04-18T17:28:34.131Z</time></trkpt><trkpt lat="41.74893983333333" lon="13.014103333333333"><ele>228.0</ele><time>2026-04-18T17:28:35.137Z</time></trkpt><trkpt lat="41.748942666666665" lon="13.013685666666667"><ele>228.0</ele><time>2026-04-18T17:28:36.135Z</time></trkpt><trkpt lat="41.748946" lon="13.013266166666666"><ele>226.5</ele><time>2026-04-18T17:28:37.138Z</time></trkpt><trkpt lat="41.748949333333336" lon="13.012845666666665"><ele>225.0</ele><time>2026-04-18T17:28:38.137Z</time></trkpt><trkpt lat="41.748953" lon="13.012433333333336"><ele>223.0</ele><time>2026-04-18T17:28:39.141Z</time></trkpt><trkpt lat="41.74895633333333" lon="13.012"><ele>221.0</ele><time>2026-04-18T17:28:40.14Z</time></trkpt><trkpt lat="41.748958666666674" lon="13.0115905"><ele>221.0</ele><time>2026-04-18T17:28:41.139Z</time></trkpt><trkpt lat="41.74896083333333" lon="13.01115433333333"><ele>221.0</ele><time>2026-04-18T17:28:42.135Z</time></trkpt><trkpt lat="41.74896333333333" lon="13.010717166666666"><ele>222.0</ele><time>2026-04-18T17:28:43.137Z</time></trkpt><trkpt lat="41.74896633333333" lon="13.010305500000001"><ele>223.0</ele><time>2026-04-18T17:28:44.135Z</time></trkpt><trkpt lat="41.74897016666667" lon="13.009867999999997"><ele>224.5</ele><time>2026-04-18T17:28:45.132Z</time></trkpt><trkpt lat="41.74897349999999" lon="13.009430333333334"><ele>226.0</ele><time>2026-04-18T17:28:46.141Z</time></trkpt><trkpt lat="41.74897633333333" lon="13.009018166666666"><ele>227.0</ele><time>2026-04-18T17:28:47.139Z</time></trkpt><trkpt lat="41.74897916666667" lon="13.008578833333335"><ele>228.0</ele><time>2026-04-18T17:28:48.135Z</time></trkpt><trkpt lat="41.7489825" lon="13.008138833333332"><ele>229.0</ele><time>2026-04-18T17:28:49.137Z</time></trkpt><trkpt lat="41.74898700000001" lon="13.007722833333332"><ele>230.0</ele><time>2026-04-18T17:28:50.135Z</time></trkpt><trkpt lat="41.748992666666666" lon="13.007279833333333"><ele>232.0</ele><time>2026-04-18T17:28:51.135Z</time></trkpt><trkpt lat="41.748997666666675" lon="13.006855666666668"><ele>234.0</ele><time>2026-04-18T17:28:52.135Z</time></trkpt><trkpt lat="41.7490015" lon="13.0064185"><ele>234.0</ele><time>2026-04-18T17:28:53.137Z</time></trkpt><trkpt lat="41.74900433333334" lon="13.005974499999999"><ele>234.0</ele><time>2026-04-18T17:28:54.137Z</time></trkpt><trkpt lat="41.7490075" lon="13.005547833333333"><ele>236.0</ele><time>2026-04-18T17:28:55.138Z</time></trkpt><trkpt lat="41.7490115" lon="13.005108666666668"><ele>238.0</ele><time>2026-04-18T17:28:56.133Z</time></trkpt><trkpt lat="41.74901683333332" lon="13.004622333333334"><ele>240.0</ele><time>2026-04-18T17:28:57.136Z</time></trkpt><trkpt lat="41.74902350000001" lon="13.0041835"><ele>242.0</ele><time>2026-04-18T17:28:58.139Z</time></trkpt><trkpt lat="41.74903233333333" lon="13.003739833333336"><ele>243.0</ele><time>2026-04-18T17:28:59.137Z</time></trkpt><trkpt lat="41.74904133333333" lon="13.00330583333333"><ele>244.0</ele><time>2026-04-18T17:29:00.135Z</time></trkpt><trkpt lat="41.74904933333334" lon="13.002866333333335"><ele>244.0</ele><time>2026-04-18T17:29:01.14Z</time></trkpt><trkpt lat="41.749056" lon="13.002422166666669"><ele>244.0</ele><time>2026-04-18T17:29:02.136Z</time></trkpt><trkpt lat="41.74906033333333" lon="13.001986666666667"><ele>244.0</ele><time>2026-04-18T17:29:03.133Z</time></trkpt><trkpt lat="41.74906416666666" lon="13.001546166666667"><ele>244.0</ele><time>2026-04-18T17:29:04.138Z</time></trkpt><trkpt lat="41.749068833333325" lon="13.001100666666666"><ele>240.0</ele><time>2026-04-18T17:29:05.136Z</time></trkpt><trkpt lat="41.74907266666667" lon="13.000664833333333"><ele>236.0</ele><time>2026-04-18T17:29:06.137Z</time></trkpt><trkpt lat="41.749075999999995" lon="13.000223333333334"><ele>236.0</ele><time>2026-04-18T17:29:07.138Z</time></trkpt><trkpt lat="41.749078666666676" lon="12.999776833333332"><ele>236.0</ele><time>2026-04-18T17:29:08.136Z</time></trkpt><trkpt lat="41.749081499999996" lon="12.999340500000002"><ele>230.0</ele><time>2026-04-18T17:29:09.137Z</time></trkpt><trkpt lat="41.74908416666667" lon="12.998898833333334"><ele>224.0</ele><time>2026-04-18T17:29:10.14Z</time></trkpt><trkpt lat="41.749087666666675" lon="12.9984525"><ele>223.5</ele><time>2026-04-18T17:29:11.137Z</time></trkpt><trkpt lat="41.749092000000005" lon="12.998016166666666"><ele>223.0</ele><time>2026-04-18T17:29:12.136Z</time></trkpt><trkpt lat="41.74909599999999" lon="12.997574833333333"><ele>225.5</ele><time>2026-04-18T17:29:13.141Z</time></trkpt><trkpt lat="41.74909949999999" lon="12.997129666666668"><ele>228.0</ele><time>2026-04-18T17:29:14.136Z</time></trkpt><trkpt lat="41.74910283333333" lon="12.996693833333332"><ele>228.0</ele><time>2026-04-18T17:29:15.135Z</time></trkpt><trkpt lat="41.74910633333334" lon="12.996253166666667"><ele>228.0</ele><time>2026-04-18T17:29:16.138Z</time></trkpt><trkpt lat="41.74911300000001" lon="12.995808666666667"><ele>228.0</ele><time>2026-04-18T17:29:17.136Z</time></trkpt><trkpt lat="41.749125166666666" lon="12.995374166666666"><ele>228.0</ele><time>2026-04-18T17:29:18.136Z</time></trkpt><trkpt lat="41.74914366666667" lon="12.994936333333333"><ele>227.5</ele><time>2026-04-18T17:29:19.135Z</time></trkpt><trkpt lat="41.74916933333334" lon="12.994493833333335"><ele>227.0</ele><time>2026-04-18T17:29:20.139Z</time></trkpt><trkpt lat="41.74920266666666" lon="12.994063500000001"><ele>223.5</ele><time>2026-04-18T17:29:21.136Z</time></trkpt><trkpt lat="41.74924233333333" lon="12.993629666666667"><ele>220.0</ele><time>2026-04-18T17:29:22.136Z</time></trkpt><trkpt lat="41.74928866666667" lon="12.993193333333332"><ele>219.0</ele><time>2026-04-18T17:29:23.135Z</time></trkpt><trkpt lat="41.74934150000001" lon="12.992768666666667"><ele>218.0</ele><time>2026-04-18T17:29:24.136Z</time></trkpt><trkpt lat="41.749402999999994" lon="12.992341500000002"><ele>220.5</ele><time>2026-04-18T17:29:25.137Z</time></trkpt><trkpt lat="41.74947350000001" lon="12.991913"><ele>223.0</ele><time>2026-04-18T17:29:26.137Z</time></trkpt><trkpt lat="41.74955166666667" lon="12.991498833333333"><ele>226.0</ele><time>2026-04-18T17:29:27.136Z</time></trkpt><trkpt lat="41.7496405" lon="12.991081166666667"><ele>229.0</ele><time>2026-04-18T17:29:28.137Z</time></trkpt><trkpt lat="41.74973733333333" lon="12.990667499999999"><ele>229.5</ele><time>2026-04-18T17:29:29.136Z</time></trkpt><trkpt lat="41.74984116666666" lon="12.990257333333332"><ele>230.0</ele><time>2026-04-18T17:29:30.146Z</time></trkpt><trkpt lat="41.749952833333325" lon="12.989850166666669"><ele>227.5</ele><time>2026-04-18T17:29:31.135Z</time></trkpt><trkpt lat="41.75006916666666" lon="12.989445333333332"><ele>225.0</ele><time>2026-04-18T17:29:32.133Z</time></trkpt><trkpt lat="41.75018733333333" lon="12.989039833333335"><ele>223.5</ele><time>2026-04-18T17:29:33.134Z</time></trkpt><trkpt lat="41.750306" lon="12.988633833333331"><ele>222.0</ele><time>2026-04-18T17:29:34.135Z</time></trkpt><trkpt lat="41.7504255" lon="12.988227500000002"><ele>217.0</ele><time>2026-04-18T17:29:35.137Z</time></trkpt><trkpt lat="41.75054466666667" lon="12.987820333333332"><ele>212.0</ele><time>2026-04-18T17:29:36.136Z</time></trkpt><trkpt lat="41.75066400000001" lon="12.987413166666665"><ele>211.5</ele><time>2026-04-18T17:29:37.137Z</time></trkpt><trkpt lat="41.75078316666666" lon="12.987006000000001"><ele>211.0</ele><time>2026-04-18T17:29:38.136Z</time></trkpt><trkpt lat="41.75090166666667" lon="12.986600333333335"><ele>210.0</ele><time>2026-04-18T17:29:39.136Z</time></trkpt><trkpt lat="41.751020000000004" lon="12.986195500000001"><ele>209.0</ele><time>2026-04-18T17:29:40.137Z</time></trkpt><trkpt lat="41.751137333333325" lon="12.985791333333335"><ele>209.0</ele><time>2026-04-18T17:29:41.135Z</time></trkpt><trkpt lat="41.75125466666667" lon="12.985388500000001"><ele>209.0</ele><time>2026-04-18T17:29:42.136Z</time></trkpt><trkpt lat="41.751372499999995" lon="12.984986499999998"><ele>210.0</ele><time>2026-04-18T17:29:43.138Z</time></trkpt><trkpt lat="41.7514905" lon="12.984584833333335"><ele>211.0</ele><time>2026-04-18T17:29:44.134Z</time></trkpt><trkpt lat="41.75160833333333" lon="12.984182333333333"><ele>211.5</ele><time>2026-04-18T17:29:45.139Z</time></trkpt><trkpt lat="41.751726833333336" lon="12.983775666666666"><ele>212.0</ele><time>2026-04-18T17:29:46.139Z</time></trkpt><trkpt lat="41.75184550000001" lon="12.983365499999998"><ele>210.0</ele><time>2026-04-18T17:29:47.135Z</time></trkpt><trkpt lat="41.75196433333334" lon="12.982952499999998"><ele>208.0</ele><time>2026-04-18T17:29:48.135Z</time></trkpt><trkpt lat="41.75208366666667" lon="12.982538166666666"><ele>208.5</ele><time>2026-04-18T17:29:49.135Z</time></trkpt><trkpt lat="41.752203666666674" lon="12.982122166666667"><ele>209.0</ele><time>2026-04-18T17:29:50.133Z</time></trkpt><trkpt lat="41.75232416666666" lon="12.981705666666668"><ele>214.5</ele><time>2026-04-18T17:29:51.135Z</time></trkpt><trkpt lat="41.75244483333332" lon="12.981287833333331"><ele>220.0</ele><time>2026-04-18T17:29:52.137Z</time></trkpt><trkpt lat="41.75256550000001" lon="12.980868666666668"><ele>221.5</ele><time>2026-04-18T17:29:53.134Z</time></trkpt><trkpt lat="41.752686499999996" lon="12.980449166666665"><ele>223.0</ele><time>2026-04-18T17:29:54.133Z</time></trkpt><trkpt lat="41.752807" lon="12.980032666666666"><ele>226.0</ele><time>2026-04-18T17:29:55.137Z</time></trkpt><trkpt lat="41.75292866666667" lon="12.979613333333335"><ele>229.0</ele><time>2026-04-18T17:29:56.136Z</time></trkpt><trkpt lat="41.75305066666666" lon="12.979192499999998"><ele>229.0</ele><time>2026-04-18T17:29:57.136Z</time></trkpt><trkpt lat="41.75317216666667" lon="12.97877116666667"><ele>229.0</ele><time>2026-04-18T17:29:58.136Z</time></trkpt><trkpt lat="41.75329333333334" lon="12.978351333333334"><ele>228.5</ele><time>2026-04-18T17:29:59.14Z</time></trkpt><trkpt lat="41.75341466666667" lon="12.977931499999999"><ele>228.0</ele><time>2026-04-18T17:30:00.138Z</time></trkpt><trkpt lat="41.75353583333334" lon="12.977510833333335"><ele>221.5</ele><time>2026-04-18T17:30:01.138Z</time></trkpt><trkpt lat="41.75365683333333" lon="12.977091166666668"><ele>215.0</ele><time>2026-04-18T17:30:02.136Z</time></trkpt><trkpt lat="41.753778499999996" lon="12.976671"><ele>215.0</ele><time>2026-04-18T17:30:03.138Z</time></trkpt><trkpt lat="41.75390000000001" lon="12.976251166666668"><ele>215.0</ele><time>2026-04-18T17:30:04.136Z</time></trkpt><trkpt lat="41.75402183333334" lon="12.9758315"><ele>216.0</ele><time>2026-04-18T17:30:05.135Z</time></trkpt><trkpt lat="41.75414366666667" lon="12.975411666666666"><ele>217.0</ele><time>2026-04-18T17:30:06.139Z</time></trkpt><trkpt lat="41.75426583333333" lon="12.974991333333332"><ele>215.5</ele><time>2026-04-18T17:30:07.138Z</time></trkpt><trkpt lat="41.75438716666666" lon="12.974571333333332"><ele>214.0</ele><time>2026-04-18T17:30:08.138Z</time></trkpt><trkpt lat="41.75450716666666" lon="12.974154500000001"><ele>217.0</ele><time>2026-04-18T17:30:09.138Z</time></trkpt><trkpt lat="41.75462900000001" lon="12.973733666666664"><ele>220.0</ele><time>2026-04-18T17:30:10.137Z</time></trkpt><trkpt lat="41.754751666666664" lon="12.973312166666664"><ele>225.5</ele><time>2026-04-18T17:30:11.138Z</time></trkpt><trkpt lat="41.75487400000001" lon="12.972890833333334"><ele>231.0</ele><time>2026-04-18T17:30:12.135Z</time></trkpt><trkpt lat="41.75499583333334" lon="12.972469166666668"><ele>235.0</ele><time>2026-04-18T17:30:13.137Z</time></trkpt><trkpt lat="41.75511766666667" lon="12.972047166666666"><ele>239.0</ele><time>2026-04-18T17:30:14.136Z</time></trkpt><trkpt lat="41.75523966666667" lon="12.971624166666667"><ele>233.0</ele><time>2026-04-18T17:30:15.137Z</time></trkpt><trkpt lat="41.75536183333333" lon="12.971201333333331"><ele>227.0</ele><time>2026-04-18T17:30:16.136Z</time></trkpt><trkpt lat="41.75548416666667" lon="12.970777166666668"><ele>227.0</ele><time>2026-04-18T17:30:17.137Z</time></trkpt><trkpt lat="41.755606333333326" lon="12.970354"><ele>227.0</ele><time>2026-04-18T17:30:18.136Z</time></trkpt><trkpt lat="41.75572900000001" lon="12.96993033333333"><ele>229.5</ele><time>2026-04-18T17:30:19.136Z</time></trkpt><trkpt lat="41.755852000000004" lon="12.969507500000002"><ele>232.0</ele><time>2026-04-18T17:30:20.138Z</time></trkpt><trkpt lat="41.755974833333326" lon="12.969084833333334"><ele>229.5</ele><time>2026-04-18T17:30:21.136Z</time></trkpt><trkpt lat="41.75609216666666" lon="12.968678833333334"><ele>227.0</ele><time>2026-04-18T17:30:22.136Z</time></trkpt><trkpt lat="41.75621533333333" lon="12.9682515"><ele>227.0</ele><time>2026-04-18T17:30:23.133Z</time></trkpt><trkpt lat="41.75634" lon="12.96782016666667"><ele>227.0</ele><time>2026-04-18T17:30:24.136Z</time></trkpt><trkpt lat="41.7564575" lon="12.967411166666666"><ele>232.0</ele><time>2026-04-18T17:30:25.138Z</time></trkpt><trkpt lat="41.756583000000006" lon="12.96697666666667"><ele>237.0</ele><time>2026-04-18T17:30:26.135Z</time></trkpt><trkpt lat="41.756705833333335" lon="12.966550500000002"><ele>239.5</ele><time>2026-04-18T17:30:27.136Z</time></trkpt><trkpt lat="41.756826000000004" lon="12.966133833333334"><ele>242.0</ele><time>2026-04-18T17:30:28.138Z</time></trkpt><trkpt lat="41.75694749999999" lon="12.965712833333336"><ele>241.0</ele><time>2026-04-18T17:30:29.144Z</time></trkpt><trkpt lat="41.75706866666667" lon="12.965292166666664"><ele>240.0</ele><time>2026-04-18T17:30:30.156Z</time></trkpt><trkpt lat="41.757186000000004" lon="12.964884500000002"><ele>240.0</ele><time>2026-04-18T17:30:31.137Z</time></trkpt><trkpt lat="41.757308" lon="12.964458333333335"><ele>240.0</ele><time>2026-04-18T17:30:32.139Z</time></trkpt><trkpt lat="41.75742883333334" lon="12.964027333333334"><ele>243.5</ele><time>2026-04-18T17:30:33.135Z</time></trkpt><trkpt lat="41.75754100000001" lon="12.963615833333332"><ele>247.0</ele><time>2026-04-18T17:30:34.129Z</time></trkpt><trkpt lat="41.75765433333332" lon="12.963185166666664"><ele>245.5</ele><time>2026-04-18T17:30:35.131Z</time></trkpt><trkpt lat="41.757765333333325" lon="12.962748999999999"><ele>244.0</ele><time>2026-04-18T17:30:36.136Z</time></trkpt><trkpt lat="41.75786933333334" lon="12.962333999999998"><ele>244.0</ele><time>2026-04-18T17:30:37.135Z</time></trkpt><trkpt lat="41.75797550000001" lon="12.961900666666667"><ele>244.0</ele><time>2026-04-18T17:30:38.134Z</time></trkpt><trkpt lat="41.75808083333333" lon="12.961461499999999"><ele>245.0</ele><time>2026-04-18T17:30:39.135Z</time></trkpt><trkpt lat="41.758179000000005" lon="12.961042999999998"><ele>246.0</ele><time>2026-04-18T17:30:40.136Z</time></trkpt><trkpt lat="41.75827833333332" lon="12.960605166666669"><ele>246.0</ele><time>2026-04-18T17:30:41.137Z</time></trkpt><trkpt lat="41.75837683333333" lon="12.960163666666665"><ele>246.0</ele><time>2026-04-18T17:30:42.136Z</time></trkpt><trkpt lat="41.75847000000001" lon="12.9597445"><ele>241.5</ele><time>2026-04-18T17:30:43.138Z</time></trkpt><trkpt lat="41.75856566666667" lon="12.959310666666667"><ele>237.0</ele><time>2026-04-18T17:30:44.136Z</time></trkpt><trkpt lat="41.75865833333334" lon="12.958885833333333"><ele>237.0</ele><time>2026-04-18T17:30:45.132Z</time></trkpt><trkpt lat="41.75875066666667" lon="12.958457833333332"><ele>237.0</ele><time>2026-04-18T17:30:46.137Z</time></trkpt><trkpt lat="41.75884316666667" lon="12.958029500000002"><ele>239.0</ele><time>2026-04-18T17:30:47.137Z</time></trkpt><trkpt lat="41.75893500000001" lon="12.957613333333333"><ele>241.0</ele><time>2026-04-18T17:30:48.136Z</time></trkpt><trkpt lat="41.75902766666666" lon="12.957196666666668"><ele>241.5</ele><time>2026-04-18T17:30:49.136Z</time></trkpt><trkpt lat="41.75912066666667" lon="12.956778833333331"><ele>242.0</ele><time>2026-04-18T17:30:50.135Z</time></trkpt><trkpt lat="41.759211333333326" lon="12.956371"><ele>243.0</ele><time>2026-04-18T17:30:51.136Z</time></trkpt><trkpt lat="41.75930066666666" lon="12.955963333333333"><ele>244.0</ele><time>2026-04-18T17:30:52.131Z</time></trkpt><trkpt lat="41.75939083333333" lon="12.955551833333335"><ele>249.0</ele><time>2026-04-18T17:30:53.136Z</time></trkpt><trkpt lat="41.75947883333333" lon="12.95515"><ele>254.0</ele><time>2026-04-18T17:30:54.136Z</time></trkpt><trkpt lat="41.75956766666667" lon="12.954745166666665"><ele>254.0</ele><time>2026-04-18T17:30:55.137Z</time></trkpt><trkpt lat="41.75965766666666" lon="12.954337333333335"><ele>254.0</ele><time>2026-04-18T17:30:56.137Z</time></trkpt><trkpt lat="41.759745833333334" lon="12.953937333333332"><ele>252.5</ele><time>2026-04-18T17:30:57.137Z</time></trkpt><trkpt lat="41.75983433333334" lon="12.953534666666668"><ele>251.0</ele><time>2026-04-18T17:30:58.137Z</time></trkpt><trkpt lat="41.759924166666664" lon="12.953129333333333"><ele>248.5</ele><time>2026-04-18T17:30:59.135Z</time></trkpt><trkpt lat="41.760012999999994" lon="12.9527305"><ele>246.0</ele><time>2026-04-18T17:31:00.136Z</time></trkpt><trkpt lat="41.76010200000001" lon="12.952327333333336"><ele>245.0</ele><time>2026-04-18T17:31:01.137Z</time></trkpt><trkpt lat="41.760191333333324" lon="12.95192066666667"><ele>244.0</ele><time>2026-04-18T17:31:02.135Z</time></trkpt><trkpt lat="41.76027900000001" lon="12.951521166666664"><ele>243.5</ele><time>2026-04-18T17:31:03.132Z</time></trkpt><trkpt lat="41.760367333333335" lon="12.951119666666667"><ele>243.0</ele><time>2026-04-18T17:31:04.137Z</time></trkpt><trkpt lat="41.76045666666668" lon="12.950716"><ele>243.0</ele><time>2026-04-18T17:31:05.137Z</time></trkpt><trkpt lat="41.76054366666667" lon="12.950321333333333"><ele>243.0</ele><time>2026-04-18T17:31:06.137Z</time></trkpt><trkpt lat="41.76063116666666" lon="12.949925166666665"><ele>246.5</ele><time>2026-04-18T17:31:07.136Z</time></trkpt><trkpt lat="41.76071883333334" lon="12.949527333333334"><ele>250.0</ele><time>2026-04-18T17:31:08.138Z</time></trkpt><trkpt lat="41.760805166666664" lon="12.949136500000002"><ele>252.0</ele><time>2026-04-18T17:31:09.138Z</time></trkpt><trkpt lat="41.76089233333334" lon="12.9487435"><ele>254.0</ele><time>2026-04-18T17:31:10.137Z</time></trkpt><trkpt lat="41.76098066666666" lon="12.948345666666667"><ele>257.0</ele><time>2026-04-18T17:31:11.137Z</time></trkpt><trkpt lat="41.7610675" lon="12.947952666666668"><ele>260.0</ele><time>2026-04-18T17:31:12.137Z</time></trkpt><trkpt lat="41.76115499999999" lon="12.947554833333335"><ele>262.5</ele><time>2026-04-18T17:31:13.142Z</time></trkpt><trkpt lat="41.76124316666666" lon="12.947152333333335"><ele>265.0</ele><time>2026-04-18T17:31:14.134Z</time></trkpt><trkpt lat="41.761331500000004" lon="12.946754666666667"><ele>264.5</ele><time>2026-04-18T17:31:15.136Z</time></trkpt><trkpt lat="41.7614205" lon="12.946353333333333"><ele>264.0</ele><time>2026-04-18T17:31:16.137Z</time></trkpt><trkpt lat="41.761509833333335" lon="12.945950999999999"><ele>264.0</ele><time>2026-04-18T17:31:17.136Z</time></trkpt><trkpt lat="41.76159916666667" lon="12.945547500000002"><ele>264.0</ele><time>2026-04-18T17:31:18.136Z</time></trkpt><trkpt lat="41.761688500000005" lon="12.945144999999998"><ele>264.5</ele><time>2026-04-18T17:31:19.138Z</time></trkpt><trkpt lat="41.761778166666666" lon="12.944742"><ele>265.0</ele><time>2026-04-18T17:31:20.138Z</time></trkpt><trkpt lat="41.761866833333336" lon="12.944339999999999"><ele>262.5</ele><time>2026-04-18T17:31:21.134Z</time></trkpt><trkpt lat="41.761955666666665" lon="12.943937999999998"><ele>260.0</ele><time>2026-04-18T17:31:22.136Z</time></trkpt><trkpt lat="41.76204483333333" lon="12.943534833333334"><ele>260.0</ele><time>2026-04-18T17:31:23.139Z</time></trkpt><trkpt lat="41.76213333333333" lon="12.943133"><ele>260.0</ele><time>2026-04-18T17:31:24.137Z</time></trkpt><trkpt lat="41.76222200000001" lon="12.942731"><ele>260.0</ele><time>2026-04-18T17:31:25.136Z</time></trkpt><trkpt lat="41.76231083333334" lon="12.942328833333333"><ele>260.0</ele><time>2026-04-18T17:31:26.14Z</time></trkpt><trkpt lat="41.76239883333333" lon="12.941926666666665"><ele>260.0</ele><time>2026-04-18T17:31:27.154Z</time></trkpt><trkpt lat="41.762486666666675" lon="12.941525666666667"><ele>260.0</ele><time>2026-04-18T17:31:28.137Z</time></trkpt><trkpt lat="41.76257466666666" lon="12.941125333333332"><ele>260.5</ele><time>2026-04-18T17:31:29.139Z</time></trkpt><trkpt lat="41.7626715" lon="12.940684666666668"><ele>261.0</ele><time>2026-04-18T17:31:30.153Z</time></trkpt><trkpt lat="41.76275066666667" lon="12.940324833333333"><ele>264.0</ele><time>2026-04-18T17:31:31.139Z</time></trkpt><trkpt lat="41.7628355" lon="12.939944166666665"><ele>267.0</ele><time>2026-04-18T17:31:32.133Z</time></trkpt><trkpt lat="41.762926500000006" lon="12.939536333333335"><ele>267.5</ele><time>2026-04-18T17:31:33.137Z</time></trkpt><trkpt lat="41.76301716666667" lon="12.939127"><ele>268.0</ele><time>2026-04-18T17:31:34.137Z</time></trkpt><trkpt lat="41.763102666666654" lon="12.938739666666667"><ele>269.0</ele><time>2026-04-18T17:31:35.138Z</time></trkpt><trkpt lat="41.763192499999995" lon="12.938330166666665"><ele>270.0</ele><time>2026-04-18T17:31:36.138Z</time></trkpt><trkpt lat="41.763282499999995" lon="12.937918666666667"><ele>269.5</ele><time>2026-04-18T17:31:37.14Z</time></trkpt><trkpt lat="41.763367833333334" lon="12.937531000000002"><ele>269.0</ele><time>2026-04-18T17:31:38.139Z</time></trkpt><trkpt lat="41.76345849999999" lon="12.937120166666666"><ele>272.0</ele><time>2026-04-18T17:31:39.14Z</time></trkpt><trkpt lat="41.76354916666666" lon="12.936708833333332"><ele>275.0</ele><time>2026-04-18T17:31:40.139Z</time></trkpt><trkpt lat="41.76363483333333" lon="12.936320499999999"><ele>275.0</ele><time>2026-04-18T17:31:41.138Z</time></trkpt><trkpt lat="41.763726833333344" lon="12.935910499999999"><ele>275.0</ele><time>2026-04-18T17:31:42.138Z</time></trkpt><trkpt lat="41.763819" lon="12.935499499999999"><ele>274.5</ele><time>2026-04-18T17:31:43.137Z</time></trkpt><trkpt lat="41.763905333333334" lon="12.9351105"><ele>274.0</ele><time>2026-04-18T17:31:44.138Z</time></trkpt><trkpt lat="41.763995666666666" lon="12.934700166666667"><ele>274.0</ele><time>2026-04-18T17:31:45.138Z</time></trkpt><trkpt lat="41.76408583333333" lon="12.934287999999999"><ele>274.0</ele><time>2026-04-18T17:31:46.136Z</time></trkpt><trkpt lat="41.764170666666665" lon="12.933898500000002"><ele>275.0</ele><time>2026-04-18T17:31:47.139Z</time></trkpt><trkpt lat="41.76425966666667" lon="12.933487999999999"><ele>276.0</ele><time>2026-04-18T17:31:48.137Z</time></trkpt><trkpt lat="41.76435" lon="12.933076166666668"><ele>274.5</ele><time>2026-04-18T17:31:49.14Z</time></trkpt><trkpt lat="41.764434666666666" lon="12.932688666666664"><ele>273.0</ele><time>2026-04-18T17:31:50.138Z</time></trkpt><trkpt lat="41.764532499999994" lon="12.932244333333333"><ele>273.0</ele><time>2026-04-18T17:31:51.145Z</time></trkpt><trkpt lat="41.76461266666667" lon="12.931885333333334"><ele>273.0</ele><time>2026-04-18T17:31:52.137Z</time></trkpt><trkpt lat="41.76471166666666" lon="12.931437500000001"><ele>272.0</ele><time>2026-04-18T17:31:53.139Z</time></trkpt><trkpt lat="41.76479183333333" lon="12.931076333333333"><ele>271.0</ele><time>2026-04-18T17:31:54.136Z</time></trkpt><trkpt lat="41.764888500000005" lon="12.930639666666666"><ele>271.0</ele><time>2026-04-18T17:31:55.138Z</time></trkpt><trkpt lat="41.764978000000006" lon="12.930233666666668"><ele>271.0</ele><time>2026-04-18T17:31:56.138Z</time></trkpt><trkpt lat="41.76506500000001" lon="12.929836499999999"><ele>271.0</ele><time>2026-04-18T17:31:57.14Z</time></trkpt><trkpt lat="41.765152500000006" lon="12.929434833333334"><ele>271.0</ele><time>2026-04-18T17:31:58.139Z</time></trkpt><trkpt lat="41.765240999999996" lon="12.929028333333333"><ele>271.0</ele><time>2026-04-18T17:31:59.137Z</time></trkpt><trkpt lat="41.76532866666667" lon="12.928630333333334"><ele>271.0</ele><time>2026-04-18T17:32:00.136Z</time></trkpt><trkpt lat="41.7654175" lon="12.928227666666665"><ele>272.5</ele><time>2026-04-18T17:32:01.136Z</time></trkpt><trkpt lat="41.76550766666666" lon="12.92782"><ele>274.0</ele><time>2026-04-18T17:32:02.141Z</time></trkpt><trkpt lat="41.7655955" lon="12.927420333333336"><ele>276.0</ele><time>2026-04-18T17:32:03.136Z</time></trkpt><trkpt lat="41.76568483333334" lon="12.927016166666666"><ele>278.0</ele><time>2026-04-18T17:32:04.139Z</time></trkpt><trkpt lat="41.765775500000004" lon="12.926606833333334"><ele>280.0</ele><time>2026-04-18T17:32:05.136Z</time></trkpt><trkpt lat="41.765863833333334" lon="12.926205999999999"><ele>282.0</ele><time>2026-04-18T17:32:06.138Z</time></trkpt><trkpt lat="41.765953333333336" lon="12.925800166666665"><ele>280.5</ele><time>2026-04-18T17:32:07.137Z</time></trkpt><trkpt lat="41.76604433333334" lon="12.925390666666665"><ele>279.0</ele><time>2026-04-18T17:32:08.137Z</time></trkpt><trkpt lat="41.766133" lon="12.924990833333334"><ele>279.0</ele><time>2026-04-18T17:32:09.14Z</time></trkpt><trkpt lat="41.766222500000005" lon="12.9245865"><ele>279.0</ele><time>2026-04-18T17:32:10.138Z</time></trkpt><trkpt lat="41.76631283333332" lon="12.924178166666666"><ele>281.0</ele><time>2026-04-18T17:32:11.138Z</time></trkpt><trkpt lat="41.766401333333334" lon="12.9237785"><ele>283.0</ele><time>2026-04-18T17:32:12.134Z</time></trkpt><trkpt lat="41.766489666666665" lon="12.923375833333333"><ele>284.5</ele><time>2026-04-18T17:32:13.138Z</time></trkpt><trkpt lat="41.766576" lon="12.922978499999997"><ele>286.0</ele><time>2026-04-18T17:32:14.132Z</time></trkpt><trkpt lat="41.766659" lon="12.922596166666665"><ele>284.5</ele><time>2026-04-18T17:32:15.14Z</time></trkpt><trkpt lat="41.76674166666666" lon="12.922216833333334"><ele>283.0</ele><time>2026-04-18T17:32:16.136Z</time></trkpt><trkpt lat="41.76682433333334" lon="12.921838666666668"><ele>283.5</ele><time>2026-04-18T17:32:17.139Z</time></trkpt><trkpt lat="41.7669055" lon="12.921472999999999"><ele>284.0</ele><time>2026-04-18T17:32:18.136Z</time></trkpt><trkpt lat="41.7669865" lon="12.921106666666665"><ele>283.0</ele><time>2026-04-18T17:32:19.136Z</time></trkpt><trkpt lat="41.76706733333333" lon="12.920738833333333"><ele>282.0</ele><time>2026-04-18T17:32:20.135Z</time></trkpt><trkpt lat="41.767146000000004" lon="12.920379666666667"><ele>283.0</ele><time>2026-04-18T17:32:21.137Z</time></trkpt><trkpt lat="41.76722566666667" lon="12.920017666666668"><ele>284.0</ele><time>2026-04-18T17:32:22.139Z</time></trkpt><trkpt lat="41.76730616666667" lon="12.919651166666664"><ele>284.0</ele><time>2026-04-18T17:32:23.139Z</time></trkpt><trkpt lat="41.76738583333334" lon="12.919287833333332"><ele>284.0</ele><time>2026-04-18T17:32:24.138Z</time></trkpt><trkpt lat="41.76746666666666" lon="12.918918166666666"><ele>284.5</ele><time>2026-04-18T17:32:25.14Z</time></trkpt><trkpt lat="41.76754883333333" lon="12.9185415"><ele>285.0</ele><time>2026-04-18T17:32:26.137Z</time></trkpt><trkpt lat="41.76763016666667" lon="12.9181685"><ele>285.5</ele><time>2026-04-18T17:32:27.136Z</time></trkpt><trkpt lat="41.76771283333333" lon="12.917791"><ele>286.0</ele><time>2026-04-18T17:32:28.136Z</time></trkpt><trkpt lat="41.76779549999999" lon="12.917415833333333"><ele>287.0</ele><time>2026-04-18T17:32:29.14Z</time></trkpt><trkpt lat="41.7678775" lon="12.917044333333335"><ele>288.0</ele><time>2026-04-18T17:32:30.152Z</time></trkpt><trkpt lat="41.76795833333334" lon="12.916676166666665"><ele>289.0</ele><time>2026-04-18T17:32:31.137Z</time></trkpt><trkpt lat="41.76803933333334" lon="12.916311166666665"><ele>290.0</ele><time>2026-04-18T17:32:32.135Z</time></trkpt><trkpt lat="41.76811966666667" lon="12.915947833333332"><ele>289.5</ele><time>2026-04-18T17:32:33.137Z</time></trkpt><trkpt lat="41.768199666666675" lon="12.915585833333335"><ele>289.0</ele><time>2026-04-18T17:32:34.136Z</time></trkpt><trkpt lat="41.768279666666665" lon="12.915224666666667"><ele>289.5</ele><time>2026-04-18T17:32:35.136Z</time></trkpt><trkpt lat="41.76835899999999" lon="12.914865333333333"><ele>290.0</ele><time>2026-04-18T17:32:36.137Z</time></trkpt><trkpt lat="41.7684385" lon="12.9145065"><ele>290.0</ele><time>2026-04-18T17:32:37.137Z</time></trkpt><trkpt lat="41.76851750000001" lon="12.914149166666668"><ele>290.0</ele><time>2026-04-18T17:32:38.138Z</time></trkpt><trkpt lat="41.768595999999995" lon="12.913792999999998"><ele>295.5</ele><time>2026-04-18T17:32:39.136Z</time></trkpt><trkpt lat="41.76867533333334" lon="12.91343733333333"><ele>301.0</ele><time>2026-04-18T17:32:40.139Z</time></trkpt><trkpt lat="41.76875533333334" lon="12.913079666666667"><ele>301.5</ele><time>2026-04-18T17:32:41.139Z</time></trkpt><trkpt lat="41.76883533333333" lon="12.912719000000001"><ele>302.0</ele><time>2026-04-18T17:32:42.137Z</time></trkpt><trkpt lat="41.76891616666667" lon="12.912354166666669"><ele>302.0</ele><time>2026-04-18T17:32:43.136Z</time></trkpt><trkpt lat="41.768998333333336" lon="12.91198583333333"><ele>302.0</ele><time>2026-04-18T17:32:44.135Z</time></trkpt><trkpt lat="41.76908066666667" lon="12.911614833333333"><ele>299.5</ele><time>2026-04-18T17:32:45.137Z</time></trkpt><trkpt lat="41.7691635" lon="12.911239833333331"><ele>297.0</ele><time>2026-04-18T17:32:46.136Z</time></trkpt><trkpt lat="41.7692475" lon="12.910859666666667"><ele>297.0</ele><time>2026-04-18T17:32:47.136Z</time></trkpt><trkpt lat="41.769332500000004" lon="12.910475"><ele>297.0</ele><time>2026-04-18T17:32:48.142Z</time></trkpt><trkpt lat="41.76941833333334" lon="12.910087666666668"><ele>298.0</ele><time>2026-04-18T17:32:49.137Z</time></trkpt><trkpt lat="41.769503500000006" lon="12.909699"><ele>299.0</ele><time>2026-04-18T17:32:50.137Z</time></trkpt><trkpt lat="41.76958816666667" lon="12.909310333333334"><ele>298.0</ele><time>2026-04-18T17:32:51.137Z</time></trkpt><trkpt lat="41.76967333333334" lon="12.908921833333334"><ele>297.0</ele><time>2026-04-18T17:32:52.133Z</time></trkpt><trkpt lat="41.76975816666666" lon="12.908533499999999"><ele>297.0</ele><time>2026-04-18T17:32:53.136Z</time></trkpt><trkpt lat="41.769841666666665" lon="12.90814933333333"><ele>297.0</ele><time>2026-04-18T17:32:54.136Z</time></trkpt><trkpt lat="41.769926000000005" lon="12.907764333333333"><ele>299.5</ele><time>2026-04-18T17:32:55.14Z</time></trkpt><trkpt lat="41.77000933333334" lon="12.907387333333334"><ele>302.0</ele><time>2026-04-18T17:32:56.137Z</time></trkpt><trkpt lat="41.770094333333326" lon="12.907004333333335"><ele>302.0</ele><time>2026-04-18T17:32:57.137Z</time></trkpt><trkpt lat="41.77017983333334" lon="12.906616000000001"><ele>302.0</ele><time>2026-04-18T17:32:58.136Z</time></trkpt><trkpt lat="41.770265" lon="12.906230333333333"><ele>300.0</ele><time>2026-04-18T17:32:59.137Z</time></trkpt><trkpt lat="41.77035233333333" lon="12.905836333333331"><ele>298.0</ele><time>2026-04-18T17:33:00.136Z</time></trkpt><trkpt lat="41.770441833333344" lon="12.905433333333333"><ele>300.0</ele><time>2026-04-18T17:33:01.137Z</time></trkpt><trkpt lat="41.77053066666667" lon="12.905033333333332"><ele>302.0</ele><time>2026-04-18T17:33:02.136Z</time></trkpt><trkpt lat="41.77061983333333" lon="12.904630000000001"><ele>303.5</ele><time>2026-04-18T17:33:03.136Z</time></trkpt><trkpt lat="41.770710333333334" lon="12.904223333333334"><ele>305.0</ele><time>2026-04-18T17:33:04.137Z</time></trkpt><trkpt lat="41.77079966666667" lon="12.903825166666666"><ele>305.0</ele><time>2026-04-18T17:33:05.137Z</time></trkpt><trkpt lat="41.7708885" lon="12.903424"><ele>305.0</ele><time>2026-04-18T17:33:06.138Z</time></trkpt><trkpt lat="41.770976833333336" lon="12.903020166666666"><ele>307.0</ele><time>2026-04-18T17:33:07.136Z</time></trkpt><trkpt lat="41.77106316666667" lon="12.902624666666668"><ele>309.0</ele><time>2026-04-18T17:33:08.137Z</time></trkpt><trkpt lat="41.77115066666667" lon="12.902224666666665"><ele>310.0</ele><time>2026-04-18T17:33:09.138Z</time></trkpt><trkpt lat="41.77123966666666" lon="12.901826000000002"><ele>311.0</ele><time>2026-04-18T17:33:10.136Z</time></trkpt><trkpt lat="41.7713295" lon="12.901426833333336"><ele>312.0</ele><time>2026-04-18T17:33:11.141Z</time></trkpt><trkpt lat="41.771418666666655" lon="12.901027500000001"><ele>313.0</ele><time>2026-04-18T17:33:12.139Z</time></trkpt><trkpt lat="41.77150566666666" lon="12.9006305"><ele>314.5</ele><time>2026-04-18T17:33:13.137Z</time></trkpt><trkpt lat="41.77159283333334" lon="12.900235833333333"><ele>316.0</ele><time>2026-04-18T17:33:14.138Z</time></trkpt><trkpt lat="41.7716795" lon="12.899843500000001"><ele>316.0</ele><time>2026-04-18T17:33:15.141Z</time></trkpt><trkpt lat="41.77176533333333" lon="12.899453666666666"><ele>316.0</ele><time>2026-04-18T17:33:16.141Z</time></trkpt><trkpt lat="41.7718505" lon="12.899064"><ele>313.5</ele><time>2026-04-18T17:33:17.142Z</time></trkpt><trkpt lat="41.771936000000004" lon="12.898674499999998"><ele>311.0</ele><time>2026-04-18T17:33:18.14Z</time></trkpt><trkpt lat="41.77202233333334" lon="12.898283333333332"><ele>311.0</ele><time>2026-04-18T17:33:19.14Z</time></trkpt><trkpt lat="41.77210866666666" lon="12.897890500000003"><ele>311.0</ele><time>2026-04-18T17:33:20.139Z</time></trkpt><trkpt lat="41.772195333333336" lon="12.897494500000002"><ele>311.5</ele><time>2026-04-18T17:33:21.136Z</time></trkpt><trkpt lat="41.77228166666667" lon="12.897097166666667"><ele>312.0</ele><time>2026-04-18T17:33:22.138Z</time></trkpt><trkpt lat="41.77236616666667" lon="12.89671"><ele>313.0</ele><time>2026-04-18T17:33:23.139Z</time></trkpt><trkpt lat="41.7724555" lon="12.896301666666668"><ele>314.0</ele><time>2026-04-18T17:33:24.14Z</time></trkpt><trkpt lat="41.77254116666666" lon="12.895910833333334"><ele>314.0</ele><time>2026-04-18T17:33:25.146Z</time></trkpt><trkpt lat="41.77262983333333" lon="12.895507666666665"><ele>314.0</ele><time>2026-04-18T17:33:26.14Z</time></trkpt><trkpt lat="41.772721000000004" lon="12.8950975"><ele>314.5</ele><time>2026-04-18T17:33:27.141Z</time></trkpt><trkpt lat="41.772807666666665" lon="12.894705666666669"><ele>315.0</ele><time>2026-04-18T17:33:28.138Z</time></trkpt><trkpt lat="41.77289766666666" lon="12.894302333333334"><ele>314.5</ele><time>2026-04-18T17:33:29.14Z</time></trkpt><trkpt lat="41.77298866666667" lon="12.893892833333332"><ele>314.0</ele><time>2026-04-18T17:33:30.161Z</time></trkpt><trkpt lat="41.77307466666666" lon="12.893501"><ele>315.0</ele><time>2026-04-18T17:33:31.142Z</time></trkpt><trkpt lat="41.773163666666676" lon="12.8930965"><ele>316.0</ele><time>2026-04-18T17:33:32.136Z</time></trkpt><trkpt lat="41.773253833333335" lon="12.892685666666667"><ele>317.0</ele><time>2026-04-18T17:33:33.139Z</time></trkpt><trkpt lat="41.7733395" lon="12.892292999999999"><ele>318.0</ele><time>2026-04-18T17:33:34.141Z</time></trkpt><trkpt lat="41.7734275" lon="12.891889499999998"><ele>318.0</ele><time>2026-04-18T17:33:35.137Z</time></trkpt><trkpt lat="41.77351733333333" lon="12.891479833333335"><ele>318.0</ele><time>2026-04-18T17:33:36.139Z</time></trkpt><trkpt lat="41.773603666666666" lon="12.8910885"><ele>319.5</ele><time>2026-04-18T17:33:37.14Z</time></trkpt><trkpt lat="41.77369350000001" lon="12.890685"><ele>321.0</ele><time>2026-04-18T17:33:38.14Z</time></trkpt><trkpt lat="41.7737845" lon="12.890272000000001"><ele>322.5</ele><time>2026-04-18T17:33:39.136Z</time></trkpt><trkpt lat="41.773872833333336" lon="12.889874666666666"><ele>324.0</ele><time>2026-04-18T17:33:40.137Z</time></trkpt><trkpt lat="41.77396333333333" lon="12.889461500000001"><ele>324.5</ele><time>2026-04-18T17:33:41.14Z</time></trkpt><trkpt lat="41.77405483333333" lon="12.889039833333333"><ele>325.0</ele><time>2026-04-18T17:33:42.14Z</time></trkpt><trkpt lat="41.77414283333332" lon="12.888635333333331"><ele>325.5</ele><time>2026-04-18T17:33:43.137Z</time></trkpt><trkpt lat="41.77423533333334" lon="12.888217166666667"><ele>326.0</ele><time>2026-04-18T17:33:44.138Z</time></trkpt><trkpt lat="41.774328" lon="12.887801999999999"><ele>324.0</ele><time>2026-04-18T17:33:45.142Z</time></trkpt><trkpt lat="41.774421000000004" lon="12.887385166666665"><ele>322.0</ele><time>2026-04-18T17:33:46.138Z</time></trkpt><trkpt lat="41.77451466666666" lon="12.8869665"><ele>322.5</ele><time>2026-04-18T17:33:47.137Z</time></trkpt><trkpt lat="41.77460933333333" lon="12.886550833333335"><ele>323.0</ele><time>2026-04-18T17:33:48.138Z</time></trkpt><trkpt lat="41.77470533333333" lon="12.886134499999999"><ele>324.5</ele><time>2026-04-18T17:33:49.14Z</time></trkpt><trkpt lat="41.774800500000005" lon="12.885716833333333"><ele>326.0</ele><time>2026-04-18T17:33:50.136Z</time></trkpt><trkpt lat="41.77489466666666" lon="12.885301833333331"><ele>328.0</ele><time>2026-04-18T17:33:51.139Z</time></trkpt><trkpt lat="41.774988666666665" lon="12.884886333333334"><ele>330.0</ele><time>2026-04-18T17:33:52.138Z</time></trkpt><trkpt lat="41.77508316666667" lon="12.8844695"><ele>332.5</ele><time>2026-04-18T17:33:53.142Z</time></trkpt><trkpt lat="41.775177500000005" lon="12.884055499999999"><ele>335.0</ele><time>2026-04-18T17:33:54.14Z</time></trkpt><trkpt lat="41.775271333333336" lon="12.883639666666667"><ele>337.0</ele><time>2026-04-18T17:33:55.138Z</time></trkpt><trkpt lat="41.775364499999995" lon="12.883221499999998"><ele>339.0</ele><time>2026-04-18T17:33:56.14Z</time></trkpt><trkpt lat="41.775456333333345" lon="12.882805499999998"><ele>339.5</ele><time>2026-04-18T17:33:57.14Z</time></trkpt><trkpt lat="41.77554799999999" lon="12.882387833333333"><ele>340.0</ele><time>2026-04-18T17:33:58.137Z</time></trkpt><trkpt lat="41.775640833333334" lon="12.881969"><ele>339.5</ele><time>2026-04-18T17:33:59.14Z</time></trkpt><trkpt lat="41.77573283333333" lon="12.881552666666668"><ele>339.0</ele><time>2026-04-18T17:34:00.14Z</time></trkpt><trkpt lat="41.77582466666666" lon="12.881135500000001"><ele>339.0</ele><time>2026-04-18T17:34:01.136Z</time></trkpt><trkpt lat="41.775916666666674" lon="12.880716833333334"><ele>339.0</ele><time>2026-04-18T17:34:02.139Z</time></trkpt><trkpt lat="41.77600833333333" lon="12.88030033333333"><ele>342.5</ele><time>2026-04-18T17:34:03.14Z</time></trkpt><trkpt lat="41.7761" lon="12.879882166666668"><ele>346.0</ele><time>2026-04-18T17:34:04.139Z</time></trkpt><trkpt lat="41.7761915" lon="12.879462666666665"><ele>345.0</ele><time>2026-04-18T17:34:05.138Z</time></trkpt><trkpt lat="41.77628183333333" lon="12.879045"><ele>344.0</ele><time>2026-04-18T17:34:06.139Z</time></trkpt><trkpt lat="41.7763735" lon="12.8786265"><ele>343.5</ele><time>2026-04-18T17:34:07.139Z</time></trkpt><trkpt lat="41.776467" lon="12.878206666666665"><ele>343.0</ele><time>2026-04-18T17:34:08.136Z</time></trkpt><trkpt lat="41.7765575" lon="12.877788333333333"><ele>342.5</ele><time>2026-04-18T17:34:09.142Z</time></trkpt><trkpt lat="41.776645499999994" lon="12.877367833333336"><ele>342.0</ele><time>2026-04-18T17:34:10.14Z</time></trkpt><trkpt lat="41.776733" lon="12.876945333333333"><ele>340.0</ele><time>2026-04-18T17:34:11.136Z</time></trkpt><trkpt lat="41.77682133333333" lon="12.876526333333333"><ele>338.0</ele><time>2026-04-18T17:34:12.135Z</time></trkpt><trkpt lat="41.776911166666665" lon="12.876106333333333"><ele>344.0</ele><time>2026-04-18T17:34:13.138Z</time></trkpt><trkpt lat="41.7770005" lon="12.875685166666665"><ele>350.0</ele><time>2026-04-18T17:34:14.138Z</time></trkpt><trkpt lat="41.77709033333334" lon="12.875266833333335"><ele>349.5</ele><time>2026-04-18T17:34:15.137Z</time></trkpt><trkpt lat="41.777181166666665" lon="12.874846666666668"><ele>349.0</ele><time>2026-04-18T17:34:16.138Z</time></trkpt><trkpt lat="41.777274" lon="12.874424666666668"><ele>347.5</ele><time>2026-04-18T17:34:17.137Z</time></trkpt><trkpt lat="41.7773665" lon="12.874003999999998"><ele>346.0</ele><time>2026-04-18T17:34:18.138Z</time></trkpt><trkpt lat="41.777456833333325" lon="12.873589499999998"><ele>342.0</ele><time>2026-04-18T17:34:19.135Z</time></trkpt><trkpt lat="41.777546" lon="12.873181499999998"><ele>338.0</ele><time>2026-04-18T17:34:20.136Z</time></trkpt><trkpt lat="41.777640166666664" lon="12.872755333333334"><ele>339.0</ele><time>2026-04-18T17:34:21.138Z</time></trkpt><trkpt lat="41.7777345" lon="12.872326333333335"><ele>340.0</ele><time>2026-04-18T17:34:22.137Z</time></trkpt><trkpt lat="41.77782383333333" lon="12.871919833333335"><ele>342.0</ele><time>2026-04-18T17:34:23.137Z</time></trkpt><trkpt lat="41.777917166666676" lon="12.871495833333332"><ele>344.0</ele><time>2026-04-18T17:34:24.138Z</time></trkpt><trkpt lat="41.77801183333332" lon="12.871068833333334"><ele>345.5</ele><time>2026-04-18T17:34:25.14Z</time></trkpt><trkpt lat="41.778101666666664" lon="12.870663666666665"><ele>347.0</ele><time>2026-04-18T17:34:26.136Z</time></trkpt><trkpt lat="41.77819533333333" lon="12.870241833333333"><ele>347.5</ele><time>2026-04-18T17:34:27.137Z</time></trkpt><trkpt lat="41.77828883333333" lon="12.869816333333333"><ele>348.0</ele><time>2026-04-18T17:34:28.136Z</time></trkpt><trkpt lat="41.778377166666665" lon="12.869411999999999"><ele>347.0</ele><time>2026-04-18T17:34:29.14Z</time></trkpt><trkpt lat="41.778469333333334" lon="12.868990666666667"><ele>346.0</ele><time>2026-04-18T17:34:30.147Z</time></trkpt><trkpt lat="41.778561999999994" lon="12.868565"><ele>349.5</ele><time>2026-04-18T17:34:31.14Z</time></trkpt><trkpt lat="41.77865116666667" lon="12.868161000000002"><ele>353.0</ele><time>2026-04-18T17:34:32.138Z</time></trkpt><trkpt lat="41.778744666666675" lon="12.867738833333332"><ele>354.0</ele><time>2026-04-18T17:34:33.138Z</time></trkpt><trkpt lat="41.77883883333334" lon="12.867313333333334"><ele>355.0</ele><time>2026-04-18T17:34:34.138Z</time></trkpt><trkpt lat="41.778930499999994" lon="12.866909500000002"><ele>353.5</ele><time>2026-04-18T17:34:35.137Z</time></trkpt><trkpt lat="41.7790305" lon="12.866489166666668"><ele>352.0</ele><time>2026-04-18T17:34:36.136Z</time></trkpt><trkpt lat="41.77913733333333" lon="12.866067666666666"><ele>354.0</ele><time>2026-04-18T17:34:37.138Z</time></trkpt><trkpt lat="41.77924500000001" lon="12.86567"><ele>356.0</ele><time>2026-04-18T17:34:38.143Z</time></trkpt><trkpt lat="41.77936166666667" lon="12.865256499999997"><ele>358.0</ele><time>2026-04-18T17:34:39.136Z</time></trkpt><trkpt lat="41.77948283333334" lon="12.864840333333333"><ele>360.0</ele><time>2026-04-18T17:34:40.137Z</time></trkpt><trkpt lat="41.77960133333333" lon="12.864447"><ele>360.5</ele><time>2026-04-18T17:34:41.136Z</time></trkpt><trkpt lat="41.77972983333334" lon="12.864038"><ele>361.0</ele><time>2026-04-18T17:34:42.137Z</time></trkpt><trkpt lat="41.77986466666667" lon="12.863628333333335"><ele>361.5</ele><time>2026-04-18T17:34:43.137Z</time></trkpt><trkpt lat="41.77999799999999" lon="12.863241833333333"><ele>362.0</ele><time>2026-04-18T17:34:44.14Z</time></trkpt><trkpt lat="41.78014199999999" lon="12.862841666666668"><ele>361.0</ele><time>2026-04-18T17:34:45.136Z</time></trkpt><trkpt lat="41.78029216666667" lon="12.862440666666666"><ele>360.0</ele><time>2026-04-18T17:34:46.137Z</time></trkpt><trkpt lat="41.78043866666667" lon="12.862062666666667"><ele>359.5</ele><time>2026-04-18T17:34:47.136Z</time></trkpt><trkpt lat="41.78059516666667" lon="12.861672333333336"><ele>359.0</ele><time>2026-04-18T17:34:48.134Z</time></trkpt><trkpt lat="41.78075783333334" lon="12.861280333333331"><ele>359.5</ele><time>2026-04-18T17:34:49.137Z</time></trkpt><trkpt lat="41.78091566666667" lon="12.860911999999999"><ele>360.0</ele><time>2026-04-18T17:34:50.136Z</time></trkpt><trkpt lat="41.781085" lon="12.860531"><ele>362.0</ele><time>2026-04-18T17:34:51.136Z</time></trkpt><trkpt lat="41.78126016666666" lon="12.860149166666668"><ele>364.0</ele><time>2026-04-18T17:34:52.136Z</time></trkpt><trkpt lat="41.78144999999999" lon="12.859747833333332"><ele>364.0</ele><time>2026-04-18T17:34:53.141Z</time></trkpt><trkpt lat="41.781629" lon="12.859383833333334"><ele>364.0</ele><time>2026-04-18T17:34:54.139Z</time></trkpt><trkpt lat="41.7818145" lon="12.859019499999999"><ele>360.0</ele><time>2026-04-18T17:34:55.138Z</time></trkpt><trkpt lat="41.782005833333336" lon="12.858654833333333"><ele>356.0</ele><time>2026-04-18T17:34:56.139Z</time></trkpt><trkpt lat="41.78219533333333" lon="12.858301333333335"><ele>355.0</ele><time>2026-04-18T17:34:57.14Z</time></trkpt><trkpt lat="41.78238833333333" lon="12.857949166666666"><ele>354.0</ele><time>2026-04-18T17:34:58.138Z</time></trkpt><trkpt lat="41.78258533333333" lon="12.8575975"><ele>358.0</ele><time>2026-04-18T17:34:59.136Z</time></trkpt><trkpt lat="41.78278016666667" lon="12.8572555"><ele>362.0</ele><time>2026-04-18T17:35:00.139Z</time></trkpt><trkpt lat="41.78297666666667" lon="12.856912666666664"><ele>363.0</ele><time>2026-04-18T17:35:01.137Z</time></trkpt><trkpt lat="41.78317533333334" lon="12.8565675"><ele>364.0</ele><time>2026-04-18T17:35:02.134Z</time></trkpt><trkpt lat="41.783370166666664" lon="12.856230166666666"><ele>365.0</ele><time>2026-04-18T17:35:03.137Z</time></trkpt><trkpt lat="41.783566333333326" lon="12.855890333333333"><ele>366.0</ele><time>2026-04-18T17:35:04.133Z</time></trkpt><trkpt lat="41.78376333333333" lon="12.855545833333334"><ele>366.0</ele><time>2026-04-18T17:35:05.136Z</time></trkpt><trkpt lat="41.78395449999999" lon="12.855207166666666"><ele>366.0</ele><time>2026-04-18T17:35:06.136Z</time></trkpt><trkpt lat="41.78414766666666" lon="12.854863833333331"><ele>363.5</ele><time>2026-04-18T17:35:07.137Z</time></trkpt><trkpt lat="41.78434266666667" lon="12.854517833333333"><ele>361.0</ele><time>2026-04-18T17:35:08.133Z</time></trkpt><trkpt lat="41.784534" lon="12.854178833333334"><ele>360.0</ele><time>2026-04-18T17:35:09.139Z</time></trkpt><trkpt lat="41.78472716666667" lon="12.853837500000001"><ele>359.0</ele><time>2026-04-18T17:35:10.135Z</time></trkpt><trkpt lat="41.78492333333334" lon="12.853492833333334"><ele>356.0</ele><time>2026-04-18T17:35:11.137Z</time></trkpt><trkpt lat="41.78511533333334" lon="12.853155333333333"><ele>353.0</ele><time>2026-04-18T17:35:12.138Z</time></trkpt><trkpt lat="41.78530916666667" lon="12.852814"><ele>347.5</ele><time>2026-04-18T17:35:13.14Z</time></trkpt><trkpt lat="41.78550383333333" lon="12.852468166666664"><ele>342.0</ele><time>2026-04-18T17:35:14.139Z</time></trkpt><trkpt lat="41.78569399999999" lon="12.852129999999999"><ele>342.5</ele><time>2026-04-18T17:35:15.14Z</time></trkpt><trkpt lat="41.785886500000004" lon="12.85178866666667"><ele>343.0</ele><time>2026-04-18T17:35:16.138Z</time></trkpt><trkpt lat="41.78608183333334" lon="12.851444"><ele>344.0</ele><time>2026-04-18T17:35:17.139Z</time></trkpt><trkpt lat="41.786272666666676" lon="12.851107666666667"><ele>345.0</ele><time>2026-04-18T17:35:18.14Z</time></trkpt><trkpt lat="41.786464499999994" lon="12.850768333333335"><ele>345.5</ele><time>2026-04-18T17:35:19.14Z</time></trkpt><trkpt lat="41.78665783333333" lon="12.850427666666668"><ele>346.0</ele><time>2026-04-18T17:35:20.14Z</time></trkpt><trkpt lat="41.78684666666666" lon="12.850094166666668"><ele>348.5</ele><time>2026-04-18T17:35:21.137Z</time></trkpt><trkpt lat="41.78703600000001" lon="12.849757666666669"><ele>351.0</ele><time>2026-04-18T17:35:22.14Z</time></trkpt><trkpt lat="41.787227" lon="12.849417666666666"><ele>350.5</ele><time>2026-04-18T17:35:23.14Z</time></trkpt><trkpt lat="41.78741483333333" lon="12.849084999999997"><ele>350.0</ele><time>2026-04-18T17:35:24.144Z</time></trkpt><trkpt lat="41.78760483333334" lon="12.848751000000002"><ele>351.5</ele><time>2026-04-18T17:35:25.141Z</time></trkpt><trkpt lat="41.78779516666667" lon="12.848416000000002"><ele>353.0</ele><time>2026-04-18T17:35:26.14Z</time></trkpt><trkpt lat="41.78798583333334" lon="12.84808083333333"><ele>353.0</ele><time>2026-04-18T17:35:27.14Z</time></trkpt><trkpt lat="41.7881765" lon="12.847745000000002"><ele>353.0</ele><time>2026-04-18T17:35:28.135Z</time></trkpt><trkpt lat="41.788367333333326" lon="12.8474085"><ele>355.5</ele><time>2026-04-18T17:35:29.141Z</time></trkpt><trkpt lat="41.78855749999999" lon="12.847071166666666"><ele>358.0</ele><time>2026-04-18T17:35:30.16Z</time></trkpt><trkpt lat="41.788746999999994" lon="12.846735000000002"><ele>358.5</ele><time>2026-04-18T17:35:31.143Z</time></trkpt><trkpt lat="41.78893849999999" lon="12.846399000000002"><ele>359.0</ele><time>2026-04-18T17:35:32.141Z</time></trkpt><trkpt lat="41.7891305" lon="12.846062"><ele>358.5</ele><time>2026-04-18T17:35:33.143Z</time></trkpt><trkpt lat="41.78932116666667" lon="12.8457255"><ele>358.0</ele><time>2026-04-18T17:35:34.139Z</time></trkpt><trkpt lat="41.78951133333333" lon="12.845387833333332"><ele>358.0</ele><time>2026-04-18T17:35:35.14Z</time></trkpt><trkpt lat="41.789700833333335" lon="12.845049666666666"><ele>358.0</ele><time>2026-04-18T17:35:36.14Z</time></trkpt><trkpt lat="41.78989" lon="12.844712"><ele>358.0</ele><time>2026-04-18T17:35:37.147Z</time></trkpt><trkpt lat="41.79008066666667" lon="12.844376166666665"><ele>358.0</ele><time>2026-04-18T17:35:38.141Z</time></trkpt><trkpt lat="41.79027183333333" lon="12.844039999999998"><ele>355.5</ele><time>2026-04-18T17:35:39.136Z</time></trkpt><trkpt lat="41.79046333333334" lon="12.843702666666665"><ele>353.0</ele><time>2026-04-18T17:35:40.14Z</time></trkpt><trkpt lat="41.790655" lon="12.843364999999999"><ele>353.0</ele><time>2026-04-18T17:35:41.14Z</time></trkpt><trkpt lat="41.790846333333334" lon="12.843026666666667"><ele>353.0</ele><time>2026-04-18T17:35:42.14Z</time></trkpt><trkpt lat="41.791037499999995" lon="12.842687833333331"><ele>351.5</ele><time>2026-04-18T17:35:43.141Z</time></trkpt><trkpt lat="41.79122966666667" lon="12.842349"><ele>350.0</ele><time>2026-04-18T17:35:44.142Z</time></trkpt><trkpt lat="41.791422" lon="12.8420105"><ele>351.5</ele><time>2026-04-18T17:35:45.139Z</time></trkpt><trkpt lat="41.791615" lon="12.841671833333333"><ele>353.0</ele><time>2026-04-18T17:35:46.143Z</time></trkpt><trkpt lat="41.791808" lon="12.841333833333332"><ele>352.5</ele><time>2026-04-18T17:35:47.147Z</time></trkpt><trkpt lat="41.79200016666667" lon="12.840995666666666"><ele>352.0</ele><time>2026-04-18T17:35:48.14Z</time></trkpt><trkpt lat="41.79219266666667" lon="12.840656666666668"><ele>354.5</ele><time>2026-04-18T17:35:49.14Z</time></trkpt><trkpt lat="41.79238483333334" lon="12.840317"><ele>357.0</ele><time>2026-04-18T17:35:50.138Z</time></trkpt><trkpt lat="41.792577333333334" lon="12.839975333333332"><ele>362.5</ele><time>2026-04-18T17:35:51.14Z</time></trkpt><trkpt lat="41.79276866666667" lon="12.839633499999998"><ele>368.0</ele><time>2026-04-18T17:35:52.14Z</time></trkpt><trkpt lat="41.792961" lon="12.839291666666668"><ele>368.0</ele><time>2026-04-18T17:35:53.146Z</time></trkpt><trkpt lat="41.79315" lon="12.838957333333335"><ele>368.0</ele><time>2026-04-18T17:35:54.14Z</time></trkpt><trkpt lat="41.793345333333335" lon="12.838612666666666"><ele>369.0</ele><time>2026-04-18T17:35:55.14Z</time></trkpt><trkpt lat="41.79353716666666" lon="12.838273666666664"><ele>370.0</ele><time>2026-04-18T17:35:56.137Z</time></trkpt><trkpt lat="41.793731333333334" lon="12.837931166666666"><ele>370.0</ele><time>2026-04-18T17:35:57.138Z</time></trkpt><trkpt lat="41.79392750000001" lon="12.837585500000001"><ele>370.0</ele><time>2026-04-18T17:35:58.14Z</time></trkpt><trkpt lat="41.79411966666667" lon="12.8372475"><ele>370.0</ele><time>2026-04-18T17:35:59.139Z</time></trkpt><trkpt lat="41.794313166666676" lon="12.836906166666665"><ele>370.0</ele><time>2026-04-18T17:36:00.141Z</time></trkpt><trkpt lat="41.794507" lon="12.836560166666667"><ele>370.5</ele><time>2026-04-18T17:36:01.139Z</time></trkpt><trkpt lat="41.79469466666666" lon="12.836220833333334"><ele>371.0</ele><time>2026-04-18T17:36:02.141Z</time></trkpt><trkpt lat="41.79488150000001" lon="12.835875999999999"><ele>371.0</ele><time>2026-04-18T17:36:03.143Z</time></trkpt><trkpt lat="41.7950675" lon="12.835526166666668"><ele>371.0</ele><time>2026-04-18T17:36:04.14Z</time></trkpt><trkpt lat="41.79524800000001" lon="12.8351815"><ele>368.5</ele><time>2026-04-18T17:36:05.138Z</time></trkpt><trkpt lat="41.795429833333344" lon="12.834832500000001"><ele>366.0</ele><time>2026-04-18T17:36:06.142Z</time></trkpt><trkpt lat="41.795612500000004" lon="12.834478999999998"><ele>363.5</ele><time>2026-04-18T17:36:07.14Z</time></trkpt><trkpt lat="41.795791333333334" lon="12.834131500000002"><ele>361.0</ele><time>2026-04-18T17:36:08.137Z</time></trkpt><trkpt lat="41.79597333333333" lon="12.833780333333335"><ele>359.5</ele><time>2026-04-18T17:36:09.14Z</time></trkpt><trkpt lat="41.79615533333334" lon="12.833427166666668"><ele>358.0</ele><time>2026-04-18T17:36:10.138Z</time></trkpt><trkpt lat="41.79633783333333" lon="12.833073333333335"><ele>358.0</ele><time>2026-04-18T17:36:11.14Z</time></trkpt><trkpt lat="41.79652166666667" lon="12.832719833333332"><ele>358.0</ele><time>2026-04-18T17:36:12.137Z</time></trkpt><trkpt lat="41.7967075" lon="12.832363166666667"><ele>364.0</ele><time>2026-04-18T17:36:13.14Z</time></trkpt><trkpt lat="41.79688899999999" lon="12.832013333333336"><ele>370.0</ele><time>2026-04-18T17:36:14.141Z</time></trkpt><trkpt lat="41.79707166666667" lon="12.8316595"><ele>370.0</ele><time>2026-04-18T17:36:15.14Z</time></trkpt><trkpt lat="41.79725366666666" lon="12.831305"><ele>370.0</ele><time>2026-04-18T17:36:16.139Z</time></trkpt><trkpt lat="41.7974355" lon="12.830950499999998"><ele>371.5</ele><time>2026-04-18T17:36:17.141Z</time></trkpt><trkpt lat="41.797617" lon="12.830596666666667"><ele>373.0</ele><time>2026-04-18T17:36:18.14Z</time></trkpt><trkpt lat="41.797799166666664" lon="12.830243499999998"><ele>374.0</ele><time>2026-04-18T17:36:19.136Z</time></trkpt><trkpt lat="41.797982166666664" lon="12.829890833333332"><ele>375.0</ele><time>2026-04-18T17:36:20.136Z</time></trkpt><trkpt lat="41.79816466666666" lon="12.829539499999997"><ele>373.5</ele><time>2026-04-18T17:36:21.143Z</time></trkpt><trkpt lat="41.79834233333332" lon="12.829198"><ele>372.0</ele><time>2026-04-18T17:36:22.136Z</time></trkpt><trkpt lat="41.79852533333332" lon="12.828846666666669"><ele>371.0</ele><time>2026-04-18T17:36:23.136Z</time></trkpt><trkpt lat="41.79871166666666" lon="12.828488666666665"><ele>370.0</ele><time>2026-04-18T17:36:24.136Z</time></trkpt><trkpt lat="41.798891166666664" lon="12.8281425"><ele>369.0</ele><time>2026-04-18T17:36:25.138Z</time></trkpt><trkpt lat="41.799073500000006" lon="12.827788333333334"><ele>368.0</ele><time>2026-04-18T17:36:26.137Z</time></trkpt><trkpt lat="41.79925816666667" lon="12.827427"><ele>366.0</ele><time>2026-04-18T17:36:27.138Z</time></trkpt><trkpt lat="41.79943716666667" lon="12.827079"><ele>364.0</ele><time>2026-04-18T17:36:28.139Z</time></trkpt><trkpt lat="41.799621333333334" lon="12.826725666666668"><ele>363.0</ele><time>2026-04-18T17:36:29.14Z</time></trkpt><trkpt lat="41.79980816666666" lon="12.826366666666669"><ele>362.0</ele><time>2026-04-18T17:36:30.155Z</time></trkpt><trkpt lat="41.79998783333334" lon="12.826020999999999"><ele>362.5</ele><time>2026-04-18T17:36:31.14Z</time></trkpt><trkpt lat="41.80017283333333" lon="12.825666833333331"><ele>363.0</ele><time>2026-04-18T17:36:32.137Z</time></trkpt><trkpt lat="41.800360166666664" lon="12.825305833333333"><ele>360.0</ele><time>2026-04-18T17:36:33.139Z</time></trkpt><trkpt lat="41.80054033333332" lon="12.824956499999999"><ele>357.0</ele><time>2026-04-18T17:36:34.143Z</time></trkpt><trkpt lat="41.800724" lon="12.824599666666666"><ele>356.0</ele><time>2026-04-18T17:36:35.141Z</time></trkpt><trkpt lat="41.80091116666668" lon="12.824236166666665"><ele>355.0</ele><time>2026-04-18T17:36:36.139Z</time></trkpt><trkpt lat="41.801093666666674" lon="12.823885166666665"><ele>352.0</ele><time>2026-04-18T17:36:37.136Z</time></trkpt><trkpt lat="41.80127983333333" lon="12.823527666666667"><ele>349.0</ele><time>2026-04-18T17:36:38.14Z</time></trkpt><trkpt lat="41.801469" lon="12.8231645"><ele>348.5</ele><time>2026-04-18T17:36:39.142Z</time></trkpt><trkpt lat="41.80165133333333" lon="12.8228145"><ele>348.0</ele><time>2026-04-18T17:36:40.139Z</time></trkpt><trkpt lat="41.80183650000001" lon="12.822458166666669"><ele>346.5</ele><time>2026-04-18T17:36:41.14Z</time></trkpt><trkpt lat="41.80202466666666" lon="12.822095666666666"><ele>345.0</ele><time>2026-04-18T17:36:42.14Z</time></trkpt><trkpt lat="41.80220483333333" lon="12.821747000000002"><ele>348.0</ele><time>2026-04-18T17:36:43.141Z</time></trkpt><trkpt lat="41.80238816666667" lon="12.821391333333334"><ele>351.0</ele><time>2026-04-18T17:36:44.138Z</time></trkpt><trkpt lat="41.80257183333333" lon="12.821035500000002"><ele>354.0</ele><time>2026-04-18T17:36:45.142Z</time></trkpt><trkpt lat="41.802755833333336" lon="12.820680166666667"><ele>357.0</ele><time>2026-04-18T17:36:46.142Z</time></trkpt><trkpt lat="41.802940333333325" lon="12.820324999999999"><ele>360.0</ele><time>2026-04-18T17:36:47.14Z</time></trkpt><trkpt lat="41.803126000000006" lon="12.819967999999998"><ele>363.0</ele><time>2026-04-18T17:36:48.141Z</time></trkpt><trkpt lat="41.803311666666666" lon="12.819610333333332"><ele>364.0</ele><time>2026-04-18T17:36:49.141Z</time></trkpt><trkpt lat="41.80349699999999" lon="12.819252500000001"><ele>365.0</ele><time>2026-04-18T17:36:50.138Z</time></trkpt><trkpt lat="41.803681999999995" lon="12.818893833333334"><ele>363.5</ele><time>2026-04-18T17:36:51.139Z</time></trkpt><trkpt lat="41.803867833333335" lon="12.818533666666667"><ele>362.0</ele><time>2026-04-18T17:36:52.139Z</time></trkpt><trkpt lat="41.804055166666664" lon="12.818173999999999"><ele>362.0</ele><time>2026-04-18T17:36:53.139Z</time></trkpt><trkpt lat="41.80424333333334" lon="12.817813999999998"><ele>362.0</ele><time>2026-04-18T17:36:54.137Z</time></trkpt><trkpt lat="41.80443133333333" lon="12.817454333333336"><ele>360.5</ele><time>2026-04-18T17:36:55.139Z</time></trkpt><trkpt lat="41.80461916666666" lon="12.817093499999999"><ele>359.0</ele><time>2026-04-18T17:36:56.14Z</time></trkpt><trkpt lat="41.80480666666668" lon="12.816731666666666"><ele>359.0</ele><time>2026-04-18T17:36:57.139Z</time></trkpt><trkpt lat="41.80499416666667" lon="12.816369166666668"><ele>359.0</ele><time>2026-04-18T17:36:58.14Z</time></trkpt><trkpt lat="41.805181833333336" lon="12.816006333333332"><ele>357.5</ele><time>2026-04-18T17:36:59.137Z</time></trkpt><trkpt lat="41.805370499999995" lon="12.815644"><ele>356.0</ele><time>2026-04-18T17:37:00.138Z</time></trkpt><trkpt lat="41.80556016666666" lon="12.815282333333336"><ele>355.5</ele><time>2026-04-18T17:37:01.136Z</time></trkpt><trkpt lat="41.805749666666664" lon="12.814920166666665"><ele>355.0</ele><time>2026-04-18T17:37:02.139Z</time></trkpt><trkpt lat="41.805932" lon="12.814575999999999"><ele>354.0</ele><time>2026-04-18T17:37:03.139Z</time></trkpt><trkpt lat="41.806136" lon="12.814205333333332"><ele>353.0</ele><time>2026-04-18T17:37:04.138Z</time></trkpt><trkpt lat="41.80633666666666" lon="12.813855999999998"><ele>353.0</ele><time>2026-04-18T17:37:05.143Z</time></trkpt><trkpt lat="41.80654233333333" lon="12.813512833333334"><ele>353.0</ele><time>2026-04-18T17:37:06.138Z</time></trkpt><trkpt lat="41.80675366666666" lon="12.813175999999999"><ele>351.5</ele><time>2026-04-18T17:37:07.139Z</time></trkpt><trkpt lat="41.806972" lon="12.812846000000002"><ele>350.0</ele><time>2026-04-18T17:37:08.141Z</time></trkpt><trkpt lat="41.80719783333334" lon="12.812524833333335"><ele>348.5</ele><time>2026-04-18T17:37:09.141Z</time></trkpt><trkpt lat="41.807424499999996" lon="12.812220666666667"><ele>347.0</ele><time>2026-04-18T17:37:10.137Z</time></trkpt><trkpt lat="41.80767000000001" lon="12.811911000000002"><ele>347.0</ele><time>2026-04-18T17:37:11.142Z</time></trkpt><trkpt lat="41.807906" lon="12.811631666666665"><ele>347.0</ele><time>2026-04-18T17:37:12.143Z</time></trkpt><trkpt lat="41.808163833333346" lon="12.811344"><ele>347.0</ele><time>2026-04-18T17:37:13.14Z</time></trkpt><trkpt lat="41.808428333333325" lon="12.811066333333335"><ele>347.0</ele><time>2026-04-18T17:37:14.14Z</time></trkpt><trkpt lat="41.80868366666667" lon="12.810816166666665"><ele>345.5</ele><time>2026-04-18T17:37:15.14Z</time></trkpt><trkpt lat="41.80896183333333" lon="12.810562499999998"><ele>344.0</ele><time>2026-04-18T17:37:16.14Z</time></trkpt><trkpt lat="41.809245" lon="12.810319833333333"><ele>342.5</ele><time>2026-04-18T17:37:17.136Z</time></trkpt><trkpt lat="41.809517333333325" lon="12.810101999999999"><ele>341.0</ele><time>2026-04-18T17:37:18.14Z</time></trkpt><trkpt lat="41.80981083333333" lon="12.809882499999999"><ele>341.0</ele><time>2026-04-18T17:37:19.14Z</time></trkpt><trkpt lat="41.81009566666667" lon="12.809684833333332"><ele>341.0</ele><time>2026-04-18T17:37:20.142Z</time></trkpt><trkpt lat="41.810395333333325" lon="12.809493666666667"><ele>335.0</ele><time>2026-04-18T17:37:21.142Z</time></trkpt><trkpt lat="41.8107025" lon="12.8093135"><ele>329.0</ele><time>2026-04-18T17:37:22.138Z</time></trkpt><trkpt lat="41.810999499999994" lon="12.809153499999999"><ele>326.5</ele><time>2026-04-18T17:37:23.142Z</time></trkpt><trkpt lat="41.81130983333334" lon="12.809000666666668"><ele>324.0</ele><time>2026-04-18T17:37:24.141Z</time></trkpt><trkpt lat="41.8116275" lon="12.808859333333332"><ele>322.0</ele><time>2026-04-18T17:37:25.14Z</time></trkpt><trkpt lat="41.81193416666667" lon="12.808738833333333"><ele>320.0</ele><time>2026-04-18T17:37:26.138Z</time></trkpt><trkpt lat="41.812254333333335" lon="12.808628500000001"><ele>320.0</ele><time>2026-04-18T17:37:27.141Z</time></trkpt><trkpt lat="41.8125805" lon="12.808531"><ele>320.0</ele><time>2026-04-18T17:37:28.136Z</time></trkpt><trkpt lat="41.8128935" lon="12.808449666666668"><ele>316.5</ele><time>2026-04-18T17:37:29.142Z</time></trkpt><trkpt lat="41.813255999999996" lon="12.808363999999997"><ele>313.0</ele><time>2026-04-18T17:37:30.161Z</time></trkpt><trkpt lat="41.81354533333333" lon="12.808303"><ele>310.5</ele><time>2026-04-18T17:37:31.144Z</time></trkpt><trkpt lat="41.8138595" lon="12.808240666666665"><ele>308.0</ele><time>2026-04-18T17:37:32.141Z</time></trkpt><trkpt lat="41.81418416666667" lon="12.808183833333333"><ele>308.0</ele><time>2026-04-18T17:37:33.142Z</time></trkpt><trkpt lat="41.814513000000005" lon="12.808132166666667"><ele>308.0</ele><time>2026-04-18T17:37:34.146Z</time></trkpt><trkpt lat="41.81482666666667" lon="12.8080875"><ele>308.0</ele><time>2026-04-18T17:37:35.137Z</time></trkpt><trkpt lat="41.815150833333334" lon="12.808042666666665"><ele>308.0</ele><time>2026-04-18T17:37:36.143Z</time></trkpt><trkpt lat="41.815478000000006" lon="12.807997833333332"><ele>307.0</ele><time>2026-04-18T17:37:37.144Z</time></trkpt><trkpt lat="41.815789333333335" lon="12.807955"><ele>306.0</ele><time>2026-04-18T17:37:38.139Z</time></trkpt><trkpt lat="41.816111333333346" lon="12.807909333333335"><ele>304.0</ele><time>2026-04-18T17:37:39.138Z</time></trkpt><trkpt lat="41.816437666666666" lon="12.80786"><ele>302.0</ele><time>2026-04-18T17:37:40.143Z</time></trkpt><trkpt lat="41.81674883333333" lon="12.807811166666665"><ele>300.5</ele><time>2026-04-18T17:37:41.146Z</time></trkpt><trkpt lat="41.817071166666665" lon="12.807758"><ele>299.0</ele><time>2026-04-18T17:37:42.14Z</time></trkpt><trkpt lat="41.81741999999999" lon="12.807695666666666"><ele>298.5</ele><time>2026-04-18T17:37:43.152Z</time></trkpt><trkpt lat="41.817707166666665" lon="12.807639"><ele>298.0</ele><time>2026-04-18T17:37:44.143Z</time></trkpt><trkpt lat="41.81806466666667" lon="12.807559499999998"><ele>298.0</ele><time>2026-04-18T17:37:45.143Z</time></trkpt><trkpt lat="41.81835066666666" lon="12.807490666666668"><ele>298.0</ele><time>2026-04-18T17:37:46.144Z</time></trkpt><trkpt lat="41.818659333333336" lon="12.807410833333332"><ele>296.5</ele><time>2026-04-18T17:37:47.142Z</time></trkpt><trkpt lat="41.81901433333334" lon="12.807310666666668"><ele>295.0</ele><time>2026-04-18T17:37:48.143Z</time></trkpt><trkpt lat="41.81932" lon="12.807217166666666"><ele>294.0</ele><time>2026-04-18T17:37:49.145Z</time></trkpt><trkpt lat="41.81963483333334" lon="12.807114000000002"><ele>293.0</ele><time>2026-04-18T17:37:50.14Z</time></trkpt><trkpt lat="41.819953166666664" lon="12.807002666666666"><ele>293.0</ele><time>2026-04-18T17:37:51.14Z</time></trkpt><trkpt lat="41.820255333333336" lon="12.806889166666666"><ele>293.0</ele><time>2026-04-18T17:37:52.141Z</time></trkpt><trkpt lat="41.82056466666666" lon="12.806765833333335"><ele>292.5</ele><time>2026-04-18T17:37:53.141Z</time></trkpt><trkpt lat="41.820874833333335" lon="12.806634666666667"><ele>292.0</ele><time>2026-04-18T17:37:54.139Z</time></trkpt><trkpt lat="41.82116783333333" lon="12.806503666666668"><ele>292.0</ele><time>2026-04-18T17:37:55.14Z</time></trkpt><trkpt lat="41.82146633333333" lon="12.806364333333333"><ele>292.0</ele><time>2026-04-18T17:37:56.14Z</time></trkpt><trkpt lat="41.821729833333336" lon="12.806235833333336"><ele>292.0</ele><time>2026-04-18T17:37:57.136Z</time></trkpt><trkpt lat="41.822045166666676" lon="12.806076166666665"><ele>292.0</ele><time>2026-04-18T17:37:58.141Z</time></trkpt><trkpt lat="41.8223305" lon="12.805924666666666"><ele>293.0</ele><time>2026-04-18T17:37:59.14Z</time></trkpt><trkpt lat="41.822608833333334" lon="12.805770500000003"><ele>294.0</ele><time>2026-04-18T17:38:00.14Z</time></trkpt><trkpt lat="41.82288516666667" lon="12.805611500000001"><ele>294.0</ele><time>2026-04-18T17:38:01.14Z</time></trkpt><trkpt lat="41.823161166666665" lon="12.805448166666666"><ele>294.0</ele><time>2026-04-18T17:38:02.137Z</time></trkpt><trkpt lat="41.82343266666666" lon="12.805284833333333"><ele>290.0</ele><time>2026-04-18T17:38:03.141Z</time></trkpt><trkpt lat="41.82370616666667" lon="12.805120166666667"><ele>286.0</ele><time>2026-04-18T17:38:04.138Z</time></trkpt><trkpt lat="41.823981" lon="12.804950499999999"><ele>286.0</ele><time>2026-04-18T17:38:05.141Z</time></trkpt><trkpt lat="41.824253333333345" lon="12.804778500000001"><ele>286.0</ele><time>2026-04-18T17:38:06.144Z</time></trkpt><trkpt lat="41.824532166666664" lon="12.804597833333332"><ele>286.5</ele><time>2026-04-18T17:38:07.14Z</time></trkpt><trkpt lat="41.82481866666667" lon="12.804409999999999"><ele>287.0</ele><time>2026-04-18T17:38:08.136Z</time></trkpt><trkpt lat="41.82510666666667" lon="12.804221666666669"><ele>289.5</ele><time>2026-04-18T17:38:09.14Z</time></trkpt><trkpt lat="41.82540016666667" lon="12.804031166666668"><ele>292.0</ele><time>2026-04-18T17:38:10.139Z</time></trkpt><trkpt lat="41.82569766666668" lon="12.8038385"><ele>292.5</ele><time>2026-04-18T17:38:11.139Z</time></trkpt><trkpt lat="41.82599366666667" lon="12.803647999999997"><ele>293.0</ele><time>2026-04-18T17:38:12.139Z</time></trkpt><trkpt lat="41.82629300000001" lon="12.803457333333332"><ele>293.0</ele><time>2026-04-18T17:38:13.138Z</time></trkpt><trkpt lat="41.82659616666667" lon="12.803264500000001"><ele>293.0</ele><time>2026-04-18T17:38:14.137Z</time></trkpt><trkpt lat="41.826896999999995" lon="12.803075333333332"><ele>294.5</ele><time>2026-04-18T17:38:15.135Z</time></trkpt><trkpt lat="41.827200999999995" lon="12.802887166666668"><ele>296.0</ele><time>2026-04-18T17:38:16.138Z</time></trkpt><trkpt lat="41.82750833333333" lon="12.802700166666666"><ele>293.5</ele><time>2026-04-18T17:38:17.137Z</time></trkpt><trkpt lat="41.82781383333332" lon="12.802517166666666"><ele>291.0</ele><time>2026-04-18T17:38:18.137Z</time></trkpt><trkpt lat="41.82812216666666" lon="12.802335333333334"><ele>291.0</ele><time>2026-04-18T17:38:19.137Z</time></trkpt><trkpt lat="41.82843433333335" lon="12.802154833333335"><ele>291.0</ele><time>2026-04-18T17:38:20.141Z</time></trkpt><trkpt lat="41.828743833333334" lon="12.8019795"><ele>288.5</ele><time>2026-04-18T17:38:21.136Z</time></trkpt><trkpt lat="41.82905716666667" lon="12.801805500000002"><ele>286.0</ele><time>2026-04-18T17:38:22.131Z</time></trkpt><trkpt lat="41.829373000000004" lon="12.801635833333334"><ele>280.5</ele><time>2026-04-18T17:38:23.138Z</time></trkpt><trkpt lat="41.829685000000005" lon="12.801471"><ele>275.0</ele><time>2026-04-18T17:38:24.14Z</time></trkpt><trkpt lat="41.830000166666665" lon="12.801307333333334"><ele>275.0</ele><time>2026-04-18T17:38:25.14Z</time></trkpt><trkpt lat="41.83031716666666" lon="12.801145666666665"><ele>275.0</ele><time>2026-04-18T17:38:26.135Z</time></trkpt><trkpt lat="41.830633166666665" lon="12.8009875"><ele>275.0</ele><time>2026-04-18T17:38:27.138Z</time></trkpt><trkpt lat="41.83095066666666" lon="12.800831333333333"><ele>275.0</ele><time>2026-04-18T17:38:28.14Z</time></trkpt><trkpt lat="41.831271" lon="12.800676"><ele>275.0</ele><time>2026-04-18T17:38:29.142Z</time></trkpt><trkpt lat="41.83158883333334" lon="12.800523666666669"><ele>275.0</ele><time>2026-04-18T17:38:30.159Z</time></trkpt><trkpt lat="41.831907666666666" lon="12.8003725"><ele>276.5</ele><time>2026-04-18T17:38:31.142Z</time></trkpt><trkpt lat="41.83222933333333" lon="12.800222166666666"><ele>278.0</ele><time>2026-04-18T17:38:32.141Z</time></trkpt><trkpt lat="41.832548333333335" lon="12.800073999999999"><ele>270.5</ele><time>2026-04-18T17:38:33.144Z</time></trkpt><trkpt lat="41.832868166666664" lon="12.7999265"><ele>263.0</ele><time>2026-04-18T17:38:34.14Z</time></trkpt><trkpt lat="41.833188166666666" lon="12.799779999999998"><ele>267.0</ele><time>2026-04-18T17:38:35.137Z</time></trkpt><trkpt lat="41.83350816666666" lon="12.799632"><ele>271.0</ele><time>2026-04-18T17:38:36.14Z</time></trkpt><trkpt lat="41.833827333333325" lon="12.799482333333332"><ele>270.5</ele><time>2026-04-18T17:38:37.136Z</time></trkpt><trkpt lat="41.834146499999996" lon="12.799332666666665"><ele>270.0</ele><time>2026-04-18T17:38:38.139Z</time></trkpt><trkpt lat="41.83446550000001" lon="12.799184166666665"><ele>270.0</ele><time>2026-04-18T17:38:39.14Z</time></trkpt><trkpt lat="41.834786" lon="12.7990375"><ele>270.0</ele><time>2026-04-18T17:38:40.14Z</time></trkpt><trkpt lat="41.83510700000001" lon="12.798894166666667"><ele>273.0</ele><time>2026-04-18T17:38:41.14Z</time></trkpt><trkpt lat="41.83542816666667" lon="12.798750833333335"><ele>276.0</ele><time>2026-04-18T17:38:42.161Z</time></trkpt><trkpt lat="41.835749500000006" lon="12.798606666666668"><ele>268.5</ele><time>2026-04-18T17:38:43.143Z</time></trkpt><trkpt lat="41.836068833333336" lon="12.798459166666666"><ele>261.0</ele><time>2026-04-18T17:38:44.133Z</time></trkpt><trkpt lat="41.83638833333333" lon="12.7983065"><ele>261.0</ele><time>2026-04-18T17:38:45.14Z</time></trkpt><trkpt lat="41.836706500000005" lon="12.798152166666668"><ele>261.0</ele><time>2026-04-18T17:38:46.142Z</time></trkpt><trkpt lat="41.83702483333334" lon="12.797993666666665"><ele>262.0</ele><time>2026-04-18T17:38:47.141Z</time></trkpt><trkpt lat="41.83734166666667" lon="12.797832333333334"><ele>263.0</ele><time>2026-04-18T17:38:48.137Z</time></trkpt><trkpt lat="41.83765833333334" lon="12.797670166666666"><ele>261.5</ele><time>2026-04-18T17:38:49.14Z</time></trkpt><trkpt lat="41.83797533333333" lon="12.797507833333336"><ele>260.0</ele><time>2026-04-18T17:38:50.138Z</time></trkpt><trkpt lat="41.83829216666667" lon="12.797343000000001"><ele>264.0</ele><time>2026-04-18T17:38:51.14Z</time></trkpt><trkpt lat="41.838607833333334" lon="12.797176666666667"><ele>268.0</ele><time>2026-04-18T17:38:52.14Z</time></trkpt><trkpt lat="41.838923666666666" lon="12.797008166666668"><ele>268.0</ele><time>2026-04-18T17:38:53.136Z</time></trkpt><trkpt lat="41.83923849999999" lon="12.796837833333333"><ele>268.0</ele><time>2026-04-18T17:38:54.136Z</time></trkpt><trkpt lat="41.839553666666674" lon="12.796665333333333"><ele>267.0</ele><time>2026-04-18T17:38:55.135Z</time></trkpt><trkpt lat="41.839862" lon="12.796494499999998"><ele>266.0</ele><time>2026-04-18T17:38:56.135Z</time></trkpt><trkpt lat="41.84017633333333" lon="12.796318666666666"><ele>266.0</ele><time>2026-04-18T17:38:57.135Z</time></trkpt><trkpt lat="41.840492499999996" lon="12.796139166666668"><ele>266.0</ele><time>2026-04-18T17:38:58.138Z</time></trkpt><trkpt lat="41.84080183333334" lon="12.795962166666667"><ele>261.0</ele><time>2026-04-18T17:38:59.136Z</time></trkpt><trkpt lat="41.841114166666664" lon="12.795783166666668"><ele>256.0</ele><time>2026-04-18T17:39:00.137Z</time></trkpt><trkpt lat="41.841429" lon="12.795601"><ele>256.0</ele><time>2026-04-18T17:39:01.135Z</time></trkpt><trkpt lat="41.84173633333333" lon="12.7954205"><ele>256.0</ele><time>2026-04-18T17:39:02.135Z</time></trkpt><trkpt lat="41.84204483333333" lon="12.795235833333335"><ele>251.5</ele><time>2026-04-18T17:39:03.136Z</time></trkpt><trkpt lat="41.84235449999999" lon="12.795049166666667"><ele>247.0</ele><time>2026-04-18T17:39:04.137Z</time></trkpt><trkpt lat="41.842656500000004" lon="12.794866166666669"><ele>247.0</ele><time>2026-04-18T17:39:05.141Z</time></trkpt><trkpt lat="41.84295966666667" lon="12.7946805"><ele>247.0</ele><time>2026-04-18T17:39:06.139Z</time></trkpt><trkpt lat="41.843264500000004" lon="12.7944915"><ele>247.0</ele><time>2026-04-18T17:39:07.141Z</time></trkpt><trkpt lat="41.84356066666666" lon="12.794305166666666"><ele>247.0</ele><time>2026-04-18T17:39:08.14Z</time></trkpt><trkpt lat="41.843859" lon="12.794116166666667"><ele>247.0</ele><time>2026-04-18T17:39:09.141Z</time></trkpt><trkpt lat="41.844159166666664" lon="12.793925666666667"><ele>247.0</ele><time>2026-04-18T17:39:10.135Z</time></trkpt><trkpt lat="41.84445316666667" lon="12.793738333333334"><ele>248.0</ele><time>2026-04-18T17:39:11.135Z</time></trkpt><trkpt lat="41.844748333333335" lon="12.793547166666666"><ele>249.0</ele><time>2026-04-18T17:39:12.139Z</time></trkpt><trkpt lat="41.845041666666674" lon="12.793352833333332"><ele>244.0</ele><time>2026-04-18T17:39:13.141Z</time></trkpt><trkpt lat="41.8453335" lon="12.793155833333332"><ele>239.0</ele><time>2026-04-18T17:39:14.14Z</time></trkpt><trkpt lat="41.845623666666675" lon="12.792954166666668"><ele>239.0</ele><time>2026-04-18T17:39:15.139Z</time></trkpt><trkpt lat="41.84591216666666" lon="12.792748666666666"><ele>239.0</ele><time>2026-04-18T17:39:16.139Z</time></trkpt><trkpt lat="41.84619899999999" lon="12.79254"><ele>238.0</ele><time>2026-04-18T17:39:17.141Z</time></trkpt><trkpt lat="41.84648416666667" lon="12.792327499999999"><ele>237.0</ele><time>2026-04-18T17:39:18.14Z</time></trkpt><trkpt lat="41.84676850000001" lon="12.792111"><ele>237.5</ele><time>2026-04-18T17:39:19.141Z</time></trkpt><trkpt lat="41.847050499999995" lon="12.791888833333333"><ele>238.0</ele><time>2026-04-18T17:39:20.14Z</time></trkpt><trkpt lat="41.84732999999999" lon="12.791661166666666"><ele>235.5</ele><time>2026-04-18T17:39:21.139Z</time></trkpt><trkpt lat="41.84760766666666" lon="12.791428333333334"><ele>233.0</ele><time>2026-04-18T17:39:22.14Z</time></trkpt><trkpt lat="41.847883" lon="12.791189999999999"><ele>231.5</ele><time>2026-04-18T17:39:23.14Z</time></trkpt><trkpt lat="41.848158" lon="12.790942666666668"><ele>230.0</ele><time>2026-04-18T17:39:24.136Z</time></trkpt><trkpt lat="41.84842633333333" lon="12.790691166666667"><ele>232.0</ele><time>2026-04-18T17:39:25.14Z</time></trkpt><trkpt lat="41.848701" lon="12.790423500000001"><ele>234.0</ele><time>2026-04-18T17:39:26.141Z</time></trkpt><trkpt lat="41.84898166666667" lon="12.7901385"><ele>234.0</ele><time>2026-04-18T17:39:27.141Z</time></trkpt><trkpt lat="41.849260666666666" lon="12.789843499999998"><ele>234.0</ele><time>2026-04-18T17:39:28.137Z</time></trkpt><trkpt lat="41.849546" lon="12.789534333333332"><ele>229.0</ele><time>2026-04-18T17:39:29.142Z</time></trkpt><trkpt lat="41.849830999999995" lon="12.789221666666666"><ele>224.0</ele><time>2026-04-18T17:39:30.159Z</time></trkpt><trkpt lat="41.85010466666666" lon="12.788921000000002"><ele>223.0</ele><time>2026-04-18T17:39:31.142Z</time></trkpt><trkpt lat="41.850378666666664" lon="12.788618"><ele>222.0</ele><time>2026-04-18T17:39:32.14Z</time></trkpt><trkpt lat="41.85065316666667" lon="12.788315166666667"><ele>222.0</ele><time>2026-04-18T17:39:33.141Z</time></trkpt><trkpt lat="41.850919499999996" lon="12.788023500000001"><ele>222.0</ele><time>2026-04-18T17:39:34.139Z</time></trkpt><trkpt lat="41.85118783333334" lon="12.787732166666666"><ele>222.0</ele><time>2026-04-18T17:39:35.137Z</time></trkpt><trkpt lat="41.85145850000001" lon="12.7874395"><ele>222.0</ele><time>2026-04-18T17:39:36.141Z</time></trkpt><trkpt lat="41.85172433333334" lon="12.787154666666668"><ele>221.0</ele><time>2026-04-18T17:39:37.138Z</time></trkpt><trkpt lat="41.85199883333333" lon="12.786866666666667"><ele>220.0</ele><time>2026-04-18T17:39:38.138Z</time></trkpt><trkpt lat="41.852283166666666" lon="12.786575666666666"><ele>220.0</ele><time>2026-04-18T17:39:39.14Z</time></trkpt><trkpt lat="41.85256733333334" lon="12.786291666666667"><ele>220.0</ele><time>2026-04-18T17:39:40.138Z</time></trkpt><trkpt lat="41.85286416666666" lon="12.786003000000001"><ele>220.5</ele><time>2026-04-18T17:39:41.137Z</time></trkpt><trkpt lat="41.853170166666665" lon="12.785715166666666"><ele>221.0</ele><time>2026-04-18T17:39:42.144Z</time></trkpt><trkpt lat="41.853482500000005" lon="12.785432833333333"><ele>216.0</ele><time>2026-04-18T17:39:43.145Z</time></trkpt><trkpt lat="41.853797333333326" lon="12.78516"><ele>211.0</ele><time>2026-04-18T17:39:44.138Z</time></trkpt><trkpt lat="41.85411183333334" lon="12.784899499999998"><ele>214.0</ele><time>2026-04-18T17:39:45.142Z</time></trkpt><trkpt lat="41.8544255" lon="12.78464916666667"><ele>217.0</ele><time>2026-04-18T17:39:46.138Z</time></trkpt><trkpt lat="41.85474016666667" lon="12.784407500000002"><ele>214.5</ele><time>2026-04-18T17:39:47.138Z</time></trkpt><trkpt lat="41.85505533333333" lon="12.784173333333335"><ele>212.0</ele><time>2026-04-18T17:39:48.14Z</time></trkpt><trkpt lat="41.85537133333334" lon="12.783945166666667"><ele>212.0</ele><time>2026-04-18T17:39:49.142Z</time></trkpt><trkpt lat="41.85568849999999" lon="12.783720166666669"><ele>212.0</ele><time>2026-04-18T17:39:50.139Z</time></trkpt><trkpt lat="41.856007000000005" lon="12.783498833333333"><ele>209.0</ele><time>2026-04-18T17:39:51.14Z</time></trkpt><trkpt lat="41.85632566666666" lon="12.783281"><ele>206.0</ele><time>2026-04-18T17:39:52.141Z</time></trkpt><trkpt lat="41.85664366666666" lon="12.783066833333331"><ele>206.5</ele><time>2026-04-18T17:39:53.139Z</time></trkpt><trkpt lat="41.85696066666666" lon="12.782853833333336"><ele>207.0</ele><time>2026-04-18T17:39:54.14Z</time></trkpt><trkpt lat="41.85727716666668" lon="12.782642166666669"><ele>205.5</ele><time>2026-04-18T17:39:55.14Z</time></trkpt><trkpt lat="41.857595666666676" lon="12.782428333333334"><ele>204.0</ele><time>2026-04-18T17:39:56.14Z</time></trkpt><trkpt lat="41.857922666666674" lon="12.7822065"><ele>204.0</ele><time>2026-04-18T17:39:57.138Z</time></trkpt><trkpt lat="41.8582595" lon="12.781974833333333"><ele>204.0</ele><time>2026-04-18T17:39:58.14Z</time></trkpt><trkpt lat="41.85860383333333" lon="12.781735"><ele>204.5</ele><time>2026-04-18T17:39:59.14Z</time></trkpt><trkpt lat="41.858955833333326" lon="12.781485833333335"><ele>205.0</ele><time>2026-04-18T17:40:00.14Z</time></trkpt><trkpt lat="41.85930483333333" lon="12.781234166666664"><ele>201.0</ele><time>2026-04-18T17:40:01.143Z</time></trkpt><trkpt lat="41.859677" lon="12.780960333333333"><ele>197.0</ele><time>2026-04-18T17:40:02.14Z</time></trkpt><trkpt lat="41.8600515" lon="12.780678499999999"><ele>196.0</ele><time>2026-04-18T17:40:03.139Z</time></trkpt><trkpt lat="41.86041749999999" lon="12.780394166666667"><ele>195.0</ele><time>2026-04-18T17:40:04.138Z</time></trkpt><trkpt lat="41.860800000000005" lon="12.780086500000001"><ele>195.5</ele><time>2026-04-18T17:40:05.139Z</time></trkpt><trkpt lat="41.86114899999999" lon="12.779795166666668"><ele>196.0</ele><time>2026-04-18T17:40:06.141Z</time></trkpt><trkpt lat="41.861509999999996" lon="12.7794835"><ele>195.0</ele><time>2026-04-18T17:40:07.14Z</time></trkpt><trkpt lat="41.861859833333334" lon="12.779168333333333"><ele>194.0</ele><time>2026-04-18T17:40:08.141Z</time></trkpt><trkpt lat="41.86217883333333" lon="12.778869166666668"><ele>194.0</ele><time>2026-04-18T17:40:09.14Z</time></trkpt><trkpt lat="41.86250533333334" lon="12.778550166666665"><ele>194.0</ele><time>2026-04-18T17:40:10.14Z</time></trkpt><trkpt lat="41.86282033333333" lon="12.778232333333333"><ele>192.0</ele><time>2026-04-18T17:40:11.143Z</time></trkpt><trkpt lat="41.86310633333333" lon="12.777934333333334"><ele>190.0</ele><time>2026-04-18T17:40:12.144Z</time></trkpt><trkpt lat="41.86339849999999" lon="12.777621333333332"><ele>188.0</ele><time>2026-04-18T17:40:13.141Z</time></trkpt><trkpt lat="41.86367933333332" lon="12.77731"><ele>186.0</ele><time>2026-04-18T17:40:14.139Z</time></trkpt><trkpt lat="41.86393583333333" lon="12.777015666666665"><ele>184.5</ele><time>2026-04-18T17:40:15.139Z</time></trkpt><trkpt lat="41.864202" lon="12.776698333333332"><ele>183.0</ele><time>2026-04-18T17:40:16.14Z</time></trkpt><trkpt lat="41.86446516666666" lon="12.776376333333333"><ele>183.0</ele><time>2026-04-18T17:40:17.141Z</time></trkpt><trkpt lat="41.864709833333336" lon="12.776069166666666"><ele>183.0</ele><time>2026-04-18T17:40:18.142Z</time></trkpt><trkpt lat="41.864965000000005" lon="12.775738166666669"><ele>181.5</ele><time>2026-04-18T17:40:19.142Z</time></trkpt><trkpt lat="41.86521433333334" lon="12.775407666666668"><ele>180.0</ele><time>2026-04-18T17:40:20.139Z</time></trkpt><trkpt lat="41.865445333333334" lon="12.775097500000001"><ele>178.0</ele><time>2026-04-18T17:40:21.14Z</time></trkpt><trkpt lat="41.86568483333334" lon="12.774769499999998"><ele>176.0</ele><time>2026-04-18T17:40:22.14Z</time></trkpt><trkpt lat="41.865911833333335" lon="12.77445316666667"><ele>175.5</ele><time>2026-04-18T17:40:23.142Z</time></trkpt><trkpt lat="41.866148833333334" lon="12.774120999999997"><ele>175.0</ele><time>2026-04-18T17:40:24.143Z</time></trkpt><trkpt lat="41.866397000000006" lon="12.773769333333334"><ele>174.5</ele><time>2026-04-18T17:40:25.143Z</time></trkpt><trkpt lat="41.866640833333335" lon="12.773418833333336"><ele>174.0</ele><time>2026-04-18T17:40:26.137Z</time></trkpt><trkpt lat="41.86689633333334" lon="12.773048333333334"><ele>172.0</ele><time>2026-04-18T17:40:27.14Z</time></trkpt><trkpt lat="41.86716416666667" lon="12.772661333333334"><ele>170.0</ele><time>2026-04-18T17:40:28.146Z</time></trkpt><trkpt lat="41.86742766666666" lon="12.772280833333332"><ele>172.0</ele><time>2026-04-18T17:40:29.143Z</time></trkpt><trkpt lat="41.867738499999994" lon="12.771837666666666"><ele>172.0</ele><time>2026-04-18T17:40:30.16Z</time></trkpt><trkpt lat="41.86799033333333" lon="12.771481166666668"><ele>172.0</ele><time>2026-04-18T17:40:31.139Z</time></trkpt><trkpt lat="41.8682635" lon="12.771101166666666"><ele>171.5</ele><time>2026-04-18T17:40:32.139Z</time></trkpt><trkpt lat="41.86854216666667" lon="12.770723333333335"><ele>171.0</ele><time>2026-04-18T17:40:33.136Z</time></trkpt><trkpt lat="41.86882583333333" lon="12.770349833333334"><ele>171.0</ele><time>2026-04-18T17:40:34.143Z</time></trkpt><trkpt lat="41.86909883333333" lon="12.770005166666666"><ele>171.0</ele><time>2026-04-18T17:40:35.141Z</time></trkpt><trkpt lat="41.869381833333335" lon="12.769664833333332"><ele>168.5</ele><time>2026-04-18T17:40:36.14Z</time></trkpt><trkpt lat="41.86967466666666" lon="12.769328666666668"><ele>166.0</ele><time>2026-04-18T17:40:37.137Z</time></trkpt><trkpt lat="41.86996200000001" lon="12.769015833333333"><ele>168.0</ele><time>2026-04-18T17:40:38.14Z</time></trkpt><trkpt lat="41.87026433333334" lon="12.768706833333333"><ele>170.0</ele><time>2026-04-18T17:40:39.141Z</time></trkpt><trkpt lat="41.87058233333334" lon="12.768402666666667"><ele>166.5</ele><time>2026-04-18T17:40:40.141Z</time></trkpt><trkpt lat="41.87089533333333" lon="12.768121"><ele>163.0</ele><time>2026-04-18T17:40:41.142Z</time></trkpt><trkpt lat="41.87122299999999" lon="12.767843166666667"><ele>160.0</ele><time>2026-04-18T17:40:42.142Z</time></trkpt><trkpt lat="41.8715625" lon="12.767573333333331"><ele>157.0</ele><time>2026-04-18T17:40:43.142Z</time></trkpt><trkpt lat="41.871892333333335" lon="12.767328833333332"><ele>157.0</ele><time>2026-04-18T17:40:44.136Z</time></trkpt><trkpt lat="41.87227333333333" lon="12.767064833333333"><ele>157.0</ele><time>2026-04-18T17:40:45.144Z</time></trkpt><trkpt lat="41.872583166666665" lon="12.766867999999999"><ele>153.0</ele><time>2026-04-18T17:40:46.141Z</time></trkpt><trkpt lat="41.87292266666667" lon="12.766666666666667"><ele>149.0</ele><time>2026-04-18T17:40:47.141Z</time></trkpt><trkpt lat="41.87327283333334" lon="12.7664755"><ele>149.0</ele><time>2026-04-18T17:40:48.143Z</time></trkpt><trkpt lat="41.87363283333334" lon="12.766292500000002"><ele>149.0</ele><time>2026-04-18T17:40:49.142Z</time></trkpt><trkpt lat="41.874013666666656" lon="12.766114166666666"><ele>148.0</ele><time>2026-04-18T17:40:50.141Z</time></trkpt><trkpt lat="41.874363499999994" lon="12.765964833333332"><ele>147.0</ele><time>2026-04-18T17:40:51.141Z</time></trkpt><trkpt lat="41.87471099999999" lon="12.765830833333332"><ele>147.0</ele><time>2026-04-18T17:40:52.14Z</time></trkpt><trkpt lat="41.875055499999995" lon="12.765711166666664"><ele>147.0</ele><time>2026-04-18T17:40:53.139Z</time></trkpt><trkpt lat="41.87539716666667" lon="12.7656065"><ele>146.0</ele><time>2026-04-18T17:40:54.141Z</time></trkpt><trkpt lat="41.87570949999999" lon="12.7655215"><ele>145.0</ele><time>2026-04-18T17:40:55.136Z</time></trkpt><trkpt lat="41.87607433333333" lon="12.765430499999999"><ele>145.0</ele><time>2026-04-18T17:40:56.14Z</time></trkpt><trkpt lat="41.87641083333333" lon="12.765355666666668"><ele>145.0</ele><time>2026-04-18T17:40:57.148Z</time></trkpt><trkpt lat="41.87674816666666" lon="12.76528816666667"><ele>144.5</ele><time>2026-04-18T17:40:58.139Z</time></trkpt><trkpt lat="41.87708500000001" lon="12.765225333333335"><ele>144.0</ele><time>2026-04-18T17:40:59.14Z</time></trkpt><trkpt lat="41.877422499999994" lon="12.765166166666665"><ele>143.0</ele><time>2026-04-18T17:41:00.139Z</time></trkpt><trkpt lat="41.87775933333334" lon="12.7651085"><ele>142.0</ele><time>2026-04-18T17:41:01.14Z</time></trkpt><trkpt lat="41.87809583333333" lon="12.765052333333331"><ele>142.0</ele><time>2026-04-18T17:41:02.142Z</time></trkpt><trkpt lat="41.87843233333333" lon="12.764997833333334"><ele>142.0</ele><time>2026-04-18T17:41:03.136Z</time></trkpt><trkpt lat="41.87876883333333" lon="12.764944833333335"><ele>142.0</ele><time>2026-04-18T17:41:04.138Z</time></trkpt><trkpt lat="41.87910466666667" lon="12.764889666666667"><ele>142.0</ele><time>2026-04-18T17:41:05.14Z</time></trkpt><trkpt lat="41.879440333333335" lon="12.764832000000002"><ele>142.0</ele><time>2026-04-18T17:41:06.135Z</time></trkpt><trkpt lat="41.87977599999999" lon="12.764772333333333"><ele>142.0</ele><time>2026-04-18T17:41:07.137Z</time></trkpt><trkpt lat="41.8801105" lon="12.764709333333334"><ele>142.0</ele><time>2026-04-18T17:41:08.138Z</time></trkpt><trkpt lat="41.880445333333334" lon="12.764644166666669"><ele>142.0</ele><time>2026-04-18T17:41:09.137Z</time></trkpt><trkpt lat="41.880779499999996" lon="12.764576166666666"><ele>143.0</ele><time>2026-04-18T17:41:10.138Z</time></trkpt><trkpt lat="41.881113666666664" lon="12.7645035"><ele>144.0</ele><time>2026-04-18T17:41:11.14Z</time></trkpt><trkpt lat="41.88144666666667" lon="12.764424833333331"><ele>143.5</ele><time>2026-04-18T17:41:12.141Z</time></trkpt><trkpt lat="41.88177949999999" lon="12.764337333333334"><ele>143.0</ele><time>2026-04-18T17:41:13.137Z</time></trkpt><trkpt lat="41.88211033333334" lon="12.76424"><ele>143.0</ele><time>2026-04-18T17:41:14.139Z</time></trkpt><trkpt lat="41.882439999999995" lon="12.764133333333332"><ele>143.0</ele><time>2026-04-18T17:41:15.14Z</time></trkpt><trkpt lat="41.8827675" lon="12.764019"><ele>141.5</ele><time>2026-04-18T17:41:16.14Z</time></trkpt><trkpt lat="41.883094" lon="12.763897000000002"><ele>140.0</ele><time>2026-04-18T17:41:17.137Z</time></trkpt><trkpt lat="41.883419" lon="12.763767833333336"><ele>139.0</ele><time>2026-04-18T17:41:18.137Z</time></trkpt><trkpt lat="41.883742" lon="12.7636315"><ele>138.0</ele><time>2026-04-18T17:41:19.137Z</time></trkpt><trkpt lat="41.88406199999999" lon="12.763484666666667"><ele>138.5</ele><time>2026-04-18T17:41:20.138Z</time></trkpt><trkpt lat="41.88437883333333" lon="12.763328833333333"><ele>139.0</ele><time>2026-04-18T17:41:21.139Z</time></trkpt><trkpt lat="41.88469416666667" lon="12.763165333333333"><ele>139.0</ele><time>2026-04-18T17:41:22.136Z</time></trkpt><trkpt lat="41.885008" lon="12.76299466666667"><ele>139.0</ele><time>2026-04-18T17:41:23.136Z</time></trkpt><trkpt lat="41.88532" lon="12.76281883333333"><ele>139.5</ele><time>2026-04-18T17:41:24.136Z</time></trkpt><trkpt lat="41.88563066666667" lon="12.76263883333333"><ele>140.0</ele><time>2026-04-18T17:41:25.137Z</time></trkpt><trkpt lat="41.885939166666674" lon="12.762451833333333"><ele>140.5</ele><time>2026-04-18T17:41:26.138Z</time></trkpt><trkpt lat="41.886244500000004" lon="12.762255333333334"><ele>141.0</ele><time>2026-04-18T17:41:27.139Z</time></trkpt><trkpt lat="41.88654683333333" lon="12.7620505"><ele>140.5</ele><time>2026-04-18T17:41:28.14Z</time></trkpt><trkpt lat="41.886846500000004" lon="12.761839333333333"><ele>140.0</ele><time>2026-04-18T17:41:29.14Z</time></trkpt><trkpt lat="41.88714416666667" lon="12.761620666666667"><ele>140.0</ele><time>2026-04-18T17:41:30.158Z</time></trkpt><trkpt lat="41.887435333333336" lon="12.761399833333334"><ele>140.0</ele><time>2026-04-18T17:41:31.137Z</time></trkpt><trkpt lat="41.88773133333334" lon="12.761169166666665"><ele>139.0</ele><time>2026-04-18T17:41:32.134Z</time></trkpt><trkpt lat="41.888022666666664" lon="12.760939666666664"><ele>138.0</ele><time>2026-04-18T17:41:33.136Z</time></trkpt><trkpt lat="41.88831616666666" lon="12.760706333333333"><ele>140.5</ele><time>2026-04-18T17:41:34.136Z</time></trkpt><trkpt lat="41.888611833333336" lon="12.760470833333333"><ele>143.0</ele><time>2026-04-18T17:41:35.134Z</time></trkpt><trkpt lat="41.88890249999999" lon="12.760239833333332"><ele>142.0</ele><time>2026-04-18T17:41:36.14Z</time></trkpt><trkpt lat="41.889195833333325" lon="12.760008999999998"><ele>141.0</ele><time>2026-04-18T17:41:37.141Z</time></trkpt><trkpt lat="41.88948983333333" lon="12.759782"><ele>141.0</ele><time>2026-04-18T17:41:38.137Z</time></trkpt><trkpt lat="41.8897845" lon="12.759557166666665"><ele>141.0</ele><time>2026-04-18T17:41:39.139Z</time></trkpt><trkpt lat="41.89008" lon="12.759333499999999"><ele>140.5</ele><time>2026-04-18T17:41:40.141Z</time></trkpt><trkpt lat="41.89037533333333" lon="12.759109666666665"><ele>140.0</ele><time>2026-04-18T17:41:41.139Z</time></trkpt><trkpt lat="41.89066966666666" lon="12.758883166666665"><ele>139.5</ele><time>2026-04-18T17:41:42.136Z</time></trkpt><trkpt lat="41.890962333333334" lon="12.758651999999998"><ele>139.0</ele><time>2026-04-18T17:41:43.139Z</time></trkpt><trkpt lat="41.891254499999995" lon="12.758420166666667"><ele>137.5</ele><time>2026-04-18T17:41:44.139Z</time></trkpt><trkpt lat="41.89154700000001" lon="12.758188833333334"><ele>136.0</ele><time>2026-04-18T17:41:45.144Z</time></trkpt><trkpt lat="41.891839499999996" lon="12.757960666666667"><ele>136.0</ele><time>2026-04-18T17:41:46.136Z</time></trkpt><trkpt lat="41.89213383333334" lon="12.7577355"><ele>136.0</ele><time>2026-04-18T17:41:47.14Z</time></trkpt><trkpt lat="41.8924295" lon="12.757513333333334"><ele>136.0</ele><time>2026-04-18T17:41:48.141Z</time></trkpt><trkpt lat="41.89272633333333" lon="12.7572945"><ele>136.0</ele><time>2026-04-18T17:41:49.138Z</time></trkpt><trkpt lat="41.89302516666666" lon="12.757079166666665"><ele>134.5</ele><time>2026-04-18T17:41:50.137Z</time></trkpt><trkpt lat="41.89332550000001" lon="12.756868500000001"><ele>133.0</ele><time>2026-04-18T17:41:51.139Z</time></trkpt><trkpt lat="41.893627833333326" lon="12.756662500000001"><ele>132.5</ele><time>2026-04-18T17:41:52.136Z</time></trkpt><trkpt lat="41.89393199999999" lon="12.756460333333333"><ele>132.0</ele><time>2026-04-18T17:41:53.135Z</time></trkpt><trkpt lat="41.894238333333334" lon="12.756265166666665"><ele>131.5</ele><time>2026-04-18T17:41:54.138Z</time></trkpt><trkpt lat="41.89454683333333" lon="12.756077833333332"><ele>131.0</ele><time>2026-04-18T17:41:55.137Z</time></trkpt><trkpt lat="41.89485016666666" lon="12.755900333333333"><ele>128.5</ele><time>2026-04-18T17:41:56.14Z</time></trkpt><trkpt lat="41.89516216666666" lon="12.755724833333334"><ele>126.0</ele><time>2026-04-18T17:41:57.139Z</time></trkpt><trkpt lat="41.89547983333333" lon="12.755554500000002"><ele>126.0</ele><time>2026-04-18T17:41:58.138Z</time></trkpt><trkpt lat="41.89579399999999" lon="12.755394333333333"><ele>126.0</ele><time>2026-04-18T17:41:59.143Z</time></trkpt><trkpt lat="41.896112333333335" lon="12.755237833333334"><ele>125.5</ele><time>2026-04-18T17:42:00.143Z</time></trkpt><trkpt lat="41.89643533333333" lon="12.755084833333335"><ele>125.0</ele><time>2026-04-18T17:42:01.141Z</time></trkpt><trkpt lat="41.896750999999995" lon="12.754939833333333"><ele>125.0</ele><time>2026-04-18T17:42:02.139Z</time></trkpt><trkpt lat="41.89707033333334" lon="12.754799166666665"><ele>125.0</ele><time>2026-04-18T17:42:03.14Z</time></trkpt><trkpt lat="41.897391166666665" lon="12.754664166666666"><ele>124.5</ele><time>2026-04-18T17:42:04.137Z</time></trkpt><trkpt lat="41.897704000000004" lon="12.754538333333334"><ele>124.0</ele><time>2026-04-18T17:42:05.138Z</time></trkpt><trkpt lat="41.8980165" lon="12.754415166666668"><ele>123.0</ele><time>2026-04-18T17:42:06.139Z</time></trkpt><trkpt lat="41.89832800000001" lon="12.754290833333334"><ele>122.0</ele><time>2026-04-18T17:42:07.14Z</time></trkpt><trkpt lat="41.89863233333334" lon="12.754166999999999"><ele>121.0</ele><time>2026-04-18T17:42:08.139Z</time></trkpt><trkpt lat="41.898942166666664" lon="12.754040333333334"><ele>120.0</ele><time>2026-04-18T17:42:09.14Z</time></trkpt><trkpt lat="41.899256666666666" lon="12.753914"><ele>119.5</ele><time>2026-04-18T17:42:10.138Z</time></trkpt><trkpt lat="41.899566500000006" lon="12.753792833333335"><ele>119.0</ele><time>2026-04-18T17:42:11.136Z</time></trkpt><trkpt lat="41.89988016666667" lon="12.753671"><ele>119.0</ele><time>2026-04-18T17:42:12.139Z</time></trkpt><trkpt lat="41.900195" lon="12.753549999999999"><ele>119.0</ele><time>2026-04-18T17:42:13.143Z</time></trkpt><trkpt lat="41.90050833333333" lon="12.7534305"><ele>118.0</ele><time>2026-04-18T17:42:14.139Z</time></trkpt><trkpt lat="41.9008215" lon="12.753311666666665"><ele>117.0</ele><time>2026-04-18T17:42:15.136Z</time></trkpt><trkpt lat="41.90113349999999" lon="12.753194333333331"><ele>116.0</ele><time>2026-04-18T17:42:16.137Z</time></trkpt><trkpt lat="41.90144383333333" lon="12.753077666666666"><ele>115.0</ele><time>2026-04-18T17:42:17.137Z</time></trkpt><trkpt lat="41.9017525" lon="12.752961999999998"><ele>113.5</ele><time>2026-04-18T17:42:18.14Z</time></trkpt><trkpt lat="41.902059333333334" lon="12.7528475"><ele>112.0</ele><time>2026-04-18T17:42:19.139Z</time></trkpt><trkpt lat="41.902364500000004" lon="12.752732833333335"><ele>111.5</ele><time>2026-04-18T17:42:20.137Z</time></trkpt><trkpt lat="41.90266933333334" lon="12.752617500000001"><ele>111.0</ele><time>2026-04-18T17:42:21.138Z</time></trkpt><trkpt lat="41.9029745" lon="12.752502333333332"><ele>111.0</ele><time>2026-04-18T17:42:22.137Z</time></trkpt><trkpt lat="41.903280333333335" lon="12.752386833333333"><ele>111.0</ele><time>2026-04-18T17:42:23.138Z</time></trkpt><trkpt lat="41.903587" lon="12.752272000000001"><ele>110.5</ele><time>2026-04-18T17:42:24.141Z</time></trkpt><trkpt lat="41.90389449999999" lon="12.752158166666668"><ele>110.0</ele><time>2026-04-18T17:42:25.141Z</time></trkpt><trkpt lat="41.90419666666667" lon="12.752044999999999"><ele>109.5</ele><time>2026-04-18T17:42:26.139Z</time></trkpt><trkpt lat="41.9045105" lon="12.751925333333334"><ele>109.0</ele><time>2026-04-18T17:42:27.138Z</time></trkpt><trkpt lat="41.90481266666667" lon="12.75181"><ele>106.5</ele><time>2026-04-18T17:42:28.138Z</time></trkpt><trkpt lat="41.90511849999999" lon="12.751691999999998"><ele>104.0</ele><time>2026-04-18T17:42:29.143Z</time></trkpt><trkpt lat="41.905424833333335" lon="12.751575500000001"><ele>104.0</ele><time>2026-04-18T17:42:30.158Z</time></trkpt><trkpt lat="41.90573016666667" lon="12.751459833333335"><ele>104.0</ele><time>2026-04-18T17:42:31.143Z</time></trkpt><trkpt lat="41.906028666666664" lon="12.751349333333334"><ele>104.5</ele><time>2026-04-18T17:42:32.137Z</time></trkpt><trkpt lat="41.90633433333334" lon="12.751236666666667"><ele>105.0</ele><time>2026-04-18T17:42:33.136Z</time></trkpt><trkpt lat="41.90663433333334" lon="12.751124333333333"><ele>105.5</ele><time>2026-04-18T17:42:34.137Z</time></trkpt><trkpt lat="41.90693249999999" lon="12.751012166666666"><ele>106.0</ele><time>2026-04-18T17:42:35.139Z</time></trkpt><trkpt lat="41.907227999999996" lon="12.750900000000001"><ele>106.0</ele><time>2026-04-18T17:42:36.14Z</time></trkpt><trkpt lat="41.90751449999999" lon="12.750789833333332"><ele>106.0</ele><time>2026-04-18T17:42:37.141Z</time></trkpt><trkpt lat="41.907798500000006" lon="12.750678333333335"><ele>108.0</ele><time>2026-04-18T17:42:38.141Z</time></trkpt><trkpt lat="41.908080999999996" lon="12.750564166666667"><ele>110.0</ele><time>2026-04-18T17:42:39.139Z</time></trkpt><trkpt lat="41.908358666666665" lon="12.750448833333333"><ele>110.5</ele><time>2026-04-18T17:42:40.141Z</time></trkpt><trkpt lat="41.90863683333333" lon="12.750331000000001"><ele>111.0</ele><time>2026-04-18T17:42:41.139Z</time></trkpt><trkpt lat="41.90891666666666" lon="12.750210333333333"><ele>109.5</ele><time>2026-04-18T17:42:42.139Z</time></trkpt><trkpt lat="41.90919350000001" lon="12.750089333333337"><ele>108.0</ele><time>2026-04-18T17:42:43.139Z</time></trkpt><trkpt lat="41.90947366666666" lon="12.749965333333334"><ele>108.0</ele><time>2026-04-18T17:42:44.136Z</time></trkpt><trkpt lat="41.90975616666666" lon="12.749837666666666"><ele>108.0</ele><time>2026-04-18T17:42:45.141Z</time></trkpt><trkpt lat="41.910035500000006" lon="12.749710000000002"><ele>106.5</ele><time>2026-04-18T17:42:46.14Z</time></trkpt><trkpt lat="41.91028333333334" lon="12.749486333333333"><ele>105.0</ele><time>2026-04-18T17:42:47.139Z</time></trkpt><trkpt lat="41.91057516666666" lon="12.74937483333333"><ele>104.5</ele><time>2026-04-18T17:42:48.14Z</time></trkpt><trkpt lat="41.91086583333334" lon="12.749254499999997"><ele>104.0</ele><time>2026-04-18T17:42:49.141Z</time></trkpt><trkpt lat="41.91115450000001" lon="12.749127333333334"><ele>102.0</ele><time>2026-04-18T17:42:50.14Z</time></trkpt><trkpt lat="41.911442333333326" lon="12.748994833333333"><ele>100.0</ele><time>2026-04-18T17:42:51.137Z</time></trkpt><trkpt lat="41.91172816666667" lon="12.748859666666664"><ele>98.0</ele><time>2026-04-18T17:42:52.142Z</time></trkpt><trkpt lat="41.91201083333333" lon="12.748723833333333"><ele>96.0</ele><time>2026-04-18T17:42:53.143Z</time></trkpt><trkpt lat="41.91229" lon="12.748588166666664"><ele>96.0</ele><time>2026-04-18T17:42:54.141Z</time></trkpt><trkpt lat="41.912566500000004" lon="12.748453166666666"><ele>96.0</ele><time>2026-04-18T17:42:55.139Z</time></trkpt><trkpt lat="41.912840833333334" lon="12.748319"><ele>95.5</ele><time>2026-04-18T17:42:56.139Z</time></trkpt><trkpt lat="41.91311399999999" lon="12.748183833333332"><ele>95.0</ele><time>2026-04-18T17:42:57.144Z</time></trkpt><trkpt lat="41.913379" lon="12.748051833333333"><ele>96.5</ele><time>2026-04-18T17:42:58.138Z</time></trkpt><trkpt lat="41.91366533333333" lon="12.747910000000003"><ele>98.0</ele><time>2026-04-18T17:42:59.14Z</time></trkpt><trkpt lat="41.91394883333334" lon="12.747766000000002"><ele>97.0</ele><time>2026-04-18T17:43:00.14Z</time></trkpt><trkpt lat="41.91423266666667" lon="12.747615666666665"><ele>96.0</ele><time>2026-04-18T17:43:01.14Z</time></trkpt><trkpt lat="41.9145425" lon="12.747448"><ele>96.0</ele><time>2026-04-18T17:43:02.136Z</time></trkpt><trkpt lat="41.91484483333333" lon="12.747284666666667"><ele>96.0</ele><time>2026-04-18T17:43:03.142Z</time></trkpt><trkpt lat="41.915162166666676" lon="12.747116333333334"><ele>95.5</ele><time>2026-04-18T17:43:04.142Z</time></trkpt><trkpt lat="41.915479833333336" lon="12.746955999999999"><ele>95.0</ele><time>2026-04-18T17:43:05.141Z</time></trkpt><trkpt lat="41.91577816666666" lon="12.746811999999998"><ele>90.5</ele><time>2026-04-18T17:43:06.141Z</time></trkpt><trkpt lat="41.91609066666667" lon="12.746664166666669"><ele>86.0</ele><time>2026-04-18T17:43:07.139Z</time></trkpt><trkpt lat="41.91640099999999" lon="12.746516833333331"><ele>86.0</ele><time>2026-04-18T17:43:08.146Z</time></trkpt><trkpt lat="41.91669133333333" lon="12.746378166666666"><ele>86.0</ele><time>2026-04-18T17:43:09.143Z</time></trkpt><trkpt lat="41.916994499999994" lon="12.746232333333335"><ele>82.5</ele><time>2026-04-18T17:43:10.136Z</time></trkpt><trkpt lat="41.91729566666666" lon="12.746085166666667"><ele>79.0</ele><time>2026-04-18T17:43:11.138Z</time></trkpt><trkpt lat="41.917576833333335" lon="12.745945666666666"><ele>76.0</ele><time>2026-04-18T17:43:12.141Z</time></trkpt><trkpt lat="41.91786449999999" lon="12.745803333333333"><ele>73.0</ele><time>2026-04-18T17:43:13.135Z</time></trkpt><trkpt lat="41.91814266666667" lon="12.745667500000001"><ele>73.0</ele><time>2026-04-18T17:43:14.137Z</time></trkpt><trkpt lat="41.91840066666667" lon="12.745543833333333"><ele>73.0</ele><time>2026-04-18T17:43:15.137Z</time></trkpt><trkpt lat="41.918661666666665" lon="12.745421833333333"><ele>71.0</ele><time>2026-04-18T17:43:16.136Z</time></trkpt><trkpt lat="41.918907000000004" lon="12.745311666666666"><ele>69.0</ele><time>2026-04-18T17:43:17.137Z</time></trkpt><trkpt lat="41.91913233333333" lon="12.745212499999997"><ele>67.5</ele><time>2026-04-18T17:43:18.135Z</time></trkpt><trkpt lat="41.91936366666667" lon="12.745112166666669"><ele>66.0</ele><time>2026-04-18T17:43:19.138Z</time></trkpt><trkpt lat="41.919590166666666" lon="12.745012666666666"><ele>66.0</ele><time>2026-04-18T17:43:20.136Z</time></trkpt><trkpt lat="41.91979883333333" lon="12.744920500000001"><ele>66.0</ele><time>2026-04-18T17:43:21.137Z</time></trkpt><trkpt lat="41.92001333333333" lon="12.744824833333332"><ele>66.0</ele><time>2026-04-18T17:43:22.137Z</time></trkpt><trkpt lat="41.92021633333334" lon="12.744733666666665"><ele>65.0</ele><time>2026-04-18T17:43:23.137Z</time></trkpt><trkpt lat="41.920424000000004" lon="12.744640666666665"><ele>64.0</ele><time>2026-04-18T17:43:24.135Z</time></trkpt><trkpt lat="41.920640333333324" lon="12.744545000000002"><ele>63.0</ele><time>2026-04-18T17:43:25.136Z</time></trkpt><trkpt lat="41.9208495" lon="12.744451833333335"><ele>63.33333333333333</ele><time>2026-04-18T17:43:26.14Z</time></trkpt><trkpt lat="41.921059833333324" lon="12.744357999999998"><ele>63.666666666666664</ele><time>2026-04-18T17:43:27.136Z</time></trkpt><trkpt lat="41.92127166666668" lon="12.744264333333334"><ele>64.0</ele><time>2026-04-18T17:43:28.137Z</time></trkpt><trkpt lat="41.921474333333336" lon="12.744175166666666"><ele>64.0</ele><time>2026-04-18T17:43:29.141Z</time></trkpt><trkpt lat="41.92170066666666" lon="12.744073666666667"><ele>64.0</ele><time>2026-04-18T17:43:30.156Z</time></trkpt><trkpt lat="41.92188216666667" lon="12.743991166666667"><ele>64.0</ele><time>2026-04-18T17:43:31.14Z</time></trkpt><trkpt lat="41.92208133333334" lon="12.743903166666666"><ele>64.0</ele><time>2026-04-18T17:43:32.137Z</time></trkpt><trkpt lat="41.922284166666664" lon="12.7438145"><ele>64.0</ele><time>2026-04-18T17:43:33.138Z</time></trkpt><trkpt lat="41.92249083333333" lon="12.743724000000002"><ele>64.0</ele><time>2026-04-18T17:43:34.137Z</time></trkpt><trkpt lat="41.92269233333333" lon="12.743636"><ele>63.5</ele><time>2026-04-18T17:43:35.139Z</time></trkpt><trkpt lat="41.922901833333334" lon="12.743546"><ele>63.0</ele><time>2026-04-18T17:43:36.139Z</time></trkpt><trkpt lat="41.9231235" lon="12.743454166666666"><ele>63.0</ele><time>2026-04-18T17:43:37.137Z</time></trkpt><trkpt lat="41.923354" lon="12.743362666666668"><ele>63.0</ele><time>2026-04-18T17:43:38.139Z</time></trkpt><trkpt lat="41.92360000000001" lon="12.743267500000002"><ele>61.0</ele><time>2026-04-18T17:43:39.139Z</time></trkpt><trkpt lat="41.923853333333334" lon="12.743169499999999"><ele>59.0</ele><time>2026-04-18T17:43:40.136Z</time></trkpt><trkpt lat="41.92409916666667" lon="12.743078500000003"><ele>58.0</ele><time>2026-04-18T17:43:41.143Z</time></trkpt><trkpt lat="41.924349" lon="12.742993000000002"><ele>57.0</ele><time>2026-04-18T17:43:42.136Z</time></trkpt><trkpt lat="41.924604333333335" lon="12.742915666666665"><ele>57.0</ele><time>2026-04-18T17:43:43.136Z</time></trkpt><trkpt lat="41.924855166666674" lon="12.742853666666667"><ele>57.0</ele><time>2026-04-18T17:43:44.136Z</time></trkpt><trkpt lat="41.92511066666666" lon="12.742807666666666"><ele>55.5</ele><time>2026-04-18T17:43:45.135Z</time></trkpt><trkpt lat="41.92537066666667" lon="12.742776833333336"><ele>54.0</ele><time>2026-04-18T17:43:46.139Z</time></trkpt><trkpt lat="41.925622833333335" lon="12.742757500000002"><ele>54.0</ele><time>2026-04-18T17:43:47.136Z</time></trkpt><trkpt lat="41.92587833333334" lon="12.742746833333335"><ele>54.0</ele><time>2026-04-18T17:43:48.141Z</time></trkpt><trkpt lat="41.92613466666667" lon="12.742742666666667"><ele>52.5</ele><time>2026-04-18T17:43:49.138Z</time></trkpt><trkpt lat="41.926378166666666" lon="12.7427435"><ele>51.0</ele><time>2026-04-18T17:43:50.138Z</time></trkpt><trkpt lat="41.92661716666667" lon="12.742748166666669"><ele>51.0</ele><time>2026-04-18T17:43:51.133Z</time></trkpt><trkpt lat="41.926854166666665" lon="12.742754333333336"><ele>51.0</ele><time>2026-04-18T17:43:52.141Z</time></trkpt><trkpt lat="41.92708066666667" lon="12.742758499999997"><ele>51.0</ele><time>2026-04-18T17:43:53.133Z</time></trkpt><trkpt lat="41.9273365" lon="12.742759000000001"><ele>51.0</ele><time>2026-04-18T17:43:54.141Z</time></trkpt><trkpt lat="41.92779083333333" lon="12.742707833333334"><ele>48.0</ele><time>2026-04-18T17:43:56.139Z</time></trkpt><trkpt lat="41.92802016666666" lon="12.742652999999999"><ele>45.0</ele><time>2026-04-18T17:43:57.14Z</time></trkpt><trkpt lat="41.92825383333334" lon="12.742568666666665"><ele>45.0</ele><time>2026-04-18T17:43:58.15Z</time></trkpt><trkpt lat="41.9284785" lon="12.742452"><ele>45.0</ele><time>2026-04-18T17:43:59.15Z</time></trkpt><trkpt lat="41.928687666666676" lon="12.742303000000001"><ele>45.0</ele><time>2026-04-18T17:44:00.141Z</time></trkpt><trkpt lat="41.92887850000001" lon="12.742123666666664"><ele>45.0</ele><time>2026-04-18T17:44:01.142Z</time></trkpt><trkpt lat="41.92904716666666" lon="12.7419175"><ele>44.666666666666664</ele><time>2026-04-18T17:44:02.138Z</time></trkpt><trkpt lat="41.929184333333325" lon="12.741686666666665"><ele>44.33333333333333</ele><time>2026-04-18T17:44:03.14Z</time></trkpt><trkpt lat="41.92928783333333" lon="12.741457500000001"><ele>44.0</ele><time>2026-04-18T17:44:04.132Z</time></trkpt><trkpt lat="41.92939116666667" lon="12.741156666666665"><ele>45.0</ele><time>2026-04-18T17:44:05.135Z</time></trkpt><trkpt lat="41.929464833333334" lon="12.740873333333331"><ele>46.0</ele><time>2026-04-18T17:44:06.14Z</time></trkpt><trkpt lat="41.929513666666665" lon="12.740578166666667"><ele>47.0</ele><time>2026-04-18T17:44:07.142Z</time></trkpt><trkpt lat="41.929535666666666" lon="12.740272999999997"><ele>46.5</ele><time>2026-04-18T17:44:08.14Z</time></trkpt><trkpt lat="41.92952916666666" lon="12.739963166666668"><ele>46.0</ele><time>2026-04-18T17:44:09.133Z</time></trkpt><trkpt lat="41.92949216666666" lon="12.739658166666668"><ele>44.0</ele><time>2026-04-18T17:44:10.141Z</time></trkpt><trkpt lat="41.92942383333334" lon="12.739366666666667"><ele>42.0</ele><time>2026-04-18T17:44:11.141Z</time></trkpt><trkpt lat="41.92932983333334" lon="12.739089666666665"><ele>43.5</ele><time>2026-04-18T17:44:12.146Z</time></trkpt><trkpt lat="41.92921466666667" lon="12.7388255"><ele>45.0</ele><time>2026-04-18T17:44:13.15Z</time></trkpt><trkpt lat="41.9290485" lon="12.7386065"><ele>47.0</ele><time>2026-04-18T17:44:14.14Z</time></trkpt><trkpt lat="41.92890383333333" lon="12.738365666666668"><ele>49.0</ele><time>2026-04-18T17:44:15.138Z</time></trkpt><trkpt lat="41.92874799999999" lon="12.738133666666666"><ele>49.0</ele><time>2026-04-18T17:44:16.139Z</time></trkpt><trkpt lat="41.92858716666666" lon="12.737907333333332"><ele>49.0</ele><time>2026-04-18T17:44:17.141Z</time></trkpt><trkpt lat="41.92842566666666" lon="12.737682333333332"><ele>49.5</ele><time>2026-04-18T17:44:18.14Z</time></trkpt><trkpt lat="41.9282685" lon="12.7374505"><ele>50.0</ele><time>2026-04-18T17:44:19.14Z</time></trkpt><trkpt lat="41.92811733333333" lon="12.737208166666669"><ele>50.0</ele><time>2026-04-18T17:44:20.138Z</time></trkpt><trkpt lat="41.9279745" lon="12.736952833333332"><ele>50.0</ele><time>2026-04-18T17:44:21.14Z</time></trkpt><trkpt lat="41.92784583333334" lon="12.736686833333334"><ele>49.0</ele><time>2026-04-18T17:44:22.137Z</time></trkpt><trkpt lat="41.92773300000001" lon="12.7364105"><ele>48.0</ele><time>2026-04-18T17:44:23.14Z</time></trkpt><trkpt lat="41.92763516666667" lon="12.736123166666667"><ele>47.5</ele><time>2026-04-18T17:44:24.14Z</time></trkpt><trkpt lat="41.92755283333333" lon="12.735828833333334"><ele>47.0</ele><time>2026-04-18T17:44:25.143Z</time></trkpt><trkpt lat="41.92748516666667" lon="12.735516333333331"><ele>46.0</ele><time>2026-04-18T17:44:26.14Z</time></trkpt><trkpt lat="41.92743533333334" lon="12.735195666666668"><ele>45.0</ele><time>2026-04-18T17:44:27.137Z</time></trkpt><trkpt lat="41.92740216666666" lon="12.734861"><ele>45.0</ele><time>2026-04-18T17:44:28.14Z</time></trkpt><trkpt lat="41.927381499999996" lon="12.734515166666664"><ele>45.0</ele><time>2026-04-18T17:44:29.138Z</time></trkpt><trkpt lat="41.92736916666666" lon="12.734164999999999"><ele>44.0</ele><time>2026-04-18T17:44:30.157Z</time></trkpt><trkpt lat="41.92735966666667" lon="12.7338065"><ele>43.0</ele><time>2026-04-18T17:44:31.14Z</time></trkpt><trkpt lat="41.927350833333335" lon="12.733438666666666"><ele>42.0</ele><time>2026-04-18T17:44:32.14Z</time></trkpt><trkpt lat="41.92734183333334" lon="12.733079000000002"><ele>41.0</ele><time>2026-04-18T17:44:33.135Z</time></trkpt><trkpt lat="41.92733266666667" lon="12.732714500000002"><ele>40.5</ele><time>2026-04-18T17:44:34.138Z</time></trkpt><trkpt lat="41.92732349999999" lon="12.732345500000001"><ele>40.0</ele><time>2026-04-18T17:44:35.139Z</time></trkpt><trkpt lat="41.927313999999996" lon="12.731977500000001"><ele>38.5</ele><time>2026-04-18T17:44:36.139Z</time></trkpt><trkpt lat="41.92730366666666" lon="12.731603166666666"><ele>37.0</ele><time>2026-04-18T17:44:37.139Z</time></trkpt><trkpt lat="41.92729216666667" lon="12.731226666666666"><ele>36.5</ele><time>2026-04-18T17:44:38.136Z</time></trkpt><trkpt lat="41.92728" lon="12.730848333333332"><ele>36.0</ele><time>2026-04-18T17:44:39.14Z</time></trkpt><trkpt lat="41.927267833333325" lon="12.730467500000001"><ele>36.5</ele><time>2026-04-18T17:44:40.135Z</time></trkpt><trkpt lat="41.92725583333333" lon="12.73008433333333"><ele>37.0</ele><time>2026-04-18T17:44:41.137Z</time></trkpt><trkpt lat="41.92724366666667" lon="12.729700166666666"><ele>37.5</ele><time>2026-04-18T17:44:42.135Z</time></trkpt><trkpt lat="41.92723183333333" lon="12.729312833333331"><ele>38.0</ele><time>2026-04-18T17:44:43.139Z</time></trkpt><trkpt lat="41.92721933333334" lon="12.728922666666664"><ele>38.5</ele><time>2026-04-18T17:44:44.135Z</time></trkpt><trkpt lat="41.927206999999996" lon="12.728529166666664"><ele>39.0</ele><time>2026-04-18T17:44:45.136Z</time></trkpt><trkpt lat="41.92719466666667" lon="12.728133999999999"><ele>39.0</ele><time>2026-04-18T17:44:46.136Z</time></trkpt><trkpt lat="41.927182166666675" lon="12.727736833333333"><ele>39.0</ele><time>2026-04-18T17:44:47.137Z</time></trkpt><trkpt lat="41.92717016666667" lon="12.727337166666665"><ele>40.0</ele><time>2026-04-18T17:44:48.138Z</time></trkpt><trkpt lat="41.92715683333332" lon="12.726935166666667"><ele>41.0</ele><time>2026-04-18T17:44:49.137Z</time></trkpt><trkpt lat="41.927142999999994" lon="12.726531166666666"><ele>41.5</ele><time>2026-04-18T17:44:50.137Z</time></trkpt><trkpt lat="41.92712916666666" lon="12.726125000000001"><ele>42.0</ele><time>2026-04-18T17:44:51.136Z</time></trkpt><trkpt lat="41.92711483333333" lon="12.725717166666668"><ele>42.0</ele><time>2026-04-18T17:44:52.139Z</time></trkpt><trkpt lat="41.927100333333335" lon="12.725309"><ele>42.0</ele><time>2026-04-18T17:44:53.138Z</time></trkpt><trkpt lat="41.927086499999994" lon="12.724899500000001"><ele>41.5</ele><time>2026-04-18T17:44:54.137Z</time></trkpt><trkpt lat="41.927073" lon="12.724488666666666"><ele>41.0</ele><time>2026-04-18T17:44:55.136Z</time></trkpt><trkpt lat="41.9270595" lon="12.724085666666667"><ele>40.0</ele><time>2026-04-18T17:44:56.139Z</time></trkpt><trkpt lat="41.927045666666665" lon="12.723673499999999"><ele>39.0</ele><time>2026-04-18T17:44:57.138Z</time></trkpt><trkpt lat="41.92703233333334" lon="12.723256499999998"><ele>38.5</ele><time>2026-04-18T17:44:58.139Z</time></trkpt><trkpt lat="41.927019666666666" lon="12.722847000000002"><ele>38.0</ele><time>2026-04-18T17:44:59.139Z</time></trkpt><trkpt lat="41.92700716666666" lon="12.722431833333333"><ele>39.0</ele><time>2026-04-18T17:45:00.139Z</time></trkpt><trkpt lat="41.92699483333334" lon="12.722008999999998"><ele>40.0</ele><time>2026-04-18T17:45:01.139Z</time></trkpt><trkpt lat="41.92698216666666" lon="12.721592"><ele>40.5</ele><time>2026-04-18T17:45:02.135Z</time></trkpt><trkpt lat="41.9269685" lon="12.721167666666666"><ele>41.0</ele><time>2026-04-18T17:45:03.139Z</time></trkpt><trkpt lat="41.92695416666667" lon="12.720737166666666"><ele>40.0</ele><time>2026-04-18T17:45:04.139Z</time></trkpt><trkpt lat="41.926939833333336" lon="12.720313333333335"><ele>39.0</ele><time>2026-04-18T17:45:05.141Z</time></trkpt><trkpt lat="41.92692466666667" lon="12.719883666666664"><ele>38.0</ele><time>2026-04-18T17:45:06.138Z</time></trkpt><trkpt lat="41.92690883333333" lon="12.719447500000001"><ele>37.0</ele><time>2026-04-18T17:45:07.138Z</time></trkpt><trkpt lat="41.92689333333333" lon="12.719019833333334"><ele>37.0</ele><time>2026-04-18T17:45:08.138Z</time></trkpt><trkpt lat="41.92687766666666" lon="12.718589000000001"><ele>37.0</ele><time>2026-04-18T17:45:09.14Z</time></trkpt><trkpt lat="41.926861666666674" lon="12.718155000000001"><ele>38.0</ele><time>2026-04-18T17:45:10.138Z</time></trkpt><trkpt lat="41.926845166666666" lon="12.717731666666667"><ele>39.0</ele><time>2026-04-18T17:45:11.137Z</time></trkpt><trkpt lat="41.92682933333334" lon="12.717305833333333"><ele>38.5</ele><time>2026-04-18T17:45:12.138Z</time></trkpt><trkpt lat="41.92681433333334" lon="12.716883333333334"><ele>38.0</ele><time>2026-04-18T17:45:13.137Z</time></trkpt><trkpt lat="41.926800333333325" lon="12.716463333333335"><ele>37.0</ele><time>2026-04-18T17:45:14.136Z</time></trkpt><trkpt lat="41.926787333333344" lon="12.7160495"><ele>36.0</ele><time>2026-04-18T17:45:15.135Z</time></trkpt><trkpt lat="41.926775" lon="12.715640333333331"><ele>35.0</ele><time>2026-04-18T17:45:16.139Z</time></trkpt><trkpt lat="41.926763" lon="12.715235833333335"><ele>34.0</ele><time>2026-04-18T17:45:17.138Z</time></trkpt><trkpt lat="41.92675166666666" lon="12.714833833333334"><ele>34.0</ele><time>2026-04-18T17:45:18.138Z</time></trkpt><trkpt lat="41.92674066666667" lon="12.714434166666667"><ele>34.0</ele><time>2026-04-18T17:45:19.139Z</time></trkpt><trkpt lat="41.92673016666666" lon="12.714036833333333"><ele>37.5</ele><time>2026-04-18T17:45:20.135Z</time></trkpt><trkpt lat="41.92671966666667" lon="12.713640333333334"><ele>41.0</ele><time>2026-04-18T17:45:21.138Z</time></trkpt><trkpt lat="41.92670833333333" lon="12.713245833333332"><ele>41.5</ele><time>2026-04-18T17:45:22.141Z</time></trkpt><trkpt lat="41.92669649999999" lon="12.712854833333331"><ele>42.0</ele><time>2026-04-18T17:45:23.138Z</time></trkpt><trkpt lat="41.92668483333334" lon="12.7124645"><ele>40.0</ele><time>2026-04-18T17:45:24.137Z</time></trkpt><trkpt lat="41.92667333333333" lon="12.712080166666667"><ele>38.0</ele><time>2026-04-18T17:45:25.139Z</time></trkpt><trkpt lat="41.92666166666666" lon="12.711688333333331"><ele>37.5</ele><time>2026-04-18T17:45:26.137Z</time></trkpt><trkpt lat="41.92664983333334" lon="12.711304166666665"><ele>37.0</ele><time>2026-04-18T17:45:27.137Z</time></trkpt><trkpt lat="41.9266375" lon="12.710927666666665"><ele>37.0</ele><time>2026-04-18T17:45:28.137Z</time></trkpt><trkpt lat="41.926624999999994" lon="12.710561166666666"><ele>37.0</ele><time>2026-04-18T17:45:29.14Z</time></trkpt><trkpt lat="41.92661216666667" lon="12.7101965"><ele>38.5</ele><time>2026-04-18T17:45:30.154Z</time></trkpt><trkpt lat="41.92659916666666" lon="12.709838999999999"><ele>40.0</ele><time>2026-04-18T17:45:31.136Z</time></trkpt><trkpt lat="41.92658733333332" lon="12.709487000000003"><ele>42.5</ele><time>2026-04-18T17:45:32.137Z</time></trkpt><trkpt lat="41.926576999999995" lon="12.709139999999998"><ele>45.0</ele><time>2026-04-18T17:45:33.142Z</time></trkpt><trkpt lat="41.92656650000001" lon="12.708799666666668"><ele>45.5</ele><time>2026-04-18T17:45:34.138Z</time></trkpt><trkpt lat="41.926493" lon="12.708479499999997"><ele>46.0</ele><time>2026-04-18T17:45:35.139Z</time></trkpt><trkpt lat="41.9265005" lon="12.708146333333332"><ele>46.0</ele><time>2026-04-18T17:45:36.139Z</time></trkpt><trkpt lat="41.92644483333334" lon="12.707833"><ele>46.0</ele><time>2026-04-18T17:45:37.141Z</time></trkpt><trkpt lat="41.92646866666667" lon="12.707517166666666"><ele>46.5</ele><time>2026-04-18T17:45:38.137Z</time></trkpt><trkpt lat="41.92641016666666" lon="12.707220500000002"><ele>47.0</ele><time>2026-04-18T17:45:39.137Z</time></trkpt><trkpt lat="41.926452000000005" lon="12.706926166666666"><ele>48.0</ele><time>2026-04-18T17:45:40.138Z</time></trkpt><trkpt lat="41.92648900000001" lon="12.706642499999997"><ele>49.0</ele><time>2026-04-18T17:45:41.139Z</time></trkpt><trkpt lat="41.92652066666666" lon="12.706367666666665"><ele>50.0</ele><time>2026-04-18T17:45:42.135Z</time></trkpt><trkpt lat="41.9263815" lon="12.706180333333334"><ele>50.333333333333336</ele><time>2026-04-18T17:45:43.14Z</time></trkpt><trkpt lat="41.926443" lon="12.705917333333332"><ele>50.66666666666667</ele><time>2026-04-18T17:45:44.139Z</time></trkpt><trkpt lat="41.92633416666666" lon="12.705715833333333"><ele>51.0</ele><time>2026-04-18T17:45:45.14Z</time></trkpt><trkpt lat="41.926403666666666" lon="12.705480000000001"><ele>51.0</ele><time>2026-04-18T17:45:46.137Z</time></trkpt><trkpt lat="41.92632016666667" lon="12.705282166666665"><ele>51.0</ele><time>2026-04-18T17:45:47.137Z</time></trkpt><trkpt lat="41.92638983333333" lon="12.705090333333331"><ele>51.0</ele><time>2026-04-18T17:45:48.143Z</time></trkpt><trkpt lat="41.926318499999994" lon="12.704919666666667"><ele>51.25</ele><time>2026-04-18T17:45:49.137Z</time></trkpt><trkpt lat="41.926387000000005" lon="12.704745166666665"><ele>51.5</ele><time>2026-04-18T17:45:50.136Z</time></trkpt><trkpt lat="41.92632316666666" lon="12.704600000000001"><ele>51.75</ele><time>2026-04-18T17:45:51.136Z</time></trkpt><trkpt lat="41.92638966666667" lon="12.704448666666668"><ele>52.0</ele><time>2026-04-18T17:45:52.137Z</time></trkpt><trkpt lat="41.92633033333333" lon="12.704315166666666"><ele>51.99999999999999</ele><time>2026-04-18T17:45:53.142Z</time></trkpt><trkpt lat="41.92630616666667" lon="12.704175333333335"><ele>52.0</ele><time>2026-04-18T17:45:54.138Z</time></trkpt><trkpt lat="41.926375166666666" lon="12.704072166666666"><ele>52.0</ele><time>2026-04-18T17:45:55.141Z</time></trkpt><trkpt lat="41.926347500000006" lon="12.703968000000003"><ele>52.0</ele><time>2026-04-18T17:45:56.137Z</time></trkpt><trkpt lat="41.926346333333335" lon="12.703869500000001"><ele>51.99999999999999</ele><time>2026-04-18T17:45:57.136Z</time></trkpt><trkpt lat="41.92636683333334" lon="12.703788166666667"><ele>52.0</ele><time>2026-04-18T17:45:59Z</time></trkpt><trkpt lat="41.92643200000001" lon="12.703693333333334"><ele>51.99999999999999</ele><time>2026-04-18T17:46:01Z</time></trkpt><trkpt lat="41.92658139671253" lon="12.703748957688825"><ele>52.0</ele><time>2026-04-18T17:46:02Z</time></trkpt><trkpt lat="41.926517" lon="12.703693166666667"><ele>52.0</ele><time>2026-04-18T17:46:19.139Z</time></trkpt><trkpt lat="41.92651266666667" lon="12.703605000000001"><ele>52.0</ele><time>2026-04-18T17:46:41.135Z</time></trkpt><trkpt lat="41.92650883333334" lon="12.703518333333333"><ele>51.99999999999999</ele><time>2026-04-18T17:46:58.132Z</time></trkpt><trkpt lat="41.926506" lon="12.703420833333334"><ele>52.0</ele><time>2026-04-18T17:47:18.139Z</time></trkpt><trkpt lat="41.9265025" lon="12.703279000000002"><ele>52.6</ele><time>2026-04-18T17:47:20.137Z</time></trkpt><trkpt lat="41.92640979673701" lon="12.70319840280545"><ele>53.2</ele><time>2026-04-18T17:47:21.143Z</time></trkpt><trkpt lat="41.92640618218987" lon="12.703099126416443"><ele>53.8</ele><time>2026-04-18T17:47:22.139Z</time></trkpt><trkpt lat="41.926401423416095" lon="12.702976961891746"><ele>54.4</ele><time>2026-04-18T17:47:23.138Z</time></trkpt><trkpt lat="41.92639452897862" lon="12.702835628801957"><ele>55.0</ele><time>2026-04-18T17:47:24.14Z</time></trkpt><trkpt lat="41.92638635734275" lon="12.70268449088204"><ele>55.5</ele><time>2026-04-18T17:47:25.14Z</time></trkpt><trkpt lat="41.92637648272091" lon="12.702523124310774"><ele>56.0</ele><time>2026-04-18T17:47:26.139Z</time></trkpt><trkpt lat="41.92636399065885" lon="12.702349119814007"><ele>56.5</ele><time>2026-04-18T17:47:27.137Z</time></trkpt><trkpt lat="41.926350807561796" lon="12.702165489714703"><ele>57.0</ele><time>2026-04-18T17:47:28.141Z</time></trkpt><trkpt lat="41.92633654156535" lon="12.701974839504432"><ele>56.25</ele><time>2026-04-18T17:47:29.143Z</time></trkpt><trkpt lat="41.926321923286125" lon="12.701785858026819"><ele>55.5</ele><time>2026-04-18T17:47:30.156Z</time></trkpt><trkpt lat="41.92630710471838" lon="12.701594287226516"><ele>54.75</ele><time>2026-04-18T17:47:31.143Z</time></trkpt><trkpt lat="41.9262918519239" lon="12.701397102890837"><ele>54.0</ele><time>2026-04-18T17:47:32.137Z</time></trkpt><trkpt lat="41.926292166666656" lon="12.701196166666666"><ele>53.66666666666667</ele><time>2026-04-18T17:47:33.14Z</time></trkpt><trkpt lat="41.9262595" lon="12.700992833333332"><ele>53.333333333333336</ele><time>2026-04-18T17:47:34.137Z</time></trkpt><trkpt lat="41.926227" lon="12.700780666666667"><ele>53.0</ele><time>2026-04-18T17:47:35.139Z</time></trkpt><trkpt lat="41.926196" lon="12.700564166666668"><ele>53.0</ele><time>2026-04-18T17:47:36.14Z</time></trkpt><trkpt lat="41.9261795" lon="12.7003415"><ele>53.0</ele><time>2026-04-18T17:47:37.14Z</time></trkpt><trkpt lat="41.92616516666667" lon="12.700108"><ele>53.0</ele><time>2026-04-18T17:47:38.143Z</time></trkpt><trkpt lat="41.92614916666666" lon="12.699864166666668"><ele>52.0</ele><time>2026-04-18T17:47:39.14Z</time></trkpt><trkpt lat="41.92613383333334" lon="12.699611833333332"><ele>51.0</ele><time>2026-04-18T17:47:40.138Z</time></trkpt><trkpt lat="41.92611966666667" lon="12.699351166666668"><ele>50.0</ele><time>2026-04-18T17:47:41.139Z</time></trkpt><trkpt lat="41.92611100000001" lon="12.699083166666666"><ele>48.333333333333336</ele><time>2026-04-18T17:47:42.138Z</time></trkpt><trkpt lat="41.92610066666666" lon="12.698811166666667"><ele>46.66666666666667</ele><time>2026-04-18T17:47:43.139Z</time></trkpt><trkpt lat="41.926033499999996" lon="12.698548000000002"><ele>45.0</ele><time>2026-04-18T17:47:44.139Z</time></trkpt><trkpt lat="41.92602783333333" lon="12.698268666666669"><ele>43.333333333333336</ele><time>2026-04-18T17:47:45.14Z</time></trkpt><trkpt lat="41.92597000000001" lon="12.697997833333332"><ele>41.66666666666667</ele><time>2026-04-18T17:47:46.14Z</time></trkpt><trkpt lat="41.925966" lon="12.697708"><ele>40.0</ele><time>2026-04-18T17:47:47.14Z</time></trkpt><trkpt lat="41.92595516666667" lon="12.697415333333334"><ele>39.66666666666667</ele><time>2026-04-18T17:47:48.14Z</time></trkpt><trkpt lat="41.925939" lon="12.697120166666666"><ele>39.333333333333336</ele><time>2026-04-18T17:47:49.137Z</time></trkpt><trkpt lat="41.92591900000001" lon="12.696820666666667"><ele>39.0</ele><time>2026-04-18T17:47:50.14Z</time></trkpt><trkpt lat="41.92589483333333" lon="12.6965175"><ele>41.5</ele><time>2026-04-18T17:47:51.141Z</time></trkpt><trkpt lat="41.92586583333333" lon="12.696208333333335"><ele>44.0</ele><time>2026-04-18T17:47:52.139Z</time></trkpt><trkpt lat="41.925833666666655" lon="12.695893666666667"><ele>45.0</ele><time>2026-04-18T17:47:53.14Z</time></trkpt><trkpt lat="41.925798500000006" lon="12.695573333333336"><ele>46.0</ele><time>2026-04-18T17:47:54.141Z</time></trkpt><trkpt lat="41.9257615" lon="12.695258833333332"><ele>45.0</ele><time>2026-04-18T17:47:55.141Z</time></trkpt><trkpt lat="41.92572383333333" lon="12.694946166666666"><ele>44.0</ele><time>2026-04-18T17:47:56.137Z</time></trkpt><trkpt lat="41.92568616666668" lon="12.694630666666667"><ele>45.5</ele><time>2026-04-18T17:47:57.14Z</time></trkpt><trkpt lat="41.92564716666668" lon="12.694312833333333"><ele>47.0</ele><time>2026-04-18T17:47:58.138Z</time></trkpt><trkpt lat="41.92560799999999" lon="12.694002666666666"><ele>47.0</ele><time>2026-04-18T17:47:59.139Z</time></trkpt><trkpt lat="41.925567" lon="12.693688666666667"><ele>47.0</ele><time>2026-04-18T17:48:00.139Z</time></trkpt><trkpt lat="41.9255235" lon="12.693372333333333"><ele>48.5</ele><time>2026-04-18T17:48:01.141Z</time></trkpt><trkpt lat="41.925479333333335" lon="12.693061333333333"><ele>50.0</ele><time>2026-04-18T17:48:02.138Z</time></trkpt><trkpt lat="41.92543349999999" lon="12.692747333333335"><ele>51.5</ele><time>2026-04-18T17:48:03.143Z</time></trkpt><trkpt lat="41.92538549999999" lon="12.692429166666667"><ele>53.0</ele><time>2026-04-18T17:48:04.138Z</time></trkpt><trkpt lat="41.92533516666668" lon="12.6921155"><ele>52.0</ele><time>2026-04-18T17:48:05.141Z</time></trkpt><trkpt lat="41.92528183333334" lon="12.691794000000002"><ele>51.0</ele><time>2026-04-18T17:48:06.139Z</time></trkpt><trkpt lat="41.92522600000001" lon="12.691462"><ele>51.0</ele><time>2026-04-18T17:48:07.137Z</time></trkpt><trkpt lat="41.925168666666664" lon="12.691129666666667"><ele>51.0</ele><time>2026-04-18T17:48:08.138Z</time></trkpt><trkpt lat="41.925108" lon="12.690792333333333"><ele>49.0</ele><time>2026-04-18T17:48:09.148Z</time></trkpt><trkpt lat="41.9250445" lon="12.690450666666667"><ele>47.0</ele><time>2026-04-18T17:48:10.139Z</time></trkpt><trkpt lat="41.924980999999995" lon="12.690117166666667"><ele>46.0</ele><time>2026-04-18T17:48:11.137Z</time></trkpt><trkpt lat="41.92491450000001" lon="12.689781833333333"><ele>45.0</ele><time>2026-04-18T17:48:12.139Z</time></trkpt><trkpt lat="41.924847" lon="12.689448333333331"><ele>45.5</ele><time>2026-04-18T17:48:13.141Z</time></trkpt><trkpt lat="41.92477883333333" lon="12.689117166666664"><ele>46.0</ele><time>2026-04-18T17:48:14.14Z</time></trkpt><trkpt lat="41.92470783333333" lon="12.688785833333334"><ele>46.0</ele><time>2026-04-18T17:48:15.139Z</time></trkpt><trkpt lat="41.924635" lon="12.688455333333332"><ele>46.0</ele><time>2026-04-18T17:48:16.138Z</time></trkpt><trkpt lat="41.92456099999999" lon="12.688125500000002"><ele>46.0</ele><time>2026-04-18T17:48:17.138Z</time></trkpt><trkpt lat="41.92448649999999" lon="12.687795166666668"><ele>46.0</ele><time>2026-04-18T17:48:18.136Z</time></trkpt><trkpt lat="41.92440933333334" lon="12.687464833333335"><ele>43.5</ele><time>2026-04-18T17:48:19.14Z</time></trkpt><trkpt lat="41.92432933333333" lon="12.687132499999999"><ele>41.0</ele><time>2026-04-18T17:48:20.139Z</time></trkpt><trkpt lat="41.924246499999995" lon="12.686800000000002"><ele>42.5</ele><time>2026-04-18T17:48:21.139Z</time></trkpt><trkpt lat="41.92416033333334" lon="12.686467999999998"><ele>44.0</ele><time>2026-04-18T17:48:22.14Z</time></trkpt><trkpt lat="41.924072166666676" lon="12.686133500000002"><ele>46.0</ele><time>2026-04-18T17:48:23.14Z</time></trkpt><trkpt lat="41.9239825" lon="12.685796000000002"><ele>48.0</ele><time>2026-04-18T17:48:24.139Z</time></trkpt><trkpt lat="41.923891166666664" lon="12.685455666666668"><ele>48.5</ele><time>2026-04-18T17:48:25.141Z</time></trkpt><trkpt lat="41.92379733333333" lon="12.685111666666668"><ele>49.0</ele><time>2026-04-18T17:48:26.136Z</time></trkpt><trkpt lat="41.923702" lon="12.684764"><ele>49.0</ele><time>2026-04-18T17:48:27.139Z</time></trkpt><trkpt lat="41.923606166666666" lon="12.6844125"><ele>49.0</ele><time>2026-04-18T17:48:28.138Z</time></trkpt><trkpt lat="41.92350983333334" lon="12.684057"><ele>49.0</ele><time>2026-04-18T17:48:29.139Z</time></trkpt><trkpt lat="41.923413333333336" lon="12.683698"><ele>49.0</ele><time>2026-04-18T17:48:30.157Z</time></trkpt><trkpt lat="41.923318" lon="12.683336666666666"><ele>49.0</ele><time>2026-04-18T17:48:31.139Z</time></trkpt><trkpt lat="41.9232235" lon="12.682972500000002"><ele>49.0</ele><time>2026-04-18T17:48:32.139Z</time></trkpt><trkpt lat="41.923128" lon="12.682604833333334"><ele>51.0</ele><time>2026-04-18T17:48:33.14Z</time></trkpt><trkpt lat="41.923032666666664" lon="12.682238166666666"><ele>53.0</ele><time>2026-04-18T17:48:34.138Z</time></trkpt><trkpt lat="41.922936666666665" lon="12.681867"><ele>54.0</ele><time>2026-04-18T17:48:35.136Z</time></trkpt><trkpt lat="41.922839999999994" lon="12.681493166666666"><ele>55.0</ele><time>2026-04-18T17:48:36.137Z</time></trkpt><trkpt lat="41.922742666666664" lon="12.681115666666669"><ele>54.0</ele><time>2026-04-18T17:48:37.138Z</time></trkpt><trkpt lat="41.92264566666667" lon="12.680734"><ele>53.0</ele><time>2026-04-18T17:48:38.136Z</time></trkpt><trkpt lat="41.92255033333333" lon="12.680351666666665"><ele>52.0</ele><time>2026-04-18T17:48:39.141Z</time></trkpt><trkpt lat="41.922459333333336" lon="12.679983833333331"><ele>51.0</ele><time>2026-04-18T17:48:40.138Z</time></trkpt><trkpt lat="41.922362666666665" lon="12.6795925"><ele>49.5</ele><time>2026-04-18T17:48:41.136Z</time></trkpt><trkpt lat="41.92226583333333" lon="12.679200999999999"><ele>48.0</ele><time>2026-04-18T17:48:42.136Z</time></trkpt><trkpt lat="41.92217433333334" lon="12.678830999999999"><ele>46.5</ele><time>2026-04-18T17:48:43.137Z</time></trkpt><trkpt lat="41.92207716666667" lon="12.6784375"><ele>45.0</ele><time>2026-04-18T17:48:44.137Z</time></trkpt><trkpt lat="41.921984" lon="12.678063000000002"><ele>44.5</ele><time>2026-04-18T17:48:45.136Z</time></trkpt><trkpt lat="41.92188683333334" lon="12.677678333333331"><ele>44.0</ele><time>2026-04-18T17:48:46.136Z</time></trkpt><trkpt lat="41.9217875" lon="12.677288666666668"><ele>39.5</ele><time>2026-04-18T17:48:47.133Z</time></trkpt><trkpt lat="41.921692" lon="12.676915666666666"><ele>35.0</ele><time>2026-04-18T17:48:48.136Z</time></trkpt><trkpt lat="41.921593666666666" lon="12.676532166666666"><ele>35.0</ele><time>2026-04-18T17:48:49.14Z</time></trkpt><trkpt lat="41.9214935" lon="12.676143333333334"><ele>35.0</ele><time>2026-04-18T17:48:50.134Z</time></trkpt><trkpt lat="41.92139666666667" lon="12.675771333333334"><ele>34.0</ele><time>2026-04-18T17:48:51.138Z</time></trkpt><trkpt lat="41.921297" lon="12.6753875"><ele>33.0</ele><time>2026-04-18T17:48:52.136Z</time></trkpt><trkpt lat="41.92119583333333" lon="12.674996166666665"><ele>35.5</ele><time>2026-04-18T17:48:53.134Z</time></trkpt><trkpt lat="41.92109933333333" lon="12.674620833333332"><ele>38.0</ele><time>2026-04-18T17:48:54.134Z</time></trkpt><trkpt lat="41.921" lon="12.674232666666667"><ele>42.5</ele><time>2026-04-18T17:48:55.135Z</time></trkpt><trkpt lat="41.92089933333333" lon="12.673838"><ele>47.0</ele><time>2026-04-18T17:48:56.151Z</time></trkpt><trkpt lat="41.92080250000001" lon="12.673459666666668"><ele>47.0</ele><time>2026-04-18T17:48:57.134Z</time></trkpt><trkpt lat="41.920702" lon="12.673067666666668"><ele>47.0</ele><time>2026-04-18T17:48:58.134Z</time></trkpt><trkpt lat="41.92059883333333" lon="12.672668333333336"><ele>46.5</ele><time>2026-04-18T17:48:59.132Z</time></trkpt><trkpt lat="41.92049900000001" lon="12.672285833333335"><ele>46.0</ele><time>2026-04-18T17:49:00.134Z</time></trkpt><trkpt lat="41.9203955" lon="12.671890666666664"><ele>44.0</ele><time>2026-04-18T17:49:01.133Z</time></trkpt><trkpt lat="41.92028950000001" lon="12.671487999999998"><ele>42.0</ele><time>2026-04-18T17:49:02.135Z</time></trkpt><trkpt lat="41.92018866666667" lon="12.6711015"><ele>38.5</ele><time>2026-04-18T17:49:03.137Z</time></trkpt><trkpt lat="41.92008416666666" lon="12.670700166666666"><ele>35.0</ele><time>2026-04-18T17:49:04.135Z</time></trkpt><trkpt lat="41.91997833333333" lon="12.670292500000002"><ele>33.0</ele><time>2026-04-18T17:49:05.134Z</time></trkpt><trkpt lat="41.91987783333334" lon="12.669903666666668"><ele>31.0</ele><time>2026-04-18T17:49:06.134Z</time></trkpt><trkpt lat="41.91977466666667" lon="12.6695035"><ele>31.5</ele><time>2026-04-18T17:49:07.135Z</time></trkpt><trkpt lat="41.91967066666666" lon="12.669099666666668"><ele>32.0</ele><time>2026-04-18T17:49:08.134Z</time></trkpt><trkpt lat="41.91957116666667" lon="12.668715166666667"><ele>34.0</ele><time>2026-04-18T17:49:09.135Z</time></trkpt><trkpt lat="41.9194695" lon="12.668323000000003"><ele>36.0</ele><time>2026-04-18T17:49:10.136Z</time></trkpt><trkpt lat="41.91936600000001" lon="12.667926333333332"><ele>40.0</ele><time>2026-04-18T17:49:11.129Z</time></trkpt><trkpt lat="41.919266666666665" lon="12.667549666666664"><ele>44.0</ele><time>2026-04-18T17:49:12.131Z</time></trkpt><trkpt lat="41.919163" lon="12.667162666666666"><ele>42.0</ele><time>2026-04-18T17:49:13.14Z</time></trkpt><trkpt lat="41.91905916666666" lon="12.666771999999998"><ele>40.0</ele><time>2026-04-18T17:49:14.139Z</time></trkpt><trkpt lat="41.91896066666666" lon="12.666399666666665"><ele>38.5</ele><time>2026-04-18T17:49:15.139Z</time></trkpt><trkpt lat="41.91886083333333" lon="12.666018999999999"><ele>37.0</ele><time>2026-04-18T17:49:16.138Z</time></trkpt><trkpt lat="41.918765666666665" lon="12.665632333333335"><ele>35.5</ele><time>2026-04-18T17:49:17.143Z</time></trkpt><trkpt lat="41.91868283333333" lon="12.665262499999997"><ele>34.0</ele><time>2026-04-18T17:49:18.136Z</time></trkpt><trkpt lat="41.918605833333345" lon="12.664881833333334"><ele>34.0</ele><time>2026-04-18T17:49:19.136Z</time></trkpt><trkpt lat="41.918536666666654" lon="12.664492333333332"><ele>34.0</ele><time>2026-04-18T17:49:20.137Z</time></trkpt><trkpt lat="41.918478666666665" lon="12.664118333333334"><ele>33.0</ele><time>2026-04-18T17:49:21.136Z</time></trkpt><trkpt lat="41.9184295" lon="12.663733333333335"><ele>32.0</ele><time>2026-04-18T17:49:22.136Z</time></trkpt><trkpt lat="41.918388" lon="12.663339499999998"><ele>34.0</ele><time>2026-04-18T17:49:23.136Z</time></trkpt><trkpt lat="41.91835616666667" lon="12.662962999999998"><ele>36.0</ele><time>2026-04-18T17:49:24.136Z</time></trkpt><trkpt lat="41.91833150000001" lon="12.662576166666666"><ele>40.0</ele><time>2026-04-18T17:49:25.137Z</time></trkpt><trkpt lat="41.91831616666667" lon="12.662184666666667"><ele>44.0</ele><time>2026-04-18T17:49:26.134Z</time></trkpt><trkpt lat="41.918310500000004" lon="12.6618105"><ele>45.5</ele><time>2026-04-18T17:49:27.134Z</time></trkpt><trkpt lat="41.91831483333333" lon="12.661430166666667"><ele>47.0</ele><time>2026-04-18T17:49:28.135Z</time></trkpt><trkpt lat="41.9183275" lon="12.661055333333335"><ele>47.5</ele><time>2026-04-18T17:49:29.152Z</time></trkpt><trkpt lat="41.9183485" lon="12.660683333333335"><ele>48.0</ele><time>2026-04-18T17:49:30.148Z</time></trkpt><trkpt lat="41.918378000000004" lon="12.660313666666665"><ele>46.5</ele><time>2026-04-18T17:49:31.138Z</time></trkpt><trkpt lat="41.91841550000001" lon="12.659948333333332"><ele>45.0</ele><time>2026-04-18T17:49:32.135Z</time></trkpt><trkpt lat="41.91846300000001" lon="12.659585666666665"><ele>43.0</ele><time>2026-04-18T17:49:33.141Z</time></trkpt><trkpt lat="41.918522" lon="12.659229333333332"><ele>41.0</ele><time>2026-04-18T17:49:34.134Z</time></trkpt><trkpt lat="41.91858650000001" lon="12.658882333333333"><ele>38.0</ele><time>2026-04-18T17:49:35.14Z</time></trkpt><trkpt lat="41.91865433333334" lon="12.658542166666667"><ele>35.0</ele><time>2026-04-18T17:49:36.139Z</time></trkpt><trkpt lat="41.918727000000004" lon="12.658207833333332"><ele>35.0</ele><time>2026-04-18T17:49:37.137Z</time></trkpt><trkpt lat="41.9188045" lon="12.657880666666665"><ele>35.0</ele><time>2026-04-18T17:49:38.134Z</time></trkpt><trkpt lat="41.91888850000001" lon="12.657553499999999"><ele>34.5</ele><time>2026-04-18T17:49:39.136Z</time></trkpt><trkpt lat="41.918978333333335" lon="12.657227333333333"><ele>34.0</ele><time>2026-04-18T17:49:40.138Z</time></trkpt><trkpt lat="41.919073" lon="12.656906666666664"><ele>34.0</ele><time>2026-04-18T17:49:41.136Z</time></trkpt><trkpt lat="41.91917466666668" lon="12.656586666666666"><ele>34.0</ele><time>2026-04-18T17:49:42.139Z</time></trkpt><trkpt lat="41.91928083333334" lon="12.656266833333332"><ele>32.0</ele><time>2026-04-18T17:49:43.137Z</time></trkpt><trkpt lat="41.919391" lon="12.655949999999999"><ele>30.0</ele><time>2026-04-18T17:49:44.135Z</time></trkpt><trkpt lat="41.91950766666667" lon="12.655633333333332"><ele>30.0</ele><time>2026-04-18T17:49:45.135Z</time></trkpt><trkpt lat="41.919634499999994" lon="12.655318666666668"><ele>30.0</ele><time>2026-04-18T17:49:46.139Z</time></trkpt><trkpt lat="41.919770666666665" lon="12.655008833333332"><ele>29.5</ele><time>2026-04-18T17:49:47.138Z</time></trkpt><trkpt lat="41.91991733333333" lon="12.654699666666666"><ele>29.0</ele><time>2026-04-18T17:49:48.14Z</time></trkpt><trkpt lat="41.920072666666655" lon="12.654392166666666"><ele>29.0</ele><time>2026-04-18T17:49:49.147Z</time></trkpt><trkpt lat="41.92023533333333" lon="12.65408933333333"><ele>29.0</ele><time>2026-04-18T17:49:50.143Z</time></trkpt><trkpt lat="41.920406500000006" lon="12.653788833333332"><ele>31.0</ele><time>2026-04-18T17:49:51.14Z</time></trkpt><trkpt lat="41.920601166666664" lon="12.653462166666667"><ele>33.0</ele><time>2026-04-18T17:49:52.141Z</time></trkpt><trkpt lat="41.920784999999995" lon="12.653170333333332"><ele>33.5</ele><time>2026-04-18T17:49:53.142Z</time></trkpt><trkpt lat="41.92095433333334" lon="12.652909"><ele>34.0</ele><time>2026-04-18T17:49:54.139Z</time></trkpt><trkpt lat="41.92116266666667" lon="12.652587"><ele>34.0</ele><time>2026-04-18T17:49:55.138Z</time></trkpt><trkpt lat="41.92135183333333" lon="12.652291666666667"><ele>34.0</ele><time>2026-04-18T17:49:56.139Z</time></trkpt><trkpt lat="41.921539" lon="12.651992333333332"><ele>33.0</ele><time>2026-04-18T17:49:57.138Z</time></trkpt><trkpt lat="41.92172016666667" lon="12.651689333333335"><ele>32.0</ele><time>2026-04-18T17:49:58.14Z</time></trkpt><trkpt lat="41.921895666666664" lon="12.651379666666665"><ele>32.5</ele><time>2026-04-18T17:49:59.149Z</time></trkpt><trkpt lat="41.922064500000005" lon="12.651064"><ele>33.0</ele><time>2026-04-18T17:50:00.143Z</time></trkpt><trkpt lat="41.922223333333335" lon="12.650745500000001"><ele>33.0</ele><time>2026-04-18T17:50:01.142Z</time></trkpt><trkpt lat="41.922375333333335" lon="12.650423666666665"><ele>33.0</ele><time>2026-04-18T17:50:02.141Z</time></trkpt><trkpt lat="41.922515833333335" lon="12.650105666666665"><ele>33.0</ele><time>2026-04-18T17:50:03.139Z</time></trkpt><trkpt lat="41.922656" lon="12.649766666666668"><ele>33.0</ele><time>2026-04-18T17:50:04.141Z</time></trkpt><trkpt lat="41.922786333333335" lon="12.649430833333334"><ele>31.0</ele><time>2026-04-18T17:50:05.14Z</time></trkpt><trkpt lat="41.922909" lon="12.649090333333334"><ele>29.0</ele><time>2026-04-18T17:50:06.137Z</time></trkpt><trkpt lat="41.923021500000004" lon="12.648752333333334"><ele>29.0</ele><time>2026-04-18T17:50:07.138Z</time></trkpt><trkpt lat="41.92313016666667" lon="12.648399166666666"><ele>29.0</ele><time>2026-04-18T17:50:08.142Z</time></trkpt><trkpt lat="41.92322933333333" lon="12.648046166666665"><ele>28.5</ele><time>2026-04-18T17:50:09.138Z</time></trkpt><trkpt lat="41.923320166666656" lon="12.647688333333333"><ele>28.0</ele><time>2026-04-18T17:50:10.14Z</time></trkpt><trkpt lat="41.92340366666668" lon="12.647325999999998"><ele>28.0</ele><time>2026-04-18T17:50:11.138Z</time></trkpt><trkpt lat="41.923479666666665" lon="12.646965333333332"><ele>28.0</ele><time>2026-04-18T17:50:12.139Z</time></trkpt><trkpt lat="41.923548333333336" lon="12.646600000000001"><ele>27.5</ele><time>2026-04-18T17:50:13.152Z</time></trkpt><trkpt lat="41.9236085" lon="12.646230333333332"><ele>27.0</ele><time>2026-04-18T17:50:14.138Z</time></trkpt><trkpt lat="41.923656666666666" lon="12.645860333333335"><ele>26.5</ele><time>2026-04-18T17:50:15.139Z</time></trkpt><trkpt lat="41.923695" lon="12.645482499999998"><ele>26.0</ele><time>2026-04-18T17:50:16.139Z</time></trkpt><trkpt lat="41.923722166666664" lon="12.645096333333333"><ele>27.5</ele><time>2026-04-18T17:50:17.144Z</time></trkpt><trkpt lat="41.92373933333334" lon="12.644711666666668"><ele>29.0</ele><time>2026-04-18T17:50:18.138Z</time></trkpt><trkpt lat="41.92374816666667" lon="12.644319"><ele>30.0</ele><time>2026-04-18T17:50:19.14Z</time></trkpt><trkpt lat="41.92374683333335" lon="12.6439195"><ele>31.0</ele><time>2026-04-18T17:50:20.138Z</time></trkpt><trkpt lat="41.9237345" lon="12.643520999999998"><ele>31.0</ele><time>2026-04-18T17:50:21.139Z</time></trkpt><trkpt lat="41.923712166666675" lon="12.6431205"><ele>31.0</ele><time>2026-04-18T17:50:22.139Z</time></trkpt><trkpt lat="41.92368383333334" lon="12.642722000000001"><ele>31.5</ele><time>2026-04-18T17:50:23.14Z</time></trkpt><trkpt lat="41.9237" lon="12.642330666666666"><ele>32.0</ele><time>2026-04-18T17:50:24.141Z</time></trkpt><trkpt lat="41.92365816666667" lon="12.641939333333335"><ele>35.5</ele><time>2026-04-18T17:50:25.137Z</time></trkpt><trkpt lat="41.92361916666667" lon="12.641546"><ele>39.0</ele><time>2026-04-18T17:50:26.14Z</time></trkpt><trkpt lat="41.92358433333334" lon="12.641155833333336"><ele>40.0</ele><time>2026-04-18T17:50:27.143Z</time></trkpt><trkpt lat="41.923550166666665" lon="12.640758833333331"><ele>41.0</ele><time>2026-04-18T17:50:28.139Z</time></trkpt><trkpt lat="41.92356316666666" lon="12.640350666666667"><ele>38.5</ele><time>2026-04-18T17:50:29.139Z</time></trkpt><trkpt lat="41.92351699999999" lon="12.639941333333336"><ele>36.0</ele><time>2026-04-18T17:50:30.153Z</time></trkpt><trkpt lat="41.923475333333336" lon="12.639524"><ele>34.5</ele><time>2026-04-18T17:50:31.151Z</time></trkpt><trkpt lat="41.923436333333335" lon="12.639099833333335"><ele>33.0</ele><time>2026-04-18T17:50:32.141Z</time></trkpt><trkpt lat="41.92339933333333" lon="12.638680499999998"><ele>31.0</ele><time>2026-04-18T17:50:33.14Z</time></trkpt><trkpt lat="41.923363833333326" lon="12.6382585"><ele>29.0</ele><time>2026-04-18T17:50:34.141Z</time></trkpt><trkpt lat="41.923328833333336" lon="12.637833166666667"><ele>29.5</ele><time>2026-04-18T17:50:35.15Z</time></trkpt><trkpt lat="41.92329483333333" lon="12.637408166666667"><ele>30.0</ele><time>2026-04-18T17:50:36.137Z</time></trkpt><trkpt lat="41.923261000000004" lon="12.6369745"><ele>30.0</ele><time>2026-04-18T17:50:37.142Z</time></trkpt><trkpt lat="41.923228" lon="12.636533333333334"><ele>30.0</ele><time>2026-04-18T17:50:38.149Z</time></trkpt><trkpt lat="41.923243333333325" lon="12.6360945"><ele>29.0</ele><time>2026-04-18T17:50:39.139Z</time></trkpt><trkpt lat="41.923202833333335" lon="12.635654833333335"><ele>28.0</ele><time>2026-04-18T17:50:40.14Z</time></trkpt><trkpt lat="41.9231675" lon="12.635217166666665"><ele>30.0</ele><time>2026-04-18T17:50:41.14Z</time></trkpt><trkpt lat="41.92313666666667" lon="12.634783"><ele>32.0</ele><time>2026-04-18T17:50:42.148Z</time></trkpt><trkpt lat="41.92316233333333" lon="12.634351666666666"><ele>32.0</ele><time>2026-04-18T17:50:43.139Z</time></trkpt><trkpt lat="41.92313016666667" lon="12.633922166666665"><ele>32.0</ele><time>2026-04-18T17:50:44.137Z</time></trkpt><trkpt lat="41.92310566666667" lon="12.6334945"><ele>31.0</ele><time>2026-04-18T17:50:45.139Z</time></trkpt><trkpt lat="41.92308866666667" lon="12.6330695"><ele>30.0</ele><time>2026-04-18T17:50:46.138Z</time></trkpt><trkpt lat="41.92307833333332" lon="12.632644833333332"><ele>30.0</ele><time>2026-04-18T17:50:47.134Z</time></trkpt><trkpt lat="41.92312966666667" lon="12.632226166666666"><ele>30.0</ele><time>2026-04-18T17:50:48.14Z</time></trkpt><trkpt lat="41.92311516666667" lon="12.631800333333334"><ele>30.0</ele><time>2026-04-18T17:50:49.142Z</time></trkpt><trkpt lat="41.923108333333325" lon="12.631374666666666"><ele>30.0</ele><time>2026-04-18T17:50:50.138Z</time></trkpt><trkpt lat="41.923108166666665" lon="12.630951666666666"><ele>30.0</ele><time>2026-04-18T17:50:51.138Z</time></trkpt><trkpt lat="41.923167" lon="12.630539833333334"><ele>30.0</ele><time>2026-04-18T17:50:52.138Z</time></trkpt><trkpt lat="41.9231645" lon="12.630123166666666"><ele>29.5</ele><time>2026-04-18T17:50:53.14Z</time></trkpt><trkpt lat="41.923170666666664" lon="12.629714666666665"><ele>29.0</ele><time>2026-04-18T17:50:54.13Z</time></trkpt><trkpt lat="41.92318466666667" lon="12.629325166666668"><ele>28.0</ele><time>2026-04-18T17:50:55.138Z</time></trkpt><trkpt lat="41.92326383333334" lon="12.628965333333335"><ele>27.0</ele><time>2026-04-18T17:50:56.142Z</time></trkpt><trkpt lat="41.923272166666656" lon="12.628605833333332"><ele>27.0</ele><time>2026-04-18T17:50:57.141Z</time></trkpt><trkpt lat="41.923285" lon="12.6282765"><ele>27.0</ele><time>2026-04-18T17:50:58.138Z</time></trkpt><trkpt lat="41.92329966666666" lon="12.627984833333334"><ele>26.666666666666664</ele><time>2026-04-18T17:50:59.14Z</time></trkpt><trkpt lat="41.923314" lon="12.627728333333334"><ele>26.333333333333332</ele><time>2026-04-18T17:51:00.139Z</time></trkpt><trkpt lat="41.9233285" lon="12.627492666666669"><ele>26.0</ele><time>2026-04-18T17:51:01.143Z</time></trkpt><trkpt lat="41.92334483333334" lon="12.627266666666666"><ele>26.0</ele><time>2026-04-18T17:51:02.137Z</time></trkpt><trkpt lat="41.92339233333334" lon="12.627046333333332"><ele>26.0</ele><time>2026-04-18T17:51:03.14Z</time></trkpt><trkpt lat="41.9234285" lon="12.626816333333332"><ele>26.0</ele><time>2026-04-18T17:51:04.137Z</time></trkpt><trkpt lat="41.92343983333333" lon="12.626583000000002"><ele>25.666666666666664</ele><time>2026-04-18T17:51:05.135Z</time></trkpt><trkpt lat="41.923455166666656" lon="12.626344500000002"><ele>25.333333333333336</ele><time>2026-04-18T17:51:06.139Z</time></trkpt><trkpt lat="41.92347366666666" lon="12.626099666666668"><ele>25.0</ele><time>2026-04-18T17:51:07.138Z</time></trkpt><trkpt lat="41.92349433333334" lon="12.625853333333335"><ele>25.0</ele><time>2026-04-18T17:51:08.142Z</time></trkpt><trkpt lat="41.923517333333336" lon="12.625596666666668"><ele>25.0</ele><time>2026-04-18T17:51:09.137Z</time></trkpt><trkpt lat="41.923542" lon="12.625328833333333"><ele>25.0</ele><time>2026-04-18T17:51:10.139Z</time></trkpt><trkpt lat="41.923567333333324" lon="12.625056500000001"><ele>27.333333333333336</ele><time>2026-04-18T17:51:11.138Z</time></trkpt><trkpt lat="41.923593333333336" lon="12.624770666666665"><ele>29.666666666666664</ele><time>2026-04-18T17:51:12.138Z</time></trkpt><trkpt lat="41.92362033333333" lon="12.624471833333333"><ele>32.0</ele><time>2026-04-18T17:51:13.14Z</time></trkpt><trkpt lat="41.9236475" lon="12.624169833333335"><ele>32.0</ele><time>2026-04-18T17:51:14.138Z</time></trkpt><trkpt lat="41.92367383333334" lon="12.6238545"><ele>32.0</ele><time>2026-04-18T17:51:15.139Z</time></trkpt><trkpt lat="41.92369883333335" lon="12.623529666666665"><ele>31.0</ele><time>2026-04-18T17:51:16.134Z</time></trkpt><trkpt lat="41.923721166666674" lon="12.623194999999997"><ele>30.0</ele><time>2026-04-18T17:51:17.138Z</time></trkpt><trkpt lat="41.92374016666666" lon="12.622855"><ele>29.0</ele><time>2026-04-18T17:51:18.139Z</time></trkpt><trkpt lat="41.923755500000006" lon="12.622512833333332"><ele>28.0</ele><time>2026-04-18T17:51:19.138Z</time></trkpt><trkpt lat="41.92376566666667" lon="12.622170333333335"><ele>28.5</ele><time>2026-04-18T17:51:20.142Z</time></trkpt><trkpt lat="41.9237715" lon="12.621828"><ele>29.0</ele><time>2026-04-18T17:51:21.137Z</time></trkpt><trkpt lat="41.9237735" lon="12.621480333333333"><ele>30.0</ele><time>2026-04-18T17:51:22.137Z</time></trkpt><trkpt lat="41.923773166666656" lon="12.621124166666668"><ele>31.0</ele><time>2026-04-18T17:51:23.135Z</time></trkpt><trkpt lat="41.92377033333334" lon="12.620757166666667"><ele>31.0</ele><time>2026-04-18T17:51:24.137Z</time></trkpt><trkpt lat="41.92375950000001" lon="12.620384999999999"><ele>31.0</ele><time>2026-04-18T17:51:25.139Z</time></trkpt><trkpt lat="41.92373633333333" lon="12.620014166666666"><ele>31.0</ele><time>2026-04-18T17:51:26.138Z</time></trkpt><trkpt lat="41.92370316666668" lon="12.619645333333336"><ele>31.0</ele><time>2026-04-18T17:51:27.142Z</time></trkpt><trkpt lat="41.92366083333334" lon="12.619276333333334"><ele>31.0</ele><time>2026-04-18T17:51:28.136Z</time></trkpt><trkpt lat="41.92358066666667" lon="12.618929166666666"><ele>31.0</ele><time>2026-04-18T17:51:29.145Z</time></trkpt><trkpt lat="41.923531000000004" lon="12.618553333333333"><ele>30.5</ele><time>2026-04-18T17:51:30.158Z</time></trkpt><trkpt lat="41.923476" lon="12.618203833333332"><ele>30.0</ele><time>2026-04-18T17:51:31.135Z</time></trkpt><trkpt lat="41.9234095" lon="12.617834166666666"><ele>27.0</ele><time>2026-04-18T17:51:32.141Z</time></trkpt><trkpt lat="41.923335166666654" lon="12.617466333333335"><ele>24.0</ele><time>2026-04-18T17:51:33.139Z</time></trkpt><trkpt lat="41.923257" lon="12.617121833333332"><ele>24.5</ele><time>2026-04-18T17:51:34.134Z</time></trkpt><trkpt lat="41.92316550000001" lon="12.616758166666667"><ele>25.0</ele><time>2026-04-18T17:51:35.137Z</time></trkpt><trkpt lat="41.92306666666667" lon="12.616398499999999"><ele>26.5</ele><time>2026-04-18T17:51:36.135Z</time></trkpt><trkpt lat="41.922967500000006" lon="12.616064999999999"><ele>28.0</ele><time>2026-04-18T17:51:37.139Z</time></trkpt><trkpt lat="41.922856" lon="12.615716166666667"><ele>28.0</ele><time>2026-04-18T17:51:38.135Z</time></trkpt><trkpt lat="41.922737999999995" lon="12.615372333333333"><ele>28.0</ele><time>2026-04-18T17:51:39.135Z</time></trkpt><trkpt lat="41.92262116666667" lon="12.615054833333332"><ele>33.0</ele><time>2026-04-18T17:51:40.136Z</time></trkpt><trkpt lat="41.92248983333334" lon="12.614726166666665"><ele>38.0</ele><time>2026-04-18T17:51:41.136Z</time></trkpt><trkpt lat="41.92235383333333" lon="12.614405833333334"><ele>39.5</ele><time>2026-04-18T17:51:42.136Z</time></trkpt><trkpt lat="41.92222183333333" lon="12.614110333333334"><ele>41.0</ele><time>2026-04-18T17:51:43.138Z</time></trkpt><trkpt lat="41.922076333333344" lon="12.613801333333335"><ele>41.5</ele><time>2026-04-18T17:51:44.138Z</time></trkpt><trkpt lat="41.921926500000005" lon="12.613496500000002"><ele>42.0</ele><time>2026-04-18T17:51:45.139Z</time></trkpt><trkpt lat="41.921780166666665" lon="12.613213"><ele>42.5</ele><time>2026-04-18T17:51:46.139Z</time></trkpt><trkpt lat="41.92162" lon="12.612915500000002"><ele>43.0</ele><time>2026-04-18T17:51:47.135Z</time></trkpt><trkpt lat="41.92146116666667" lon="12.612632166666666"><ele>42.0</ele><time>2026-04-18T17:51:48.134Z</time></trkpt><trkpt lat="41.92129466666667" lon="12.612345166666667"><ele>41.0</ele><time>2026-04-18T17:51:49.137Z</time></trkpt><trkpt lat="41.92112300000001" lon="12.612055833333333"><ele>40.0</ele><time>2026-04-18T17:51:50.136Z</time></trkpt><trkpt lat="41.92095599999999" lon="12.611779833333332"><ele>39.0</ele><time>2026-04-18T17:51:51.137Z</time></trkpt><trkpt lat="41.92078433333332" lon="12.611500666666666"><ele>38.0</ele><time>2026-04-18T17:51:52.138Z</time></trkpt><trkpt lat="41.92060716666667" lon="12.611218333333333"><ele>37.0</ele><time>2026-04-18T17:51:53.14Z</time></trkpt><trkpt lat="41.920436" lon="12.610948333333333"><ele>35.0</ele><time>2026-04-18T17:51:54.153Z</time></trkpt><trkpt lat="41.920260999999996" lon="12.610672333333332"><ele>33.0</ele><time>2026-04-18T17:51:55.138Z</time></trkpt><trkpt lat="41.920083000000005" lon="12.610391833333333"><ele>33.0</ele><time>2026-04-18T17:51:56.152Z</time></trkpt><trkpt lat="41.919912833333335" lon="12.610122333333333"><ele>33.0</ele><time>2026-04-18T17:51:57.141Z</time></trkpt><trkpt lat="41.919739666666665" lon="12.609847333333335"><ele>33.0</ele><time>2026-04-18T17:51:58.139Z</time></trkpt><trkpt lat="41.91956333333333" lon="12.609564833333332"><ele>33.0</ele><time>2026-04-18T17:51:59.138Z</time></trkpt><trkpt lat="41.91939333333333" lon="12.609291666666666"><ele>35.5</ele><time>2026-04-18T17:52:00.14Z</time></trkpt><trkpt lat="41.919219999999996" lon="12.609011333333335"><ele>38.0</ele><time>2026-04-18T17:52:01.14Z</time></trkpt><trkpt lat="41.919044500000005" lon="12.608722666666665"><ele>36.0</ele><time>2026-04-18T17:52:02.138Z</time></trkpt><trkpt lat="41.918876333333344" lon="12.608442333333334"><ele>34.0</ele><time>2026-04-18T17:52:03.137Z</time></trkpt><trkpt lat="41.9187055" lon="12.608154666666668"><ele>34.0</ele><time>2026-04-18T17:52:04.138Z</time></trkpt><trkpt lat="41.918532" lon="12.607860333333333"><ele>34.0</ele><time>2026-04-18T17:52:05.14Z</time></trkpt><trkpt lat="41.918366" lon="12.607577166666665"><ele>32.5</ele><time>2026-04-18T17:52:06.139Z</time></trkpt><trkpt lat="41.91819666666667" lon="12.6072855"><ele>31.0</ele><time>2026-04-18T17:52:07.142Z</time></trkpt><trkpt lat="41.91802583333333" lon="12.606983999999999"><ele>30.5</ele><time>2026-04-18T17:52:08.14Z</time></trkpt><trkpt lat="41.917860833333336" lon="12.606689166666667"><ele>30.0</ele><time>2026-04-18T17:52:09.139Z</time></trkpt><trkpt lat="41.917691" lon="12.606384833333335"><ele>31.5</ele><time>2026-04-18T17:52:10.14Z</time></trkpt><trkpt lat="41.91751433333334" lon="12.6060695"><ele>33.0</ele><time>2026-04-18T17:52:11.14Z</time></trkpt><trkpt lat="41.91734400000001" lon="12.605761500000002"><ele>33.0</ele><time>2026-04-18T17:52:12.139Z</time></trkpt><trkpt lat="41.91717216666666" lon="12.605444"><ele>33.0</ele><time>2026-04-18T17:52:13.149Z</time></trkpt><trkpt lat="41.91700083333333" lon="12.605117833333333"><ele>33.0</ele><time>2026-04-18T17:52:14.138Z</time></trkpt><trkpt lat="41.916839499999995" lon="12.604798999999998"><ele>33.0</ele><time>2026-04-18T17:52:15.15Z</time></trkpt><trkpt lat="41.91667883333333" lon="12.604469166666668"><ele>34.0</ele><time>2026-04-18T17:52:16.141Z</time></trkpt><trkpt lat="41.91651783333333" lon="12.604129333333333"><ele>35.0</ele><time>2026-04-18T17:52:17.148Z</time></trkpt><trkpt lat="41.91636633333333" lon="12.603798833333332"><ele>34.5</ele><time>2026-04-18T17:52:18.14Z</time></trkpt><trkpt lat="41.91621566666666" lon="12.603458833333333"><ele>34.0</ele><time>2026-04-18T17:52:19.14Z</time></trkpt><trkpt lat="41.916065333333336" lon="12.6031075"><ele>34.5</ele><time>2026-04-18T17:52:20.138Z</time></trkpt><trkpt lat="41.91592433333334" lon="12.602765833333335"><ele>35.0</ele><time>2026-04-18T17:52:21.137Z</time></trkpt><trkpt lat="41.91578416666666" lon="12.6024135"><ele>35.5</ele><time>2026-04-18T17:52:22.139Z</time></trkpt><trkpt lat="41.91564483333333" lon="12.6020525"><ele>36.0</ele><time>2026-04-18T17:52:23.141Z</time></trkpt><trkpt lat="41.915513499999996" lon="12.601704333333332"><ele>36.0</ele><time>2026-04-18T17:52:24.139Z</time></trkpt><trkpt lat="41.91538216666666" lon="12.601351"><ele>36.0</ele><time>2026-04-18T17:52:25.139Z</time></trkpt><trkpt lat="41.915251000000005" lon="12.600990500000002"><ele>36.0</ele><time>2026-04-18T17:52:26.14Z</time></trkpt><trkpt lat="41.91512666666666" lon="12.600642666666666"><ele>36.0</ele><time>2026-04-18T17:52:27.145Z</time></trkpt><trkpt lat="41.91500266666667" lon="12.600287833333335"><ele>36.0</ele><time>2026-04-18T17:52:28.139Z</time></trkpt><trkpt lat="41.914879333333324" lon="12.599923666666667"><ele>36.0</ele><time>2026-04-18T17:52:29.158Z</time></trkpt><trkpt lat="41.914750833333336" lon="12.599536666666665"><ele>35.5</ele><time>2026-04-18T17:52:30.161Z</time></trkpt><trkpt lat="41.914646499999996" lon="12.599216166666666"><ele>35.0</ele><time>2026-04-18T17:52:31.141Z</time></trkpt><trkpt lat="41.91453183333333" lon="12.598858666666668"><ele>35.0</ele><time>2026-04-18T17:52:32.137Z</time></trkpt><trkpt lat="41.91442116666667" lon="12.598502"><ele>35.0</ele><time>2026-04-18T17:52:33.14Z</time></trkpt><trkpt lat="41.914312333333335" lon="12.598145833333335"><ele>34.5</ele><time>2026-04-18T17:52:34.14Z</time></trkpt><trkpt lat="41.914203500000006" lon="12.597789833333332"><ele>34.0</ele><time>2026-04-18T17:52:35.14Z</time></trkpt><trkpt lat="41.914095166666655" lon="12.597432666666668"><ele>34.0</ele><time>2026-04-18T17:52:36.138Z</time></trkpt><trkpt lat="41.91398833333333" lon="12.597073166666666"><ele>34.0</ele><time>2026-04-18T17:52:37.14Z</time></trkpt><trkpt lat="41.91388250000001" lon="12.5967125"><ele>31.5</ele><time>2026-04-18T17:52:38.141Z</time></trkpt><trkpt lat="41.91377766666666" lon="12.596349833333333"><ele>29.0</ele><time>2026-04-18T17:52:39.141Z</time></trkpt><trkpt lat="41.9136735" lon="12.595986499999999"><ele>29.0</ele><time>2026-04-18T17:52:40.139Z</time></trkpt><trkpt lat="41.91357049999999" lon="12.595623666666667"><ele>29.0</ele><time>2026-04-18T17:52:41.14Z</time></trkpt><trkpt lat="41.913469" lon="12.595261999999998"><ele>27.5</ele><time>2026-04-18T17:52:42.14Z</time></trkpt><trkpt lat="41.913368000000006" lon="12.594900166666667"><ele>26.0</ele><time>2026-04-18T17:52:43.139Z</time></trkpt><trkpt lat="41.91326833333333" lon="12.594537333333335"><ele>26.0</ele><time>2026-04-18T17:52:44.139Z</time></trkpt><trkpt lat="41.91316983333333" lon="12.594173499999998"><ele>26.0</ele><time>2026-04-18T17:52:45.139Z</time></trkpt><trkpt lat="41.91307133333333" lon="12.593808166666669"><ele>26.5</ele><time>2026-04-18T17:52:46.143Z</time></trkpt><trkpt lat="41.912974166666665" lon="12.593441833333335"><ele>27.0</ele><time>2026-04-18T17:52:47.143Z</time></trkpt><trkpt lat="41.912879000000004" lon="12.5930735"><ele>26.5</ele><time>2026-04-18T17:52:48.14Z</time></trkpt><trkpt lat="41.91277650000001" lon="12.592667666666667"><ele>26.0</ele><time>2026-04-18T17:52:49.142Z</time></trkpt><trkpt lat="41.912683833333325" lon="12.592297833333335"><ele>27.0</ele><time>2026-04-18T17:52:50.141Z</time></trkpt><trkpt lat="41.91259216666667" lon="12.591928"><ele>28.0</ele><time>2026-04-18T17:52:51.14Z</time></trkpt><trkpt lat="41.91250149999999" lon="12.591558666666666"><ele>28.5</ele><time>2026-04-18T17:52:52.14Z</time></trkpt><trkpt lat="41.91241216666668" lon="12.591189666666667"><ele>29.0</ele><time>2026-04-18T17:52:53.139Z</time></trkpt><trkpt lat="41.912333000000004" lon="12.590856666666665"><ele>29.0</ele><time>2026-04-18T17:52:54.139Z</time></trkpt><trkpt lat="41.91223833333334" lon="12.590450500000001"><ele>29.0</ele><time>2026-04-18T17:52:55.141Z</time></trkpt><trkpt lat="41.912153999999994" lon="12.590080333333333"><ele>29.0</ele><time>2026-04-18T17:52:56.14Z</time></trkpt><trkpt lat="41.912071" lon="12.589709833333332"><ele>29.0</ele><time>2026-04-18T17:52:57.142Z</time></trkpt><trkpt lat="41.91199166666667" lon="12.589349666666665"><ele>29.5</ele><time>2026-04-18T17:52:58.14Z</time></trkpt><trkpt lat="41.91190933333334" lon="12.588969666666666"><ele>30.0</ele><time>2026-04-18T17:52:59.141Z</time></trkpt><trkpt lat="41.91183233333333" lon="12.588610000000001"><ele>30.5</ele><time>2026-04-18T17:53:00.144Z</time></trkpt><trkpt lat="41.91175450000001" lon="12.588239666666668"><ele>31.0</ele><time>2026-04-18T17:53:01.14Z</time></trkpt><trkpt lat="41.91167733333333" lon="12.587867999999999"><ele>30.0</ele><time>2026-04-18T17:53:02.137Z</time></trkpt><trkpt lat="41.91160150000001" lon="12.587499166666666"><ele>29.0</ele><time>2026-04-18T17:53:03.134Z</time></trkpt><trkpt lat="41.9115255" lon="12.58712983333333"><ele>28.5</ele><time>2026-04-18T17:53:04.141Z</time></trkpt><trkpt lat="41.9114475" lon="12.586761333333335"><ele>28.0</ele><time>2026-04-18T17:53:05.138Z</time></trkpt><trkpt lat="41.911368833333334" lon="12.586398"><ele>28.0</ele><time>2026-04-18T17:53:06.138Z</time></trkpt><trkpt lat="41.911289833333335" lon="12.586035833333336"><ele>28.0</ele><time>2026-04-18T17:53:07.14Z</time></trkpt><trkpt lat="41.911210166666656" lon="12.585680166666668"><ele>28.0</ele><time>2026-04-18T17:53:08.139Z</time></trkpt><trkpt lat="41.91113083333333" lon="12.585334166666668"><ele>28.0</ele><time>2026-04-18T17:53:09.139Z</time></trkpt><trkpt lat="41.91105116666666" lon="12.584991166666667"><ele>28.0</ele><time>2026-04-18T17:53:10.139Z</time></trkpt><trkpt lat="41.91097333333334" lon="12.584651000000001"><ele>28.0</ele><time>2026-04-18T17:53:11.141Z</time></trkpt><trkpt lat="41.910897999999996" lon="12.584319166666667"><ele>28.0</ele><time>2026-04-18T17:53:12.136Z</time></trkpt><trkpt lat="41.910827166666664" lon="12.583992166666667"><ele>28.0</ele><time>2026-04-18T17:53:13.144Z</time></trkpt><trkpt lat="41.9108" lon="12.583659333333332"><ele>28.0</ele><time>2026-04-18T17:53:14.139Z</time></trkpt><trkpt lat="41.910728166666665" lon="12.583348333333335"><ele>28.0</ele><time>2026-04-18T17:53:15.138Z</time></trkpt><trkpt lat="41.91066000000001" lon="12.583042166666667"><ele>29.0</ele><time>2026-04-18T17:53:16.14Z</time></trkpt><trkpt lat="41.91059449999999" lon="12.582738833333332"><ele>30.0</ele><time>2026-04-18T17:53:17.138Z</time></trkpt><trkpt lat="41.91056799999999" lon="12.582434"><ele>30.0</ele><time>2026-04-18T17:53:18.138Z</time></trkpt><trkpt lat="41.910497" lon="12.582145166666665"><ele>30.0</ele><time>2026-04-18T17:53:19.139Z</time></trkpt><trkpt lat="41.91042816666666" lon="12.581861"><ele>30.0</ele><time>2026-04-18T17:53:20.14Z</time></trkpt><trkpt lat="41.910363000000004" lon="12.58158416666667"><ele>30.0</ele><time>2026-04-18T17:53:21.14Z</time></trkpt><trkpt lat="41.91033016666667" lon="12.581302833333332"><ele>30.0</ele><time>2026-04-18T17:53:22.139Z</time></trkpt><trkpt lat="41.91025866666667" lon="12.581037833333335"><ele>30.0</ele><time>2026-04-18T17:53:23.139Z</time></trkpt><trkpt lat="41.91018866666667" lon="12.580780333333331"><ele>30.0</ele><time>2026-04-18T17:53:24.138Z</time></trkpt><trkpt lat="41.910151833333344" lon="12.580515166666665"><ele>30.0</ele><time>2026-04-18T17:53:25.14Z</time></trkpt><trkpt lat="41.91007983333334" lon="12.580265999999998"><ele>30.0</ele><time>2026-04-18T17:53:26.138Z</time></trkpt><trkpt lat="41.9100115" lon="12.580023833333334"><ele>30.666666666666664</ele><time>2026-04-18T17:53:27.143Z</time></trkpt><trkpt lat="41.9099445" lon="12.579781500000003"><ele>31.333333333333332</ele><time>2026-04-18T17:53:28.143Z</time></trkpt><trkpt lat="41.90987816666668" lon="12.579536833333336"><ele>32.0</ele><time>2026-04-18T17:53:29.142Z</time></trkpt><trkpt lat="41.90984149999999" lon="12.579281166666666"><ele>32.666666666666664</ele><time>2026-04-18T17:53:30.159Z</time></trkpt><trkpt lat="41.909766999999995" lon="12.5790335"><ele>33.333333333333336</ele><time>2026-04-18T17:53:31.144Z</time></trkpt><trkpt lat="41.90969166666667" lon="12.578777833333334"><ele>34.0</ele><time>2026-04-18T17:53:32.139Z</time></trkpt><trkpt lat="41.90961766666666" lon="12.578524499999999"><ele>34.0</ele><time>2026-04-18T17:53:33.14Z</time></trkpt><trkpt lat="41.90954583333334" lon="12.578270999999999"><ele>34.0</ele><time>2026-04-18T17:53:34.135Z</time></trkpt><trkpt lat="41.90947583333334" lon="12.578017833333334"><ele>34.0</ele><time>2026-04-18T17:53:35.138Z</time></trkpt><trkpt lat="41.90940783333334" lon="12.577770833333332"><ele>34.0</ele><time>2026-04-18T17:53:36.144Z</time></trkpt><trkpt lat="41.90934099999999" lon="12.577526166666667"><ele>34.0</ele><time>2026-04-18T17:53:37.139Z</time></trkpt><trkpt lat="41.90927549999999" lon="12.577284000000002"><ele>34.0</ele><time>2026-04-18T17:53:38.14Z</time></trkpt><trkpt lat="41.90921116666667" lon="12.577041999999997"><ele>33.66666666666667</ele><time>2026-04-18T17:53:39.14Z</time></trkpt><trkpt lat="41.909146666666665" lon="12.576798166666668"><ele>33.333333333333336</ele><time>2026-04-18T17:53:40.148Z</time></trkpt><trkpt lat="41.909079500000004" lon="12.576551333333335"><ele>33.0</ele><time>2026-04-18T17:53:41.147Z</time></trkpt><trkpt lat="41.90900966666666" lon="12.576301999999998"><ele>33.333333333333336</ele><time>2026-04-18T17:53:42.14Z</time></trkpt><trkpt lat="41.90893599999999" lon="12.576050666666665"><ele>33.66666666666667</ele><time>2026-04-18T17:53:43.143Z</time></trkpt><trkpt lat="41.90885816666667" lon="12.575801333333333"><ele>34.0</ele><time>2026-04-18T17:53:44.14Z</time></trkpt><trkpt lat="41.908776666666675" lon="12.575558333333333"><ele>34.66666666666667</ele><time>2026-04-18T17:53:45.14Z</time></trkpt><trkpt lat="41.908694333333344" lon="12.575323"><ele>35.333333333333336</ele><time>2026-04-18T17:53:46.138Z</time></trkpt><trkpt lat="41.90861116666667" lon="12.575095"><ele>36.0</ele><time>2026-04-18T17:53:47.142Z</time></trkpt><trkpt lat="41.908527666666664" lon="12.574873666666667"><ele>36.0</ele><time>2026-04-18T17:53:48.14Z</time></trkpt><trkpt lat="41.908444666666675" lon="12.574659"><ele>36.0</ele><time>2026-04-18T17:53:49.14Z</time></trkpt><trkpt lat="41.908361500000005" lon="12.574447833333332"><ele>36.0</ele><time>2026-04-18T17:53:50.139Z</time></trkpt><trkpt lat="41.90827666666667" lon="12.574235666666668"><ele>34.666666666666664</ele><time>2026-04-18T17:53:51.138Z</time></trkpt><trkpt lat="41.90819133333333" lon="12.574022666666666"><ele>33.33333333333333</ele><time>2026-04-18T17:53:52.135Z</time></trkpt><trkpt lat="41.90810533333334" lon="12.573811333333332"><ele>32.0</ele><time>2026-04-18T17:53:53.143Z</time></trkpt><trkpt lat="41.90801983333334" lon="12.573601"><ele>32.0</ele><time>2026-04-18T17:53:54.138Z</time></trkpt><trkpt lat="41.90793416666667" lon="12.573392999999998"><ele>32.0</ele><time>2026-04-18T17:53:55.139Z</time></trkpt><trkpt lat="41.90784699999999" lon="12.573180500000001"><ele>32.0</ele><time>2026-04-18T17:53:56.151Z</time></trkpt><trkpt lat="41.90776016666667" lon="12.572968666666668"><ele>31.666666666666664</ele><time>2026-04-18T17:53:57.143Z</time></trkpt><trkpt lat="41.90767433333333" lon="12.5727605"><ele>31.333333333333336</ele><time>2026-04-18T17:53:58.142Z</time></trkpt><trkpt lat="41.90759016666666" lon="12.572557666666667"><ele>31.0</ele><time>2026-04-18T17:53:59.135Z</time></trkpt><trkpt lat="41.90750716666667" lon="12.572359166666667"><ele>31.0</ele><time>2026-04-18T17:54:00.135Z</time></trkpt><trkpt lat="41.907426833333325" lon="12.572166833333332"><ele>31.0</ele><time>2026-04-18T17:54:01.137Z</time></trkpt><trkpt lat="41.90734933333333" lon="12.571980333333332"><ele>31.0</ele><time>2026-04-18T17:54:02.137Z</time></trkpt><trkpt lat="41.907273" lon="12.571795666666667"><ele>31.0</ele><time>2026-04-18T17:54:03.133Z</time></trkpt><trkpt lat="41.907197499999995" lon="12.571613333333335"><ele>31.0</ele><time>2026-04-18T17:54:04.139Z</time></trkpt><trkpt lat="41.90712400000001" lon="12.571435833333332"><ele>31.0</ele><time>2026-04-18T17:54:05.138Z</time></trkpt><trkpt lat="41.90704999999999" lon="12.571257333333332"><ele>32.0</ele><time>2026-04-18T17:54:06.14Z</time></trkpt><trkpt lat="41.906975833333334" lon="12.571080166666665"><ele>33.0</ele><time>2026-04-18T17:54:07.138Z</time></trkpt><trkpt lat="41.90690316666667" lon="12.570907833333335"><ele>34.0</ele><time>2026-04-18T17:54:08.139Z</time></trkpt><trkpt lat="41.906831833333335" lon="12.570736166666666"><ele>35.0</ele><time>2026-04-18T17:54:09.14Z</time></trkpt><trkpt lat="41.906762166666674" lon="12.570567333333335"><ele>33.5</ele><time>2026-04-18T17:54:10.138Z</time></trkpt><trkpt lat="41.906695000000006" lon="12.570403166666663"><ele>32.0</ele><time>2026-04-18T17:54:11.139Z</time></trkpt><trkpt lat="41.90663016666667" lon="12.570244333333335"><ele>30.5</ele><time>2026-04-18T17:54:12.137Z</time></trkpt><trkpt lat="41.90656616666667" lon="12.570087999999998"><ele>29.0</ele><time>2026-04-18T17:54:13.139Z</time></trkpt><trkpt lat="41.906503333333326" lon="12.569933166666665"><ele>28.25</ele><time>2026-04-18T17:54:14.137Z</time></trkpt><trkpt lat="41.906440499999995" lon="12.569776000000001"><ele>27.5</ele><time>2026-04-18T17:54:15.14Z</time></trkpt><trkpt lat="41.90637783333333" lon="12.569616833333336"><ele>26.75</ele><time>2026-04-18T17:54:16.138Z</time></trkpt><trkpt lat="41.90631583333334" lon="12.569458500000001"><ele>26.0</ele><time>2026-04-18T17:54:17.143Z</time></trkpt><trkpt lat="41.90625516666667" lon="12.569303666666668"><ele>26.0</ele><time>2026-04-18T17:54:18.14Z</time></trkpt><trkpt lat="41.90619533333333" lon="12.569151833333335"><ele>26.0</ele><time>2026-04-18T17:54:19.141Z</time></trkpt><trkpt lat="41.90613616666666" lon="12.569001166666666"><ele>26.0</ele><time>2026-04-18T17:54:20.139Z</time></trkpt><trkpt lat="41.90607816666667" lon="12.568853333333335"><ele>26.0</ele><time>2026-04-18T17:54:21.137Z</time></trkpt><trkpt lat="41.90601983333333" lon="12.568701833333334"><ele>26.5</ele><time>2026-04-18T17:54:22.139Z</time></trkpt><trkpt lat="41.905962166666654" lon="12.568549833333336"><ele>27.0</ele><time>2026-04-18T17:54:23.14Z</time></trkpt><trkpt lat="41.90590650000001" lon="12.568399666666668"><ele>27.5</ele><time>2026-04-18T17:54:24.143Z</time></trkpt><trkpt lat="41.90585216666666" lon="12.568250333333332"><ele>28.0</ele><time>2026-04-18T17:54:25.139Z</time></trkpt><trkpt lat="41.90579983333333" lon="12.568105"><ele>28.0</ele><time>2026-04-18T17:54:26.141Z</time></trkpt><trkpt lat="41.90574933333334" lon="12.567965333333333"><ele>28.0</ele><time>2026-04-18T17:54:27.14Z</time></trkpt><trkpt lat="41.9056985" lon="12.567825666666666"><ele>28.0</ele><time>2026-04-18T17:54:28.141Z</time></trkpt><trkpt lat="41.90565033333334" lon="12.567694333333336"><ele>28.0</ele><time>2026-04-18T17:54:29.143Z</time></trkpt><trkpt lat="41.9056" lon="12.56755766666667"><ele>28.25</ele><time>2026-04-18T17:54:30.159Z</time></trkpt><trkpt lat="41.90555183333333" lon="12.567426"><ele>28.5</ele><time>2026-04-18T17:54:31.142Z</time></trkpt><trkpt lat="41.90550366666666" lon="12.567290333333334"><ele>28.75</ele><time>2026-04-18T17:54:32.136Z</time></trkpt><trkpt lat="41.905455" lon="12.567152"><ele>29.0</ele><time>2026-04-18T17:54:33.139Z</time></trkpt><trkpt lat="41.90540616666667" lon="12.567012333333333"><ele>29.0</ele><time>2026-04-18T17:54:34.138Z</time></trkpt><trkpt lat="41.905359000000004" lon="12.566874833333333"><ele>29.0</ele><time>2026-04-18T17:54:35.139Z</time></trkpt><trkpt lat="41.90531049999999" lon="12.566730833333333"><ele>29.0</ele><time>2026-04-18T17:54:36.139Z</time></trkpt><trkpt lat="41.90526716666666" lon="12.566599833333331"><ele>29.0</ele><time>2026-04-18T17:54:37.14Z</time></trkpt><trkpt lat="41.90522599999999" lon="12.566472833333336"><ele>29.0</ele><time>2026-04-18T17:54:38.138Z</time></trkpt><trkpt lat="41.90519166666667" lon="12.566367333333334"><ele>28.999999999999996</ele><time>2026-04-18T17:54:39.139Z</time></trkpt><trkpt lat="41.905164500000005" lon="12.566284833333334"><ele>29.0</ele><time>2026-04-18T17:54:40.14Z</time></trkpt><trkpt lat="41.9051195" lon="12.566148333333334"><ele>29.0</ele><time>2026-04-18T17:54:42.138Z</time></trkpt><trkpt lat="41.905084833333326" lon="12.566043166666669"><ele>29.0</ele><time>2026-04-18T17:54:44.139Z</time></trkpt><trkpt lat="41.90505483333334" lon="12.56595"><ele>28.999999999999996</ele><time>2026-04-18T17:54:47.14Z</time></trkpt><trkpt lat="41.90501933333333" lon="12.565838833333332"><ele>29.0</ele><time>2026-04-18T17:54:55.141Z</time></trkpt><trkpt lat="41.904993" lon="12.565754833333335"><ele>28.799999999999997</ele><time>2026-04-18T17:54:57.14Z</time></trkpt><trkpt lat="41.90495366666667" lon="12.565629833333332"><ele>28.599999999999998</ele><time>2026-04-18T17:55:00.138Z</time></trkpt><trkpt lat="41.90491300000001" lon="12.565500166666668"><ele>28.4</ele><time>2026-04-18T17:55:02.138Z</time></trkpt><trkpt lat="41.904863999999996" lon="12.565344000000001"><ele>28.2</ele><time>2026-04-18T17:55:04.139Z</time></trkpt><trkpt lat="41.90483416666667" lon="12.565248333333333"><ele>28.0</ele><time>2026-04-18T17:55:05.148Z</time></trkpt><trkpt lat="41.90480333333333" lon="12.565148666666667"><ele>28.0</ele><time>2026-04-18T17:55:06.143Z</time></trkpt><trkpt lat="41.904771333333336" lon="12.565043"><ele>27.999999999999996</ele><time>2026-04-18T17:55:07.14Z</time></trkpt><trkpt lat="41.90473783333333" lon="12.564931000000001"><ele>27.999999999999996</ele><time>2026-04-18T17:55:08.138Z</time></trkpt><trkpt lat="41.90470366666667" lon="12.5648165"><ele>28.0</ele><time>2026-04-18T17:55:09.139Z</time></trkpt><trkpt lat="41.9046675" lon="12.564694999999999"><ele>28.0</ele><time>2026-04-18T17:55:10.139Z</time></trkpt><trkpt lat="41.90462983333334" lon="12.564569166666669"><ele>27.0</ele><time>2026-04-18T17:55:11.138Z</time></trkpt><trkpt lat="41.90459283333333" lon="12.564445333333333"><ele>25.999999999999996</ele><time>2026-04-18T17:55:12.137Z</time></trkpt><trkpt lat="41.9045555" lon="12.564318500000002"><ele>25.0</ele><time>2026-04-18T17:55:13.139Z</time></trkpt><trkpt lat="41.904518499999995" lon="12.564189833333334"><ele>24.0</ele><time>2026-04-18T17:55:14.137Z</time></trkpt><trkpt lat="41.90448333333334" lon="12.564064833333335"><ele>23.0</ele><time>2026-04-18T17:55:15.139Z</time></trkpt><trkpt lat="41.90444783333334" lon="12.563935333333331"><ele>23.0</ele><time>2026-04-18T17:55:16.139Z</time></trkpt><trkpt lat="41.90441166666666" lon="12.563802666666666"><ele>23.0</ele><time>2026-04-18T17:55:17.14Z</time></trkpt><trkpt lat="41.904376" lon="12.563670833333333"><ele>23.0</ele><time>2026-04-18T17:55:18.138Z</time></trkpt><trkpt lat="41.90433899999999" lon="12.563534666666666"><ele>23.0</ele><time>2026-04-18T17:55:19.139Z</time></trkpt><trkpt lat="41.904301000000004" lon="12.563394500000001"><ele>23.0</ele><time>2026-04-18T17:55:20.138Z</time></trkpt><trkpt lat="41.90426333333333" lon="12.563255833333335"><ele>23.75</ele><time>2026-04-18T17:55:21.139Z</time></trkpt><trkpt lat="41.904225" lon="12.563113500000002"><ele>24.5</ele><time>2026-04-18T17:55:22.138Z</time></trkpt><trkpt lat="41.904186333333335" lon="12.562968166666668"><ele>25.25</ele><time>2026-04-18T17:55:23.137Z</time></trkpt><trkpt lat="41.90414816666666" lon="12.562824166666667"><ele>26.0</ele><time>2026-04-18T17:55:24.139Z</time></trkpt><trkpt lat="41.904109333333324" lon="12.562676833333335"><ele>26.25</ele><time>2026-04-18T17:55:25.144Z</time></trkpt><trkpt lat="41.904069833333345" lon="12.562525"><ele>26.5</ele><time>2026-04-18T17:55:26.138Z</time></trkpt><trkpt lat="41.904030833333344" lon="12.562372333333332"><ele>26.75</ele><time>2026-04-18T17:55:27.138Z</time></trkpt><trkpt lat="41.90399133333333" lon="12.562214500000001"><ele>27.0</ele><time>2026-04-18T17:55:28.139Z</time></trkpt><trkpt lat="41.903951166666666" lon="12.562051"><ele>27.0</ele><time>2026-04-18T17:55:29.139Z</time></trkpt><trkpt lat="41.90391150000001" lon="12.56188683333333"><ele>27.0</ele><time>2026-04-18T17:55:30.148Z</time></trkpt><trkpt lat="41.90387066666668" lon="12.561716833333334"><ele>27.0</ele><time>2026-04-18T17:55:31.14Z</time></trkpt><trkpt lat="41.903828999999995" lon="12.561540833333334"><ele>27.0</ele><time>2026-04-18T17:55:32.139Z</time></trkpt><trkpt lat="41.90378666666667" lon="12.561357833333334"><ele>28.0</ele><time>2026-04-18T17:55:33.137Z</time></trkpt><trkpt lat="41.903743666666664" lon="12.561162666666666"><ele>29.0</ele><time>2026-04-18T17:55:34.139Z</time></trkpt><trkpt lat="41.9037005" lon="12.560958333333334"><ele>30.0</ele><time>2026-04-18T17:55:35.138Z</time></trkpt><trkpt lat="41.90365833333334" lon="12.560754333333334"><ele>30.0</ele><time>2026-04-18T17:55:36.138Z</time></trkpt><trkpt lat="41.903615499999994" lon="12.560543166666667"><ele>30.0</ele><time>2026-04-18T17:55:37.139Z</time></trkpt><trkpt lat="41.903572000000004" lon="12.560324666666668"><ele>30.0</ele><time>2026-04-18T17:55:38.141Z</time></trkpt><trkpt lat="41.90352766666666" lon="12.560099500000002"><ele>30.333333333333336</ele><time>2026-04-18T17:55:39.139Z</time></trkpt><trkpt lat="41.903483" lon="12.559870833333333"><ele>30.666666666666668</ele><time>2026-04-18T17:55:40.138Z</time></trkpt><trkpt lat="41.90343800000001" lon="12.5596395"><ele>31.0</ele><time>2026-04-18T17:55:41.136Z</time></trkpt><trkpt lat="41.903392333333336" lon="12.559406166666667"><ele>31.0</ele><time>2026-04-18T17:55:42.149Z</time></trkpt><trkpt lat="41.9033465" lon="12.559171666666668"><ele>31.0</ele><time>2026-04-18T17:55:43.148Z</time></trkpt><trkpt lat="41.90330049999999" lon="12.558935499999999"><ele>31.0</ele><time>2026-04-18T17:55:44.139Z</time></trkpt><trkpt lat="41.90325416666666" lon="12.558698666666666"><ele>31.0</ele><time>2026-04-18T17:55:45.139Z</time></trkpt><trkpt lat="41.90320783333333" lon="12.558461833333334"><ele>31.0</ele><time>2026-04-18T17:55:46.139Z</time></trkpt><trkpt lat="41.903163166666666" lon="12.558224666666668"><ele>31.0</ele><time>2026-04-18T17:55:47.15Z</time></trkpt><trkpt lat="41.90312016666666" lon="12.5579865"><ele>31.0</ele><time>2026-04-18T17:55:48.138Z</time></trkpt><trkpt lat="41.90307733333334" lon="12.557748166666666"><ele>31.0</ele><time>2026-04-18T17:55:49.141Z</time></trkpt><trkpt lat="41.90300266666666" lon="12.557522666666667"><ele>31.0</ele><time>2026-04-18T17:55:50.142Z</time></trkpt><trkpt lat="41.9029635" lon="12.5572555"><ele>30.333333333333336</ele><time>2026-04-18T17:55:51.152Z</time></trkpt><trkpt lat="41.90293083333333" lon="12.557032833333336"><ele>29.666666666666664</ele><time>2026-04-18T17:55:52.133Z</time></trkpt><trkpt lat="41.90289283333333" lon="12.556787166666666"><ele>29.0</ele><time>2026-04-18T17:55:53.14Z</time></trkpt><trkpt lat="41.90284983333333" lon="12.556518333333333"><ele>29.0</ele><time>2026-04-18T17:55:54.144Z</time></trkpt><trkpt lat="41.9028105" lon="12.556276333333335"><ele>29.0</ele><time>2026-04-18T17:55:55.151Z</time></trkpt><trkpt lat="41.902768833333326" lon="12.556024666666667"><ele>29.0</ele><time>2026-04-18T17:55:56.141Z</time></trkpt><trkpt lat="41.902688999999995" lon="12.555784000000001"><ele>29.333333333333332</ele><time>2026-04-18T17:55:57.147Z</time></trkpt><trkpt lat="41.90265599999999" lon="12.555529166666668"><ele>29.666666666666664</ele><time>2026-04-18T17:55:58.143Z</time></trkpt><trkpt lat="41.90261866666666" lon="12.55526616666667"><ele>30.0</ele><time>2026-04-18T17:55:59.14Z</time></trkpt><trkpt lat="41.90257866666668" lon="12.554999833333333"><ele>30.333333333333336</ele><time>2026-04-18T17:56:00.14Z</time></trkpt><trkpt lat="41.90253916666667" lon="12.554750000000002"><ele>30.666666666666668</ele><time>2026-04-18T17:56:01.143Z</time></trkpt><trkpt lat="41.90249633333333" lon="12.554493833333332"><ele>31.0</ele><time>2026-04-18T17:56:02.141Z</time></trkpt><trkpt lat="41.902412333333324" lon="12.554254500000003"><ele>31.333333333333336</ele><time>2026-04-18T17:56:03.139Z</time></trkpt><trkpt lat="41.90237749999999" lon="12.554005"><ele>31.666666666666664</ele><time>2026-04-18T17:56:04.141Z</time></trkpt><trkpt lat="41.90233783333333" lon="12.553751833333335"><ele>32.0</ele><time>2026-04-18T17:56:05.14Z</time></trkpt><trkpt lat="41.902294" lon="12.553497666666667"><ele>34.33333333333333</ele><time>2026-04-18T17:56:06.143Z</time></trkpt><trkpt lat="41.9022495" lon="12.553256666666668"><ele>36.666666666666664</ele><time>2026-04-18T17:56:07.142Z</time></trkpt><trkpt lat="41.90220066666668" lon="12.553010333333336"><ele>39.0</ele><time>2026-04-18T17:56:08.14Z</time></trkpt><trkpt lat="41.90214966666667" lon="12.552768333333331"><ele>40.666666666666664</ele><time>2026-04-18T17:56:09.147Z</time></trkpt><trkpt lat="41.90209566666667" lon="12.552528"><ele>42.33333333333333</ele><time>2026-04-18T17:56:10.139Z</time></trkpt><trkpt lat="41.902038" lon="12.552286333333333"><ele>44.0</ele><time>2026-04-18T17:56:11.14Z</time></trkpt><trkpt lat="41.901978166666666" lon="12.5520445"><ele>44.33333333333333</ele><time>2026-04-18T17:56:12.14Z</time></trkpt><trkpt lat="41.901915666666675" lon="12.551799166666669"><ele>44.666666666666664</ele><time>2026-04-18T17:56:13.142Z</time></trkpt><trkpt lat="41.90184966666668" lon="12.551551333333334"><ele>45.0</ele><time>2026-04-18T17:56:14.141Z</time></trkpt><trkpt lat="41.90173983333334" lon="12.551334"><ele>42.666666666666664</ele><time>2026-04-18T17:56:15.141Z</time></trkpt><trkpt lat="41.901676166666654" lon="12.551083166666666"><ele>40.33333333333333</ele><time>2026-04-18T17:56:16.143Z</time></trkpt><trkpt lat="41.901607500000004" lon="12.5508335"><ele>38.0</ele><time>2026-04-18T17:56:17.141Z</time></trkpt><trkpt lat="41.90153583333334" lon="12.550588000000001"><ele>38.666666666666664</ele><time>2026-04-18T17:56:18.145Z</time></trkpt><trkpt lat="41.901462" lon="12.550342666666664"><ele>39.333333333333336</ele><time>2026-04-18T17:56:19.148Z</time></trkpt><trkpt lat="41.9013875" lon="12.550096166666666"><ele>40.0</ele><time>2026-04-18T17:56:20.143Z</time></trkpt><trkpt lat="41.90127216666667" lon="12.549879500000001"><ele>40.0</ele><time>2026-04-18T17:56:21.14Z</time></trkpt><trkpt lat="41.901202" lon="12.549626166666668"><ele>40.0</ele><time>2026-04-18T17:56:22.145Z</time></trkpt><trkpt lat="41.901128166666666" lon="12.549372999999997"><ele>40.0</ele><time>2026-04-18T17:56:23.149Z</time></trkpt><trkpt lat="41.901052666666665" lon="12.549123999999999"><ele>39.66666666666667</ele><time>2026-04-18T17:56:24.144Z</time></trkpt><trkpt lat="41.9009755" lon="12.548877833333332"><ele>39.333333333333336</ele><time>2026-04-18T17:56:25.145Z</time></trkpt><trkpt lat="41.900898166666664" lon="12.548634166666666"><ele>39.0</ele><time>2026-04-18T17:56:26.144Z</time></trkpt><trkpt lat="41.90082233333333" lon="12.548394666666665"><ele>39.0</ele><time>2026-04-18T17:56:27.145Z</time></trkpt><trkpt lat="41.90074800000001" lon="12.548157"><ele>39.0</ele><time>2026-04-18T17:56:28.143Z</time></trkpt><trkpt lat="41.900675333333325" lon="12.547919666666667"><ele>39.0</ele><time>2026-04-18T17:56:29.146Z</time></trkpt><trkpt lat="41.900605666666664" lon="12.547685333333334"><ele>40.0</ele><time>2026-04-18T17:56:30.161Z</time></trkpt><trkpt lat="41.90053966666667" lon="12.547453833333336"><ele>41.0</ele><time>2026-04-18T17:56:31.149Z</time></trkpt><trkpt lat="41.90047666666666" lon="12.547224000000002"><ele>42.0</ele><time>2026-04-18T17:56:32.141Z</time></trkpt><trkpt lat="41.900415833333334" lon="12.546992333333332"><ele>42.0</ele><time>2026-04-18T17:56:33.145Z</time></trkpt><trkpt lat="41.90032516666667" lon="12.546773499999999"><ele>42.0</ele><time>2026-04-18T17:56:34.145Z</time></trkpt><trkpt lat="41.900277833333334" lon="12.546525666666666"><ele>42.0</ele><time>2026-04-18T17:56:35.143Z</time></trkpt><trkpt lat="41.900231333333345" lon="12.546279"><ele>41.666666666666664</ele><time>2026-04-18T17:56:36.152Z</time></trkpt><trkpt lat="41.900186500000004" lon="12.546028999999999"><ele>41.33333333333333</ele><time>2026-04-18T17:56:37.145Z</time></trkpt><trkpt lat="41.90014466666667" lon="12.545775833333336"><ele>41.0</ele><time>2026-04-18T17:56:38.145Z</time></trkpt><trkpt lat="41.90010683333333" lon="12.545525000000001"><ele>42.33333333333333</ele><time>2026-04-18T17:56:39.141Z</time></trkpt><trkpt lat="41.900073166666665" lon="12.545275833333333"><ele>43.666666666666664</ele><time>2026-04-18T17:56:40.149Z</time></trkpt><trkpt lat="41.90004283333333" lon="12.545027833333332"><ele>45.0</ele><time>2026-04-18T17:56:41.145Z</time></trkpt><trkpt lat="41.90001533333334" lon="12.544779166666666"><ele>44.333333333333336</ele><time>2026-04-18T17:56:42.148Z</time></trkpt><trkpt lat="41.899952" lon="12.544544666666665"><ele>43.66666666666667</ele><time>2026-04-18T17:56:43.146Z</time></trkpt><trkpt lat="41.899943" lon="12.544295833333335"><ele>43.0</ele><time>2026-04-18T17:56:44.144Z</time></trkpt><trkpt lat="41.89993416666666" lon="12.544051666666668"><ele>43.0</ele><time>2026-04-18T17:56:45.146Z</time></trkpt><trkpt lat="41.89992616666667" lon="12.543817833333334"><ele>43.0</ele><time>2026-04-18T17:56:46.146Z</time></trkpt><trkpt lat="41.89991866666666" lon="12.543594833333334"><ele>43.0</ele><time>2026-04-18T17:56:47.145Z</time></trkpt><trkpt lat="41.89991166666667" lon="12.543376166666668"><ele>42.333333333333336</ele><time>2026-04-18T17:56:48.146Z</time></trkpt><trkpt lat="41.89990433333334" lon="12.54316116666667"><ele>41.666666666666664</ele><time>2026-04-18T17:56:49.148Z</time></trkpt><trkpt lat="41.899853833333324" lon="12.542961833333335"><ele>41.0</ele><time>2026-04-18T17:56:50.145Z</time></trkpt><trkpt lat="41.899853" lon="12.542760999999999"><ele>41.0</ele><time>2026-04-18T17:56:51.147Z</time></trkpt><trkpt lat="41.89984833333333" lon="12.5425705"><ele>41.0</ele><time>2026-04-18T17:56:52.15Z</time></trkpt><trkpt lat="41.89983933333333" lon="12.542386500000001"><ele>41.0</ele><time>2026-04-18T17:56:53.152Z</time></trkpt><trkpt lat="41.89982816666667" lon="12.542210666666666"><ele>41.0</ele><time>2026-04-18T17:56:54.164Z</time></trkpt><trkpt lat="41.89981883333333" lon="12.542043166666668"><ele>41.25</ele><time>2026-04-18T17:56:55.149Z</time></trkpt><trkpt lat="41.89981566666667" lon="12.541881833333333"><ele>41.5</ele><time>2026-04-18T17:56:56.162Z</time></trkpt><trkpt lat="41.89982416666667" lon="12.5417205"><ele>41.75</ele><time>2026-04-18T17:56:57.147Z</time></trkpt><trkpt lat="41.899845000000006" lon="12.5415645"><ele>42.0</ele><time>2026-04-18T17:56:58.144Z</time></trkpt><trkpt lat="41.8998775" lon="12.541417333333333"><ele>42.0</ele><time>2026-04-18T17:56:59.146Z</time></trkpt><trkpt lat="41.89992183333334" lon="12.5412765"><ele>42.0</ele><time>2026-04-18T17:57:00.146Z</time></trkpt><trkpt lat="41.899977500000006" lon="12.541151166666669"><ele>42.0</ele><time>2026-04-18T17:57:01.143Z</time></trkpt><trkpt lat="41.90004633333333" lon="12.541054666666666"><ele>42.0</ele><time>2026-04-18T17:57:02.145Z</time></trkpt><trkpt lat="41.90012516666667" lon="12.540995000000002"><ele>42.0</ele><time>2026-04-18T17:57:03.146Z</time></trkpt><trkpt lat="41.90021" lon="12.540971166666669"><ele>42.0</ele><time>2026-04-18T17:57:04.146Z</time></trkpt><trkpt lat="41.90029137269089" lon="12.541009995370727"><ele>42.0</ele><time>2026-04-18T17:57:05.159Z</time></trkpt><trkpt lat="41.90037139918004" lon="12.541039209508407"><ele>42.0</ele><time>2026-04-18T17:57:06.145Z</time></trkpt><trkpt lat="41.90045314697543" lon="12.541075739127537"><ele>42.0</ele><time>2026-04-18T17:57:07.157Z</time></trkpt><trkpt lat="41.90060206961259" lon="12.541198456334094"><ele>42.0</ele><time>2026-04-18T17:57:09.146Z</time></trkpt><trkpt lat="41.90066298078199" lon="12.541293200466416"><ele>42.25</ele><time>2026-04-18T17:57:10.152Z</time></trkpt><trkpt lat="41.90072528316314" lon="12.541399156098633"><ele>42.5</ele><time>2026-04-18T17:57:11.145Z</time></trkpt><trkpt lat="41.90078601091477" lon="12.541502433997595"><ele>42.75</ele><time>2026-04-18T17:57:12.151Z</time></trkpt><trkpt lat="41.900915166666664" lon="12.541683666666666"><ele>43.0</ele><time>2026-04-18T17:57:14.143Z</time></trkpt><trkpt lat="41.9009775" lon="12.541795333333335"><ele>43.0</ele><time>2026-04-18T17:57:15.143Z</time></trkpt><trkpt lat="41.90104616666666" lon="12.541916333333331"><ele>43.0</ele><time>2026-04-18T17:57:16.148Z</time></trkpt><trkpt lat="41.9011175" lon="12.54204116666667"><ele>43.0</ele><time>2026-04-18T17:57:17.142Z</time></trkpt><trkpt lat="41.901192333333334" lon="12.542172833333332"><ele>43.0</ele><time>2026-04-18T17:57:18.146Z</time></trkpt><trkpt lat="41.90126583333334" lon="12.542302166666664"><ele>43.0</ele><time>2026-04-18T17:57:19.14Z</time></trkpt><trkpt lat="41.90133616666667" lon="12.542423666666664"><ele>43.0</ele><time>2026-04-18T17:57:20.146Z</time></trkpt><trkpt lat="41.901405000000004" lon="12.542542500000001"><ele>43.0</ele><time>2026-04-18T17:57:21.143Z</time></trkpt><trkpt lat="41.90147316666667" lon="12.542658500000002"><ele>43.0</ele><time>2026-04-18T17:57:22.147Z</time></trkpt><trkpt lat="41.901540000000004" lon="12.542770166666665"><ele>43.0</ele><time>2026-04-18T17:57:23.143Z</time></trkpt><trkpt lat="41.90160683333334" lon="12.542877166666663"><ele>42.8</ele><time>2026-04-18T17:57:24.145Z</time></trkpt><trkpt lat="41.90167700000001" lon="12.542968"><ele>42.599999999999994</ele><time>2026-04-18T17:57:25.147Z</time></trkpt><trkpt lat="41.90175583333333" lon="12.543034333333331"><ele>42.400000000000006</ele><time>2026-04-18T17:57:26.146Z</time></trkpt><trkpt lat="41.90184583333333" lon="12.543071000000001"><ele>42.2</ele><time>2026-04-18T17:57:27.152Z</time></trkpt><trkpt lat="41.90194100000001" lon="12.543066"><ele>42.0</ele><time>2026-04-18T17:57:28.144Z</time></trkpt><trkpt lat="41.90204383333333" lon="12.543064666666664"><ele>42.75</ele><time>2026-04-18T17:57:29.146Z</time></trkpt><trkpt lat="41.90215216666667" lon="12.543061499999999"><ele>43.5</ele><time>2026-04-18T17:57:30.16Z</time></trkpt><trkpt lat="41.902265" lon="12.543056000000002"><ele>44.25</ele><time>2026-04-18T17:57:31.15Z</time></trkpt><trkpt lat="41.90238283333333" lon="12.543047333333336"><ele>45.0</ele><time>2026-04-18T17:57:32.146Z</time></trkpt><trkpt lat="41.90250016666668" lon="12.543037666666665"><ele>45.2</ele><time>2026-04-18T17:57:33.154Z</time></trkpt><trkpt lat="41.902615" lon="12.543028833333336"><ele>45.4</ele><time>2026-04-18T17:57:34.14Z</time></trkpt><trkpt lat="41.902727999999996" lon="12.543020666666667"><ele>45.599999999999994</ele><time>2026-04-18T17:57:35.148Z</time></trkpt><trkpt lat="41.90283566666667" lon="12.543012833333334"><ele>45.8</ele><time>2026-04-18T17:57:36.141Z</time></trkpt><trkpt lat="41.90293516666667" lon="12.543006500000002"><ele>46.0</ele><time>2026-04-18T17:57:37.149Z</time></trkpt><trkpt lat="41.903039166666666" lon="12.543001"><ele>46.0</ele><time>2026-04-18T17:57:38.145Z</time></trkpt><trkpt lat="41.90313750000001" lon="12.542993999999998"><ele>46.0</ele><time>2026-04-18T17:57:39.144Z</time></trkpt><trkpt lat="41.903234999999995" lon="12.542985500000002"><ele>46.0</ele><time>2026-04-18T17:57:40.139Z</time></trkpt><trkpt lat="41.90333733333334" lon="12.542977"><ele>46.0</ele><time>2026-04-18T17:57:41.134Z</time></trkpt><trkpt lat="41.90344266666666" lon="12.542969000000001"><ele>46.0</ele><time>2026-04-18T17:57:42.15Z</time></trkpt><trkpt lat="41.903542833333326" lon="12.542963000000002"><ele>45.8</ele><time>2026-04-18T17:57:43.155Z</time></trkpt><trkpt lat="41.90364866666667" lon="12.542958833333334"><ele>45.599999999999994</ele><time>2026-04-18T17:57:44.154Z</time></trkpt><trkpt lat="41.90375900000001" lon="12.542956499999999"><ele>45.4</ele><time>2026-04-18T17:57:45.149Z</time></trkpt><trkpt lat="41.903867000000005" lon="12.5429545"><ele>45.2</ele><time>2026-04-18T17:57:46.151Z</time></trkpt><trkpt lat="41.90397983333334" lon="12.542952833333333"><ele>45.0</ele><time>2026-04-18T17:57:47.144Z</time></trkpt><trkpt lat="41.90409566666667" lon="12.542952333333336"><ele>45.0</ele><time>2026-04-18T17:57:48.141Z</time></trkpt><trkpt lat="41.904206666666674" lon="12.542953666666666"><ele>45.0</ele><time>2026-04-18T17:57:49.145Z</time></trkpt><trkpt lat="41.90432483333334" lon="12.542958500000003"><ele>45.0</ele><time>2026-04-18T17:57:50.143Z</time></trkpt><trkpt lat="41.90444833333333" lon="12.542966833333333"><ele>45.0</ele><time>2026-04-18T17:57:51.144Z</time></trkpt><trkpt lat="41.904568166666664" lon="12.542972"><ele>44.0</ele><time>2026-04-18T17:57:52.143Z</time></trkpt><trkpt lat="41.90469316666666" lon="12.542977833333333"><ele>43.0</ele><time>2026-04-18T17:57:53.145Z</time></trkpt><trkpt lat="41.904819333333336" lon="12.542984666666667"><ele>42.0</ele><time>2026-04-18T17:57:54.144Z</time></trkpt><trkpt lat="41.90494116666667" lon="12.542991166666665"><ele>41.0</ele><time>2026-04-18T17:57:55.152Z</time></trkpt><trkpt lat="41.905070499999994" lon="12.542997500000002"><ele>41.5</ele><time>2026-04-18T17:57:56.158Z</time></trkpt><trkpt lat="41.90519783333335" lon="12.543003166666665"><ele>42.0</ele><time>2026-04-18T17:57:57.148Z</time></trkpt><trkpt lat="41.90532466666667" lon="12.543007666666666"><ele>42.5</ele><time>2026-04-18T17:57:58.149Z</time></trkpt><trkpt lat="41.90544983333332" lon="12.543010499999998"><ele>43.0</ele><time>2026-04-18T17:57:59.143Z</time></trkpt><trkpt lat="41.90557066666668" lon="12.543013333333333"><ele>43.0</ele><time>2026-04-18T17:58:00.145Z</time></trkpt><trkpt lat="41.905691" lon="12.543016333333332"><ele>43.0</ele><time>2026-04-18T17:58:01.146Z</time></trkpt><trkpt lat="41.90581516666666" lon="12.5430195"><ele>43.0</ele><time>2026-04-18T17:58:02.144Z</time></trkpt><trkpt lat="41.90593983333333" lon="12.543023666666667"><ele>43.0</ele><time>2026-04-18T17:58:03.146Z</time></trkpt><trkpt lat="41.90606416666666" lon="12.543028666666665"><ele>43.25</ele><time>2026-04-18T17:58:04.143Z</time></trkpt><trkpt lat="41.906186999999996" lon="12.543032666666667"><ele>43.5</ele><time>2026-04-18T17:58:05.139Z</time></trkpt><trkpt lat="41.90630566666667" lon="12.543036166666665"><ele>43.75</ele><time>2026-04-18T17:58:06.14Z</time></trkpt><trkpt lat="41.90642283333333" lon="12.543040166666668"><ele>44.0</ele><time>2026-04-18T17:58:07.147Z</time></trkpt><trkpt lat="41.90653699999999" lon="12.543044333333334"><ele>44.0</ele><time>2026-04-18T17:58:08.154Z</time></trkpt><trkpt lat="41.9066475" lon="12.543048333333337"><ele>44.0</ele><time>2026-04-18T17:58:09.154Z</time></trkpt><trkpt lat="41.90675733333334" lon="12.543051166666665"><ele>44.0</ele><time>2026-04-18T17:58:10.141Z</time></trkpt><trkpt lat="41.906867666666656" lon="12.543053000000002"><ele>44.0</ele><time>2026-04-18T17:58:11.141Z</time></trkpt><trkpt lat="41.906974999999996" lon="12.543054666666666"><ele>44.0</ele><time>2026-04-18T17:58:12.135Z</time></trkpt><trkpt lat="41.90708049999999" lon="12.543053333333333"><ele>43.800000000000004</ele><time>2026-04-18T17:58:13.148Z</time></trkpt><trkpt lat="41.9071865" lon="12.543045"><ele>43.6</ele><time>2026-04-18T17:58:14.145Z</time></trkpt><trkpt lat="41.907292166666664" lon="12.5430295"><ele>43.4</ele><time>2026-04-18T17:58:15.146Z</time></trkpt><trkpt lat="41.907397666666675" lon="12.543010833333335"><ele>43.2</ele><time>2026-04-18T17:58:16.136Z</time></trkpt><trkpt lat="41.90750316666666" lon="12.542990333333334"><ele>43.0</ele><time>2026-04-18T17:58:17.136Z</time></trkpt><trkpt lat="41.90760433333333" lon="12.542969833333332"><ele>43.0</ele><time>2026-04-18T17:58:18.142Z</time></trkpt><trkpt lat="41.90770049999999" lon="12.542950000000001"><ele>43.0</ele><time>2026-04-18T17:58:19.136Z</time></trkpt><trkpt lat="41.907790000000006" lon="12.542931166666664"><ele>43.0</ele><time>2026-04-18T17:58:20.137Z</time></trkpt><trkpt lat="41.90787433333333" lon="12.542911"><ele>43.0</ele><time>2026-04-18T17:58:21.144Z</time></trkpt><trkpt lat="41.90795233333333" lon="12.542890333333332"><ele>43.0</ele><time>2026-04-18T17:58:22.152Z</time></trkpt><trkpt lat="41.90802233333334" lon="12.5428705"><ele>43.0</ele><time>2026-04-18T17:58:23.145Z</time></trkpt><trkpt lat="41.9081365" lon="12.542833333333332"><ele>41.66666666666667</ele><time>2026-04-18T17:58:25.145Z</time></trkpt><trkpt lat="41.90822333333334" lon="12.542803333333332"><ele>40.333333333333336</ele><time>2026-04-18T17:58:27.147Z</time></trkpt><trkpt lat="41.908286499999996" lon="12.5427815"><ele>39.0</ele><time>2026-04-18T17:58:33.151Z</time></trkpt><trkpt lat="41.90834933333334" lon="12.542758833333336"><ele>37.666666666666664</ele><time>2026-04-18T17:59:22.136Z</time></trkpt><trkpt lat="41.9084185" lon="12.542733166666668"><ele>36.33333333333333</ele><time>2026-04-18T17:59:25.147Z</time></trkpt><trkpt lat="41.90850316666666" lon="12.542699666666666"><ele>35.0</ele><time>2026-04-18T17:59:27.151Z</time></trkpt><trkpt lat="41.908582666666675" lon="12.542643833333333"><ele>34.6</ele><time>2026-04-18T17:59:29.146Z</time></trkpt><trkpt lat="41.908669363305236" lon="12.542562357569901"><ele>34.2</ele><time>2026-04-18T17:59:31.153Z</time></trkpt><trkpt lat="41.90871933333333" lon="12.542387666666665"><ele>33.8</ele><time>2026-04-18T17:59:33.141Z</time></trkpt><trkpt lat="41.90873516666667" lon="12.5422965"><ele>33.4</ele><time>2026-04-18T17:59:34.139Z</time></trkpt><trkpt lat="41.90872866666667" lon="12.542182500000001"><ele>33.0</ele><time>2026-04-18T17:59:35.138Z</time></trkpt><trkpt lat="41.90871833333334" lon="12.542066333333333"><ele>32.199999999999996</ele><time>2026-04-18T17:59:36.14Z</time></trkpt><trkpt lat="41.908709833333326" lon="12.541944499999998"><ele>31.4</ele><time>2026-04-18T17:59:37.138Z</time></trkpt><trkpt lat="41.90870266666668" lon="12.54181733333333"><ele>30.599999999999998</ele><time>2026-04-18T17:59:38.138Z</time></trkpt><trkpt lat="41.90869683333334" lon="12.541687333333334"><ele>29.799999999999997</ele><time>2026-04-18T17:59:39.142Z</time></trkpt><trkpt lat="41.90869183333333" lon="12.541559500000002"><ele>29.0</ele><time>2026-04-18T17:59:40.142Z</time></trkpt><trkpt lat="41.908686833333334" lon="12.541435666666665"><ele>28.999999999999996</ele><time>2026-04-18T17:59:41.14Z</time></trkpt><trkpt lat="41.908682166666665" lon="12.541315999999998"><ele>29.0</ele><time>2026-04-18T17:59:42.144Z</time></trkpt><trkpt lat="41.90867733333332" lon="12.541200833333335"><ele>29.0</ele><time>2026-04-18T17:59:43.14Z</time></trkpt><trkpt lat="41.908671999999996" lon="12.5410875"><ele>29.0</ele><time>2026-04-18T17:59:44.141Z</time></trkpt><trkpt lat="41.908666499999995" lon="12.540974333333335"><ele>28.999999999999996</ele><time>2026-04-18T17:59:45.143Z</time></trkpt><trkpt lat="41.908661" lon="12.540865166666666"><ele>29.0</ele><time>2026-04-18T17:59:46.142Z</time></trkpt><trkpt lat="41.90865566666667" lon="12.5407585"><ele>28.999999999999996</ele><time>2026-04-18T17:59:47.14Z</time></trkpt><trkpt lat="41.908650833333326" lon="12.540655"><ele>29.0</ele><time>2026-04-18T17:59:48.139Z</time></trkpt><trkpt lat="41.908646499999996" lon="12.540556166666665"><ele>29.0</ele><time>2026-04-18T17:59:49.146Z</time></trkpt><trkpt lat="41.90864249999999" lon="12.540467333333332"><ele>29.0</ele><time>2026-04-18T17:59:50.139Z</time></trkpt><trkpt lat="41.90863683333333" lon="12.540329666666665"><ele>28.999999999999996</ele><time>2026-04-18T17:59:52.141Z</time></trkpt><trkpt lat="41.90863266666667" lon="12.540244833333334"><ele>29.0</ele><time>2026-04-18T17:59:54.142Z</time></trkpt><trkpt lat="41.90862683333333" lon="12.540139833333333"><ele>29.833333333333332</ele><time>2026-04-18T18:00:09.142Z</time></trkpt><trkpt lat="41.908621333333336" lon="12.540033666666668"><ele>30.666666666666664</ele><time>2026-04-18T18:00:11.137Z</time></trkpt><trkpt lat="41.90861616666666" lon="12.539906499999999"><ele>31.5</ele><time>2026-04-18T18:00:13.141Z</time></trkpt><trkpt lat="41.90861083333333" lon="12.539754999999998"><ele>32.333333333333336</ele><time>2026-04-18T18:00:15.144Z</time></trkpt><trkpt lat="41.90860800000001" lon="12.539669166666664"><ele>33.16666666666667</ele><time>2026-04-18T18:00:16.143Z</time></trkpt><trkpt lat="41.908605" lon="12.539582166666666"><ele>34.0</ele><time>2026-04-18T18:00:17.137Z</time></trkpt><trkpt lat="41.90860216666666" lon="12.539488666666667"><ele>35.0</ele><time>2026-04-18T18:00:18.139Z</time></trkpt><trkpt lat="41.908599666666674" lon="12.539394833333331"><ele>36.0</ele><time>2026-04-18T18:00:19.139Z</time></trkpt><trkpt lat="41.90859766666667" lon="12.539302833333334"><ele>37.0</ele><time>2026-04-18T18:00:20.142Z</time></trkpt><trkpt lat="41.90859650000001" lon="12.539211166666666"><ele>38.0</ele><time>2026-04-18T18:00:21.136Z</time></trkpt><trkpt lat="41.908595166666665" lon="12.539124666666664"><ele>39.0</ele><time>2026-04-18T18:00:22.143Z</time></trkpt><trkpt lat="41.908590333333336" lon="12.538966"><ele>40.0</ele><time>2026-04-18T18:00:24.147Z</time></trkpt><trkpt lat="41.90858466666667" lon="12.538799500000001"><ele>40.75</ele><time>2026-04-18T18:00:26.146Z</time></trkpt><trkpt lat="41.908578999999996" lon="12.5386345"><ele>41.5</ele><time>2026-04-18T18:00:28.143Z</time></trkpt><trkpt lat="41.90857250000001" lon="12.538475666666667"><ele>42.25</ele><time>2026-04-18T18:00:30.152Z</time></trkpt><trkpt lat="41.90856616666667" lon="12.538324666666666"><ele>43.0</ele><time>2026-04-18T18:00:32.147Z</time></trkpt><trkpt lat="41.908559499999996" lon="12.538174"><ele>43.0</ele><time>2026-04-18T18:00:34.143Z</time></trkpt><trkpt lat="41.90855100000001" lon="12.538016333333333"><ele>43.0</ele><time>2026-04-18T18:00:36.145Z</time></trkpt><trkpt lat="41.90853966666667" lon="12.53785816666667"><ele>43.0</ele><time>2026-04-18T18:00:38.146Z</time></trkpt><trkpt lat="41.908533333333324" lon="12.537774000000002"><ele>43.0</ele><time>2026-04-18T18:00:39.145Z</time></trkpt><trkpt lat="41.90852233333334" lon="12.537604500000002"><ele>43.0</ele><time>2026-04-18T18:00:41.145Z</time></trkpt><trkpt lat="41.90851800000001" lon="12.537515666666666"><ele>42.0</ele><time>2026-04-18T18:00:42.149Z</time></trkpt><trkpt lat="41.90851033333333" lon="12.53735"><ele>41.0</ele><time>2026-04-18T18:00:44.144Z</time></trkpt><trkpt lat="41.908503666666675" lon="12.53720966666667"><ele>40.0</ele><time>2026-04-18T18:00:46.14Z</time></trkpt><trkpt lat="41.908499666666664" lon="12.53710766666667"><ele>39.0</ele><time>2026-04-18T18:00:49.147Z</time></trkpt><trkpt lat="41.90849333333334" lon="12.536999500000002"><ele>38.0</ele><time>2026-04-18T18:00:52.144Z</time></trkpt><trkpt lat="41.90848433333334" lon="12.536871"><ele>38.0</ele><time>2026-04-18T18:00:54.141Z</time></trkpt><trkpt lat="41.908472499999995" lon="12.536714666666667"><ele>38.0</ele><time>2026-04-18T18:00:56.15Z</time></trkpt><trkpt lat="41.90846583333334" lon="12.536625166666665"><ele>38.0</ele><time>2026-04-18T18:00:57.141Z</time></trkpt><trkpt lat="41.90845833333333" lon="12.536533999999998"><ele>38.0</ele><time>2026-04-18T18:00:58.148Z</time></trkpt><trkpt lat="41.90844966666667" lon="12.536437333333334"><ele>38.0</ele><time>2026-04-18T18:00:59.147Z</time></trkpt><trkpt lat="41.908441333333336" lon="12.536345500000001"><ele>38.0</ele><time>2026-04-18T18:01:00.147Z</time></trkpt><trkpt lat="41.908428666666666" lon="12.536201"><ele>38.0</ele><time>2026-04-18T18:01:02.145Z</time></trkpt><trkpt lat="41.90842066666668" lon="12.536107333333332"><ele>38.0</ele><time>2026-04-18T18:01:05.148Z</time></trkpt><trkpt lat="41.90841266666667" lon="12.5360205"><ele>38.0</ele><time>2026-04-18T18:01:18.151Z</time></trkpt><trkpt lat="41.90840183333333" lon="12.535898666666666"><ele>38.0</ele><time>2026-04-18T18:01:20.144Z</time></trkpt><trkpt lat="41.908388" lon="12.535746833333334"><ele>38.0</ele><time>2026-04-18T18:01:22.152Z</time></trkpt><trkpt lat="41.90838" lon="12.535655833333333"><ele>38.0</ele><time>2026-04-18T18:01:23.15Z</time></trkpt><trkpt lat="41.90837033333334" lon="12.535542666666666"><ele>38.0</ele><time>2026-04-18T18:01:24.16Z</time></trkpt><trkpt lat="41.90835783333333" lon="12.535444833333333"><ele>38.0</ele><time>2026-04-18T18:01:25.148Z</time></trkpt><trkpt lat="41.90834483333333" lon="12.535330833333335"><ele>38.0</ele><time>2026-04-18T18:01:26.139Z</time></trkpt><trkpt lat="41.90833266666667" lon="12.535213833333334"><ele>38.0</ele><time>2026-04-18T18:01:27.147Z</time></trkpt><trkpt lat="41.908323" lon="12.535094833333334"><ele>38.0</ele><time>2026-04-18T18:01:28.146Z</time></trkpt><trkpt lat="41.90831766666667" lon="12.534975166666667"><ele>38.0</ele><time>2026-04-18T18:01:29.148Z</time></trkpt><trkpt lat="41.90831416666666" lon="12.534857499999998"><ele>36.4</ele><time>2026-04-18T18:01:30.146Z</time></trkpt><trkpt lat="41.90831133333333" lon="12.534740833333334"><ele>34.8</ele><time>2026-04-18T18:01:31.146Z</time></trkpt><trkpt lat="41.90831016666666" lon="12.534622166666669"><ele>33.2</ele><time>2026-04-18T18:01:32.14Z</time></trkpt><trkpt lat="41.90830916666667" lon="12.534507"><ele>31.6</ele><time>2026-04-18T18:01:33.142Z</time></trkpt><trkpt lat="41.90830716666666" lon="12.534378666666665"><ele>30.0</ele><time>2026-04-18T18:01:34.146Z</time></trkpt><trkpt lat="41.90830566666667" lon="12.534248333333336"><ele>29.0</ele><time>2026-04-18T18:01:35.144Z</time></trkpt><trkpt lat="41.90830333333333" lon="12.534093166666667"><ele>28.0</ele><time>2026-04-18T18:01:36.15Z</time></trkpt><trkpt lat="41.908302" lon="12.533968333333334"><ele>27.0</ele><time>2026-04-18T18:01:37.155Z</time></trkpt><trkpt lat="41.9083015" lon="12.533811833333333"><ele>26.0</ele><time>2026-04-18T18:01:38.15Z</time></trkpt><trkpt lat="41.90830183333334" lon="12.533667833333334"><ele>25.0</ele><time>2026-04-18T18:01:39.15Z</time></trkpt><trkpt lat="41.908302666666664" lon="12.533524499999999"><ele>24.8</ele><time>2026-04-18T18:01:40.15Z</time></trkpt><trkpt lat="41.90830333333333" lon="12.533402"><ele>24.6</ele><time>2026-04-18T18:01:41.157Z</time></trkpt><trkpt lat="41.908303999999994" lon="12.533248333333333"><ele>24.4</ele><time>2026-04-18T18:01:42.151Z</time></trkpt><trkpt lat="41.908304666666666" lon="12.533110166666665"><ele>24.2</ele><time>2026-04-18T18:01:43.15Z</time></trkpt><trkpt lat="41.908305999999996" lon="12.532966166666665"><ele>24.0</ele><time>2026-04-18T18:01:44.147Z</time></trkpt><trkpt lat="41.90830733333333" lon="12.532813500000001"><ele>23.75</ele><time>2026-04-18T18:01:45.148Z</time></trkpt><trkpt lat="41.90830833333332" lon="12.532654500000001"><ele>23.5</ele><time>2026-04-18T18:01:46.147Z</time></trkpt><trkpt lat="41.908308999999996" lon="12.532490666666668"><ele>23.25</ele><time>2026-04-18T18:01:47.147Z</time></trkpt><trkpt lat="41.908309666666675" lon="12.532322666666667"><ele>23.0</ele><time>2026-04-18T18:01:48.147Z</time></trkpt><trkpt lat="41.90831166666667" lon="12.532151833333334"><ele>24.75</ele><time>2026-04-18T18:01:49.153Z</time></trkpt><trkpt lat="41.90831583333333" lon="12.531978333333333"><ele>26.5</ele><time>2026-04-18T18:01:50.147Z</time></trkpt><trkpt lat="41.908326833333334" lon="12.531806"><ele>28.25</ele><time>2026-04-18T18:01:51.152Z</time></trkpt><trkpt lat="41.90834433333333" lon="12.531631833333332"><ele>30.0</ele><time>2026-04-18T18:01:52.146Z</time></trkpt><trkpt lat="41.90836633333333" lon="12.531454333333333"><ele>30.0</ele><time>2026-04-18T18:01:53.155Z</time></trkpt><trkpt lat="41.90838999999999" lon="12.531275500000001"><ele>30.0</ele><time>2026-04-18T18:01:54.146Z</time></trkpt><trkpt lat="41.908415" lon="12.531095999999998"><ele>30.0</ele><time>2026-04-18T18:01:55.148Z</time></trkpt><trkpt lat="41.90844233333333" lon="12.530905333333331"><ele>30.0</ele><time>2026-04-18T18:01:56.151Z</time></trkpt><trkpt lat="41.90847000000001" lon="12.530715833333332"><ele>29.0</ele><time>2026-04-18T18:01:57.143Z</time></trkpt><trkpt lat="41.908499666666664" lon="12.530519"><ele>28.0</ele><time>2026-04-18T18:01:58.15Z</time></trkpt><trkpt lat="41.90853033333333" lon="12.530319999999998"><ele>27.0</ele><time>2026-04-18T18:01:59.143Z</time></trkpt><trkpt lat="41.90856000000001" lon="12.530124666666666"><ele>26.0</ele><time>2026-04-18T18:02:00.145Z</time></trkpt><trkpt lat="41.90858716666667" lon="12.529937166666665"><ele>26.0</ele><time>2026-04-18T18:02:01.156Z</time></trkpt><trkpt lat="41.9086125" lon="12.5297585"><ele>26.0</ele><time>2026-04-18T18:02:02.145Z</time></trkpt><trkpt lat="41.908637666666664" lon="12.529588333333335"><ele>26.0</ele><time>2026-04-18T18:02:03.142Z</time></trkpt><trkpt lat="41.90863930312589" lon="12.529425851081196"><ele>26.0</ele><time>2026-04-18T18:02:04.142Z</time></trkpt><trkpt lat="41.90865618538686" lon="12.529279598362303"><ele>25.666666666666664</ele><time>2026-04-18T18:02:05.149Z</time></trkpt><trkpt lat="41.90869333333333" lon="12.5291455"><ele>25.333333333333332</ele><time>2026-04-18T18:02:06.14Z</time></trkpt><trkpt lat="41.90870233333333" lon="12.529025500000001"><ele>25.0</ele><time>2026-04-18T18:02:07.141Z</time></trkpt><trkpt lat="41.908707333333325" lon="12.528925"><ele>24.666666666666664</ele><time>2026-04-18T18:02:08.144Z</time></trkpt><trkpt lat="41.908709" lon="12.528838333333333"><ele>24.333333333333332</ele><time>2026-04-18T18:02:09.141Z</time></trkpt><trkpt lat="41.90870966666667" lon="12.528736333333333"><ele>24.0</ele><time>2026-04-18T18:02:11.144Z</time></trkpt><trkpt lat="41.9087095" lon="12.528649"><ele>24.0</ele><time>2026-04-18T18:02:24.14Z</time></trkpt><trkpt lat="41.908708" lon="12.528539166666667"><ele>24.0</ele><time>2026-04-18T18:02:28.142Z</time></trkpt><trkpt lat="41.908705833333336" lon="12.528420333333335"><ele>24.0</ele><time>2026-04-18T18:02:31.145Z</time></trkpt><trkpt lat="41.908703166666655" lon="12.528312166666668"><ele>24.0</ele><time>2026-04-18T18:02:34.142Z</time></trkpt><trkpt lat="41.908700333333336" lon="12.528196666666668"><ele>24.0</ele><time>2026-04-18T18:02:36.145Z</time></trkpt><trkpt lat="41.90865672606096" lon="12.528132943720626"><ele>24.0</ele><time>2026-04-18T18:02:37.146Z</time></trkpt><trkpt lat="41.908652823587076" lon="12.528016189906904"><ele>24.0</ele><time>2026-04-18T18:02:39.143Z</time></trkpt><trkpt lat="41.90864827177461" lon="12.527913286496826"><ele>24.0</ele><time>2026-04-18T18:02:41.144Z</time></trkpt><trkpt lat="41.90864407200428" lon="12.527818341968239"><ele>24.0</ele><time>2026-04-18T18:02:43.144Z</time></trkpt><trkpt lat="41.908639571050294" lon="12.527716587981422"><ele>24.0</ele><time>2026-04-18T18:02:45.152Z</time></trkpt><trkpt lat="41.90863433290878" lon="12.527612809938415"><ele>24.0</ele><time>2026-04-18T18:02:47.146Z</time></trkpt><trkpt lat="41.90862706415204" lon="12.527514514468582"><ele>24.0</ele><time>2026-04-18T18:02:49.149Z</time></trkpt><trkpt lat="41.908617376480954" lon="12.527409482166183"><ele>24.0</ele><time>2026-04-18T18:02:51.142Z</time></trkpt><trkpt lat="41.90860965635299" lon="12.527300932852764"><ele>24.0</ele><time>2026-04-18T18:02:53.141Z</time></trkpt><trkpt lat="41.90865683333333" lon="12.527150666666667"><ele>24.0</ele><time>2026-04-18T18:02:55.143Z</time></trkpt><trkpt lat="41.9086525" lon="12.526997833333333"><ele>24.0</ele><time>2026-04-18T18:02:57.141Z</time></trkpt><trkpt lat="41.90865033333333" lon="12.526912166666667"><ele>24.0</ele><time>2026-04-18T18:02:58.145Z</time></trkpt><trkpt lat="41.90864816666667" lon="12.526824333333332"><ele>24.0</ele><time>2026-04-18T18:02:59.144Z</time></trkpt><trkpt lat="41.908646" lon="12.526732166666667"><ele>24.6</ele><time>2026-04-18T18:03:00.144Z</time></trkpt><trkpt lat="41.90864366666666" lon="12.526641"><ele>25.2</ele><time>2026-04-18T18:03:01.159Z</time></trkpt><trkpt lat="41.908638333333336" lon="12.526480000000001"><ele>25.800000000000004</ele><time>2026-04-18T18:03:03.146Z</time></trkpt><trkpt lat="41.90863216666666" lon="12.526326833333332"><ele>26.400000000000002</ele><time>2026-04-18T18:03:05.146Z</time></trkpt><trkpt lat="41.908623999999996" lon="12.526159833333335"><ele>27.0</ele><time>2026-04-18T18:03:07.145Z</time></trkpt><trkpt lat="41.908615999999995" lon="12.525997166666665"><ele>27.0</ele><time>2026-04-18T18:03:09.147Z</time></trkpt><trkpt lat="41.908609" lon="12.525856166666665"><ele>27.0</ele><time>2026-04-18T18:03:11.144Z</time></trkpt><trkpt lat="41.9086025" lon="12.5257375"><ele>27.0</ele><time>2026-04-18T18:03:13.145Z</time></trkpt><trkpt lat="41.90859766666667" lon="12.525635166666666"><ele>27.0</ele><time>2026-04-18T18:03:15.137Z</time></trkpt><trkpt lat="41.90859483333334" lon="12.525550166666669"><ele>27.0</ele><time>2026-04-18T18:03:17.136Z</time></trkpt><trkpt lat="41.90859183333334" lon="12.525447999999999"><ele>27.0</ele><time>2026-04-18T18:03:20.135Z</time></trkpt><trkpt lat="41.90858883333333" lon="12.525338166666666"><ele>27.5</ele><time>2026-04-18T18:03:24.145Z</time></trkpt><trkpt lat="41.90858599999999" lon="12.52525016666667"><ele>28.0</ele><time>2026-04-18T18:03:32.14Z</time></trkpt><trkpt lat="41.908580833333325" lon="12.525142000000002"><ele>28.5</ele><time>2026-04-18T18:03:37.141Z</time></trkpt><trkpt lat="41.908579333333336" lon="12.525048"><ele>29.0</ele><time>2026-04-18T18:03:39.143Z</time></trkpt><trkpt lat="41.90858133333332" lon="12.524938666666666"><ele>29.5</ele><time>2026-04-18T18:03:41.141Z</time></trkpt><trkpt lat="41.90858816666667" lon="12.524811833333334"><ele>30.0</ele><time>2026-04-18T18:03:43.143Z</time></trkpt><trkpt lat="41.908599833333334" lon="12.524684666666667"><ele>30.8</ele><time>2026-04-18T18:03:45.141Z</time></trkpt><trkpt lat="41.90861666666667" lon="12.524554166666668"><ele>31.6</ele><time>2026-04-18T18:03:47.139Z</time></trkpt><trkpt lat="41.90863933333333" lon="12.524395499999999"><ele>32.4</ele><time>2026-04-18T18:03:49.142Z</time></trkpt><trkpt lat="41.9086525" lon="12.524309166666669"><ele>33.2</ele><time>2026-04-18T18:03:50.138Z</time></trkpt><trkpt lat="41.9086675" lon="12.5242195"><ele>34.0</ele><time>2026-04-18T18:03:51.143Z</time></trkpt><trkpt lat="41.908698833333325" lon="12.524066333333334"><ele>34.0</ele><time>2026-04-18T18:03:53.143Z</time></trkpt><trkpt lat="41.908725000000004" lon="12.523951499999999"><ele>34.0</ele><time>2026-04-18T18:03:55.146Z</time></trkpt><trkpt lat="41.908751166666654" lon="12.523841166666667"><ele>34.0</ele><time>2026-04-18T18:03:57.147Z</time></trkpt><trkpt lat="41.90878483333332" lon="12.523709"><ele>34.0</ele><time>2026-04-18T18:03:59.146Z</time></trkpt><trkpt lat="41.90882366666666" lon="12.523564333333335"><ele>34.0</ele><time>2026-04-18T18:04:01.154Z</time></trkpt><trkpt lat="41.908864166666675" lon="12.523413666666666"><ele>35.0</ele><time>2026-04-18T18:04:03.144Z</time></trkpt><trkpt lat="41.90890383333334" lon="12.523278666666664"><ele>36.0</ele><time>2026-04-18T18:04:05.149Z</time></trkpt><trkpt lat="41.90893733333334" lon="12.523157666666668"><ele>37.0</ele><time>2026-04-18T18:04:07.145Z</time></trkpt><trkpt lat="41.90897116666667" lon="12.523029"><ele>38.0</ele><time>2026-04-18T18:04:09.143Z</time></trkpt><trkpt lat="41.90901283333333" lon="12.522863500000001"><ele>39.0</ele><time>2026-04-18T18:04:11.137Z</time></trkpt><trkpt lat="41.909042500000005" lon="12.522766666666666"><ele>39.5</ele><time>2026-04-18T18:04:12.138Z</time></trkpt><trkpt lat="41.90905366666666" lon="12.522661999999999"><ele>40.0</ele><time>2026-04-18T18:04:13.142Z</time></trkpt><trkpt lat="41.90908266666667" lon="12.522572166666665"><ele>40.5</ele><time>2026-04-18T18:04:14.145Z</time></trkpt><trkpt lat="41.909109" lon="12.522491666666667"><ele>41.0</ele><time>2026-04-18T18:04:15.145Z</time></trkpt><trkpt lat="41.90913966666667" lon="12.522358000000002"><ele>41.5</ele><time>2026-04-18T18:04:17.144Z</time></trkpt><trkpt lat="41.90916683333333" lon="12.522251833333334"><ele>42.0</ele><time>2026-04-18T18:04:19.151Z</time></trkpt><trkpt lat="41.90919583333333" lon="12.522172499999998"><ele>42.0</ele><time>2026-04-18T18:04:21.145Z</time></trkpt><trkpt lat="41.909218499999994" lon="12.522079166666666"><ele>42.0</ele><time>2026-04-18T18:04:25.153Z</time></trkpt><trkpt lat="41.909244333333326" lon="12.521987999999999"><ele>42.0</ele><time>2026-04-18T18:04:29.144Z</time></trkpt><trkpt lat="41.90927150000001" lon="12.521888666666667"><ele>42.0</ele><time>2026-04-18T18:04:35.144Z</time></trkpt><trkpt lat="41.909295166666666" lon="12.5217955"><ele>42.0</ele><time>2026-04-18T18:04:38.148Z</time></trkpt><trkpt lat="41.909315666666664" lon="12.521715166666668"><ele>42.0</ele><time>2026-04-18T18:04:48.148Z</time></trkpt><trkpt lat="41.90933983333333" lon="12.521619500000002"><ele>42.0</ele><time>2026-04-18T18:04:54.149Z</time></trkpt><trkpt lat="41.90937066666667" lon="12.521519499999998"><ele>42.666666666666664</ele><time>2026-04-18T18:04:57.156Z</time></trkpt><trkpt lat="41.909412499999995" lon="12.521438333333334"><ele>43.333333333333336</ele><time>2026-04-18T18:04:59.138Z</time></trkpt><trkpt lat="41.90948166666667" lon="12.521357333333333"><ele>44.0</ele><time>2026-04-18T18:05:01.158Z</time></trkpt><trkpt lat="41.909562553379274" lon="12.521289698611799"><ele>44.66666666666667</ele><time>2026-04-18T18:05:03.145Z</time></trkpt><trkpt lat="41.90957950000001" lon="12.521163333333334"><ele>45.333333333333336</ele><time>2026-04-18T18:05:05.138Z</time></trkpt><trkpt lat="41.90957449999999" lon="12.521043666666667"><ele>46.0</ele><time>2026-04-18T18:05:07.135Z</time></trkpt><trkpt lat="41.909538787606024" lon="12.520958202935903"><ele>46.0</ele><time>2026-04-18T18:05:09.143Z</time></trkpt><trkpt lat="41.90956599999999" lon="12.520812499999998"><ele>46.0</ele><time>2026-04-18T18:05:12.136Z</time></trkpt><trkpt lat="41.9095825" lon="12.520699000000002"><ele>46.0</ele><time>2026-04-18T18:05:14.145Z</time></trkpt><trkpt lat="41.90960333333334" lon="12.520571666666667"><ele>46.0</ele><time>2026-04-18T18:05:16.143Z</time></trkpt><trkpt lat="41.909637499999995" lon="12.520437"><ele>46.0</ele><time>2026-04-18T18:05:18.147Z</time></trkpt><trkpt lat="41.90967049999999" lon="12.520307333333335"><ele>46.0</ele><time>2026-04-18T18:05:20.148Z</time></trkpt><trkpt lat="41.909702" lon="12.520167166666665"><ele>46.0</ele><time>2026-04-18T18:05:22.142Z</time></trkpt><trkpt lat="41.90974316666667" lon="12.520055166666667"><ele>46.0</ele><time>2026-04-18T18:05:24.146Z</time></trkpt><trkpt lat="41.909774500000005" lon="12.519961166666667"><ele>46.0</ele><time>2026-04-18T18:05:27.143Z</time></trkpt><trkpt lat="41.909796333333325" lon="12.519875166666667"><ele>46.0</ele><time>2026-04-18T18:05:35.142Z</time></trkpt><trkpt lat="41.909813" lon="12.519781666666665"><ele>46.0</ele><time>2026-04-18T18:05:37.144Z</time></trkpt><trkpt lat="41.909832333333334" lon="12.519654166666665"><ele>46.285714285714285</ele><time>2026-04-18T18:05:39.139Z</time></trkpt><trkpt lat="41.90986433333334" lon="12.519508833333335"><ele>46.57142857142857</ele><time>2026-04-18T18:05:41.144Z</time></trkpt><trkpt lat="41.90989999174778" lon="12.519430662500122"><ele>46.857142857142854</ele><time>2026-04-18T18:05:42.142Z</time></trkpt><trkpt lat="41.90992212986179" lon="12.519348075260531"><ele>47.14285714285714</ele><time>2026-04-18T18:05:43.137Z</time></trkpt><trkpt lat="41.90993216666667" lon="12.519260166666667"><ele>47.42857142857143</ele><time>2026-04-18T18:05:44.135Z</time></trkpt><trkpt lat="41.90995800000001" lon="12.519181499999997"><ele>47.71428571428571</ele><time>2026-04-18T18:05:45.143Z</time></trkpt><trkpt lat="41.9099815" lon="12.519101833333332"><ele>48.0</ele><time>2026-04-18T18:05:46.147Z</time></trkpt><trkpt lat="41.9100075" lon="12.5190235"><ele>48.0</ele><time>2026-04-18T18:05:47.147Z</time></trkpt><trkpt lat="41.910045499999995" lon="12.518880666666666"><ele>48.0</ele><time>2026-04-18T18:05:49.15Z</time></trkpt><trkpt lat="41.91007066666666" lon="12.518799166666668"><ele>48.0</ele><time>2026-04-18T18:05:51.144Z</time></trkpt><trkpt lat="41.91009883333333" lon="12.518680500000002"><ele>48.0</ele><time>2026-04-18T18:05:54.156Z</time></trkpt><trkpt lat="41.910138999999994" lon="12.518556000000002"><ele>48.0</ele><time>2026-04-18T18:05:56.145Z</time></trkpt><trkpt lat="41.910172499999994" lon="12.518425333333333"><ele>48.599999999999994</ele><time>2026-04-18T18:05:58.147Z</time></trkpt><trkpt lat="41.91020316666666" lon="12.518272166666668"><ele>49.199999999999996</ele><time>2026-04-18T18:06:00.144Z</time></trkpt><trkpt lat="41.91022066666666" lon="12.518183666666667"><ele>49.8</ele><time>2026-04-18T18:06:01.155Z</time></trkpt><trkpt lat="41.91025971146004" lon="12.518098761326401"><ele>50.4</ele><time>2026-04-18T18:06:02.15Z</time></trkpt><trkpt lat="41.91031371734662" lon="12.517897191391262"><ele>51.0</ele><time>2026-04-18T18:06:04.149Z</time></trkpt><trkpt lat="41.91033954255435" lon="12.517798732941724"><ele>51.0</ele><time>2026-04-18T18:06:05.145Z</time></trkpt><trkpt lat="41.9103649563343" lon="12.517701842837749"><ele>51.0</ele><time>2026-04-18T18:06:06.152Z</time></trkpt><trkpt lat="41.91037500000001" lon="12.517606166666667"><ele>51.0</ele><time>2026-04-18T18:06:07.152Z</time></trkpt><trkpt lat="41.910408333333336" lon="12.517525166666667"><ele>51.0</ele><time>2026-04-18T18:06:08.148Z</time></trkpt><trkpt lat="41.91042866666667" lon="12.5174325"><ele>51.0</ele><time>2026-04-18T18:06:09.148Z</time></trkpt><trkpt lat="41.910450999999995" lon="12.517336"><ele>51.0</ele><time>2026-04-18T18:06:10.148Z</time></trkpt><trkpt lat="41.91048083333333" lon="12.517243833333335"><ele>51.0</ele><time>2026-04-18T18:06:11.139Z</time></trkpt><trkpt lat="41.910510499999994" lon="12.517148"><ele>50.5</ele><time>2026-04-18T18:06:12.142Z</time></trkpt><trkpt lat="41.910545" lon="12.517054499999999"><ele>50.0</ele><time>2026-04-18T18:06:13.135Z</time></trkpt><trkpt lat="41.91057816666667" lon="12.516963500000001"><ele>49.5</ele><time>2026-04-18T18:06:14.136Z</time></trkpt><trkpt lat="41.91059449999999" lon="12.516871166666666"><ele>49.0</ele><time>2026-04-18T18:06:15.144Z</time></trkpt><trkpt lat="41.91061633333334" lon="12.516789833333332"><ele>48.5</ele><time>2026-04-18T18:06:16.146Z</time></trkpt><trkpt lat="41.9106535" lon="12.516680666666664"><ele>48.0</ele><time>2026-04-18T18:06:18.145Z</time></trkpt><trkpt lat="41.91069866666667" lon="12.516596833333331"><ele>48.0</ele><time>2026-04-18T18:06:51.153Z</time></trkpt><trkpt lat="41.91070633333334" lon="12.516509833333336"><ele>48.0</ele><time>2026-04-18T18:06:53.142Z</time></trkpt><trkpt lat="41.910732833333334" lon="12.516364666666668"><ele>48.0</ele><time>2026-04-18T18:06:55.14Z</time></trkpt><trkpt lat="41.91075300000001" lon="12.516283"><ele>48.0</ele><time>2026-04-18T18:06:56.139Z</time></trkpt><trkpt lat="41.9107785" lon="12.516184833333334"><ele>48.0</ele><time>2026-04-18T18:06:57.139Z</time></trkpt><trkpt lat="41.910808333333335" lon="12.516066333333333"><ele>48.0</ele><time>2026-04-18T18:06:58.142Z</time></trkpt><trkpt lat="41.91084733333334" lon="12.51593783333333"><ele>47.8</ele><time>2026-04-18T18:06:59.147Z</time></trkpt><trkpt lat="41.91088166666667" lon="12.515807500000001"><ele>47.599999999999994</ele><time>2026-04-18T18:07:00.135Z</time></trkpt><trkpt lat="41.91088849999999" lon="12.515668999999997"><ele>47.400000000000006</ele><time>2026-04-18T18:07:01.147Z</time></trkpt><trkpt lat="41.910902333333325" lon="12.515527333333333"><ele>47.2</ele><time>2026-04-18T18:07:02.136Z</time></trkpt><trkpt lat="41.910915666666675" lon="12.51538266666667"><ele>47.0</ele><time>2026-04-18T18:07:03.143Z</time></trkpt><trkpt lat="41.91092483333334" lon="12.5152425"><ele>47.6</ele><time>2026-04-18T18:07:04.134Z</time></trkpt><trkpt lat="41.91093633333333" lon="12.515112166666665"><ele>48.2</ele><time>2026-04-18T18:07:05.142Z</time></trkpt><trkpt lat="41.91094866666667" lon="12.514988833333332"><ele>48.8</ele><time>2026-04-18T18:07:06.14Z</time></trkpt><trkpt lat="41.910953333333325" lon="12.5148635"><ele>49.4</ele><time>2026-04-18T18:07:07.135Z</time></trkpt><trkpt lat="41.910936166666666" lon="12.51474"><ele>50.0</ele><time>2026-04-18T18:07:08.135Z</time></trkpt><trkpt lat="41.91092149999999" lon="12.514615833333336"><ele>49.833333333333336</ele><time>2026-04-18T18:07:09.139Z</time></trkpt><trkpt lat="41.91090416666666" lon="12.514494500000001"><ele>49.66666666666667</ele><time>2026-04-18T18:07:10.136Z</time></trkpt><trkpt lat="41.910889333333344" lon="12.514376333333331"><ele>49.5</ele><time>2026-04-18T18:07:11.136Z</time></trkpt><trkpt lat="41.910874" lon="12.514259166666667"><ele>49.33333333333333</ele><time>2026-04-18T18:07:12.14Z</time></trkpt><trkpt lat="41.910869500000004" lon="12.514148499999997"><ele>49.166666666666664</ele><time>2026-04-18T18:07:13.137Z</time></trkpt><trkpt lat="41.91086033333333" lon="12.514046"><ele>49.0</ele><time>2026-04-18T18:07:14.144Z</time></trkpt><trkpt lat="41.91084683333334" lon="12.513946500000001"><ele>48.99999999999999</ele><time>2026-04-18T18:07:15.141Z</time></trkpt><trkpt lat="41.91082783333333" lon="12.513844333333335"><ele>49.0</ele><time>2026-04-18T18:07:16.141Z</time></trkpt><trkpt lat="41.91079133333333" lon="12.513757166666668"><ele>49.0</ele><time>2026-04-18T18:07:17.137Z</time></trkpt><trkpt lat="41.910762999999996" lon="12.513679333333334"><ele>49.0</ele><time>2026-04-18T18:07:18.147Z</time></trkpt><trkpt lat="41.910713" lon="12.513530666666668"><ele>48.99999999999999</ele><time>2026-04-18T18:07:20.138Z</time></trkpt><trkpt lat="41.91067916666666" lon="12.513403666666667"><ele>49.0</ele><time>2026-04-18T18:07:22.135Z</time></trkpt><trkpt lat="41.91065666666667" lon="12.513284333333335"><ele>48.99999999999999</ele><time>2026-04-18T18:07:24.137Z</time></trkpt><trkpt lat="41.910644166666664" lon="12.513123"><ele>49.0</ele><time>2026-04-18T18:07:26.139Z</time></trkpt><trkpt lat="41.910623833333325" lon="12.513039833333334"><ele>49.0</ele><time>2026-04-18T18:07:27.14Z</time></trkpt><trkpt lat="41.910584666666665" lon="12.512948333333334"><ele>49.0</ele><time>2026-04-18T18:07:28.137Z</time></trkpt><trkpt lat="41.91054066666667" lon="12.512845666666665"><ele>48.99999999999999</ele><time>2026-04-18T18:07:29.155Z</time></trkpt><trkpt lat="41.910504333333336" lon="12.512732999999999"><ele>49.0</ele><time>2026-04-18T18:07:30.134Z</time></trkpt><trkpt lat="41.910452666666664" lon="12.512626000000001"><ele>49.800000000000004</ele><time>2026-04-18T18:07:31.136Z</time></trkpt><trkpt lat="41.910406166666675" lon="12.512506499999999"><ele>50.6</ele><time>2026-04-18T18:07:32.162Z</time></trkpt><trkpt lat="41.91038209165946" lon="12.51238039760545"><ele>51.4</ele><time>2026-04-18T18:07:33.14Z</time></trkpt><trkpt lat="41.91034761923167" lon="12.512256329459285"><ele>52.2</ele><time>2026-04-18T18:07:34.157Z</time></trkpt><trkpt lat="41.91030116666668" lon="12.512147166666667"><ele>53.0</ele><time>2026-04-18T18:07:35.16Z</time></trkpt><trkpt lat="41.91026866666666" lon="12.512034666666667"><ele>53.333333333333336</ele><time>2026-04-18T18:07:36.152Z</time></trkpt><trkpt lat="41.910247666666656" lon="12.511947166666669"><ele>53.66666666666667</ele><time>2026-04-18T18:07:37.148Z</time></trkpt><trkpt lat="41.910234666666675" lon="12.511860166666667"><ele>54.0</ele><time>2026-04-18T18:07:38.137Z</time></trkpt><trkpt lat="41.91020566666666" lon="12.5117385"><ele>54.33333333333333</ele><time>2026-04-18T18:07:40.136Z</time></trkpt><trkpt lat="41.91018733333334" lon="12.511642666666667"><ele>54.666666666666664</ele><time>2026-04-18T18:07:43.137Z</time></trkpt><trkpt lat="41.910180499999996" lon="12.511552833333333"><ele>55.0</ele><time>2026-04-18T18:08:05.137Z</time></trkpt><trkpt lat="41.91013316666667" lon="12.511440166666667"><ele>54.99999999999999</ele><time>2026-04-18T18:08:08.139Z</time></trkpt><trkpt lat="41.910087999999995" lon="12.511315000000002"><ele>55.0</ele><time>2026-04-18T18:08:10.138Z</time></trkpt><trkpt lat="41.91004566666667" lon="12.511172333333331"><ele>55.0</ele><time>2026-04-18T18:08:12.137Z</time></trkpt><trkpt lat="41.91002483333333" lon="12.511090666666666"><ele>55.0</ele><time>2026-04-18T18:08:13.142Z</time></trkpt><trkpt lat="41.91000333333333" lon="12.511004666666668"><ele>54.99999999999999</ele><time>2026-04-18T18:08:14.138Z</time></trkpt><trkpt lat="41.90998316666668" lon="12.510923666666669"><ele>55.0</ele><time>2026-04-18T18:08:15.144Z</time></trkpt><trkpt lat="41.909940999999996" lon="12.510782500000001"><ele>56.0</ele><time>2026-04-18T18:08:17.147Z</time></trkpt><trkpt lat="41.9098925" lon="12.510637999999998"><ele>57.0</ele><time>2026-04-18T18:08:19.146Z</time></trkpt><trkpt lat="41.909856166666664" lon="12.510486333333331"><ele>58.0</ele><time>2026-04-18T18:08:21.15Z</time></trkpt><trkpt lat="41.90982366666667" lon="12.510341999999998"><ele>59.0</ele><time>2026-04-18T18:08:23.138Z</time></trkpt><trkpt lat="41.90980366666666" lon="12.510255333333335"><ele>60.0</ele><time>2026-04-18T18:08:24.134Z</time></trkpt><trkpt lat="41.909779166666674" lon="12.510158166666667"><ele>60.0</ele><time>2026-04-18T18:08:25.151Z</time></trkpt><trkpt lat="41.90975" lon="12.510048666666668"><ele>60.0</ele><time>2026-04-18T18:08:26.15Z</time></trkpt><trkpt lat="41.90971833333332" lon="12.5099315"><ele>60.0</ele><time>2026-04-18T18:08:27.148Z</time></trkpt><trkpt lat="41.9096865" lon="12.509816166666667"><ele>60.0</ele><time>2026-04-18T18:08:28.15Z</time></trkpt><trkpt lat="41.90965483333333" lon="12.509709666666666"><ele>60.0</ele><time>2026-04-18T18:08:29.147Z</time></trkpt><trkpt lat="41.90962533333333" lon="12.509609000000001"><ele>60.0</ele><time>2026-04-18T18:08:30.149Z</time></trkpt><trkpt lat="41.909598833333334" lon="12.509509833333334"><ele>59.833333333333336</ele><time>2026-04-18T18:08:31.147Z</time></trkpt><trkpt lat="41.90957333333334" lon="12.509412666666668"><ele>59.66666666666667</ele><time>2026-04-18T18:08:32.15Z</time></trkpt><trkpt lat="41.90954733333333" lon="12.509313833333332"><ele>59.5</ele><time>2026-04-18T18:08:33.148Z</time></trkpt><trkpt lat="41.90952033333333" lon="12.509214999999998"><ele>59.333333333333336</ele><time>2026-04-18T18:08:34.146Z</time></trkpt><trkpt lat="41.90949233333335" lon="12.509114499999997"><ele>59.16666666666667</ele><time>2026-04-18T18:08:35.148Z</time></trkpt><trkpt lat="41.909460499999994" lon="12.509014666666667"><ele>59.0</ele><time>2026-04-18T18:08:36.149Z</time></trkpt><trkpt lat="41.909428" lon="12.5089125"><ele>59.00000000000001</ele><time>2026-04-18T18:08:37.148Z</time></trkpt><trkpt lat="41.90939566666666" lon="12.508809166666667"><ele>59.0</ele><time>2026-04-18T18:08:38.142Z</time></trkpt><trkpt lat="41.909363" lon="12.508707333333332"><ele>59.0</ele><time>2026-04-18T18:08:39.137Z</time></trkpt><trkpt lat="41.9093295" lon="12.508607500000002"><ele>59.0</ele><time>2026-04-18T18:08:40.144Z</time></trkpt><trkpt lat="41.90929750000001" lon="12.508516499999999"><ele>59.00000000000001</ele><time>2026-04-18T18:08:41.145Z</time></trkpt><trkpt lat="41.909267666666665" lon="12.508431166666664"><ele>59.0</ele><time>2026-04-18T18:08:42.148Z</time></trkpt><trkpt lat="41.90923866666667" lon="12.508335499999998"><ele>59.2</ele><time>2026-04-18T18:08:43.147Z</time></trkpt><trkpt lat="41.90920916666667" lon="12.508226500000001"><ele>59.400000000000006</ele><time>2026-04-18T18:08:44.149Z</time></trkpt><trkpt lat="41.909175166666664" lon="12.508098833333333"><ele>59.6</ele><time>2026-04-18T18:08:45.143Z</time></trkpt><trkpt lat="41.90915429388399" lon="12.507946269681074"><ele>59.8</ele><time>2026-04-18T18:08:46.143Z</time></trkpt><trkpt lat="41.90911353636253" lon="12.50779890452494"><ele>60.0</ele><time>2026-04-18T18:08:47.137Z</time></trkpt><trkpt lat="41.90907200365914" lon="12.50765169856593"><ele>61.25</ele><time>2026-04-18T18:08:48.137Z</time></trkpt><trkpt lat="41.90903036171907" lon="12.507503958422616"><ele>62.5</ele><time>2026-04-18T18:08:49.144Z</time></trkpt><trkpt lat="41.90898856274909" lon="12.5073555490725"><ele>63.75</ele><time>2026-04-18T18:08:50.143Z</time></trkpt><trkpt lat="41.908934833333326" lon="12.507216333333334"><ele>65.0</ele><time>2026-04-18T18:08:51.139Z</time></trkpt><trkpt lat="41.90890133333334" lon="12.507067500000002"><ele>65.6</ele><time>2026-04-18T18:08:52.142Z</time></trkpt><trkpt lat="41.908870166666674" lon="12.5069195"><ele>66.2</ele><time>2026-04-18T18:08:53.147Z</time></trkpt><trkpt lat="41.90883983333333" lon="12.506773833333334"><ele>66.8</ele><time>2026-04-18T18:08:54.142Z</time></trkpt><trkpt lat="41.90880798217433" lon="12.506642758783478"><ele>67.4</ele><time>2026-04-18T18:08:55.137Z</time></trkpt><trkpt lat="41.90879304347208" lon="12.506506222347953"><ele>68.0</ele><time>2026-04-18T18:08:56.136Z</time></trkpt><trkpt lat="41.90876330807496" lon="12.50638015875966"><ele>68.0</ele><time>2026-04-18T18:08:57.142Z</time></trkpt><trkpt lat="41.90872780307529" lon="12.506254764544698"><ele>68.0</ele><time>2026-04-18T18:08:58.137Z</time></trkpt><trkpt lat="41.90868083333333" lon="12.506141333333334"><ele>68.0</ele><time>2026-04-18T18:08:59.139Z</time></trkpt><trkpt lat="41.908654999999996" lon="12.506016833333334"><ele>68.0</ele><time>2026-04-18T18:09:00.138Z</time></trkpt><trkpt lat="41.90862866666666" lon="12.505897666666666"><ele>68.0</ele><time>2026-04-18T18:09:01.149Z</time></trkpt><trkpt lat="41.9086045" lon="12.505790000000001"><ele>68.5</ele><time>2026-04-18T18:09:02.141Z</time></trkpt><trkpt lat="41.908583666666665" lon="12.505694833333333"><ele>69.0</ele><time>2026-04-18T18:09:03.135Z</time></trkpt><trkpt lat="41.90855233333333" lon="12.505552499999999"><ele>69.5</ele><time>2026-04-18T18:09:05.141Z</time></trkpt><trkpt lat="41.90853533333334" lon="12.505470166666665"><ele>70.0</ele><time>2026-04-18T18:09:07.153Z</time></trkpt><trkpt lat="41.9085045" lon="12.505338333333336"><ele>70.5</ele><time>2026-04-18T18:09:50.136Z</time></trkpt><trkpt lat="41.9084695" lon="12.505220333333334"><ele>71.0</ele><time>2026-04-18T18:09:53.134Z</time></trkpt><trkpt lat="41.90843100000001" lon="12.505082"><ele>70.39999999999999</ele><time>2026-04-18T18:09:55.134Z</time></trkpt><trkpt lat="41.90839566666667" lon="12.504943833333334"><ele>69.8</ele><time>2026-04-18T18:09:57.134Z</time></trkpt><trkpt lat="41.90836266666667" lon="12.5047835"><ele>69.19999999999999</ele><time>2026-04-18T18:09:59.134Z</time></trkpt><trkpt lat="41.908351666666675" lon="12.504696000000001"><ele>68.6</ele><time>2026-04-18T18:10:00.134Z</time></trkpt><trkpt lat="41.908341333333325" lon="12.504606166666667"><ele>68.0</ele><time>2026-04-18T18:10:01.143Z</time></trkpt><trkpt lat="41.9083235" lon="12.504450333333335"><ele>68.0</ele><time>2026-04-18T18:10:03.136Z</time></trkpt><trkpt lat="41.908300499999996" lon="12.504295500000001"><ele>68.0</ele><time>2026-04-18T18:10:05.143Z</time></trkpt><trkpt lat="41.90828483333333" lon="12.504212333333331"><ele>68.0</ele><time>2026-04-18T18:10:06.139Z</time></trkpt><trkpt lat="41.908290378980055" lon="12.504117265940591"><ele>68.0</ele><time>2026-04-18T18:10:07.138Z</time></trkpt><trkpt lat="41.90828675151115" lon="12.504017692581076"><ele>68.0</ele><time>2026-04-18T18:10:08.134Z</time></trkpt><trkpt lat="41.90828718996485" lon="12.503920258824001"><ele>68.0</ele><time>2026-04-18T18:10:09.133Z</time></trkpt><trkpt lat="41.908294608917885" lon="12.503812107709372"><ele>68.4</ele><time>2026-04-18T18:10:10.134Z</time></trkpt><trkpt lat="41.90826966666667" lon="12.503681666666667"><ele>68.8</ele><time>2026-04-18T18:10:11.133Z</time></trkpt><trkpt lat="41.90828533333333" lon="12.5035515"><ele>69.2</ele><time>2026-04-18T18:10:12.134Z</time></trkpt><trkpt lat="41.90832" lon="12.503410666666666"><ele>69.6</ele><time>2026-04-18T18:10:13.134Z</time></trkpt><trkpt lat="41.9083595" lon="12.503262"><ele>70.0</ele><time>2026-04-18T18:10:14.135Z</time></trkpt><trkpt lat="41.90840216666667" lon="12.503116166666665"><ele>71.0</ele><time>2026-04-18T18:10:15.134Z</time></trkpt><trkpt lat="41.908447166666676" lon="12.502965666666668"><ele>72.0</ele><time>2026-04-18T18:10:16.129Z</time></trkpt><trkpt lat="41.908492499999994" lon="12.502818666666666"><ele>73.0</ele><time>2026-04-18T18:10:17.137Z</time></trkpt><trkpt lat="41.90951010852165" lon="12.501533381348118"><ele>73.0</ele><time>2026-04-18T18:10:28Z</time></trkpt><trkpt lat="41.90958552133456" lon="12.501387840365487"><ele>73.0</ele><time>2026-04-18T18:10:29Z</time></trkpt><trkpt lat="41.90965483482035" lon="12.501231050464423"><ele>73.0</ele><time>2026-04-18T18:10:30Z</time></trkpt><trkpt lat="41.90973090810357" lon="12.501076919330586"><ele>73.0</ele><time>2026-04-18T18:10:31Z</time></trkpt><trkpt lat="41.90980817517798" lon="12.500917443739059"><ele>72.5</ele><time>2026-04-18T18:10:32Z</time></trkpt><trkpt lat="41.90988826057681" lon="12.500758238499664"><ele>72.0</ele><time>2026-04-18T18:10:33Z</time></trkpt><trkpt lat="41.909968273494705" lon="12.50059930523871"><ele>71.5</ele><time>2026-04-18T18:10:34Z</time></trkpt><trkpt lat="41.910051104733085" lon="12.500436894618367"><ele>71.0</ele><time>2026-04-18T18:10:35Z</time></trkpt><trkpt lat="41.91013428212632" lon="12.500273798557467"><ele>72.66666666666667</ele><time>2026-04-18T18:10:36Z</time></trkpt><trkpt lat="41.91022145395948" lon="12.50010580544772"><ele>74.33333333333333</ele><time>2026-04-18T18:10:37Z</time></trkpt><trkpt lat="41.910309361818136" lon="12.4999378443392"><ele>76.0</ele><time>2026-04-18T18:10:38Z</time></trkpt><trkpt lat="41.910395811490524" lon="12.499769313030365"><ele>76.0</ele><time>2026-04-18T18:10:39Z</time></trkpt><trkpt lat="41.91048202550247" lon="12.49959643282369"><ele>76.0</ele><time>2026-04-18T18:10:40Z</time></trkpt><trkpt lat="41.910567798257084" lon="12.499423514040945"><ele>76.0</ele><time>2026-04-18T18:10:41Z</time></trkpt><trkpt lat="41.910649996309104" lon="12.499258851751957"><ele>75.75</ele><time>2026-04-18T18:10:42Z</time></trkpt><trkpt lat="41.91072964930774" lon="12.499092294750456"><ele>75.5</ele><time>2026-04-18T18:10:43Z</time></trkpt><trkpt lat="41.91080325356541" lon="12.498934798931248"><ele>75.25</ele><time>2026-04-18T18:10:44Z</time></trkpt><trkpt lat="41.91087427636529" lon="12.498780640064691"><ele>75.0</ele><time>2026-04-18T18:10:45Z</time></trkpt><trkpt lat="41.91093445550775" lon="12.49863368938758"><ele>75.0</ele><time>2026-04-18T18:10:46Z</time></trkpt><trkpt lat="41.910959686287434" lon="12.498530404290909"><ele>75.0</ele><time>2026-04-18T18:10:47Z</time></trkpt><trkpt lat="41.91091510550371" lon="12.498406382722791"><ele>75.0</ele><time>2026-04-18T18:10:48Z</time></trkpt><trkpt lat="41.9109203419587" lon="12.498318648418337"><ele>75.0</ele><time>2026-04-18T18:10:49Z</time></trkpt><trkpt lat="41.91092830927792" lon="12.498210525054356"><ele>75.0</ele><time>2026-04-18T18:10:50Z</time></trkpt><trkpt lat="41.91093149850825" lon="12.498098043651716"><ele>75.0</ele><time>2026-04-18T18:10:51Z</time></trkpt><trkpt lat="41.91092462202262" lon="12.497938764152302"><ele>75.4</ele><time>2026-04-18T18:10:52Z</time></trkpt><trkpt lat="41.910916912406144" lon="12.49781903919554"><ele>75.8</ele><time>2026-04-18T18:10:53Z</time></trkpt><trkpt lat="41.910921456877" lon="12.497728907240298"><ele>76.2</ele><time>2026-04-18T18:10:54Z</time></trkpt><trkpt lat="41.91092468087573" lon="12.49762092557872"><ele>76.6</ele><time>2026-04-18T18:10:55Z</time></trkpt><trkpt lat="41.91093479356561" lon="12.497422785242051"><ele>77.0</ele><time>2026-04-18T18:10:56Z</time></trkpt><trkpt lat="41.91093492787721" lon="12.497256666666665"><ele>77.0</ele><time>2026-04-18T18:10:57.153Z</time></trkpt><trkpt lat="41.91093418394561" lon="12.497100941563135"><ele>77.0</ele><time>2026-04-18T18:10:58.157Z</time></trkpt><trkpt lat="41.91093408253331" lon="12.496938382329153"><ele>77.0</ele><time>2026-04-18T18:10:59.153Z</time></trkpt><trkpt lat="41.91093841449971" lon="12.496772891528568"><ele>77.0</ele><time>2026-04-18T18:11:00.158Z</time></trkpt><trkpt lat="41.911004000000005" lon="12.496612666666666"><ele>77.0</ele><time>2026-04-18T18:11:01.156Z</time></trkpt><trkpt lat="41.911007500000004" lon="12.496444666666667"><ele>77.0</ele><time>2026-04-18T18:11:02.147Z</time></trkpt><trkpt lat="41.91101083333333" lon="12.496276499999999"><ele>77.0</ele><time>2026-04-18T18:11:03.15Z</time></trkpt><trkpt lat="41.91101483333333" lon="12.496115666666666"><ele>77.0</ele><time>2026-04-18T18:11:04.148Z</time></trkpt><trkpt lat="41.91101933333332" lon="12.495956833333333"><ele>77.0</ele><time>2026-04-18T18:11:05.135Z</time></trkpt><trkpt lat="41.91103533333333" lon="12.495800833333332"><ele>77.0</ele><time>2026-04-18T18:11:06.137Z</time></trkpt><trkpt lat="41.911042" lon="12.495645999999999"><ele>77.0</ele><time>2026-04-18T18:11:07.134Z</time></trkpt><trkpt lat="41.911049166666665" lon="12.495487500000001"><ele>77.0</ele><time>2026-04-18T18:11:08.147Z</time></trkpt><trkpt lat="41.911056666666674" lon="12.495323666666666"><ele>76.75</ele><time>2026-04-18T18:11:09.141Z</time></trkpt><trkpt lat="41.911064" lon="12.495156333333334"><ele>76.5</ele><time>2026-04-18T18:11:10.135Z</time></trkpt><trkpt lat="41.91107099999999" lon="12.494980333333334"><ele>76.25</ele><time>2026-04-18T18:11:11.136Z</time></trkpt><trkpt lat="41.9110775" lon="12.494797166666666"><ele>76.0</ele><time>2026-04-18T18:11:12.137Z</time></trkpt><trkpt lat="41.91108433333334" lon="12.4946115"><ele>76.25</ele><time>2026-04-18T18:11:13.135Z</time></trkpt><trkpt lat="41.91107600000001" lon="12.494421333333333"><ele>76.5</ele><time>2026-04-18T18:11:14.15Z</time></trkpt><trkpt lat="41.91107183333334" lon="12.4942255"><ele>76.75</ele><time>2026-04-18T18:11:15.151Z</time></trkpt><trkpt lat="41.91106933333334" lon="12.494027"><ele>77.0</ele><time>2026-04-18T18:11:16.15Z</time></trkpt><trkpt lat="41.91092583333334" lon="12.49251233333333"><ele>76.8</ele><time>2026-04-18T18:11:24.142Z</time></trkpt><trkpt lat="41.91087266666667" lon="12.492359500000003"><ele>76.6</ele><time>2026-04-18T18:11:25.147Z</time></trkpt><trkpt lat="41.91082233333333" lon="12.492220333333334"><ele>76.39999999999999</ele><time>2026-04-18T18:11:26.155Z</time></trkpt><trkpt lat="41.910779000000005" lon="12.492093833333335"><ele>76.2</ele><time>2026-04-18T18:11:27.145Z</time></trkpt><trkpt lat="41.9107435" lon="12.491976333333332"><ele>76.0</ele><time>2026-04-18T18:11:28.148Z</time></trkpt><trkpt lat="41.9107095" lon="12.491869666666666"><ele>75.83333333333333</ele><time>2026-04-18T18:11:29.148Z</time></trkpt><trkpt lat="41.910674666666665" lon="12.491764499999999"><ele>75.66666666666666</ele><time>2026-04-18T18:11:30.16Z</time></trkpt><trkpt lat="41.91063866666667" lon="12.491659499999999"><ele>75.5</ele><time>2026-04-18T18:11:31.173Z</time></trkpt><trkpt lat="41.910603333333334" lon="12.491560166666668"><ele>75.33333333333333</ele><time>2026-04-18T18:11:32.149Z</time></trkpt><trkpt lat="41.91056616666666" lon="12.491462666666667"><ele>75.16666666666667</ele><time>2026-04-18T18:11:33.151Z</time></trkpt><trkpt lat="41.91052583333334" lon="12.491363000000002"><ele>75.0</ele><time>2026-04-18T18:11:34.144Z</time></trkpt><trkpt lat="41.910481" lon="12.491258"><ele>75.2</ele><time>2026-04-18T18:11:35.142Z</time></trkpt><trkpt lat="41.91043133333333" lon="12.491147833333331"><ele>75.4</ele><time>2026-04-18T18:11:36.135Z</time></trkpt><trkpt lat="41.9103765" lon="12.491034500000001"><ele>75.6</ele><time>2026-04-18T18:11:37.136Z</time></trkpt><trkpt lat="41.91031866666667" lon="12.490925666666666"><ele>75.8</ele><time>2026-04-18T18:11:38.151Z</time></trkpt><trkpt lat="41.91025866666667" lon="12.490820499999998"><ele>76.0</ele><time>2026-04-18T18:11:39.137Z</time></trkpt><trkpt lat="41.910196" lon="12.490713333333334"><ele>76.0</ele><time>2026-04-18T18:11:40.148Z</time></trkpt><trkpt lat="41.910129166666664" lon="12.490601666666667"><ele>76.0</ele><time>2026-04-18T18:11:41.144Z</time></trkpt><trkpt lat="41.910061666666664" lon="12.490487166666666"><ele>76.0</ele><time>2026-04-18T18:11:42.15Z</time></trkpt><trkpt lat="41.909997000000004" lon="12.490368333333334"><ele>76.0</ele><time>2026-04-18T18:11:43.142Z</time></trkpt><trkpt lat="41.909938999999994" lon="12.490242166666667"><ele>76.0</ele><time>2026-04-18T18:11:44.136Z</time></trkpt><trkpt lat="41.909893833333335" lon="12.490106166666665"><ele>75.75</ele><time>2026-04-18T18:11:45.139Z</time></trkpt><trkpt lat="41.9098635" lon="12.489957166666665"><ele>75.5</ele><time>2026-04-18T18:11:46.149Z</time></trkpt><trkpt lat="41.90984733333333" lon="12.489797333333335"><ele>75.25</ele><time>2026-04-18T18:11:47.146Z</time></trkpt><trkpt lat="41.90983766666667" lon="12.489628833333333"><ele>75.0</ele><time>2026-04-18T18:11:48.133Z</time></trkpt><trkpt lat="41.909822333333345" lon="12.48945933333333"><ele>74.75</ele><time>2026-04-18T18:11:49.136Z</time></trkpt><trkpt lat="41.909812333333335" lon="12.489286166666668"><ele>74.5</ele><time>2026-04-18T18:11:50.14Z</time></trkpt><trkpt lat="41.90980733333334" lon="12.48911"><ele>74.25</ele><time>2026-04-18T18:11:51.136Z</time></trkpt><trkpt lat="41.90979999999999" lon="12.488934500000001"><ele>74.0</ele><time>2026-04-18T18:11:52.138Z</time></trkpt><trkpt lat="41.90979016666667" lon="12.488760166666669"><ele>74.0</ele><time>2026-04-18T18:11:53.142Z</time></trkpt><trkpt lat="41.909780333333345" lon="12.488586000000002"><ele>74.0</ele><time>2026-04-18T18:11:54.134Z</time></trkpt><trkpt lat="41.90964983333333" lon="12.487728666666666"><ele>72.25</ele><time>2026-04-18T18:11:59.14Z</time></trkpt><trkpt lat="41.90958966666667" lon="12.487571166666665"><ele>70.5</ele><time>2026-04-18T18:12:00.16Z</time></trkpt><trkpt lat="41.90952083333333" lon="12.487418666666668"><ele>68.75</ele><time>2026-04-18T18:12:01.162Z</time></trkpt><trkpt lat="41.909448166666664" lon="12.487275333333331"><ele>67.0</ele><time>2026-04-18T18:12:02.161Z</time></trkpt><trkpt lat="41.90937350000001" lon="12.487138499999999"><ele>66.25</ele><time>2026-04-18T18:12:03.143Z</time></trkpt><trkpt lat="41.90930016666666" lon="12.487004833333334"><ele>65.5</ele><time>2026-04-18T18:12:04.147Z</time></trkpt><trkpt lat="41.909229" lon="12.486871333333333"><ele>64.75</ele><time>2026-04-18T18:12:05.14Z</time></trkpt><trkpt lat="41.90915483333333" lon="12.486730166666668"><ele>64.0</ele><time>2026-04-18T18:12:06.143Z</time></trkpt><trkpt lat="41.90904684301548" lon="12.486607674875977"><ele>64.0</ele><time>2026-04-18T18:12:07.148Z</time></trkpt><trkpt lat="41.908978925913296" lon="12.486455338861099"><ele>64.0</ele><time>2026-04-18T18:12:08.137Z</time></trkpt><trkpt lat="41.90891347646478" lon="12.486302120698594"><ele>64.0</ele><time>2026-04-18T18:12:09.139Z</time></trkpt><trkpt lat="41.90884666048673" lon="12.48614481250011"><ele>64.0</ele><time>2026-04-18T18:12:10.15Z</time></trkpt><trkpt lat="41.90879362837967" lon="12.485971299353396"><ele>62.25</ele><time>2026-04-18T18:12:11.138Z</time></trkpt><trkpt lat="41.90875960288173" lon="12.485784918509594"><ele>60.5</ele><time>2026-04-18T18:12:12.138Z</time></trkpt><trkpt lat="41.90874199992217" lon="12.485594105777013"><ele>58.75</ele><time>2026-04-18T18:12:13.141Z</time></trkpt><trkpt lat="41.90873483909312" lon="12.485416034601428"><ele>57.0</ele><time>2026-04-18T18:12:14.135Z</time></trkpt><trkpt lat="41.908731658284054" lon="12.48522573009245"><ele>57.0</ele><time>2026-04-18T18:12:15.137Z</time></trkpt><trkpt lat="41.90875704773465" lon="12.485033354094332"><ele>57.0</ele><time>2026-04-18T18:12:16.135Z</time></trkpt><trkpt lat="41.9088295" lon="12.484868166666669"><ele>57.0</ele><time>2026-04-18T18:12:17.14Z</time></trkpt><trkpt lat="41.908885166666664" lon="12.484696499999998"><ele>57.0</ele><time>2026-04-18T18:12:18.138Z</time></trkpt><trkpt lat="41.908957166666674" lon="12.484534000000002"><ele>57.5</ele><time>2026-04-18T18:12:19.143Z</time></trkpt><trkpt lat="41.909037999999995" lon="12.484385000000001"><ele>58.0</ele><time>2026-04-18T18:12:20.139Z</time></trkpt><trkpt lat="41.90912316666666" lon="12.484240166666666"><ele>58.5</ele><time>2026-04-18T18:12:21.144Z</time></trkpt><trkpt lat="41.909208500000005" lon="12.484095833333335"><ele>59.0</ele><time>2026-04-18T18:12:22.142Z</time></trkpt><trkpt lat="41.90929" lon="12.48395683333333"><ele>57.5</ele><time>2026-04-18T18:12:23.145Z</time></trkpt><trkpt lat="41.90937183333334" lon="12.483818333333334"><ele>56.0</ele><time>2026-04-18T18:12:24.142Z</time></trkpt><trkpt lat="41.90945366666667" lon="12.483681333333333"><ele>54.5</ele><time>2026-04-18T18:12:25.139Z</time></trkpt><trkpt lat="41.909532999999996" lon="12.483549166666668"><ele>53.0</ele><time>2026-04-18T18:12:26.138Z</time></trkpt><trkpt lat="41.90960916666666" lon="12.483421666666667"><ele>53.00000000000001</ele><time>2026-04-18T18:12:27.139Z</time></trkpt><trkpt lat="41.90967583333333" lon="12.483306666666666"><ele>53.0</ele><time>2026-04-18T18:12:28.142Z</time></trkpt><trkpt lat="41.90973333333333" lon="12.483201666666666"><ele>53.0</ele><time>2026-04-18T18:12:29.147Z</time></trkpt><trkpt lat="41.90978216666667" lon="12.483103500000002"><ele>53.0</ele><time>2026-04-18T18:12:30.139Z</time></trkpt><trkpt lat="41.90982316666667" lon="12.483011666666668"><ele>53.00000000000001</ele><time>2026-04-18T18:12:31.146Z</time></trkpt><trkpt lat="41.909858" lon="12.482926333333333"><ele>53.0</ele><time>2026-04-18T18:12:32.142Z</time></trkpt><trkpt lat="41.90988716666668" lon="12.482849833333335"><ele>53.16666666666667</ele><time>2026-04-18T18:12:33.139Z</time></trkpt><trkpt lat="41.909933833333326" lon="12.482722"><ele>53.333333333333336</ele><time>2026-04-18T18:12:35.138Z</time></trkpt><trkpt lat="41.90997183333334" lon="12.482617833333332"><ele>53.5</ele><time>2026-04-18T18:12:37.136Z</time></trkpt><trkpt lat="41.90998822301067" lon="12.482507331346946"><ele>53.66666666666667</ele><time>2026-04-18T18:12:40.142Z</time></trkpt><trkpt lat="41.910040166666676" lon="12.482458666666666"><ele>53.833333333333336</ele><time>2026-04-18T18:12:55.135Z</time></trkpt><trkpt lat="41.9100706244811" lon="12.482341814850994"><ele>54.0</ele><time>2026-04-18T18:12:59.137Z</time></trkpt><trkpt lat="41.91012350955658" lon="12.482258359795802"><ele>54.0</ele><time>2026-04-18T18:13:01.148Z</time></trkpt><trkpt lat="41.910179666666664" lon="12.4821835"><ele>54.0</ele><time>2026-04-18T18:13:03.137Z</time></trkpt><trkpt lat="41.910226" lon="12.482096999999998"><ele>54.0</ele><time>2026-04-18T18:13:05.137Z</time></trkpt><trkpt lat="41.91025966666666" lon="12.482019999999999"><ele>54.0</ele><time>2026-04-18T18:13:07.137Z</time></trkpt><trkpt lat="41.910322879157796" lon="12.481970874769381"><ele>54.0</ele><time>2026-04-18T18:13:10.139Z</time></trkpt><trkpt lat="41.9103754349419" lon="12.481920040120913"><ele>54.0</ele><time>2026-04-18T18:13:12.14Z</time></trkpt><trkpt lat="41.91045001212763" lon="12.481853411399161"><ele>54.5</ele><time>2026-04-18T18:13:15.138Z</time></trkpt><trkpt lat="41.910532218220354" lon="12.481789581824902"><ele>55.0</ele><time>2026-04-18T18:13:18.138Z</time></trkpt><trkpt lat="41.910594217297295" lon="12.481752523675071"><ele>55.5</ele><time>2026-04-18T18:13:20.137Z</time></trkpt><trkpt lat="41.91065739467864" lon="12.481720054747733"><ele>56.0</ele><time>2026-04-18T18:13:22.152Z</time></trkpt><trkpt lat="41.91072383011272" lon="12.481686263593955"><ele>56.5</ele><time>2026-04-18T18:13:24.166Z</time></trkpt><trkpt lat="41.91078909030726" lon="12.481654896917604"><ele>57.0</ele><time>2026-04-18T18:13:26.142Z</time></trkpt><trkpt lat="41.91087237519812" lon="12.481616694011171"><ele>56.857142857142854</ele><time>2026-04-18T18:13:29.143Z</time></trkpt><trkpt lat="41.910935729841505" lon="12.481588645761223"><ele>56.71428571428571</ele><time>2026-04-18T18:13:32.142Z</time></trkpt><trkpt lat="41.911005422576544" lon="12.481557791477833"><ele>56.57142857142857</ele><time>2026-04-18T18:13:35.151Z</time></trkpt><trkpt lat="41.91108978999935" lon="12.481520453447695"><ele>56.42857142857143</ele><time>2026-04-18T18:13:38.143Z</time></trkpt><trkpt lat="41.91115098619246" lon="12.481493617602991"><ele>56.285714285714285</ele><time>2026-04-18T18:13:40.138Z</time></trkpt><trkpt lat="41.91121755453645" lon="12.481464425910305"><ele>56.14285714285714</ele><time>2026-04-18T18:13:43.14Z</time></trkpt><trkpt lat="41.91128330775319" lon="12.481437097357905"><ele>56.0</ele><time>2026-04-18T18:13:49.143Z</time></trkpt><trkpt lat="41.91134752912126" lon="12.48141113266616"><ele>56.00000000000001</ele><time>2026-04-18T18:14:06.142Z</time></trkpt><trkpt lat="41.911422653683196" lon="12.481386413815253"><ele>56.0</ele><time>2026-04-18T18:14:10.144Z</time></trkpt><trkpt lat="41.911488274382656" lon="12.481369636063235"><ele>56.0</ele><time>2026-04-18T18:14:13.142Z</time></trkpt><trkpt lat="41.91155258642224" lon="12.481354431729894"><ele>56.0</ele><time>2026-04-18T18:14:15.137Z</time></trkpt><trkpt lat="41.91163555819446" lon="12.481335225828955"><ele>56.00000000000001</ele><time>2026-04-18T18:14:17.142Z</time></trkpt><trkpt lat="41.91171744810246" lon="12.48131683387277"><ele>56.0</ele><time>2026-04-18T18:14:19.142Z</time></trkpt><trkpt lat="41.911797149397984" lon="12.48129893345917"><ele>55.16666666666667</ele><time>2026-04-18T18:14:21.149Z</time></trkpt><trkpt lat="41.91185956484558" lon="12.481284915331512"><ele>54.333333333333336</ele><time>2026-04-18T18:14:23.141Z</time></trkpt><trkpt lat="41.911949601821355" lon="12.481264693592626"><ele>53.5</ele><time>2026-04-18T18:14:26.15Z</time></trkpt><trkpt lat="41.91202845439232" lon="12.481247162208975"><ele>52.66666666666667</ele><time>2026-04-18T18:14:29.152Z</time></trkpt><trkpt lat="41.91211424332603" lon="12.481228901677815"><ele>51.833333333333336</ele><time>2026-04-18T18:14:32.144Z</time></trkpt><trkpt lat="41.9122090469947" lon="12.481209513216086"><ele>51.0</ele><time>2026-04-18T18:14:35.147Z</time></trkpt><trkpt lat="41.91229079808664" lon="12.481206394161445"><ele>51.0</ele><time>2026-04-18T18:14:38.158Z</time></trkpt><trkpt lat="41.91236906275715" lon="12.481215939243862"><ele>51.0</ele><time>2026-04-18T18:14:41.145Z</time></trkpt><trkpt lat="41.91243355919928" lon="12.48122910065596"><ele>51.0</ele><time>2026-04-18T18:14:44.142Z</time></trkpt><trkpt lat="41.91251736643686" lon="12.48124908335701"><ele>51.0</ele><time>2026-04-18T18:14:48.14Z</time></trkpt><trkpt lat="41.912594983851555" lon="12.481268809323483"><ele>51.0</ele><time>2026-04-18T18:14:51.143Z</time></trkpt><trkpt lat="41.91268013769037" lon="12.481285081574537"><ele>51.0</ele><time>2026-04-18T18:14:54.139Z</time></trkpt><trkpt lat="41.91275404106875" lon="12.481304083133464"><ele>50.285714285714285</ele><time>2026-04-18T18:14:56.14Z</time></trkpt><trkpt lat="41.91282803676231" lon="12.481299728491443"><ele>49.57142857142857</ele><time>2026-04-18T18:14:58.151Z</time></trkpt><trkpt lat="41.912900642370914" lon="12.48126969963559"><ele>48.85714285714286</ele><time>2026-04-18T18:15:01.149Z</time></trkpt><trkpt lat="41.912957821451215" lon="12.481225714319816"><ele>48.14285714285714</ele><time>2026-04-18T18:15:04.147Z</time></trkpt><trkpt lat="41.913005430308196" lon="12.481169500864699"><ele>47.42857142857142</ele><time>2026-04-18T18:15:45.151Z</time></trkpt><trkpt lat="41.913048661813285" lon="12.481099171204088"><ele>46.714285714285715</ele><time>2026-04-18T18:15:48.142Z</time></trkpt><trkpt lat="41.91308245684581" lon="12.481007822713266"><ele>46.0</ele><time>2026-04-18T18:15:50.142Z</time></trkpt><trkpt lat="41.91309720124273" lon="12.480879656397637"><ele>45.833333333333336</ele><time>2026-04-18T18:15:52.141Z</time></trkpt><trkpt lat="41.913071666666674" lon="12.480776666666667"><ele>45.66666666666667</ele><time>2026-04-18T18:15:54.138Z</time></trkpt><trkpt lat="41.913061" lon="12.480684333333333"><ele>45.5</ele><time>2026-04-18T18:15:56.161Z</time></trkpt><trkpt lat="41.913034" lon="12.48058316666667"><ele>45.333333333333336</ele><time>2026-04-18T18:15:58.161Z</time></trkpt><trkpt lat="41.912994833333336" lon="12.480469166666667"><ele>45.166666666666664</ele><time>2026-04-18T18:16:00.15Z</time></trkpt><trkpt lat="41.91295366666666" lon="12.480350333333336"><ele>45.0</ele><time>2026-04-18T18:16:02.147Z</time></trkpt><trkpt lat="41.91291283333333" lon="12.480231499999999"><ele>45.0</ele><time>2026-04-18T18:16:04.153Z</time></trkpt><trkpt lat="41.91287366666667" lon="12.480112333333333"><ele>45.0</ele><time>2026-04-18T18:16:06.153Z</time></trkpt><trkpt lat="41.91283749999999" lon="12.479995666666666"><ele>45.0</ele><time>2026-04-18T18:16:08.153Z</time></trkpt><trkpt lat="41.91280516666667" lon="12.479885000000001"><ele>45.0</ele><time>2026-04-18T18:16:10.148Z</time></trkpt><trkpt lat="41.91277866666666" lon="12.479792666666667"><ele>45.0</ele><time>2026-04-18T18:16:12.145Z</time></trkpt><trkpt lat="41.91274799999999" lon="12.479684666666666"><ele>45.0</ele><time>2026-04-18T18:16:15.149Z</time></trkpt><trkpt lat="41.912741666666676" lon="12.479586500000002"><ele>45.333333333333336</ele><time>2026-04-18T18:16:20.144Z</time></trkpt><trkpt lat="41.91270933333333" lon="12.479456166666667"><ele>45.666666666666664</ele><time>2026-04-18T18:17:10.143Z</time></trkpt><trkpt lat="41.912683833333325" lon="12.479362499999999"><ele>46.0</ele><time>2026-04-18T18:17:12.142Z</time></trkpt><trkpt lat="41.91266116666667" lon="12.479282166666668"><ele>46.33333333333333</ele><time>2026-04-18T18:17:14.15Z</time></trkpt><trkpt lat="41.91263699999999" lon="12.479196166666668"><ele>46.666666666666664</ele><time>2026-04-18T18:17:16.152Z</time></trkpt><trkpt lat="41.91261083333333" lon="12.479102666666664"><ele>47.0</ele><time>2026-04-18T18:17:18.154Z</time></trkpt><trkpt lat="41.912585333333325" lon="12.4790105"><ele>47.5</ele><time>2026-04-18T18:17:20.155Z</time></trkpt><trkpt lat="41.9125575" lon="12.478916833333335"><ele>48.0</ele><time>2026-04-18T18:17:22.158Z</time></trkpt><trkpt lat="41.91252916666667" lon="12.478814833333335"><ele>48.5</ele><time>2026-04-18T18:17:24.154Z</time></trkpt><trkpt lat="41.912499333333336" lon="12.478705"><ele>49.0</ele><time>2026-04-18T18:17:26.155Z</time></trkpt><trkpt lat="41.91247083333333" lon="12.478598833333335"><ele>49.50000000000001</ele><time>2026-04-18T18:17:28.156Z</time></trkpt><trkpt lat="41.91244083333333" lon="12.478490833333334"><ele>50.0</ele><time>2026-04-18T18:17:30.155Z</time></trkpt><trkpt lat="41.91240566666667" lon="12.4783755"><ele>48.333333333333336</ele><time>2026-04-18T18:17:32.146Z</time></trkpt><trkpt lat="41.91236583333333" lon="12.478255833333332"><ele>46.66666666666667</ele><time>2026-04-18T18:17:34.143Z</time></trkpt><trkpt lat="41.91234384825559" lon="12.478136170238379"><ele>45.0</ele><time>2026-04-18T18:17:36.144Z</time></trkpt><trkpt lat="41.91231153377321" lon="12.478040024838453"><ele>43.333333333333336</ele><time>2026-04-18T18:17:38.143Z</time></trkpt><trkpt lat="41.91227819770409" lon="12.477941586232406"><ele>41.66666666666667</ele><time>2026-04-18T18:17:40.145Z</time></trkpt><trkpt lat="41.91224504050856" lon="12.47784367586197"><ele>40.0</ele><time>2026-04-18T18:17:42.145Z</time></trkpt><trkpt lat="41.91221791590214" lon="12.47776357904545"><ele>39.66666666666667</ele><time>2026-04-18T18:17:44.145Z</time></trkpt><trkpt lat="41.912189177525406" lon="12.477678473938132"><ele>39.333333333333336</ele><time>2026-04-18T18:17:47.155Z</time></trkpt><trkpt lat="41.91216140927925" lon="12.477600897583304"><ele>39.0</ele><time>2026-04-18T18:18:34.142Z</time></trkpt><trkpt lat="41.912123865062476" lon="12.477498540939179"><ele>38.666666666666664</ele><time>2026-04-18T18:18:37.147Z</time></trkpt><trkpt lat="41.912086914534065" lon="12.477411441681392"><ele>38.33333333333333</ele><time>2026-04-18T18:18:39.148Z</time></trkpt><trkpt lat="41.91204122306661" lon="12.477333579154676"><ele>38.0</ele><time>2026-04-18T18:18:41.152Z</time></trkpt><trkpt lat="41.911982013470514" lon="12.477240382603124"><ele>38.0</ele><time>2026-04-18T18:18:43.153Z</time></trkpt><trkpt lat="41.911915144107944" lon="12.47713976626331"><ele>38.0</ele><time>2026-04-18T18:18:45.157Z</time></trkpt><trkpt lat="41.91186297651019" lon="12.47703812609102"><ele>38.0</ele><time>2026-04-18T18:18:47.161Z</time></trkpt><trkpt lat="41.911836579128114" lon="12.47694836836886"><ele>38.0</ele><time>2026-04-18T18:18:49.152Z</time></trkpt><trkpt lat="41.9118232183162" lon="12.476860581719041"><ele>38.0</ele><time>2026-04-18T18:18:51.158Z</time></trkpt><trkpt lat="41.91180943673871" lon="12.476754069717066"><ele>38.0</ele><time>2026-04-18T18:18:54.144Z</time></trkpt><trkpt lat="41.91180071968435" lon="12.47666705087509"><ele>36.33333333333333</ele><time>2026-04-18T18:18:57.144Z</time></trkpt><trkpt lat="41.911790644390365" lon="12.476560667602918"><ele>34.666666666666664</ele><time>2026-04-18T18:19:00.153Z</time></trkpt><trkpt lat="41.911782394872695" lon="12.476473562367877"><ele>33.0</ele><time>2026-04-18T18:19:03.144Z</time></trkpt><trkpt lat="41.91177076510317" lon="12.476350765752377"><ele>31.333333333333336</ele><time>2026-04-18T18:19:06.151Z</time></trkpt><trkpt lat="41.91174933333333" lon="12.476248666666669"><ele>29.666666666666668</ele><time>2026-04-18T18:19:08.148Z</time></trkpt><trkpt lat="41.91175249999999" lon="12.476140166666669"><ele>28.0</ele><time>2026-04-18T18:19:10.142Z</time></trkpt><trkpt lat="41.91174633333333" lon="12.476024666666667"><ele>28.142857142857142</ele><time>2026-04-18T18:19:12.141Z</time></trkpt><trkpt lat="41.91173783333333" lon="12.475929666666664"><ele>28.285714285714285</ele><time>2026-04-18T18:19:14.144Z</time></trkpt><trkpt lat="41.911725833333335" lon="12.475843833333332"><ele>28.42857142857143</ele><time>2026-04-18T18:19:16.141Z</time></trkpt><trkpt lat="41.91170983333333" lon="12.475756833333332"><ele>28.571428571428573</ele><time>2026-04-18T18:19:18.145Z</time></trkpt><trkpt lat="41.911680499999996" lon="12.475644833333336"><ele>28.714285714285715</ele><time>2026-04-18T18:19:21.142Z</time></trkpt><trkpt lat="41.911659166666674" lon="12.475544666666666"><ele>28.85714285714286</ele><time>2026-04-18T18:19:24.147Z</time></trkpt><trkpt lat="41.91163533333333" lon="12.475451166666668"><ele>29.000000000000004</ele><time>2026-04-18T18:19:27.144Z</time></trkpt><trkpt lat="41.91161183333333" lon="12.475365166666666"><ele>29.0</ele><time>2026-04-18T18:19:30.147Z</time></trkpt><trkpt lat="41.91159016666667" lon="12.475268000000002"><ele>29.0</ele><time>2026-04-18T18:19:33.146Z</time></trkpt><trkpt lat="41.911566166666674" lon="12.475163833333333"><ele>29.0</ele><time>2026-04-18T18:20:16.146Z</time></trkpt><trkpt lat="41.91153316666667" lon="12.475033833333336"><ele>29.0</ele><time>2026-04-18T18:20:18.174Z</time></trkpt><trkpt lat="41.91149083333333" lon="12.474874833333335"><ele>29.0</ele><time>2026-04-18T18:20:20.162Z</time></trkpt><trkpt lat="41.9114685" lon="12.474788000000002"><ele>28.999999999999996</ele><time>2026-04-18T18:20:21.162Z</time></trkpt><trkpt lat="41.91144633333333" lon="12.474701666666666"><ele>29.0</ele><time>2026-04-18T18:20:22.161Z</time></trkpt><trkpt lat="41.91142433333333" lon="12.4746145"><ele>29.0</ele><time>2026-04-18T18:20:23.161Z</time></trkpt><trkpt lat="41.91140383333333" lon="12.474530666666665"><ele>29.0</ele><time>2026-04-18T18:20:24.154Z</time></trkpt><trkpt lat="41.91136683333334" lon="12.474394666666667"><ele>28.999999999999996</ele><time>2026-04-18T18:20:26.162Z</time></trkpt><trkpt lat="41.91133083333334" lon="12.474289500000001"><ele>29.0</ele><time>2026-04-18T18:20:32.165Z</time></trkpt><trkpt lat="41.91129733333334" lon="12.474150833333333"><ele>29.166666666666664</ele><time>2026-04-18T18:20:34.155Z</time></trkpt><trkpt lat="41.911271000000006" lon="12.4740725"><ele>29.333333333333332</ele><time>2026-04-18T18:20:35.155Z</time></trkpt><trkpt lat="41.911258688971024" lon="12.473979002036803"><ele>29.5</ele><time>2026-04-18T18:20:36.161Z</time></trkpt><trkpt lat="41.91123533062158" lon="12.473887511002355"><ele>29.666666666666664</ele><time>2026-04-18T18:20:37.155Z</time></trkpt><trkpt lat="41.91121233230246" lon="12.473797482450257"><ele>29.833333333333332</ele><time>2026-04-18T18:20:38.16Z</time></trkpt><trkpt lat="41.91116752791445" lon="12.473628944751006"><ele>30.0</ele><time>2026-04-18T18:20:40.164Z</time></trkpt><trkpt lat="41.91112749018598" lon="12.473482449661132"><ele>29.5</ele><time>2026-04-18T18:20:42.156Z</time></trkpt><trkpt lat="41.91109950286678" lon="12.473377376606994"><ele>29.0</ele><time>2026-04-18T18:20:44.149Z</time></trkpt><trkpt lat="41.911076444035686" lon="12.473291227342642"><ele>28.5</ele><time>2026-04-18T18:20:46.154Z</time></trkpt><trkpt lat="41.91105098699338" lon="12.473183879668627"><ele>28.0</ele><time>2026-04-18T18:20:49.154Z</time></trkpt><trkpt lat="41.9110425069234" lon="12.473074794112158"><ele>27.5</ele><time>2026-04-18T18:20:52.156Z</time></trkpt><trkpt lat="41.91108971855551" lon="12.472993070668268"><ele>27.0</ele><time>2026-04-18T18:20:55.155Z</time></trkpt><trkpt lat="41.911184333333324" lon="12.472909833333333"><ele>25.833333333333332</ele><time>2026-04-18T18:20:58.157Z</time></trkpt><trkpt lat="41.91127511244314" lon="12.47289344550961"><ele>24.666666666666668</ele><time>2026-04-18T18:21:00.162Z</time></trkpt><trkpt lat="41.911375666666665" lon="12.472828166666668"><ele>23.5</ele><time>2026-04-18T18:21:02.154Z</time></trkpt><trkpt lat="41.91146283333333" lon="12.472793000000001"><ele>22.333333333333336</ele><time>2026-04-18T18:21:04.152Z</time></trkpt><trkpt lat="41.91154216666667" lon="12.472759833333336"><ele>21.166666666666668</ele><time>2026-04-18T18:21:06.151Z</time></trkpt><trkpt lat="41.91160716666667" lon="12.472732166666667"><ele>20.0</ele><time>2026-04-18T18:21:08.149Z</time></trkpt><trkpt lat="41.911667" lon="12.472705666666664"><ele>21.0</ele><time>2026-04-18T18:21:11.149Z</time></trkpt><trkpt lat="41.911784833333336" lon="12.472652"><ele>22.0</ele><time>2026-04-18T18:21:28.147Z</time></trkpt><trkpt lat="41.91186233333333" lon="12.472622666666666"><ele>23.0</ele><time>2026-04-18T18:21:31.155Z</time></trkpt><trkpt lat="41.9119395" lon="12.472605333333334"><ele>24.0</ele><time>2026-04-18T18:21:35.15Z</time></trkpt><trkpt lat="41.91202433333333" lon="12.4725975"><ele>24.999999999999996</ele><time>2026-04-18T18:21:42.158Z</time></trkpt><trkpt lat="41.91209550000001" lon="12.472594333333333"><ele>26.0</ele><time>2026-04-18T18:21:44.154Z</time></trkpt><trkpt lat="41.912171333333326" lon="12.472603"><ele>25.999999999999996</ele><time>2026-04-18T18:21:47.153Z</time></trkpt><trkpt lat="41.912243833333335" lon="12.472608833333332"><ele>26.0</ele><time>2026-04-18T18:21:58.154Z</time></trkpt><trkpt lat="41.91230966666667" lon="12.472601000000001"><ele>26.0</ele><time>2026-04-18T18:22:03.152Z</time></trkpt><trkpt lat="41.91239787939846" lon="12.472598022923192"><ele>26.0</ele><time>2026-04-18T18:22:06.156Z</time></trkpt><trkpt lat="41.912484751082154" lon="12.472575262336441"><ele>25.999999999999996</ele><time>2026-04-18T18:22:08.147Z</time></trkpt><trkpt lat="41.91257125502507" lon="12.47253644154449"><ele>26.0</ele><time>2026-04-18T18:22:10.146Z</time></trkpt><trkpt lat="41.91264553060008" lon="12.472501779166977"><ele>26.0</ele><time>2026-04-18T18:22:12.15Z</time></trkpt><trkpt lat="41.91271944355009" lon="12.472467179202633"><ele>26.0</ele><time>2026-04-18T18:22:15.154Z</time></trkpt><trkpt lat="41.91278389970379" lon="12.472437092091978"><ele>26.0</ele><time>2026-04-18T18:22:36.152Z</time></trkpt><trkpt lat="41.9128806070423" lon="12.472393770373214"><ele>26.0</ele><time>2026-04-18T18:22:39.148Z</time></trkpt><trkpt lat="41.912975520655166" lon="12.472354376210498"><ele>26.0</ele><time>2026-04-18T18:22:41.147Z</time></trkpt><trkpt lat="41.913068509163196" lon="12.47228116965502"><ele>25.999999999999996</ele><time>2026-04-18T18:22:43.162Z</time></trkpt><trkpt lat="41.91313233333334" lon="12.472170166666668"><ele>26.0</ele><time>2026-04-18T18:22:45.158Z</time></trkpt><trkpt lat="41.91323250000001" lon="12.472083666666666"><ele>26.0</ele><time>2026-04-18T18:22:47.161Z</time></trkpt><trkpt lat="41.91329866666667" lon="12.472050166666667"><ele>26.0</ele><time>2026-04-18T18:22:48.151Z</time></trkpt><trkpt lat="41.913369333333335" lon="12.472020500000001"><ele>25.999999999999996</ele><time>2026-04-18T18:22:49.153Z</time></trkpt><trkpt lat="41.91344133333334" lon="12.471997500000002"><ele>26.0</ele><time>2026-04-18T18:22:50.148Z</time></trkpt><trkpt lat="41.91352283333334" lon="12.471967833333334"><ele>24.166666666666664</ele><time>2026-04-18T18:22:51.154Z</time></trkpt><trkpt lat="41.91360830987046" lon="12.47195970706605"><ele>22.333333333333332</ele><time>2026-04-18T18:22:52.151Z</time></trkpt><trkpt lat="41.91368940879448" lon="12.471932261519042"><ele>20.5</ele><time>2026-04-18T18:22:53.15Z</time></trkpt><trkpt lat="41.91376787785728" lon="12.471905169170556"><ele>18.666666666666664</ele><time>2026-04-18T18:22:54.155Z</time></trkpt><trkpt lat="41.91384187582487" lon="12.4718785910996"><ele>16.833333333333332</ele><time>2026-04-18T18:22:55.149Z</time></trkpt><trkpt lat="41.91391469224224" lon="12.471851049142565"><ele>15.0</ele><time>2026-04-18T18:22:56.153Z</time></trkpt><trkpt lat="41.91398080655097" lon="12.471819639350494"><ele>15.0</ele><time>2026-04-18T18:22:57.154Z</time></trkpt><trkpt lat="41.914040632491684" lon="12.471790632820134"><ele>15.0</ele><time>2026-04-18T18:22:58.152Z</time></trkpt><trkpt lat="41.91415557740955" lon="12.47173812512641"><ele>15.0</ele><time>2026-04-18T18:23:00.154Z</time></trkpt><trkpt lat="41.91425753930253" lon="12.471697938679432"><ele>15.0</ele><time>2026-04-18T18:23:02.151Z</time></trkpt><trkpt lat="41.914321169737605" lon="12.47167426194828"><ele>15.0</ele><time>2026-04-18T18:23:04.151Z</time></trkpt><trkpt lat="41.91440747693413" lon="12.47164214578897"><ele>15.0</ele><time>2026-04-18T18:23:34.158Z</time></trkpt><trkpt lat="41.91442416666667" lon="12.471540999999997"><ele>14.2</ele><time>2026-04-18T18:23:35.161Z</time></trkpt><trkpt lat="41.91445116666667" lon="12.471425"><ele>13.4</ele><time>2026-04-18T18:23:37.147Z</time></trkpt><trkpt lat="41.914427999999994" lon="12.471260166666665"><ele>12.600000000000001</ele><time>2026-04-18T18:23:39.149Z</time></trkpt><trkpt lat="41.91441383333334" lon="12.471161166666665"><ele>11.8</ele><time>2026-04-18T18:23:40.151Z</time></trkpt><trkpt lat="41.91439950000001" lon="12.471055166666668"><ele>11.0</ele><time>2026-04-18T18:23:41.152Z</time></trkpt><trkpt lat="41.914384333333324" lon="12.470946"><ele>11.0</ele><time>2026-04-18T18:23:42.158Z</time></trkpt><trkpt lat="41.91436950000001" lon="12.470833666666666"><ele>11.0</ele><time>2026-04-18T18:23:43.152Z</time></trkpt><trkpt lat="41.91435566666667" lon="12.4707205"><ele>11.0</ele><time>2026-04-18T18:23:44.152Z</time></trkpt><trkpt lat="41.91434250000001" lon="12.470613"><ele>11.0</ele><time>2026-04-18T18:23:45.153Z</time></trkpt><trkpt lat="41.91432983333334" lon="12.470507999999999"><ele>11.0</ele><time>2026-04-18T18:23:46.148Z</time></trkpt><trkpt lat="41.91431716666666" lon="12.470404166666667"><ele>11.0</ele><time>2026-04-18T18:23:47.15Z</time></trkpt><trkpt lat="41.91430533333334" lon="12.470303166666667"><ele>12.0</ele><time>2026-04-18T18:23:48.153Z</time></trkpt><trkpt lat="41.914294166666664" lon="12.470206000000001"><ele>13.0</ele><time>2026-04-18T18:23:49.151Z</time></trkpt><trkpt lat="41.91428333333333" lon="12.470113833333336"><ele>14.000000000000002</ele><time>2026-04-18T18:23:50.148Z</time></trkpt><trkpt lat="41.914261" lon="12.469963166666666"><ele>15.0</ele><time>2026-04-18T18:23:52.153Z</time></trkpt><trkpt lat="41.914193999999995" lon="12.469854999999999"><ele>16.0</ele><time>2026-04-18T18:23:54.162Z</time></trkpt><trkpt lat="41.91408233333333" lon="12.469831500000002"><ele>16.400000000000002</ele><time>2026-04-18T18:23:56.152Z</time></trkpt><trkpt lat="41.91397733333333" lon="12.469835333333334"><ele>16.8</ele><time>2026-04-18T18:23:58.155Z</time></trkpt><trkpt lat="41.913896333333334" lon="12.469867833333334"><ele>17.200000000000003</ele><time>2026-04-18T18:24:00.168Z</time></trkpt><trkpt lat="41.91381483333333" lon="12.46989433333333"><ele>17.6</ele><time>2026-04-18T18:24:02.163Z</time></trkpt><trkpt lat="41.91370896515719" lon="12.4698557571439"><ele>18.0</ele><time>2026-04-18T18:24:04.151Z</time></trkpt><trkpt lat="41.91360774635898" lon="12.469891833139378"><ele>18.0</ele><time>2026-04-18T18:24:06.162Z</time></trkpt><trkpt lat="41.91351366666666" lon="12.4699935"><ele>18.0</ele><time>2026-04-18T18:24:08.16Z</time></trkpt><trkpt lat="41.91339833333333" lon="12.4700225"><ele>18.0</ele><time>2026-04-18T18:24:10.151Z</time></trkpt><trkpt lat="41.91328416666667" lon="12.470055333333335"><ele>18.0</ele><time>2026-04-18T18:24:12.154Z</time></trkpt><trkpt lat="41.91316833333334" lon="12.470090999999998"><ele>19.333333333333332</ele><time>2026-04-18T18:24:14.161Z</time></trkpt><trkpt lat="41.91305683333333" lon="12.470128666666668"><ele>20.666666666666664</ele><time>2026-04-18T18:24:16.167Z</time></trkpt><trkpt lat="41.912968166666666" lon="12.470164"><ele>22.0</ele><time>2026-04-18T18:24:18.161Z</time></trkpt><trkpt lat="41.91290333333333" lon="12.470189666666665"><ele>23.333333333333332</ele><time>2026-04-18T18:24:21.156Z</time></trkpt><trkpt lat="41.91283902193006" lon="12.470134952421299"><ele>24.666666666666664</ele><time>2026-04-18T18:24:28.158Z</time></trkpt><trkpt lat="41.91276853602294" lon="12.470160543054144"><ele>26.0</ele><time>2026-04-18T18:24:50.153Z</time></trkpt><trkpt lat="41.91269517674798" lon="12.470185703285408"><ele>26.0</ele><time>2026-04-18T18:24:54.157Z</time></trkpt><trkpt lat="41.912686" lon="12.470276666666667"><ele>26.0</ele><time>2026-04-18T18:24:57.162Z</time></trkpt><trkpt lat="41.912614166666664" lon="12.470296666666664"><ele>26.0</ele><time>2026-04-18T18:25:03.165Z</time></trkpt><trkpt lat="41.91252616666667" lon="12.470327000000001"><ele>26.0</ele><time>2026-04-18T18:25:06.155Z</time></trkpt><trkpt lat="41.912462500000004" lon="12.470306666666666"><ele>26.0</ele><time>2026-04-18T18:25:08.165Z</time></trkpt><trkpt lat="41.91252841874629" lon="12.470246406684371"><ele>26.0</ele><time>2026-04-18T18:25:09.152Z</time></trkpt><trkpt lat="41.91250740897544" lon="12.470160079824298"><ele>26.0</ele><time>2026-04-18T18:25:13.155Z</time></trkpt><trkpt lat="41.9124866108094" lon="12.470074622641416"><ele>26.285714285714285</ele><time>2026-04-18T18:25:15.166Z</time></trkpt><trkpt lat="41.91245662757496" lon="12.469951430760474"><ele>26.571428571428573</ele><time>2026-04-18T18:25:18.162Z</time></trkpt><trkpt lat="41.912435378625034" lon="12.469864531710028"><ele>26.857142857142858</ele><time>2026-04-18T18:25:20.161Z</time></trkpt><trkpt lat="41.91241180164365" lon="12.469768935487842"><ele>27.142857142857142</ele><time>2026-04-18T18:25:23.156Z</time></trkpt><trkpt lat="41.91235795558704" lon="12.469718918444714"><ele>27.42857142857143</ele><time>2026-04-18T18:27:20Z</time></trkpt><trkpt lat="41.91232230645686" lon="12.469792627692572"><ele>27.714285714285715</ele><time>2026-04-18T18:30:50Z</time></trkpt><trkpt lat="41.91226426577417" lon="12.469754019377216"><ele>28.0</ele><time>2026-04-18T18:30:56Z</time></trkpt><trkpt lat="41.91219564833031" lon="12.469783861619323"><ele>28.0</ele><time>2026-04-18T18:31:03Z</time></trkpt><trkpt lat="41.912167065948886" lon="12.469703041742664"><ele>28.0</ele><time>2026-04-18T18:31:10Z</time></trkpt><trkpt lat="41.912125729822534" lon="12.469618520773555"><ele>28.0</ele><time>2026-04-18T18:31:18Z</time></trkpt><trkpt lat="41.9121059668119" lon="12.469532602402216"><ele>28.0</ele><time>2026-04-18T18:34:36Z</time></trkpt><trkpt lat="41.9120816782386" lon="12.469454355867832"><ele>28.0</ele><time>2026-04-18T18:34:59Z</time></trkpt><trkpt lat="41.912059920221914" lon="12.469371277447427"><ele>28.0</ele><time>2026-04-18T18:35:06Z</time></trkpt><trkpt lat="41.91202864685876" lon="12.46928335809705"><ele>28.0</ele><time>2026-04-18T18:35:19Z</time></trkpt><trkpt lat="41.91201961499315" lon="12.46919221085695"><ele>28.285714285714285</ele><time>2026-04-18T18:35:25Z</time></trkpt><trkpt lat="41.911991589553" lon="12.469116321399799"><ele>28.57142857142857</ele><time>2026-04-18T18:35:33Z</time></trkpt><trkpt lat="41.91196920842733" lon="12.469028931044845"><ele>28.857142857142858</ele><time>2026-04-18T18:35:40Z</time></trkpt><trkpt lat="41.911957403642965" lon="12.468937569394058"><ele>29.142857142857142</ele><time>2026-04-18T18:35:50Z</time></trkpt><trkpt lat="41.911889135242355" lon="12.468918343323057"><ele>29.428571428571427</ele><time>2026-04-18T18:35:56Z</time></trkpt><trkpt lat="41.91184554232921" lon="12.468849895618098"><ele>29.714285714285715</ele><time>2026-04-18T18:36:02Z</time></trkpt><trkpt lat="41.91177763872499" lon="12.468827939750177"><ele>30.0</ele><time>2026-04-18T18:36:11Z</time></trkpt><trkpt lat="41.911703991106265" lon="12.468852952730607"><ele>30.0</ele><time>2026-04-18T18:36:15Z</time></trkpt><trkpt lat="41.911640350077654" lon="12.468855704221596"><ele>30.0</ele><time>2026-04-18T18:36:20Z</time></trkpt><trkpt lat="41.91157729243643" lon="12.468886045828736"><ele>30.0</ele><time>2026-04-18T18:36:27Z</time></trkpt><trkpt lat="41.91151544206131" lon="12.468905128338536"><ele>30.0</ele><time>2026-04-18T18:36:32Z</time></trkpt><trkpt lat="41.911452094169675" lon="12.468923988930154"><ele>30.0</ele><time>2026-04-18T18:36:37Z</time></trkpt><trkpt lat="41.91138220297059" lon="12.468964844045432"><ele>30.0</ele><time>2026-04-18T18:36:44Z</time></trkpt><trkpt lat="41.91131460472317" lon="12.468979454399816"><ele>30.0</ele><time>2026-04-18T18:36:50Z</time></trkpt><trkpt lat="41.911250445151516" lon="12.46900788692651"><ele>30.0</ele><time>2026-04-18T18:36:55Z</time></trkpt><trkpt lat="41.9111908165817" lon="12.46904092728245"><ele>30.0</ele><time>2026-04-18T18:37:00Z</time></trkpt><trkpt lat="41.91112158784157" lon="12.469075345265976"><ele>30.0</ele><time>2026-04-18T18:37:07Z</time></trkpt><trkpt lat="41.91105485888112" lon="12.469096904670975"><ele>30.0</ele><time>2026-04-18T18:37:14Z</time></trkpt><trkpt lat="41.910992204533784" lon="12.469133072896128"><ele>30.0</ele><time>2026-04-18T18:37:20Z</time></trkpt><trkpt lat="41.91092542197509" lon="12.469161908791197"><ele>30.0</ele><time>2026-04-18T18:37:27Z</time></trkpt><trkpt lat="41.91085291275947" lon="12.469179111744669"><ele>30.0</ele><time>2026-04-18T18:37:34Z</time></trkpt><trkpt lat="41.91079103852562" lon="12.469213349074666"><ele>29.571428571428573</ele><time>2026-04-18T18:37:39Z</time></trkpt><trkpt lat="41.91072480191841" lon="12.469233420553339"><ele>29.142857142857142</ele><time>2026-04-18T18:37:45Z</time></trkpt><trkpt lat="41.91066327431151" lon="12.469266108230517"><ele>28.714285714285715</ele><time>2026-04-18T18:37:52Z</time></trkpt><trkpt lat="41.91060519784923" lon="12.46931351337738"><ele>28.285714285714285</ele><time>2026-04-18T18:37:59Z</time></trkpt><trkpt lat="41.910546088891536" lon="12.469366758208428"><ele>27.857142857142854</ele><time>2026-04-18T18:38:05Z</time></trkpt><trkpt lat="41.91049337991729" lon="12.469425733077012"><ele>27.428571428571427</ele><time>2026-04-18T18:38:12Z</time></trkpt><trkpt lat="41.91044179055714" lon="12.469489622803518"><ele>27.0</ele><time>2026-04-18T18:38:19Z</time></trkpt><trkpt lat="41.91039327187429" lon="12.469557053253865"><ele>27.285714285714285</ele><time>2026-04-18T18:38:26Z</time></trkpt><trkpt lat="41.91035586457393" lon="12.469640621493717"><ele>27.57142857142857</ele><time>2026-04-18T18:38:34Z</time></trkpt><trkpt lat="41.910316173565334" lon="12.469711730735536"><ele>27.85714285714286</ele><time>2026-04-18T18:38:40Z</time></trkpt><trkpt lat="41.910266195670545" lon="12.469788633688621"><ele>28.142857142857146</ele><time>2026-04-18T18:38:47Z</time></trkpt><trkpt lat="41.91022333238899" lon="12.469872985337197"><ele>28.42857142857143</ele><time>2026-04-18T18:38:54Z</time></trkpt><trkpt lat="41.910184532460335" lon="12.469946489827826"><ele>28.71428571428572</ele><time>2026-04-18T18:39:00Z</time></trkpt><trkpt lat="41.910145846070336" lon="12.470017165554756"><ele>29.000000000000004</ele><time>2026-04-18T18:39:07Z</time></trkpt><trkpt lat="41.91010436760153" lon="12.470092942121871"><ele>28.85714285714286</ele><time>2026-04-18T18:39:13Z</time></trkpt><trkpt lat="41.910049313125405" lon="12.47015762109739"><ele>28.714285714285715</ele><time>2026-04-18T18:39:19Z</time></trkpt><trkpt lat="41.91001683940907" lon="12.470236237687857"><ele>28.571428571428573</ele><time>2026-04-18T18:39:26Z</time></trkpt><trkpt lat="41.90996469895805" lon="12.470305854128917"><ele>28.42857142857143</ele><time>2026-04-18T18:39:32Z</time></trkpt><trkpt lat="41.90990126260514" lon="12.470361339444867"><ele>28.285714285714285</ele><time>2026-04-18T18:39:38Z</time></trkpt><trkpt lat="41.909849891853874" lon="12.470421154299899"><ele>28.142857142857142</ele><time>2026-04-18T18:39:48Z</time></trkpt><trkpt lat="41.90978480169908" lon="12.470439032259472"><ele>28.0</ele><time>2026-04-18T18:39:54Z</time></trkpt><trkpt lat="41.909716200730635" lon="12.470453338616752"><ele>27.857142857142858</ele><time>2026-04-18T18:40:01Z</time></trkpt><trkpt lat="41.90965061315179" lon="12.470478267139324"><ele>27.714285714285715</ele><time>2026-04-18T18:40:07Z</time></trkpt><trkpt lat="41.90958765008464" lon="12.470501200332496"><ele>27.57142857142857</ele><time>2026-04-18T18:40:14Z</time></trkpt><trkpt lat="41.90951689301959" lon="12.470524786747331"><ele>27.42857142857143</ele><time>2026-04-18T18:40:21Z</time></trkpt><trkpt lat="41.90944808114536" lon="12.470540302568203"><ele>27.285714285714285</ele><time>2026-04-18T18:40:27Z</time></trkpt><trkpt lat="41.9093764347757" lon="12.470571869286216"><ele>27.142857142857142</ele><time>2026-04-18T18:40:32Z</time></trkpt><trkpt lat="41.90930718837615" lon="12.47056659315674"><ele>27.0</ele><time>2026-04-18T18:40:53Z</time></trkpt><trkpt lat="41.909237870153646" lon="12.470585053470845"><ele>26.714285714285715</ele><time>2026-04-18T18:41:00Z</time></trkpt><trkpt lat="41.909188200450025" lon="12.470653494693366"><ele>26.428571428571427</ele><time>2026-04-18T18:47:12Z</time></trkpt><trkpt lat="41.90912686330166" lon="12.470683820097413"><ele>26.142857142857146</ele><time>2026-04-18T18:47:19Z</time></trkpt><trkpt lat="41.909061762852275" lon="12.47071807169948"><ele>25.857142857142858</ele><time>2026-04-18T18:47:24Z</time></trkpt><trkpt lat="41.90900079121078" lon="12.470753198341885"><ele>25.571428571428573</ele><time>2026-04-18T18:47:32Z</time></trkpt><trkpt lat="41.90901300250695" lon="12.470845462261183"><ele>25.28571428571429</ele><time>2026-04-18T18:47:38Z</time></trkpt><trkpt lat="41.909036258456254" lon="12.470944232632275"><ele>25.0</ele><time>2026-04-18T18:47:45Z</time></trkpt><trkpt lat="41.909064479432395" lon="12.471033450448886"><ele>25.000000000000004</ele><time>2026-04-18T18:47:52Z</time></trkpt><trkpt lat="41.90907792533199" lon="12.471124562544661"><ele>25.0</ele><time>2026-04-18T18:48:00Z</time></trkpt><trkpt lat="41.909106528114165" lon="12.471212194345169"><ele>25.0</ele><time>2026-04-18T18:48:07Z</time></trkpt><trkpt lat="41.909138186639524" lon="12.471305172622388"><ele>25.0</ele><time>2026-04-18T18:48:14Z</time></trkpt><trkpt lat="41.909184226940994" lon="12.47137766727044"><ele>25.0</ele><time>2026-04-18T18:48:20.999Z</time></trkpt><trkpt lat="41.909254435446336" lon="12.471408820635345"><ele>25.000000000000004</ele><time>2026-04-18T18:48:26.999Z</time></trkpt><trkpt lat="41.9093061450146" lon="12.4714643207529"><ele>25.0</ele><time>2026-04-18T18:48:34.999Z</time></trkpt><trkpt lat="41.90935648588963" lon="12.471527051601063"><ele>23.857142857142858</ele><time>2026-04-18T18:48:41.999Z</time></trkpt><trkpt lat="41.90937852420976" lon="12.47160920678347"><ele>22.714285714285715</ele><time>2026-04-18T18:48:48.999Z</time></trkpt><trkpt lat="41.90941702800352" lon="12.471676932284616"><ele>21.57142857142857</ele><time>2026-04-18T18:48:53.999Z</time></trkpt><trkpt lat="41.90946077056529" lon="12.471742154460078"><ele>20.42857142857143</ele><time>2026-04-18T18:48:57.999Z</time></trkpt><trkpt lat="41.90951600765463" lon="12.47180533137544"><ele>19.285714285714285</ele><time>2026-04-18T18:49:04Z</time></trkpt><trkpt lat="41.90954963768403" lon="12.471890992047314"><ele>18.142857142857142</ele><time>2026-04-18T18:49:12Z</time></trkpt><trkpt lat="41.90957616039993" lon="12.47197652413632"><ele>17.0</ele><time>2026-04-18T18:49:18Z</time></trkpt><trkpt lat="41.909609047730285" lon="12.472055826388242"><ele>16.285714285714285</ele><time>2026-04-18T18:49:24Z</time></trkpt><trkpt lat="41.909630452833646" lon="12.472144499456606"><ele>15.571428571428571</ele><time>2026-04-18T18:49:30Z</time></trkpt><trkpt lat="41.909645982551815" lon="12.472232375810664"><ele>14.857142857142856</ele><time>2026-04-18T18:49:36Z</time></trkpt><trkpt lat="41.909662653268796" lon="12.47232482330102"><ele>14.142857142857142</ele><time>2026-04-18T18:49:42Z</time></trkpt><trkpt lat="41.90967826916537" lon="12.47241722118962"><ele>13.428571428571427</ele><time>2026-04-18T18:49:48Z</time></trkpt><trkpt lat="41.90969974561623" lon="12.472497609390166"><ele>12.714285714285714</ele><time>2026-04-18T18:49:54Z</time></trkpt><trkpt lat="41.909710605725785" lon="12.472581313632299"><ele>12.0</ele><time>2026-04-18T18:50:00Z</time></trkpt><trkpt lat="41.90972943547213" lon="12.472674696373748"><ele>11.999999999999998</ele><time>2026-04-18T18:50:06.999Z</time></trkpt><trkpt lat="41.90974327690643" lon="12.472758084042077"><ele>12.0</ele><time>2026-04-18T18:50:12.999Z</time></trkpt><trkpt lat="41.909764213530245" lon="12.472845032178153"><ele>12.0</ele><time>2026-04-18T18:50:20.999Z</time></trkpt><trkpt lat="41.90977342430786" lon="12.472930487291338"><ele>12.0</ele><time>2026-04-18T18:50:25.999Z</time></trkpt><trkpt lat="41.909773740239466" lon="12.47302101709765"><ele>12.0</ele><time>2026-04-18T18:50:32.999Z</time></trkpt><trkpt lat="41.90979934570785" lon="12.473109386211233"><ele>11.999999999999998</ele><time>2026-04-18T18:50:55.999Z</time></trkpt><trkpt lat="41.90981940397631" lon="12.473190851996726"><ele>12.0</ele><time>2026-04-18T18:51:02.999Z</time></trkpt><trkpt lat="41.90980592583226" lon="12.47327948820659"><ele>13.57142857142857</ele><time>2026-04-18T18:51:09Z</time></trkpt><trkpt lat="41.90982381712961" lon="12.473362850248478"><ele>15.142857142857142</ele><time>2026-04-18T18:51:16Z</time></trkpt><trkpt lat="41.90986453378706" lon="12.473436908396495"><ele>16.714285714285715</ele><time>2026-04-18T18:51:21Z</time></trkpt><trkpt lat="41.90990463079908" lon="12.47351284083716"><ele>18.285714285714285</ele><time>2026-04-18T18:51:26Z</time></trkpt><trkpt lat="41.90995180547359" lon="12.473580453639574"><ele>19.857142857142854</ele><time>2026-04-18T18:51:33Z</time></trkpt><trkpt lat="41.90996642450461" lon="12.473672831458751"><ele>21.42857142857143</ele><time>2026-04-18T18:51:39Z</time></trkpt><trkpt lat="41.90998922059653" lon="12.473753641589386"><ele>23.0</ele><time>2026-04-18T18:51:45Z</time></trkpt><trkpt lat="41.910009836825964" lon="12.473834166864759"><ele>24.285714285714285</ele><time>2026-04-18T18:51:50Z</time></trkpt><trkpt lat="41.91003544527253" lon="12.473916806298906"><ele>25.57142857142857</ele><time>2026-04-18T18:51:57Z</time></trkpt><trkpt lat="41.910050626040295" lon="12.474002558424612"><ele>26.857142857142854</ele><time>2026-04-18T18:52:03Z</time></trkpt><trkpt lat="41.91005532405384" lon="12.474094819289524"><ele>28.142857142857142</ele><time>2026-04-18T18:52:08.999Z</time></trkpt><trkpt lat="41.91006639129708" lon="12.474188487043849"><ele>29.428571428571423</ele><time>2026-04-18T18:52:15.999Z</time></trkpt><trkpt lat="41.91008811149783" lon="12.474267899616448"><ele>30.71428571428571</ele><time>2026-04-18T18:52:22.999Z</time></trkpt><trkpt lat="41.910108889235936" lon="12.474356178818075"><ele>32.0</ele><time>2026-04-18T18:52:28.999Z</time></trkpt><trkpt lat="41.91014145553035" lon="12.474435570372968"><ele>32.0</ele><time>2026-04-18T18:52:33.999Z</time></trkpt><trkpt lat="41.91016555593734" lon="12.474529489687276"><ele>31.999999999999996</ele><time>2026-04-18T18:52:40.999Z</time></trkpt><trkpt lat="41.9102005983689" lon="12.47462286373099"><ele>32.0</ele><time>2026-04-18T18:52:47.999Z</time></trkpt><trkpt lat="41.910218037201865" lon="12.474709290379195"><ele>32.0</ele><time>2026-04-18T18:52:54.999Z</time></trkpt><trkpt lat="41.91024100240455" lon="12.474802510490482"><ele>31.999999999999996</ele><time>2026-04-18T18:53:01.999Z</time></trkpt><trkpt lat="41.91026224785187" lon="12.474886310080308"><ele>32.0</ele><time>2026-04-18T18:53:07.999Z</time></trkpt><trkpt lat="41.91028271710921" lon="12.474967048146036"><ele>32.0</ele><time>2026-04-18T18:53:14Z</time></trkpt><trkpt lat="41.91030464093574" lon="12.47505352351186"><ele>31.71428571428571</ele><time>2026-04-18T18:53:20Z</time></trkpt><trkpt lat="41.910327244705215" lon="12.47514164632945"><ele>31.428571428571423</ele><time>2026-04-18T18:53:27Z</time></trkpt><trkpt lat="41.910350863740405" lon="12.475233821275218"><ele>31.142857142857142</ele><time>2026-04-18T18:53:33Z</time></trkpt><trkpt lat="41.91037347796752" lon="12.475322074918873"><ele>30.857142857142854</ele><time>2026-04-18T18:53:40Z</time></trkpt><trkpt lat="41.91039468385799" lon="12.47540331012288"><ele>30.57142857142857</ele><time>2026-04-18T18:53:53Z</time></trkpt><trkpt lat="41.91032694635604" lon="12.475459213775583"><ele>30.285714285714285</ele><time>2026-04-18T18:53:59Z</time></trkpt><trkpt lat="41.91027519201919" lon="12.47552019179765"><ele>30.0</ele><time>2026-04-18T18:54:01Z</time></trkpt><trkpt lat="41.91023839941404" lon="12.475601686905764"><ele>29.857142857142858</ele><time>2026-04-18T18:54:09.999Z</time></trkpt><trkpt lat="41.91020282719034" lon="12.475672492340912"><ele>29.714285714285715</ele><time>2026-04-18T18:54:17.999Z</time></trkpt><trkpt lat="41.91017301374056" lon="12.475754658151768"><ele>29.571428571428573</ele><time>2026-04-18T18:54:26.999Z</time></trkpt><trkpt lat="41.910152544640354" lon="12.475841217056615"><ele>29.42857142857143</ele><time>2026-04-18T18:54:36.999Z</time></trkpt><trkpt lat="41.910153498825" lon="12.475937741497953"><ele>29.285714285714285</ele><time>2026-04-18T18:54:43.999Z</time></trkpt><trkpt lat="41.910161550352996" lon="12.476024686252252"><ele>29.142857142857146</ele><time>2026-04-18T18:54:49.999Z</time></trkpt><trkpt lat="41.910190186821204" lon="12.476101750142618"><ele>29.000000000000004</ele><time>2026-04-18T18:54:59.999Z</time></trkpt><trkpt lat="41.91026541917164" lon="12.476115230112782"><ele>28.999999999999996</ele><time>2026-04-18T18:55:07.999Z</time></trkpt><trkpt lat="41.91028196982251" lon="12.476202507323245"><ele>29.0</ele><time>2026-04-18T18:55:25Z</time></trkpt><trkpt lat="41.910406462316736" lon="12.476207332145524"><ele>29.0</ele><time>2026-04-18T18:55:34Z</time></trkpt><trkpt lat="41.91041592364027" lon="12.476112132498441"><ele>29.0</ele><time>2026-04-18T18:55:44Z</time></trkpt><trkpt lat="41.91047748060431" lon="12.47616629452809"><ele>28.999999999999996</ele><time>2026-04-18T18:55:54Z</time></trkpt><trkpt lat="41.91053578925247" lon="12.476223230733607"><ele>29.0</ele><time>2026-04-18T18:55:58Z</time></trkpt><trkpt lat="41.91060753038127" lon="12.476229318454164"><ele>29.000000000000004</ele><time>2026-04-18T18:56:04.999Z</time></trkpt><trkpt lat="41.910674656941644" lon="12.476218256866298"><ele>29.0</ele><time>2026-04-18T18:56:12.999Z</time></trkpt><trkpt lat="41.91073746874858" lon="12.476197200198254"><ele>29.000000000000004</ele><time>2026-04-18T18:56:19.999Z</time></trkpt><trkpt lat="41.91079664897682" lon="12.476235475211832"><ele>29.000000000000004</ele><time>2026-04-18T18:56:25.999Z</time></trkpt><trkpt lat="41.91086069812937" lon="12.476273588326114"><ele>29.0</ele><time>2026-04-18T18:56:32.999Z</time></trkpt><trkpt lat="41.91092451406543" lon="12.476314253213825"><ele>29.000000000000004</ele><time>2026-04-18T18:56:39.999Z</time></trkpt><trkpt lat="41.910972100485125" lon="12.47637573422772"><ele>29.000000000000004</ele><time>2026-04-18T18:56:48.999Z</time></trkpt><trkpt lat="41.911037874121575" lon="12.476410991859304"><ele>29.571428571428577</ele><time>2026-04-18T18:56:55.999Z</time></trkpt><trkpt lat="41.911078942602344" lon="12.476478881814185"><ele>30.142857142857146</ele><time>2026-04-18T18:57:02.999Z</time></trkpt><trkpt lat="41.91111867136707" lon="12.476544733440011"><ele>30.714285714285715</ele><time>2026-04-18T18:57:09.999Z</time></trkpt><trkpt lat="41.91118679277365" lon="12.476567055839034"><ele>31.28571428571429</ele><time>2026-04-18T18:57:14.999Z</time></trkpt><trkpt lat="41.9112503632324" lon="12.476579340322033"><ele>31.85714285714286</ele><time>2026-04-18T18:57:19.999Z</time></trkpt><trkpt lat="41.91127606456842" lon="12.476661195342126"><ele>32.42857142857143</ele><time>2026-04-18T18:57:24.999Z</time></trkpt><trkpt lat="41.91127769452957" lon="12.476753167846347"><ele>33.0</ele><time>2026-04-18T18:57:32.999Z</time></trkpt><trkpt lat="41.91127179451279" lon="12.476844985564796"><ele>33.0</ele><time>2026-04-18T18:57:41.999Z</time></trkpt><trkpt lat="41.91127224898067" lon="12.476932792195534"><ele>33.0</ele><time>2026-04-18T18:57:54.999Z</time></trkpt><trkpt lat="41.91126749320826" lon="12.477022265379995"><ele>33.0</ele><time>2026-04-18T18:58:22.999Z</time></trkpt><trkpt lat="41.911280666790255" lon="12.477109003148865"><ele>33.0</ele><time>2026-04-18T18:58:44.999Z</time></trkpt><trkpt lat="41.911406401705015" lon="12.477208704439748"><ele>33.0</ele><time>2026-04-18T18:59:09.999Z</time></trkpt><trkpt lat="41.911461878323216" lon="12.477249452429117"><ele>33.0</ele><time>2026-04-18T18:59:21.999Z</time></trkpt><trkpt lat="41.911500176236295" lon="12.47732344750175"><ele>34.0</ele><time>2026-04-18T18:59:28.999Z</time></trkpt><trkpt lat="41.911561100063544" lon="12.477384746909568"><ele>35.0</ele><time>2026-04-18T18:59:36.999Z</time></trkpt><trkpt lat="41.91158400738835" lon="12.477467750472753"><ele>36.0</ele><time>2026-04-18T18:59:44.999Z</time></trkpt><trkpt lat="41.911617175189505" lon="12.47754749941692"><ele>37.0</ele><time>2026-04-18T18:59:54.999Z</time></trkpt><trkpt lat="41.91164683776786" lon="12.477622519378453"><ele>38.0</ele><time>2026-04-18T19:00:09.999Z</time></trkpt><trkpt lat="41.91167962203872" lon="12.47769800855355"><ele>39.0</ele><time>2026-04-18T19:00:15.999Z</time></trkpt><trkpt lat="41.911691607393394" lon="12.477783952275363"><ele>40.0</ele><time>2026-04-18T19:00:25.999Z</time></trkpt><trkpt lat="41.91169182947121" lon="12.477871749317556"><ele>40.0</ele><time>2026-04-18T19:00:36.999Z</time></trkpt><trkpt lat="41.91168502115635" lon="12.477957695617308"><ele>40.0</ele><time>2026-04-18T19:00:48.999Z</time></trkpt><trkpt lat="41.911728575585336" lon="12.47802221747341"><ele>40.0</ele><time>2026-04-18T19:00:58.999Z</time></trkpt><trkpt lat="41.91178812717749" lon="12.477990311437823"><ele>40.0</ele><time>2026-04-18T19:01:07.999Z</time></trkpt><trkpt lat="41.91182204236658" lon="12.477913606327055"><ele>40.0</ele><time>2026-04-18T19:01:12.999Z</time></trkpt><trkpt lat="41.91175351151942" lon="12.477996631258527"><ele>40.0</ele><time>2026-04-18T19:01:38Z</time></trkpt><trkpt lat="41.911690821379615" lon="12.478047222431377"><ele>40.0</ele><time>2026-04-18T19:01:44Z</time></trkpt><trkpt lat="41.91162046194035" lon="12.478051041936384"><ele>42.333333333333336</ele><time>2026-04-18T19:01:51Z</time></trkpt><trkpt lat="41.91154972959905" lon="12.478084856796956"><ele>44.66666666666667</ele><time>2026-04-18T19:02:01Z</time></trkpt><trkpt lat="41.911497115015244" lon="12.478133228912558"><ele>47.0</ele><time>2026-04-18T19:02:11.999Z</time></trkpt><trkpt lat="41.91145818398245" lon="12.478202499130608"><ele>49.333333333333336</ele><time>2026-04-18T19:02:40.999Z</time></trkpt><trkpt lat="41.91142073195645" lon="12.478274380619874"><ele>51.666666666666664</ele><time>2026-04-18T19:02:54.999Z</time></trkpt><trkpt lat="41.911375834490556" lon="12.478344551590109"><ele>54.0</ele><time>2026-04-18T19:03:11.999Z</time></trkpt><trkpt lat="41.91130335071104" lon="12.478226216890478"><ele>54.0</ele><time>2026-04-18T19:03:55Z</time></trkpt><trkpt lat="41.91126635331389" lon="12.478152875376058"><ele>54.0</ele><time>2026-04-18T19:04:19.999Z</time></trkpt><trkpt lat="41.9112073764799" lon="12.478116859586509"><ele>54.0</ele><time>2026-04-18T19:04:43.999Z</time></trkpt><trkpt lat="41.91117067587946" lon="12.478044248562318"><ele>54.0</ele><time>2026-04-18T19:05:05.999Z</time></trkpt><trkpt lat="41.911082550338705" lon="12.478027978950214"><ele>54.0</ele><time>2026-04-18T19:05:36.999Z</time></trkpt><trkpt lat="41.911011923362715" lon="12.47801866667212"><ele>54.0</ele><time>2026-04-18T19:05:54Z</time></trkpt><trkpt lat="41.910884108213295" lon="12.47807086308514"><ele>54.0</ele><time>2026-04-18T19:10:44.999Z</time></trkpt><trkpt lat="41.910857219179576" lon="12.478152178679439"><ele>54.0</ele><time>2026-04-18T19:11:05.999Z</time></trkpt><trkpt lat="41.91087700445611" lon="12.478237982770537"><ele>54.0</ele><time>2026-04-18T19:11:14.999Z</time></trkpt><trkpt lat="41.91087886489806" lon="12.47833283232918"><ele>54.0</ele><time>2026-04-18T19:11:23.999Z</time></trkpt><trkpt lat="41.910901637282045" lon="12.478421229996403"><ele>54.0</ele><time>2026-04-18T19:11:35.999Z</time></trkpt><trkpt lat="41.910905642715925" lon="12.478513829761775"><ele>54.0</ele><time>2026-04-18T19:11:48.999Z</time></trkpt><trkpt lat="41.9109732096599" lon="12.478553784694212"><ele>54.0</ele><time>2026-04-18T19:12:17Z</time></trkpt><trkpt lat="41.910895202871814" lon="12.478699238400523"><ele>54.0</ele><time>2026-04-18T19:14:04Z</time></trkpt><trkpt lat="41.91089752440143" lon="12.478828739564118"><ele>54.0</ele><time>2026-04-18T19:15:15Z</time></trkpt><trkpt lat="41.91096020081839" lon="12.478809328554183"><ele>54.0</ele><time>2026-04-18T19:16:13Z</time></trkpt><trkpt lat="41.91097331386533" lon="12.478724953554304"><ele>54.0</ele><time>2026-04-18T19:17:48Z</time></trkpt><trkpt lat="41.91090991225146" lon="12.478685527355461"><ele>54.0</ele><time>2026-04-18T19:21:43Z</time></trkpt><trkpt lat="41.91085172461358" lon="12.478732359892675"><ele>54.0</ele><time>2026-04-18T19:21:51Z</time></trkpt><trkpt lat="41.91078544091443" lon="12.478741069039938"><ele>54.0</ele><time>2026-04-18T19:22:00Z</time></trkpt><trkpt lat="41.910709905512036" lon="12.478801589480467"><ele>54.14285714285714</ele><time>2026-04-18T19:22:12Z</time></trkpt><trkpt lat="41.91065813556732" lon="12.478872230336412"><ele>54.285714285714285</ele><time>2026-04-18T19:22:21Z</time></trkpt><trkpt lat="41.91064385905025" lon="12.478959819076547"><ele>54.42857142857143</ele><time>2026-04-18T19:22:27Z</time></trkpt><trkpt lat="41.91064622877776" lon="12.47905299609939"><ele>54.57142857142857</ele><time>2026-04-18T19:22:36Z</time></trkpt><trkpt lat="41.910642987508545" lon="12.479141594086837"><ele>54.714285714285715</ele><time>2026-04-18T19:22:44Z</time></trkpt><trkpt lat="41.910681925945966" lon="12.47921819413983"><ele>54.857142857142854</ele><time>2026-04-18T19:22:51Z</time></trkpt><trkpt lat="41.910718894283775" lon="12.479297725530134"><ele>55.0</ele><time>2026-04-18T19:22:57Z</time></trkpt><trkpt lat="41.91074316846402" lon="12.47938624819424"><ele>54.99999999999999</ele><time>2026-04-18T19:23:03Z</time></trkpt><trkpt lat="41.910754472487554" lon="12.479474434133845"><ele>55.0</ele><time>2026-04-18T19:23:09Z</time></trkpt><trkpt lat="41.91076718239445" lon="12.479560900693471"><ele>55.0</ele><time>2026-04-18T19:23:19Z</time></trkpt><trkpt lat="41.91076590986493" lon="12.47964804385404"><ele>55.0</ele><time>2026-04-18T19:23:45Z</time></trkpt><trkpt lat="41.91076830047044" lon="12.47974058558458"><ele>55.0</ele><time>2026-04-18T19:23:54Z</time></trkpt><trkpt lat="41.910787358903846" lon="12.479829409814316"><ele>54.99999999999999</ele><time>2026-04-18T19:24:03Z</time></trkpt><trkpt lat="41.91083293948719" lon="12.47989715202727"><ele>55.0</ele><time>2026-04-18T19:24:13Z</time></trkpt><trkpt lat="41.91086442726875" lon="12.479970687418794"><ele>55.857142857142854</ele><time>2026-04-18T19:24:25Z</time></trkpt><trkpt lat="41.91089163204815" lon="12.48004813913746"><ele>56.71428571428571</ele><time>2026-04-18T19:24:33Z</time></trkpt><trkpt lat="41.910897510295165" lon="12.480144715823386"><ele>57.57142857142857</ele><time>2026-04-18T19:25:13Z</time></trkpt><trkpt lat="41.910922340541276" lon="12.48023532011668"><ele>58.42857142857142</ele><time>2026-04-18T19:25:20Z</time></trkpt><trkpt lat="41.910941748130625" lon="12.480327390773763"><ele>59.285714285714285</ele><time>2026-04-18T19:25:29Z</time></trkpt><trkpt lat="41.910964291984335" lon="12.48041115308335"><ele>60.14285714285713</ele><time>2026-04-18T19:25:38Z</time></trkpt><trkpt lat="41.91100574552159" lon="12.480485579069732"><ele>60.99999999999999</ele><time>2026-04-18T19:25:45Z</time></trkpt><trkpt lat="41.91100557468671" lon="12.48058611227976"><ele>61.14285714285714</ele><time>2026-04-18T19:25:53Z</time></trkpt><trkpt lat="41.911021051185244" lon="12.48068380886197"><ele>61.285714285714285</ele><time>2026-04-18T19:26:00Z</time></trkpt><trkpt lat="41.91105087592064" lon="12.480771701681006"><ele>61.42857142857143</ele><time>2026-04-18T19:26:07Z</time></trkpt><trkpt lat="41.91105482406056" lon="12.480857402508168"><ele>61.57142857142857</ele><time>2026-04-18T19:26:14Z</time></trkpt><trkpt lat="41.91107823869857" lon="12.480937931619833"><ele>61.71428571428572</ele><time>2026-04-18T19:26:21Z</time></trkpt><trkpt lat="41.91109518277519" lon="12.481021738617375"><ele>61.85714285714286</ele><time>2026-04-18T19:26:29Z</time></trkpt><trkpt lat="41.911159200938286" lon="12.481087736568691"><ele>62.0</ele><time>2026-04-18T19:30:52Z</time></trkpt><trkpt lat="41.91114779979946" lon="12.48098752562264"><ele>62.00000000000001</ele><time>2026-04-18T19:30:57Z</time></trkpt><trkpt lat="41.91117685483075" lon="12.480911288283936"><ele>62.0</ele><time>2026-04-18T19:31:05Z</time></trkpt><trkpt lat="41.911136422574614" lon="12.480830491125824"><ele>62.0</ele><time>2026-04-18T19:31:18Z</time></trkpt><trkpt lat="41.911133162484866" lon="12.48092973048491"><ele>62.0</ele><time>2026-04-18T19:31:50Z</time></trkpt><trkpt lat="41.9111450272002" lon="12.481028878328718"><ele>62.00000000000001</ele><time>2026-04-18T19:31:56Z</time></trkpt><trkpt lat="41.91115884104399" lon="12.481132242237843"><ele>62.0</ele><time>2026-04-18T19:32:03Z</time></trkpt><trkpt lat="41.9111592801555" lon="12.481249175105752"><ele>61.28571428571429</ele><time>2026-04-18T19:34:03Z</time></trkpt><trkpt lat="41.91109277270172" lon="12.481285308304733"><ele>60.57142857142858</ele><time>2026-04-18T19:36:06Z</time></trkpt><trkpt lat="41.91102858969845" lon="12.481306198973716"><ele>59.85714285714286</ele><time>2026-04-18T19:36:10Z</time></trkpt><trkpt lat="41.91096135893626" lon="12.481318018965485"><ele>59.14285714285714</ele><time>2026-04-18T19:36:14Z</time></trkpt><trkpt lat="41.91089150761941" lon="12.481344012916958"><ele>58.42857142857142</ele><time>2026-04-18T19:36:18Z</time></trkpt><trkpt lat="41.91081172484387" lon="12.481371977439073"><ele>57.71428571428571</ele><time>2026-04-18T19:36:23Z</time></trkpt><trkpt lat="41.91074278313305" lon="12.481400858478196"><ele>57.0</ele><time>2026-04-18T19:36:27Z</time></trkpt><trkpt lat="41.91067993006848" lon="12.481428968736966"><ele>57.0</ele><time>2026-04-18T19:36:31Z</time></trkpt><trkpt lat="41.910605244144186" lon="12.481454424131437"><ele>56.99999999999999</ele><time>2026-04-18T19:36:36Z</time></trkpt><trkpt lat="41.91054285175431" lon="12.481495680543212"><ele>57.0</ele><time>2026-04-18T19:36:42Z</time></trkpt><trkpt lat="41.910601535916456" lon="12.481455508748788"><ele>57.0</ele><time>2026-04-18T19:36:49Z</time></trkpt><trkpt lat="41.910660379149334" lon="12.481420562601196"><ele>56.99999999999999</ele><time>2026-04-18T19:36:54Z</time></trkpt><trkpt lat="41.91072637530481" lon="12.481387670473694"><ele>57.0</ele><time>2026-04-18T19:37:00Z</time></trkpt><trkpt lat="41.910767523018855" lon="12.481312737182742"><ele>57.0</ele><time>2026-04-18T19:37:07Z</time></trkpt><trkpt lat="41.910840986373934" lon="12.481288501831918"><ele>57.0</ele><time>2026-04-18T19:37:13Z</time></trkpt><trkpt lat="41.91090607768516" lon="12.481269064293944"><ele>57.0</ele><time>2026-04-18T19:37:17Z</time></trkpt><trkpt lat="41.910972392583815" lon="12.481247335522964"><ele>62.0</ele><time>2026-04-18T19:37:23Z</time></trkpt><trkpt lat="41.91104256689821" lon="12.481241981578254"><ele>62.0</ele><time>2026-04-18T19:37:29Z</time></trkpt><trkpt lat="41.911104091247026" lon="12.481263198959754"><ele>62.0</ele><time>2026-04-18T19:37:35Z</time></trkpt></trkseg></trk></gpx>